<?xml version='1.0' encoding='UTF-8'?><gpx version="1.1" creator="JPX - https://github.com/jenetics/jpx" xmlns="http://www.topografix.com/GPX/1/1"><trk><trkseg><trkpt lat="44.1850272" lon="12.1148562"><ele>28.000000000000004</ele><time>2026-05-02T05:55:19.619Z</time></trkpt><trkpt lat="44.1850525" lon="12.1147614"><ele>28.0</ele><time>2026-05-02T05:55:22.565Z</time></trkpt><trkpt lat="44.1850567" lon="12.11466"><ele>28.0</ele><time>2026-05-02T05:55:23.544Z</time></trkpt><trkpt lat="44.1850867" lon="12.11458"><ele>28.0</ele><time>2026-05-02T05:55:26.544Z</time></trkpt><trkpt lat="44.18505" lon="12.1144767"><ele>28.000000000000004</ele><time>2026-05-02T05:55:32.545Z</time></trkpt><trkpt lat="44.1849433" lon="12.1143883"><ele>28.0</ele><time>2026-05-02T05:55:34.544Z</time></trkpt><trkpt lat="44.18493" lon="12.1142467"><ele>28.000000000000004</ele><time>2026-05-02T05:55:37.544Z</time></trkpt><trkpt lat="44.1849583" lon="12.1141417"><ele>28.0</ele><time>2026-05-02T05:55:39.544Z</time></trkpt><trkpt lat="44.1849983" lon="12.1140367"><ele>28.0</ele><time>2026-05-02T05:55:42.544Z</time></trkpt><trkpt lat="44.1850333" lon="12.11394"><ele>28.0</ele><time>2026-05-02T05:55:44.544Z</time></trkpt><trkpt lat="44.1850517" lon="12.1138317"><ele>28.000000000000004</ele><time>2026-05-02T05:55:47.544Z</time></trkpt><trkpt lat="44.18502" lon="12.1137517"><ele>28.0</ele><time>2026-05-02T05:55:49.544Z</time></trkpt><trkpt lat="44.18496" lon="12.113675"><ele>27.833333333333336</ele><time>2026-05-02T05:55:51.544Z</time></trkpt><trkpt lat="44.1848833" lon="12.113615"><ele>27.666666666666668</ele><time>2026-05-02T05:55:53.544Z</time></trkpt><trkpt lat="44.1848183" lon="12.1135567"><ele>27.5</ele><time>2026-05-02T05:55:55.544Z</time></trkpt><trkpt lat="44.1847483" lon="12.113495"><ele>27.333333333333336</ele><time>2026-05-02T05:55:57.544Z</time></trkpt><trkpt lat="44.1846733" lon="12.1134433"><ele>27.166666666666668</ele><time>2026-05-02T05:55:59.544Z</time></trkpt><trkpt lat="44.1846" lon="12.1133917"><ele>27.0</ele><time>2026-05-02T05:56:01.544Z</time></trkpt><trkpt lat="44.1845233" lon="12.1133367"><ele>27.0</ele><time>2026-05-02T05:56:03.544Z</time></trkpt><trkpt lat="44.18447" lon="12.1132817"><ele>27.0</ele><time>2026-05-02T05:56:05.544Z</time></trkpt><trkpt lat="44.1844083" lon="12.11323"><ele>27.0</ele><time>2026-05-02T05:56:07.544Z</time></trkpt><trkpt lat="44.1843367" lon="12.1131767"><ele>27.0</ele><time>2026-05-02T05:56:10.544Z</time></trkpt><trkpt lat="44.1842567" lon="12.113105"><ele>27.0</ele><time>2026-05-02T05:56:13.544Z</time></trkpt><trkpt lat="44.1841883" lon="12.1130417"><ele>27.0</ele><time>2026-05-02T05:56:15.544Z</time></trkpt><trkpt lat="44.1841133" lon="12.1129967"><ele>27.0</ele><time>2026-05-02T05:56:17.544Z</time></trkpt><trkpt lat="44.1840333" lon="12.112945"><ele>27.000000000000004</ele><time>2026-05-02T05:56:19.544Z</time></trkpt><trkpt lat="44.183955" lon="12.112895"><ele>27.000000000000004</ele><time>2026-05-02T05:56:21.544Z</time></trkpt><trkpt lat="44.183875" lon="12.11284"><ele>27.0</ele><time>2026-05-02T05:56:23.544Z</time></trkpt><trkpt lat="44.1837933" lon="12.1127733"><ele>27.0</ele><time>2026-05-02T05:56:25.544Z</time></trkpt><trkpt lat="44.1837083" lon="12.11271"><ele>27.0</ele><time>2026-05-02T05:56:27.545Z</time></trkpt><trkpt lat="44.18363" lon="12.1126517"><ele>27.000000000000004</ele><time>2026-05-02T05:56:29.544Z</time></trkpt><trkpt lat="44.1835483" lon="12.112585"><ele>27.000000000000004</ele><time>2026-05-02T05:56:31.544Z</time></trkpt><trkpt lat="44.1834617" lon="12.1125217"><ele>27.0</ele><time>2026-05-02T05:56:33.544Z</time></trkpt><trkpt lat="44.1833783" lon="12.1124517"><ele>27.0</ele><time>2026-05-02T05:56:35.544Z</time></trkpt><trkpt lat="44.183295" lon="12.1123867"><ele>27.0</ele><time>2026-05-02T05:56:37.544Z</time></trkpt><trkpt lat="44.1832117" lon="12.1123217"><ele>27.000000000000004</ele><time>2026-05-02T05:56:39.544Z</time></trkpt><trkpt lat="44.18312" lon="12.1122483"><ele>27.000000000000004</ele><time>2026-05-02T05:56:41.544Z</time></trkpt><trkpt lat="44.1830267" lon="12.1121733"><ele>27.0</ele><time>2026-05-02T05:56:43.544Z</time></trkpt><trkpt lat="44.1829383" lon="12.1121033"><ele>27.0</ele><time>2026-05-02T05:56:45.544Z</time></trkpt><trkpt lat="44.1828467" lon="12.1120333"><ele>27.0</ele><time>2026-05-02T05:56:47.544Z</time></trkpt><trkpt lat="44.1827583" lon="12.1119683"><ele>27.000000000000004</ele><time>2026-05-02T05:56:49.545Z</time></trkpt><trkpt lat="44.18267" lon="12.1119"><ele>27.000000000000004</ele><time>2026-05-02T05:56:51.544Z</time></trkpt><trkpt lat="44.1825867" lon="12.1118217"><ele>27.0</ele><time>2026-05-02T05:56:53.544Z</time></trkpt><trkpt lat="44.1825" lon="12.1117617"><ele>27.0</ele><time>2026-05-02T05:56:55.544Z</time></trkpt><trkpt lat="44.18242" lon="12.1116933"><ele>27.200000000000003</ele><time>2026-05-02T05:56:57.544Z</time></trkpt><trkpt lat="44.1823333" lon="12.1116283"><ele>27.400000000000002</ele><time>2026-05-02T05:56:59.544Z</time></trkpt><trkpt lat="44.1822483" lon="12.1115617"><ele>27.599999999999998</ele><time>2026-05-02T05:57:01.544Z</time></trkpt><trkpt lat="44.1821583" lon="12.111495"><ele>27.799999999999997</ele><time>2026-05-02T05:57:03.544Z</time></trkpt><trkpt lat="44.18207" lon="12.11143"><ele>28.0</ele><time>2026-05-02T05:57:05.545Z</time></trkpt><trkpt lat="44.1819817" lon="12.111365"><ele>28.0</ele><time>2026-05-02T05:57:07.544Z</time></trkpt><trkpt lat="44.1818917" lon="12.1113"><ele>27.999999999999996</ele><time>2026-05-02T05:57:09.544Z</time></trkpt><trkpt lat="44.1818033" lon="12.1112317"><ele>27.999999999999996</ele><time>2026-05-02T05:57:11.544Z</time></trkpt><trkpt lat="44.181715" lon="12.1111583"><ele>28.0</ele><time>2026-05-02T05:57:13.544Z</time></trkpt><trkpt lat="44.181615" lon="12.1110883"><ele>28.0</ele><time>2026-05-02T05:57:15.544Z</time></trkpt><trkpt lat="44.1815233" lon="12.1110233"><ele>28.2</ele><time>2026-05-02T05:57:17.544Z</time></trkpt><trkpt lat="44.1814333" lon="12.1109583"><ele>28.4</ele><time>2026-05-02T05:57:19.544Z</time></trkpt><trkpt lat="44.181345" lon="12.11089"><ele>28.599999999999998</ele><time>2026-05-02T05:57:21.544Z</time></trkpt><trkpt lat="44.1812483" lon="12.1108167"><ele>28.799999999999997</ele><time>2026-05-02T05:57:23.545Z</time></trkpt><trkpt lat="44.1811567" lon="12.1107417"><ele>29.0</ele><time>2026-05-02T05:57:25.544Z</time></trkpt><trkpt lat="44.1810667" lon="12.1106667"><ele>29.2</ele><time>2026-05-02T05:57:27.544Z</time></trkpt><trkpt lat="44.180975" lon="12.1106"><ele>29.4</ele><time>2026-05-02T05:57:29.544Z</time></trkpt><trkpt lat="44.180885" lon="12.110535"><ele>29.6</ele><time>2026-05-02T05:57:31.544Z</time></trkpt><trkpt lat="44.18079" lon="12.1104633"><ele>29.8</ele><time>2026-05-02T05:57:33.544Z</time></trkpt><trkpt lat="44.1806967" lon="12.11039"><ele>30.0</ele><time>2026-05-02T05:57:35.544Z</time></trkpt><trkpt lat="44.1806" lon="12.110315"><ele>30.0</ele><time>2026-05-02T05:57:37.544Z</time></trkpt><trkpt lat="44.1805033" lon="12.11024"><ele>30.0</ele><time>2026-05-02T05:57:39.544Z</time></trkpt><trkpt lat="44.18041" lon="12.1101683"><ele>30.0</ele><time>2026-05-02T05:57:41.544Z</time></trkpt><trkpt lat="44.1803167" lon="12.1101"><ele>30.0</ele><time>2026-05-02T05:57:43.544Z</time></trkpt><trkpt lat="44.180225" lon="12.110025"><ele>30.0</ele><time>2026-05-02T05:57:45.544Z</time></trkpt><trkpt lat="44.1801317" lon="12.109945"><ele>30.2</ele><time>2026-05-02T05:57:47.544Z</time></trkpt><trkpt lat="44.18004" lon="12.109865"><ele>30.4</ele><time>2026-05-02T05:57:49.544Z</time></trkpt><trkpt lat="44.1799467" lon="12.1097867"><ele>30.6</ele><time>2026-05-02T05:57:51.544Z</time></trkpt><trkpt lat="44.179855" lon="12.10971"><ele>30.8</ele><time>2026-05-02T05:57:53.544Z</time></trkpt><trkpt lat="44.1797617" lon="12.10964"><ele>31.0</ele><time>2026-05-02T05:57:55.544Z</time></trkpt><trkpt lat="44.179675" lon="12.109555"><ele>31.0</ele><time>2026-05-02T05:57:57.544Z</time></trkpt><trkpt lat="44.1795883" lon="12.1094733"><ele>31.0</ele><time>2026-05-02T05:57:59.544Z</time></trkpt><trkpt lat="44.1795" lon="12.10939"><ele>31.0</ele><time>2026-05-02T05:58:01.544Z</time></trkpt><trkpt lat="44.1794117" lon="12.1093083"><ele>31.0</ele><time>2026-05-02T05:58:03.545Z</time></trkpt><trkpt lat="44.1793267" lon="12.1092233"><ele>31.0</ele><time>2026-05-02T05:58:05.544Z</time></trkpt><trkpt lat="44.1792383" lon="12.1091433"><ele>30.8</ele><time>2026-05-02T05:58:07.544Z</time></trkpt><trkpt lat="44.17915" lon="12.1090633"><ele>30.6</ele><time>2026-05-02T05:58:09.544Z</time></trkpt><trkpt lat="44.1790633" lon="12.1089817"><ele>30.4</ele><time>2026-05-02T05:58:11.544Z</time></trkpt><trkpt lat="44.1789783" lon="12.1089017"><ele>30.2</ele><time>2026-05-02T05:58:13.544Z</time></trkpt><trkpt lat="44.1788933" lon="12.10882"><ele>30.0</ele><time>2026-05-02T05:58:15.544Z</time></trkpt><trkpt lat="44.178805" lon="12.108735"><ele>30.0</ele><time>2026-05-02T05:58:17.544Z</time></trkpt><trkpt lat="44.1787133" lon="12.1086533"><ele>30.0</ele><time>2026-05-02T05:58:19.544Z</time></trkpt><trkpt lat="44.1786233" lon="12.10857"><ele>30.0</ele><time>2026-05-02T05:58:21.544Z</time></trkpt><trkpt lat="44.1785333" lon="12.108485"><ele>30.0</ele><time>2026-05-02T05:58:23.544Z</time></trkpt><trkpt lat="44.178435" lon="12.108395"><ele>30.0</ele><time>2026-05-02T05:58:25.544Z</time></trkpt><trkpt lat="44.1783433" lon="12.1083067"><ele>30.25</ele><time>2026-05-02T05:58:27.544Z</time></trkpt><trkpt lat="44.1782517" lon="12.10822"><ele>30.5</ele><time>2026-05-02T05:58:29.544Z</time></trkpt><trkpt lat="44.1781583" lon="12.1081317"><ele>30.75</ele><time>2026-05-02T05:58:31.544Z</time></trkpt><trkpt lat="44.178065" lon="12.1080483"><ele>31.0</ele><time>2026-05-02T05:58:33.544Z</time></trkpt><trkpt lat="44.1779667" lon="12.1079617"><ele>31.0</ele><time>2026-05-02T05:58:35.544Z</time></trkpt><trkpt lat="44.1778767" lon="12.1078767"><ele>31.0</ele><time>2026-05-02T05:58:37.545Z</time></trkpt><trkpt lat="44.1777817" lon="12.107795"><ele>31.0</ele><time>2026-05-02T05:58:39.545Z</time></trkpt><trkpt lat="44.1776833" lon="12.1077067"><ele>31.0</ele><time>2026-05-02T05:58:41.545Z</time></trkpt><trkpt lat="44.1776033" lon="12.1076267"><ele>31.0</ele><time>2026-05-02T05:58:43.545Z</time></trkpt><trkpt lat="44.1775117" lon="12.1075483"><ele>31.0</ele><time>2026-05-02T05:58:45.545Z</time></trkpt><trkpt lat="44.17742" lon="12.1074633"><ele>31.0</ele><time>2026-05-02T05:58:47.545Z</time></trkpt><trkpt lat="44.17733" lon="12.1073817"><ele>31.0</ele><time>2026-05-02T05:58:49.545Z</time></trkpt><trkpt lat="44.1772383" lon="12.1072983"><ele>31.0</ele><time>2026-05-02T05:58:51.545Z</time></trkpt><trkpt lat="44.17715" lon="12.10721"><ele>31.0</ele><time>2026-05-02T05:58:53.545Z</time></trkpt><trkpt lat="44.17706" lon="12.1071183"><ele>31.200000000000003</ele><time>2026-05-02T05:58:55.545Z</time></trkpt><trkpt lat="44.176965" lon="12.10703"><ele>31.400000000000002</ele><time>2026-05-02T05:58:57.545Z</time></trkpt><trkpt lat="44.1768683" lon="12.1069483"><ele>31.6</ele><time>2026-05-02T05:58:59.545Z</time></trkpt><trkpt lat="44.1767767" lon="12.106865"><ele>31.8</ele><time>2026-05-02T05:59:01.545Z</time></trkpt><trkpt lat="44.17669" lon="12.1067817"><ele>32.0</ele><time>2026-05-02T05:59:03.545Z</time></trkpt><trkpt lat="44.1765933" lon="12.1066967"><ele>32.0</ele><time>2026-05-02T05:59:05.545Z</time></trkpt><trkpt lat="44.176495" lon="12.1066117"><ele>32.0</ele><time>2026-05-02T05:59:07.545Z</time></trkpt><trkpt lat="44.1764" lon="12.1065233"><ele>32.0</ele><time>2026-05-02T05:59:09.545Z</time></trkpt><trkpt lat="44.17631" lon="12.10644"><ele>32.0</ele><time>2026-05-02T05:59:11.545Z</time></trkpt><trkpt lat="44.1762217" lon="12.1063517"><ele>32.0</ele><time>2026-05-02T05:59:13.545Z</time></trkpt><trkpt lat="44.1761367" lon="12.1062617"><ele>32.0</ele><time>2026-05-02T05:59:15.545Z</time></trkpt><trkpt lat="44.1760467" lon="12.10618"><ele>32.0</ele><time>2026-05-02T05:59:17.545Z</time></trkpt><trkpt lat="44.17596" lon="12.1061033"><ele>32.0</ele><time>2026-05-02T05:59:19.545Z</time></trkpt><trkpt lat="44.17587" lon="12.10606"><ele>32.0</ele><time>2026-05-02T05:59:21.545Z</time></trkpt><trkpt lat="44.175775" lon="12.1060867"><ele>32.0</ele><time>2026-05-02T05:59:23.546Z</time></trkpt><trkpt lat="44.1757183" lon="12.1062067"><ele>32.25</ele><time>2026-05-02T05:59:25.545Z</time></trkpt><trkpt lat="44.1756733" lon="12.1063617"><ele>32.5</ele><time>2026-05-02T05:59:27.545Z</time></trkpt><trkpt lat="44.1755933" lon="12.1064933"><ele>32.75</ele><time>2026-05-02T05:59:29.545Z</time></trkpt><trkpt lat="44.1755283" lon="12.1066367"><ele>33.0</ele><time>2026-05-02T05:59:31.545Z</time></trkpt><trkpt lat="44.175465" lon="12.1067767"><ele>33.199999999999996</ele><time>2026-05-02T05:59:33.545Z</time></trkpt><trkpt lat="44.17541" lon="12.106915"><ele>33.4</ele><time>2026-05-02T05:59:35.545Z</time></trkpt><trkpt lat="44.1753583" lon="12.1070467"><ele>33.599999999999994</ele><time>2026-05-02T05:59:37.545Z</time></trkpt><trkpt lat="44.1752917" lon="12.1071467"><ele>33.8</ele><time>2026-05-02T05:59:39.545Z</time></trkpt><trkpt lat="44.17521" lon="12.1071567"><ele>34.0</ele><time>2026-05-02T05:59:41.545Z</time></trkpt><trkpt lat="44.1751333" lon="12.107075"><ele>34.0</ele><time>2026-05-02T05:59:43.545Z</time></trkpt><trkpt lat="44.1750817" lon="12.1069333"><ele>34.0</ele><time>2026-05-02T05:59:45.545Z</time></trkpt><trkpt lat="44.1750267" lon="12.1068"><ele>34.0</ele><time>2026-05-02T05:59:47.545Z</time></trkpt><trkpt lat="44.17497" lon="12.1066767"><ele>34.0</ele><time>2026-05-02T05:59:49.545Z</time></trkpt><trkpt lat="44.174905" lon="12.1065483"><ele>34.0</ele><time>2026-05-02T05:59:51.545Z</time></trkpt><trkpt lat="44.174845" lon="12.1064017"><ele>33.833333333333336</ele><time>2026-05-02T05:59:53.545Z</time></trkpt><trkpt lat="44.1747917" lon="12.1062517"><ele>33.66666666666667</ele><time>2026-05-02T05:59:55.545Z</time></trkpt><trkpt lat="44.1747583" lon="12.1061767"><ele>33.5</ele><time>2026-05-02T05:59:56.545Z</time></trkpt><trkpt lat="44.174725" lon="12.1061017"><ele>33.333333333333336</ele><time>2026-05-02T05:59:57.545Z</time></trkpt><trkpt lat="44.1746917" lon="12.1060267"><ele>33.166666666666664</ele><time>2026-05-02T05:59:58.546Z</time></trkpt><trkpt lat="44.17464" lon="12.10588"><ele>33.0</ele><time>2026-05-02T06:00:00.545Z</time></trkpt><trkpt lat="44.1745783" lon="12.1057317"><ele>33.0</ele><time>2026-05-02T06:00:02.545Z</time></trkpt><trkpt lat="44.1745167" lon="12.1055817"><ele>33.0</ele><time>2026-05-02T06:00:04.545Z</time></trkpt><trkpt lat="44.1744833" lon="12.1055067"><ele>33.0</ele><time>2026-05-02T06:00:05.545Z</time></trkpt><trkpt lat="44.1744233" lon="12.10536"><ele>33.0</ele><time>2026-05-02T06:00:07.545Z</time></trkpt><trkpt lat="44.174355" lon="12.1052333"><ele>33.0</ele><time>2026-05-02T06:00:09.545Z</time></trkpt><trkpt lat="44.174265" lon="12.10513"><ele>33.0</ele><time>2026-05-02T06:00:11.545Z</time></trkpt><trkpt lat="44.1741883" lon="12.1049983"><ele>33.0</ele><time>2026-05-02T06:00:13.545Z</time></trkpt><trkpt lat="44.1741333" lon="12.1048667"><ele>33.0</ele><time>2026-05-02T06:00:15.545Z</time></trkpt><trkpt lat="44.1740683" lon="12.1047217"><ele>33.0</ele><time>2026-05-02T06:00:17.546Z</time></trkpt><trkpt lat="44.1740533" lon="12.104555"><ele>33.0</ele><time>2026-05-02T06:00:19.545Z</time></trkpt><trkpt lat="44.1740433" lon="12.1044017"><ele>33.0</ele><time>2026-05-02T06:00:21.545Z</time></trkpt><trkpt lat="44.17402" lon="12.1042567"><ele>33.0</ele><time>2026-05-02T06:00:23.545Z</time></trkpt><trkpt lat="44.1739817" lon="12.1041217"><ele>33.0</ele><time>2026-05-02T06:00:25.545Z</time></trkpt><trkpt lat="44.1739283" lon="12.10399"><ele>33.0</ele><time>2026-05-02T06:00:27.545Z</time></trkpt><trkpt lat="44.173855" lon="12.10387"><ele>33.25</ele><time>2026-05-02T06:00:29.545Z</time></trkpt><trkpt lat="44.17377" lon="12.1037633"><ele>33.5</ele><time>2026-05-02T06:00:31.545Z</time></trkpt><trkpt lat="44.1736833" lon="12.10365"><ele>33.75</ele><time>2026-05-02T06:00:33.545Z</time></trkpt><trkpt lat="44.1736" lon="12.1035417"><ele>34.0</ele><time>2026-05-02T06:00:35.545Z</time></trkpt><trkpt lat="44.1735117" lon="12.1034317"><ele>34.0</ele><time>2026-05-02T06:00:37.545Z</time></trkpt><trkpt lat="44.1734217" lon="12.10332"><ele>34.0</ele><time>2026-05-02T06:00:39.545Z</time></trkpt><trkpt lat="44.173335" lon="12.1032"><ele>34.0</ele><time>2026-05-02T06:00:41.545Z</time></trkpt><trkpt lat="44.1732467" lon="12.1030833"><ele>34.0</ele><time>2026-05-02T06:00:43.545Z</time></trkpt><trkpt lat="44.1731583" lon="12.1029733"><ele>33.75</ele><time>2026-05-02T06:00:45.545Z</time></trkpt><trkpt lat="44.1730633" lon="12.1028667"><ele>33.5</ele><time>2026-05-02T06:00:47.545Z</time></trkpt><trkpt lat="44.1729767" lon="12.1027617"><ele>33.25</ele><time>2026-05-02T06:00:49.545Z</time></trkpt><trkpt lat="44.1728917" lon="12.10265"><ele>33.0</ele><time>2026-05-02T06:00:51.545Z</time></trkpt><trkpt lat="44.1728033" lon="12.1025367"><ele>33.0</ele><time>2026-05-02T06:00:53.545Z</time></trkpt><trkpt lat="44.1727117" lon="12.1024167"><ele>33.0</ele><time>2026-05-02T06:00:55.545Z</time></trkpt><trkpt lat="44.1726217" lon="12.102305"><ele>33.0</ele><time>2026-05-02T06:00:57.545Z</time></trkpt><trkpt lat="44.17254" lon="12.1021817"><ele>33.0</ele><time>2026-05-02T06:00:59.545Z</time></trkpt><trkpt lat="44.17245" lon="12.1020583"><ele>33.0</ele><time>2026-05-02T06:01:01.545Z</time></trkpt><trkpt lat="44.1723633" lon="12.101945"><ele>33.0</ele><time>2026-05-02T06:01:03.545Z</time></trkpt><trkpt lat="44.1722767" lon="12.10183"><ele>33.0</ele><time>2026-05-02T06:01:05.545Z</time></trkpt><trkpt lat="44.1721933" lon="12.1017233"><ele>33.0</ele><time>2026-05-02T06:01:07.546Z</time></trkpt><trkpt lat="44.1721117" lon="12.10161"><ele>33.199999999999996</ele><time>2026-05-02T06:01:09.545Z</time></trkpt><trkpt lat="44.1720333" lon="12.1015017"><ele>33.4</ele><time>2026-05-02T06:01:11.545Z</time></trkpt><trkpt lat="44.17195" lon="12.1013933"><ele>33.599999999999994</ele><time>2026-05-02T06:01:13.545Z</time></trkpt><trkpt lat="44.1718667" lon="12.1012683"><ele>33.8</ele><time>2026-05-02T06:01:15.545Z</time></trkpt><trkpt lat="44.1718217" lon="12.1012067"><ele>34.0</ele><time>2026-05-02T06:01:16.545Z</time></trkpt><trkpt lat="44.1717333" lon="12.1010783"><ele>34.0</ele><time>2026-05-02T06:01:18.545Z</time></trkpt><trkpt lat="44.1716883" lon="12.1010167"><ele>34.0</ele><time>2026-05-02T06:01:19.545Z</time></trkpt><trkpt lat="44.1716433" lon="12.100955"><ele>34.0</ele><time>2026-05-02T06:01:20.546Z</time></trkpt><trkpt lat="44.1716" lon="12.10089"><ele>34.0</ele><time>2026-05-02T06:01:21.545Z</time></trkpt><trkpt lat="44.17151" lon="12.1007767"><ele>34.0</ele><time>2026-05-02T06:01:23.545Z</time></trkpt><trkpt lat="44.1714267" lon="12.1006533"><ele>34.0</ele><time>2026-05-02T06:01:25.545Z</time></trkpt><trkpt lat="44.1713433" lon="12.1005233"><ele>34.333333333333336</ele><time>2026-05-02T06:01:27.545Z</time></trkpt><trkpt lat="44.17129" lon="12.1004667"><ele>34.66666666666667</ele><time>2026-05-02T06:01:28.545Z</time></trkpt><trkpt lat="44.1712417" lon="12.100405"><ele>35.0</ele><time>2026-05-02T06:01:29.545Z</time></trkpt><trkpt lat="44.1711983" lon="12.10034"><ele>35.333333333333336</ele><time>2026-05-02T06:01:30.545Z</time></trkpt><trkpt lat="44.1711133" lon="12.1002133"><ele>35.666666666666664</ele><time>2026-05-02T06:01:32.545Z</time></trkpt><trkpt lat="44.1710317" lon="12.100095"><ele>36.0</ele><time>2026-05-02T06:01:34.545Z</time></trkpt><trkpt lat="44.1709483" lon="12.0999817"><ele>35.833333333333336</ele><time>2026-05-02T06:01:36.545Z</time></trkpt><trkpt lat="44.1708633" lon="12.0998717"><ele>35.666666666666664</ele><time>2026-05-02T06:01:38.545Z</time></trkpt><trkpt lat="44.1707667" lon="12.09975"><ele>35.5</ele><time>2026-05-02T06:01:40.545Z</time></trkpt><trkpt lat="44.1707167" lon="12.0996883"><ele>35.33333333333333</ele><time>2026-05-02T06:01:41.545Z</time></trkpt><trkpt lat="44.1706717" lon="12.099625"><ele>35.166666666666664</ele><time>2026-05-02T06:01:42.545Z</time></trkpt><trkpt lat="44.1706267" lon="12.0995633"><ele>35.0</ele><time>2026-05-02T06:01:43.545Z</time></trkpt><trkpt lat="44.1705383" lon="12.0994417"><ele>35.0</ele><time>2026-05-02T06:01:45.545Z</time></trkpt><trkpt lat="44.1704483" lon="12.0993233"><ele>35.0</ele><time>2026-05-02T06:01:47.545Z</time></trkpt><trkpt lat="44.1704" lon="12.0992633"><ele>35.0</ele><time>2026-05-02T06:01:48.545Z</time></trkpt><trkpt lat="44.1703483" lon="12.0992067"><ele>35.0</ele><time>2026-05-02T06:01:49.545Z</time></trkpt><trkpt lat="44.1702483" lon="12.0991133"><ele>35.0</ele><time>2026-05-02T06:01:51.545Z</time></trkpt><trkpt lat="44.17019" lon="12.0990567"><ele>35.0</ele><time>2026-05-02T06:01:52.545Z</time></trkpt><trkpt lat="44.1701317" lon="12.0989983"><ele>34.857142857142854</ele><time>2026-05-02T06:01:53.545Z</time></trkpt><trkpt lat="44.17007" lon="12.0989367"><ele>34.714285714285715</ele><time>2026-05-02T06:01:54.545Z</time></trkpt><trkpt lat="44.17001" lon="12.0988833"><ele>34.57142857142857</ele><time>2026-05-02T06:01:55.545Z</time></trkpt><trkpt lat="44.16995" lon="12.098825"><ele>34.42857142857143</ele><time>2026-05-02T06:01:56.545Z</time></trkpt><trkpt lat="44.1698983" lon="12.0987683"><ele>34.285714285714285</ele><time>2026-05-02T06:01:57.545Z</time></trkpt><trkpt lat="44.1698383" lon="12.0987083"><ele>34.14285714285714</ele><time>2026-05-02T06:01:58.545Z</time></trkpt><trkpt lat="44.1697783" lon="12.0986517"><ele>34.0</ele><time>2026-05-02T06:01:59.545Z</time></trkpt><trkpt lat="44.1697133" lon="12.098595"><ele>34.0</ele><time>2026-05-02T06:02:00.545Z</time></trkpt><trkpt lat="44.1696467" lon="12.0985433"><ele>34.0</ele><time>2026-05-02T06:02:01.545Z</time></trkpt><trkpt lat="44.1695883" lon="12.0985"><ele>34.0</ele><time>2026-05-02T06:02:02.545Z</time></trkpt><trkpt lat="44.1695267" lon="12.0984767"><ele>34.0</ele><time>2026-05-02T06:02:03.546Z</time></trkpt><trkpt lat="44.1694183" lon="12.0984383"><ele>34.0</ele><time>2026-05-02T06:02:05.546Z</time></trkpt><trkpt lat="44.1693533" lon="12.09843"><ele>34.0</ele><time>2026-05-02T06:02:06.545Z</time></trkpt><trkpt lat="44.1692367" lon="12.09843"><ele>34.0</ele><time>2026-05-02T06:02:08.545Z</time></trkpt><trkpt lat="44.1691383" lon="12.0984233"><ele>34.0</ele><time>2026-05-02T06:02:10.545Z</time></trkpt><trkpt lat="44.16904" lon="12.0984267"><ele>34.0</ele><time>2026-05-02T06:02:12.545Z</time></trkpt><trkpt lat="44.16895" lon="12.0984317"><ele>34.0</ele><time>2026-05-02T06:02:14.545Z</time></trkpt><trkpt lat="44.1688767" lon="12.0984267"><ele>34.0</ele><time>2026-05-02T06:02:16.545Z</time></trkpt><trkpt lat="44.168795" lon="12.09842"><ele>34.0</ele><time>2026-05-02T06:02:18.545Z</time></trkpt><trkpt lat="44.16871" lon="12.09843"><ele>34.4</ele><time>2026-05-02T06:02:20.545Z</time></trkpt><trkpt lat="44.168635" lon="12.0983983"><ele>34.8</ele><time>2026-05-02T06:02:22.545Z</time></trkpt><trkpt lat="44.1685617" lon="12.0983233"><ele>35.2</ele><time>2026-05-02T06:02:24.545Z</time></trkpt><trkpt lat="44.16848" lon="12.0982417"><ele>35.6</ele><time>2026-05-02T06:02:26.545Z</time></trkpt><trkpt lat="44.1683967" lon="12.09815"><ele>36.0</ele><time>2026-05-02T06:02:28.545Z</time></trkpt><trkpt lat="44.16832" lon="12.0980617"><ele>35.0</ele><time>2026-05-02T06:02:30.545Z</time></trkpt><trkpt lat="44.1682383" lon="12.0979917"><ele>34.0</ele><time>2026-05-02T06:02:32.546Z</time></trkpt><trkpt lat="44.1681433" lon="12.0979533"><ele>33.0</ele><time>2026-05-02T06:02:34.545Z</time></trkpt><trkpt lat="44.16804" lon="12.097965"><ele>32.0</ele><time>2026-05-02T06:02:36.546Z</time></trkpt><trkpt lat="44.1679383" lon="12.0980267"><ele>31.0</ele><time>2026-05-02T06:02:38.545Z</time></trkpt><trkpt lat="44.167855" lon="12.0981267"><ele>31.75</ele><time>2026-05-02T06:02:40.545Z</time></trkpt><trkpt lat="44.1677867" lon="12.09826"><ele>32.5</ele><time>2026-05-02T06:02:42.545Z</time></trkpt><trkpt lat="44.1677167" lon="12.098385"><ele>33.25</ele><time>2026-05-02T06:02:44.545Z</time></trkpt><trkpt lat="44.1676483" lon="12.098505"><ele>34.0</ele><time>2026-05-02T06:02:46.545Z</time></trkpt><trkpt lat="44.1675733" lon="12.0986317"><ele>34.0</ele><time>2026-05-02T06:02:48.545Z</time></trkpt><trkpt lat="44.1675033" lon="12.0987617"><ele>34.0</ele><time>2026-05-02T06:02:50.545Z</time></trkpt><trkpt lat="44.1674333" lon="12.0988917"><ele>34.0</ele><time>2026-05-02T06:02:52.545Z</time></trkpt><trkpt lat="44.1673617" lon="12.0990217"><ele>34.0</ele><time>2026-05-02T06:02:54.545Z</time></trkpt><trkpt lat="44.16729" lon="12.0991517"><ele>34.0</ele><time>2026-05-02T06:02:56.545Z</time></trkpt><trkpt lat="44.1672183" lon="12.0992833"><ele>34.0</ele><time>2026-05-02T06:02:58.545Z</time></trkpt><trkpt lat="44.1671517" lon="12.0994133"><ele>34.0</ele><time>2026-05-02T06:03:00.545Z</time></trkpt><trkpt lat="44.1670833" lon="12.0995367"><ele>34.0</ele><time>2026-05-02T06:03:02.545Z</time></trkpt><trkpt lat="44.1670167" lon="12.0996517"><ele>34.0</ele><time>2026-05-02T06:03:04.545Z</time></trkpt><trkpt lat="44.1669567" lon="12.09977"><ele>34.0</ele><time>2026-05-02T06:03:06.545Z</time></trkpt><trkpt lat="44.1669067" lon="12.0998867"><ele>34.0</ele><time>2026-05-02T06:03:08.545Z</time></trkpt><trkpt lat="44.1668583" lon="12.1000067"><ele>34.0</ele><time>2026-05-02T06:03:10.545Z</time></trkpt><trkpt lat="44.1668167" lon="12.100135"><ele>34.0</ele><time>2026-05-02T06:03:12.545Z</time></trkpt><trkpt lat="44.1667467" lon="12.1002483"><ele>33.75</ele><time>2026-05-02T06:03:14.545Z</time></trkpt><trkpt lat="44.166645" lon="12.1003167"><ele>33.5</ele><time>2026-05-02T06:03:16.545Z</time></trkpt><trkpt lat="44.1665333" lon="12.1002967"><ele>33.25</ele><time>2026-05-02T06:03:18.545Z</time></trkpt><trkpt lat="44.16643" lon="12.1002033"><ele>33.0</ele><time>2026-05-02T06:03:20.545Z</time></trkpt><trkpt lat="44.1663167" lon="12.10012"><ele>33.0</ele><time>2026-05-02T06:03:22.545Z</time></trkpt><trkpt lat="44.16626" lon="12.1000783"><ele>33.0</ele><time>2026-05-02T06:03:23.545Z</time></trkpt><trkpt lat="44.1661517" lon="12.1000017"><ele>33.0</ele><time>2026-05-02T06:03:25.545Z</time></trkpt><trkpt lat="44.1660383" lon="12.0999233"><ele>33.0</ele><time>2026-05-02T06:03:27.545Z</time></trkpt><trkpt lat="44.1659733" lon="12.0998883"><ele>33.0</ele><time>2026-05-02T06:03:28.545Z</time></trkpt><trkpt lat="44.165915" lon="12.09985"><ele>33.0</ele><time>2026-05-02T06:03:29.545Z</time></trkpt><trkpt lat="44.1657983" lon="12.09976"><ele>32.714285714285715</ele><time>2026-05-02T06:03:31.545Z</time></trkpt><trkpt lat="44.1657333" lon="12.09971"><ele>32.42857142857143</ele><time>2026-05-02T06:03:32.545Z</time></trkpt><trkpt lat="44.1656683" lon="12.0996617"><ele>32.142857142857146</ele><time>2026-05-02T06:03:33.545Z</time></trkpt><trkpt lat="44.1656017" lon="12.0996183"><ele>31.857142857142858</ele><time>2026-05-02T06:03:34.545Z</time></trkpt><trkpt lat="44.1655367" lon="12.0995733"><ele>31.571428571428577</ele><time>2026-05-02T06:03:35.545Z</time></trkpt><trkpt lat="44.1654717" lon="12.09953"><ele>31.28571428571429</ele><time>2026-05-02T06:03:36.545Z</time></trkpt><trkpt lat="44.1654067" lon="12.099485"><ele>31.0</ele><time>2026-05-02T06:03:37.545Z</time></trkpt><trkpt lat="44.1653433" lon="12.0994333"><ele>30.714285714285715</ele><time>2026-05-02T06:03:38.545Z</time></trkpt><trkpt lat="44.16528" lon="12.0993883"><ele>30.42857142857143</ele><time>2026-05-02T06:03:39.545Z</time></trkpt><trkpt lat="44.1652133" lon="12.09934"><ele>30.142857142857146</ele><time>2026-05-02T06:03:40.545Z</time></trkpt><trkpt lat="44.165145" lon="12.0992983"><ele>29.85714285714286</ele><time>2026-05-02T06:03:41.545Z</time></trkpt><trkpt lat="44.1650767" lon="12.099255"><ele>29.571428571428573</ele><time>2026-05-02T06:03:42.545Z</time></trkpt><trkpt lat="44.1650083" lon="12.09921"><ele>29.285714285714292</ele><time>2026-05-02T06:03:43.545Z</time></trkpt><trkpt lat="44.1649467" lon="12.0991667"><ele>29.000000000000004</ele><time>2026-05-02T06:03:44.545Z</time></trkpt><trkpt lat="44.1648867" lon="12.0991117"><ele>29.000000000000004</ele><time>2026-05-02T06:03:45.545Z</time></trkpt><trkpt lat="44.164825" lon="12.0990683"><ele>29.0</ele><time>2026-05-02T06:03:46.545Z</time></trkpt><trkpt lat="44.1647667" lon="12.09902"><ele>29.000000000000004</ele><time>2026-05-02T06:03:47.545Z</time></trkpt><trkpt lat="44.1647067" lon="12.0989767"><ele>29.000000000000004</ele><time>2026-05-02T06:03:48.545Z</time></trkpt><trkpt lat="44.1646467" lon="12.09893"><ele>29.0</ele><time>2026-05-02T06:03:49.545Z</time></trkpt><trkpt lat="44.1645867" lon="12.098885"><ele>29.000000000000004</ele><time>2026-05-02T06:03:50.545Z</time></trkpt><trkpt lat="44.1645233" lon="12.0988367"><ele>29.000000000000004</ele><time>2026-05-02T06:03:51.545Z</time></trkpt><trkpt lat="44.1644567" lon="12.0987883"><ele>29.000000000000004</ele><time>2026-05-02T06:03:52.545Z</time></trkpt><trkpt lat="44.1643883" lon="12.09874"><ele>29.0</ele><time>2026-05-02T06:03:53.545Z</time></trkpt><trkpt lat="44.1643233" lon="12.098695"><ele>29.000000000000004</ele><time>2026-05-02T06:03:54.545Z</time></trkpt><trkpt lat="44.1642617" lon="12.098645"><ele>29.000000000000004</ele><time>2026-05-02T06:03:55.545Z</time></trkpt><trkpt lat="44.1642067" lon="12.0986"><ele>29.0</ele><time>2026-05-02T06:03:56.545Z</time></trkpt><trkpt lat="44.16415" lon="12.0985533"><ele>29.000000000000004</ele><time>2026-05-02T06:03:57.545Z</time></trkpt><trkpt lat="44.1640917" lon="12.098505"><ele>29.000000000000004</ele><time>2026-05-02T06:03:58.545Z</time></trkpt><trkpt lat="44.1640333" lon="12.098455"><ele>29.142857142857146</ele><time>2026-05-02T06:03:59.545Z</time></trkpt><trkpt lat="44.16397" lon="12.0984133"><ele>29.285714285714285</ele><time>2026-05-02T06:04:00.545Z</time></trkpt><trkpt lat="44.1639033" lon="12.098375"><ele>29.42857142857143</ele><time>2026-05-02T06:04:01.545Z</time></trkpt><trkpt lat="44.1638417" lon="12.0983333"><ele>29.571428571428573</ele><time>2026-05-02T06:04:02.545Z</time></trkpt><trkpt lat="44.1637817" lon="12.0982883"><ele>29.714285714285715</ele><time>2026-05-02T06:04:03.545Z</time></trkpt><trkpt lat="44.1637217" lon="12.0982433"><ele>29.857142857142858</ele><time>2026-05-02T06:04:04.545Z</time></trkpt><trkpt lat="44.1636617" lon="12.0982"><ele>30.0</ele><time>2026-05-02T06:04:05.545Z</time></trkpt><trkpt lat="44.1636033" lon="12.0981583"><ele>30.142857142857146</ele><time>2026-05-02T06:04:06.545Z</time></trkpt><trkpt lat="44.16354" lon="12.0981133"><ele>30.285714285714285</ele><time>2026-05-02T06:04:07.546Z</time></trkpt><trkpt lat="44.1634783" lon="12.0980683"><ele>30.42857142857143</ele><time>2026-05-02T06:04:08.545Z</time></trkpt><trkpt lat="44.163415" lon="12.0980283"><ele>30.571428571428573</ele><time>2026-05-02T06:04:09.545Z</time></trkpt><trkpt lat="44.1633517" lon="12.097985"><ele>30.714285714285715</ele><time>2026-05-02T06:04:10.545Z</time></trkpt><trkpt lat="44.1632917" lon="12.0979433"><ele>30.857142857142858</ele><time>2026-05-02T06:04:11.545Z</time></trkpt><trkpt lat="44.1632317" lon="12.0978967"><ele>31.0</ele><time>2026-05-02T06:04:12.545Z</time></trkpt><trkpt lat="44.16317" lon="12.09785"><ele>31.0</ele><time>2026-05-02T06:04:13.545Z</time></trkpt><trkpt lat="44.1631083" lon="12.0978017"><ele>31.000000000000004</ele><time>2026-05-02T06:04:14.545Z</time></trkpt><trkpt lat="44.1630467" lon="12.0977567"><ele>31.0</ele><time>2026-05-02T06:04:15.545Z</time></trkpt><trkpt lat="44.1629867" lon="12.0977133"><ele>31.0</ele><time>2026-05-02T06:04:16.546Z</time></trkpt><trkpt lat="44.1629233" lon="12.0976717"><ele>31.000000000000004</ele><time>2026-05-02T06:04:17.545Z</time></trkpt><trkpt lat="44.1628667" lon="12.0976283"><ele>31.0</ele><time>2026-05-02T06:04:18.545Z</time></trkpt><trkpt lat="44.1628067" lon="12.097585"><ele>31.0</ele><time>2026-05-02T06:04:19.545Z</time></trkpt><trkpt lat="44.1627517" lon="12.0975383"><ele>31.0</ele><time>2026-05-02T06:04:20.545Z</time></trkpt><trkpt lat="44.1626967" lon="12.09749"><ele>31.000000000000004</ele><time>2026-05-02T06:04:21.545Z</time></trkpt><trkpt lat="44.1626367" lon="12.0974467"><ele>31.0</ele><time>2026-05-02T06:04:22.545Z</time></trkpt><trkpt lat="44.162575" lon="12.097405"><ele>31.0</ele><time>2026-05-02T06:04:23.545Z</time></trkpt><trkpt lat="44.162515" lon="12.0973633"><ele>31.000000000000004</ele><time>2026-05-02T06:04:24.545Z</time></trkpt><trkpt lat="44.162455" lon="12.0973217"><ele>31.0</ele><time>2026-05-02T06:04:25.545Z</time></trkpt><trkpt lat="44.16239" lon="12.0972817"><ele>31.0</ele><time>2026-05-02T06:04:26.545Z</time></trkpt><trkpt lat="44.1623317" lon="12.0972417"><ele>31.166666666666668</ele><time>2026-05-02T06:04:27.545Z</time></trkpt><trkpt lat="44.162275" lon="12.0971967"><ele>31.333333333333336</ele><time>2026-05-02T06:04:28.545Z</time></trkpt><trkpt lat="44.1622183" lon="12.09715"><ele>31.5</ele><time>2026-05-02T06:04:29.545Z</time></trkpt><trkpt lat="44.1621633" lon="12.0971033"><ele>31.666666666666664</ele><time>2026-05-02T06:04:30.545Z</time></trkpt><trkpt lat="44.1620567" lon="12.0970267"><ele>31.833333333333332</ele><time>2026-05-02T06:04:32.545Z</time></trkpt><trkpt lat="44.1619983" lon="12.0969833"><ele>32.0</ele><time>2026-05-02T06:04:33.545Z</time></trkpt><trkpt lat="44.1618917" lon="12.0969117"><ele>31.999999999999996</ele><time>2026-05-02T06:04:35.545Z</time></trkpt><trkpt lat="44.1618317" lon="12.0968783"><ele>32.0</ele><time>2026-05-02T06:04:36.545Z</time></trkpt><trkpt lat="44.161775" lon="12.09684"><ele>32.0</ele><time>2026-05-02T06:04:37.545Z</time></trkpt><trkpt lat="44.1616667" lon="12.096745"><ele>32.0</ele><time>2026-05-02T06:04:39.545Z</time></trkpt><trkpt lat="44.1616117" lon="12.0966967"><ele>31.999999999999996</ele><time>2026-05-02T06:04:40.545Z</time></trkpt><trkpt lat="44.1615033" lon="12.09661"><ele>32.0</ele><time>2026-05-02T06:04:42.545Z</time></trkpt><trkpt lat="44.1614483" lon="12.0965667"><ele>31.666666666666664</ele><time>2026-05-02T06:04:43.545Z</time></trkpt><trkpt lat="44.1613867" lon="12.09653"><ele>31.333333333333332</ele><time>2026-05-02T06:04:44.546Z</time></trkpt><trkpt lat="44.161325" lon="12.0964917"><ele>31.0</ele><time>2026-05-02T06:04:45.545Z</time></trkpt><trkpt lat="44.161265" lon="12.0964533"><ele>30.666666666666664</ele><time>2026-05-02T06:04:46.545Z</time></trkpt><trkpt lat="44.1612083" lon="12.0964133"><ele>30.333333333333332</ele><time>2026-05-02T06:04:47.545Z</time></trkpt><trkpt lat="44.161105" lon="12.0963333"><ele>30.0</ele><time>2026-05-02T06:04:49.545Z</time></trkpt><trkpt lat="44.1609967" lon="12.09625"><ele>30.0</ele><time>2026-05-02T06:04:51.545Z</time></trkpt><trkpt lat="44.1608867" lon="12.09617"><ele>30.0</ele><time>2026-05-02T06:04:53.545Z</time></trkpt><trkpt lat="44.1607783" lon="12.0960883"><ele>30.0</ele><time>2026-05-02T06:04:55.545Z</time></trkpt><trkpt lat="44.1606667" lon="12.096005"><ele>30.0</ele><time>2026-05-02T06:04:57.545Z</time></trkpt><trkpt lat="44.1606067" lon="12.0959617"><ele>30.0</ele><time>2026-05-02T06:04:58.545Z</time></trkpt><trkpt lat="44.16055" lon="12.0959167"><ele>30.2</ele><time>2026-05-02T06:04:59.545Z</time></trkpt><trkpt lat="44.16044" lon="12.095835"><ele>30.4</ele><time>2026-05-02T06:05:01.545Z</time></trkpt><trkpt lat="44.1603833" lon="12.095795"><ele>30.6</ele><time>2026-05-02T06:05:02.545Z</time></trkpt><trkpt lat="44.1602783" lon="12.0957167"><ele>30.8</ele><time>2026-05-02T06:05:04.546Z</time></trkpt><trkpt lat="44.1601683" lon="12.095635"><ele>31.0</ele><time>2026-05-02T06:05:06.545Z</time></trkpt><trkpt lat="44.1601117" lon="12.095595"><ele>31.000000000000004</ele><time>2026-05-02T06:05:07.545Z</time></trkpt><trkpt lat="44.1600033" lon="12.0955083"><ele>31.0</ele><time>2026-05-02T06:05:09.545Z</time></trkpt><trkpt lat="44.1599467" lon="12.09546"><ele>31.0</ele><time>2026-05-02T06:05:10.545Z</time></trkpt><trkpt lat="44.15989" lon="12.0954167"><ele>31.0</ele><time>2026-05-02T06:05:11.545Z</time></trkpt><trkpt lat="44.1598333" lon="12.095375"><ele>31.000000000000004</ele><time>2026-05-02T06:05:12.545Z</time></trkpt><trkpt lat="44.1597733" lon="12.0953317"><ele>31.0</ele><time>2026-05-02T06:05:13.545Z</time></trkpt><trkpt lat="44.1596683" lon="12.0952467"><ele>31.200000000000003</ele><time>2026-05-02T06:05:15.545Z</time></trkpt><trkpt lat="44.1595617" lon="12.0951617"><ele>31.400000000000002</ele><time>2026-05-02T06:05:17.545Z</time></trkpt><trkpt lat="44.159505" lon="12.0951183"><ele>31.6</ele><time>2026-05-02T06:05:18.545Z</time></trkpt><trkpt lat="44.159395" lon="12.0950417"><ele>31.8</ele><time>2026-05-02T06:05:20.545Z</time></trkpt><trkpt lat="44.1592933" lon="12.094965"><ele>32.0</ele><time>2026-05-02T06:05:22.545Z</time></trkpt><trkpt lat="44.15919" lon="12.09489"><ele>31.999999999999996</ele><time>2026-05-02T06:05:24.546Z</time></trkpt><trkpt lat="44.15909" lon="12.0948067"><ele>32.0</ele><time>2026-05-02T06:05:26.546Z</time></trkpt><trkpt lat="44.1590333" lon="12.0947683"><ele>32.0</ele><time>2026-05-02T06:05:27.546Z</time></trkpt><trkpt lat="44.158975" lon="12.0947267"><ele>32.0</ele><time>2026-05-02T06:05:28.546Z</time></trkpt><trkpt lat="44.1589167" lon="12.0946867"><ele>31.999999999999996</ele><time>2026-05-02T06:05:29.546Z</time></trkpt><trkpt lat="44.1588567" lon="12.0946467"><ele>32.0</ele><time>2026-05-02T06:05:30.546Z</time></trkpt><trkpt lat="44.1587417" lon="12.0945683"><ele>32.0</ele><time>2026-05-02T06:05:32.546Z</time></trkpt><trkpt lat="44.15868" lon="12.0945267"><ele>31.999999999999996</ele><time>2026-05-02T06:05:33.547Z</time></trkpt><trkpt lat="44.1586233" lon="12.094485"><ele>32.0</ele><time>2026-05-02T06:05:34.546Z</time></trkpt><trkpt lat="44.158565" lon="12.09445"><ele>32.0</ele><time>2026-05-02T06:05:35.546Z</time></trkpt><trkpt lat="44.1585067" lon="12.09441"><ele>31.999999999999996</ele><time>2026-05-02T06:05:36.546Z</time></trkpt><trkpt lat="44.1584483" lon="12.09437"><ele>32.0</ele><time>2026-05-02T06:05:37.546Z</time></trkpt><trkpt lat="44.1583917" lon="12.0943267"><ele>32.0</ele><time>2026-05-02T06:05:38.546Z</time></trkpt><trkpt lat="44.15828" lon="12.0942467"><ele>32.0</ele><time>2026-05-02T06:05:40.546Z</time></trkpt><trkpt lat="44.15822" lon="12.0942017"><ele>31.999999999999996</ele><time>2026-05-02T06:05:41.546Z</time></trkpt><trkpt lat="44.1581617" lon="12.0941617"><ele>32.0</ele><time>2026-05-02T06:05:42.546Z</time></trkpt><trkpt lat="44.158105" lon="12.0941217"><ele>32.0</ele><time>2026-05-02T06:05:43.546Z</time></trkpt><trkpt lat="44.15805" lon="12.0940783"><ele>31.999999999999996</ele><time>2026-05-02T06:05:44.546Z</time></trkpt><trkpt lat="44.1579433" lon="12.093995"><ele>32.0</ele><time>2026-05-02T06:05:46.546Z</time></trkpt><trkpt lat="44.157885" lon="12.0939533"><ele>32.0</ele><time>2026-05-02T06:05:47.546Z</time></trkpt><trkpt lat="44.1578283" lon="12.0939133"><ele>31.8</ele><time>2026-05-02T06:05:48.546Z</time></trkpt><trkpt lat="44.1577683" lon="12.0938717"><ele>31.6</ele><time>2026-05-02T06:05:49.546Z</time></trkpt><trkpt lat="44.157655" lon="12.09379"><ele>31.400000000000002</ele><time>2026-05-02T06:05:51.546Z</time></trkpt><trkpt lat="44.157545" lon="12.0937067"><ele>31.200000000000003</ele><time>2026-05-02T06:05:53.546Z</time></trkpt><trkpt lat="44.1574883" lon="12.0936667"><ele>31.0</ele><time>2026-05-02T06:05:54.546Z</time></trkpt><trkpt lat="44.1574267" lon="12.0936233"><ele>31.142857142857146</ele><time>2026-05-02T06:05:55.546Z</time></trkpt><trkpt lat="44.1573683" lon="12.0935817"><ele>31.28571428571429</ele><time>2026-05-02T06:05:56.546Z</time></trkpt><trkpt lat="44.15731" lon="12.0935383"><ele>31.42857142857143</ele><time>2026-05-02T06:05:57.546Z</time></trkpt><trkpt lat="44.1572533" lon="12.0934933"><ele>31.57142857142857</ele><time>2026-05-02T06:05:58.546Z</time></trkpt><trkpt lat="44.1571967" lon="12.0934517"><ele>31.71428571428571</ele><time>2026-05-02T06:05:59.546Z</time></trkpt><trkpt lat="44.15714" lon="12.0934067"><ele>31.857142857142854</ele><time>2026-05-02T06:06:00.546Z</time></trkpt><trkpt lat="44.1570783" lon="12.0933717"><ele>32.0</ele><time>2026-05-02T06:06:01.546Z</time></trkpt><trkpt lat="44.15702" lon="12.09333"><ele>31.999999999999996</ele><time>2026-05-02T06:06:02.546Z</time></trkpt><trkpt lat="44.1569633" lon="12.0932917"><ele>32.0</ele><time>2026-05-02T06:06:03.546Z</time></trkpt><trkpt lat="44.1568583" lon="12.0932067"><ele>32.0</ele><time>2026-05-02T06:06:05.546Z</time></trkpt><trkpt lat="44.1567483" lon="12.0931217"><ele>32.0</ele><time>2026-05-02T06:06:07.546Z</time></trkpt><trkpt lat="44.1566933" lon="12.093075"><ele>31.999999999999996</ele><time>2026-05-02T06:06:08.546Z</time></trkpt><trkpt lat="44.15664" lon="12.0930283"><ele>32.0</ele><time>2026-05-02T06:06:09.546Z</time></trkpt><trkpt lat="44.1565283" lon="12.0929433"><ele>32.285714285714285</ele><time>2026-05-02T06:06:11.546Z</time></trkpt><trkpt lat="44.15642" lon="12.092865"><ele>32.57142857142857</ele><time>2026-05-02T06:06:13.546Z</time></trkpt><trkpt lat="44.1563633" lon="12.0928183"><ele>32.857142857142854</ele><time>2026-05-02T06:06:14.546Z</time></trkpt><trkpt lat="44.156305" lon="12.0927717"><ele>33.14285714285714</ele><time>2026-05-02T06:06:15.546Z</time></trkpt><trkpt lat="44.1562517" lon="12.0927233"><ele>33.42857142857143</ele><time>2026-05-02T06:06:16.546Z</time></trkpt><trkpt lat="44.1561967" lon="12.0926767"><ele>33.71428571428571</ele><time>2026-05-02T06:06:17.546Z</time></trkpt><trkpt lat="44.1561433" lon="12.09263"><ele>34.0</ele><time>2026-05-02T06:06:18.546Z</time></trkpt><trkpt lat="44.1560383" lon="12.0925433"><ele>34.0</ele><time>2026-05-02T06:06:20.546Z</time></trkpt><trkpt lat="44.1559867" lon="12.09249"><ele>34.0</ele><time>2026-05-02T06:06:21.546Z</time></trkpt><trkpt lat="44.1558817" lon="12.0923917"><ele>34.0</ele><time>2026-05-02T06:06:23.546Z</time></trkpt><trkpt lat="44.1557783" lon="12.0922817"><ele>34.0</ele><time>2026-05-02T06:06:25.546Z</time></trkpt><trkpt lat="44.1556783" lon="12.0921767"><ele>34.0</ele><time>2026-05-02T06:06:27.546Z</time></trkpt><trkpt lat="44.15558" lon="12.0920733"><ele>34.0</ele><time>2026-05-02T06:06:29.546Z</time></trkpt><trkpt lat="44.155485" lon="12.091975"><ele>34.0</ele><time>2026-05-02T06:06:31.546Z</time></trkpt><trkpt lat="44.15544" lon="12.09191"><ele>34.0</ele><time>2026-05-02T06:06:32.546Z</time></trkpt><trkpt lat="44.155345" lon="12.091795"><ele>34.0</ele><time>2026-05-02T06:06:34.546Z</time></trkpt><trkpt lat="44.1552567" lon="12.0916783"><ele>34.0</ele><time>2026-05-02T06:06:36.546Z</time></trkpt><trkpt lat="44.155165" lon="12.0915617"><ele>34.0</ele><time>2026-05-02T06:06:38.546Z</time></trkpt><trkpt lat="44.155075" lon="12.0914467"><ele>34.0</ele><time>2026-05-02T06:06:40.546Z</time></trkpt><trkpt lat="44.1549883" lon="12.0913283"><ele>34.0</ele><time>2026-05-02T06:06:42.546Z</time></trkpt><trkpt lat="44.1549433" lon="12.0912633"><ele>34.0</ele><time>2026-05-02T06:06:43.546Z</time></trkpt><trkpt lat="44.1549" lon="12.0911967"><ele>34.0</ele><time>2026-05-02T06:06:44.546Z</time></trkpt><trkpt lat="44.1548583" lon="12.09113"><ele>34.0</ele><time>2026-05-02T06:06:45.546Z</time></trkpt><trkpt lat="44.15481" lon="12.09107"><ele>34.0</ele><time>2026-05-02T06:06:46.546Z</time></trkpt><trkpt lat="44.15472" lon="12.0909367"><ele>34.0</ele><time>2026-05-02T06:06:48.547Z</time></trkpt><trkpt lat="44.15464" lon="12.0908083"><ele>34.0</ele><time>2026-05-02T06:06:50.546Z</time></trkpt><trkpt lat="44.1546017" lon="12.0907383"><ele>34.0</ele><time>2026-05-02T06:06:51.546Z</time></trkpt><trkpt lat="44.1545267" lon="12.09061"><ele>34.0</ele><time>2026-05-02T06:06:53.546Z</time></trkpt><trkpt lat="44.1544433" lon="12.090485"><ele>33.833333333333336</ele><time>2026-05-02T06:06:55.546Z</time></trkpt><trkpt lat="44.1544" lon="12.09042"><ele>33.66666666666667</ele><time>2026-05-02T06:06:56.546Z</time></trkpt><trkpt lat="44.1543567" lon="12.0903533"><ele>33.5</ele><time>2026-05-02T06:06:57.546Z</time></trkpt><trkpt lat="44.1543133" lon="12.0902883"><ele>33.333333333333336</ele><time>2026-05-02T06:06:58.546Z</time></trkpt><trkpt lat="44.154235" lon="12.0901583"><ele>33.166666666666664</ele><time>2026-05-02T06:07:00.547Z</time></trkpt><trkpt lat="44.15419" lon="12.0900933"><ele>33.0</ele><time>2026-05-02T06:07:01.546Z</time></trkpt><trkpt lat="44.154105" lon="12.089965"><ele>32.8</ele><time>2026-05-02T06:07:03.546Z</time></trkpt><trkpt lat="44.1540633" lon="12.0898983"><ele>32.599999999999994</ele><time>2026-05-02T06:07:04.547Z</time></trkpt><trkpt lat="44.1539833" lon="12.0897767"><ele>32.400000000000006</ele><time>2026-05-02T06:07:06.546Z</time></trkpt><trkpt lat="44.153915" lon="12.0896517"><ele>32.2</ele><time>2026-05-02T06:07:08.546Z</time></trkpt><trkpt lat="44.15384" lon="12.08953"><ele>32.0</ele><time>2026-05-02T06:07:10.546Z</time></trkpt><trkpt lat="44.15376" lon="12.0894067"><ele>32.0</ele><time>2026-05-02T06:07:12.546Z</time></trkpt><trkpt lat="44.1537133" lon="12.089345"><ele>31.999999999999996</ele><time>2026-05-02T06:07:13.547Z</time></trkpt><trkpt lat="44.1536667" lon="12.0892817"><ele>32.0</ele><time>2026-05-02T06:07:14.546Z</time></trkpt><trkpt lat="44.1535883" lon="12.0891517"><ele>32.0</ele><time>2026-05-02T06:07:16.547Z</time></trkpt><trkpt lat="44.15355" lon="12.08908"><ele>31.999999999999996</ele><time>2026-05-02T06:07:17.546Z</time></trkpt><trkpt lat="44.15351" lon="12.0890117"><ele>32.0</ele><time>2026-05-02T06:07:18.546Z</time></trkpt><trkpt lat="44.153465" lon="12.08894"><ele>32.0</ele><time>2026-05-02T06:07:19.546Z</time></trkpt><trkpt lat="44.1533833" lon="12.0888133"><ele>32.4</ele><time>2026-05-02T06:07:21.547Z</time></trkpt><trkpt lat="44.1533417" lon="12.0887467"><ele>32.800000000000004</ele><time>2026-05-02T06:07:22.546Z</time></trkpt><trkpt lat="44.1532583" lon="12.0886183"><ele>33.2</ele><time>2026-05-02T06:07:24.546Z</time></trkpt><trkpt lat="44.153175" lon="12.08849"><ele>33.6</ele><time>2026-05-02T06:07:26.546Z</time></trkpt><trkpt lat="44.15309" lon="12.0883683"><ele>34.0</ele><time>2026-05-02T06:07:28.546Z</time></trkpt><trkpt lat="44.153015" lon="12.08825"><ele>34.2</ele><time>2026-05-02T06:07:30.546Z</time></trkpt><trkpt lat="44.15294" lon="12.0881233"><ele>34.4</ele><time>2026-05-02T06:07:32.546Z</time></trkpt><trkpt lat="44.152865" lon="12.0880017"><ele>34.6</ele><time>2026-05-02T06:07:34.546Z</time></trkpt><trkpt lat="44.15279" lon="12.0878867"><ele>34.8</ele><time>2026-05-02T06:07:36.546Z</time></trkpt><trkpt lat="44.15272" lon="12.08778"><ele>35.0</ele><time>2026-05-02T06:07:38.546Z</time></trkpt><trkpt lat="44.1526483" lon="12.08767"><ele>35.0</ele><time>2026-05-02T06:07:40.546Z</time></trkpt><trkpt lat="44.15258" lon="12.087555"><ele>35.0</ele><time>2026-05-02T06:07:42.546Z</time></trkpt><trkpt lat="44.1525167" lon="12.0874383"><ele>35.0</ele><time>2026-05-02T06:07:44.547Z</time></trkpt><trkpt lat="44.1524467" lon="12.08733"><ele>35.0</ele><time>2026-05-02T06:07:46.546Z</time></trkpt><trkpt lat="44.1523783" lon="12.08723"><ele>35.0</ele><time>2026-05-02T06:07:48.546Z</time></trkpt><trkpt lat="44.1523017" lon="12.0871183"><ele>35.2</ele><time>2026-05-02T06:07:50.546Z</time></trkpt><trkpt lat="44.15223" lon="12.0870117"><ele>35.4</ele><time>2026-05-02T06:07:52.546Z</time></trkpt><trkpt lat="44.1521567" lon="12.0868933"><ele>35.6</ele><time>2026-05-02T06:07:54.546Z</time></trkpt><trkpt lat="44.15209" lon="12.086775"><ele>35.8</ele><time>2026-05-02T06:07:56.546Z</time></trkpt><trkpt lat="44.1520217" lon="12.0866733"><ele>36.0</ele><time>2026-05-02T06:07:58.546Z</time></trkpt><trkpt lat="44.1519517" lon="12.0865633"><ele>36.6</ele><time>2026-05-02T06:08:00.546Z</time></trkpt><trkpt lat="44.1518833" lon="12.0864617"><ele>37.2</ele><time>2026-05-02T06:08:02.546Z</time></trkpt><trkpt lat="44.1518083" lon="12.0863567"><ele>37.8</ele><time>2026-05-02T06:08:04.546Z</time></trkpt><trkpt lat="44.1517367" lon="12.0862483"><ele>38.4</ele><time>2026-05-02T06:08:06.546Z</time></trkpt><trkpt lat="44.1516767" lon="12.0861383"><ele>39.0</ele><time>2026-05-02T06:08:08.546Z</time></trkpt><trkpt lat="44.151615" lon="12.0860367"><ele>39.0</ele><time>2026-05-02T06:08:10.546Z</time></trkpt><trkpt lat="44.1515567" lon="12.08594"><ele>39.0</ele><time>2026-05-02T06:08:12.546Z</time></trkpt><trkpt lat="44.1515" lon="12.0858467"><ele>39.0</ele><time>2026-05-02T06:08:14.546Z</time></trkpt><trkpt lat="44.1514417" lon="12.0857483"><ele>39.0</ele><time>2026-05-02T06:08:16.546Z</time></trkpt><trkpt lat="44.1513867" lon="12.0856483"><ele>39.0</ele><time>2026-05-02T06:08:18.546Z</time></trkpt><trkpt lat="44.1513317" lon="12.085555"><ele>39.0</ele><time>2026-05-02T06:08:20.547Z</time></trkpt><trkpt lat="44.151275" lon="12.0854633"><ele>39.5</ele><time>2026-05-02T06:08:22.546Z</time></trkpt><trkpt lat="44.1512233" lon="12.08537"><ele>40.0</ele><time>2026-05-02T06:08:24.546Z</time></trkpt><trkpt lat="44.151165" lon="12.085275"><ele>40.5</ele><time>2026-05-02T06:08:26.546Z</time></trkpt><trkpt lat="44.1511083" lon="12.0851733"><ele>41.0</ele><time>2026-05-02T06:08:28.546Z</time></trkpt><trkpt lat="44.151055" lon="12.0850733"><ele>41.5</ele><time>2026-05-02T06:08:30.546Z</time></trkpt><trkpt lat="44.1510083" lon="12.08497"><ele>42.0</ele><time>2026-05-02T06:08:32.547Z</time></trkpt><trkpt lat="44.1509683" lon="12.0848617"><ele>42.0</ele><time>2026-05-02T06:08:34.546Z</time></trkpt><trkpt lat="44.1509317" lon="12.08474"><ele>42.0</ele><time>2026-05-02T06:08:36.546Z</time></trkpt><trkpt lat="44.150925" lon="12.0846117"><ele>42.0</ele><time>2026-05-02T06:08:38.546Z</time></trkpt><trkpt lat="44.1509417" lon="12.0844783"><ele>42.0</ele><time>2026-05-02T06:08:40.546Z</time></trkpt><trkpt lat="44.1509583" lon="12.0843467"><ele>42.0</ele><time>2026-05-02T06:08:42.546Z</time></trkpt><trkpt lat="44.150995" lon="12.084215"><ele>41.8</ele><time>2026-05-02T06:08:44.546Z</time></trkpt><trkpt lat="44.1510533" lon="12.08409"><ele>41.6</ele><time>2026-05-02T06:08:46.546Z</time></trkpt><trkpt lat="44.15111" lon="12.0839633"><ele>41.4</ele><time>2026-05-02T06:08:48.546Z</time></trkpt><trkpt lat="44.1511617" lon="12.0838233"><ele>41.199999999999996</ele><time>2026-05-02T06:08:50.546Z</time></trkpt><trkpt lat="44.151195" lon="12.0836833"><ele>41.0</ele><time>2026-05-02T06:08:52.546Z</time></trkpt><trkpt lat="44.15124" lon="12.0835583"><ele>41.0</ele><time>2026-05-02T06:08:54.547Z</time></trkpt><trkpt lat="44.1512817" lon="12.083435"><ele>41.0</ele><time>2026-05-02T06:08:56.546Z</time></trkpt><trkpt lat="44.1513267" lon="12.08331"><ele>41.0</ele><time>2026-05-02T06:08:58.547Z</time></trkpt><trkpt lat="44.151365" lon="12.083185"><ele>41.0</ele><time>2026-05-02T06:09:00.546Z</time></trkpt><trkpt lat="44.1514133" lon="12.083055"><ele>41.0</ele><time>2026-05-02T06:09:02.546Z</time></trkpt><trkpt lat="44.151465" lon="12.0829133"><ele>41.0</ele><time>2026-05-02T06:09:04.546Z</time></trkpt><trkpt lat="44.1515133" lon="12.0827767"><ele>41.0</ele><time>2026-05-02T06:09:06.546Z</time></trkpt><trkpt lat="44.151555" lon="12.0826483"><ele>41.0</ele><time>2026-05-02T06:09:08.546Z</time></trkpt><trkpt lat="44.1516" lon="12.082525"><ele>41.0</ele><time>2026-05-02T06:09:10.546Z</time></trkpt><trkpt lat="44.1516517" lon="12.08239"><ele>41.0</ele><time>2026-05-02T06:09:12.546Z</time></trkpt><trkpt lat="44.1517067" lon="12.0822417"><ele>40.8</ele><time>2026-05-02T06:09:14.546Z</time></trkpt><trkpt lat="44.15176" lon="12.0820917"><ele>40.599999999999994</ele><time>2026-05-02T06:09:16.546Z</time></trkpt><trkpt lat="44.1518033" lon="12.0819467"><ele>40.4</ele><time>2026-05-02T06:09:18.546Z</time></trkpt><trkpt lat="44.151845" lon="12.0818117"><ele>40.2</ele><time>2026-05-02T06:09:20.546Z</time></trkpt><trkpt lat="44.15189" lon="12.08167"><ele>40.0</ele><time>2026-05-02T06:09:22.546Z</time></trkpt><trkpt lat="44.1519383" lon="12.0815283"><ele>40.0</ele><time>2026-05-02T06:09:24.546Z</time></trkpt><trkpt lat="44.1519867" lon="12.081375"><ele>40.0</ele><time>2026-05-02T06:09:26.546Z</time></trkpt><trkpt lat="44.15204" lon="12.0812217"><ele>40.0</ele><time>2026-05-02T06:09:28.546Z</time></trkpt><trkpt lat="44.1520883" lon="12.08108"><ele>40.0</ele><time>2026-05-02T06:09:30.546Z</time></trkpt><trkpt lat="44.1521433" lon="12.080935"><ele>40.0</ele><time>2026-05-02T06:09:32.546Z</time></trkpt><trkpt lat="44.1522083" lon="12.0807867"><ele>40.0</ele><time>2026-05-02T06:09:34.546Z</time></trkpt><trkpt lat="44.152245" lon="12.0807117"><ele>40.0</ele><time>2026-05-02T06:09:35.546Z</time></trkpt><trkpt lat="44.1523133" lon="12.0805667"><ele>40.0</ele><time>2026-05-02T06:09:37.546Z</time></trkpt><trkpt lat="44.152385" lon="12.0804317"><ele>40.0</ele><time>2026-05-02T06:09:39.546Z</time></trkpt><trkpt lat="44.1524583" lon="12.0802933"><ele>40.4</ele><time>2026-05-02T06:09:41.546Z</time></trkpt><trkpt lat="44.15253" lon="12.0801667"><ele>40.8</ele><time>2026-05-02T06:09:43.546Z</time></trkpt><trkpt lat="44.1525883" lon="12.0800467"><ele>41.2</ele><time>2026-05-02T06:09:45.546Z</time></trkpt><trkpt lat="44.15265" lon="12.0799283"><ele>41.6</ele><time>2026-05-02T06:09:47.547Z</time></trkpt><trkpt lat="44.1527183" lon="12.07982"><ele>42.0</ele><time>2026-05-02T06:09:49.547Z</time></trkpt><trkpt lat="44.1527967" lon="12.0797267"><ele>42.0</ele><time>2026-05-02T06:09:51.546Z</time></trkpt><trkpt lat="44.1529017" lon="12.0797133"><ele>42.0</ele><time>2026-05-02T06:09:53.546Z</time></trkpt><trkpt lat="44.1529867" lon="12.0797917"><ele>42.0</ele><time>2026-05-02T06:09:55.546Z</time></trkpt><trkpt lat="44.15306" lon="12.079915"><ele>42.0</ele><time>2026-05-02T06:09:57.546Z</time></trkpt><trkpt lat="44.1531383" lon="12.080045"><ele>42.0</ele><time>2026-05-02T06:09:59.546Z</time></trkpt><trkpt lat="44.153225" lon="12.0801617"><ele>41.5</ele><time>2026-05-02T06:10:01.546Z</time></trkpt><trkpt lat="44.1533083" lon="12.0802867"><ele>41.0</ele><time>2026-05-02T06:10:03.546Z</time></trkpt><trkpt lat="44.1533517" lon="12.0803533"><ele>40.5</ele><time>2026-05-02T06:10:04.546Z</time></trkpt><trkpt lat="44.1533967" lon="12.080425"><ele>40.0</ele><time>2026-05-02T06:10:05.546Z</time></trkpt><trkpt lat="44.1534417" lon="12.08049"><ele>39.5</ele><time>2026-05-02T06:10:06.546Z</time></trkpt><trkpt lat="44.1534867" lon="12.0805567"><ele>39.0</ele><time>2026-05-02T06:10:07.546Z</time></trkpt><trkpt lat="44.1535783" lon="12.08068"><ele>39.0</ele><time>2026-05-02T06:10:09.546Z</time></trkpt><trkpt lat="44.153625" lon="12.0807467"><ele>39.0</ele><time>2026-05-02T06:10:10.546Z</time></trkpt><trkpt lat="44.1536717" lon="12.0808117"><ele>39.0</ele><time>2026-05-02T06:10:11.547Z</time></trkpt><trkpt lat="44.15372" lon="12.08088"><ele>39.0</ele><time>2026-05-02T06:10:12.547Z</time></trkpt><trkpt lat="44.1537667" lon="12.080945"><ele>39.0</ele><time>2026-05-02T06:10:13.546Z</time></trkpt><trkpt lat="44.1538183" lon="12.0810083"><ele>39.0</ele><time>2026-05-02T06:10:14.546Z</time></trkpt><trkpt lat="44.1538683" lon="12.0810783"><ele>39.0</ele><time>2026-05-02T06:10:15.546Z</time></trkpt><trkpt lat="44.1539233" lon="12.0811467"><ele>39.142857142857146</ele><time>2026-05-02T06:10:16.546Z</time></trkpt><trkpt lat="44.153975" lon="12.0812133"><ele>39.285714285714285</ele><time>2026-05-02T06:10:17.546Z</time></trkpt><trkpt lat="44.1540283" lon="12.0812817"><ele>39.42857142857143</ele><time>2026-05-02T06:10:18.546Z</time></trkpt><trkpt lat="44.154085" lon="12.0813517"><ele>39.57142857142857</ele><time>2026-05-02T06:10:19.546Z</time></trkpt><trkpt lat="44.154135" lon="12.0814267"><ele>39.714285714285715</ele><time>2026-05-02T06:10:20.546Z</time></trkpt><trkpt lat="44.15419" lon="12.081495"><ele>39.857142857142854</ele><time>2026-05-02T06:10:21.546Z</time></trkpt><trkpt lat="44.1542483" lon="12.08156"><ele>40.0</ele><time>2026-05-02T06:10:22.546Z</time></trkpt><trkpt lat="44.1543017" lon="12.0816267"><ele>40.0</ele><time>2026-05-02T06:10:23.546Z</time></trkpt><trkpt lat="44.154355" lon="12.0816867"><ele>40.0</ele><time>2026-05-02T06:10:24.546Z</time></trkpt><trkpt lat="44.1544083" lon="12.08175"><ele>40.0</ele><time>2026-05-02T06:10:25.546Z</time></trkpt><trkpt lat="44.15446" lon="12.08182"><ele>40.0</ele><time>2026-05-02T06:10:26.546Z</time></trkpt><trkpt lat="44.1545183" lon="12.0818917"><ele>40.0</ele><time>2026-05-02T06:10:27.546Z</time></trkpt><trkpt lat="44.154575" lon="12.0819567"><ele>40.0</ele><time>2026-05-02T06:10:28.546Z</time></trkpt><trkpt lat="44.154635" lon="12.0820283"><ele>40.0</ele><time>2026-05-02T06:10:29.546Z</time></trkpt><trkpt lat="44.1546933" lon="12.0821033"><ele>40.0</ele><time>2026-05-02T06:10:30.546Z</time></trkpt><trkpt lat="44.1547517" lon="12.0821817"><ele>40.0</ele><time>2026-05-02T06:10:31.546Z</time></trkpt><trkpt lat="44.1548067" lon="12.0822483"><ele>40.0</ele><time>2026-05-02T06:10:32.546Z</time></trkpt><trkpt lat="44.1548617" lon="12.0823133"><ele>40.0</ele><time>2026-05-02T06:10:33.546Z</time></trkpt><trkpt lat="44.154915" lon="12.082375"><ele>40.0</ele><time>2026-05-02T06:10:34.546Z</time></trkpt><trkpt lat="44.15497" lon="12.0824433"><ele>40.0</ele><time>2026-05-02T06:10:35.546Z</time></trkpt><trkpt lat="44.1550267" lon="12.08251"><ele>40.0</ele><time>2026-05-02T06:10:36.546Z</time></trkpt><trkpt lat="44.1550883" lon="12.0825833"><ele>39.857142857142854</ele><time>2026-05-02T06:10:37.546Z</time></trkpt><trkpt lat="44.15515" lon="12.0826533"><ele>39.714285714285715</ele><time>2026-05-02T06:10:38.546Z</time></trkpt><trkpt lat="44.1552067" lon="12.0827267"><ele>39.57142857142857</ele><time>2026-05-02T06:10:39.546Z</time></trkpt><trkpt lat="44.15526" lon="12.0827933"><ele>39.42857142857143</ele><time>2026-05-02T06:10:40.546Z</time></trkpt><trkpt lat="44.1553167" lon="12.08286"><ele>39.285714285714285</ele><time>2026-05-02T06:10:41.546Z</time></trkpt><trkpt lat="44.1553733" lon="12.08293"><ele>39.142857142857146</ele><time>2026-05-02T06:10:42.546Z</time></trkpt><trkpt lat="44.155425" lon="12.0829967"><ele>39.0</ele><time>2026-05-02T06:10:43.546Z</time></trkpt><trkpt lat="44.155485" lon="12.0830717"><ele>39.0</ele><time>2026-05-02T06:10:44.546Z</time></trkpt><trkpt lat="44.15554" lon="12.0831483"><ele>39.0</ele><time>2026-05-02T06:10:45.546Z</time></trkpt><trkpt lat="44.1555983" lon="12.08322"><ele>39.0</ele><time>2026-05-02T06:10:46.546Z</time></trkpt><trkpt lat="44.15566" lon="12.083285"><ele>39.0</ele><time>2026-05-02T06:10:47.547Z</time></trkpt><trkpt lat="44.1557217" lon="12.0833583"><ele>39.0</ele><time>2026-05-02T06:10:48.546Z</time></trkpt><trkpt lat="44.1557817" lon="12.08343"><ele>39.0</ele><time>2026-05-02T06:10:49.546Z</time></trkpt><trkpt lat="44.1558433" lon="12.083505"><ele>39.166666666666664</ele><time>2026-05-02T06:10:50.546Z</time></trkpt><trkpt lat="44.1559033" lon="12.0835783"><ele>39.333333333333336</ele><time>2026-05-02T06:10:51.547Z</time></trkpt><trkpt lat="44.155965" lon="12.0836433"><ele>39.5</ele><time>2026-05-02T06:10:52.546Z</time></trkpt><trkpt lat="44.1560217" lon="12.08371"><ele>39.66666666666667</ele><time>2026-05-02T06:10:53.546Z</time></trkpt><trkpt lat="44.15608" lon="12.0837767"><ele>39.833333333333336</ele><time>2026-05-02T06:10:54.546Z</time></trkpt><trkpt lat="44.1561333" lon="12.0838417"><ele>40.0</ele><time>2026-05-02T06:10:55.546Z</time></trkpt><trkpt lat="44.1561967" lon="12.0839133"><ele>40.0</ele><time>2026-05-02T06:10:56.546Z</time></trkpt><trkpt lat="44.1562567" lon="12.0839917"><ele>40.0</ele><time>2026-05-02T06:10:57.546Z</time></trkpt><trkpt lat="44.1563183" lon="12.0840683"><ele>40.0</ele><time>2026-05-02T06:10:58.546Z</time></trkpt><trkpt lat="44.1563733" lon="12.0841367"><ele>40.0</ele><time>2026-05-02T06:10:59.546Z</time></trkpt><trkpt lat="44.1564283" lon="12.0842067"><ele>40.0</ele><time>2026-05-02T06:11:00.546Z</time></trkpt><trkpt lat="44.1564833" lon="12.0842733"><ele>40.0</ele><time>2026-05-02T06:11:01.546Z</time></trkpt><trkpt lat="44.15654" lon="12.084335"><ele>39.714285714285715</ele><time>2026-05-02T06:11:02.546Z</time></trkpt><trkpt lat="44.1565967" lon="12.0843967"><ele>39.42857142857143</ele><time>2026-05-02T06:11:03.546Z</time></trkpt><trkpt lat="44.156655" lon="12.0844667"><ele>39.14285714285714</ele><time>2026-05-02T06:11:04.546Z</time></trkpt><trkpt lat="44.1567133" lon="12.084535"><ele>38.85714285714286</ele><time>2026-05-02T06:11:05.546Z</time></trkpt><trkpt lat="44.1567667" lon="12.0846017"><ele>38.57142857142858</ele><time>2026-05-02T06:11:06.546Z</time></trkpt><trkpt lat="44.1568233" lon="12.0846733"><ele>38.285714285714285</ele><time>2026-05-02T06:11:07.546Z</time></trkpt><trkpt lat="44.15688" lon="12.0847417"><ele>38.0</ele><time>2026-05-02T06:11:08.546Z</time></trkpt><trkpt lat="44.15694" lon="12.08481"><ele>38.0</ele><time>2026-05-02T06:11:09.546Z</time></trkpt><trkpt lat="44.1569983" lon="12.0848783"><ele>38.0</ele><time>2026-05-02T06:11:10.546Z</time></trkpt><trkpt lat="44.157065" lon="12.0849483"><ele>38.0</ele><time>2026-05-02T06:11:11.546Z</time></trkpt><trkpt lat="44.15713" lon="12.0850183"><ele>38.0</ele><time>2026-05-02T06:11:12.546Z</time></trkpt><trkpt lat="44.157195" lon="12.0850917"><ele>38.0</ele><time>2026-05-02T06:11:13.546Z</time></trkpt><trkpt lat="44.1572533" lon="12.08516"><ele>38.0</ele><time>2026-05-02T06:11:14.546Z</time></trkpt><trkpt lat="44.157315" lon="12.0852283"><ele>37.83333333333333</ele><time>2026-05-02T06:11:15.546Z</time></trkpt><trkpt lat="44.1573817" lon="12.0852983"><ele>37.666666666666664</ele><time>2026-05-02T06:11:16.546Z</time></trkpt><trkpt lat="44.1574467" lon="12.0853483"><ele>37.5</ele><time>2026-05-02T06:11:17.546Z</time></trkpt><trkpt lat="44.1575233" lon="12.0853883"><ele>37.333333333333336</ele><time>2026-05-02T06:11:18.546Z</time></trkpt><trkpt lat="44.1576017" lon="12.0854167"><ele>37.16666666666667</ele><time>2026-05-02T06:11:19.546Z</time></trkpt><trkpt lat="44.157685" lon="12.0854433"><ele>37.0</ele><time>2026-05-02T06:11:20.546Z</time></trkpt><trkpt lat="44.1577717" lon="12.0854633"><ele>37.0</ele><time>2026-05-02T06:11:21.546Z</time></trkpt><trkpt lat="44.1578617" lon="12.08549"><ele>37.0</ele><time>2026-05-02T06:11:22.546Z</time></trkpt><trkpt lat="44.1579483" lon="12.08553"><ele>37.0</ele><time>2026-05-02T06:11:23.547Z</time></trkpt><trkpt lat="44.158035" lon="12.0855817"><ele>37.0</ele><time>2026-05-02T06:11:24.546Z</time></trkpt><trkpt lat="44.1581217" lon="12.08564"><ele>37.0</ele><time>2026-05-02T06:11:25.546Z</time></trkpt><trkpt lat="44.1582133" lon="12.0856917"><ele>36.66666666666667</ele><time>2026-05-02T06:11:26.546Z</time></trkpt><trkpt lat="44.158305" lon="12.0857333"><ele>36.333333333333336</ele><time>2026-05-02T06:11:27.546Z</time></trkpt><trkpt lat="44.1583983" lon="12.08576"><ele>36.0</ele><time>2026-05-02T06:11:28.546Z</time></trkpt><trkpt lat="44.1584867" lon="12.085775"><ele>35.666666666666664</ele><time>2026-05-02T06:11:29.546Z</time></trkpt><trkpt lat="44.1585717" lon="12.0857833"><ele>35.33333333333333</ele><time>2026-05-02T06:11:30.546Z</time></trkpt><trkpt lat="44.1586517" lon="12.0857917"><ele>35.0</ele><time>2026-05-02T06:11:31.546Z</time></trkpt><trkpt lat="44.1587283" lon="12.08579"><ele>35.0</ele><time>2026-05-02T06:11:32.546Z</time></trkpt><trkpt lat="44.15881" lon="12.08578"><ele>35.0</ele><time>2026-05-02T06:11:33.546Z</time></trkpt><trkpt lat="44.1588883" lon="12.0857733"><ele>35.0</ele><time>2026-05-02T06:11:34.546Z</time></trkpt><trkpt lat="44.158965" lon="12.0857633"><ele>35.0</ele><time>2026-05-02T06:11:35.546Z</time></trkpt><trkpt lat="44.15904" lon="12.0857617"><ele>35.0</ele><time>2026-05-02T06:11:36.546Z</time></trkpt><trkpt lat="44.1591117" lon="12.0857533"><ele>35.0</ele><time>2026-05-02T06:11:37.546Z</time></trkpt><trkpt lat="44.159185" lon="12.0857467"><ele>35.42857142857143</ele><time>2026-05-02T06:11:38.546Z</time></trkpt><trkpt lat="44.15926" lon="12.085735"><ele>35.85714285714286</ele><time>2026-05-02T06:11:39.546Z</time></trkpt><trkpt lat="44.159335" lon="12.0857283"><ele>36.285714285714285</ele><time>2026-05-02T06:11:40.546Z</time></trkpt><trkpt lat="44.1594083" lon="12.08572"><ele>36.714285714285715</ele><time>2026-05-02T06:11:41.546Z</time></trkpt><trkpt lat="44.1594833" lon="12.0857167"><ele>37.142857142857146</ele><time>2026-05-02T06:11:42.546Z</time></trkpt><trkpt lat="44.1595567" lon="12.0857083"><ele>37.57142857142857</ele><time>2026-05-02T06:11:43.546Z</time></trkpt><trkpt lat="44.15963" lon="12.0856967"><ele>38.0</ele><time>2026-05-02T06:11:44.546Z</time></trkpt><trkpt lat="44.1597" lon="12.08569"><ele>38.0</ele><time>2026-05-02T06:11:45.546Z</time></trkpt><trkpt lat="44.159775" lon="12.0856833"><ele>38.0</ele><time>2026-05-02T06:11:46.546Z</time></trkpt><trkpt lat="44.1598467" lon="12.085675"><ele>38.0</ele><time>2026-05-02T06:11:47.546Z</time></trkpt><trkpt lat="44.1599233" lon="12.0856733"><ele>38.0</ele><time>2026-05-02T06:11:48.546Z</time></trkpt><trkpt lat="44.16" lon="12.0856667"><ele>38.0</ele><time>2026-05-02T06:11:49.546Z</time></trkpt><trkpt lat="44.1600733" lon="12.08566"><ele>38.0</ele><time>2026-05-02T06:11:50.546Z</time></trkpt><trkpt lat="44.1601483" lon="12.085645"><ele>38.0</ele><time>2026-05-02T06:11:51.546Z</time></trkpt><trkpt lat="44.1602233" lon="12.0856417"><ele>38.0</ele><time>2026-05-02T06:11:52.546Z</time></trkpt><trkpt lat="44.1603" lon="12.0856383"><ele>38.0</ele><time>2026-05-02T06:11:53.546Z</time></trkpt><trkpt lat="44.160375" lon="12.0856317"><ele>38.0</ele><time>2026-05-02T06:11:54.546Z</time></trkpt><trkpt lat="44.1604467" lon="12.0856217"><ele>38.0</ele><time>2026-05-02T06:11:55.546Z</time></trkpt><trkpt lat="44.160515" lon="12.0856133"><ele>38.0</ele><time>2026-05-02T06:11:56.546Z</time></trkpt><trkpt lat="44.1605867" lon="12.085605"><ele>38.0</ele><time>2026-05-02T06:11:57.546Z</time></trkpt><trkpt lat="44.1606583" lon="12.0855983"><ele>38.0</ele><time>2026-05-02T06:11:58.546Z</time></trkpt><trkpt lat="44.1607317" lon="12.08559"><ele>38.0</ele><time>2026-05-02T06:11:59.546Z</time></trkpt><trkpt lat="44.1608083" lon="12.08558"><ele>38.0</ele><time>2026-05-02T06:12:00.546Z</time></trkpt><trkpt lat="44.1608867" lon="12.085565"><ele>38.0</ele><time>2026-05-02T06:12:01.546Z</time></trkpt><trkpt lat="44.160965" lon="12.0855483"><ele>38.0</ele><time>2026-05-02T06:12:02.546Z</time></trkpt><trkpt lat="44.161045" lon="12.0855333"><ele>38.0</ele><time>2026-05-02T06:12:03.546Z</time></trkpt><trkpt lat="44.1611233" lon="12.0855183"><ele>38.0</ele><time>2026-05-02T06:12:04.546Z</time></trkpt><trkpt lat="44.1611983" lon="12.0855"><ele>38.0</ele><time>2026-05-02T06:12:05.546Z</time></trkpt><trkpt lat="44.1612683" lon="12.0854767"><ele>38.0</ele><time>2026-05-02T06:12:06.546Z</time></trkpt><trkpt lat="44.1613517" lon="12.0854633"><ele>38.0</ele><time>2026-05-02T06:12:07.546Z</time></trkpt><trkpt lat="44.16143" lon="12.08545"><ele>38.0</ele><time>2026-05-02T06:12:08.546Z</time></trkpt><trkpt lat="44.161515" lon="12.085445"><ele>38.0</ele><time>2026-05-02T06:12:09.546Z</time></trkpt><trkpt lat="44.1615917" lon="12.0854433"><ele>37.714285714285715</ele><time>2026-05-02T06:12:10.546Z</time></trkpt><trkpt lat="44.1616733" lon="12.085435"><ele>37.42857142857143</ele><time>2026-05-02T06:12:11.546Z</time></trkpt><trkpt lat="44.1617533" lon="12.08543"><ele>37.142857142857146</ele><time>2026-05-02T06:12:12.546Z</time></trkpt><trkpt lat="44.161825" lon="12.0854283"><ele>36.85714285714286</ele><time>2026-05-02T06:12:13.546Z</time></trkpt><trkpt lat="44.1618917" lon="12.08542"><ele>36.57142857142857</ele><time>2026-05-02T06:12:14.546Z</time></trkpt><trkpt lat="44.1619583" lon="12.0854067"><ele>36.28571428571429</ele><time>2026-05-02T06:12:15.546Z</time></trkpt><trkpt lat="44.1620267" lon="12.0853917"><ele>36.0</ele><time>2026-05-02T06:12:16.546Z</time></trkpt><trkpt lat="44.162095" lon="12.08537"><ele>36.00000000000001</ele><time>2026-05-02T06:12:17.546Z</time></trkpt><trkpt lat="44.162165" lon="12.0853467"><ele>36.0</ele><time>2026-05-02T06:12:18.546Z</time></trkpt><trkpt lat="44.1622333" lon="12.0853217"><ele>36.0</ele><time>2026-05-02T06:12:19.546Z</time></trkpt><trkpt lat="44.1623033" lon="12.0852917"><ele>36.0</ele><time>2026-05-02T06:12:20.546Z</time></trkpt><trkpt lat="44.1623667" lon="12.0852483"><ele>36.0</ele><time>2026-05-02T06:12:21.546Z</time></trkpt><trkpt lat="44.16243" lon="12.08519"><ele>36.00000000000001</ele><time>2026-05-02T06:12:22.546Z</time></trkpt><trkpt lat="44.1624833" lon="12.0851233"><ele>36.0</ele><time>2026-05-02T06:12:23.546Z</time></trkpt><trkpt lat="44.1625333" lon="12.08505"><ele>36.28571428571429</ele><time>2026-05-02T06:12:24.546Z</time></trkpt><trkpt lat="44.162585" lon="12.0849767"><ele>36.57142857142857</ele><time>2026-05-02T06:12:25.546Z</time></trkpt><trkpt lat="44.1626333" lon="12.084895"><ele>36.85714285714286</ele><time>2026-05-02T06:12:26.546Z</time></trkpt><trkpt lat="44.1626867" lon="12.0848217"><ele>37.142857142857146</ele><time>2026-05-02T06:12:27.546Z</time></trkpt><trkpt lat="44.1627317" lon="12.0847467"><ele>37.42857142857143</ele><time>2026-05-02T06:12:28.546Z</time></trkpt><trkpt lat="44.1627717" lon="12.0846667"><ele>37.714285714285715</ele><time>2026-05-02T06:12:29.546Z</time></trkpt><trkpt lat="44.1628167" lon="12.0845883"><ele>38.0</ele><time>2026-05-02T06:12:30.546Z</time></trkpt><trkpt lat="44.1628617" lon="12.0845133"><ele>38.0</ele><time>2026-05-02T06:12:31.546Z</time></trkpt><trkpt lat="44.1629017" lon="12.08444"><ele>38.0</ele><time>2026-05-02T06:12:32.546Z</time></trkpt><trkpt lat="44.1629433" lon="12.0843617"><ele>38.0</ele><time>2026-05-02T06:12:33.546Z</time></trkpt><trkpt lat="44.162985" lon="12.0842817"><ele>38.0</ele><time>2026-05-02T06:12:34.547Z</time></trkpt><trkpt lat="44.1630267" lon="12.0842067"><ele>38.0</ele><time>2026-05-02T06:12:35.546Z</time></trkpt><trkpt lat="44.1630733" lon="12.0841333"><ele>38.0</ele><time>2026-05-02T06:12:36.546Z</time></trkpt><trkpt lat="44.163115" lon="12.0840617"><ele>38.0</ele><time>2026-05-02T06:12:37.547Z</time></trkpt><trkpt lat="44.1631533" lon="12.0839917"><ele>38.0</ele><time>2026-05-02T06:12:38.546Z</time></trkpt><trkpt lat="44.163185" lon="12.083915"><ele>38.0</ele><time>2026-05-02T06:12:39.546Z</time></trkpt><trkpt lat="44.1632117" lon="12.08383"><ele>38.0</ele><time>2026-05-02T06:12:40.546Z</time></trkpt><trkpt lat="44.1632417" lon="12.0837467"><ele>38.0</ele><time>2026-05-02T06:12:41.546Z</time></trkpt><trkpt lat="44.1632733" lon="12.0836633"><ele>38.0</ele><time>2026-05-02T06:12:42.546Z</time></trkpt><trkpt lat="44.1633017" lon="12.0835833"><ele>38.0</ele><time>2026-05-02T06:12:43.546Z</time></trkpt><trkpt lat="44.1633317" lon="12.0835"><ele>38.0</ele><time>2026-05-02T06:12:44.546Z</time></trkpt><trkpt lat="44.1633633" lon="12.0834183"><ele>38.0</ele><time>2026-05-02T06:12:45.546Z</time></trkpt><trkpt lat="44.163395" lon="12.0833367"><ele>38.0</ele><time>2026-05-02T06:12:46.546Z</time></trkpt><trkpt lat="44.1634217" lon="12.0832517"><ele>38.0</ele><time>2026-05-02T06:12:47.546Z</time></trkpt><trkpt lat="44.1634533" lon="12.0831667"><ele>38.0</ele><time>2026-05-02T06:12:48.546Z</time></trkpt><trkpt lat="44.1634817" lon="12.0830867"><ele>38.0</ele><time>2026-05-02T06:12:49.546Z</time></trkpt><trkpt lat="44.1635117" lon="12.083"><ele>38.0</ele><time>2026-05-02T06:12:50.547Z</time></trkpt><trkpt lat="44.16354" lon="12.082915"><ele>38.0</ele><time>2026-05-02T06:12:51.546Z</time></trkpt><trkpt lat="44.1635667" lon="12.08283"><ele>38.14285714285714</ele><time>2026-05-02T06:12:52.546Z</time></trkpt><trkpt lat="44.1635983" lon="12.08275"><ele>38.28571428571429</ele><time>2026-05-02T06:12:53.546Z</time></trkpt><trkpt lat="44.163635" lon="12.082665"><ele>38.42857142857143</ele><time>2026-05-02T06:12:54.546Z</time></trkpt><trkpt lat="44.1636683" lon="12.0825817"><ele>38.57142857142857</ele><time>2026-05-02T06:12:55.546Z</time></trkpt><trkpt lat="44.1637017" lon="12.082505"><ele>38.71428571428571</ele><time>2026-05-02T06:12:56.546Z</time></trkpt><trkpt lat="44.163735" lon="12.082425"><ele>38.85714285714286</ele><time>2026-05-02T06:12:57.546Z</time></trkpt><trkpt lat="44.163765" lon="12.0823417"><ele>39.0</ele><time>2026-05-02T06:12:58.546Z</time></trkpt><trkpt lat="44.1638" lon="12.08226"><ele>39.142857142857146</ele><time>2026-05-02T06:12:59.547Z</time></trkpt><trkpt lat="44.1638367" lon="12.082175"><ele>39.285714285714285</ele><time>2026-05-02T06:13:00.546Z</time></trkpt><trkpt lat="44.16387" lon="12.0820933"><ele>39.42857142857143</ele><time>2026-05-02T06:13:01.546Z</time></trkpt><trkpt lat="44.163905" lon="12.0820067"><ele>39.57142857142857</ele><time>2026-05-02T06:13:02.546Z</time></trkpt><trkpt lat="44.16394" lon="12.0819233"><ele>39.714285714285715</ele><time>2026-05-02T06:13:03.546Z</time></trkpt><trkpt lat="44.163975" lon="12.0818433"><ele>39.857142857142854</ele><time>2026-05-02T06:13:04.546Z</time></trkpt><trkpt lat="44.16401" lon="12.0817633"><ele>40.0</ele><time>2026-05-02T06:13:05.546Z</time></trkpt><trkpt lat="44.1640433" lon="12.0816817"><ele>39.857142857142854</ele><time>2026-05-02T06:13:06.546Z</time></trkpt><trkpt lat="44.1640783" lon="12.0815983"><ele>39.714285714285715</ele><time>2026-05-02T06:13:07.546Z</time></trkpt><trkpt lat="44.16411" lon="12.081515"><ele>39.57142857142857</ele><time>2026-05-02T06:13:08.546Z</time></trkpt><trkpt lat="44.1641433" lon="12.0814367"><ele>39.42857142857143</ele><time>2026-05-02T06:13:09.547Z</time></trkpt><trkpt lat="44.164175" lon="12.0813567"><ele>39.285714285714285</ele><time>2026-05-02T06:13:10.546Z</time></trkpt><trkpt lat="44.1642067" lon="12.081275"><ele>39.142857142857146</ele><time>2026-05-02T06:13:11.546Z</time></trkpt><trkpt lat="44.1642333" lon="12.081195"><ele>39.0</ele><time>2026-05-02T06:13:12.546Z</time></trkpt><trkpt lat="44.1642633" lon="12.0811133"><ele>39.0</ele><time>2026-05-02T06:13:13.546Z</time></trkpt><trkpt lat="44.164295" lon="12.0810233"><ele>39.0</ele><time>2026-05-02T06:13:14.546Z</time></trkpt><trkpt lat="44.16433" lon="12.08094"><ele>39.0</ele><time>2026-05-02T06:13:15.546Z</time></trkpt><trkpt lat="44.1643667" lon="12.0808367"><ele>39.0</ele><time>2026-05-02T06:13:16.546Z</time></trkpt><trkpt lat="44.164395" lon="12.0807517"><ele>39.0</ele><time>2026-05-02T06:13:17.546Z</time></trkpt><trkpt lat="44.164425" lon="12.0806683"><ele>39.0</ele><time>2026-05-02T06:13:18.546Z</time></trkpt><trkpt lat="44.1644533" lon="12.0805767"><ele>39.0</ele><time>2026-05-02T06:13:19.546Z</time></trkpt><trkpt lat="44.1644783" lon="12.080495"><ele>39.0</ele><time>2026-05-02T06:13:20.546Z</time></trkpt><trkpt lat="44.1645083" lon="12.0804133"><ele>39.0</ele><time>2026-05-02T06:13:21.546Z</time></trkpt><trkpt lat="44.1645417" lon="12.080335"><ele>39.0</ele><time>2026-05-02T06:13:22.546Z</time></trkpt><trkpt lat="44.1645733" lon="12.0802583"><ele>39.0</ele><time>2026-05-02T06:13:23.546Z</time></trkpt><trkpt lat="44.164605" lon="12.0801783"><ele>39.0</ele><time>2026-05-02T06:13:24.546Z</time></trkpt><trkpt lat="44.1646333" lon="12.0800933"><ele>39.0</ele><time>2026-05-02T06:13:25.546Z</time></trkpt><trkpt lat="44.1646617" lon="12.0800133"><ele>39.0</ele><time>2026-05-02T06:13:26.546Z</time></trkpt><trkpt lat="44.16471" lon="12.07985"><ele>39.0</ele><time>2026-05-02T06:13:28.546Z</time></trkpt><trkpt lat="44.1647667" lon="12.0797033"><ele>39.0</ele><time>2026-05-02T06:13:30.546Z</time></trkpt><trkpt lat="44.1647983" lon="12.0796267"><ele>39.0</ele><time>2026-05-02T06:13:31.546Z</time></trkpt><trkpt lat="44.164855" lon="12.0794733"><ele>39.0</ele><time>2026-05-02T06:13:33.546Z</time></trkpt><trkpt lat="44.1649083" lon="12.0793167"><ele>39.0</ele><time>2026-05-02T06:13:35.546Z</time></trkpt><trkpt lat="44.1649583" lon="12.079165"><ele>39.0</ele><time>2026-05-02T06:13:37.546Z</time></trkpt><trkpt lat="44.1650133" lon="12.0790183"><ele>39.0</ele><time>2026-05-02T06:13:39.546Z</time></trkpt><trkpt lat="44.1650633" lon="12.078875"><ele>39.0</ele><time>2026-05-02T06:13:41.546Z</time></trkpt><trkpt lat="44.165095" lon="12.0787983"><ele>39.0</ele><time>2026-05-02T06:13:42.546Z</time></trkpt><trkpt lat="44.165155" lon="12.0786483"><ele>39.0</ele><time>2026-05-02T06:13:44.546Z</time></trkpt><trkpt lat="44.1652133" lon="12.0784967"><ele>39.0</ele><time>2026-05-02T06:13:46.546Z</time></trkpt><trkpt lat="44.16527" lon="12.0783467"><ele>39.0</ele><time>2026-05-02T06:13:48.547Z</time></trkpt><trkpt lat="44.165325" lon="12.0781933"><ele>39.0</ele><time>2026-05-02T06:13:50.547Z</time></trkpt><trkpt lat="44.1653517" lon="12.0781117"><ele>39.0</ele><time>2026-05-02T06:13:51.548Z</time></trkpt><trkpt lat="44.16541" lon="12.0779633"><ele>39.0</ele><time>2026-05-02T06:13:53.547Z</time></trkpt><trkpt lat="44.165465" lon="12.0778167"><ele>39.0</ele><time>2026-05-02T06:13:55.547Z</time></trkpt><trkpt lat="44.1654933" lon="12.0777317"><ele>39.0</ele><time>2026-05-02T06:13:56.547Z</time></trkpt><trkpt lat="44.1655433" lon="12.0775733"><ele>39.0</ele><time>2026-05-02T06:13:58.547Z</time></trkpt><trkpt lat="44.165605" lon="12.077415"><ele>39.0</ele><time>2026-05-02T06:14:00.547Z</time></trkpt><trkpt lat="44.165635" lon="12.0773333"><ele>39.0</ele><time>2026-05-02T06:14:01.547Z</time></trkpt><trkpt lat="44.1656617" lon="12.0772417"><ele>39.166666666666664</ele><time>2026-05-02T06:14:02.547Z</time></trkpt><trkpt lat="44.1657183" lon="12.07709"><ele>39.333333333333336</ele><time>2026-05-02T06:14:04.547Z</time></trkpt><trkpt lat="44.16575" lon="12.0770067"><ele>39.5</ele><time>2026-05-02T06:14:05.547Z</time></trkpt><trkpt lat="44.165775" lon="12.0769233"><ele>39.66666666666667</ele><time>2026-05-02T06:14:06.547Z</time></trkpt><trkpt lat="44.1658033" lon="12.07684"><ele>39.833333333333336</ele><time>2026-05-02T06:14:07.547Z</time></trkpt><trkpt lat="44.1658367" lon="12.076755"><ele>40.0</ele><time>2026-05-02T06:14:08.547Z</time></trkpt><trkpt lat="44.165865" lon="12.0766683"><ele>40.16666666666667</ele><time>2026-05-02T06:14:09.548Z</time></trkpt><trkpt lat="44.16589" lon="12.076585"><ele>40.333333333333336</ele><time>2026-05-02T06:14:10.547Z</time></trkpt><trkpt lat="44.165945" lon="12.0764317"><ele>40.5</ele><time>2026-05-02T06:14:12.547Z</time></trkpt><trkpt lat="44.16598" lon="12.076355"><ele>40.666666666666664</ele><time>2026-05-02T06:14:13.547Z</time></trkpt><trkpt lat="44.1660183" lon="12.076275"><ele>40.83333333333333</ele><time>2026-05-02T06:14:14.547Z</time></trkpt><trkpt lat="44.1660717" lon="12.0761267"><ele>41.0</ele><time>2026-05-02T06:14:16.547Z</time></trkpt><trkpt lat="44.1661183" lon="12.0759867"><ele>41.0</ele><time>2026-05-02T06:14:18.548Z</time></trkpt><trkpt lat="44.16617" lon="12.0758633"><ele>41.0</ele><time>2026-05-02T06:14:20.547Z</time></trkpt><trkpt lat="44.16624" lon="12.0757617"><ele>41.0</ele><time>2026-05-02T06:14:22.547Z</time></trkpt><trkpt lat="44.1663217" lon="12.0756867"><ele>41.0</ele><time>2026-05-02T06:14:24.547Z</time></trkpt><trkpt lat="44.1664033" lon="12.075645"><ele>41.0</ele><time>2026-05-02T06:14:26.547Z</time></trkpt><trkpt lat="44.1664633" lon="12.0755933"><ele>41.0</ele><time>2026-05-02T06:14:28.547Z</time></trkpt><trkpt lat="44.1664867" lon="12.0754883"><ele>41.0</ele><time>2026-05-02T06:14:30.547Z</time></trkpt><trkpt lat="44.1664817" lon="12.0753767"><ele>41.0</ele><time>2026-05-02T06:14:32.547Z</time></trkpt><trkpt lat="44.1664833" lon="12.07525"><ele>41.0</ele><time>2026-05-02T06:14:34.547Z</time></trkpt><trkpt lat="44.1665167" lon="12.0751383"><ele>41.0</ele><time>2026-05-02T06:14:36.547Z</time></trkpt><trkpt lat="44.16659" lon="12.0750433"><ele>41.0</ele><time>2026-05-02T06:14:38.547Z</time></trkpt><trkpt lat="44.1666783" lon="12.07494"><ele>40.599999999999994</ele><time>2026-05-02T06:14:40.547Z</time></trkpt><trkpt lat="44.16676" lon="12.0748183"><ele>40.199999999999996</ele><time>2026-05-02T06:14:42.547Z</time></trkpt><trkpt lat="44.16684" lon="12.07469"><ele>39.8</ele><time>2026-05-02T06:14:44.547Z</time></trkpt><trkpt lat="44.1669133" lon="12.0745517"><ele>39.4</ele><time>2026-05-02T06:14:46.547Z</time></trkpt><trkpt lat="44.1669533" lon="12.0744783"><ele>39.0</ele><time>2026-05-02T06:14:47.547Z</time></trkpt><trkpt lat="44.1669933" lon="12.07441"><ele>39.0</ele><time>2026-05-02T06:14:48.547Z</time></trkpt><trkpt lat="44.1670583" lon="12.074265"><ele>39.0</ele><time>2026-05-02T06:14:50.547Z</time></trkpt><trkpt lat="44.1670933" lon="12.07419"><ele>39.0</ele><time>2026-05-02T06:14:51.547Z</time></trkpt><trkpt lat="44.1671283" lon="12.0741083"><ele>39.0</ele><time>2026-05-02T06:14:52.547Z</time></trkpt><trkpt lat="44.1671633" lon="12.07403"><ele>39.0</ele><time>2026-05-02T06:14:53.547Z</time></trkpt><trkpt lat="44.1672017" lon="12.0739533"><ele>39.0</ele><time>2026-05-02T06:14:54.547Z</time></trkpt><trkpt lat="44.1672383" lon="12.0738767"><ele>39.0</ele><time>2026-05-02T06:14:55.547Z</time></trkpt><trkpt lat="44.1672783" lon="12.0737983"><ele>39.0</ele><time>2026-05-02T06:14:56.547Z</time></trkpt><trkpt lat="44.167315" lon="12.0737217"><ele>39.0</ele><time>2026-05-02T06:14:57.547Z</time></trkpt><trkpt lat="44.1673483" lon="12.073645"><ele>39.0</ele><time>2026-05-02T06:14:58.547Z</time></trkpt><trkpt lat="44.1673833" lon="12.0735683"><ele>39.0</ele><time>2026-05-02T06:14:59.547Z</time></trkpt><trkpt lat="44.1674183" lon="12.0734883"><ele>39.0</ele><time>2026-05-02T06:15:00.547Z</time></trkpt><trkpt lat="44.167455" lon="12.0734117"><ele>39.0</ele><time>2026-05-02T06:15:01.547Z</time></trkpt><trkpt lat="44.1674933" lon="12.0733333"><ele>39.6</ele><time>2026-05-02T06:15:02.547Z</time></trkpt><trkpt lat="44.1675333" lon="12.0732617"><ele>40.2</ele><time>2026-05-02T06:15:03.547Z</time></trkpt><trkpt lat="44.1675983" lon="12.0731167"><ele>40.800000000000004</ele><time>2026-05-02T06:15:05.547Z</time></trkpt><trkpt lat="44.1676667" lon="12.0729717"><ele>41.4</ele><time>2026-05-02T06:15:07.547Z</time></trkpt><trkpt lat="44.1677" lon="12.0728917"><ele>42.0</ele><time>2026-05-02T06:15:08.547Z</time></trkpt><trkpt lat="44.16777" lon="12.072745"><ele>42.0</ele><time>2026-05-02T06:15:10.547Z</time></trkpt><trkpt lat="44.1678033" lon="12.0726667"><ele>42.0</ele><time>2026-05-02T06:15:11.547Z</time></trkpt><trkpt lat="44.1678717" lon="12.07253"><ele>42.0</ele><time>2026-05-02T06:15:13.547Z</time></trkpt><trkpt lat="44.16791" lon="12.0724583"><ele>42.0</ele><time>2026-05-02T06:15:14.547Z</time></trkpt><trkpt lat="44.1679783" lon="12.0723267"><ele>42.0</ele><time>2026-05-02T06:15:16.548Z</time></trkpt><trkpt lat="44.16805" lon="12.072205"><ele>42.25</ele><time>2026-05-02T06:15:18.547Z</time></trkpt><trkpt lat="44.168115" lon="12.07206"><ele>42.5</ele><time>2026-05-02T06:15:20.548Z</time></trkpt><trkpt lat="44.1681767" lon="12.071915"><ele>42.75</ele><time>2026-05-02T06:15:22.547Z</time></trkpt><trkpt lat="44.1682517" lon="12.07178"><ele>43.0</ele><time>2026-05-02T06:15:24.547Z</time></trkpt><trkpt lat="44.168305" lon="12.0716467"><ele>43.2</ele><time>2026-05-02T06:15:26.547Z</time></trkpt><trkpt lat="44.1683633" lon="12.0715283"><ele>43.4</ele><time>2026-05-02T06:15:28.547Z</time></trkpt><trkpt lat="44.16842" lon="12.0714067"><ele>43.6</ele><time>2026-05-02T06:15:30.547Z</time></trkpt><trkpt lat="44.1684767" lon="12.0712783"><ele>43.800000000000004</ele><time>2026-05-02T06:15:32.547Z</time></trkpt><trkpt lat="44.168535" lon="12.0711567"><ele>44.0</ele><time>2026-05-02T06:15:34.547Z</time></trkpt><trkpt lat="44.1685933" lon="12.0710367"><ele>44.0</ele><time>2026-05-02T06:15:36.547Z</time></trkpt><trkpt lat="44.1686533" lon="12.07091"><ele>44.0</ele><time>2026-05-02T06:15:38.547Z</time></trkpt><trkpt lat="44.1687183" lon="12.0707767"><ele>44.0</ele><time>2026-05-02T06:15:40.547Z</time></trkpt><trkpt lat="44.1687767" lon="12.070635"><ele>44.0</ele><time>2026-05-02T06:15:42.547Z</time></trkpt><trkpt lat="44.16884" lon="12.0705033"><ele>44.0</ele><time>2026-05-02T06:15:44.547Z</time></trkpt><trkpt lat="44.1689067" lon="12.070375"><ele>44.0</ele><time>2026-05-02T06:15:46.547Z</time></trkpt><trkpt lat="44.1689733" lon="12.07024"><ele>44.0</ele><time>2026-05-02T06:15:48.547Z</time></trkpt><trkpt lat="44.1690383" lon="12.0701067"><ele>44.0</ele><time>2026-05-02T06:15:50.547Z</time></trkpt><trkpt lat="44.1690867" lon="12.06998"><ele>44.2</ele><time>2026-05-02T06:15:52.547Z</time></trkpt><trkpt lat="44.1691333" lon="12.0698367"><ele>44.400000000000006</ele><time>2026-05-02T06:15:54.547Z</time></trkpt><trkpt lat="44.169175" lon="12.0696933"><ele>44.6</ele><time>2026-05-02T06:15:56.547Z</time></trkpt><trkpt lat="44.16923" lon="12.0695583"><ele>44.8</ele><time>2026-05-02T06:15:58.547Z</time></trkpt><trkpt lat="44.16928" lon="12.06942"><ele>45.0</ele><time>2026-05-02T06:16:00.547Z</time></trkpt><trkpt lat="44.169335" lon="12.0692783"><ele>45.0</ele><time>2026-05-02T06:16:02.547Z</time></trkpt><trkpt lat="44.1693917" lon="12.06915"><ele>45.0</ele><time>2026-05-02T06:16:04.547Z</time></trkpt><trkpt lat="44.1694533" lon="12.0690233"><ele>45.0</ele><time>2026-05-02T06:16:06.547Z</time></trkpt><trkpt lat="44.1695033" lon="12.0688817"><ele>45.0</ele><time>2026-05-02T06:16:08.547Z</time></trkpt><trkpt lat="44.16956" lon="12.0687333"><ele>45.0</ele><time>2026-05-02T06:16:10.547Z</time></trkpt><trkpt lat="44.1696217" lon="12.0685883"><ele>45.0</ele><time>2026-05-02T06:16:12.547Z</time></trkpt><trkpt lat="44.1696683" lon="12.06845"><ele>45.0</ele><time>2026-05-02T06:16:14.547Z</time></trkpt><trkpt lat="44.1697267" lon="12.0683017"><ele>45.0</ele><time>2026-05-02T06:16:16.547Z</time></trkpt><trkpt lat="44.16979" lon="12.0681567"><ele>45.0</ele><time>2026-05-02T06:16:18.547Z</time></trkpt><trkpt lat="44.1698417" lon="12.068005"><ele>45.0</ele><time>2026-05-02T06:16:20.547Z</time></trkpt><trkpt lat="44.1698933" lon="12.0678617"><ele>45.0</ele><time>2026-05-02T06:16:22.547Z</time></trkpt><trkpt lat="44.1699483" lon="12.0677183"><ele>45.0</ele><time>2026-05-02T06:16:24.547Z</time></trkpt><trkpt lat="44.1700017" lon="12.0675717"><ele>45.4</ele><time>2026-05-02T06:16:26.547Z</time></trkpt><trkpt lat="44.1700583" lon="12.0674217"><ele>45.8</ele><time>2026-05-02T06:16:28.547Z</time></trkpt><trkpt lat="44.1701133" lon="12.0672717"><ele>46.2</ele><time>2026-05-02T06:16:30.547Z</time></trkpt><trkpt lat="44.170165" lon="12.0671217"><ele>46.6</ele><time>2026-05-02T06:16:32.547Z</time></trkpt><trkpt lat="44.170195" lon="12.0670433"><ele>47.0</ele><time>2026-05-02T06:16:33.547Z</time></trkpt><trkpt lat="44.170225" lon="12.066965"><ele>47.0</ele><time>2026-05-02T06:16:34.547Z</time></trkpt><trkpt lat="44.1702583" lon="12.0668867"><ele>47.0</ele><time>2026-05-02T06:16:35.547Z</time></trkpt><trkpt lat="44.1703133" lon="12.066735"><ele>47.0</ele><time>2026-05-02T06:16:37.548Z</time></trkpt><trkpt lat="44.17037" lon="12.0665867"><ele>47.0</ele><time>2026-05-02T06:16:39.547Z</time></trkpt><trkpt lat="44.170435" lon="12.0664433"><ele>47.0</ele><time>2026-05-02T06:16:41.547Z</time></trkpt><trkpt lat="44.1704967" lon="12.0662983"><ele>47.0</ele><time>2026-05-02T06:16:43.547Z</time></trkpt><trkpt lat="44.1705567" lon="12.0661433"><ele>47.0</ele><time>2026-05-02T06:16:45.547Z</time></trkpt><trkpt lat="44.1705883" lon="12.06606"><ele>47.0</ele><time>2026-05-02T06:16:46.547Z</time></trkpt><trkpt lat="44.1706183" lon="12.06598"><ele>47.0</ele><time>2026-05-02T06:16:47.547Z</time></trkpt><trkpt lat="44.17068" lon="12.0658233"><ele>47.0</ele><time>2026-05-02T06:16:49.547Z</time></trkpt><trkpt lat="44.17071" lon="12.065745"><ele>46.8</ele><time>2026-05-02T06:16:50.547Z</time></trkpt><trkpt lat="44.1707417" lon="12.0656667"><ele>46.6</ele><time>2026-05-02T06:16:51.547Z</time></trkpt><trkpt lat="44.17079" lon="12.0655117"><ele>46.4</ele><time>2026-05-02T06:16:53.547Z</time></trkpt><trkpt lat="44.1708217" lon="12.065435"><ele>46.199999999999996</ele><time>2026-05-02T06:16:54.547Z</time></trkpt><trkpt lat="44.1709" lon="12.0653017"><ele>46.0</ele><time>2026-05-02T06:16:56.547Z</time></trkpt><trkpt lat="44.1709767" lon="12.0651667"><ele>46.0</ele><time>2026-05-02T06:16:58.547Z</time></trkpt><trkpt lat="44.1710217" lon="12.0651033"><ele>46.0</ele><time>2026-05-02T06:16:59.547Z</time></trkpt><trkpt lat="44.1710717" lon="12.0650383"><ele>46.0</ele><time>2026-05-02T06:17:00.547Z</time></trkpt><trkpt lat="44.1711183" lon="12.0649733"><ele>46.0</ele><time>2026-05-02T06:17:01.547Z</time></trkpt><trkpt lat="44.171205" lon="12.0648617"><ele>46.0</ele><time>2026-05-02T06:17:03.547Z</time></trkpt><trkpt lat="44.1712517" lon="12.064795"><ele>46.0</ele><time>2026-05-02T06:17:04.548Z</time></trkpt><trkpt lat="44.1713383" lon="12.064665"><ele>46.142857142857146</ele><time>2026-05-02T06:17:06.547Z</time></trkpt><trkpt lat="44.1713833" lon="12.0645933"><ele>46.285714285714285</ele><time>2026-05-02T06:17:07.547Z</time></trkpt><trkpt lat="44.17143" lon="12.0645233"><ele>46.42857142857143</ele><time>2026-05-02T06:17:08.547Z</time></trkpt><trkpt lat="44.1714767" lon="12.0644567"><ele>46.57142857142857</ele><time>2026-05-02T06:17:09.547Z</time></trkpt><trkpt lat="44.1715267" lon="12.0643883"><ele>46.71428571428571</ele><time>2026-05-02T06:17:10.547Z</time></trkpt><trkpt lat="44.1715817" lon="12.0643183"><ele>46.857142857142854</ele><time>2026-05-02T06:17:11.548Z</time></trkpt><trkpt lat="44.1716317" lon="12.064245"><ele>47.0</ele><time>2026-05-02T06:17:12.547Z</time></trkpt><trkpt lat="44.171685" lon="12.0641733"><ele>47.0</ele><time>2026-05-02T06:17:13.547Z</time></trkpt><trkpt lat="44.1717467" lon="12.0641033"><ele>47.0</ele><time>2026-05-02T06:17:14.547Z</time></trkpt><trkpt lat="44.1717983" lon="12.0640267"><ele>47.0</ele><time>2026-05-02T06:17:15.547Z</time></trkpt><trkpt lat="44.17184" lon="12.0639517"><ele>47.0</ele><time>2026-05-02T06:17:16.547Z</time></trkpt><trkpt lat="44.17188" lon="12.0638783"><ele>47.0</ele><time>2026-05-02T06:17:17.547Z</time></trkpt><trkpt lat="44.1719217" lon="12.0637933"><ele>47.0</ele><time>2026-05-02T06:17:18.547Z</time></trkpt><trkpt lat="44.1719617" lon="12.0637083"><ele>47.0</ele><time>2026-05-02T06:17:19.547Z</time></trkpt><trkpt lat="44.1720033" lon="12.0636183"><ele>47.0</ele><time>2026-05-02T06:17:20.547Z</time></trkpt><trkpt lat="44.172035" lon="12.063525"><ele>47.0</ele><time>2026-05-02T06:17:21.547Z</time></trkpt><trkpt lat="44.1720667" lon="12.0634383"><ele>47.0</ele><time>2026-05-02T06:17:22.547Z</time></trkpt><trkpt lat="44.1720983" lon="12.0633517"><ele>47.0</ele><time>2026-05-02T06:17:23.547Z</time></trkpt><trkpt lat="44.1721267" lon="12.0632683"><ele>47.0</ele><time>2026-05-02T06:17:24.547Z</time></trkpt><trkpt lat="44.1721783" lon="12.0631133"><ele>47.0</ele><time>2026-05-02T06:17:26.547Z</time></trkpt><trkpt lat="44.1722133" lon="12.0630117"><ele>46.666666666666664</ele><time>2026-05-02T06:17:27.547Z</time></trkpt><trkpt lat="44.1722483" lon="12.06291"><ele>46.33333333333333</ele><time>2026-05-02T06:17:28.547Z</time></trkpt><trkpt lat="44.1722867" lon="12.0628167"><ele>46.0</ele><time>2026-05-02T06:17:29.547Z</time></trkpt><trkpt lat="44.1723183" lon="12.06272"><ele>45.666666666666664</ele><time>2026-05-02T06:17:30.547Z</time></trkpt><trkpt lat="44.1723467" lon="12.0626233"><ele>45.333333333333336</ele><time>2026-05-02T06:17:31.547Z</time></trkpt><trkpt lat="44.1723717" lon="12.0625267"><ele>45.0</ele><time>2026-05-02T06:17:32.547Z</time></trkpt><trkpt lat="44.1724017" lon="12.0624283"><ele>44.0</ele><time>2026-05-02T06:17:33.547Z</time></trkpt><trkpt lat="44.17243" lon="12.0623317"><ele>43.0</ele><time>2026-05-02T06:17:34.547Z</time></trkpt><trkpt lat="44.1724617" lon="12.0622383"><ele>42.0</ele><time>2026-05-02T06:17:35.547Z</time></trkpt><trkpt lat="44.172495" lon="12.0621467"><ele>41.0</ele><time>2026-05-02T06:17:36.548Z</time></trkpt><trkpt lat="44.1725283" lon="12.06206"><ele>40.0</ele><time>2026-05-02T06:17:37.547Z</time></trkpt><trkpt lat="44.1725567" lon="12.061965"><ele>39.0</ele><time>2026-05-02T06:17:38.547Z</time></trkpt><trkpt lat="44.1725883" lon="12.0618683"><ele>38.0</ele><time>2026-05-02T06:17:39.547Z</time></trkpt><trkpt lat="44.1726183" lon="12.061775"><ele>38.0</ele><time>2026-05-02T06:17:40.547Z</time></trkpt><trkpt lat="44.1726483" lon="12.061685"><ele>38.0</ele><time>2026-05-02T06:17:41.547Z</time></trkpt><trkpt lat="44.1726767" lon="12.0615983"><ele>38.0</ele><time>2026-05-02T06:17:42.547Z</time></trkpt><trkpt lat="44.1727067" lon="12.0615083"><ele>38.0</ele><time>2026-05-02T06:17:43.547Z</time></trkpt><trkpt lat="44.1727333" lon="12.06142"><ele>38.0</ele><time>2026-05-02T06:17:44.547Z</time></trkpt><trkpt lat="44.172765" lon="12.0613367"><ele>38.0</ele><time>2026-05-02T06:17:45.547Z</time></trkpt><trkpt lat="44.17279" lon="12.0612467"><ele>38.0</ele><time>2026-05-02T06:17:46.547Z</time></trkpt><trkpt lat="44.172815" lon="12.061155"><ele>38.0</ele><time>2026-05-02T06:17:47.547Z</time></trkpt><trkpt lat="44.1728417" lon="12.0610617"><ele>38.0</ele><time>2026-05-02T06:17:48.547Z</time></trkpt><trkpt lat="44.1728717" lon="12.0609667"><ele>38.0</ele><time>2026-05-02T06:17:49.547Z</time></trkpt><trkpt lat="44.1728983" lon="12.0608717"><ele>38.0</ele><time>2026-05-02T06:17:50.547Z</time></trkpt><trkpt lat="44.172925" lon="12.0607867"><ele>38.0</ele><time>2026-05-02T06:17:51.547Z</time></trkpt><trkpt lat="44.1729633" lon="12.0607067"><ele>38.0</ele><time>2026-05-02T06:17:52.547Z</time></trkpt><trkpt lat="44.1729967" lon="12.0606217"><ele>38.0</ele><time>2026-05-02T06:17:53.547Z</time></trkpt><trkpt lat="44.1730283" lon="12.0605367"><ele>38.0</ele><time>2026-05-02T06:17:54.547Z</time></trkpt><trkpt lat="44.1730567" lon="12.06045"><ele>38.0</ele><time>2026-05-02T06:17:55.547Z</time></trkpt><trkpt lat="44.1730867" lon="12.0603683"><ele>38.0</ele><time>2026-05-02T06:17:56.547Z</time></trkpt><trkpt lat="44.1731133" lon="12.06028"><ele>38.0</ele><time>2026-05-02T06:17:57.547Z</time></trkpt><trkpt lat="44.1731433" lon="12.0601917"><ele>38.0</ele><time>2026-05-02T06:17:58.547Z</time></trkpt><trkpt lat="44.17317" lon="12.0601067"><ele>38.0</ele><time>2026-05-02T06:17:59.547Z</time></trkpt><trkpt lat="44.17319" lon="12.06002"><ele>38.0</ele><time>2026-05-02T06:18:00.547Z</time></trkpt><trkpt lat="44.1732217" lon="12.059925"><ele>38.166666666666664</ele><time>2026-05-02T06:18:01.547Z</time></trkpt><trkpt lat="44.1732433" lon="12.0598267"><ele>38.33333333333333</ele><time>2026-05-02T06:18:02.547Z</time></trkpt><trkpt lat="44.1732567" lon="12.0597217"><ele>38.5</ele><time>2026-05-02T06:18:03.547Z</time></trkpt><trkpt lat="44.1732717" lon="12.0596167"><ele>38.666666666666664</ele><time>2026-05-02T06:18:04.547Z</time></trkpt><trkpt lat="44.1732867" lon="12.0595117"><ele>38.833333333333336</ele><time>2026-05-02T06:18:05.547Z</time></trkpt><trkpt lat="44.1732967" lon="12.0594133"><ele>39.0</ele><time>2026-05-02T06:18:06.548Z</time></trkpt><trkpt lat="44.1733067" lon="12.0593067"><ele>39.0</ele><time>2026-05-02T06:18:07.547Z</time></trkpt><trkpt lat="44.1733133" lon="12.0592017"><ele>39.0</ele><time>2026-05-02T06:18:08.547Z</time></trkpt><trkpt lat="44.1733183" lon="12.0591017"><ele>39.0</ele><time>2026-05-02T06:18:09.547Z</time></trkpt><trkpt lat="44.17333" lon="12.0590083"><ele>39.0</ele><time>2026-05-02T06:18:10.547Z</time></trkpt><trkpt lat="44.1733483" lon="12.0589167"><ele>39.0</ele><time>2026-05-02T06:18:11.547Z</time></trkpt><trkpt lat="44.1733817" lon="12.0587583"><ele>39.0</ele><time>2026-05-02T06:18:13.547Z</time></trkpt><trkpt lat="44.17342" lon="12.0586067"><ele>39.0</ele><time>2026-05-02T06:18:15.547Z</time></trkpt><trkpt lat="44.1734717" lon="12.05845"><ele>39.0</ele><time>2026-05-02T06:18:17.547Z</time></trkpt><trkpt lat="44.17351" lon="12.0583583"><ele>39.0</ele><time>2026-05-02T06:18:18.547Z</time></trkpt><trkpt lat="44.1735533" lon="12.0582633"><ele>39.0</ele><time>2026-05-02T06:18:19.547Z</time></trkpt><trkpt lat="44.173595" lon="12.0581683"><ele>39.0</ele><time>2026-05-02T06:18:20.547Z</time></trkpt><trkpt lat="44.1736367" lon="12.0580683"><ele>39.0</ele><time>2026-05-02T06:18:21.547Z</time></trkpt><trkpt lat="44.173675" lon="12.0579783"><ele>39.0</ele><time>2026-05-02T06:18:22.547Z</time></trkpt><trkpt lat="44.1737117" lon="12.0578783"><ele>39.0</ele><time>2026-05-02T06:18:23.547Z</time></trkpt><trkpt lat="44.173745" lon="12.057775"><ele>39.0</ele><time>2026-05-02T06:18:24.547Z</time></trkpt><trkpt lat="44.1737833" lon="12.057685"><ele>39.0</ele><time>2026-05-02T06:18:25.547Z</time></trkpt><trkpt lat="44.17382" lon="12.0575967"><ele>39.0</ele><time>2026-05-02T06:18:26.547Z</time></trkpt><trkpt lat="44.1738517" lon="12.057505"><ele>39.0</ele><time>2026-05-02T06:18:27.547Z</time></trkpt><trkpt lat="44.173885" lon="12.057415"><ele>39.0</ele><time>2026-05-02T06:18:28.547Z</time></trkpt><trkpt lat="44.17392" lon="12.0573267"><ele>39.0</ele><time>2026-05-02T06:18:29.547Z</time></trkpt><trkpt lat="44.1739583" lon="12.057245"><ele>39.0</ele><time>2026-05-02T06:18:30.547Z</time></trkpt><trkpt lat="44.1739933" lon="12.057165"><ele>39.0</ele><time>2026-05-02T06:18:31.547Z</time></trkpt><trkpt lat="44.1740283" lon="12.0570783"><ele>39.0</ele><time>2026-05-02T06:18:32.547Z</time></trkpt><trkpt lat="44.1740617" lon="12.0569883"><ele>39.0</ele><time>2026-05-02T06:18:33.547Z</time></trkpt><trkpt lat="44.174095" lon="12.0569067"><ele>39.0</ele><time>2026-05-02T06:18:34.547Z</time></trkpt><trkpt lat="44.17413" lon="12.056825"><ele>38.714285714285715</ele><time>2026-05-02T06:18:35.547Z</time></trkpt><trkpt lat="44.1741633" lon="12.0567383"><ele>38.42857142857142</ele><time>2026-05-02T06:18:36.547Z</time></trkpt><trkpt lat="44.1741967" lon="12.0566567"><ele>38.14285714285714</ele><time>2026-05-02T06:18:37.547Z</time></trkpt><trkpt lat="44.174235" lon="12.0565767"><ele>37.85714285714286</ele><time>2026-05-02T06:18:38.547Z</time></trkpt><trkpt lat="44.1742717" lon="12.0565"><ele>37.57142857142857</ele><time>2026-05-02T06:18:39.547Z</time></trkpt><trkpt lat="44.174305" lon="12.0564117"><ele>37.285714285714285</ele><time>2026-05-02T06:18:40.547Z</time></trkpt><trkpt lat="44.1743433" lon="12.0563267"><ele>37.0</ele><time>2026-05-02T06:18:41.548Z</time></trkpt><trkpt lat="44.1743767" lon="12.0562367"><ele>37.0</ele><time>2026-05-02T06:18:42.547Z</time></trkpt><trkpt lat="44.1744117" lon="12.0561467"><ele>37.0</ele><time>2026-05-02T06:18:43.547Z</time></trkpt><trkpt lat="44.17445" lon="12.056055"><ele>37.0</ele><time>2026-05-02T06:18:44.547Z</time></trkpt><trkpt lat="44.1744817" lon="12.0559667"><ele>37.0</ele><time>2026-05-02T06:18:45.547Z</time></trkpt><trkpt lat="44.1745183" lon="12.0558683"><ele>37.0</ele><time>2026-05-02T06:18:46.547Z</time></trkpt><trkpt lat="44.17455" lon="12.0557733"><ele>37.0</ele><time>2026-05-02T06:18:47.547Z</time></trkpt><trkpt lat="44.1745867" lon="12.0556833"><ele>37.0</ele><time>2026-05-02T06:18:48.547Z</time></trkpt><trkpt lat="44.174625" lon="12.0555917"><ele>37.142857142857146</ele><time>2026-05-02T06:18:49.547Z</time></trkpt><trkpt lat="44.17466" lon="12.0555"><ele>37.285714285714285</ele><time>2026-05-02T06:18:50.547Z</time></trkpt><trkpt lat="44.1746983" lon="12.055415"><ele>37.42857142857143</ele><time>2026-05-02T06:18:51.547Z</time></trkpt><trkpt lat="44.1747317" lon="12.055335"><ele>37.57142857142857</ele><time>2026-05-02T06:18:52.547Z</time></trkpt><trkpt lat="44.174765" lon="12.0552467"><ele>37.714285714285715</ele><time>2026-05-02T06:18:53.547Z</time></trkpt><trkpt lat="44.1747967" lon="12.055155"><ele>37.857142857142854</ele><time>2026-05-02T06:18:54.547Z</time></trkpt><trkpt lat="44.17483" lon="12.05507"><ele>38.0</ele><time>2026-05-02T06:18:55.547Z</time></trkpt><trkpt lat="44.17486" lon="12.0549867"><ele>38.166666666666664</ele><time>2026-05-02T06:18:56.547Z</time></trkpt><trkpt lat="44.1748933" lon="12.0549117"><ele>38.33333333333333</ele><time>2026-05-02T06:18:57.547Z</time></trkpt><trkpt lat="44.17493" lon="12.054825"><ele>38.5</ele><time>2026-05-02T06:18:58.548Z</time></trkpt><trkpt lat="44.174965" lon="12.05474"><ele>38.666666666666664</ele><time>2026-05-02T06:18:59.547Z</time></trkpt><trkpt lat="44.1749967" lon="12.05465"><ele>38.833333333333336</ele><time>2026-05-02T06:19:00.547Z</time></trkpt><trkpt lat="44.17506" lon="12.0545017"><ele>39.0</ele><time>2026-05-02T06:19:02.547Z</time></trkpt><trkpt lat="44.175095" lon="12.05442"><ele>39.0</ele><time>2026-05-02T06:19:03.547Z</time></trkpt><trkpt lat="44.1751333" lon="12.0543367"><ele>39.0</ele><time>2026-05-02T06:19:04.547Z</time></trkpt><trkpt lat="44.1751683" lon="12.0542517"><ele>39.0</ele><time>2026-05-02T06:19:05.547Z</time></trkpt><trkpt lat="44.1752017" lon="12.0541667"><ele>39.0</ele><time>2026-05-02T06:19:06.547Z</time></trkpt><trkpt lat="44.1752333" lon="12.0540783"><ele>39.0</ele><time>2026-05-02T06:19:07.547Z</time></trkpt><trkpt lat="44.1752683" lon="12.0539917"><ele>39.0</ele><time>2026-05-02T06:19:08.547Z</time></trkpt><trkpt lat="44.1752983" lon="12.0539033"><ele>39.0</ele><time>2026-05-02T06:19:09.547Z</time></trkpt><trkpt lat="44.17533" lon="12.0538183"><ele>39.0</ele><time>2026-05-02T06:19:10.547Z</time></trkpt><trkpt lat="44.1753667" lon="12.0537283"><ele>39.0</ele><time>2026-05-02T06:19:11.547Z</time></trkpt><trkpt lat="44.1753983" lon="12.0536467"><ele>39.0</ele><time>2026-05-02T06:19:12.547Z</time></trkpt><trkpt lat="44.17546" lon="12.0534983"><ele>39.0</ele><time>2026-05-02T06:19:14.547Z</time></trkpt><trkpt lat="44.1754883" lon="12.0534183"><ele>39.0</ele><time>2026-05-02T06:19:15.547Z</time></trkpt><trkpt lat="44.1755217" lon="12.0533333"><ele>39.0</ele><time>2026-05-02T06:19:16.548Z</time></trkpt><trkpt lat="44.1755567" lon="12.0532533"><ele>39.0</ele><time>2026-05-02T06:19:17.547Z</time></trkpt><trkpt lat="44.1755883" lon="12.05317"><ele>39.0</ele><time>2026-05-02T06:19:18.547Z</time></trkpt><trkpt lat="44.1756217" lon="12.0530917"><ele>39.0</ele><time>2026-05-02T06:19:19.547Z</time></trkpt><trkpt lat="44.1756533" lon="12.0530117"><ele>39.0</ele><time>2026-05-02T06:19:20.547Z</time></trkpt><trkpt lat="44.1756867" lon="12.0529283"><ele>39.0</ele><time>2026-05-02T06:19:21.547Z</time></trkpt><trkpt lat="44.1757183" lon="12.052845"><ele>39.0</ele><time>2026-05-02T06:19:22.547Z</time></trkpt><trkpt lat="44.1757483" lon="12.0527667"><ele>39.0</ele><time>2026-05-02T06:19:23.547Z</time></trkpt><trkpt lat="44.1757767" lon="12.052685"><ele>39.0</ele><time>2026-05-02T06:19:24.547Z</time></trkpt><trkpt lat="44.1758033" lon="12.0526"><ele>39.0</ele><time>2026-05-02T06:19:25.547Z</time></trkpt><trkpt lat="44.175835" lon="12.0525183"><ele>39.0</ele><time>2026-05-02T06:19:26.547Z</time></trkpt><trkpt lat="44.175865" lon="12.0524333"><ele>39.0</ele><time>2026-05-02T06:19:27.547Z</time></trkpt><trkpt lat="44.175895" lon="12.0523533"><ele>39.0</ele><time>2026-05-02T06:19:28.547Z</time></trkpt><trkpt lat="44.1759233" lon="12.0522717"><ele>39.0</ele><time>2026-05-02T06:19:29.547Z</time></trkpt><trkpt lat="44.175975" lon="12.0521133"><ele>39.0</ele><time>2026-05-02T06:19:31.547Z</time></trkpt><trkpt lat="44.1760033" lon="12.0520317"><ele>39.0</ele><time>2026-05-02T06:19:32.547Z</time></trkpt><trkpt lat="44.176035" lon="12.0519517"><ele>39.0</ele><time>2026-05-02T06:19:33.547Z</time></trkpt><trkpt lat="44.1760683" lon="12.051875"><ele>39.0</ele><time>2026-05-02T06:19:34.547Z</time></trkpt><trkpt lat="44.1760967" lon="12.051795"><ele>39.0</ele><time>2026-05-02T06:19:35.547Z</time></trkpt><trkpt lat="44.1761533" lon="12.0516417"><ele>39.0</ele><time>2026-05-02T06:19:37.547Z</time></trkpt><trkpt lat="44.17621" lon="12.0514867"><ele>39.0</ele><time>2026-05-02T06:19:39.547Z</time></trkpt><trkpt lat="44.17627" lon="12.0513383"><ele>39.0</ele><time>2026-05-02T06:19:41.547Z</time></trkpt><trkpt lat="44.1762967" lon="12.0512583"><ele>39.0</ele><time>2026-05-02T06:19:42.547Z</time></trkpt><trkpt lat="44.1763483" lon="12.0511067"><ele>39.0</ele><time>2026-05-02T06:19:44.547Z</time></trkpt><trkpt lat="44.1764033" lon="12.0509583"><ele>39.0</ele><time>2026-05-02T06:19:46.547Z</time></trkpt><trkpt lat="44.1764517" lon="12.0508117"><ele>39.0</ele><time>2026-05-02T06:19:48.547Z</time></trkpt><trkpt lat="44.1765133" lon="12.0506617"><ele>39.0</ele><time>2026-05-02T06:19:50.547Z</time></trkpt><trkpt lat="44.1765683" lon="12.0505133"><ele>39.0</ele><time>2026-05-02T06:19:52.547Z</time></trkpt><trkpt lat="44.176625" lon="12.0503617"><ele>39.0</ele><time>2026-05-02T06:19:54.547Z</time></trkpt><trkpt lat="44.1766733" lon="12.0502083"><ele>39.25</ele><time>2026-05-02T06:19:56.547Z</time></trkpt><trkpt lat="44.1767283" lon="12.050055"><ele>39.5</ele><time>2026-05-02T06:19:58.547Z</time></trkpt><trkpt lat="44.176775" lon="12.04991"><ele>39.75</ele><time>2026-05-02T06:20:00.547Z</time></trkpt><trkpt lat="44.1768267" lon="12.0497583"><ele>40.0</ele><time>2026-05-02T06:20:02.547Z</time></trkpt><trkpt lat="44.1768833" lon="12.04961"><ele>40.0</ele><time>2026-05-02T06:20:04.547Z</time></trkpt><trkpt lat="44.176935" lon="12.0494617"><ele>40.0</ele><time>2026-05-02T06:20:06.547Z</time></trkpt><trkpt lat="44.1769917" lon="12.0493183"><ele>40.0</ele><time>2026-05-02T06:20:08.547Z</time></trkpt><trkpt lat="44.177045" lon="12.0491767"><ele>40.0</ele><time>2026-05-02T06:20:10.547Z</time></trkpt><trkpt lat="44.17709" lon="12.0490183"><ele>40.0</ele><time>2026-05-02T06:20:12.547Z</time></trkpt><trkpt lat="44.1771467" lon="12.0488683"><ele>40.0</ele><time>2026-05-02T06:20:14.547Z</time></trkpt><trkpt lat="44.177205" lon="12.0487133"><ele>40.0</ele><time>2026-05-02T06:20:16.547Z</time></trkpt><trkpt lat="44.17726" lon="12.0485617"><ele>40.0</ele><time>2026-05-02T06:20:18.547Z</time></trkpt><trkpt lat="44.1773117" lon="12.0484067"><ele>40.0</ele><time>2026-05-02T06:20:20.547Z</time></trkpt><trkpt lat="44.1773617" lon="12.0482617"><ele>40.0</ele><time>2026-05-02T06:20:22.547Z</time></trkpt><trkpt lat="44.1774183" lon="12.04812"><ele>40.0</ele><time>2026-05-02T06:20:24.548Z</time></trkpt><trkpt lat="44.17745" lon="12.0480367"><ele>40.0</ele><time>2026-05-02T06:20:25.547Z</time></trkpt><trkpt lat="44.17748" lon="12.0479567"><ele>40.0</ele><time>2026-05-02T06:20:26.547Z</time></trkpt><trkpt lat="44.1775383" lon="12.0477933"><ele>40.0</ele><time>2026-05-02T06:20:28.547Z</time></trkpt><trkpt lat="44.17757" lon="12.0477133"><ele>40.0</ele><time>2026-05-02T06:20:29.547Z</time></trkpt><trkpt lat="44.1776017" lon="12.0476283"><ele>40.0</ele><time>2026-05-02T06:20:30.547Z</time></trkpt><trkpt lat="44.177635" lon="12.0475433"><ele>40.0</ele><time>2026-05-02T06:20:31.547Z</time></trkpt><trkpt lat="44.1776667" lon="12.0474567"><ele>40.0</ele><time>2026-05-02T06:20:32.547Z</time></trkpt><trkpt lat="44.1776983" lon="12.047375"><ele>40.0</ele><time>2026-05-02T06:20:33.547Z</time></trkpt><trkpt lat="44.177725" lon="12.0472933"><ele>40.0</ele><time>2026-05-02T06:20:34.547Z</time></trkpt><trkpt lat="44.1777567" lon="12.047215"><ele>40.0</ele><time>2026-05-02T06:20:35.547Z</time></trkpt><trkpt lat="44.1778117" lon="12.047055"><ele>40.0</ele><time>2026-05-02T06:20:37.547Z</time></trkpt><trkpt lat="44.1778383" lon="12.046975"><ele>40.0</ele><time>2026-05-02T06:20:38.547Z</time></trkpt><trkpt lat="44.1778967" lon="12.046815"><ele>40.0</ele><time>2026-05-02T06:20:40.547Z</time></trkpt><trkpt lat="44.1779267" lon="12.046735"><ele>40.0</ele><time>2026-05-02T06:20:41.547Z</time></trkpt><trkpt lat="44.17799" lon="12.0465917"><ele>40.0</ele><time>2026-05-02T06:20:43.547Z</time></trkpt><trkpt lat="44.17805" lon="12.0464517"><ele>40.0</ele><time>2026-05-02T06:20:45.547Z</time></trkpt><trkpt lat="44.17811" lon="12.0463117"><ele>40.0</ele><time>2026-05-02T06:20:47.547Z</time></trkpt><trkpt lat="44.17817" lon="12.0461717"><ele>40.0</ele><time>2026-05-02T06:20:49.548Z</time></trkpt><trkpt lat="44.1782367" lon="12.0460283"><ele>40.2</ele><time>2026-05-02T06:20:51.547Z</time></trkpt><trkpt lat="44.1783067" lon="12.045885"><ele>40.4</ele><time>2026-05-02T06:20:53.547Z</time></trkpt><trkpt lat="44.178345" lon="12.0458133"><ele>40.599999999999994</ele><time>2026-05-02T06:20:54.547Z</time></trkpt><trkpt lat="44.1784183" lon="12.0456733"><ele>40.8</ele><time>2026-05-02T06:20:56.547Z</time></trkpt><trkpt lat="44.178455" lon="12.0456"><ele>41.0</ele><time>2026-05-02T06:20:57.547Z</time></trkpt><trkpt lat="44.17852" lon="12.04546"><ele>41.199999999999996</ele><time>2026-05-02T06:20:59.547Z</time></trkpt><trkpt lat="44.1785867" lon="12.0453133"><ele>41.4</ele><time>2026-05-02T06:21:01.547Z</time></trkpt><trkpt lat="44.1786533" lon="12.0451733"><ele>41.6</ele><time>2026-05-02T06:21:03.547Z</time></trkpt><trkpt lat="44.1786867" lon="12.0450967"><ele>41.8</ele><time>2026-05-02T06:21:04.547Z</time></trkpt><trkpt lat="44.1787567" lon="12.0449583"><ele>42.0</ele><time>2026-05-02T06:21:06.547Z</time></trkpt><trkpt lat="44.1788183" lon="12.044825"><ele>42.0</ele><time>2026-05-02T06:21:08.547Z</time></trkpt><trkpt lat="44.1788783" lon="12.0446867"><ele>42.0</ele><time>2026-05-02T06:21:10.547Z</time></trkpt><trkpt lat="44.1789167" lon="12.0446067"><ele>42.0</ele><time>2026-05-02T06:21:11.547Z</time></trkpt><trkpt lat="44.17895" lon="12.0445283"><ele>42.0</ele><time>2026-05-02T06:21:12.547Z</time></trkpt><trkpt lat="44.1789983" lon="12.0443733"><ele>42.0</ele><time>2026-05-02T06:21:14.548Z</time></trkpt><trkpt lat="44.17902" lon="12.0442083"><ele>42.166666666666664</ele><time>2026-05-02T06:21:16.547Z</time></trkpt><trkpt lat="44.1790167" lon="12.0441167"><ele>42.333333333333336</ele><time>2026-05-02T06:21:17.547Z</time></trkpt><trkpt lat="44.1790033" lon="12.044025"><ele>42.5</ele><time>2026-05-02T06:21:18.547Z</time></trkpt><trkpt lat="44.1789433" lon="12.0438683"><ele>42.66666666666667</ele><time>2026-05-02T06:21:20.547Z</time></trkpt><trkpt lat="44.178905" lon="12.0437983"><ele>42.833333333333336</ele><time>2026-05-02T06:21:21.547Z</time></trkpt><trkpt lat="44.1788633" lon="12.0437267"><ele>43.0</ele><time>2026-05-02T06:21:22.547Z</time></trkpt><trkpt lat="44.1787767" lon="12.0435983"><ele>43.0</ele><time>2026-05-02T06:21:24.547Z</time></trkpt><trkpt lat="44.1786933" lon="12.043465"><ele>43.0</ele><time>2026-05-02T06:21:26.547Z</time></trkpt><trkpt lat="44.1786483" lon="12.0434017"><ele>43.0</ele><time>2026-05-02T06:21:27.547Z</time></trkpt><trkpt lat="44.1785617" lon="12.043275"><ele>43.0</ele><time>2026-05-02T06:21:29.547Z</time></trkpt><trkpt lat="44.1785167" lon="12.0432117"><ele>43.0</ele><time>2026-05-02T06:21:30.547Z</time></trkpt><trkpt lat="44.17843" lon="12.04309"><ele>43.0</ele><time>2026-05-02T06:21:32.547Z</time></trkpt><trkpt lat="44.1783867" lon="12.043025"><ele>43.0</ele><time>2026-05-02T06:21:33.547Z</time></trkpt><trkpt lat="44.1783" lon="12.0429"><ele>43.0</ele><time>2026-05-02T06:21:35.547Z</time></trkpt><trkpt lat="44.178255" lon="12.0428383"><ele>43.0</ele><time>2026-05-02T06:21:36.547Z</time></trkpt><trkpt lat="44.17817" lon="12.0427167"><ele>43.0</ele><time>2026-05-02T06:21:38.547Z</time></trkpt><trkpt lat="44.1780883" lon="12.0425983"><ele>43.0</ele><time>2026-05-02T06:21:40.547Z</time></trkpt><trkpt lat="44.1780133" lon="12.0424717"><ele>43.0</ele><time>2026-05-02T06:21:42.547Z</time></trkpt><trkpt lat="44.1779667" lon="12.0423367"><ele>43.0</ele><time>2026-05-02T06:21:44.547Z</time></trkpt><trkpt lat="44.177955" lon="12.04218"><ele>43.0</ele><time>2026-05-02T06:21:46.547Z</time></trkpt><trkpt lat="44.1779983" lon="12.042035"><ele>43.0</ele><time>2026-05-02T06:21:48.548Z</time></trkpt><trkpt lat="44.178105" lon="12.04195"><ele>43.0</ele><time>2026-05-02T06:21:50.547Z</time></trkpt><trkpt lat="44.1782233" lon="12.0419133"><ele>43.0</ele><time>2026-05-02T06:21:52.547Z</time></trkpt><trkpt lat="44.178345" lon="12.041875"><ele>43.0</ele><time>2026-05-02T06:21:54.547Z</time></trkpt><trkpt lat="44.1784117" lon="12.0418467"><ele>43.0</ele><time>2026-05-02T06:21:55.547Z</time></trkpt><trkpt lat="44.178475" lon="12.0418217"><ele>43.0</ele><time>2026-05-02T06:21:56.547Z</time></trkpt><trkpt lat="44.1785433" lon="12.0417933"><ele>43.0</ele><time>2026-05-02T06:21:57.547Z</time></trkpt><trkpt lat="44.178605" lon="12.041775"><ele>43.0</ele><time>2026-05-02T06:21:58.547Z</time></trkpt><trkpt lat="44.1786717" lon="12.04176"><ele>43.0</ele><time>2026-05-02T06:21:59.548Z</time></trkpt><trkpt lat="44.1787933" lon="12.041715"><ele>43.0</ele><time>2026-05-02T06:22:01.547Z</time></trkpt><trkpt lat="44.1788617" lon="12.04169"><ele>43.0</ele><time>2026-05-02T06:22:02.547Z</time></trkpt><trkpt lat="44.17893" lon="12.04167"><ele>43.00000000000001</ele><time>2026-05-02T06:22:03.547Z</time></trkpt><trkpt lat="44.1789967" lon="12.0416467"><ele>43.0</ele><time>2026-05-02T06:22:04.547Z</time></trkpt><trkpt lat="44.1790617" lon="12.0416217"><ele>43.0</ele><time>2026-05-02T06:22:05.547Z</time></trkpt><trkpt lat="44.1791267" lon="12.0415967"><ele>43.0</ele><time>2026-05-02T06:22:06.548Z</time></trkpt><trkpt lat="44.17919" lon="12.0415717"><ele>43.0</ele><time>2026-05-02T06:22:07.547Z</time></trkpt><trkpt lat="44.179255" lon="12.0415467"><ele>43.00000000000001</ele><time>2026-05-02T06:22:08.547Z</time></trkpt><trkpt lat="44.1793217" lon="12.04153"><ele>43.0</ele><time>2026-05-02T06:22:09.547Z</time></trkpt><trkpt lat="44.1793867" lon="12.0415067"><ele>43.0</ele><time>2026-05-02T06:22:10.547Z</time></trkpt><trkpt lat="44.1794483" lon="12.04148"><ele>43.0</ele><time>2026-05-02T06:22:11.547Z</time></trkpt><trkpt lat="44.179515" lon="12.0414567"><ele>43.0</ele><time>2026-05-02T06:22:12.547Z</time></trkpt><trkpt lat="44.1796267" lon="12.0414367"><ele>43.0</ele><time>2026-05-02T06:22:14.547Z</time></trkpt><trkpt lat="44.1797417" lon="12.0414417"><ele>43.0</ele><time>2026-05-02T06:22:16.547Z</time></trkpt><trkpt lat="44.1798567" lon="12.0414483"><ele>42.75</ele><time>2026-05-02T06:22:18.547Z</time></trkpt><trkpt lat="44.179965" lon="12.041405"><ele>42.5</ele><time>2026-05-02T06:22:20.547Z</time></trkpt><trkpt lat="44.180065" lon="12.04131"><ele>42.25</ele><time>2026-05-02T06:22:22.547Z</time></trkpt><trkpt lat="44.1801567" lon="12.0412217"><ele>42.0</ele><time>2026-05-02T06:22:24.547Z</time></trkpt><trkpt lat="44.1802717" lon="12.0411567"><ele>42.0</ele><time>2026-05-02T06:22:26.547Z</time></trkpt><trkpt lat="44.1803317" lon="12.0411283"><ele>42.0</ele><time>2026-05-02T06:22:27.547Z</time></trkpt><trkpt lat="44.1804283" lon="12.0410483"><ele>42.0</ele><time>2026-05-02T06:22:29.547Z</time></trkpt><trkpt lat="44.1804683" lon="12.0409"><ele>42.0</ele><time>2026-05-02T06:22:31.547Z</time></trkpt><trkpt lat="44.180435" lon="12.0407467"><ele>42.0</ele><time>2026-05-02T06:22:33.547Z</time></trkpt><trkpt lat="44.1803917" lon="12.04068"><ele>41.8</ele><time>2026-05-02T06:22:34.547Z</time></trkpt><trkpt lat="44.180285" lon="12.0406083"><ele>41.6</ele><time>2026-05-02T06:22:36.547Z</time></trkpt><trkpt lat="44.1801683" lon="12.04059"><ele>41.4</ele><time>2026-05-02T06:22:38.548Z</time></trkpt><trkpt lat="44.180105" lon="12.0405733"><ele>41.199999999999996</ele><time>2026-05-02T06:22:39.547Z</time></trkpt><trkpt lat="44.1800017" lon="12.040495"><ele>41.0</ele><time>2026-05-02T06:22:41.547Z</time></trkpt><trkpt lat="44.179905" lon="12.040405"><ele>41.199999999999996</ele><time>2026-05-02T06:22:43.547Z</time></trkpt><trkpt lat="44.1798133" lon="12.0403133"><ele>41.4</ele><time>2026-05-02T06:22:45.547Z</time></trkpt><trkpt lat="44.1797283" lon="12.0402217"><ele>41.6</ele><time>2026-05-02T06:22:47.548Z</time></trkpt><trkpt lat="44.1796417" lon="12.0401333"><ele>41.8</ele><time>2026-05-02T06:22:49.547Z</time></trkpt><trkpt lat="44.1795633" lon="12.040055"><ele>42.0</ele><time>2026-05-02T06:22:51.547Z</time></trkpt><trkpt lat="44.1794783" lon="12.0399767"><ele>42.0</ele><time>2026-05-02T06:22:53.547Z</time></trkpt><trkpt lat="44.1793933" lon="12.0399"><ele>42.0</ele><time>2026-05-02T06:22:55.547Z</time></trkpt><trkpt lat="44.1793067" lon="12.0398217"><ele>42.0</ele><time>2026-05-02T06:22:57.547Z</time></trkpt><trkpt lat="44.1792083" lon="12.039745"><ele>42.0</ele><time>2026-05-02T06:22:59.547Z</time></trkpt><trkpt lat="44.1791117" lon="12.0396717"><ele>42.0</ele><time>2026-05-02T06:23:01.547Z</time></trkpt><trkpt lat="44.1790133" lon="12.0395967"><ele>42.2</ele><time>2026-05-02T06:23:03.547Z</time></trkpt><trkpt lat="44.1789217" lon="12.0395317"><ele>42.400000000000006</ele><time>2026-05-02T06:23:05.547Z</time></trkpt><trkpt lat="44.1788283" lon="12.0394567"><ele>42.599999999999994</ele><time>2026-05-02T06:23:07.547Z</time></trkpt><trkpt lat="44.1787333" lon="12.039395"><ele>42.8</ele><time>2026-05-02T06:23:09.547Z</time></trkpt><trkpt lat="44.178625" lon="12.0393417"><ele>43.0</ele><time>2026-05-02T06:23:11.547Z</time></trkpt><trkpt lat="44.1785167" lon="12.0392783"><ele>43.0</ele><time>2026-05-02T06:23:13.547Z</time></trkpt><trkpt lat="44.1784033" lon="12.0392167"><ele>43.0</ele><time>2026-05-02T06:23:15.547Z</time></trkpt><trkpt lat="44.1782883" lon="12.0391517"><ele>43.0</ele><time>2026-05-02T06:23:17.547Z</time></trkpt><trkpt lat="44.1781817" lon="12.0390933"><ele>43.0</ele><time>2026-05-02T06:23:19.547Z</time></trkpt><trkpt lat="44.1780783" lon="12.0390333"><ele>43.0</ele><time>2026-05-02T06:23:21.547Z</time></trkpt><trkpt lat="44.1779667" lon="12.0389783"><ele>43.0</ele><time>2026-05-02T06:23:23.547Z</time></trkpt><trkpt lat="44.17786" lon="12.0389133"><ele>43.0</ele><time>2026-05-02T06:23:25.547Z</time></trkpt><trkpt lat="44.1777567" lon="12.0388533"><ele>43.0</ele><time>2026-05-02T06:23:27.548Z</time></trkpt><trkpt lat="44.1776567" lon="12.0388033"><ele>43.0</ele><time>2026-05-02T06:23:29.547Z</time></trkpt><trkpt lat="44.1775533" lon="12.0387517"><ele>43.0</ele><time>2026-05-02T06:23:31.547Z</time></trkpt><trkpt lat="44.17745" lon="12.0386917"><ele>43.0</ele><time>2026-05-02T06:23:33.547Z</time></trkpt><trkpt lat="44.1773367" lon="12.0386367"><ele>43.0</ele><time>2026-05-02T06:23:35.547Z</time></trkpt><trkpt lat="44.17723" lon="12.0385783"><ele>43.5</ele><time>2026-05-02T06:23:37.547Z</time></trkpt><trkpt lat="44.1771283" lon="12.03851"><ele>44.0</ele><time>2026-05-02T06:23:39.547Z</time></trkpt><trkpt lat="44.1770233" lon="12.0384483"><ele>44.5</ele><time>2026-05-02T06:23:41.547Z</time></trkpt><trkpt lat="44.1769133" lon="12.03839"><ele>45.0</ele><time>2026-05-02T06:23:43.547Z</time></trkpt><trkpt lat="44.176805" lon="12.03833"><ele>45.0</ele><time>2026-05-02T06:23:45.547Z</time></trkpt><trkpt lat="44.1767" lon="12.0382717"><ele>45.0</ele><time>2026-05-02T06:23:47.547Z</time></trkpt><trkpt lat="44.1766" lon="12.0382083"><ele>45.0</ele><time>2026-05-02T06:23:49.547Z</time></trkpt><trkpt lat="44.17649" lon="12.03815"><ele>45.0</ele><time>2026-05-02T06:23:51.547Z</time></trkpt><trkpt lat="44.1763817" lon="12.0380917"><ele>45.2</ele><time>2026-05-02T06:23:53.547Z</time></trkpt><trkpt lat="44.176275" lon="12.038025"><ele>45.4</ele><time>2026-05-02T06:23:55.547Z</time></trkpt><trkpt lat="44.1761683" lon="12.03796"><ele>45.599999999999994</ele><time>2026-05-02T06:23:57.547Z</time></trkpt><trkpt lat="44.176065" lon="12.0378967"><ele>45.8</ele><time>2026-05-02T06:23:59.547Z</time></trkpt><trkpt lat="44.1760067" lon="12.0378633"><ele>46.0</ele><time>2026-05-02T06:24:00.547Z</time></trkpt><trkpt lat="44.1759483" lon="12.03783"><ele>46.0</ele><time>2026-05-02T06:24:01.547Z</time></trkpt><trkpt lat="44.1758383" lon="12.0377583"><ele>46.0</ele><time>2026-05-02T06:24:03.547Z</time></trkpt><trkpt lat="44.1757333" lon="12.0376883"><ele>46.0</ele><time>2026-05-02T06:24:05.547Z</time></trkpt><trkpt lat="44.175635" lon="12.037615"><ele>46.0</ele><time>2026-05-02T06:24:07.547Z</time></trkpt><trkpt lat="44.17553" lon="12.0375417"><ele>45.8</ele><time>2026-05-02T06:24:09.547Z</time></trkpt><trkpt lat="44.1754233" lon="12.0374683"><ele>45.599999999999994</ele><time>2026-05-02T06:24:11.547Z</time></trkpt><trkpt lat="44.175315" lon="12.0373833"><ele>45.4</ele><time>2026-05-02T06:24:13.547Z</time></trkpt><trkpt lat="44.1752133" lon="12.0372983"><ele>45.2</ele><time>2026-05-02T06:24:15.547Z</time></trkpt><trkpt lat="44.1751567" lon="12.0372517"><ele>45.0</ele><time>2026-05-02T06:24:16.547Z</time></trkpt><trkpt lat="44.1751" lon="12.0372083"><ele>45.0</ele><time>2026-05-02T06:24:17.547Z</time></trkpt><trkpt lat="44.1749983" lon="12.0371283"><ele>45.0</ele><time>2026-05-02T06:24:19.547Z</time></trkpt><trkpt lat="44.1749" lon="12.0370383"><ele>45.0</ele><time>2026-05-02T06:24:21.547Z</time></trkpt><trkpt lat="44.1748017" lon="12.0369483"><ele>45.0</ele><time>2026-05-02T06:24:23.547Z</time></trkpt><trkpt lat="44.1747017" lon="12.0368667"><ele>45.2</ele><time>2026-05-02T06:24:25.547Z</time></trkpt><trkpt lat="44.1746" lon="12.0367833"><ele>45.4</ele><time>2026-05-02T06:24:27.547Z</time></trkpt><trkpt lat="44.174545" lon="12.0367367"><ele>45.599999999999994</ele><time>2026-05-02T06:24:28.547Z</time></trkpt><trkpt lat="44.1744483" lon="12.036655"><ele>45.8</ele><time>2026-05-02T06:24:30.547Z</time></trkpt><trkpt lat="44.1743517" lon="12.036575"><ele>46.0</ele><time>2026-05-02T06:24:32.547Z</time></trkpt><trkpt lat="44.17426" lon="12.0364933"><ele>46.0</ele><time>2026-05-02T06:24:34.547Z</time></trkpt><trkpt lat="44.1741617" lon="12.036415"><ele>46.0</ele><time>2026-05-02T06:24:36.547Z</time></trkpt><trkpt lat="44.1740683" lon="12.0363367"><ele>46.0</ele><time>2026-05-02T06:24:38.547Z</time></trkpt><trkpt lat="44.1739733" lon="12.0362617"><ele>46.0</ele><time>2026-05-02T06:24:40.547Z</time></trkpt><trkpt lat="44.1738817" lon="12.0361717"><ele>46.0</ele><time>2026-05-02T06:24:42.547Z</time></trkpt><trkpt lat="44.1737917" lon="12.0360883"><ele>46.199999999999996</ele><time>2026-05-02T06:24:44.547Z</time></trkpt><trkpt lat="44.173695" lon="12.03601"><ele>46.4</ele><time>2026-05-02T06:24:46.547Z</time></trkpt><trkpt lat="44.1736" lon="12.035935"><ele>46.6</ele><time>2026-05-02T06:24:48.547Z</time></trkpt><trkpt lat="44.1735067" lon="12.0358533"><ele>46.8</ele><time>2026-05-02T06:24:50.547Z</time></trkpt><trkpt lat="44.1734267" lon="12.0357633"><ele>47.0</ele><time>2026-05-02T06:24:52.547Z</time></trkpt><trkpt lat="44.1733383" lon="12.0356767"><ele>47.0</ele><time>2026-05-02T06:24:54.547Z</time></trkpt><trkpt lat="44.1732517" lon="12.035585"><ele>47.0</ele><time>2026-05-02T06:24:56.547Z</time></trkpt><trkpt lat="44.1731567" lon="12.0354967"><ele>47.0</ele><time>2026-05-02T06:24:58.548Z</time></trkpt><trkpt lat="44.1730583" lon="12.0353983"><ele>47.0</ele><time>2026-05-02T06:25:00.548Z</time></trkpt><trkpt lat="44.172975" lon="12.03529"><ele>47.0</ele><time>2026-05-02T06:25:02.548Z</time></trkpt><trkpt lat="44.1728967" lon="12.0351817"><ele>47.0</ele><time>2026-05-02T06:25:04.547Z</time></trkpt><trkpt lat="44.17282" lon="12.0350817"><ele>47.0</ele><time>2026-05-02T06:25:06.547Z</time></trkpt><trkpt lat="44.1727367" lon="12.0349517"><ele>47.0</ele><time>2026-05-02T06:25:08.547Z</time></trkpt><trkpt lat="44.1726617" lon="12.0348283"><ele>47.5</ele><time>2026-05-02T06:25:10.547Z</time></trkpt><trkpt lat="44.17259" lon="12.0347"><ele>48.0</ele><time>2026-05-02T06:25:12.547Z</time></trkpt><trkpt lat="44.1725167" lon="12.034565"><ele>48.5</ele><time>2026-05-02T06:25:14.547Z</time></trkpt><trkpt lat="44.1724433" lon="12.0344333"><ele>49.0</ele><time>2026-05-02T06:25:16.547Z</time></trkpt><trkpt lat="44.1723817" lon="12.0342867"><ele>48.99999999999999</ele><time>2026-05-02T06:25:18.547Z</time></trkpt><trkpt lat="44.17235" lon="12.0342083"><ele>49.0</ele><time>2026-05-02T06:25:19.547Z</time></trkpt><trkpt lat="44.172315" lon="12.034135"><ele>49.0</ele><time>2026-05-02T06:25:20.547Z</time></trkpt><trkpt lat="44.1722567" lon="12.0339917"><ele>49.0</ele><time>2026-05-02T06:25:22.548Z</time></trkpt><trkpt lat="44.1722017" lon="12.0338417"><ele>48.99999999999999</ele><time>2026-05-02T06:25:24.547Z</time></trkpt><trkpt lat="44.1721733" lon="12.0337633"><ele>49.0</ele><time>2026-05-02T06:25:25.547Z</time></trkpt><trkpt lat="44.1721267" lon="12.0336117"><ele>49.0</ele><time>2026-05-02T06:25:27.547Z</time></trkpt><trkpt lat="44.1720833" lon="12.03346"><ele>49.0</ele><time>2026-05-02T06:25:29.547Z</time></trkpt><trkpt lat="44.1720383" lon="12.0333033"><ele>49.0</ele><time>2026-05-02T06:25:31.547Z</time></trkpt><trkpt lat="44.1719983" lon="12.03315"><ele>49.0</ele><time>2026-05-02T06:25:33.547Z</time></trkpt><trkpt lat="44.1719583" lon="12.0329883"><ele>49.5</ele><time>2026-05-02T06:25:35.547Z</time></trkpt><trkpt lat="44.1719217" lon="12.032835"><ele>50.0</ele><time>2026-05-02T06:25:37.547Z</time></trkpt><trkpt lat="44.1718933" lon="12.0326817"><ele>50.5</ele><time>2026-05-02T06:25:39.547Z</time></trkpt><trkpt lat="44.171865" lon="12.0325217"><ele>51.0</ele><time>2026-05-02T06:25:41.547Z</time></trkpt><trkpt lat="44.1718433" lon="12.0323717"><ele>51.0</ele><time>2026-05-02T06:25:43.547Z</time></trkpt><trkpt lat="44.1718233" lon="12.0322167"><ele>51.0</ele><time>2026-05-02T06:25:45.547Z</time></trkpt><trkpt lat="44.1718033" lon="12.03208"><ele>51.0</ele><time>2026-05-02T06:25:47.548Z</time></trkpt><trkpt lat="44.1717983" lon="12.0319383"><ele>51.0</ele><time>2026-05-02T06:25:49.547Z</time></trkpt><trkpt lat="44.1718183" lon="12.0318033"><ele>51.0</ele><time>2026-05-02T06:25:51.547Z</time></trkpt><trkpt lat="44.17185" lon="12.031655"><ele>51.0</ele><time>2026-05-02T06:25:53.547Z</time></trkpt><trkpt lat="44.1718583" lon="12.0314883"><ele>51.0</ele><time>2026-05-02T06:25:55.547Z</time></trkpt><trkpt lat="44.1718083" lon="12.0313433"><ele>51.0</ele><time>2026-05-02T06:25:57.547Z</time></trkpt><trkpt lat="44.1717317" lon="12.0312267"><ele>51.0</ele><time>2026-05-02T06:25:59.547Z</time></trkpt><trkpt lat="44.1716583" lon="12.0311"><ele>51.0</ele><time>2026-05-02T06:26:01.547Z</time></trkpt><trkpt lat="44.1716183" lon="12.030945"><ele>51.0</ele><time>2026-05-02T06:26:03.547Z</time></trkpt><trkpt lat="44.171745" lon="12.0307867"><ele>51.0</ele><time>2026-05-02T06:26:05.562Z</time></trkpt><trkpt lat="44.1716283" lon="12.0306883"><ele>51.0</ele><time>2026-05-02T06:26:07.04Z</time></trkpt><trkpt lat="44.17158" lon="12.0306133"><ele>51.199999999999996</ele><time>2026-05-02T06:26:08.041Z</time></trkpt><trkpt lat="44.1715533" lon="12.030495"><ele>51.4</ele><time>2026-05-02T06:26:09.54Z</time></trkpt><trkpt lat="44.17151" lon="12.0303117"><ele>51.6</ele><time>2026-05-02T06:26:11.54Z</time></trkpt><trkpt lat="44.1714833" lon="12.030215"><ele>51.8</ele><time>2026-05-02T06:26:12.54Z</time></trkpt><trkpt lat="44.1714517" lon="12.0300517"><ele>52.0</ele><time>2026-05-02T06:26:14.54Z</time></trkpt><trkpt lat="44.1714417" lon="12.0298967"><ele>52.25</ele><time>2026-05-02T06:26:18.04Z</time></trkpt><trkpt lat="44.1714167" lon="12.029755"><ele>52.5</ele><time>2026-05-02T06:26:19.54Z</time></trkpt><trkpt lat="44.1713817" lon="12.0295833"><ele>52.75</ele><time>2026-05-02T06:26:21.54Z</time></trkpt><trkpt lat="44.1713667" lon="12.029415"><ele>53.0</ele><time>2026-05-02T06:26:22.54Z</time></trkpt><trkpt lat="44.171335" lon="12.0292567"><ele>53.0</ele><time>2026-05-02T06:26:24.54Z</time></trkpt><trkpt lat="44.171325" lon="12.0291617"><ele>53.0</ele><time>2026-05-02T06:26:25.54Z</time></trkpt><trkpt lat="44.1712983" lon="12.0290067"><ele>53.0</ele><time>2026-05-02T06:26:27.54Z</time></trkpt><trkpt lat="44.1712733" lon="12.0288483"><ele>53.0</ele><time>2026-05-02T06:26:29.54Z</time></trkpt><trkpt lat="44.17125" lon="12.0286933"><ele>53.0</ele><time>2026-05-02T06:26:31.54Z</time></trkpt><trkpt lat="44.1712233" lon="12.028535"><ele>53.5</ele><time>2026-05-02T06:26:33.54Z</time></trkpt><trkpt lat="44.1711967" lon="12.028375"><ele>54.0</ele><time>2026-05-02T06:26:35.54Z</time></trkpt><trkpt lat="44.1711667" lon="12.0282117"><ele>54.5</ele><time>2026-05-02T06:26:37.54Z</time></trkpt><trkpt lat="44.17114" lon="12.0280433"><ele>55.0</ele><time>2026-05-02T06:26:39.54Z</time></trkpt><trkpt lat="44.1711067" lon="12.027885"><ele>55.25</ele><time>2026-05-02T06:26:41.54Z</time></trkpt><trkpt lat="44.1710767" lon="12.027715"><ele>55.5</ele><time>2026-05-02T06:26:43.54Z</time></trkpt><trkpt lat="44.17106" lon="12.0275517"><ele>55.75</ele><time>2026-05-02T06:26:45.54Z</time></trkpt><trkpt lat="44.1710267" lon="12.027385"><ele>56.0</ele><time>2026-05-02T06:26:47.54Z</time></trkpt><trkpt lat="44.1709933" lon="12.0272283"><ele>56.0</ele><time>2026-05-02T06:26:49.54Z</time></trkpt><trkpt lat="44.17095" lon="12.02707"><ele>56.0</ele><time>2026-05-02T06:26:51.54Z</time></trkpt><trkpt lat="44.1709117" lon="12.0269183"><ele>56.0</ele><time>2026-05-02T06:26:53.541Z</time></trkpt><trkpt lat="44.17087" lon="12.0267683"><ele>56.0</ele><time>2026-05-02T06:26:55.54Z</time></trkpt><trkpt lat="44.1708283" lon="12.0266283"><ele>56.0</ele><time>2026-05-02T06:26:57.54Z</time></trkpt><trkpt lat="44.170785" lon="12.026495"><ele>55.99999999999999</ele><time>2026-05-02T06:26:59.54Z</time></trkpt><trkpt lat="44.1707383" lon="12.0263583"><ele>55.99999999999999</ele><time>2026-05-02T06:27:01.54Z</time></trkpt><trkpt lat="44.1706883" lon="12.0262267"><ele>56.0</ele><time>2026-05-02T06:27:03.54Z</time></trkpt><trkpt lat="44.1706383" lon="12.026095"><ele>56.0</ele><time>2026-05-02T06:27:05.54Z</time></trkpt><trkpt lat="44.17059" lon="12.0259683"><ele>56.0</ele><time>2026-05-02T06:27:07.541Z</time></trkpt><trkpt lat="44.1705367" lon="12.0258433"><ele>55.99999999999999</ele><time>2026-05-02T06:27:09.54Z</time></trkpt><trkpt lat="44.1704783" lon="12.02572"><ele>55.99999999999999</ele><time>2026-05-02T06:27:11.54Z</time></trkpt><trkpt lat="44.1704167" lon="12.0256"><ele>56.0</ele><time>2026-05-02T06:27:13.541Z</time></trkpt><trkpt lat="44.1703533" lon="12.025485"><ele>56.0</ele><time>2026-05-02T06:27:15.54Z</time></trkpt><trkpt lat="44.1702883" lon="12.02537"><ele>56.00000000000001</ele><time>2026-05-02T06:27:17.54Z</time></trkpt><trkpt lat="44.1702217" lon="12.0252617"><ele>56.0</ele><time>2026-05-02T06:27:19.54Z</time></trkpt><trkpt lat="44.170155" lon="12.02516"><ele>56.0</ele><time>2026-05-02T06:27:21.54Z</time></trkpt><trkpt lat="44.1701183" lon="12.025065"><ele>56.0</ele><time>2026-05-02T06:27:25.039Z</time></trkpt><trkpt lat="44.1700633" lon="12.024985"><ele>56.00000000000001</ele><time>2026-05-02T06:27:26.039Z</time></trkpt><trkpt lat="44.1699983" lon="12.0249083"><ele>56.0</ele><time>2026-05-02T06:27:27.539Z</time></trkpt><trkpt lat="44.1699117" lon="12.0248033"><ele>56.199999999999996</ele><time>2026-05-02T06:27:29.539Z</time></trkpt><trkpt lat="44.1698283" lon="12.024695"><ele>56.39999999999999</ele><time>2026-05-02T06:27:31.539Z</time></trkpt><trkpt lat="44.16976" lon="12.024585"><ele>56.6</ele><time>2026-05-02T06:27:33.539Z</time></trkpt><trkpt lat="44.16971" lon="12.0244617"><ele>56.8</ele><time>2026-05-02T06:27:35.539Z</time></trkpt><trkpt lat="44.1697033" lon="12.0243133"><ele>57.0</ele><time>2026-05-02T06:27:37.539Z</time></trkpt><trkpt lat="44.1697417" lon="12.0241717"><ele>56.8</ele><time>2026-05-02T06:27:39.539Z</time></trkpt><trkpt lat="44.1698183" lon="12.0240533"><ele>56.6</ele><time>2026-05-02T06:27:41.539Z</time></trkpt><trkpt lat="44.1699183" lon="12.023955"><ele>56.39999999999999</ele><time>2026-05-02T06:27:43.539Z</time></trkpt><trkpt lat="44.1699733" lon="12.0239117"><ele>56.199999999999996</ele><time>2026-05-02T06:27:44.539Z</time></trkpt><trkpt lat="44.1700317" lon="12.023875"><ele>56.0</ele><time>2026-05-02T06:27:45.539Z</time></trkpt><trkpt lat="44.1701483" lon="12.0238183"><ele>55.857142857142854</ele><time>2026-05-02T06:27:47.539Z</time></trkpt><trkpt lat="44.1702067" lon="12.023785"><ele>55.714285714285715</ele><time>2026-05-02T06:27:48.539Z</time></trkpt><trkpt lat="44.1702633" lon="12.023745"><ele>55.57142857142857</ele><time>2026-05-02T06:27:49.539Z</time></trkpt><trkpt lat="44.17032" lon="12.023705"><ele>55.42857142857143</ele><time>2026-05-02T06:27:50.539Z</time></trkpt><trkpt lat="44.1703783" lon="12.02367"><ele>55.285714285714285</ele><time>2026-05-02T06:27:51.539Z</time></trkpt><trkpt lat="44.1704383" lon="12.0236267"><ele>55.14285714285714</ele><time>2026-05-02T06:27:52.539Z</time></trkpt><trkpt lat="44.1704933" lon="12.0235817"><ele>55.0</ele><time>2026-05-02T06:27:53.539Z</time></trkpt><trkpt lat="44.1705517" lon="12.0235383"><ele>54.99999999999999</ele><time>2026-05-02T06:27:54.539Z</time></trkpt><trkpt lat="44.1706083" lon="12.023495"><ele>55.0</ele><time>2026-05-02T06:27:55.539Z</time></trkpt><trkpt lat="44.1706667" lon="12.02345"><ele>55.0</ele><time>2026-05-02T06:27:56.539Z</time></trkpt><trkpt lat="44.1707267" lon="12.0234033"><ele>55.0</ele><time>2026-05-02T06:27:57.539Z</time></trkpt><trkpt lat="44.1707883" lon="12.0233633"><ele>55.0</ele><time>2026-05-02T06:27:58.54Z</time></trkpt><trkpt lat="44.1708483" lon="12.02332"><ele>54.99999999999999</ele><time>2026-05-02T06:27:59.539Z</time></trkpt><trkpt lat="44.1709067" lon="12.0232733"><ele>55.0</ele><time>2026-05-02T06:28:00.539Z</time></trkpt><trkpt lat="44.1709617" lon="12.02323"><ele>54.71428571428571</ele><time>2026-05-02T06:28:01.539Z</time></trkpt><trkpt lat="44.17102" lon="12.0231833"><ele>54.42857142857143</ele><time>2026-05-02T06:28:02.539Z</time></trkpt><trkpt lat="44.1710817" lon="12.0231367"><ele>54.14285714285714</ele><time>2026-05-02T06:28:03.539Z</time></trkpt><trkpt lat="44.17114" lon="12.0230933"><ele>53.857142857142854</ele><time>2026-05-02T06:28:04.539Z</time></trkpt><trkpt lat="44.1712017" lon="12.0230483"><ele>53.57142857142857</ele><time>2026-05-02T06:28:05.539Z</time></trkpt><trkpt lat="44.1712583" lon="12.0230017"><ele>53.285714285714285</ele><time>2026-05-02T06:28:06.539Z</time></trkpt><trkpt lat="44.1713117" lon="12.0229533"><ele>53.0</ele><time>2026-05-02T06:28:07.539Z</time></trkpt><trkpt lat="44.1713667" lon="12.02291"><ele>53.00000000000001</ele><time>2026-05-02T06:28:08.539Z</time></trkpt><trkpt lat="44.1714767" lon="12.0228283"><ele>53.0</ele><time>2026-05-02T06:28:10.539Z</time></trkpt><trkpt lat="44.1715383" lon="12.0227783"><ele>53.0</ele><time>2026-05-02T06:28:11.539Z</time></trkpt><trkpt lat="44.1715933" lon="12.022735"><ele>53.0</ele><time>2026-05-02T06:28:12.539Z</time></trkpt><trkpt lat="44.17165" lon="12.02269"><ele>53.00000000000001</ele><time>2026-05-02T06:28:13.539Z</time></trkpt><trkpt lat="44.1717067" lon="12.0226483"><ele>53.0</ele><time>2026-05-02T06:28:14.539Z</time></trkpt><trkpt lat="44.1717633" lon="12.0226083"><ele>53.00000000000001</ele><time>2026-05-02T06:28:15.539Z</time></trkpt><trkpt lat="44.17182" lon="12.0225667"><ele>53.0</ele><time>2026-05-02T06:28:16.539Z</time></trkpt><trkpt lat="44.1718783" lon="12.0225283"><ele>53.0</ele><time>2026-05-02T06:28:17.539Z</time></trkpt><trkpt lat="44.1719367" lon="12.022485"><ele>53.0</ele><time>2026-05-02T06:28:18.539Z</time></trkpt><trkpt lat="44.1719917" lon="12.0224383"><ele>53.00000000000001</ele><time>2026-05-02T06:28:19.539Z</time></trkpt><trkpt lat="44.1720983" lon="12.0223433"><ele>53.0</ele><time>2026-05-02T06:28:21.539Z</time></trkpt><trkpt lat="44.1721533" lon="12.0222967"><ele>53.0</ele><time>2026-05-02T06:28:22.539Z</time></trkpt><trkpt lat="44.1722133" lon="12.0222417"><ele>53.0</ele><time>2026-05-02T06:28:23.539Z</time></trkpt><trkpt lat="44.172265" lon="12.022175"><ele>53.0</ele><time>2026-05-02T06:28:24.539Z</time></trkpt><trkpt lat="44.1723133" lon="12.0221083"><ele>53.0</ele><time>2026-05-02T06:28:25.539Z</time></trkpt><trkpt lat="44.1723567" lon="12.0220367"><ele>53.0</ele><time>2026-05-02T06:28:26.54Z</time></trkpt><trkpt lat="44.1723983" lon="12.0219633"><ele>53.0</ele><time>2026-05-02T06:28:27.539Z</time></trkpt><trkpt lat="44.1724333" lon="12.0218883"><ele>53.0</ele><time>2026-05-02T06:28:28.539Z</time></trkpt><trkpt lat="44.17247" lon="12.0218117"><ele>53.00000000000001</ele><time>2026-05-02T06:28:29.539Z</time></trkpt><trkpt lat="44.172495" lon="12.021725"><ele>53.0</ele><time>2026-05-02T06:28:30.539Z</time></trkpt><trkpt lat="44.172525" lon="12.0216383"><ele>53.0</ele><time>2026-05-02T06:28:31.539Z</time></trkpt><trkpt lat="44.172565" lon="12.0214767"><ele>53.0</ele><time>2026-05-02T06:28:33.539Z</time></trkpt><trkpt lat="44.1725933" lon="12.0213133"><ele>53.00000000000001</ele><time>2026-05-02T06:28:35.539Z</time></trkpt><trkpt lat="44.1726167" lon="12.0212283"><ele>53.0</ele><time>2026-05-02T06:28:36.539Z</time></trkpt><trkpt lat="44.17269" lon="12.0211033"><ele>52.8</ele><time>2026-05-02T06:28:38.539Z</time></trkpt><trkpt lat="44.1727967" lon="12.0210167"><ele>52.599999999999994</ele><time>2026-05-02T06:28:40.539Z</time></trkpt><trkpt lat="44.172885" lon="12.020905"><ele>52.400000000000006</ele><time>2026-05-02T06:28:42.54Z</time></trkpt><trkpt lat="44.17291" lon="12.0208183"><ele>52.2</ele><time>2026-05-02T06:28:43.539Z</time></trkpt><trkpt lat="44.17292" lon="12.0207267"><ele>52.0</ele><time>2026-05-02T06:28:44.539Z</time></trkpt><trkpt lat="44.1729033" lon="12.02056"><ele>52.0</ele><time>2026-05-02T06:28:46.539Z</time></trkpt><trkpt lat="44.1728417" lon="12.020425"><ele>52.0</ele><time>2026-05-02T06:28:48.539Z</time></trkpt><trkpt lat="44.1727783" lon="12.02029"><ele>52.0</ele><time>2026-05-02T06:28:50.539Z</time></trkpt><trkpt lat="44.172735" lon="12.02013"><ele>52.0</ele><time>2026-05-02T06:28:52.539Z</time></trkpt><trkpt lat="44.1726967" lon="12.0199683"><ele>52.0</ele><time>2026-05-02T06:28:54.54Z</time></trkpt><trkpt lat="44.1726767" lon="12.019885"><ele>52.0</ele><time>2026-05-02T06:28:55.539Z</time></trkpt><trkpt lat="44.172615" lon="12.01974"><ele>52.0</ele><time>2026-05-02T06:28:57.539Z</time></trkpt><trkpt lat="44.1725783" lon="12.019665"><ele>52.0</ele><time>2026-05-02T06:28:58.539Z</time></trkpt><trkpt lat="44.1724933" lon="12.0195383"><ele>52.0</ele><time>2026-05-02T06:29:00.539Z</time></trkpt><trkpt lat="44.1724083" lon="12.0194117"><ele>51.99999999999999</ele><time>2026-05-02T06:29:02.539Z</time></trkpt><trkpt lat="44.1723617" lon="12.0193517"><ele>52.0</ele><time>2026-05-02T06:29:03.539Z</time></trkpt><trkpt lat="44.1722783" lon="12.0192267"><ele>52.0</ele><time>2026-05-02T06:29:05.539Z</time></trkpt><trkpt lat="44.1722333" lon="12.0191583"><ele>52.0</ele><time>2026-05-02T06:29:06.539Z</time></trkpt><trkpt lat="44.1721883" lon="12.0190917"><ele>51.99999999999999</ele><time>2026-05-02T06:29:07.539Z</time></trkpt><trkpt lat="44.1721017" lon="12.0189683"><ele>52.0</ele><time>2026-05-02T06:29:09.539Z</time></trkpt><trkpt lat="44.1720117" lon="12.0188567"><ele>51.99999999999999</ele><time>2026-05-02T06:29:11.54Z</time></trkpt><trkpt lat="44.1719267" lon="12.0187283"><ele>52.0</ele><time>2026-05-02T06:29:13.539Z</time></trkpt><trkpt lat="44.17188" lon="12.018665"><ele>52.0</ele><time>2026-05-02T06:29:14.539Z</time></trkpt><trkpt lat="44.1718333" lon="12.018605"><ele>52.0</ele><time>2026-05-02T06:29:15.539Z</time></trkpt><trkpt lat="44.1717883" lon="12.01854"><ele>51.99999999999999</ele><time>2026-05-02T06:29:16.539Z</time></trkpt><trkpt lat="44.1716967" lon="12.0184183"><ele>52.0</ele><time>2026-05-02T06:29:18.539Z</time></trkpt><trkpt lat="44.17161" lon="12.0182917"><ele>52.2</ele><time>2026-05-02T06:29:20.539Z</time></trkpt><trkpt lat="44.1715217" lon="12.0181667"><ele>52.400000000000006</ele><time>2026-05-02T06:29:22.539Z</time></trkpt><trkpt lat="44.1714767" lon="12.0181017"><ele>52.599999999999994</ele><time>2026-05-02T06:29:23.539Z</time></trkpt><trkpt lat="44.17143" lon="12.01804"><ele>52.8</ele><time>2026-05-02T06:29:24.539Z</time></trkpt><trkpt lat="44.1713483" lon="12.0179283"><ele>53.0</ele><time>2026-05-02T06:29:26.539Z</time></trkpt><trkpt lat="44.17126" lon="12.017805"><ele>53.0</ele><time>2026-05-02T06:29:28.539Z</time></trkpt><trkpt lat="44.171215" lon="12.0177433"><ele>53.0</ele><time>2026-05-02T06:29:29.539Z</time></trkpt><trkpt lat="44.1711333" lon="12.017625"><ele>53.0</ele><time>2026-05-02T06:29:31.539Z</time></trkpt><trkpt lat="44.1710467" lon="12.0175083"><ele>53.0</ele><time>2026-05-02T06:29:33.539Z</time></trkpt><trkpt lat="44.17094" lon="12.01741"><ele>53.0</ele><time>2026-05-02T06:29:36.041Z</time></trkpt><trkpt lat="44.1708967" lon="12.0173433"><ele>52.833333333333336</ele><time>2026-05-02T06:29:37.042Z</time></trkpt><trkpt lat="44.170835" lon="12.0172533"><ele>52.66666666666667</ele><time>2026-05-02T06:29:38.541Z</time></trkpt><trkpt lat="44.1707583" lon="12.017125"><ele>52.5</ele><time>2026-05-02T06:29:40.541Z</time></trkpt><trkpt lat="44.1707017" lon="12.017065"><ele>52.33333333333333</ele><time>2026-05-02T06:29:41.541Z</time></trkpt><trkpt lat="44.1706567" lon="12.0170033"><ele>52.166666666666664</ele><time>2026-05-02T06:29:42.541Z</time></trkpt><trkpt lat="44.170575" lon="12.0170033"><ele>52.0</ele><time>2026-05-02T06:29:44.571Z</time></trkpt><trkpt lat="44.170525" lon="12.01687"><ele>51.99999999999999</ele><time>2026-05-02T06:29:46.043Z</time></trkpt><trkpt lat="44.1704817" lon="12.016795"><ele>52.0</ele><time>2026-05-02T06:29:47.043Z</time></trkpt><trkpt lat="44.1704183" lon="12.0166983"><ele>52.0</ele><time>2026-05-02T06:29:48.543Z</time></trkpt><trkpt lat="44.1703733" lon="12.0166333"><ele>52.0</ele><time>2026-05-02T06:29:49.543Z</time></trkpt><trkpt lat="44.170325" lon="12.016565"><ele>51.99999999999999</ele><time>2026-05-02T06:29:50.543Z</time></trkpt><trkpt lat="44.1702783" lon="12.0165017"><ele>52.0</ele><time>2026-05-02T06:29:51.543Z</time></trkpt><trkpt lat="44.17019" lon="12.0163833"><ele>52.0</ele><time>2026-05-02T06:29:53.543Z</time></trkpt><trkpt lat="44.170145" lon="12.01632"><ele>52.0</ele><time>2026-05-02T06:29:54.543Z</time></trkpt><trkpt lat="44.170085" lon="12.016245"><ele>52.0</ele><time>2026-05-02T06:29:55.543Z</time></trkpt><trkpt lat="44.1700017" lon="12.016145"><ele>52.0</ele><time>2026-05-02T06:29:57.543Z</time></trkpt><trkpt lat="44.169915" lon="12.0160383"><ele>52.0</ele><time>2026-05-02T06:29:59.544Z</time></trkpt><trkpt lat="44.1698333" lon="12.0159133"><ele>52.25</ele><time>2026-05-02T06:30:01.543Z</time></trkpt><trkpt lat="44.1697533" lon="12.01579"><ele>52.5</ele><time>2026-05-02T06:30:03.543Z</time></trkpt><trkpt lat="44.16967" lon="12.0156717"><ele>52.75</ele><time>2026-05-02T06:30:05.544Z</time></trkpt><trkpt lat="44.1695867" lon="12.0155617"><ele>53.0</ele><time>2026-05-02T06:30:07.543Z</time></trkpt><trkpt lat="44.169505" lon="12.0154467"><ele>53.0</ele><time>2026-05-02T06:30:09.543Z</time></trkpt><trkpt lat="44.1694167" lon="12.015325"><ele>53.0</ele><time>2026-05-02T06:30:11.543Z</time></trkpt><trkpt lat="44.1693283" lon="12.0152083"><ele>53.0</ele><time>2026-05-02T06:30:13.543Z</time></trkpt><trkpt lat="44.1692483" lon="12.0150817"><ele>53.0</ele><time>2026-05-02T06:30:15.543Z</time></trkpt><trkpt lat="44.1691667" lon="12.0149583"><ele>52.25</ele><time>2026-05-02T06:30:17.543Z</time></trkpt><trkpt lat="44.1690833" lon="12.0148317"><ele>51.5</ele><time>2026-05-02T06:30:19.543Z</time></trkpt><trkpt lat="44.1690033" lon="12.014705"><ele>50.75</ele><time>2026-05-02T06:30:21.543Z</time></trkpt><trkpt lat="44.168925" lon="12.0145783"><ele>50.0</ele><time>2026-05-02T06:30:23.543Z</time></trkpt><trkpt lat="44.1688383" lon="12.0144567"><ele>50.66666666666667</ele><time>2026-05-02T06:30:25.543Z</time></trkpt><trkpt lat="44.1687567" lon="12.014325"><ele>51.333333333333336</ele><time>2026-05-02T06:30:27.543Z</time></trkpt><trkpt lat="44.168715" lon="12.0142583"><ele>52.0</ele><time>2026-05-02T06:30:28.543Z</time></trkpt><trkpt lat="44.1686733" lon="12.01419"><ele>52.66666666666667</ele><time>2026-05-02T06:30:29.543Z</time></trkpt><trkpt lat="44.1685933" lon="12.0140583"><ele>53.333333333333336</ele><time>2026-05-02T06:30:31.543Z</time></trkpt><trkpt lat="44.1685533" lon="12.01399"><ele>54.0</ele><time>2026-05-02T06:30:32.543Z</time></trkpt><trkpt lat="44.168475" lon="12.0138567"><ele>54.0</ele><time>2026-05-02T06:30:34.543Z</time></trkpt><trkpt lat="44.1683983" lon="12.013725"><ele>54.0</ele><time>2026-05-02T06:30:36.543Z</time></trkpt><trkpt lat="44.1683217" lon="12.0135917"><ele>54.0</ele><time>2026-05-02T06:30:38.543Z</time></trkpt><trkpt lat="44.1682433" lon="12.013465"><ele>54.0</ele><time>2026-05-02T06:30:40.543Z</time></trkpt><trkpt lat="44.1681617" lon="12.0133433"><ele>54.166666666666664</ele><time>2026-05-02T06:30:42.543Z</time></trkpt><trkpt lat="44.1680817" lon="12.0132117"><ele>54.33333333333333</ele><time>2026-05-02T06:30:44.543Z</time></trkpt><trkpt lat="44.1680467" lon="12.0131383"><ele>54.5</ele><time>2026-05-02T06:30:45.543Z</time></trkpt><trkpt lat="44.1679683" lon="12.013005"><ele>54.666666666666664</ele><time>2026-05-02T06:30:47.543Z</time></trkpt><trkpt lat="44.1679233" lon="12.0129433"><ele>54.83333333333333</ele><time>2026-05-02T06:30:48.543Z</time></trkpt><trkpt lat="44.1678783" lon="12.01288"><ele>55.0</ele><time>2026-05-02T06:30:49.544Z</time></trkpt><trkpt lat="44.1677867" lon="12.0127583"><ele>55.0</ele><time>2026-05-02T06:30:51.543Z</time></trkpt><trkpt lat="44.1676967" lon="12.0126383"><ele>55.0</ele><time>2026-05-02T06:30:53.543Z</time></trkpt><trkpt lat="44.167605" lon="12.0125233"><ele>55.0</ele><time>2026-05-02T06:30:55.543Z</time></trkpt><trkpt lat="44.167555" lon="12.012465"><ele>55.0</ele><time>2026-05-02T06:30:56.543Z</time></trkpt><trkpt lat="44.167505" lon="12.012405"><ele>55.0</ele><time>2026-05-02T06:30:57.543Z</time></trkpt><trkpt lat="44.16741" lon="12.0122917"><ele>55.0</ele><time>2026-05-02T06:30:59.543Z</time></trkpt><trkpt lat="44.167315" lon="12.0121917"><ele>55.0</ele><time>2026-05-02T06:31:01.543Z</time></trkpt><trkpt lat="44.1672233" lon="12.0120817"><ele>55.0</ele><time>2026-05-02T06:31:03.543Z</time></trkpt><trkpt lat="44.167125" lon="12.011985"><ele>55.0</ele><time>2026-05-02T06:31:05.543Z</time></trkpt><trkpt lat="44.1670283" lon="12.0118967"><ele>55.0</ele><time>2026-05-02T06:31:07.543Z</time></trkpt><trkpt lat="44.1669267" lon="12.011805"><ele>55.0</ele><time>2026-05-02T06:31:09.543Z</time></trkpt><trkpt lat="44.166875" lon="12.0117483"><ele>55.0</ele><time>2026-05-02T06:31:10.543Z</time></trkpt><trkpt lat="44.1667717" lon="12.0116617"><ele>55.0</ele><time>2026-05-02T06:31:12.543Z</time></trkpt><trkpt lat="44.16667" lon="12.011575"><ele>55.0</ele><time>2026-05-02T06:31:14.543Z</time></trkpt><trkpt lat="44.1665633" lon="12.0114917"><ele>54.75</ele><time>2026-05-02T06:31:16.543Z</time></trkpt><trkpt lat="44.1664583" lon="12.0114133"><ele>54.5</ele><time>2026-05-02T06:31:18.543Z</time></trkpt><trkpt lat="44.166355" lon="12.011335"><ele>54.25</ele><time>2026-05-02T06:31:20.543Z</time></trkpt><trkpt lat="44.1662567" lon="12.011255"><ele>54.0</ele><time>2026-05-02T06:31:22.543Z</time></trkpt><trkpt lat="44.1661633" lon="12.0111717"><ele>54.0</ele><time>2026-05-02T06:31:24.543Z</time></trkpt><trkpt lat="44.1660583" lon="12.0110917"><ele>54.00000000000001</ele><time>2026-05-02T06:31:26.543Z</time></trkpt><trkpt lat="44.165955" lon="12.0110133"><ele>54.00000000000001</ele><time>2026-05-02T06:31:28.543Z</time></trkpt><trkpt lat="44.1658967" lon="12.0109783"><ele>54.0</ele><time>2026-05-02T06:31:29.543Z</time></trkpt><trkpt lat="44.1657833" lon="12.0108933"><ele>54.0</ele><time>2026-05-02T06:31:31.543Z</time></trkpt><trkpt lat="44.1657267" lon="12.0108467"><ele>54.6</ele><time>2026-05-02T06:31:32.543Z</time></trkpt><trkpt lat="44.1656667" lon="12.0108083"><ele>55.2</ele><time>2026-05-02T06:31:33.543Z</time></trkpt><trkpt lat="44.16556" lon="12.0107267"><ele>55.800000000000004</ele><time>2026-05-02T06:31:35.543Z</time></trkpt><trkpt lat="44.16545" lon="12.0106567"><ele>56.400000000000006</ele><time>2026-05-02T06:31:37.543Z</time></trkpt><trkpt lat="44.165345" lon="12.0105867"><ele>57.0</ele><time>2026-05-02T06:31:39.543Z</time></trkpt><trkpt lat="44.16529" lon="12.01054"><ele>57.0</ele><time>2026-05-02T06:31:40.544Z</time></trkpt><trkpt lat="44.165195" lon="12.0104633"><ele>57.0</ele><time>2026-05-02T06:31:42.543Z</time></trkpt><trkpt lat="44.16509" lon="12.01039"><ele>57.0</ele><time>2026-05-02T06:31:44.543Z</time></trkpt><trkpt lat="44.164985" lon="12.0103267"><ele>57.0</ele><time>2026-05-02T06:31:46.543Z</time></trkpt><trkpt lat="44.1648767" lon="12.0102467"><ele>56.0</ele><time>2026-05-02T06:31:48.543Z</time></trkpt><trkpt lat="44.1647783" lon="12.0101667"><ele>55.0</ele><time>2026-05-02T06:31:50.543Z</time></trkpt><trkpt lat="44.1647233" lon="12.0101217"><ele>54.0</ele><time>2026-05-02T06:31:51.543Z</time></trkpt><trkpt lat="44.1646183" lon="12.010045"><ele>53.0</ele><time>2026-05-02T06:31:53.543Z</time></trkpt><trkpt lat="44.164515" lon="12.0099617"><ele>52.0</ele><time>2026-05-02T06:31:55.543Z</time></trkpt><trkpt lat="44.16441" lon="12.009885"><ele>51.99999999999999</ele><time>2026-05-02T06:31:57.543Z</time></trkpt><trkpt lat="44.1643083" lon="12.00981"><ele>52.0</ele><time>2026-05-02T06:31:59.543Z</time></trkpt><trkpt lat="44.1642533" lon="12.009765"><ele>52.0</ele><time>2026-05-02T06:32:00.543Z</time></trkpt><trkpt lat="44.16414" lon="12.00968"><ele>52.0</ele><time>2026-05-02T06:32:02.543Z</time></trkpt><trkpt lat="44.1640783" lon="12.0096333"><ele>51.99999999999999</ele><time>2026-05-02T06:32:03.543Z</time></trkpt><trkpt lat="44.16402" lon="12.0095883"><ele>52.0</ele><time>2026-05-02T06:32:04.543Z</time></trkpt><trkpt lat="44.1639633" lon="12.009545"><ele>52.0</ele><time>2026-05-02T06:32:05.543Z</time></trkpt><trkpt lat="44.1639067" lon="12.009505"><ele>52.0</ele><time>2026-05-02T06:32:06.543Z</time></trkpt><trkpt lat="44.16385" lon="12.0094617"><ele>52.0</ele><time>2026-05-02T06:32:07.543Z</time></trkpt><trkpt lat="44.163745" lon="12.0093767"><ele>52.0</ele><time>2026-05-02T06:32:09.543Z</time></trkpt><trkpt lat="44.1636383" lon="12.0092933"><ele>52.0</ele><time>2026-05-02T06:32:11.543Z</time></trkpt><trkpt lat="44.163535" lon="12.0092133"><ele>52.6</ele><time>2026-05-02T06:32:13.544Z</time></trkpt><trkpt lat="44.16343" lon="12.0091333"><ele>53.2</ele><time>2026-05-02T06:32:15.543Z</time></trkpt><trkpt lat="44.1633283" lon="12.00906"><ele>53.8</ele><time>2026-05-02T06:32:17.543Z</time></trkpt><trkpt lat="44.163215" lon="12.00898"><ele>54.4</ele><time>2026-05-02T06:32:19.543Z</time></trkpt><trkpt lat="44.1631567" lon="12.008935"><ele>55.0</ele><time>2026-05-02T06:32:20.543Z</time></trkpt><trkpt lat="44.163095" lon="12.0088983"><ele>55.0</ele><time>2026-05-02T06:32:21.543Z</time></trkpt><trkpt lat="44.1630333" lon="12.00886"><ele>55.0</ele><time>2026-05-02T06:32:22.543Z</time></trkpt><trkpt lat="44.1629283" lon="12.00878"><ele>55.0</ele><time>2026-05-02T06:32:24.543Z</time></trkpt><trkpt lat="44.16282" lon="12.008705"><ele>55.0</ele><time>2026-05-02T06:32:26.543Z</time></trkpt><trkpt lat="44.162725" lon="12.0086183"><ele>55.0</ele><time>2026-05-02T06:32:28.543Z</time></trkpt><trkpt lat="44.162625" lon="12.008545"><ele>55.0</ele><time>2026-05-02T06:32:30.543Z</time></trkpt><trkpt lat="44.1625683" lon="12.0085067"><ele>55.0</ele><time>2026-05-02T06:32:31.543Z</time></trkpt><trkpt lat="44.16247" lon="12.0084333"><ele>55.0</ele><time>2026-05-02T06:32:33.544Z</time></trkpt><trkpt lat="44.1623717" lon="12.008355"><ele>55.0</ele><time>2026-05-02T06:32:35.543Z</time></trkpt><trkpt lat="44.16228" lon="12.0082833"><ele>55.0</ele><time>2026-05-02T06:32:37.543Z</time></trkpt><trkpt lat="44.162185" lon="12.0082133"><ele>55.4</ele><time>2026-05-02T06:32:39.543Z</time></trkpt><trkpt lat="44.1620867" lon="12.0081417"><ele>55.8</ele><time>2026-05-02T06:32:41.543Z</time></trkpt><trkpt lat="44.16199" lon="12.008075"><ele>56.2</ele><time>2026-05-02T06:32:43.543Z</time></trkpt><trkpt lat="44.1619033" lon="12.0080117"><ele>56.6</ele><time>2026-05-02T06:32:45.543Z</time></trkpt><trkpt lat="44.161815" lon="12.0079433"><ele>57.0</ele><time>2026-05-02T06:32:47.543Z</time></trkpt><trkpt lat="44.16172" lon="12.0078683"><ele>57.0</ele><time>2026-05-02T06:32:49.543Z</time></trkpt><trkpt lat="44.1616083" lon="12.0077883"><ele>57.0</ele><time>2026-05-02T06:32:51.543Z</time></trkpt><trkpt lat="44.1615483" lon="12.00775"><ele>57.0</ele><time>2026-05-02T06:32:52.543Z</time></trkpt><trkpt lat="44.1614567" lon="12.00768"><ele>57.0</ele><time>2026-05-02T06:32:54.543Z</time></trkpt><trkpt lat="44.1613733" lon="12.0076067"><ele>57.0</ele><time>2026-05-02T06:32:56.543Z</time></trkpt><trkpt lat="44.16129" lon="12.0075483"><ele>58.0</ele><time>2026-05-02T06:32:58.543Z</time></trkpt><trkpt lat="44.1612183" lon="12.0075"><ele>59.0</ele><time>2026-05-02T06:33:00.543Z</time></trkpt><trkpt lat="44.1611383" lon="12.0074383"><ele>60.0</ele><time>2026-05-02T06:33:02.543Z</time></trkpt><trkpt lat="44.1610483" lon="12.0073733"><ele>61.0</ele><time>2026-05-02T06:33:04.543Z</time></trkpt><trkpt lat="44.1609583" lon="12.0073083"><ele>62.0</ele><time>2026-05-02T06:33:06.543Z</time></trkpt><trkpt lat="44.1608683" lon="12.0072467"><ele>62.2</ele><time>2026-05-02T06:33:08.543Z</time></trkpt><trkpt lat="44.1607783" lon="12.00717"><ele>62.400000000000006</ele><time>2026-05-02T06:33:10.543Z</time></trkpt><trkpt lat="44.1606983" lon="12.0070883"><ele>62.599999999999994</ele><time>2026-05-02T06:33:12.543Z</time></trkpt><trkpt lat="44.1606233" lon="12.0070033"><ele>62.8</ele><time>2026-05-02T06:33:14.543Z</time></trkpt><trkpt lat="44.1605533" lon="12.0069117"><ele>63.0</ele><time>2026-05-02T06:33:16.543Z</time></trkpt><trkpt lat="44.1604867" lon="12.0068183"><ele>63.2</ele><time>2026-05-02T06:33:18.543Z</time></trkpt><trkpt lat="44.1604317" lon="12.00673"><ele>63.4</ele><time>2026-05-02T06:33:20.543Z</time></trkpt><trkpt lat="44.1603683" lon="12.0066333"><ele>63.60000000000001</ele><time>2026-05-02T06:33:22.543Z</time></trkpt><trkpt lat="44.16031" lon="12.00653"><ele>63.800000000000004</ele><time>2026-05-02T06:33:24.543Z</time></trkpt><trkpt lat="44.1602517" lon="12.006435"><ele>64.0</ele><time>2026-05-02T06:33:26.543Z</time></trkpt><trkpt lat="44.1601933" lon="12.0063367"><ele>64.5</ele><time>2026-05-02T06:33:28.543Z</time></trkpt><trkpt lat="44.1601317" lon="12.0062383"><ele>65.0</ele><time>2026-05-02T06:33:30.543Z</time></trkpt><trkpt lat="44.16008" lon="12.0061383"><ele>65.5</ele><time>2026-05-02T06:33:32.543Z</time></trkpt><trkpt lat="44.1600167" lon="12.0060433"><ele>66.0</ele><time>2026-05-02T06:33:34.543Z</time></trkpt><trkpt lat="44.1599717" lon="12.0059517"><ele>66.5</ele><time>2026-05-02T06:33:36.543Z</time></trkpt><trkpt lat="44.1599317" lon="12.005865"><ele>67.0</ele><time>2026-05-02T06:33:38.543Z</time></trkpt><trkpt lat="44.1599717" lon="12.005785"><ele>67.33333333333333</ele><time>2026-05-02T06:33:41.543Z</time></trkpt><trkpt lat="44.1600317" lon="12.005735"><ele>67.66666666666666</ele><time>2026-05-02T06:33:43.543Z</time></trkpt><trkpt lat="44.1601" lon="12.0056633"><ele>68.0</ele><time>2026-05-02T06:33:46.543Z</time></trkpt><trkpt lat="44.1601567" lon="12.0055983"><ele>68.33333333333333</ele><time>2026-05-02T06:33:49.543Z</time></trkpt><trkpt lat="44.160225" lon="12.0055283"><ele>68.66666666666667</ele><time>2026-05-02T06:33:52.543Z</time></trkpt><trkpt lat="44.1602833" lon="12.0054633"><ele>69.0</ele><time>2026-05-02T06:33:54.543Z</time></trkpt><trkpt lat="44.160335" lon="12.0053917"><ele>69.0</ele><time>2026-05-02T06:33:56.543Z</time></trkpt><trkpt lat="44.160385" lon="12.005305"><ele>69.0</ele><time>2026-05-02T06:33:58.543Z</time></trkpt><trkpt lat="44.1604367" lon="12.0052183"><ele>69.0</ele><time>2026-05-02T06:34:00.543Z</time></trkpt><trkpt lat="44.1604983" lon="12.0051417"><ele>69.0</ele><time>2026-05-02T06:34:02.543Z</time></trkpt><trkpt lat="44.16055" lon="12.0050683"><ele>69.0</ele><time>2026-05-02T06:34:04.543Z</time></trkpt><trkpt lat="44.1605983" lon="12.005005"><ele>69.0</ele><time>2026-05-02T06:34:06.543Z</time></trkpt><trkpt lat="44.1606567" lon="12.00494"><ele>68.60000000000001</ele><time>2026-05-02T06:34:08.543Z</time></trkpt><trkpt lat="44.16073" lon="12.004845"><ele>68.2</ele><time>2026-05-02T06:34:10.543Z</time></trkpt><trkpt lat="44.1607983" lon="12.004745"><ele>67.80000000000001</ele><time>2026-05-02T06:34:12.543Z</time></trkpt><trkpt lat="44.1608567" lon="12.00463"><ele>67.4</ele><time>2026-05-02T06:34:14.543Z</time></trkpt><trkpt lat="44.160885" lon="12.004505"><ele>67.0</ele><time>2026-05-02T06:34:16.543Z</time></trkpt><trkpt lat="44.1608933" lon="12.0043667"><ele>67.0</ele><time>2026-05-02T06:34:18.543Z</time></trkpt><trkpt lat="44.1608717" lon="12.00425"><ele>67.0</ele><time>2026-05-02T06:34:20.543Z</time></trkpt><trkpt lat="44.1608267" lon="12.0041533"><ele>67.0</ele><time>2026-05-02T06:34:22.543Z</time></trkpt><trkpt lat="44.16079" lon="12.00405"><ele>67.0</ele><time>2026-05-02T06:34:24.543Z</time></trkpt><trkpt lat="44.1607933" lon="12.003935"><ele>67.0</ele><time>2026-05-02T06:34:26.543Z</time></trkpt><trkpt lat="44.1608333" lon="12.0038267"><ele>67.0</ele><time>2026-05-02T06:34:28.543Z</time></trkpt><trkpt lat="44.1608883" lon="12.0037217"><ele>67.5</ele><time>2026-05-02T06:34:30.543Z</time></trkpt><trkpt lat="44.1609433" lon="12.003625"><ele>68.0</ele><time>2026-05-02T06:34:32.543Z</time></trkpt><trkpt lat="44.1609983" lon="12.0035083"><ele>68.5</ele><time>2026-05-02T06:34:34.544Z</time></trkpt><trkpt lat="44.1610467" lon="12.003405"><ele>69.0</ele><time>2026-05-02T06:34:36.543Z</time></trkpt><trkpt lat="44.1610967" lon="12.0033067"><ele>69.5</ele><time>2026-05-02T06:34:38.543Z</time></trkpt><trkpt lat="44.1611433" lon="12.0032283"><ele>70.0</ele><time>2026-05-02T06:34:40.543Z</time></trkpt><trkpt lat="44.1611883" lon="12.0031483"><ele>70.28571428571429</ele><time>2026-05-02T06:34:42.543Z</time></trkpt><trkpt lat="44.1612283" lon="12.00307"><ele>70.57142857142857</ele><time>2026-05-02T06:34:44.543Z</time></trkpt><trkpt lat="44.161275" lon="12.003"><ele>70.85714285714286</ele><time>2026-05-02T06:34:46.543Z</time></trkpt><trkpt lat="44.161325" lon="12.0029133"><ele>71.14285714285714</ele><time>2026-05-02T06:34:48.543Z</time></trkpt><trkpt lat="44.1613683" lon="12.0028283"><ele>71.42857142857143</ele><time>2026-05-02T06:34:50.543Z</time></trkpt><trkpt lat="44.1614083" lon="12.0027567"><ele>71.71428571428572</ele><time>2026-05-02T06:34:52.543Z</time></trkpt><trkpt lat="44.161455" lon="12.0026833"><ele>72.0</ele><time>2026-05-02T06:34:54.543Z</time></trkpt><trkpt lat="44.1615" lon="12.0026033"><ele>72.0</ele><time>2026-05-02T06:34:56.543Z</time></trkpt><trkpt lat="44.16154" lon="12.00252"><ele>72.0</ele><time>2026-05-02T06:34:58.543Z</time></trkpt><trkpt lat="44.1615883" lon="12.0024383"><ele>72.0</ele><time>2026-05-02T06:35:00.543Z</time></trkpt><trkpt lat="44.1616367" lon="12.0023567"><ele>72.0</ele><time>2026-05-02T06:35:02.543Z</time></trkpt><trkpt lat="44.1616883" lon="12.0022767"><ele>72.0</ele><time>2026-05-02T06:35:04.543Z</time></trkpt><trkpt lat="44.1617433" lon="12.0022033"><ele>72.0</ele><time>2026-05-02T06:35:06.543Z</time></trkpt><trkpt lat="44.1618033" lon="12.0021033"><ele>72.28571428571429</ele><time>2026-05-02T06:35:09.543Z</time></trkpt><trkpt lat="44.161855" lon="12.00203"><ele>72.57142857142857</ele><time>2026-05-02T06:35:11.543Z</time></trkpt><trkpt lat="44.1619033" lon="12.0019517"><ele>72.85714285714286</ele><time>2026-05-02T06:35:13.543Z</time></trkpt><trkpt lat="44.16195" lon="12.00188"><ele>73.14285714285714</ele><time>2026-05-02T06:35:15.543Z</time></trkpt><trkpt lat="44.1619983" lon="12.0018133"><ele>73.42857142857143</ele><time>2026-05-02T06:35:17.543Z</time></trkpt><trkpt lat="44.1620483" lon="12.0017367"><ele>73.71428571428572</ele><time>2026-05-02T06:35:19.543Z</time></trkpt><trkpt lat="44.1620983" lon="12.001665"><ele>74.0</ele><time>2026-05-02T06:35:21.543Z</time></trkpt><trkpt lat="44.162145" lon="12.0015967"><ele>74.0</ele><time>2026-05-02T06:35:23.543Z</time></trkpt><trkpt lat="44.1621967" lon="12.001525"><ele>74.0</ele><time>2026-05-02T06:35:25.543Z</time></trkpt><trkpt lat="44.1622433" lon="12.00145"><ele>74.0</ele><time>2026-05-02T06:35:27.543Z</time></trkpt><trkpt lat="44.162295" lon="12.0013767"><ele>74.0</ele><time>2026-05-02T06:35:29.543Z</time></trkpt><trkpt lat="44.16235" lon="12.0013117"><ele>74.0</ele><time>2026-05-02T06:35:31.543Z</time></trkpt><trkpt lat="44.1623933" lon="12.0012467"><ele>74.0</ele><time>2026-05-02T06:35:33.543Z</time></trkpt><trkpt lat="44.1624433" lon="12.0011767"><ele>74.0</ele><time>2026-05-02T06:35:35.543Z</time></trkpt><trkpt lat="44.16249" lon="12.0011117"><ele>74.5</ele><time>2026-05-02T06:35:37.543Z</time></trkpt><trkpt lat="44.1625367" lon="12.0010383"><ele>75.0</ele><time>2026-05-02T06:35:39.543Z</time></trkpt><trkpt lat="44.1625883" lon="12.000965"><ele>75.5</ele><time>2026-05-02T06:35:41.543Z</time></trkpt><trkpt lat="44.1626483" lon="12.000885"><ele>76.0</ele><time>2026-05-02T06:35:43.543Z</time></trkpt><trkpt lat="44.1627017" lon="12.0008067"><ele>76.5</ele><time>2026-05-02T06:35:45.543Z</time></trkpt><trkpt lat="44.16275" lon="12.0007267"><ele>77.0</ele><time>2026-05-02T06:35:47.543Z</time></trkpt><trkpt lat="44.1628033" lon="12.0006517"><ele>77.33333333333334</ele><time>2026-05-02T06:35:49.544Z</time></trkpt><trkpt lat="44.1628633" lon="12.0005633"><ele>77.66666666666667</ele><time>2026-05-02T06:35:51.543Z</time></trkpt><trkpt lat="44.162925" lon="12.0004667"><ele>78.0</ele><time>2026-05-02T06:35:53.543Z</time></trkpt><trkpt lat="44.1629767" lon="12.0003783"><ele>78.33333333333333</ele><time>2026-05-02T06:35:55.543Z</time></trkpt><trkpt lat="44.1630283" lon="12.0002867"><ele>78.66666666666666</ele><time>2026-05-02T06:35:57.543Z</time></trkpt><trkpt lat="44.16308" lon="12.0001967"><ele>79.0</ele><time>2026-05-02T06:35:59.543Z</time></trkpt><trkpt lat="44.1631317" lon="12.0001083"><ele>79.0</ele><time>2026-05-02T06:36:01.543Z</time></trkpt><trkpt lat="44.1631833" lon="12.000025"><ele>79.0</ele><time>2026-05-02T06:36:03.543Z</time></trkpt><trkpt lat="44.1632367" lon="11.9999433"><ele>79.0</ele><time>2026-05-02T06:36:05.543Z</time></trkpt><trkpt lat="44.16329" lon="11.999865"><ele>79.0</ele><time>2026-05-02T06:36:07.543Z</time></trkpt><trkpt lat="44.163345" lon="11.99978"><ele>79.0</ele><time>2026-05-02T06:36:09.543Z</time></trkpt><trkpt lat="44.1634017" lon="11.9996983"><ele>79.0</ele><time>2026-05-02T06:36:11.543Z</time></trkpt><trkpt lat="44.1634567" lon="11.999615"><ele>79.16666666666666</ele><time>2026-05-02T06:36:13.543Z</time></trkpt><trkpt lat="44.16351" lon="11.9995267"><ele>79.33333333333333</ele><time>2026-05-02T06:36:15.543Z</time></trkpt><trkpt lat="44.16357" lon="11.99944"><ele>79.5</ele><time>2026-05-02T06:36:17.543Z</time></trkpt><trkpt lat="44.1636233" lon="11.9993483"><ele>79.66666666666667</ele><time>2026-05-02T06:36:19.543Z</time></trkpt><trkpt lat="44.163675" lon="11.9992617"><ele>79.83333333333334</ele><time>2026-05-02T06:36:21.543Z</time></trkpt><trkpt lat="44.1637333" lon="11.9991767"><ele>80.0</ele><time>2026-05-02T06:36:23.543Z</time></trkpt><trkpt lat="44.1637917" lon="11.9990867"><ele>80.16666666666667</ele><time>2026-05-02T06:36:25.543Z</time></trkpt><trkpt lat="44.1638467" lon="11.9989933"><ele>80.33333333333334</ele><time>2026-05-02T06:36:27.543Z</time></trkpt><trkpt lat="44.1639067" lon="11.9988967"><ele>80.5</ele><time>2026-05-02T06:36:29.543Z</time></trkpt><trkpt lat="44.163965" lon="11.9988033"><ele>80.66666666666667</ele><time>2026-05-02T06:36:31.543Z</time></trkpt><trkpt lat="44.164025" lon="11.998715"><ele>80.83333333333333</ele><time>2026-05-02T06:36:33.543Z</time></trkpt><trkpt lat="44.1640767" lon="11.9986233"><ele>81.0</ele><time>2026-05-02T06:36:35.543Z</time></trkpt><trkpt lat="44.16413" lon="11.9985433"><ele>81.0</ele><time>2026-05-02T06:36:37.543Z</time></trkpt><trkpt lat="44.164175" lon="11.9984533"><ele>81.0</ele><time>2026-05-02T06:36:39.543Z</time></trkpt><trkpt lat="44.1642267" lon="11.99835"><ele>81.0</ele><time>2026-05-02T06:36:41.543Z</time></trkpt><trkpt lat="44.16428" lon="11.9982567"><ele>81.0</ele><time>2026-05-02T06:36:43.543Z</time></trkpt><trkpt lat="44.16433" lon="11.9981633"><ele>81.0</ele><time>2026-05-02T06:36:45.543Z</time></trkpt><trkpt lat="44.1643817" lon="11.9980733"><ele>81.0</ele><time>2026-05-02T06:36:47.543Z</time></trkpt><trkpt lat="44.1644383" lon="11.997975"><ele>81.4</ele><time>2026-05-02T06:36:49.543Z</time></trkpt><trkpt lat="44.1644967" lon="11.9978833"><ele>81.8</ele><time>2026-05-02T06:36:51.543Z</time></trkpt><trkpt lat="44.1645567" lon="11.9977767"><ele>82.2</ele><time>2026-05-02T06:36:53.543Z</time></trkpt><trkpt lat="44.1646133" lon="11.9976633"><ele>82.60000000000001</ele><time>2026-05-02T06:36:55.543Z</time></trkpt><trkpt lat="44.164675" lon="11.99756"><ele>83.0</ele><time>2026-05-02T06:36:57.543Z</time></trkpt><trkpt lat="44.1647267" lon="11.9974617"><ele>83.0</ele><time>2026-05-02T06:36:59.543Z</time></trkpt><trkpt lat="44.16479" lon="11.9973517"><ele>83.0</ele><time>2026-05-02T06:37:01.543Z</time></trkpt><trkpt lat="44.164845" lon="11.9972517"><ele>83.0</ele><time>2026-05-02T06:37:03.543Z</time></trkpt><trkpt lat="44.1648983" lon="11.9971483"><ele>83.0</ele><time>2026-05-02T06:37:05.543Z</time></trkpt><trkpt lat="44.1649567" lon="11.9970483"><ele>83.0</ele><time>2026-05-02T06:37:07.543Z</time></trkpt><trkpt lat="44.1650067" lon="11.9969433"><ele>83.0</ele><time>2026-05-02T06:37:09.544Z</time></trkpt><trkpt lat="44.1650567" lon="11.9968433"><ele>83.0</ele><time>2026-05-02T06:37:11.543Z</time></trkpt><trkpt lat="44.1650983" lon="11.99674"><ele>83.0</ele><time>2026-05-02T06:37:13.544Z</time></trkpt><trkpt lat="44.16515" lon="11.9966583"><ele>83.0</ele><time>2026-05-02T06:37:15.543Z</time></trkpt><trkpt lat="44.1652417" lon="11.9966133"><ele>83.0</ele><time>2026-05-02T06:37:17.543Z</time></trkpt><trkpt lat="44.1653317" lon="11.996635"><ele>83.0</ele><time>2026-05-02T06:37:19.543Z</time></trkpt><trkpt lat="44.1654233" lon="11.9966917"><ele>83.0</ele><time>2026-05-02T06:37:21.543Z</time></trkpt><trkpt lat="44.165525" lon="11.9967583"><ele>83.0</ele><time>2026-05-02T06:37:23.543Z</time></trkpt><trkpt lat="44.1656217" lon="11.996815"><ele>83.0</ele><time>2026-05-02T06:37:25.543Z</time></trkpt><trkpt lat="44.1657117" lon="11.99687"><ele>83.0</ele><time>2026-05-02T06:37:27.543Z</time></trkpt><trkpt lat="44.1658017" lon="11.9969467"><ele>83.0</ele><time>2026-05-02T06:37:29.543Z</time></trkpt><trkpt lat="44.165895" lon="11.9970117"><ele>83.33333333333334</ele><time>2026-05-02T06:37:31.543Z</time></trkpt><trkpt lat="44.1659833" lon="11.99707"><ele>83.66666666666667</ele><time>2026-05-02T06:37:33.543Z</time></trkpt><trkpt lat="44.1660667" lon="11.99713"><ele>84.0</ele><time>2026-05-02T06:37:35.543Z</time></trkpt><trkpt lat="44.1661417" lon="11.997195"><ele>84.33333333333333</ele><time>2026-05-02T06:37:37.543Z</time></trkpt><trkpt lat="44.1662167" lon="11.997265"><ele>84.66666666666666</ele><time>2026-05-02T06:37:39.543Z</time></trkpt><trkpt lat="44.1662767" lon="11.9973367"><ele>85.0</ele><time>2026-05-02T06:37:41.543Z</time></trkpt><trkpt lat="44.1663367" lon="11.9974333"><ele>84.6</ele><time>2026-05-02T06:37:43.543Z</time></trkpt><trkpt lat="44.16639" lon="11.99755"><ele>84.2</ele><time>2026-05-02T06:37:45.543Z</time></trkpt><trkpt lat="44.166435" lon="11.997665"><ele>83.80000000000001</ele><time>2026-05-02T06:37:47.543Z</time></trkpt><trkpt lat="44.166475" lon="11.997785"><ele>83.4</ele><time>2026-05-02T06:37:49.543Z</time></trkpt><trkpt lat="44.166525" lon="11.9979017"><ele>83.0</ele><time>2026-05-02T06:37:51.543Z</time></trkpt><trkpt lat="44.16657" lon="11.99803"><ele>83.4</ele><time>2026-05-02T06:37:53.543Z</time></trkpt><trkpt lat="44.166615" lon="11.9981683"><ele>83.80000000000001</ele><time>2026-05-02T06:37:55.543Z</time></trkpt><trkpt lat="44.1666567" lon="11.9982917"><ele>84.2</ele><time>2026-05-02T06:37:57.543Z</time></trkpt><trkpt lat="44.1666983" lon="11.99842"><ele>84.6</ele><time>2026-05-02T06:37:59.543Z</time></trkpt><trkpt lat="44.1667367" lon="11.9985333"><ele>85.0</ele><time>2026-05-02T06:38:01.543Z</time></trkpt><trkpt lat="44.1667767" lon="11.9986517"><ele>85.0</ele><time>2026-05-02T06:38:03.543Z</time></trkpt><trkpt lat="44.1668083" lon="11.9987917"><ele>85.0</ele><time>2026-05-02T06:38:05.543Z</time></trkpt><trkpt lat="44.1668583" lon="11.998925"><ele>85.0</ele><time>2026-05-02T06:38:07.543Z</time></trkpt><trkpt lat="44.1668967" lon="11.9990617"><ele>85.0</ele><time>2026-05-02T06:38:09.543Z</time></trkpt><trkpt lat="44.166945" lon="11.99922"><ele>85.0</ele><time>2026-05-02T06:38:11.543Z</time></trkpt><trkpt lat="44.1669717" lon="11.9993017"><ele>84.2</ele><time>2026-05-02T06:38:12.544Z</time></trkpt><trkpt lat="44.1669983" lon="11.9993817"><ele>83.4</ele><time>2026-05-02T06:38:13.543Z</time></trkpt><trkpt lat="44.167025" lon="11.9994617"><ele>82.6</ele><time>2026-05-02T06:38:14.543Z</time></trkpt><trkpt lat="44.1670817" lon="11.99961"><ele>81.8</ele><time>2026-05-02T06:38:16.544Z</time></trkpt><trkpt lat="44.16716" lon="11.9997433"><ele>81.0</ele><time>2026-05-02T06:38:18.543Z</time></trkpt><trkpt lat="44.1672467" lon="11.9998517"><ele>81.0</ele><time>2026-05-02T06:38:20.543Z</time></trkpt><trkpt lat="44.1673433" lon="11.999935"><ele>81.0</ele><time>2026-05-02T06:38:22.543Z</time></trkpt><trkpt lat="44.1674517" lon="11.9999933"><ele>81.0</ele><time>2026-05-02T06:38:24.543Z</time></trkpt><trkpt lat="44.1675133" lon="12.0000233"><ele>81.0</ele><time>2026-05-02T06:38:25.543Z</time></trkpt><trkpt lat="44.1676317" lon="12.0000883"><ele>81.0</ele><time>2026-05-02T06:38:27.543Z</time></trkpt><trkpt lat="44.1677067" lon="12.00012"><ele>81.66666666666667</ele><time>2026-05-02T06:38:28.543Z</time></trkpt><trkpt lat="44.1677767" lon="12.0001533"><ele>82.33333333333333</ele><time>2026-05-02T06:38:29.544Z</time></trkpt><trkpt lat="44.1678467" lon="12.0001933"><ele>83.0</ele><time>2026-05-02T06:38:30.543Z</time></trkpt><trkpt lat="44.1679167" lon="12.0002367"><ele>83.66666666666666</ele><time>2026-05-02T06:38:31.543Z</time></trkpt><trkpt lat="44.1679867" lon="12.00028"><ele>84.33333333333333</ele><time>2026-05-02T06:38:32.543Z</time></trkpt><trkpt lat="44.16806" lon="12.0003283"><ele>85.0</ele><time>2026-05-02T06:38:33.543Z</time></trkpt><trkpt lat="44.1681283" lon="12.0003717"><ele>85.66666666666666</ele><time>2026-05-02T06:38:34.543Z</time></trkpt><trkpt lat="44.1681983" lon="12.0004133"><ele>86.33333333333333</ele><time>2026-05-02T06:38:35.543Z</time></trkpt><trkpt lat="44.1682717" lon="12.00046"><ele>87.0</ele><time>2026-05-02T06:38:36.544Z</time></trkpt><trkpt lat="44.1683417" lon="12.000505"><ele>87.66666666666667</ele><time>2026-05-02T06:38:37.543Z</time></trkpt><trkpt lat="44.168415" lon="12.00056"><ele>88.33333333333334</ele><time>2026-05-02T06:38:38.543Z</time></trkpt><trkpt lat="44.16848" lon="12.000605"><ele>89.0</ele><time>2026-05-02T06:38:39.543Z</time></trkpt><trkpt lat="44.168545" lon="12.0006517"><ele>88.99999999999999</ele><time>2026-05-02T06:38:40.543Z</time></trkpt><trkpt lat="44.1686033" lon="12.0007067"><ele>89.0</ele><time>2026-05-02T06:38:41.543Z</time></trkpt><trkpt lat="44.1686617" lon="12.0007617"><ele>89.0</ele><time>2026-05-02T06:38:42.543Z</time></trkpt><trkpt lat="44.16872" lon="12.0008117"><ele>89.0</ele><time>2026-05-02T06:38:43.543Z</time></trkpt><trkpt lat="44.1687717" lon="12.0008683"><ele>89.0</ele><time>2026-05-02T06:38:44.543Z</time></trkpt><trkpt lat="44.168825" lon="12.000935"><ele>88.99999999999999</ele><time>2026-05-02T06:38:45.543Z</time></trkpt><trkpt lat="44.16887" lon="12.0010067"><ele>89.0</ele><time>2026-05-02T06:38:46.543Z</time></trkpt><trkpt lat="44.168945" lon="12.001135"><ele>89.0</ele><time>2026-05-02T06:38:48.544Z</time></trkpt><trkpt lat="44.168995" lon="12.001265"><ele>89.0</ele><time>2026-05-02T06:38:50.543Z</time></trkpt><trkpt lat="44.169035" lon="12.001385"><ele>89.0</ele><time>2026-05-02T06:38:52.543Z</time></trkpt><trkpt lat="44.169075" lon="12.0014917"><ele>89.0</ele><time>2026-05-02T06:38:54.543Z</time></trkpt><trkpt lat="44.16912" lon="12.0015817"><ele>89.0</ele><time>2026-05-02T06:38:56.543Z</time></trkpt><trkpt lat="44.169175" lon="12.0016583"><ele>89.0</ele><time>2026-05-02T06:38:58.543Z</time></trkpt><trkpt lat="44.16923" lon="12.0017383"><ele>88.0</ele><time>2026-05-02T06:39:00.543Z</time></trkpt><trkpt lat="44.1692817" lon="12.0018083"><ele>87.0</ele><time>2026-05-02T06:39:02.543Z</time></trkpt><trkpt lat="44.16935" lon="12.0018617"><ele>86.0</ele><time>2026-05-02T06:39:04.543Z</time></trkpt><trkpt lat="44.1694183" lon="12.001905"><ele>85.0</ele><time>2026-05-02T06:39:06.543Z</time></trkpt><trkpt lat="44.169485" lon="12.00195"><ele>84.0</ele><time>2026-05-02T06:39:08.543Z</time></trkpt><trkpt lat="44.169565" lon="12.00197"><ele>83.0</ele><time>2026-05-02T06:39:10.543Z</time></trkpt><trkpt lat="44.1696383" lon="12.00199"><ele>83.0</ele><time>2026-05-02T06:39:12.543Z</time></trkpt><trkpt lat="44.169715" lon="12.00201"><ele>83.0</ele><time>2026-05-02T06:39:14.543Z</time></trkpt><trkpt lat="44.1697883" lon="12.0020133"><ele>83.0</ele><time>2026-05-02T06:39:16.543Z</time></trkpt><trkpt lat="44.169855" lon="12.0020017"><ele>83.0</ele><time>2026-05-02T06:39:18.543Z</time></trkpt><trkpt lat="44.1699283" lon="12.0019833"><ele>83.0</ele><time>2026-05-02T06:39:20.543Z</time></trkpt><trkpt lat="44.1700017" lon="12.0019717"><ele>83.0</ele><time>2026-05-02T06:39:22.543Z</time></trkpt><trkpt lat="44.1700667" lon="12.0019633"><ele>83.0</ele><time>2026-05-02T06:39:24.543Z</time></trkpt><trkpt lat="44.17014" lon="12.0019433"><ele>84.5</ele><time>2026-05-02T06:39:26.543Z</time></trkpt><trkpt lat="44.1702133" lon="12.0019167"><ele>86.0</ele><time>2026-05-02T06:39:28.543Z</time></trkpt><trkpt lat="44.17029" lon="12.0018933"><ele>87.5</ele><time>2026-05-02T06:39:30.543Z</time></trkpt><trkpt lat="44.170365" lon="12.0018833"><ele>89.0</ele><time>2026-05-02T06:39:32.543Z</time></trkpt><trkpt lat="44.1704433" lon="12.0018683"><ele>90.5</ele><time>2026-05-02T06:39:34.543Z</time></trkpt><trkpt lat="44.1705633" lon="12.001855"><ele>92.0</ele><time>2026-05-02T06:39:37.543Z</time></trkpt><trkpt lat="44.1706383" lon="12.0018533"><ele>92.16666666666667</ele><time>2026-05-02T06:39:39.543Z</time></trkpt><trkpt lat="44.1707267" lon="12.0018567"><ele>92.33333333333334</ele><time>2026-05-02T06:39:41.543Z</time></trkpt><trkpt lat="44.1708117" lon="12.0018433"><ele>92.5</ele><time>2026-05-02T06:39:43.543Z</time></trkpt><trkpt lat="44.17087" lon="12.0017717"><ele>92.66666666666667</ele><time>2026-05-02T06:39:45.544Z</time></trkpt><trkpt lat="44.170875" lon="12.0016633"><ele>92.83333333333333</ele><time>2026-05-02T06:39:47.543Z</time></trkpt><trkpt lat="44.17084" lon="12.00156"><ele>93.0</ele><time>2026-05-02T06:39:49.543Z</time></trkpt><trkpt lat="44.1707883" lon="12.0014583"><ele>93.16666666666667</ele><time>2026-05-02T06:39:51.543Z</time></trkpt><trkpt lat="44.1707433" lon="12.001365"><ele>93.33333333333333</ele><time>2026-05-02T06:39:53.543Z</time></trkpt><trkpt lat="44.1706983" lon="12.0012717"><ele>93.5</ele><time>2026-05-02T06:39:55.543Z</time></trkpt><trkpt lat="44.1706483" lon="12.0011817"><ele>93.66666666666666</ele><time>2026-05-02T06:39:57.543Z</time></trkpt><trkpt lat="44.1706033" lon="12.0010867"><ele>93.83333333333333</ele><time>2026-05-02T06:39:59.543Z</time></trkpt><trkpt lat="44.1705617" lon="12.0009983"><ele>94.0</ele><time>2026-05-02T06:40:01.543Z</time></trkpt><trkpt lat="44.1705133" lon="12.0009117"><ele>94.66666666666666</ele><time>2026-05-02T06:40:03.543Z</time></trkpt><trkpt lat="44.1704683" lon="12.0008233"><ele>95.33333333333333</ele><time>2026-05-02T06:40:05.543Z</time></trkpt><trkpt lat="44.1704183" lon="12.00074"><ele>96.0</ele><time>2026-05-02T06:40:07.543Z</time></trkpt><trkpt lat="44.1703733" lon="12.0006517"><ele>96.66666666666666</ele><time>2026-05-02T06:40:09.543Z</time></trkpt><trkpt lat="44.1703283" lon="12.0005633"><ele>97.33333333333333</ele><time>2026-05-02T06:40:11.543Z</time></trkpt><trkpt lat="44.1702783" lon="12.0004767"><ele>98.0</ele><time>2026-05-02T06:40:13.543Z</time></trkpt><trkpt lat="44.170235" lon="12.0003833"><ele>98.0</ele><time>2026-05-02T06:40:15.543Z</time></trkpt><trkpt lat="44.170195" lon="12.000295"><ele>98.0</ele><time>2026-05-02T06:40:17.543Z</time></trkpt><trkpt lat="44.17016" lon="12.0002033"><ele>98.0</ele><time>2026-05-02T06:40:19.543Z</time></trkpt><trkpt lat="44.17013" lon="12.00011"><ele>98.0</ele><time>2026-05-02T06:40:21.543Z</time></trkpt><trkpt lat="44.1701133" lon="12.00001"><ele>98.0</ele><time>2026-05-02T06:40:23.543Z</time></trkpt><trkpt lat="44.170125" lon="11.999915"><ele>98.0</ele><time>2026-05-02T06:40:25.543Z</time></trkpt><trkpt lat="44.170145" lon="11.99982"><ele>98.0</ele><time>2026-05-02T06:40:27.544Z</time></trkpt><trkpt lat="44.1701817" lon="11.9997283"><ele>97.99999999999999</ele><time>2026-05-02T06:40:29.543Z</time></trkpt><trkpt lat="44.1702233" lon="11.9996383"><ele>98.0</ele><time>2026-05-02T06:40:31.543Z</time></trkpt><trkpt lat="44.170265" lon="11.9995483"><ele>98.0</ele><time>2026-05-02T06:40:33.543Z</time></trkpt><trkpt lat="44.170305" lon="11.99945"><ele>98.0</ele><time>2026-05-02T06:40:35.543Z</time></trkpt><trkpt lat="44.1703467" lon="11.99935"><ele>97.99999999999999</ele><time>2026-05-02T06:40:37.543Z</time></trkpt><trkpt lat="44.1703817" lon="11.9992567"><ele>98.0</ele><time>2026-05-02T06:40:39.543Z</time></trkpt><trkpt lat="44.1704283" lon="11.9991633"><ele>97.99999999999999</ele><time>2026-05-02T06:40:41.543Z</time></trkpt><trkpt lat="44.1704717" lon="11.99907"><ele>98.0</ele><time>2026-05-02T06:40:43.543Z</time></trkpt><trkpt lat="44.1705317" lon="11.9989733"><ele>98.0</ele><time>2026-05-02T06:40:45.543Z</time></trkpt><trkpt lat="44.1705817" lon="11.9988617"><ele>98.0</ele><time>2026-05-02T06:40:47.543Z</time></trkpt><trkpt lat="44.1706283" lon="11.9987733"><ele>97.99999999999999</ele><time>2026-05-02T06:40:49.543Z</time></trkpt><trkpt lat="44.1706733" lon="11.9986817"><ele>98.0</ele><time>2026-05-02T06:40:51.543Z</time></trkpt><trkpt lat="44.1707217" lon="11.9985883"><ele>97.99999999999999</ele><time>2026-05-02T06:40:53.543Z</time></trkpt><trkpt lat="44.170775" lon="11.9984917"><ele>98.0</ele><time>2026-05-02T06:40:55.543Z</time></trkpt><trkpt lat="44.170825" lon="11.9983883"><ele>98.0</ele><time>2026-05-02T06:40:57.543Z</time></trkpt><trkpt lat="44.170865" lon="11.998285"><ele>98.0</ele><time>2026-05-02T06:40:59.543Z</time></trkpt><trkpt lat="44.17091" lon="11.9981933"><ele>97.99999999999999</ele><time>2026-05-02T06:41:01.543Z</time></trkpt><trkpt lat="44.1709533" lon="11.9981"><ele>98.0</ele><time>2026-05-02T06:41:03.543Z</time></trkpt><trkpt lat="44.171" lon="11.9980067"><ele>98.28571428571429</ele><time>2026-05-02T06:41:05.543Z</time></trkpt><trkpt lat="44.1710433" lon="11.9979267"><ele>98.57142857142857</ele><time>2026-05-02T06:41:07.543Z</time></trkpt><trkpt lat="44.17108" lon="11.997845"><ele>98.85714285714286</ele><time>2026-05-02T06:41:09.543Z</time></trkpt><trkpt lat="44.171115" lon="11.9977533"><ele>99.14285714285714</ele><time>2026-05-02T06:41:11.543Z</time></trkpt><trkpt lat="44.17116" lon="11.997655"><ele>99.42857142857143</ele><time>2026-05-02T06:41:13.543Z</time></trkpt><trkpt lat="44.1711967" lon="11.99756"><ele>99.71428571428572</ele><time>2026-05-02T06:41:15.543Z</time></trkpt><trkpt lat="44.171235" lon="11.9974767"><ele>100.0</ele><time>2026-05-02T06:41:17.543Z</time></trkpt><trkpt lat="44.1712983" lon="11.99738"><ele>100.50000000000001</ele><time>2026-05-02T06:41:20.543Z</time></trkpt><trkpt lat="44.1713617" lon="11.9973433"><ele>101.0</ele><time>2026-05-02T06:41:22.543Z</time></trkpt><trkpt lat="44.17145" lon="11.997345"><ele>101.5</ele><time>2026-05-02T06:41:25.543Z</time></trkpt><trkpt lat="44.1715283" lon="11.99737"><ele>102.0</ele><time>2026-05-02T06:41:27.542Z</time></trkpt><trkpt lat="44.1716167" lon="11.9973933"><ele>102.50000000000001</ele><time>2026-05-02T06:41:29.543Z</time></trkpt><trkpt lat="44.1716967" lon="11.9974217"><ele>103.0</ele><time>2026-05-02T06:41:31.543Z</time></trkpt><trkpt lat="44.1717767" lon="11.9974567"><ele>103.33333333333334</ele><time>2026-05-02T06:41:33.543Z</time></trkpt><trkpt lat="44.1718533" lon="11.997485"><ele>103.66666666666667</ele><time>2026-05-02T06:41:35.543Z</time></trkpt><trkpt lat="44.171935" lon="11.997515"><ele>104.0</ele><time>2026-05-02T06:41:37.543Z</time></trkpt><trkpt lat="44.1720183" lon="11.99753"><ele>104.33333333333334</ele><time>2026-05-02T06:41:39.543Z</time></trkpt><trkpt lat="44.1721133" lon="11.9975267"><ele>104.66666666666667</ele><time>2026-05-02T06:41:41.543Z</time></trkpt><trkpt lat="44.17221" lon="11.9974967"><ele>105.0</ele><time>2026-05-02T06:41:43.543Z</time></trkpt><trkpt lat="44.1723" lon="11.9974533"><ele>105.2</ele><time>2026-05-02T06:41:45.543Z</time></trkpt><trkpt lat="44.1723917" lon="11.9973833"><ele>105.4</ele><time>2026-05-02T06:41:47.543Z</time></trkpt><trkpt lat="44.1724583" lon="11.9972833"><ele>105.6</ele><time>2026-05-02T06:41:49.544Z</time></trkpt><trkpt lat="44.1725083" lon="11.9971833"><ele>105.8</ele><time>2026-05-02T06:41:51.543Z</time></trkpt><trkpt lat="44.17256" lon="11.997085"><ele>106.0</ele><time>2026-05-02T06:41:53.543Z</time></trkpt><trkpt lat="44.1726217" lon="11.9969883"><ele>106.0</ele><time>2026-05-02T06:41:55.543Z</time></trkpt><trkpt lat="44.172685" lon="11.9968817"><ele>106.0</ele><time>2026-05-02T06:41:57.544Z</time></trkpt><trkpt lat="44.1727417" lon="11.9967717"><ele>106.0</ele><time>2026-05-02T06:41:59.544Z</time></trkpt><trkpt lat="44.17279" lon="11.9966667"><ele>106.0</ele><time>2026-05-02T06:42:01.543Z</time></trkpt><trkpt lat="44.1728433" lon="11.9965617"><ele>106.0</ele><time>2026-05-02T06:42:03.543Z</time></trkpt><trkpt lat="44.1729017" lon="11.99646"><ele>106.19999999999999</ele><time>2026-05-02T06:42:05.543Z</time></trkpt><trkpt lat="44.172965" lon="11.9963483"><ele>106.39999999999999</ele><time>2026-05-02T06:42:07.543Z</time></trkpt><trkpt lat="44.1730267" lon="11.996235"><ele>106.6</ele><time>2026-05-02T06:42:09.543Z</time></trkpt><trkpt lat="44.1730867" lon="11.996135"><ele>106.8</ele><time>2026-05-02T06:42:11.543Z</time></trkpt><trkpt lat="44.17315" lon="11.9960233"><ele>107.0</ele><time>2026-05-02T06:42:13.543Z</time></trkpt><trkpt lat="44.1732067" lon="11.995915"><ele>107.0</ele><time>2026-05-02T06:42:15.543Z</time></trkpt><trkpt lat="44.173265" lon="11.9958083"><ele>106.99999999999999</ele><time>2026-05-02T06:42:17.543Z</time></trkpt><trkpt lat="44.1733217" lon="11.9957017"><ele>106.99999999999999</ele><time>2026-05-02T06:42:19.543Z</time></trkpt><trkpt lat="44.1733783" lon="11.995595"><ele>107.0</ele><time>2026-05-02T06:42:21.543Z</time></trkpt><trkpt lat="44.1734433" lon="11.995485"><ele>107.0</ele><time>2026-05-02T06:42:23.543Z</time></trkpt><trkpt lat="44.1734983" lon="11.9953917"><ele>107.00000000000001</ele><time>2026-05-02T06:42:25.543Z</time></trkpt><trkpt lat="44.1735583" lon="11.9952983"><ele>107.0</ele><time>2026-05-02T06:42:27.543Z</time></trkpt><trkpt lat="44.1736117" lon="11.9952117"><ele>107.0</ele><time>2026-05-02T06:42:29.543Z</time></trkpt><trkpt lat="44.17365" lon="11.9951367"><ele>107.0</ele><time>2026-05-02T06:42:31.543Z</time></trkpt><trkpt lat="44.173665" lon="11.9950483"><ele>107.0</ele><time>2026-05-02T06:42:33.543Z</time></trkpt><trkpt lat="44.1736367" lon="11.994965"><ele>107.00000000000001</ele><time>2026-05-02T06:42:35.543Z</time></trkpt><trkpt lat="44.17358" lon="11.99491"><ele>107.0</ele><time>2026-05-02T06:42:37.543Z</time></trkpt><trkpt lat="44.1735233" lon="11.9948567"><ele>107.49999999999999</ele><time>2026-05-02T06:42:39.543Z</time></trkpt><trkpt lat="44.1734583" lon="11.994805"><ele>108.0</ele><time>2026-05-02T06:42:41.543Z</time></trkpt><trkpt lat="44.173395" lon="11.9947433"><ele>108.5</ele><time>2026-05-02T06:42:43.543Z</time></trkpt><trkpt lat="44.17333" lon="11.9946817"><ele>109.0</ele><time>2026-05-02T06:42:45.543Z</time></trkpt><trkpt lat="44.1732617" lon="11.9946217"><ele>109.49999999999999</ele><time>2026-05-02T06:42:47.543Z</time></trkpt><trkpt lat="44.1731983" lon="11.9945633"><ele>110.0</ele><time>2026-05-02T06:42:49.543Z</time></trkpt><trkpt lat="44.1731367" lon="11.9945033"><ele>110.14285714285714</ele><time>2026-05-02T06:42:51.543Z</time></trkpt><trkpt lat="44.173075" lon="11.9944417"><ele>110.28571428571428</ele><time>2026-05-02T06:42:53.543Z</time></trkpt><trkpt lat="44.1730167" lon="11.9943833"><ele>110.42857142857142</ele><time>2026-05-02T06:42:55.543Z</time></trkpt><trkpt lat="44.1729567" lon="11.99433"><ele>110.57142857142857</ele><time>2026-05-02T06:42:57.543Z</time></trkpt><trkpt lat="44.172895" lon="11.9942817"><ele>110.71428571428572</ele><time>2026-05-02T06:42:59.543Z</time></trkpt><trkpt lat="44.1728317" lon="11.9942233"><ele>110.85714285714285</ele><time>2026-05-02T06:43:01.543Z</time></trkpt><trkpt lat="44.1727717" lon="11.9941583"><ele>111.0</ele><time>2026-05-02T06:43:03.543Z</time></trkpt><trkpt lat="44.1727117" lon="11.9941033"><ele>111.0</ele><time>2026-05-02T06:43:05.543Z</time></trkpt><trkpt lat="44.1726483" lon="11.9940483"><ele>111.0</ele><time>2026-05-02T06:43:07.544Z</time></trkpt><trkpt lat="44.172585" lon="11.9939967"><ele>111.0</ele><time>2026-05-02T06:43:09.543Z</time></trkpt><trkpt lat="44.1725317" lon="11.9939467"><ele>111.0</ele><time>2026-05-02T06:43:11.543Z</time></trkpt><trkpt lat="44.172475" lon="11.993895"><ele>111.0</ele><time>2026-05-02T06:43:13.544Z</time></trkpt><trkpt lat="44.1724117" lon="11.9938367"><ele>111.0</ele><time>2026-05-02T06:43:15.543Z</time></trkpt><trkpt lat="44.1723517" lon="11.9937767"><ele>111.0</ele><time>2026-05-02T06:43:17.543Z</time></trkpt><trkpt lat="44.1722883" lon="11.9937183"><ele>111.66666666666667</ele><time>2026-05-02T06:43:19.543Z</time></trkpt><trkpt lat="44.1722233" lon="11.9936633"><ele>112.33333333333334</ele><time>2026-05-02T06:43:21.543Z</time></trkpt><trkpt lat="44.1721633" lon="11.9936033"><ele>113.0</ele><time>2026-05-02T06:43:23.543Z</time></trkpt><trkpt lat="44.1721" lon="11.9935383"><ele>113.66666666666667</ele><time>2026-05-02T06:43:25.543Z</time></trkpt><trkpt lat="44.172035" lon="11.9934833"><ele>114.33333333333334</ele><time>2026-05-02T06:43:27.543Z</time></trkpt><trkpt lat="44.171975" lon="11.9934217"><ele>115.0</ele><time>2026-05-02T06:43:29.543Z</time></trkpt><trkpt lat="44.171915" lon="11.9933667"><ele>115.33333333333334</ele><time>2026-05-02T06:43:31.543Z</time></trkpt><trkpt lat="44.1718533" lon="11.9933117"><ele>115.66666666666667</ele><time>2026-05-02T06:43:33.543Z</time></trkpt><trkpt lat="44.1717917" lon="11.9932517"><ele>116.0</ele><time>2026-05-02T06:43:35.543Z</time></trkpt><trkpt lat="44.171725" lon="11.9931917"><ele>116.33333333333334</ele><time>2026-05-02T06:43:37.543Z</time></trkpt><trkpt lat="44.171665" lon="11.99313"><ele>116.66666666666667</ele><time>2026-05-02T06:43:39.543Z</time></trkpt><trkpt lat="44.1716" lon="11.993065"><ele>117.0</ele><time>2026-05-02T06:43:41.543Z</time></trkpt><trkpt lat="44.1715367" lon="11.99301"><ele>117.5</ele><time>2026-05-02T06:43:43.544Z</time></trkpt><trkpt lat="44.17147" lon="11.9929583"><ele>118.0</ele><time>2026-05-02T06:43:45.543Z</time></trkpt><trkpt lat="44.1714067" lon="11.99289"><ele>118.5</ele><time>2026-05-02T06:43:47.543Z</time></trkpt><trkpt lat="44.17133" lon="11.9928267"><ele>119.0</ele><time>2026-05-02T06:43:49.543Z</time></trkpt><trkpt lat="44.1712667" lon="11.9927733"><ele>119.5</ele><time>2026-05-02T06:43:51.543Z</time></trkpt><trkpt lat="44.171205" lon="11.9927183"><ele>120.0</ele><time>2026-05-02T06:43:53.543Z</time></trkpt><trkpt lat="44.1711367" lon="11.9926617"><ele>120.0</ele><time>2026-05-02T06:43:55.543Z</time></trkpt><trkpt lat="44.1710717" lon="11.9926017"><ele>120.0</ele><time>2026-05-02T06:43:57.543Z</time></trkpt><trkpt lat="44.1710067" lon="11.9925383"><ele>120.0</ele><time>2026-05-02T06:43:59.543Z</time></trkpt><trkpt lat="44.170945" lon="11.9924767"><ele>120.0</ele><time>2026-05-02T06:44:01.543Z</time></trkpt><trkpt lat="44.170885" lon="11.992415"><ele>120.0</ele><time>2026-05-02T06:44:03.543Z</time></trkpt><trkpt lat="44.1708233" lon="11.9923567"><ele>120.0</ele><time>2026-05-02T06:44:05.544Z</time></trkpt><trkpt lat="44.1707583" lon="11.9922967"><ele>120.16666666666667</ele><time>2026-05-02T06:44:07.543Z</time></trkpt><trkpt lat="44.1706867" lon="11.99224"><ele>120.33333333333334</ele><time>2026-05-02T06:44:09.543Z</time></trkpt><trkpt lat="44.17062" lon="11.9921767"><ele>120.5</ele><time>2026-05-02T06:44:11.544Z</time></trkpt><trkpt lat="44.1705483" lon="11.992115"><ele>120.66666666666667</ele><time>2026-05-02T06:44:13.543Z</time></trkpt><trkpt lat="44.17048" lon="11.9920667"><ele>120.83333333333334</ele><time>2026-05-02T06:44:15.543Z</time></trkpt><trkpt lat="44.170415" lon="11.992"><ele>121.0</ele><time>2026-05-02T06:44:17.543Z</time></trkpt><trkpt lat="44.1703567" lon="11.9919417"><ele>121.00000000000001</ele><time>2026-05-02T06:44:19.544Z</time></trkpt><trkpt lat="44.1702917" lon="11.99186"><ele>121.0</ele><time>2026-05-02T06:44:22.544Z</time></trkpt><trkpt lat="44.1702333" lon="11.9918"><ele>121.0</ele><time>2026-05-02T06:44:24.543Z</time></trkpt><trkpt lat="44.1701583" lon="11.99174"><ele>121.0</ele><time>2026-05-02T06:44:27.543Z</time></trkpt><trkpt lat="44.1700933" lon="11.9916917"><ele>121.00000000000001</ele><time>2026-05-02T06:44:29.543Z</time></trkpt><trkpt lat="44.1700333" lon="11.9916367"><ele>121.0</ele><time>2026-05-02T06:44:31.543Z</time></trkpt><trkpt lat="44.169965" lon="11.99158"><ele>121.66666666666667</ele><time>2026-05-02T06:44:33.543Z</time></trkpt><trkpt lat="44.169895" lon="11.9915083"><ele>122.33333333333334</ele><time>2026-05-02T06:44:35.543Z</time></trkpt><trkpt lat="44.1698283" lon="11.9914567"><ele>123.0</ele><time>2026-05-02T06:44:37.543Z</time></trkpt><trkpt lat="44.1697683" lon="11.9914117"><ele>123.66666666666666</ele><time>2026-05-02T06:44:39.543Z</time></trkpt><trkpt lat="44.1697117" lon="11.991365"><ele>124.33333333333333</ele><time>2026-05-02T06:44:41.543Z</time></trkpt><trkpt lat="44.16964" lon="11.9912783"><ele>125.0</ele><time>2026-05-02T06:44:44.543Z</time></trkpt><trkpt lat="44.16959" lon="11.9912117"><ele>124.66666666666666</ele><time>2026-05-02T06:44:46.543Z</time></trkpt><trkpt lat="44.169525" lon="11.991135"><ele>124.33333333333333</ele><time>2026-05-02T06:44:49.543Z</time></trkpt><trkpt lat="44.1694833" lon="11.9910617"><ele>124.0</ele><time>2026-05-02T06:44:52.543Z</time></trkpt><trkpt lat="44.1694367" lon="11.9909883"><ele>123.66666666666666</ele><time>2026-05-02T06:44:55.543Z</time></trkpt><trkpt lat="44.1693867" lon="11.9908983"><ele>123.33333333333333</ele><time>2026-05-02T06:44:58.543Z</time></trkpt><trkpt lat="44.169335" lon="11.9908"><ele>123.0</ele><time>2026-05-02T06:45:01.543Z</time></trkpt><trkpt lat="44.1692867" lon="11.9907033"><ele>123.0</ele><time>2026-05-02T06:45:04.543Z</time></trkpt><trkpt lat="44.1692467" lon="11.9905917"><ele>123.0</ele><time>2026-05-02T06:45:07.543Z</time></trkpt><trkpt lat="44.1692233" lon="11.99047"><ele>123.0</ele><time>2026-05-02T06:45:10.543Z</time></trkpt><trkpt lat="44.1692117" lon="11.9903833"><ele>123.0</ele><time>2026-05-02T06:45:12.543Z</time></trkpt><trkpt lat="44.1691983" lon="11.99027"><ele>123.0</ele><time>2026-05-02T06:45:15.543Z</time></trkpt><trkpt lat="44.169195" lon="11.9901483"><ele>123.0</ele><time>2026-05-02T06:45:18.543Z</time></trkpt><trkpt lat="44.1691817" lon="11.9900217"><ele>123.33333333333333</ele><time>2026-05-02T06:45:21.543Z</time></trkpt><trkpt lat="44.1691767" lon="11.9898967"><ele>123.66666666666666</ele><time>2026-05-02T06:45:24.543Z</time></trkpt><trkpt lat="44.1691683" lon="11.98977"><ele>124.0</ele><time>2026-05-02T06:45:27.543Z</time></trkpt><trkpt lat="44.169165" lon="11.98965"><ele>124.33333333333333</ele><time>2026-05-02T06:45:30.543Z</time></trkpt><trkpt lat="44.1691667" lon="11.98953"><ele>124.66666666666666</ele><time>2026-05-02T06:45:33.543Z</time></trkpt><trkpt lat="44.1691667" lon="11.9894117"><ele>125.0</ele><time>2026-05-02T06:45:36.543Z</time></trkpt><trkpt lat="44.1691617" lon="11.9892867"><ele>125.66666666666666</ele><time>2026-05-02T06:45:39.543Z</time></trkpt><trkpt lat="44.16916" lon="11.989165"><ele>126.33333333333333</ele><time>2026-05-02T06:45:42.543Z</time></trkpt><trkpt lat="44.169155" lon="11.98904"><ele>127.0</ele><time>2026-05-02T06:45:45.543Z</time></trkpt><trkpt lat="44.16916" lon="11.9889233"><ele>127.66666666666666</ele><time>2026-05-02T06:45:48.543Z</time></trkpt><trkpt lat="44.16916" lon="11.9888183"><ele>128.33333333333334</ele><time>2026-05-02T06:45:51.543Z</time></trkpt><trkpt lat="44.1691633" lon="11.9887083"><ele>129.0</ele><time>2026-05-02T06:45:54.543Z</time></trkpt><trkpt lat="44.1691667" lon="11.9886017"><ele>128.99999999999997</ele><time>2026-05-02T06:45:57.543Z</time></trkpt><trkpt lat="44.169165" lon="11.988495"><ele>129.0</ele><time>2026-05-02T06:46:00.543Z</time></trkpt><trkpt lat="44.169165" lon="11.988405"><ele>129.0</ele><time>2026-05-02T06:46:03.543Z</time></trkpt><trkpt lat="44.1691567" lon="11.9883033"><ele>129.0</ele><time>2026-05-02T06:46:06.543Z</time></trkpt><trkpt lat="44.1691567" lon="11.988195"><ele>129.0</ele><time>2026-05-02T06:46:09.543Z</time></trkpt><trkpt lat="44.1691567" lon="11.98809"><ele>128.99999999999997</ele><time>2026-05-02T06:46:12.543Z</time></trkpt><trkpt lat="44.1691433" lon="11.9879883"><ele>129.0</ele><time>2026-05-02T06:46:15.543Z</time></trkpt><trkpt lat="44.1691383" lon="11.9878983"><ele>129.66666666666666</ele><time>2026-05-02T06:46:18.543Z</time></trkpt><trkpt lat="44.1691333" lon="11.987795"><ele>130.33333333333334</ele><time>2026-05-02T06:46:21.543Z</time></trkpt><trkpt lat="44.1691367" lon="11.9876767"><ele>131.0</ele><time>2026-05-02T06:46:24.543Z</time></trkpt><trkpt lat="44.169115" lon="11.9875633"><ele>131.66666666666669</ele><time>2026-05-02T06:46:27.543Z</time></trkpt><trkpt lat="44.1691017" lon="11.987445"><ele>132.33333333333334</ele><time>2026-05-02T06:46:30.543Z</time></trkpt><trkpt lat="44.16907" lon="11.98736"><ele>133.0</ele><time>2026-05-02T06:46:33.544Z</time></trkpt><trkpt lat="44.1690333" lon="11.9872783"><ele>133.14285714285714</ele><time>2026-05-02T06:46:38.543Z</time></trkpt><trkpt lat="44.1689833" lon="11.9872183"><ele>133.28571428571428</ele><time>2026-05-02T06:46:43.543Z</time></trkpt><trkpt lat="44.16893" lon="11.987145"><ele>133.42857142857144</ele><time>2026-05-02T06:46:48.543Z</time></trkpt><trkpt lat="44.1688883" lon="11.9870717"><ele>133.57142857142856</ele><time>2026-05-02T06:46:52.543Z</time></trkpt><trkpt lat="44.1688267" lon="11.9870167"><ele>133.71428571428572</ele><time>2026-05-02T06:46:56.543Z</time></trkpt><trkpt lat="44.1687883" lon="11.9869467"><ele>133.85714285714286</ele><time>2026-05-02T06:46:59.543Z</time></trkpt><trkpt lat="44.1687517" lon="11.9868683"><ele>134.0</ele><time>2026-05-02T06:47:02.543Z</time></trkpt><trkpt lat="44.1687" lon="11.9868017"><ele>134.0</ele><time>2026-05-02T06:47:06.543Z</time></trkpt><trkpt lat="44.1686583" lon="11.98673"><ele>134.0</ele><time>2026-05-02T06:47:10.543Z</time></trkpt><trkpt lat="44.16861" lon="11.98665"><ele>134.0</ele><time>2026-05-02T06:47:14.543Z</time></trkpt><trkpt lat="44.1685867" lon="11.9865683"><ele>134.0</ele><time>2026-05-02T06:47:17.543Z</time></trkpt><trkpt lat="44.1685267" lon="11.9864983"><ele>134.0</ele><time>2026-05-02T06:47:20.543Z</time></trkpt><trkpt lat="44.16847" lon="11.98643"><ele>134.0</ele><time>2026-05-02T06:47:23.543Z</time></trkpt><trkpt lat="44.168425" lon="11.9863433"><ele>134.0</ele><time>2026-05-02T06:47:26.543Z</time></trkpt><trkpt lat="44.1683667" lon="11.9862567"><ele>135.57142857142858</ele><time>2026-05-02T06:47:29.543Z</time></trkpt><trkpt lat="44.16832" lon="11.98618"><ele>137.14285714285714</ele><time>2026-05-02T06:47:32.543Z</time></trkpt><trkpt lat="44.1682833" lon="11.9860917"><ele>138.71428571428572</ele><time>2026-05-02T06:47:35.543Z</time></trkpt><trkpt lat="44.16825" lon="11.985995"><ele>140.28571428571428</ele><time>2026-05-02T06:47:38.543Z</time></trkpt><trkpt lat="44.16822" lon="11.9859017"><ele>141.85714285714286</ele><time>2026-05-02T06:47:41.543Z</time></trkpt><trkpt lat="44.1681933" lon="11.9857933"><ele>143.42857142857144</ele><time>2026-05-02T06:47:45.543Z</time></trkpt><trkpt lat="44.1681917" lon="11.9857"><ele>145.0</ele><time>2026-05-02T06:47:48.543Z</time></trkpt><trkpt lat="44.1681967" lon="11.9856033"><ele>146.28571428571428</ele><time>2026-05-02T06:47:51.543Z</time></trkpt><trkpt lat="44.1682067" lon="11.9855067"><ele>147.57142857142858</ele><time>2026-05-02T06:47:54.543Z</time></trkpt><trkpt lat="44.1682233" lon="11.985415"><ele>148.85714285714286</ele><time>2026-05-02T06:47:57.543Z</time></trkpt><trkpt lat="44.1682517" lon="11.9853217"><ele>150.14285714285714</ele><time>2026-05-02T06:48:00.543Z</time></trkpt><trkpt lat="44.1682733" lon="11.98523"><ele>151.42857142857144</ele><time>2026-05-02T06:48:03.543Z</time></trkpt><trkpt lat="44.16829" lon="11.98514"><ele>152.71428571428572</ele><time>2026-05-02T06:48:06.543Z</time></trkpt><trkpt lat="44.1683233" lon="11.9850367"><ele>154.0</ele><time>2026-05-02T06:48:10.543Z</time></trkpt><trkpt lat="44.1683433" lon="11.9849417"><ele>154.33333333333334</ele><time>2026-05-02T06:48:13.543Z</time></trkpt><trkpt lat="44.168365" lon="11.9848567"><ele>154.66666666666669</ele><time>2026-05-02T06:48:16.543Z</time></trkpt><trkpt lat="44.1683917" lon="11.98475"><ele>155.0</ele><time>2026-05-02T06:48:19.543Z</time></trkpt><trkpt lat="44.1684217" lon="11.9846383"><ele>155.33333333333334</ele><time>2026-05-02T06:48:22.543Z</time></trkpt><trkpt lat="44.1684517" lon="11.9845283"><ele>155.66666666666666</ele><time>2026-05-02T06:48:25.543Z</time></trkpt><trkpt lat="44.16847" lon="11.9844417"><ele>156.0</ele><time>2026-05-02T06:48:27.543Z</time></trkpt><trkpt lat="44.1684917" lon="11.984325"><ele>156.0</ele><time>2026-05-02T06:48:30.543Z</time></trkpt><trkpt lat="44.1685117" lon="11.984215"><ele>156.0</ele><time>2026-05-02T06:48:33.543Z</time></trkpt><trkpt lat="44.1685433" lon="11.9841067"><ele>156.0</ele><time>2026-05-02T06:48:36.543Z</time></trkpt><trkpt lat="44.1685667" lon="11.983995"><ele>156.0</ele><time>2026-05-02T06:48:39.543Z</time></trkpt><trkpt lat="44.1685883" lon="11.9838767"><ele>156.0</ele><time>2026-05-02T06:48:42.543Z</time></trkpt><trkpt lat="44.16862" lon="11.98376"><ele>156.0</ele><time>2026-05-02T06:48:45.543Z</time></trkpt><trkpt lat="44.16865" lon="11.983655"><ele>156.5</ele><time>2026-05-02T06:48:48.543Z</time></trkpt><trkpt lat="44.1686733" lon="11.98354"><ele>157.0</ele><time>2026-05-02T06:48:51.543Z</time></trkpt><trkpt lat="44.168705" lon="11.983425"><ele>157.5</ele><time>2026-05-02T06:48:54.543Z</time></trkpt><trkpt lat="44.1687383" lon="11.9833033"><ele>158.0</ele><time>2026-05-02T06:48:57.543Z</time></trkpt><trkpt lat="44.1687617" lon="11.9832217"><ele>158.5</ele><time>2026-05-02T06:48:59.543Z</time></trkpt><trkpt lat="44.168795" lon="11.9831133"><ele>159.0</ele><time>2026-05-02T06:49:02.543Z</time></trkpt><trkpt lat="44.16882" lon="11.9830117"><ele>159.83333333333334</ele><time>2026-05-02T06:49:05.543Z</time></trkpt><trkpt lat="44.1688533" lon="11.982905"><ele>160.66666666666666</ele><time>2026-05-02T06:49:08.543Z</time></trkpt><trkpt lat="44.16888" lon="11.9827883"><ele>161.5</ele><time>2026-05-02T06:49:11.543Z</time></trkpt><trkpt lat="44.1689117" lon="11.98267"><ele>162.33333333333331</ele><time>2026-05-02T06:49:14.544Z</time></trkpt><trkpt lat="44.1689417" lon="11.9825517"><ele>163.16666666666666</ele><time>2026-05-02T06:49:17.543Z</time></trkpt><trkpt lat="44.1689583" lon="11.982465"><ele>164.0</ele><time>2026-05-02T06:49:19.543Z</time></trkpt><trkpt lat="44.1689933" lon="11.9823483"><ele>164.16666666666666</ele><time>2026-05-02T06:49:22.544Z</time></trkpt><trkpt lat="44.16901" lon="11.9822367"><ele>164.33333333333331</ele><time>2026-05-02T06:49:25.543Z</time></trkpt><trkpt lat="44.1690383" lon="11.9821067"><ele>164.5</ele><time>2026-05-02T06:49:28.543Z</time></trkpt><trkpt lat="44.1690783" lon="11.9819933"><ele>164.66666666666666</ele><time>2026-05-02T06:49:31.543Z</time></trkpt><trkpt lat="44.1691133" lon="11.9819"><ele>164.83333333333334</ele><time>2026-05-02T06:49:34.543Z</time></trkpt><trkpt lat="44.1691617" lon="11.9818117"><ele>165.0</ele><time>2026-05-02T06:49:37.543Z</time></trkpt><trkpt lat="44.16922" lon="11.9817183"><ele>165.0</ele><time>2026-05-02T06:49:40.543Z</time></trkpt><trkpt lat="44.1692883" lon="11.981635"><ele>165.0</ele><time>2026-05-02T06:49:43.543Z</time></trkpt><trkpt lat="44.169345" lon="11.9815733"><ele>165.0</ele><time>2026-05-02T06:49:45.543Z</time></trkpt><trkpt lat="44.1694117" lon="11.981495"><ele>165.0</ele><time>2026-05-02T06:49:48.543Z</time></trkpt><trkpt lat="44.1694817" lon="11.9814133"><ele>165.0</ele><time>2026-05-02T06:49:51.543Z</time></trkpt><trkpt lat="44.16955" lon="11.9813317"><ele>165.0</ele><time>2026-05-02T06:49:54.543Z</time></trkpt><trkpt lat="44.169615" lon="11.9812483"><ele>165.0</ele><time>2026-05-02T06:49:57.543Z</time></trkpt><trkpt lat="44.16968" lon="11.981175"><ele>165.0</ele><time>2026-05-02T06:50:00.543Z</time></trkpt><trkpt lat="44.1697467" lon="11.9810967"><ele>165.0</ele><time>2026-05-02T06:50:03.543Z</time></trkpt><trkpt lat="44.1698167" lon="11.9810067"><ele>165.0</ele><time>2026-05-02T06:50:06.543Z</time></trkpt><trkpt lat="44.169885" lon="11.9809233"><ele>165.0</ele><time>2026-05-02T06:50:09.544Z</time></trkpt><trkpt lat="44.16995" lon="11.98085"><ele>165.0</ele><time>2026-05-02T06:50:12.543Z</time></trkpt><trkpt lat="44.1700167" lon="11.9807767"><ele>165.16666666666666</ele><time>2026-05-02T06:50:15.543Z</time></trkpt><trkpt lat="44.17008" lon="11.9806983"><ele>165.33333333333334</ele><time>2026-05-02T06:50:18.543Z</time></trkpt><trkpt lat="44.1701283" lon="11.9806383"><ele>165.5</ele><time>2026-05-02T06:50:20.543Z</time></trkpt><trkpt lat="44.1701983" lon="11.98056"><ele>165.66666666666669</ele><time>2026-05-02T06:50:23.543Z</time></trkpt><trkpt lat="44.1702667" lon="11.9804833"><ele>165.83333333333334</ele><time>2026-05-02T06:50:26.543Z</time></trkpt><trkpt lat="44.1703317" lon="11.9804033"><ele>166.0</ele><time>2026-05-02T06:50:29.544Z</time></trkpt><trkpt lat="44.1703933" lon="11.9803267"><ele>166.0</ele><time>2026-05-02T06:50:32.543Z</time></trkpt><trkpt lat="44.1704567" lon="11.980255"><ele>166.0</ele><time>2026-05-02T06:50:35.543Z</time></trkpt><trkpt lat="44.1705117" lon="11.9801917"><ele>166.0</ele><time>2026-05-02T06:50:38.543Z</time></trkpt><trkpt lat="44.1705667" lon="11.9801233"><ele>166.0</ele><time>2026-05-02T06:50:41.543Z</time></trkpt><trkpt lat="44.17062" lon="11.9800633"><ele>166.0</ele><time>2026-05-02T06:50:44.543Z</time></trkpt><trkpt lat="44.1706617" lon="11.9799917"><ele>166.0</ele><time>2026-05-02T06:50:47.543Z</time></trkpt><trkpt lat="44.170705" lon="11.9799233"><ele>166.0</ele><time>2026-05-02T06:50:50.543Z</time></trkpt><trkpt lat="44.1707617" lon="11.9798433"><ele>167.42857142857142</ele><time>2026-05-02T06:50:54.543Z</time></trkpt><trkpt lat="44.1708217" lon="11.9797533"><ele>168.85714285714286</ele><time>2026-05-02T06:50:58.543Z</time></trkpt><trkpt lat="44.1708583" lon="11.9796783"><ele>170.28571428571428</ele><time>2026-05-02T06:51:01.543Z</time></trkpt><trkpt lat="44.1708983" lon="11.9796083"><ele>171.71428571428572</ele><time>2026-05-02T06:51:04.543Z</time></trkpt><trkpt lat="44.17094" lon="11.9795067"><ele>173.14285714285714</ele><time>2026-05-02T06:51:08.543Z</time></trkpt><trkpt lat="44.1709667" lon="11.9794233"><ele>174.57142857142858</ele><time>2026-05-02T06:51:11.543Z</time></trkpt><trkpt lat="44.170995" lon="11.9793417"><ele>176.0</ele><time>2026-05-02T06:51:14.543Z</time></trkpt><trkpt lat="44.171025" lon="11.9792567"><ele>176.71428571428572</ele><time>2026-05-02T06:51:17.543Z</time></trkpt><trkpt lat="44.1710583" lon="11.97918"><ele>177.42857142857142</ele><time>2026-05-02T06:51:20.543Z</time></trkpt><trkpt lat="44.1710933" lon="11.9791033"><ele>178.14285714285714</ele><time>2026-05-02T06:51:23.543Z</time></trkpt><trkpt lat="44.1711217" lon="11.9790117"><ele>178.85714285714286</ele><time>2026-05-02T06:51:27.543Z</time></trkpt><trkpt lat="44.171145" lon="11.9788983"><ele>179.57142857142856</ele><time>2026-05-02T06:51:31.543Z</time></trkpt><trkpt lat="44.1711717" lon="11.9788083"><ele>180.28571428571428</ele><time>2026-05-02T06:51:34.543Z</time></trkpt><trkpt lat="44.1712017" lon="11.9787217"><ele>181.0</ele><time>2026-05-02T06:51:37.543Z</time></trkpt><trkpt lat="44.1712283" lon="11.9786417"><ele>181.0</ele><time>2026-05-02T06:51:40.543Z</time></trkpt><trkpt lat="44.1712633" lon="11.97856"><ele>181.0</ele><time>2026-05-02T06:51:43.543Z</time></trkpt><trkpt lat="44.1713067" lon="11.9784633"><ele>181.0</ele><time>2026-05-02T06:51:47.543Z</time></trkpt><trkpt lat="44.1713383" lon="11.97838"><ele>181.0</ele><time>2026-05-02T06:51:50.543Z</time></trkpt><trkpt lat="44.1713633" lon="11.978285"><ele>181.0</ele><time>2026-05-02T06:51:53.543Z</time></trkpt><trkpt lat="44.1713933" lon="11.9781983"><ele>181.0</ele><time>2026-05-02T06:51:56.543Z</time></trkpt><trkpt lat="44.1714233" lon="11.9781117"><ele>181.0</ele><time>2026-05-02T06:51:59.543Z</time></trkpt><trkpt lat="44.1714417" lon="11.978025"><ele>180.85714285714286</ele><time>2026-05-02T06:52:02.543Z</time></trkpt><trkpt lat="44.17148" lon="11.9779283"><ele>180.71428571428572</ele><time>2026-05-02T06:52:06.543Z</time></trkpt><trkpt lat="44.171505" lon="11.9778417"><ele>180.57142857142856</ele><time>2026-05-02T06:52:09.543Z</time></trkpt><trkpt lat="44.1715367" lon="11.97775"><ele>180.42857142857144</ele><time>2026-05-02T06:52:12.543Z</time></trkpt><trkpt lat="44.1715733" lon="11.9776667"><ele>180.2857142857143</ele><time>2026-05-02T06:52:15.543Z</time></trkpt><trkpt lat="44.171595" lon="11.9775517"><ele>180.14285714285714</ele><time>2026-05-02T06:52:19.543Z</time></trkpt><trkpt lat="44.1716283" lon="11.9774683"><ele>180.0</ele><time>2026-05-02T06:52:22.543Z</time></trkpt><trkpt lat="44.17166" lon="11.9773767"><ele>182.0</ele><time>2026-05-02T06:52:25.543Z</time></trkpt><trkpt lat="44.1716883" lon="11.9772933"><ele>184.0</ele><time>2026-05-02T06:52:28.543Z</time></trkpt><trkpt lat="44.1717317" lon="11.9772083"><ele>186.0</ele><time>2026-05-02T06:52:31.543Z</time></trkpt><trkpt lat="44.1717767" lon="11.977105"><ele>188.0</ele><time>2026-05-02T06:52:34.544Z</time></trkpt><trkpt lat="44.1718083" lon="11.977"><ele>190.0</ele><time>2026-05-02T06:52:37.543Z</time></trkpt><trkpt lat="44.1718433" lon="11.9768983"><ele>192.0</ele><time>2026-05-02T06:52:40.543Z</time></trkpt><trkpt lat="44.1718783" lon="11.9767867"><ele>192.0</ele><time>2026-05-02T06:52:43.543Z</time></trkpt><trkpt lat="44.1719117" lon="11.9766833"><ele>192.0</ele><time>2026-05-02T06:52:46.543Z</time></trkpt><trkpt lat="44.1719517" lon="11.9765833"><ele>192.0</ele><time>2026-05-02T06:52:49.543Z</time></trkpt><trkpt lat="44.1719833" lon="11.9764767"><ele>192.0</ele><time>2026-05-02T06:52:52.543Z</time></trkpt><trkpt lat="44.17203" lon="11.9763667"><ele>192.0</ele><time>2026-05-02T06:52:55.543Z</time></trkpt><trkpt lat="44.172075" lon="11.9762667"><ele>192.0</ele><time>2026-05-02T06:52:58.543Z</time></trkpt><trkpt lat="44.17211" lon="11.9761717"><ele>191.99999999999997</ele><time>2026-05-02T06:53:01.543Z</time></trkpt><trkpt lat="44.17214" lon="11.976085"><ele>192.0</ele><time>2026-05-02T06:53:04.543Z</time></trkpt><trkpt lat="44.1721633" lon="11.9759983"><ele>192.0</ele><time>2026-05-02T06:53:07.543Z</time></trkpt><trkpt lat="44.1721833" lon="11.9759117"><ele>192.0</ele><time>2026-05-02T06:53:10.543Z</time></trkpt><trkpt lat="44.1722117" lon="11.9758167"><ele>192.0</ele><time>2026-05-02T06:53:13.543Z</time></trkpt><trkpt lat="44.1722283" lon="11.9757217"><ele>191.99999999999997</ele><time>2026-05-02T06:53:16.543Z</time></trkpt><trkpt lat="44.172215" lon="11.9756317"><ele>192.0</ele><time>2026-05-02T06:53:19.543Z</time></trkpt><trkpt lat="44.1721917" lon="11.9755317"><ele>192.33333333333334</ele><time>2026-05-02T06:53:22.543Z</time></trkpt><trkpt lat="44.172175" lon="11.975435"><ele>192.66666666666669</ele><time>2026-05-02T06:53:25.543Z</time></trkpt><trkpt lat="44.1721683" lon="11.9753117"><ele>193.0</ele><time>2026-05-02T06:53:29.543Z</time></trkpt><trkpt lat="44.172145" lon="11.9752"><ele>193.33333333333334</ele><time>2026-05-02T06:53:32.543Z</time></trkpt><trkpt lat="44.1721417" lon="11.97511"><ele>193.66666666666669</ele><time>2026-05-02T06:53:34.543Z</time></trkpt><trkpt lat="44.17214" lon="11.97502"><ele>194.0</ele><time>2026-05-02T06:53:36.543Z</time></trkpt><trkpt lat="44.1721267" lon="11.9749"><ele>194.33333333333334</ele><time>2026-05-02T06:53:39.543Z</time></trkpt><trkpt lat="44.1721217" lon="11.9747917"><ele>194.66666666666669</ele><time>2026-05-02T06:53:42.543Z</time></trkpt><trkpt lat="44.1721017" lon="11.9746783"><ele>195.0</ele><time>2026-05-02T06:53:45.543Z</time></trkpt><trkpt lat="44.1720933" lon="11.9745583"><ele>195.33333333333331</ele><time>2026-05-02T06:53:48.543Z</time></trkpt><trkpt lat="44.1720767" lon="11.9744517"><ele>195.66666666666666</ele><time>2026-05-02T06:53:51.543Z</time></trkpt><trkpt lat="44.1720733" lon="11.9743333"><ele>196.0</ele><time>2026-05-02T06:53:54.543Z</time></trkpt><trkpt lat="44.1720633" lon="11.9742433"><ele>196.66666666666666</ele><time>2026-05-02T06:53:57.543Z</time></trkpt><trkpt lat="44.1720533" lon="11.9741533"><ele>197.33333333333331</ele><time>2026-05-02T06:54:00.543Z</time></trkpt><trkpt lat="44.172035" lon="11.9740483"><ele>198.0</ele><time>2026-05-02T06:54:03.543Z</time></trkpt><trkpt lat="44.1720267" lon="11.9739333"><ele>198.66666666666669</ele><time>2026-05-02T06:54:06.543Z</time></trkpt><trkpt lat="44.17201" lon="11.973825"><ele>199.33333333333334</ele><time>2026-05-02T06:54:09.543Z</time></trkpt><trkpt lat="44.17199" lon="11.973695"><ele>200.0</ele><time>2026-05-02T06:54:12.543Z</time></trkpt><trkpt lat="44.1719867" lon="11.973605"><ele>200.00000000000003</ele><time>2026-05-02T06:54:14.543Z</time></trkpt><trkpt lat="44.17197" lon="11.9734883"><ele>200.0</ele><time>2026-05-02T06:54:17.543Z</time></trkpt><trkpt lat="44.1719383" lon="11.9734033"><ele>200.0</ele><time>2026-05-02T06:54:19.543Z</time></trkpt><trkpt lat="44.1719083" lon="11.9733183"><ele>200.0</ele><time>2026-05-02T06:54:21.543Z</time></trkpt><trkpt lat="44.171875" lon="11.9732433"><ele>200.0</ele><time>2026-05-02T06:54:23.543Z</time></trkpt><trkpt lat="44.1718283" lon="11.97318"><ele>200.00000000000003</ele><time>2026-05-02T06:54:25.543Z</time></trkpt><trkpt lat="44.1717733" lon="11.9731183"><ele>200.0</ele><time>2026-05-02T06:54:27.543Z</time></trkpt><trkpt lat="44.1717017" lon="11.9730517"><ele>200.85714285714286</ele><time>2026-05-02T06:54:29.543Z</time></trkpt><trkpt lat="44.171635" lon="11.9729817"><ele>201.71428571428572</ele><time>2026-05-02T06:54:31.543Z</time></trkpt><trkpt lat="44.1715683" lon="11.9729233"><ele>202.57142857142856</ele><time>2026-05-02T06:54:33.543Z</time></trkpt><trkpt lat="44.1715083" lon="11.972865"><ele>203.42857142857144</ele><time>2026-05-02T06:54:35.543Z</time></trkpt><trkpt lat="44.171455" lon="11.9727933"><ele>204.28571428571428</ele><time>2026-05-02T06:54:37.543Z</time></trkpt><trkpt lat="44.171405" lon="11.9727333"><ele>205.14285714285714</ele><time>2026-05-02T06:54:39.543Z</time></trkpt><trkpt lat="44.17135" lon="11.972665"><ele>206.0</ele><time>2026-05-02T06:54:41.543Z</time></trkpt><trkpt lat="44.17129" lon="11.9726017"><ele>205.4</ele><time>2026-05-02T06:54:43.543Z</time></trkpt><trkpt lat="44.1712267" lon="11.9725233"><ele>204.8</ele><time>2026-05-02T06:54:45.543Z</time></trkpt><trkpt lat="44.17116" lon="11.9724267"><ele>204.20000000000002</ele><time>2026-05-02T06:54:47.543Z</time></trkpt><trkpt lat="44.1710833" lon="11.9723267"><ele>203.60000000000002</ele><time>2026-05-02T06:54:49.543Z</time></trkpt><trkpt lat="44.1709983" lon="11.9722033"><ele>203.0</ele><time>2026-05-02T06:54:51.543Z</time></trkpt><trkpt lat="44.1709567" lon="11.9721317"><ele>203.00000000000003</ele><time>2026-05-02T06:54:52.543Z</time></trkpt><trkpt lat="44.170915" lon="11.9720583"><ele>203.0</ele><time>2026-05-02T06:54:53.543Z</time></trkpt><trkpt lat="44.1708717" lon="11.9719817"><ele>203.0</ele><time>2026-05-02T06:54:54.543Z</time></trkpt><trkpt lat="44.17083" lon="11.9718933"><ele>203.0</ele><time>2026-05-02T06:54:55.543Z</time></trkpt><trkpt lat="44.17079" lon="11.9718017"><ele>203.00000000000003</ele><time>2026-05-02T06:54:56.543Z</time></trkpt><trkpt lat="44.1707517" lon="11.971705"><ele>203.0</ele><time>2026-05-02T06:54:57.543Z</time></trkpt><trkpt lat="44.170715" lon="11.9716033"><ele>200.33333333333334</ele><time>2026-05-02T06:54:58.543Z</time></trkpt><trkpt lat="44.17069" lon="11.9714933"><ele>197.66666666666669</ele><time>2026-05-02T06:54:59.543Z</time></trkpt><trkpt lat="44.17067" lon="11.9713783"><ele>195.0</ele><time>2026-05-02T06:55:00.543Z</time></trkpt><trkpt lat="44.1706517" lon="11.9712633"><ele>192.33333333333334</ele><time>2026-05-02T06:55:01.543Z</time></trkpt><trkpt lat="44.1706367" lon="11.9711417"><ele>189.66666666666669</ele><time>2026-05-02T06:55:02.543Z</time></trkpt><trkpt lat="44.1706233" lon="11.9710183"><ele>187.0</ele><time>2026-05-02T06:55:03.543Z</time></trkpt><trkpt lat="44.1706117" lon="11.97089"><ele>187.6</ele><time>2026-05-02T06:55:04.543Z</time></trkpt><trkpt lat="44.1705967" lon="11.9707667"><ele>188.2</ele><time>2026-05-02T06:55:05.543Z</time></trkpt><trkpt lat="44.1705833" lon="11.9706383"><ele>188.8</ele><time>2026-05-02T06:55:06.543Z</time></trkpt><trkpt lat="44.1705667" lon="11.9705133"><ele>189.4</ele><time>2026-05-02T06:55:07.544Z</time></trkpt><trkpt lat="44.1705533" lon="11.9703717"><ele>190.0</ele><time>2026-05-02T06:55:08.544Z</time></trkpt><trkpt lat="44.1705433" lon="11.97024"><ele>190.0</ele><time>2026-05-02T06:55:09.543Z</time></trkpt><trkpt lat="44.17053" lon="11.9701083"><ele>190.0</ele><time>2026-05-02T06:55:10.543Z</time></trkpt><trkpt lat="44.1705133" lon="11.9699767"><ele>190.0</ele><time>2026-05-02T06:55:11.543Z</time></trkpt><trkpt lat="44.1705017" lon="11.969845"><ele>190.0</ele><time>2026-05-02T06:55:12.543Z</time></trkpt><trkpt lat="44.1704917" lon="11.9697167"><ele>190.0</ele><time>2026-05-02T06:55:13.543Z</time></trkpt><trkpt lat="44.17048" lon="11.96959"><ele>190.0</ele><time>2026-05-02T06:55:14.543Z</time></trkpt><trkpt lat="44.1704583" lon="11.9694633"><ele>190.0</ele><time>2026-05-02T06:55:15.543Z</time></trkpt><trkpt lat="44.1704317" lon="11.9693433"><ele>190.0</ele><time>2026-05-02T06:55:16.543Z</time></trkpt><trkpt lat="44.1703883" lon="11.9692233"><ele>190.0</ele><time>2026-05-02T06:55:17.543Z</time></trkpt><trkpt lat="44.1703383" lon="11.9691133"><ele>190.0</ele><time>2026-05-02T06:55:18.543Z</time></trkpt><trkpt lat="44.1702833" lon="11.9690133"><ele>190.66666666666669</ele><time>2026-05-02T06:55:19.543Z</time></trkpt><trkpt lat="44.1702233" lon="11.9689217"><ele>191.33333333333334</ele><time>2026-05-02T06:55:20.543Z</time></trkpt><trkpt lat="44.1701667" lon="11.96883"><ele>192.0</ele><time>2026-05-02T06:55:21.543Z</time></trkpt><trkpt lat="44.170105" lon="11.96875"><ele>192.66666666666669</ele><time>2026-05-02T06:55:22.543Z</time></trkpt><trkpt lat="44.170035" lon="11.968685"><ele>193.33333333333334</ele><time>2026-05-02T06:55:23.543Z</time></trkpt><trkpt lat="44.1699667" lon="11.96863"><ele>194.0</ele><time>2026-05-02T06:55:24.543Z</time></trkpt><trkpt lat="44.1698983" lon="11.9685833"><ele>193.83333333333334</ele><time>2026-05-02T06:55:25.543Z</time></trkpt><trkpt lat="44.16983" lon="11.9685433"><ele>193.66666666666669</ele><time>2026-05-02T06:55:26.543Z</time></trkpt><trkpt lat="44.1697667" lon="11.9685083"><ele>193.5</ele><time>2026-05-02T06:55:27.543Z</time></trkpt><trkpt lat="44.1697" lon="11.9684833"><ele>193.33333333333331</ele><time>2026-05-02T06:55:28.543Z</time></trkpt><trkpt lat="44.1696367" lon="11.96846"><ele>193.16666666666666</ele><time>2026-05-02T06:55:29.543Z</time></trkpt><trkpt lat="44.1695317" lon="11.9684233"><ele>193.0</ele><time>2026-05-02T06:55:31.543Z</time></trkpt><trkpt lat="44.169455" lon="11.9683967"><ele>193.00000000000003</ele><time>2026-05-02T06:55:33.543Z</time></trkpt><trkpt lat="44.169385" lon="11.968375"><ele>193.0</ele><time>2026-05-02T06:55:35.544Z</time></trkpt><trkpt lat="44.1693167" lon="11.9683467"><ele>193.0</ele><time>2026-05-02T06:55:37.543Z</time></trkpt><trkpt lat="44.1692483" lon="11.9683183"><ele>193.0</ele><time>2026-05-02T06:55:39.543Z</time></trkpt><trkpt lat="44.16918" lon="11.9682967"><ele>193.0</ele><time>2026-05-02T06:55:41.543Z</time></trkpt><trkpt lat="44.1691167" lon="11.96827"><ele>193.00000000000003</ele><time>2026-05-02T06:55:43.543Z</time></trkpt><trkpt lat="44.1690583" lon="11.968225"><ele>193.0</ele><time>2026-05-02T06:55:45.543Z</time></trkpt><trkpt lat="44.168995" lon="11.9681833"><ele>195.42857142857144</ele><time>2026-05-02T06:55:47.543Z</time></trkpt><trkpt lat="44.1689333" lon="11.9681417"><ele>197.85714285714286</ele><time>2026-05-02T06:55:49.543Z</time></trkpt><trkpt lat="44.1688767" lon="11.968095"><ele>200.28571428571428</ele><time>2026-05-02T06:55:51.543Z</time></trkpt><trkpt lat="44.1688217" lon="11.9680467"><ele>202.71428571428572</ele><time>2026-05-02T06:55:53.543Z</time></trkpt><trkpt lat="44.1687633" lon="11.9679883"><ele>205.14285714285714</ele><time>2026-05-02T06:55:55.543Z</time></trkpt><trkpt lat="44.1687183" lon="11.9679183"><ele>207.57142857142858</ele><time>2026-05-02T06:55:57.543Z</time></trkpt><trkpt lat="44.1686667" lon="11.967845"><ele>210.0</ele><time>2026-05-02T06:55:59.543Z</time></trkpt><trkpt lat="44.1686217" lon="11.9677767"><ele>210.0</ele><time>2026-05-02T06:56:01.543Z</time></trkpt><trkpt lat="44.1685533" lon="11.9676967"><ele>210.0</ele><time>2026-05-02T06:56:04.543Z</time></trkpt><trkpt lat="44.168475" lon="11.967635"><ele>210.0</ele><time>2026-05-02T06:56:07.543Z</time></trkpt><trkpt lat="44.168415" lon="11.96759"><ele>210.0</ele><time>2026-05-02T06:56:09.543Z</time></trkpt><trkpt lat="44.1683567" lon="11.967555"><ele>210.0</ele><time>2026-05-02T06:56:11.543Z</time></trkpt><trkpt lat="44.1682933" lon="11.9675267"><ele>210.0</ele><time>2026-05-02T06:56:13.543Z</time></trkpt><trkpt lat="44.1682217" lon="11.967475"><ele>211.5</ele><time>2026-05-02T06:56:16.543Z</time></trkpt><trkpt lat="44.1681433" lon="11.9674067"><ele>213.0</ele><time>2026-05-02T06:56:19.543Z</time></trkpt><trkpt lat="44.16807" lon="11.96734"><ele>214.5</ele><time>2026-05-02T06:56:22.543Z</time></trkpt><trkpt lat="44.168005" lon="11.96726"><ele>216.0</ele><time>2026-05-02T06:56:25.544Z</time></trkpt><trkpt lat="44.167945" lon="11.9671633"><ele>217.5</ele><time>2026-05-02T06:56:28.543Z</time></trkpt><trkpt lat="44.1678967" lon="11.9670617"><ele>219.0</ele><time>2026-05-02T06:56:31.543Z</time></trkpt><trkpt lat="44.1678483" lon="11.9669567"><ele>219.0</ele><time>2026-05-02T06:56:34.543Z</time></trkpt><trkpt lat="44.1677933" lon="11.96685"><ele>219.0</ele><time>2026-05-02T06:56:37.543Z</time></trkpt><trkpt lat="44.1677467" lon="11.9667767"><ele>219.0</ele><time>2026-05-02T06:56:39.543Z</time></trkpt><trkpt lat="44.16769" lon="11.9667217"><ele>219.0</ele><time>2026-05-02T06:56:41.543Z</time></trkpt><trkpt lat="44.167625" lon="11.966665"><ele>219.0</ele><time>2026-05-02T06:56:43.543Z</time></trkpt><trkpt lat="44.1675533" lon="11.9666217"><ele>219.0</ele><time>2026-05-02T06:56:45.543Z</time></trkpt><trkpt lat="44.1674833" lon="11.9665783"><ele>217.83333333333334</ele><time>2026-05-02T06:56:47.543Z</time></trkpt><trkpt lat="44.16741" lon="11.9665367"><ele>216.66666666666669</ele><time>2026-05-02T06:56:49.543Z</time></trkpt><trkpt lat="44.1673383" lon="11.9665017"><ele>215.5</ele><time>2026-05-02T06:56:51.543Z</time></trkpt><trkpt lat="44.16726" lon="11.9664633"><ele>214.33333333333334</ele><time>2026-05-02T06:56:53.543Z</time></trkpt><trkpt lat="44.16719" lon="11.96642"><ele>213.16666666666669</ele><time>2026-05-02T06:56:55.543Z</time></trkpt><trkpt lat="44.16711" lon="11.966375"><ele>212.0</ele><time>2026-05-02T06:56:57.544Z</time></trkpt><trkpt lat="44.167035" lon="11.966335"><ele>212.00000000000003</ele><time>2026-05-02T06:56:59.543Z</time></trkpt><trkpt lat="44.1669767" lon="11.9662883"><ele>212.0</ele><time>2026-05-02T06:57:01.543Z</time></trkpt><trkpt lat="44.1669083" lon="11.9662283"><ele>212.0</ele><time>2026-05-02T06:57:04.543Z</time></trkpt><trkpt lat="44.1668683" lon="11.9661333"><ele>212.0</ele><time>2026-05-02T06:57:38.543Z</time></trkpt><trkpt lat="44.1668567" lon="11.9660417"><ele>212.00000000000003</ele><time>2026-05-02T06:57:40.543Z</time></trkpt><trkpt lat="44.166855" lon="11.965915"><ele>212.0</ele><time>2026-05-02T06:57:42.543Z</time></trkpt><trkpt lat="44.166855" lon="11.9657533"><ele>210.00000000000003</ele><time>2026-05-02T06:57:44.543Z</time></trkpt><trkpt lat="44.1668533" lon="11.9656583"><ele>208.0</ele><time>2026-05-02T06:57:45.543Z</time></trkpt><trkpt lat="44.1668517" lon="11.9655567"><ele>206.0</ele><time>2026-05-02T06:57:46.543Z</time></trkpt><trkpt lat="44.1668533" lon="11.9654483"><ele>204.0</ele><time>2026-05-02T06:57:47.543Z</time></trkpt><trkpt lat="44.166855" lon="11.965335"><ele>202.00000000000003</ele><time>2026-05-02T06:57:48.543Z</time></trkpt><trkpt lat="44.1668517" lon="11.96522"><ele>200.0</ele><time>2026-05-02T06:57:49.543Z</time></trkpt><trkpt lat="44.16685" lon="11.9651033"><ele>199.0</ele><time>2026-05-02T06:57:50.543Z</time></trkpt><trkpt lat="44.16684" lon="11.96498"><ele>198.0</ele><time>2026-05-02T06:57:51.543Z</time></trkpt><trkpt lat="44.166835" lon="11.96485"><ele>197.0</ele><time>2026-05-02T06:57:52.543Z</time></trkpt><trkpt lat="44.1668367" lon="11.9647183"><ele>196.0</ele><time>2026-05-02T06:57:53.543Z</time></trkpt><trkpt lat="44.1668317" lon="11.9645867"><ele>195.0</ele><time>2026-05-02T06:57:54.543Z</time></trkpt><trkpt lat="44.166825" lon="11.96446"><ele>195.0</ele><time>2026-05-02T06:57:55.543Z</time></trkpt><trkpt lat="44.166815" lon="11.9643317"><ele>195.0</ele><time>2026-05-02T06:57:56.543Z</time></trkpt><trkpt lat="44.1668017" lon="11.9642083"><ele>195.0</ele><time>2026-05-02T06:57:57.543Z</time></trkpt><trkpt lat="44.1667867" lon="11.9640883"><ele>195.0</ele><time>2026-05-02T06:57:58.543Z</time></trkpt><trkpt lat="44.1667617" lon="11.9639733"><ele>195.0</ele><time>2026-05-02T06:57:59.543Z</time></trkpt><trkpt lat="44.1667383" lon="11.963855"><ele>195.0</ele><time>2026-05-02T06:58:00.543Z</time></trkpt><trkpt lat="44.1667083" lon="11.96374"><ele>194.2</ele><time>2026-05-02T06:58:01.543Z</time></trkpt><trkpt lat="44.1666817" lon="11.9636283"><ele>193.4</ele><time>2026-05-02T06:58:02.543Z</time></trkpt><trkpt lat="44.1666567" lon="11.9635183"><ele>192.60000000000002</ele><time>2026-05-02T06:58:03.543Z</time></trkpt><trkpt lat="44.1666317" lon="11.9634217"><ele>191.8</ele><time>2026-05-02T06:58:04.543Z</time></trkpt><trkpt lat="44.1665967" lon="11.9632583"><ele>191.0</ele><time>2026-05-02T06:58:06.543Z</time></trkpt><trkpt lat="44.166585" lon="11.9631117"><ele>190.75</ele><time>2026-05-02T06:58:08.544Z</time></trkpt><trkpt lat="44.166645" lon="11.9629933"><ele>190.5</ele><time>2026-05-02T06:58:10.543Z</time></trkpt><trkpt lat="44.16676" lon="11.9629767"><ele>190.25</ele><time>2026-05-02T06:58:12.543Z</time></trkpt><trkpt lat="44.1668783" lon="11.9629883"><ele>190.0</ele><time>2026-05-02T06:58:14.543Z</time></trkpt><trkpt lat="44.1670017" lon="11.9629967"><ele>190.0</ele><time>2026-05-02T06:58:16.543Z</time></trkpt><trkpt lat="44.1671283" lon="11.9630183"><ele>190.0</ele><time>2026-05-02T06:58:18.543Z</time></trkpt><trkpt lat="44.167195" lon="11.9630467"><ele>190.0</ele><time>2026-05-02T06:58:19.543Z</time></trkpt><trkpt lat="44.1672633" lon="11.9630783"><ele>190.0</ele><time>2026-05-02T06:58:20.543Z</time></trkpt><trkpt lat="44.167325" lon="11.9631083"><ele>190.0</ele><time>2026-05-02T06:58:21.543Z</time></trkpt><trkpt lat="44.1674317" lon="11.9631183"><ele>190.0</ele><time>2026-05-02T06:58:23.543Z</time></trkpt><trkpt lat="44.1674867" lon="11.9630067"><ele>190.0</ele><time>2026-05-02T06:58:25.543Z</time></trkpt><trkpt lat="44.1674417" lon="11.9628617"><ele>190.0</ele><time>2026-05-02T06:58:27.543Z</time></trkpt><trkpt lat="44.167395" lon="11.9627967"><ele>190.0</ele><time>2026-05-02T06:58:28.544Z</time></trkpt><trkpt lat="44.16735" lon="11.9627317"><ele>190.0</ele><time>2026-05-02T06:58:29.543Z</time></trkpt><trkpt lat="44.1673083" lon="11.9626017"><ele>190.0</ele><time>2026-05-02T06:58:31.543Z</time></trkpt><trkpt lat="44.16736" lon="11.9624867"><ele>190.0</ele><time>2026-05-02T06:58:33.543Z</time></trkpt><trkpt lat="44.1674283" lon="11.9624883"><ele>188.85714285714286</ele><time>2026-05-02T06:58:34.543Z</time></trkpt><trkpt lat="44.167495" lon="11.96252"><ele>187.71428571428572</ele><time>2026-05-02T06:58:35.543Z</time></trkpt><trkpt lat="44.16756" lon="11.962555"><ele>186.57142857142856</ele><time>2026-05-02T06:58:36.543Z</time></trkpt><trkpt lat="44.1676233" lon="11.96259"><ele>185.42857142857144</ele><time>2026-05-02T06:58:37.543Z</time></trkpt><trkpt lat="44.167685" lon="11.9626333"><ele>184.28571428571428</ele><time>2026-05-02T06:58:38.543Z</time></trkpt><trkpt lat="44.1677467" lon="11.9626767"><ele>183.14285714285714</ele><time>2026-05-02T06:58:39.544Z</time></trkpt><trkpt lat="44.1678167" lon="11.962725"><ele>182.0</ele><time>2026-05-02T06:58:40.543Z</time></trkpt><trkpt lat="44.1678833" lon="11.962765"><ele>182.0</ele><time>2026-05-02T06:58:41.543Z</time></trkpt><trkpt lat="44.1679483" lon="11.9627983"><ele>182.0</ele><time>2026-05-02T06:58:42.543Z</time></trkpt><trkpt lat="44.16801" lon="11.96282"><ele>182.0</ele><time>2026-05-02T06:58:43.543Z</time></trkpt><trkpt lat="44.1681167" lon="11.9627917"><ele>182.0</ele><time>2026-05-02T06:58:45.543Z</time></trkpt><trkpt lat="44.1681567" lon="11.9626533"><ele>182.0</ele><time>2026-05-02T06:58:47.543Z</time></trkpt><trkpt lat="44.1681267" lon="11.962565"><ele>182.0</ele><time>2026-05-02T06:58:48.543Z</time></trkpt><trkpt lat="44.1680817" lon="11.9624833"><ele>181.0</ele><time>2026-05-02T06:58:49.543Z</time></trkpt><trkpt lat="44.1680333" lon="11.9624067"><ele>180.0</ele><time>2026-05-02T06:58:50.544Z</time></trkpt><trkpt lat="44.1679833" lon="11.9623267"><ele>179.0</ele><time>2026-05-02T06:58:51.543Z</time></trkpt><trkpt lat="44.16794" lon="11.962245"><ele>178.0</ele><time>2026-05-02T06:58:52.543Z</time></trkpt><trkpt lat="44.1678983" lon="11.9621667"><ele>177.0</ele><time>2026-05-02T06:58:53.543Z</time></trkpt><trkpt lat="44.1678333" lon="11.9620383"><ele>176.0</ele><time>2026-05-02T06:58:55.543Z</time></trkpt><trkpt lat="44.167845" lon="11.961905"><ele>176.0</ele><time>2026-05-02T06:58:57.543Z</time></trkpt><trkpt lat="44.1679433" lon="11.9618633"><ele>176.0</ele><time>2026-05-02T06:58:59.543Z</time></trkpt><trkpt lat="44.1680583" lon="11.9619233"><ele>176.0</ele><time>2026-05-02T06:59:01.543Z</time></trkpt><trkpt lat="44.1681567" lon="11.9620117"><ele>176.0</ele><time>2026-05-02T06:59:03.543Z</time></trkpt><trkpt lat="44.1682633" lon="11.96211"><ele>173.83333333333331</ele><time>2026-05-02T06:59:05.543Z</time></trkpt><trkpt lat="44.1683167" lon="11.9621667"><ele>171.66666666666666</ele><time>2026-05-02T06:59:06.543Z</time></trkpt><trkpt lat="44.16837" lon="11.962225"><ele>169.5</ele><time>2026-05-02T06:59:07.543Z</time></trkpt><trkpt lat="44.1684267" lon="11.96227"><ele>167.33333333333334</ele><time>2026-05-02T06:59:08.543Z</time></trkpt><trkpt lat="44.1684867" lon="11.9622967"><ele>165.16666666666669</ele><time>2026-05-02T06:59:09.543Z</time></trkpt><trkpt lat="44.168595" lon="11.9622633"><ele>163.0</ele><time>2026-05-02T06:59:11.543Z</time></trkpt><trkpt lat="44.16864" lon="11.96213"><ele>163.0</ele><time>2026-05-02T06:59:13.543Z</time></trkpt><trkpt lat="44.1686167" lon="11.9620467"><ele>163.0</ele><time>2026-05-02T06:59:14.543Z</time></trkpt><trkpt lat="44.1685767" lon="11.9619767"><ele>163.0</ele><time>2026-05-02T06:59:15.543Z</time></trkpt><trkpt lat="44.1685333" lon="11.96191"><ele>163.0</ele><time>2026-05-02T06:59:16.544Z</time></trkpt><trkpt lat="44.1684417" lon="11.9617883"><ele>163.0</ele><time>2026-05-02T06:59:18.543Z</time></trkpt><trkpt lat="44.1683967" lon="11.9617183"><ele>163.0</ele><time>2026-05-02T06:59:19.543Z</time></trkpt><trkpt lat="44.168355" lon="11.9616433"><ele>162.71428571428572</ele><time>2026-05-02T06:59:20.543Z</time></trkpt><trkpt lat="44.16831" lon="11.9615733"><ele>162.42857142857142</ele><time>2026-05-02T06:59:21.543Z</time></trkpt><trkpt lat="44.168265" lon="11.9614983"><ele>162.14285714285714</ele><time>2026-05-02T06:59:22.544Z</time></trkpt><trkpt lat="44.1682233" lon="11.9614217"><ele>161.85714285714286</ele><time>2026-05-02T06:59:23.543Z</time></trkpt><trkpt lat="44.1681783" lon="11.9613433"><ele>161.57142857142856</ele><time>2026-05-02T06:59:24.543Z</time></trkpt><trkpt lat="44.1681267" lon="11.9612767"><ele>161.28571428571428</ele><time>2026-05-02T06:59:25.543Z</time></trkpt><trkpt lat="44.1680767" lon="11.9612083"><ele>161.0</ele><time>2026-05-02T06:59:26.544Z</time></trkpt><trkpt lat="44.1679933" lon="11.9610917"><ele>161.0</ele><time>2026-05-02T06:59:28.543Z</time></trkpt><trkpt lat="44.1679633" lon="11.96095"><ele>161.0</ele><time>2026-05-02T06:59:30.543Z</time></trkpt><trkpt lat="44.1680117" lon="11.960815"><ele>161.0</ele><time>2026-05-02T06:59:32.543Z</time></trkpt><trkpt lat="44.1681217" lon="11.9608067"><ele>161.0</ele><time>2026-05-02T06:59:34.543Z</time></trkpt><trkpt lat="44.1681783" lon="11.9608517"><ele>161.0</ele><time>2026-05-02T06:59:35.543Z</time></trkpt><trkpt lat="44.1682333" lon="11.96091"><ele>159.5</ele><time>2026-05-02T06:59:36.543Z</time></trkpt><trkpt lat="44.1682833" lon="11.9609767"><ele>158.0</ele><time>2026-05-02T06:59:37.543Z</time></trkpt><trkpt lat="44.1683317" lon="11.9610433"><ele>156.5</ele><time>2026-05-02T06:59:38.543Z</time></trkpt><trkpt lat="44.1683817" lon="11.9611133"><ele>155.0</ele><time>2026-05-02T06:59:39.543Z</time></trkpt><trkpt lat="44.1684283" lon="11.961175"><ele>153.5</ele><time>2026-05-02T06:59:40.543Z</time></trkpt><trkpt lat="44.1685333" lon="11.961255"><ele>152.0</ele><time>2026-05-02T06:59:42.544Z</time></trkpt><trkpt lat="44.1685967" lon="11.9612633"><ele>152.0</ele><time>2026-05-02T06:59:43.543Z</time></trkpt><trkpt lat="44.1687117" lon="11.9612017"><ele>152.0</ele><time>2026-05-02T06:59:45.543Z</time></trkpt><trkpt lat="44.16874" lon="11.9611233"><ele>152.0</ele><time>2026-05-02T06:59:46.543Z</time></trkpt><trkpt lat="44.16871" lon="11.96096"><ele>152.0</ele><time>2026-05-02T06:59:48.543Z</time></trkpt><trkpt lat="44.1686583" lon="11.9608883"><ele>152.0</ele><time>2026-05-02T06:59:49.543Z</time></trkpt><trkpt lat="44.168595" lon="11.960825"><ele>150.83333333333331</ele><time>2026-05-02T06:59:50.543Z</time></trkpt><trkpt lat="44.1685367" lon="11.96077"><ele>149.66666666666666</ele><time>2026-05-02T06:59:51.543Z</time></trkpt><trkpt lat="44.1684783" lon="11.9607233"><ele>148.5</ele><time>2026-05-02T06:59:52.543Z</time></trkpt><trkpt lat="44.1684233" lon="11.960675"><ele>147.33333333333334</ele><time>2026-05-02T06:59:53.543Z</time></trkpt><trkpt lat="44.168315" lon="11.9605933"><ele>146.16666666666669</ele><time>2026-05-02T06:59:55.543Z</time></trkpt><trkpt lat="44.1682167" lon="11.9605133"><ele>145.0</ele><time>2026-05-02T06:59:57.543Z</time></trkpt><trkpt lat="44.1681717" lon="11.960385"><ele>144.0</ele><time>2026-05-02T06:59:59.543Z</time></trkpt><trkpt lat="44.1682283" lon="11.9602767"><ele>143.0</ele><time>2026-05-02T07:00:01.543Z</time></trkpt><trkpt lat="44.1683417" lon="11.960285"><ele>142.0</ele><time>2026-05-02T07:00:03.543Z</time></trkpt><trkpt lat="44.1684017" lon="11.9603333"><ele>141.0</ele><time>2026-05-02T07:00:04.543Z</time></trkpt><trkpt lat="44.16846" lon="11.960385"><ele>140.0</ele><time>2026-05-02T07:00:05.543Z</time></trkpt><trkpt lat="44.1685133" lon="11.9604417"><ele>139.0</ele><time>2026-05-02T07:00:06.543Z</time></trkpt><trkpt lat="44.1685683" lon="11.9605"><ele>139.0</ele><time>2026-05-02T07:00:07.543Z</time></trkpt><trkpt lat="44.1686217" lon="11.96056"><ele>139.0</ele><time>2026-05-02T07:00:08.543Z</time></trkpt><trkpt lat="44.1686767" lon="11.9606033"><ele>139.0</ele><time>2026-05-02T07:00:09.543Z</time></trkpt><trkpt lat="44.1687967" lon="11.9606217"><ele>139.0</ele><time>2026-05-02T07:00:11.543Z</time></trkpt><trkpt lat="44.1688517" lon="11.9605767"><ele>139.0</ele><time>2026-05-02T07:00:12.543Z</time></trkpt><trkpt lat="44.1688883" lon="11.9604283"><ele>139.0</ele><time>2026-05-02T07:00:14.543Z</time></trkpt><trkpt lat="44.1688183" lon="11.9603033"><ele>139.0</ele><time>2026-05-02T07:00:16.543Z</time></trkpt><trkpt lat="44.1687617" lon="11.960255"><ele>139.0</ele><time>2026-05-02T07:00:17.543Z</time></trkpt><trkpt lat="44.1686983" lon="11.9602117"><ele>139.0</ele><time>2026-05-02T07:00:18.543Z</time></trkpt><trkpt lat="44.168635" lon="11.9601667"><ele>139.0</ele><time>2026-05-02T07:00:19.543Z</time></trkpt><trkpt lat="44.1685717" lon="11.960125"><ele>139.0</ele><time>2026-05-02T07:00:20.543Z</time></trkpt><trkpt lat="44.1685167" lon="11.9600817"><ele>139.0</ele><time>2026-05-02T07:00:21.543Z</time></trkpt><trkpt lat="44.1684333" lon="11.95997"><ele>136.33333333333334</ele><time>2026-05-02T07:00:23.543Z</time></trkpt><trkpt lat="44.16845" lon="11.959825"><ele>133.66666666666669</ele><time>2026-05-02T07:00:25.543Z</time></trkpt><trkpt lat="44.168555" lon="11.95977"><ele>131.0</ele><time>2026-05-02T07:00:27.543Z</time></trkpt><trkpt lat="44.168625" lon="11.95979"><ele>128.33333333333334</ele><time>2026-05-02T07:00:28.543Z</time></trkpt><trkpt lat="44.168685" lon="11.95982"><ele>125.66666666666667</ele><time>2026-05-02T07:00:29.543Z</time></trkpt><trkpt lat="44.16875" lon="11.95985"><ele>123.0</ele><time>2026-05-02T07:00:30.543Z</time></trkpt><trkpt lat="44.168815" lon="11.9598783"><ele>123.0</ele><time>2026-05-02T07:00:31.543Z</time></trkpt><trkpt lat="44.1688817" lon="11.9599083"><ele>123.00000000000001</ele><time>2026-05-02T07:00:32.543Z</time></trkpt><trkpt lat="44.1689533" lon="11.9599367"><ele>123.00000000000001</ele><time>2026-05-02T07:00:33.544Z</time></trkpt><trkpt lat="44.1690683" lon="11.9601317"><ele>123.0</ele><time>2026-05-02T07:00:34.587Z</time></trkpt><trkpt lat="44.169145" lon="11.9600083"><ele>123.0</ele><time>2026-05-02T07:00:36.04Z</time></trkpt><trkpt lat="44.1692383" lon="11.9599033"><ele>123.0</ele><time>2026-05-02T07:00:38.54Z</time></trkpt><trkpt lat="44.1692367" lon="11.9597567"><ele>123.0</ele><time>2026-05-02T07:00:40.54Z</time></trkpt><trkpt lat="44.1691817" lon="11.9596083"><ele>123.0</ele><time>2026-05-02T07:00:42.541Z</time></trkpt><trkpt lat="44.1691383" lon="11.9595333"><ele>123.0</ele><time>2026-05-02T07:00:43.54Z</time></trkpt><trkpt lat="44.1690083" lon="11.95927"><ele>121.0</ele><time>2026-05-02T07:00:44.584Z</time></trkpt><trkpt lat="44.168885" lon="11.9591467"><ele>119.00000000000001</ele><time>2026-05-02T07:00:48.541Z</time></trkpt><trkpt lat="44.1688283" lon="11.9590633"><ele>117.00000000000001</ele><time>2026-05-02T07:00:49.541Z</time></trkpt><trkpt lat="44.1687733" lon="11.9589817"><ele>115.0</ele><time>2026-05-02T07:00:50.541Z</time></trkpt><trkpt lat="44.1687317" lon="11.9588967"><ele>113.0</ele><time>2026-05-02T07:00:51.541Z</time></trkpt><trkpt lat="44.168675" lon="11.9587617"><ele>112.99999999999999</ele><time>2026-05-02T07:00:53.541Z</time></trkpt><trkpt lat="44.1686717" lon="11.9586433"><ele>113.0</ele><time>2026-05-02T07:00:55.541Z</time></trkpt><trkpt lat="44.1687317" lon="11.9585433"><ele>113.0</ele><time>2026-05-02T07:00:57.542Z</time></trkpt><trkpt lat="44.16884" lon="11.958475"><ele>113.0</ele><time>2026-05-02T07:00:59.542Z</time></trkpt><trkpt lat="44.168905" lon="11.9584417"><ele>112.99999999999999</ele><time>2026-05-02T07:01:00.541Z</time></trkpt><trkpt lat="44.1689817" lon="11.95841"><ele>113.0</ele><time>2026-05-02T07:01:01.541Z</time></trkpt><trkpt lat="44.1690517" lon="11.9583783"><ele>110.2</ele><time>2026-05-02T07:01:02.541Z</time></trkpt><trkpt lat="44.16912" lon="11.9583483"><ele>107.4</ele><time>2026-05-02T07:01:03.541Z</time></trkpt><trkpt lat="44.1692317" lon="11.9583"><ele>104.60000000000001</ele><time>2026-05-02T07:01:05.541Z</time></trkpt><trkpt lat="44.16934" lon="11.9582633"><ele>101.80000000000001</ele><time>2026-05-02T07:01:07.541Z</time></trkpt><trkpt lat="44.1694183" lon="11.9582417"><ele>99.0</ele><time>2026-05-02T07:01:09.541Z</time></trkpt><trkpt lat="44.1694883" lon="11.9582083"><ele>99.0</ele><time>2026-05-02T07:01:11.541Z</time></trkpt><trkpt lat="44.1695483" lon="11.9581717"><ele>99.0</ele><time>2026-05-02T07:01:13.542Z</time></trkpt><trkpt lat="44.1696083" lon="11.9581117"><ele>99.0</ele><time>2026-05-02T07:01:15.541Z</time></trkpt><trkpt lat="44.1696417" lon="11.958"><ele>99.0</ele><time>2026-05-02T07:01:17.541Z</time></trkpt><trkpt lat="44.1696383" lon="11.957865"><ele>99.0</ele><time>2026-05-02T07:01:19.542Z</time></trkpt><trkpt lat="44.1695883" lon="11.957745"><ele>99.0</ele><time>2026-05-02T07:01:21.541Z</time></trkpt><trkpt lat="44.1695217" lon="11.9576267"><ele>98.6</ele><time>2026-05-02T07:01:23.542Z</time></trkpt><trkpt lat="44.16945" lon="11.9574967"><ele>98.2</ele><time>2026-05-02T07:01:25.541Z</time></trkpt><trkpt lat="44.169385" lon="11.9573733"><ele>97.8</ele><time>2026-05-02T07:01:27.541Z</time></trkpt><trkpt lat="44.16932" lon="11.9572683"><ele>97.39999999999999</ele><time>2026-05-02T07:01:29.541Z</time></trkpt><trkpt lat="44.1692583" lon="11.9571483"><ele>97.0</ele><time>2026-05-02T07:01:31.542Z</time></trkpt><trkpt lat="44.1692033" lon="11.957015"><ele>97.0</ele><time>2026-05-02T07:01:33.541Z</time></trkpt><trkpt lat="44.1691667" lon="11.9569433"><ele>97.0</ele><time>2026-05-02T07:01:34.541Z</time></trkpt><trkpt lat="44.1691033" lon="11.956805"><ele>97.0</ele><time>2026-05-02T07:01:36.541Z</time></trkpt><trkpt lat="44.1690233" lon="11.956665"><ele>97.0</ele><time>2026-05-02T07:01:38.541Z</time></trkpt><trkpt lat="44.1689617" lon="11.9565267"><ele>97.0</ele><time>2026-05-02T07:01:40.541Z</time></trkpt><trkpt lat="44.1689033" lon="11.9563867"><ele>97.39999999999999</ele><time>2026-05-02T07:01:42.541Z</time></trkpt><trkpt lat="44.16884" lon="11.9562417"><ele>97.8</ele><time>2026-05-02T07:01:44.541Z</time></trkpt><trkpt lat="44.16881" lon="11.9561617"><ele>98.2</ele><time>2026-05-02T07:01:45.541Z</time></trkpt><trkpt lat="44.1687483" lon="11.95602"><ele>98.6</ele><time>2026-05-02T07:01:47.541Z</time></trkpt><trkpt lat="44.16868" lon="11.9558933"><ele>99.0</ele><time>2026-05-02T07:01:49.542Z</time></trkpt><trkpt lat="44.1686233" lon="11.9557583"><ele>99.0</ele><time>2026-05-02T07:01:51.541Z</time></trkpt><trkpt lat="44.16858" lon="11.9556167"><ele>99.0</ele><time>2026-05-02T07:01:53.541Z</time></trkpt><trkpt lat="44.1685633" lon="11.9554617"><ele>99.0</ele><time>2026-05-02T07:01:55.541Z</time></trkpt><trkpt lat="44.168555" lon="11.9552917"><ele>99.0</ele><time>2026-05-02T07:01:57.541Z</time></trkpt><trkpt lat="44.16856" lon="11.9551983"><ele>99.0</ele><time>2026-05-02T07:01:58.541Z</time></trkpt><trkpt lat="44.1685633" lon="11.9551"><ele>98.14285714285715</ele><time>2026-05-02T07:01:59.541Z</time></trkpt><trkpt lat="44.1685683" lon="11.955005"><ele>97.28571428571428</ele><time>2026-05-02T07:02:00.541Z</time></trkpt><trkpt lat="44.1685733" lon="11.95491"><ele>96.42857142857143</ele><time>2026-05-02T07:02:01.541Z</time></trkpt><trkpt lat="44.1685933" lon="11.954805"><ele>95.57142857142858</ele><time>2026-05-02T07:02:02.541Z</time></trkpt><trkpt lat="44.1686117" lon="11.9547167"><ele>94.71428571428572</ele><time>2026-05-02T07:02:03.541Z</time></trkpt><trkpt lat="44.168635" lon="11.9546333"><ele>93.85714285714286</ele><time>2026-05-02T07:02:04.541Z</time></trkpt><trkpt lat="44.1686617" lon="11.954545"><ele>93.0</ele><time>2026-05-02T07:02:05.541Z</time></trkpt><trkpt lat="44.1686983" lon="11.9544517"><ele>93.0</ele><time>2026-05-02T07:02:06.541Z</time></trkpt><trkpt lat="44.16874" lon="11.95436"><ele>93.0</ele><time>2026-05-02T07:02:07.541Z</time></trkpt><trkpt lat="44.1687833" lon="11.9542617"><ele>93.0</ele><time>2026-05-02T07:02:08.541Z</time></trkpt><trkpt lat="44.1688267" lon="11.9541617"><ele>93.0</ele><time>2026-05-02T07:02:09.541Z</time></trkpt><trkpt lat="44.1688683" lon="11.9540583"><ele>93.0</ele><time>2026-05-02T07:02:10.541Z</time></trkpt><trkpt lat="44.16891" lon="11.9539517"><ele>93.0</ele><time>2026-05-02T07:02:11.541Z</time></trkpt><trkpt lat="44.168945" lon="11.9538533"><ele>92.66666666666667</ele><time>2026-05-02T07:02:12.541Z</time></trkpt><trkpt lat="44.168985" lon="11.953755"><ele>92.33333333333333</ele><time>2026-05-02T07:02:13.541Z</time></trkpt><trkpt lat="44.169025" lon="11.9536583"><ele>92.0</ele><time>2026-05-02T07:02:14.541Z</time></trkpt><trkpt lat="44.1690667" lon="11.9535583"><ele>91.66666666666666</ele><time>2026-05-02T07:02:15.541Z</time></trkpt><trkpt lat="44.1691083" lon="11.9534533"><ele>91.33333333333333</ele><time>2026-05-02T07:02:16.541Z</time></trkpt><trkpt lat="44.1691517" lon="11.9533433"><ele>91.0</ele><time>2026-05-02T07:02:17.541Z</time></trkpt><trkpt lat="44.169195" lon="11.9532367"><ele>89.4</ele><time>2026-05-02T07:02:18.541Z</time></trkpt><trkpt lat="44.1692433" lon="11.9531183"><ele>87.8</ele><time>2026-05-02T07:02:19.541Z</time></trkpt><trkpt lat="44.16929" lon="11.953005"><ele>86.2</ele><time>2026-05-02T07:02:20.541Z</time></trkpt><trkpt lat="44.1693267" lon="11.9528817"><ele>84.60000000000001</ele><time>2026-05-02T07:02:21.542Z</time></trkpt><trkpt lat="44.169365" lon="11.9527633"><ele>83.0</ele><time>2026-05-02T07:02:22.541Z</time></trkpt><trkpt lat="44.16939" lon="11.9526417"><ele>83.0</ele><time>2026-05-02T07:02:23.541Z</time></trkpt><trkpt lat="44.1693967" lon="11.952505"><ele>83.0</ele><time>2026-05-02T07:02:24.541Z</time></trkpt><trkpt lat="44.1694033" lon="11.952365"><ele>83.0</ele><time>2026-05-02T07:02:25.542Z</time></trkpt><trkpt lat="44.1693933" lon="11.9522217"><ele>83.0</ele><time>2026-05-02T07:02:26.541Z</time></trkpt><trkpt lat="44.1693667" lon="11.952085"><ele>83.0</ele><time>2026-05-02T07:02:27.541Z</time></trkpt><trkpt lat="44.1693333" lon="11.951955"><ele>83.0</ele><time>2026-05-02T07:02:28.541Z</time></trkpt><trkpt lat="44.1692917" lon="11.9518367"><ele>83.0</ele><time>2026-05-02T07:02:29.541Z</time></trkpt><trkpt lat="44.1692517" lon="11.95171"><ele>83.0</ele><time>2026-05-02T07:02:30.541Z</time></trkpt><trkpt lat="44.1692117" lon="11.9515883"><ele>83.0</ele><time>2026-05-02T07:02:31.541Z</time></trkpt><trkpt lat="44.1691733" lon="11.95146"><ele>83.0</ele><time>2026-05-02T07:02:32.541Z</time></trkpt><trkpt lat="44.1691383" lon="11.95132"><ele>82.83333333333334</ele><time>2026-05-02T07:02:33.541Z</time></trkpt><trkpt lat="44.1690983" lon="11.95119"><ele>82.66666666666667</ele><time>2026-05-02T07:02:34.541Z</time></trkpt><trkpt lat="44.1690717" lon="11.95107"><ele>82.5</ele><time>2026-05-02T07:02:35.541Z</time></trkpt><trkpt lat="44.1690417" lon="11.9509633"><ele>82.33333333333333</ele><time>2026-05-02T07:02:36.541Z</time></trkpt><trkpt lat="44.1690183" lon="11.950865"><ele>82.16666666666666</ele><time>2026-05-02T07:02:37.542Z</time></trkpt><trkpt lat="44.169005" lon="11.95077"><ele>82.0</ele><time>2026-05-02T07:02:38.541Z</time></trkpt><trkpt lat="44.1689917" lon="11.9506717"><ele>81.28571428571428</ele><time>2026-05-02T07:02:39.541Z</time></trkpt><trkpt lat="44.16899" lon="11.950575"><ele>80.57142857142857</ele><time>2026-05-02T07:02:40.542Z</time></trkpt><trkpt lat="44.1689983" lon="11.9504817"><ele>79.85714285714286</ele><time>2026-05-02T07:02:41.541Z</time></trkpt><trkpt lat="44.1690167" lon="11.9503883"><ele>79.14285714285714</ele><time>2026-05-02T07:02:42.541Z</time></trkpt><trkpt lat="44.1690467" lon="11.9502967"><ele>78.42857142857143</ele><time>2026-05-02T07:02:43.541Z</time></trkpt><trkpt lat="44.1690967" lon="11.95022"><ele>77.71428571428571</ele><time>2026-05-02T07:02:44.541Z</time></trkpt><trkpt lat="44.1691517" lon="11.950145"><ele>77.0</ele><time>2026-05-02T07:02:45.542Z</time></trkpt><trkpt lat="44.169225" lon="11.9500767"><ele>75.83333333333334</ele><time>2026-05-02T07:02:46.541Z</time></trkpt><trkpt lat="44.169305" lon="11.95002"><ele>74.66666666666667</ele><time>2026-05-02T07:02:47.541Z</time></trkpt><trkpt lat="44.1693817" lon="11.9499667"><ele>73.5</ele><time>2026-05-02T07:02:48.541Z</time></trkpt><trkpt lat="44.169455" lon="11.94991"><ele>72.33333333333333</ele><time>2026-05-02T07:02:49.541Z</time></trkpt><trkpt lat="44.16954" lon="11.949855"><ele>71.16666666666666</ele><time>2026-05-02T07:02:50.541Z</time></trkpt><trkpt lat="44.1696217" lon="11.9498"><ele>70.0</ele><time>2026-05-02T07:02:51.541Z</time></trkpt><trkpt lat="44.169705" lon="11.9497433"><ele>70.0</ele><time>2026-05-02T07:02:52.542Z</time></trkpt><trkpt lat="44.1697917" lon="11.9496933"><ele>70.0</ele><time>2026-05-02T07:02:53.541Z</time></trkpt><trkpt lat="44.16987" lon="11.949645"><ele>70.0</ele><time>2026-05-02T07:02:54.541Z</time></trkpt><trkpt lat="44.1699433" lon="11.9495833"><ele>70.0</ele><time>2026-05-02T07:02:55.541Z</time></trkpt><trkpt lat="44.1700217" lon="11.94953"><ele>70.0</ele><time>2026-05-02T07:02:56.541Z</time></trkpt><trkpt lat="44.1701" lon="11.94948"><ele>70.0</ele><time>2026-05-02T07:02:57.541Z</time></trkpt><trkpt lat="44.1701783" lon="11.9494317"><ele>69.57142857142857</ele><time>2026-05-02T07:02:58.541Z</time></trkpt><trkpt lat="44.17025" lon="11.9493883"><ele>69.14285714285714</ele><time>2026-05-02T07:02:59.541Z</time></trkpt><trkpt lat="44.1703217" lon="11.949345"><ele>68.71428571428572</ele><time>2026-05-02T07:03:00.541Z</time></trkpt><trkpt lat="44.17039" lon="11.94931"><ele>68.28571428571428</ele><time>2026-05-02T07:03:01.541Z</time></trkpt><trkpt lat="44.1704517" lon="11.9492767"><ele>67.85714285714286</ele><time>2026-05-02T07:03:02.541Z</time></trkpt><trkpt lat="44.1705167" lon="11.9492417"><ele>67.42857142857143</ele><time>2026-05-02T07:03:03.541Z</time></trkpt><trkpt lat="44.1705767" lon="11.949205"><ele>67.0</ele><time>2026-05-02T07:03:04.541Z</time></trkpt><trkpt lat="44.17064" lon="11.9491633"><ele>66.6</ele><time>2026-05-02T07:03:05.541Z</time></trkpt><trkpt lat="44.1706967" lon="11.9491067"><ele>66.2</ele><time>2026-05-02T07:03:06.541Z</time></trkpt><trkpt lat="44.1707517" lon="11.9490617"><ele>65.8</ele><time>2026-05-02T07:03:07.541Z</time></trkpt><trkpt lat="44.1708467" lon="11.9489683"><ele>65.4</ele><time>2026-05-02T07:03:09.541Z</time></trkpt><trkpt lat="44.1709233" lon="11.9488567"><ele>65.0</ele><time>2026-05-02T07:03:11.541Z</time></trkpt><trkpt lat="44.17099" lon="11.9487383"><ele>65.0</ele><time>2026-05-02T07:03:13.542Z</time></trkpt><trkpt lat="44.171045" lon="11.94862"><ele>65.0</ele><time>2026-05-02T07:03:15.541Z</time></trkpt><trkpt lat="44.1710867" lon="11.9485167"><ele>65.0</ele><time>2026-05-02T07:03:17.541Z</time></trkpt><trkpt lat="44.1711233" lon="11.9484233"><ele>65.0</ele><time>2026-05-02T07:03:19.541Z</time></trkpt><trkpt lat="44.1711683" lon="11.94832"><ele>65.0</ele><time>2026-05-02T07:03:21.541Z</time></trkpt><trkpt lat="44.1712217" lon="11.9482267"><ele>65.0</ele><time>2026-05-02T07:03:23.541Z</time></trkpt><trkpt lat="44.1712767" lon="11.948115"><ele>66.16666666666667</ele><time>2026-05-02T07:03:25.541Z</time></trkpt><trkpt lat="44.1713217" lon="11.9480233"><ele>67.33333333333334</ele><time>2026-05-02T07:03:27.541Z</time></trkpt><trkpt lat="44.1713617" lon="11.9479183"><ele>68.5</ele><time>2026-05-02T07:03:29.541Z</time></trkpt><trkpt lat="44.171395" lon="11.94782"><ele>69.66666666666667</ele><time>2026-05-02T07:03:31.541Z</time></trkpt><trkpt lat="44.17142" lon="11.9477183"><ele>70.83333333333333</ele><time>2026-05-02T07:03:33.541Z</time></trkpt><trkpt lat="44.1714483" lon="11.9476383"><ele>72.0</ele><time>2026-05-02T07:03:35.541Z</time></trkpt><trkpt lat="44.1715017" lon="11.9475367"><ele>72.4</ele><time>2026-05-02T07:03:38.541Z</time></trkpt><trkpt lat="44.17163" lon="11.9474567"><ele>72.80000000000001</ele><time>2026-05-02T07:03:47.541Z</time></trkpt><trkpt lat="44.1715417" lon="11.947435"><ele>73.2</ele><time>2026-05-02T07:03:55.541Z</time></trkpt><trkpt lat="44.1714833" lon="11.9473883"><ele>73.60000000000001</ele><time>2026-05-02T07:03:59.541Z</time></trkpt><trkpt lat="44.1714383" lon="11.9472967"><ele>74.0</ele><time>2026-05-02T07:04:03.541Z</time></trkpt><trkpt lat="44.1713633" lon="11.9472933"><ele>74.0</ele><time>2026-05-02T07:04:08.541Z</time></trkpt><trkpt lat="44.1713083" lon="11.9473467"><ele>74.0</ele><time>2026-05-02T07:04:10.541Z</time></trkpt><trkpt lat="44.1712367" lon="11.9474"><ele>74.0</ele><time>2026-05-02T07:04:12.541Z</time></trkpt><trkpt lat="44.171155" lon="11.9474317"><ele>74.0</ele><time>2026-05-02T07:04:14.541Z</time></trkpt><trkpt lat="44.1710767" lon="11.94741"><ele>74.0</ele><time>2026-05-02T07:04:16.541Z</time></trkpt><trkpt lat="44.1709333" lon="11.9474017"><ele>74.0</ele><time>2026-05-02T07:04:18.541Z</time></trkpt><trkpt lat="44.1708433" lon="11.94739"><ele>74.0</ele><time>2026-05-02T07:04:19.541Z</time></trkpt><trkpt lat="44.17077" lon="11.9473633"><ele>74.0</ele><time>2026-05-02T07:04:20.541Z</time></trkpt><trkpt lat="44.1707067" lon="11.9473183"><ele>74.0</ele><time>2026-05-02T07:04:21.541Z</time></trkpt><trkpt lat="44.1706433" lon="11.94716"><ele>74.0</ele><time>2026-05-02T07:04:23.541Z</time></trkpt><trkpt lat="44.1706167" lon="11.947065"><ele>74.0</ele><time>2026-05-02T07:04:24.541Z</time></trkpt><trkpt lat="44.1705817" lon="11.946975"><ele>72.71428571428572</ele><time>2026-05-02T07:04:25.542Z</time></trkpt><trkpt lat="44.1705417" lon="11.94689"><ele>71.42857142857143</ele><time>2026-05-02T07:04:26.541Z</time></trkpt><trkpt lat="44.1705033" lon="11.9468083"><ele>70.14285714285714</ele><time>2026-05-02T07:04:27.541Z</time></trkpt><trkpt lat="44.17047" lon="11.9467283"><ele>68.85714285714286</ele><time>2026-05-02T07:04:28.541Z</time></trkpt><trkpt lat="44.17043" lon="11.9466483"><ele>67.57142857142857</ele><time>2026-05-02T07:04:29.541Z</time></trkpt><trkpt lat="44.1703917" lon="11.9465617"><ele>66.28571428571429</ele><time>2026-05-02T07:04:30.541Z</time></trkpt><trkpt lat="44.1703567" lon="11.94648"><ele>65.0</ele><time>2026-05-02T07:04:31.541Z</time></trkpt><trkpt lat="44.1703217" lon="11.946395"><ele>65.0</ele><time>2026-05-02T07:04:32.541Z</time></trkpt><trkpt lat="44.1702867" lon="11.9463167"><ele>65.0</ele><time>2026-05-02T07:04:33.541Z</time></trkpt><trkpt lat="44.1702533" lon="11.94624"><ele>65.0</ele><time>2026-05-02T07:04:34.542Z</time></trkpt><trkpt lat="44.1702183" lon="11.9461633"><ele>65.0</ele><time>2026-05-02T07:04:35.542Z</time></trkpt><trkpt lat="44.1701817" lon="11.9460917"><ele>65.0</ele><time>2026-05-02T07:04:36.542Z</time></trkpt><trkpt lat="44.17011" lon="11.9459517"><ele>65.0</ele><time>2026-05-02T07:04:38.542Z</time></trkpt><trkpt lat="44.1700383" lon="11.9458217"><ele>65.25</ele><time>2026-05-02T07:04:40.541Z</time></trkpt><trkpt lat="44.16997" lon="11.9456783"><ele>65.5</ele><time>2026-05-02T07:04:42.54Z</time></trkpt><trkpt lat="44.1699033" lon="11.9455417"><ele>65.75</ele><time>2026-05-02T07:04:44.54Z</time></trkpt><trkpt lat="44.1698367" lon="11.945395"><ele>66.0</ele><time>2026-05-02T07:04:46.54Z</time></trkpt><trkpt lat="44.169765" lon="11.945235"><ele>66.0</ele><time>2026-05-02T07:04:48.54Z</time></trkpt><trkpt lat="44.1697317" lon="11.9451567"><ele>66.0</ele><time>2026-05-02T07:04:49.54Z</time></trkpt><trkpt lat="44.1697033" lon="11.9450783"><ele>66.0</ele><time>2026-05-02T07:04:50.54Z</time></trkpt><trkpt lat="44.16967" lon="11.9449967"><ele>66.0</ele><time>2026-05-02T07:04:51.54Z</time></trkpt><trkpt lat="44.16961" lon="11.9448617"><ele>66.0</ele><time>2026-05-02T07:04:53.54Z</time></trkpt><trkpt lat="44.1695533" lon="11.944735"><ele>66.0</ele><time>2026-05-02T07:04:55.54Z</time></trkpt><trkpt lat="44.1694983" lon="11.9446317"><ele>66.2</ele><time>2026-05-02T07:04:57.54Z</time></trkpt><trkpt lat="44.1694433" lon="11.9445233"><ele>66.39999999999999</ele><time>2026-05-02T07:04:59.54Z</time></trkpt><trkpt lat="44.1693917" lon="11.9444217"><ele>66.6</ele><time>2026-05-02T07:05:01.54Z</time></trkpt><trkpt lat="44.1693333" lon="11.9442917"><ele>66.8</ele><time>2026-05-02T07:05:03.54Z</time></trkpt><trkpt lat="44.1692733" lon="11.9441583"><ele>67.0</ele><time>2026-05-02T07:05:05.54Z</time></trkpt><trkpt lat="44.1692083" lon="11.9440517"><ele>67.5</ele><time>2026-05-02T07:05:07.54Z</time></trkpt><trkpt lat="44.1691483" lon="11.943915"><ele>68.0</ele><time>2026-05-02T07:05:09.54Z</time></trkpt><trkpt lat="44.1690817" lon="11.943775"><ele>68.5</ele><time>2026-05-02T07:05:11.54Z</time></trkpt><trkpt lat="44.1690067" lon="11.9436483"><ele>69.0</ele><time>2026-05-02T07:05:13.54Z</time></trkpt><trkpt lat="44.1689117" lon="11.943545"><ele>69.0</ele><time>2026-05-02T07:05:15.54Z</time></trkpt><trkpt lat="44.1688183" lon="11.943445"><ele>69.0</ele><time>2026-05-02T07:05:17.54Z</time></trkpt><trkpt lat="44.1687617" lon="11.9434017"><ele>69.0</ele><time>2026-05-02T07:05:18.54Z</time></trkpt><trkpt lat="44.1686467" lon="11.9433417"><ele>69.0</ele><time>2026-05-02T07:05:20.54Z</time></trkpt><trkpt lat="44.1685583" lon="11.9432767"><ele>69.0</ele><time>2026-05-02T07:05:22.54Z</time></trkpt><trkpt lat="44.168465" lon="11.9432133"><ele>69.25</ele><time>2026-05-02T07:05:24.54Z</time></trkpt><trkpt lat="44.168375" lon="11.943155"><ele>69.5</ele><time>2026-05-02T07:05:26.54Z</time></trkpt><trkpt lat="44.1682667" lon="11.9430717"><ele>69.75</ele><time>2026-05-02T07:05:28.54Z</time></trkpt><trkpt lat="44.1681633" lon="11.9429767"><ele>70.0</ele><time>2026-05-02T07:05:30.54Z</time></trkpt><trkpt lat="44.16805" lon="11.9429117"><ele>70.0</ele><time>2026-05-02T07:05:32.54Z</time></trkpt><trkpt lat="44.1679583" lon="11.9428433"><ele>70.0</ele><time>2026-05-02T07:05:34.54Z</time></trkpt><trkpt lat="44.1678667" lon="11.942775"><ele>70.0</ele><time>2026-05-02T07:05:36.54Z</time></trkpt><trkpt lat="44.1677683" lon="11.9427083"><ele>70.0</ele><time>2026-05-02T07:05:38.54Z</time></trkpt><trkpt lat="44.16767" lon="11.9426683"><ele>70.0</ele><time>2026-05-02T07:05:40.54Z</time></trkpt><trkpt lat="44.1675667" lon="11.942665"><ele>70.0</ele><time>2026-05-02T07:05:42.54Z</time></trkpt><trkpt lat="44.1674517" lon="11.9426867"><ele>70.0</ele><time>2026-05-02T07:05:44.54Z</time></trkpt><trkpt lat="44.1673417" lon="11.942705"><ele>70.0</ele><time>2026-05-02T07:05:46.54Z</time></trkpt><trkpt lat="44.16724" lon="11.942735"><ele>70.0</ele><time>2026-05-02T07:05:48.54Z</time></trkpt><trkpt lat="44.1671283" lon="11.94276"><ele>70.0</ele><time>2026-05-02T07:05:50.54Z</time></trkpt><trkpt lat="44.1670167" lon="11.9427917"><ele>69.8</ele><time>2026-05-02T07:05:52.54Z</time></trkpt><trkpt lat="44.1669033" lon="11.9428283"><ele>69.6</ele><time>2026-05-02T07:05:54.54Z</time></trkpt><trkpt lat="44.166795" lon="11.9428567"><ele>69.4</ele><time>2026-05-02T07:05:56.54Z</time></trkpt><trkpt lat="44.166695" lon="11.9428817"><ele>69.2</ele><time>2026-05-02T07:05:58.54Z</time></trkpt><trkpt lat="44.1665933" lon="11.9429067"><ele>69.0</ele><time>2026-05-02T07:06:00.54Z</time></trkpt><trkpt lat="44.1664933" lon="11.9429317"><ele>69.4</ele><time>2026-05-02T07:06:02.54Z</time></trkpt><trkpt lat="44.1663917" lon="11.942955"><ele>69.80000000000001</ele><time>2026-05-02T07:06:04.54Z</time></trkpt><trkpt lat="44.1662917" lon="11.9429717"><ele>70.19999999999999</ele><time>2026-05-02T07:06:06.54Z</time></trkpt><trkpt lat="44.1661933" lon="11.9429967"><ele>70.6</ele><time>2026-05-02T07:06:08.54Z</time></trkpt><trkpt lat="44.1660983" lon="11.9430183"><ele>71.0</ele><time>2026-05-02T07:06:10.54Z</time></trkpt><trkpt lat="44.1659983" lon="11.9430417"><ele>71.0</ele><time>2026-05-02T07:06:12.54Z</time></trkpt><trkpt lat="44.1658983" lon="11.9430683"><ele>71.0</ele><time>2026-05-02T07:06:14.54Z</time></trkpt><trkpt lat="44.1657933" lon="11.94308"><ele>71.0</ele><time>2026-05-02T07:06:16.541Z</time></trkpt><trkpt lat="44.1657" lon="11.94307"><ele>71.0</ele><time>2026-05-02T07:06:18.54Z</time></trkpt><trkpt lat="44.1655967" lon="11.94306"><ele>71.0</ele><time>2026-05-02T07:06:20.54Z</time></trkpt><trkpt lat="44.1654867" lon="11.9430517"><ele>71.6</ele><time>2026-05-02T07:06:22.54Z</time></trkpt><trkpt lat="44.1653917" lon="11.9430417"><ele>72.19999999999999</ele><time>2026-05-02T07:06:24.54Z</time></trkpt><trkpt lat="44.1652867" lon="11.9430417"><ele>72.80000000000001</ele><time>2026-05-02T07:06:26.54Z</time></trkpt><trkpt lat="44.165185" lon="11.9430383"><ele>73.4</ele><time>2026-05-02T07:06:28.54Z</time></trkpt><trkpt lat="44.1650817" lon="11.94303"><ele>74.0</ele><time>2026-05-02T07:06:30.54Z</time></trkpt><trkpt lat="44.1649833" lon="11.9430067"><ele>74.0</ele><time>2026-05-02T07:06:32.54Z</time></trkpt><trkpt lat="44.1648833" lon="11.9429967"><ele>74.0</ele><time>2026-05-02T07:06:34.54Z</time></trkpt><trkpt lat="44.164785" lon="11.9429967"><ele>74.0</ele><time>2026-05-02T07:06:36.54Z</time></trkpt><trkpt lat="44.16467" lon="11.9429817"><ele>74.0</ele><time>2026-05-02T07:06:38.54Z</time></trkpt><trkpt lat="44.1645667" lon="11.9429533"><ele>74.0</ele><time>2026-05-02T07:06:40.54Z</time></trkpt><trkpt lat="44.16447" lon="11.9429267"><ele>74.4</ele><time>2026-05-02T07:06:42.54Z</time></trkpt><trkpt lat="44.1643833" lon="11.9428667"><ele>74.80000000000001</ele><time>2026-05-02T07:06:44.54Z</time></trkpt><trkpt lat="44.1643083" lon="11.9427933"><ele>75.19999999999999</ele><time>2026-05-02T07:06:46.54Z</time></trkpt><trkpt lat="44.1642333" lon="11.9427033"><ele>75.6</ele><time>2026-05-02T07:06:48.54Z</time></trkpt><trkpt lat="44.1641667" lon="11.9425917"><ele>76.0</ele><time>2026-05-02T07:06:50.54Z</time></trkpt><trkpt lat="44.1640883" lon="11.9424783"><ele>75.25</ele><time>2026-05-02T07:06:52.54Z</time></trkpt><trkpt lat="44.1639983" lon="11.9423817"><ele>74.5</ele><time>2026-05-02T07:06:54.54Z</time></trkpt><trkpt lat="44.1639133" lon="11.9422817"><ele>73.75</ele><time>2026-05-02T07:06:56.54Z</time></trkpt><trkpt lat="44.16382" lon="11.9421767"><ele>73.0</ele><time>2026-05-02T07:06:58.54Z</time></trkpt><trkpt lat="44.1637217" lon="11.9420783"><ele>73.0</ele><time>2026-05-02T07:07:00.54Z</time></trkpt><trkpt lat="44.1636233" lon="11.9419733"><ele>73.0</ele><time>2026-05-02T07:07:02.54Z</time></trkpt><trkpt lat="44.16357" lon="11.9419217"><ele>73.0</ele><time>2026-05-02T07:07:03.54Z</time></trkpt><trkpt lat="44.1635167" lon="11.9418717"><ele>73.0</ele><time>2026-05-02T07:07:04.54Z</time></trkpt><trkpt lat="44.163415" lon="11.9417817"><ele>73.0</ele><time>2026-05-02T07:07:06.54Z</time></trkpt><trkpt lat="44.16336" lon="11.9417333"><ele>73.0</ele><time>2026-05-02T07:07:07.54Z</time></trkpt><trkpt lat="44.1633033" lon="11.9416883"><ele>73.0</ele><time>2026-05-02T07:07:08.54Z</time></trkpt><trkpt lat="44.1632483" lon="11.9416417"><ele>73.0</ele><time>2026-05-02T07:07:09.54Z</time></trkpt><trkpt lat="44.1631917" lon="11.9415983"><ele>73.0</ele><time>2026-05-02T07:07:10.54Z</time></trkpt><trkpt lat="44.1630817" lon="11.94152"><ele>73.0</ele><time>2026-05-02T07:07:12.54Z</time></trkpt><trkpt lat="44.1630217" lon="11.9414767"><ele>73.0</ele><time>2026-05-02T07:07:13.54Z</time></trkpt><trkpt lat="44.1629667" lon="11.9414317"><ele>73.0</ele><time>2026-05-02T07:07:14.54Z</time></trkpt><trkpt lat="44.1629083" lon="11.941385"><ele>73.0</ele><time>2026-05-02T07:07:15.54Z</time></trkpt><trkpt lat="44.1628467" lon="11.9413433"><ele>73.0</ele><time>2026-05-02T07:07:16.54Z</time></trkpt><trkpt lat="44.16279" lon="11.9412933"><ele>73.0</ele><time>2026-05-02T07:07:17.54Z</time></trkpt><trkpt lat="44.1627333" lon="11.9412533"><ele>73.0</ele><time>2026-05-02T07:07:18.54Z</time></trkpt><trkpt lat="44.162675" lon="11.9412117"><ele>73.0</ele><time>2026-05-02T07:07:19.54Z</time></trkpt><trkpt lat="44.1625667" lon="11.9411367"><ele>73.0</ele><time>2026-05-02T07:07:21.541Z</time></trkpt><trkpt lat="44.16246" lon="11.9410583"><ele>72.8</ele><time>2026-05-02T07:07:23.54Z</time></trkpt><trkpt lat="44.1623517" lon="11.9409733"><ele>72.6</ele><time>2026-05-02T07:07:25.541Z</time></trkpt><trkpt lat="44.1622417" lon="11.940895"><ele>72.4</ele><time>2026-05-02T07:07:27.54Z</time></trkpt><trkpt lat="44.1621783" lon="11.9408567"><ele>72.2</ele><time>2026-05-02T07:07:28.541Z</time></trkpt><trkpt lat="44.1621183" lon="11.94081"><ele>72.0</ele><time>2026-05-02T07:07:29.541Z</time></trkpt><trkpt lat="44.1620567" lon="11.9407617"><ele>72.0</ele><time>2026-05-02T07:07:30.54Z</time></trkpt><trkpt lat="44.1620017" lon="11.9407167"><ele>72.0</ele><time>2026-05-02T07:07:31.54Z</time></trkpt><trkpt lat="44.161945" lon="11.94067"><ele>72.0</ele><time>2026-05-02T07:07:32.54Z</time></trkpt><trkpt lat="44.1618883" lon="11.9406283"><ele>72.0</ele><time>2026-05-02T07:07:33.54Z</time></trkpt><trkpt lat="44.1617883" lon="11.9405433"><ele>72.0</ele><time>2026-05-02T07:07:35.54Z</time></trkpt><trkpt lat="44.1616917" lon="11.94045"><ele>72.0</ele><time>2026-05-02T07:07:37.54Z</time></trkpt><trkpt lat="44.1615883" lon="11.9403517"><ele>71.4</ele><time>2026-05-02T07:07:39.54Z</time></trkpt><trkpt lat="44.1614867" lon="11.94026"><ele>70.80000000000001</ele><time>2026-05-02T07:07:41.54Z</time></trkpt><trkpt lat="44.16139" lon="11.940185"><ele>70.2</ele><time>2026-05-02T07:07:43.54Z</time></trkpt><trkpt lat="44.161295" lon="11.94011"><ele>69.60000000000001</ele><time>2026-05-02T07:07:45.54Z</time></trkpt><trkpt lat="44.1612367" lon="11.9400633"><ele>69.0</ele><time>2026-05-02T07:07:46.54Z</time></trkpt><trkpt lat="44.1611317" lon="11.93997"><ele>69.0</ele><time>2026-05-02T07:07:48.54Z</time></trkpt><trkpt lat="44.1610733" lon="11.939925"><ele>69.0</ele><time>2026-05-02T07:07:49.54Z</time></trkpt><trkpt lat="44.1610167" lon="11.939885"><ele>69.0</ele><time>2026-05-02T07:07:50.54Z</time></trkpt><trkpt lat="44.1609617" lon="11.9398417"><ele>69.0</ele><time>2026-05-02T07:07:51.54Z</time></trkpt><trkpt lat="44.1608533" lon="11.9397567"><ele>69.0</ele><time>2026-05-02T07:07:53.54Z</time></trkpt><trkpt lat="44.1607983" lon="11.9397117"><ele>69.0</ele><time>2026-05-02T07:07:54.54Z</time></trkpt><trkpt lat="44.1607433" lon="11.9396567"><ele>69.0</ele><time>2026-05-02T07:07:55.54Z</time></trkpt><trkpt lat="44.1606883" lon="11.93961"><ele>68.83333333333333</ele><time>2026-05-02T07:07:56.54Z</time></trkpt><trkpt lat="44.160635" lon="11.9395633"><ele>68.66666666666667</ele><time>2026-05-02T07:07:57.54Z</time></trkpt><trkpt lat="44.160525" lon="11.9394717"><ele>68.5</ele><time>2026-05-02T07:07:59.54Z</time></trkpt><trkpt lat="44.16047" lon="11.9394217"><ele>68.33333333333334</ele><time>2026-05-02T07:08:00.54Z</time></trkpt><trkpt lat="44.16041" lon="11.9393783"><ele>68.16666666666667</ele><time>2026-05-02T07:08:01.54Z</time></trkpt><trkpt lat="44.16035" lon="11.9393267"><ele>68.0</ele><time>2026-05-02T07:08:02.54Z</time></trkpt><trkpt lat="44.1602933" lon="11.9392767"><ele>68.0</ele><time>2026-05-02T07:08:03.541Z</time></trkpt><trkpt lat="44.1602383" lon="11.9392317"><ele>68.0</ele><time>2026-05-02T07:08:04.541Z</time></trkpt><trkpt lat="44.1601833" lon="11.9391783"><ele>68.0</ele><time>2026-05-02T07:08:05.54Z</time></trkpt><trkpt lat="44.1600783" lon="11.9390883"><ele>68.0</ele><time>2026-05-02T07:08:07.541Z</time></trkpt><trkpt lat="44.16002" lon="11.9390433"><ele>68.0</ele><time>2026-05-02T07:08:08.54Z</time></trkpt><trkpt lat="44.159965" lon="11.9389967"><ele>68.0</ele><time>2026-05-02T07:08:09.54Z</time></trkpt><trkpt lat="44.159865" lon="11.9388967"><ele>68.4</ele><time>2026-05-02T07:08:11.54Z</time></trkpt><trkpt lat="44.1598117" lon="11.9388483"><ele>68.8</ele><time>2026-05-02T07:08:12.54Z</time></trkpt><trkpt lat="44.1597583" lon="11.9388017"><ele>69.2</ele><time>2026-05-02T07:08:13.54Z</time></trkpt><trkpt lat="44.1596467" lon="11.9387417"><ele>69.6</ele><time>2026-05-02T07:08:15.54Z</time></trkpt><trkpt lat="44.159535" lon="11.9387633"><ele>70.0</ele><time>2026-05-02T07:08:17.54Z</time></trkpt><trkpt lat="44.159435" lon="11.9387933"><ele>70.0</ele><time>2026-05-02T07:08:19.54Z</time></trkpt><trkpt lat="44.1594233" lon="11.9388817"><ele>70.0</ele><time>2026-05-02T07:08:20.54Z</time></trkpt><trkpt lat="44.1593633" lon="11.93898"><ele>70.0</ele><time>2026-05-02T07:08:22.54Z</time></trkpt><trkpt lat="44.1592883" lon="11.93895"><ele>70.0</ele><time>2026-05-02T07:08:24.54Z</time></trkpt><trkpt lat="44.159225" lon="11.9388933"><ele>70.0</ele><time>2026-05-02T07:08:26.54Z</time></trkpt><trkpt lat="44.1591483" lon="11.9388133"><ele>70.0</ele><time>2026-05-02T07:08:29.54Z</time></trkpt><trkpt lat="44.1590933" lon="11.938755"><ele>70.5</ele><time>2026-05-02T07:08:31.54Z</time></trkpt><trkpt lat="44.1590233" lon="11.9386783"><ele>71.0</ele><time>2026-05-02T07:08:34.54Z</time></trkpt><trkpt lat="44.1589517" lon="11.938605"><ele>71.5</ele><time>2026-05-02T07:08:37.54Z</time></trkpt><trkpt lat="44.1588967" lon="11.9385517"><ele>72.0</ele><time>2026-05-02T07:08:39.54Z</time></trkpt><trkpt lat="44.1588317" lon="11.938465"><ele>72.5</ele><time>2026-05-02T07:08:42.54Z</time></trkpt><trkpt lat="44.15877" lon="11.9383783"><ele>73.0</ele><time>2026-05-02T07:08:45.54Z</time></trkpt><trkpt lat="44.1587017" lon="11.9382867"><ele>73.42857142857143</ele><time>2026-05-02T07:08:48.54Z</time></trkpt><trkpt lat="44.1586517" lon="11.938225"><ele>73.85714285714286</ele><time>2026-05-02T07:08:50.54Z</time></trkpt><trkpt lat="44.158605" lon="11.9381617"><ele>74.28571428571428</ele><time>2026-05-02T07:08:52.541Z</time></trkpt><trkpt lat="44.1585567" lon="11.9381017"><ele>74.71428571428572</ele><time>2026-05-02T07:08:54.54Z</time></trkpt><trkpt lat="44.1585067" lon="11.9380317"><ele>75.14285714285715</ele><time>2026-05-02T07:08:56.54Z</time></trkpt><trkpt lat="44.1584517" lon="11.9379567"><ele>75.57142857142857</ele><time>2026-05-02T07:08:58.54Z</time></trkpt><trkpt lat="44.1583983" lon="11.9378767"><ele>76.0</ele><time>2026-05-02T07:09:00.54Z</time></trkpt><trkpt lat="44.1583467" lon="11.9378117"><ele>76.0</ele><time>2026-05-02T07:09:02.54Z</time></trkpt><trkpt lat="44.1583017" lon="11.9377367"><ele>76.0</ele><time>2026-05-02T07:09:04.54Z</time></trkpt><trkpt lat="44.1582467" lon="11.9376633"><ele>76.0</ele><time>2026-05-02T07:09:06.54Z</time></trkpt><trkpt lat="44.1582017" lon="11.937585"><ele>76.0</ele><time>2026-05-02T07:09:08.54Z</time></trkpt><trkpt lat="44.158155" lon="11.9374967"><ele>76.0</ele><time>2026-05-02T07:09:10.54Z</time></trkpt><trkpt lat="44.1581067" lon="11.937415"><ele>76.0</ele><time>2026-05-02T07:09:12.54Z</time></trkpt><trkpt lat="44.158055" lon="11.9373383"><ele>76.0</ele><time>2026-05-02T07:09:14.54Z</time></trkpt><trkpt lat="44.1580017" lon="11.9372567"><ele>76.33333333333333</ele><time>2026-05-02T07:09:16.54Z</time></trkpt><trkpt lat="44.15796" lon="11.9371683"><ele>76.66666666666666</ele><time>2026-05-02T07:09:18.54Z</time></trkpt><trkpt lat="44.1579167" lon="11.9370917"><ele>77.0</ele><time>2026-05-02T07:09:20.54Z</time></trkpt><trkpt lat="44.1578683" lon="11.9370167"><ele>77.33333333333333</ele><time>2026-05-02T07:09:22.54Z</time></trkpt><trkpt lat="44.15782" lon="11.9369333"><ele>77.66666666666667</ele><time>2026-05-02T07:09:24.54Z</time></trkpt><trkpt lat="44.1577717" lon="11.936845"><ele>78.0</ele><time>2026-05-02T07:09:26.54Z</time></trkpt><trkpt lat="44.157725" lon="11.9367533"><ele>78.16666666666667</ele><time>2026-05-02T07:09:28.54Z</time></trkpt><trkpt lat="44.1576883" lon="11.936675"><ele>78.33333333333333</ele><time>2026-05-02T07:09:30.54Z</time></trkpt><trkpt lat="44.1576433" lon="11.936585"><ele>78.5</ele><time>2026-05-02T07:09:32.54Z</time></trkpt><trkpt lat="44.1575967" lon="11.9365067"><ele>78.66666666666666</ele><time>2026-05-02T07:09:34.54Z</time></trkpt><trkpt lat="44.1575433" lon="11.9364233"><ele>78.83333333333333</ele><time>2026-05-02T07:09:36.541Z</time></trkpt><trkpt lat="44.1574917" lon="11.93634"><ele>79.0</ele><time>2026-05-02T07:09:38.54Z</time></trkpt><trkpt lat="44.1574433" lon="11.936255"><ele>79.0</ele><time>2026-05-02T07:09:40.54Z</time></trkpt><trkpt lat="44.1573917" lon="11.936165"><ele>79.0</ele><time>2026-05-02T07:09:42.54Z</time></trkpt><trkpt lat="44.1573417" lon="11.9360717"><ele>79.0</ele><time>2026-05-02T07:09:44.54Z</time></trkpt><trkpt lat="44.1572883" lon="11.9359717"><ele>79.0</ele><time>2026-05-02T07:09:46.54Z</time></trkpt><trkpt lat="44.157235" lon="11.9358783"><ele>79.0</ele><time>2026-05-02T07:09:48.541Z</time></trkpt><trkpt lat="44.1571817" lon="11.9357917"><ele>79.0</ele><time>2026-05-02T07:09:50.54Z</time></trkpt><trkpt lat="44.1571267" lon="11.9357083"><ele>79.5</ele><time>2026-05-02T07:09:52.54Z</time></trkpt><trkpt lat="44.1570767" lon="11.9356267"><ele>80.0</ele><time>2026-05-02T07:09:54.54Z</time></trkpt><trkpt lat="44.1570333" lon="11.9355483"><ele>80.5</ele><time>2026-05-02T07:09:56.54Z</time></trkpt><trkpt lat="44.15699" lon="11.9354617"><ele>81.0</ele><time>2026-05-02T07:09:58.54Z</time></trkpt><trkpt lat="44.1569367" lon="11.9353817"><ele>81.5</ele><time>2026-05-02T07:10:00.54Z</time></trkpt><trkpt lat="44.1568817" lon="11.9352917"><ele>82.0</ele><time>2026-05-02T07:10:02.541Z</time></trkpt><trkpt lat="44.1568267" lon="11.9352"><ele>82.0</ele><time>2026-05-02T07:10:04.54Z</time></trkpt><trkpt lat="44.1567717" lon="11.93512"><ele>82.0</ele><time>2026-05-02T07:10:06.54Z</time></trkpt><trkpt lat="44.1567133" lon="11.9350483"><ele>82.0</ele><time>2026-05-02T07:10:08.54Z</time></trkpt><trkpt lat="44.1566567" lon="11.9349683"><ele>82.0</ele><time>2026-05-02T07:10:10.54Z</time></trkpt><trkpt lat="44.1566033" lon="11.934885"><ele>82.0</ele><time>2026-05-02T07:10:12.54Z</time></trkpt><trkpt lat="44.1565417" lon="11.934805"><ele>82.0</ele><time>2026-05-02T07:10:14.54Z</time></trkpt><trkpt lat="44.156485" lon="11.9347267"><ele>82.0</ele><time>2026-05-02T07:10:16.54Z</time></trkpt><trkpt lat="44.1564283" lon="11.9346533"><ele>82.0</ele><time>2026-05-02T07:10:18.54Z</time></trkpt><trkpt lat="44.1563717" lon="11.93458"><ele>82.0</ele><time>2026-05-02T07:10:20.54Z</time></trkpt><trkpt lat="44.15631" lon="11.9345117"><ele>82.0</ele><time>2026-05-02T07:10:22.54Z</time></trkpt><trkpt lat="44.1562467" lon="11.9344467"><ele>82.0</ele><time>2026-05-02T07:10:24.54Z</time></trkpt><trkpt lat="44.1561883" lon="11.9343767"><ele>82.0</ele><time>2026-05-02T07:10:26.54Z</time></trkpt><trkpt lat="44.1561217" lon="11.9343167"><ele>82.0</ele><time>2026-05-02T07:10:28.54Z</time></trkpt><trkpt lat="44.156055" lon="11.9342533"><ele>82.0</ele><time>2026-05-02T07:10:30.54Z</time></trkpt><trkpt lat="44.1559933" lon="11.9341917"><ele>82.0</ele><time>2026-05-02T07:10:32.54Z</time></trkpt><trkpt lat="44.1559267" lon="11.9341267"><ele>82.0</ele><time>2026-05-02T07:10:34.54Z</time></trkpt><trkpt lat="44.1558617" lon="11.9340583"><ele>82.0</ele><time>2026-05-02T07:10:36.54Z</time></trkpt><trkpt lat="44.1557967" lon="11.9339883"><ele>82.0</ele><time>2026-05-02T07:10:38.54Z</time></trkpt><trkpt lat="44.15573" lon="11.9339283"><ele>82.5</ele><time>2026-05-02T07:10:40.54Z</time></trkpt><trkpt lat="44.1556683" lon="11.933865"><ele>83.0</ele><time>2026-05-02T07:10:42.54Z</time></trkpt><trkpt lat="44.1556117" lon="11.933805"><ele>83.5</ele><time>2026-05-02T07:10:44.54Z</time></trkpt><trkpt lat="44.1555483" lon="11.93374"><ele>84.0</ele><time>2026-05-02T07:10:46.54Z</time></trkpt><trkpt lat="44.155485" lon="11.9336867"><ele>84.5</ele><time>2026-05-02T07:10:48.54Z</time></trkpt><trkpt lat="44.1554217" lon="11.9336267"><ele>85.0</ele><time>2026-05-02T07:10:50.54Z</time></trkpt><trkpt lat="44.15536" lon="11.9335633"><ele>85.0</ele><time>2026-05-02T07:10:52.54Z</time></trkpt><trkpt lat="44.155295" lon="11.9335067"><ele>85.0</ele><time>2026-05-02T07:10:54.54Z</time></trkpt><trkpt lat="44.1552317" lon="11.9334367"><ele>85.0</ele><time>2026-05-02T07:10:56.54Z</time></trkpt><trkpt lat="44.155165" lon="11.9333767"><ele>85.0</ele><time>2026-05-02T07:10:58.54Z</time></trkpt><trkpt lat="44.1550967" lon="11.93331"><ele>85.0</ele><time>2026-05-02T07:11:00.54Z</time></trkpt><trkpt lat="44.155035" lon="11.93324"><ele>85.0</ele><time>2026-05-02T07:11:02.54Z</time></trkpt><trkpt lat="44.154965" lon="11.9331733"><ele>85.33333333333333</ele><time>2026-05-02T07:11:04.54Z</time></trkpt><trkpt lat="44.1549033" lon="11.9331133"><ele>85.66666666666666</ele><time>2026-05-02T07:11:06.54Z</time></trkpt><trkpt lat="44.1548383" lon="11.933055"><ele>86.0</ele><time>2026-05-02T07:11:08.54Z</time></trkpt><trkpt lat="44.154765" lon="11.932995"><ele>86.33333333333333</ele><time>2026-05-02T07:11:10.54Z</time></trkpt><trkpt lat="44.1546917" lon="11.9329283"><ele>86.66666666666667</ele><time>2026-05-02T07:11:12.54Z</time></trkpt><trkpt lat="44.1546233" lon="11.93287"><ele>87.0</ele><time>2026-05-02T07:11:14.54Z</time></trkpt><trkpt lat="44.1545583" lon="11.9327983"><ele>87.33333333333333</ele><time>2026-05-02T07:11:16.54Z</time></trkpt><trkpt lat="44.154495" lon="11.9327317"><ele>87.66666666666667</ele><time>2026-05-02T07:11:18.54Z</time></trkpt><trkpt lat="44.1544367" lon="11.9326717"><ele>88.0</ele><time>2026-05-02T07:11:20.541Z</time></trkpt><trkpt lat="44.154375" lon="11.932615"><ele>88.33333333333334</ele><time>2026-05-02T07:11:22.54Z</time></trkpt><trkpt lat="44.1543083" lon="11.9325433"><ele>88.66666666666667</ele><time>2026-05-02T07:11:24.54Z</time></trkpt><trkpt lat="44.1542267" lon="11.9324633"><ele>89.0</ele><time>2026-05-02T07:11:26.54Z</time></trkpt><trkpt lat="44.1541467" lon="11.9323783"><ele>89.0</ele><time>2026-05-02T07:11:28.54Z</time></trkpt><trkpt lat="44.1540683" lon="11.932295"><ele>89.0</ele><time>2026-05-02T07:11:30.54Z</time></trkpt><trkpt lat="44.1539933" lon="11.9322267"><ele>89.0</ele><time>2026-05-02T07:11:32.54Z</time></trkpt><trkpt lat="44.1539133" lon="11.9321467"><ele>89.0</ele><time>2026-05-02T07:11:34.54Z</time></trkpt><trkpt lat="44.15384" lon="11.9320683"><ele>89.0</ele><time>2026-05-02T07:11:36.541Z</time></trkpt><trkpt lat="44.1537667" lon="11.9319817"><ele>89.2</ele><time>2026-05-02T07:11:38.54Z</time></trkpt><trkpt lat="44.1537033" lon="11.931895"><ele>89.4</ele><time>2026-05-02T07:11:40.54Z</time></trkpt><trkpt lat="44.1536317" lon="11.9318033"><ele>89.6</ele><time>2026-05-02T07:11:42.54Z</time></trkpt><trkpt lat="44.153555" lon="11.9317217"><ele>89.8</ele><time>2026-05-02T07:11:44.54Z</time></trkpt><trkpt lat="44.1534783" lon="11.931625"><ele>90.0</ele><time>2026-05-02T07:11:46.54Z</time></trkpt><trkpt lat="44.1533983" lon="11.9315317"><ele>90.0</ele><time>2026-05-02T07:11:48.54Z</time></trkpt><trkpt lat="44.1533233" lon="11.9314367"><ele>90.0</ele><time>2026-05-02T07:11:50.54Z</time></trkpt><trkpt lat="44.1532517" lon="11.9313167"><ele>90.0</ele><time>2026-05-02T07:11:52.54Z</time></trkpt><trkpt lat="44.153185" lon="11.9312283"><ele>90.0</ele><time>2026-05-02T07:11:54.54Z</time></trkpt><trkpt lat="44.1531183" lon="11.9311633"><ele>90.0</ele><time>2026-05-02T07:11:56.54Z</time></trkpt><trkpt lat="44.1530467" lon="11.9310883"><ele>90.0</ele><time>2026-05-02T07:11:58.54Z</time></trkpt><trkpt lat="44.1529733" lon="11.9310067"><ele>90.0</ele><time>2026-05-02T07:12:00.54Z</time></trkpt><trkpt lat="44.1529083" lon="11.9309167"><ele>90.0</ele><time>2026-05-02T07:12:02.54Z</time></trkpt><trkpt lat="44.1528567" lon="11.930805"><ele>90.0</ele><time>2026-05-02T07:12:04.54Z</time></trkpt><trkpt lat="44.15281" lon="11.930695"><ele>90.0</ele><time>2026-05-02T07:12:06.54Z</time></trkpt><trkpt lat="44.1527667" lon="11.9305783"><ele>90.0</ele><time>2026-05-02T07:12:08.54Z</time></trkpt><trkpt lat="44.1527233" lon="11.9304667"><ele>90.0</ele><time>2026-05-02T07:12:10.54Z</time></trkpt><trkpt lat="44.1526917" lon="11.9303467"><ele>90.0</ele><time>2026-05-02T07:12:12.54Z</time></trkpt><trkpt lat="44.1526867" lon="11.93024"><ele>90.0</ele><time>2026-05-02T07:12:15.54Z</time></trkpt><trkpt lat="44.1527267" lon="11.9300717"><ele>90.0</ele><time>2026-05-02T07:12:17.54Z</time></trkpt><trkpt lat="44.152745" lon="11.9299867"><ele>89.6</ele><time>2026-05-02T07:12:18.54Z</time></trkpt><trkpt lat="44.1527883" lon="11.9298367"><ele>89.2</ele><time>2026-05-02T07:12:20.54Z</time></trkpt><trkpt lat="44.1528167" lon="11.9296783"><ele>88.80000000000001</ele><time>2026-05-02T07:12:22.54Z</time></trkpt><trkpt lat="44.152835" lon="11.92953"><ele>88.4</ele><time>2026-05-02T07:12:24.541Z</time></trkpt><trkpt lat="44.152835" lon="11.9293833"><ele>88.0</ele><time>2026-05-02T07:12:26.54Z</time></trkpt><trkpt lat="44.15283" lon="11.929215"><ele>87.75</ele><time>2026-05-02T07:12:28.54Z</time></trkpt><trkpt lat="44.1528283" lon="11.9290483"><ele>87.5</ele><time>2026-05-02T07:12:30.54Z</time></trkpt><trkpt lat="44.1528183" lon="11.9288833"><ele>87.25</ele><time>2026-05-02T07:12:32.54Z</time></trkpt><trkpt lat="44.1527983" lon="11.9287267"><ele>87.0</ele><time>2026-05-02T07:12:34.54Z</time></trkpt><trkpt lat="44.1527517" lon="11.9285917"><ele>87.0</ele><time>2026-05-02T07:12:36.54Z</time></trkpt><trkpt lat="44.152685" lon="11.9284633"><ele>87.0</ele><time>2026-05-02T07:12:38.54Z</time></trkpt><trkpt lat="44.1526133" lon="11.9283317"><ele>87.0</ele><time>2026-05-02T07:12:40.54Z</time></trkpt><trkpt lat="44.1525417" lon="11.928215"><ele>87.0</ele><time>2026-05-02T07:12:42.54Z</time></trkpt><trkpt lat="44.15247" lon="11.9281083"><ele>87.0</ele><time>2026-05-02T07:12:44.54Z</time></trkpt><trkpt lat="44.1524083" lon="11.9280033"><ele>86.6</ele><time>2026-05-02T07:12:46.54Z</time></trkpt><trkpt lat="44.1523483" lon="11.9278983"><ele>86.19999999999999</ele><time>2026-05-02T07:12:48.54Z</time></trkpt><trkpt lat="44.1522783" lon="11.927795"><ele>85.8</ele><time>2026-05-02T07:12:50.541Z</time></trkpt><trkpt lat="44.1522117" lon="11.9276967"><ele>85.4</ele><time>2026-05-02T07:12:52.54Z</time></trkpt><trkpt lat="44.15214" lon="11.92761"><ele>85.0</ele><time>2026-05-02T07:12:54.54Z</time></trkpt><trkpt lat="44.1520733" lon="11.9275017"><ele>85.8</ele><time>2026-05-02T07:12:56.54Z</time></trkpt><trkpt lat="44.1519983" lon="11.92741"><ele>86.6</ele><time>2026-05-02T07:12:58.54Z</time></trkpt><trkpt lat="44.1519167" lon="11.92734"><ele>87.4</ele><time>2026-05-02T07:13:00.54Z</time></trkpt><trkpt lat="44.1518267" lon="11.927295"><ele>88.2</ele><time>2026-05-02T07:13:02.54Z</time></trkpt><trkpt lat="44.151745" lon="11.9272617"><ele>89.0</ele><time>2026-05-02T07:13:04.54Z</time></trkpt><trkpt lat="44.1516417" lon="11.9272183"><ele>88.4</ele><time>2026-05-02T07:13:06.54Z</time></trkpt><trkpt lat="44.1515317" lon="11.92717"><ele>87.80000000000001</ele><time>2026-05-02T07:13:08.541Z</time></trkpt><trkpt lat="44.1514383" lon="11.92713"><ele>87.19999999999999</ele><time>2026-05-02T07:13:10.54Z</time></trkpt><trkpt lat="44.1513383" lon="11.927105"><ele>86.6</ele><time>2026-05-02T07:13:12.54Z</time></trkpt><trkpt lat="44.151245" lon="11.927085"><ele>86.0</ele><time>2026-05-02T07:13:14.54Z</time></trkpt><trkpt lat="44.15117" lon="11.92707"><ele>86.0</ele><time>2026-05-02T07:13:16.54Z</time></trkpt><trkpt lat="44.151095" lon="11.9270517"><ele>86.0</ele><time>2026-05-02T07:13:18.54Z</time></trkpt><trkpt lat="44.1510133" lon="11.9270333"><ele>86.0</ele><time>2026-05-02T07:13:20.54Z</time></trkpt><trkpt lat="44.150935" lon="11.927005"><ele>86.0</ele><time>2026-05-02T07:13:22.54Z</time></trkpt><trkpt lat="44.15085" lon="11.9269867"><ele>86.0</ele><time>2026-05-02T07:13:24.54Z</time></trkpt><trkpt lat="44.1507617" lon="11.9269583"><ele>86.0</ele><time>2026-05-02T07:13:26.54Z</time></trkpt><trkpt lat="44.150675" lon="11.9269317"><ele>85.66666666666667</ele><time>2026-05-02T07:13:28.54Z</time></trkpt><trkpt lat="44.1506033" lon="11.9269233"><ele>85.33333333333334</ele><time>2026-05-02T07:13:30.54Z</time></trkpt><trkpt lat="44.150535" lon="11.9269133"><ele>85.0</ele><time>2026-05-02T07:13:32.54Z</time></trkpt><trkpt lat="44.15046" lon="11.92689"><ele>84.66666666666667</ele><time>2026-05-02T07:13:34.54Z</time></trkpt><trkpt lat="44.1503833" lon="11.926855"><ele>84.33333333333333</ele><time>2026-05-02T07:13:36.54Z</time></trkpt><trkpt lat="44.1503083" lon="11.92683"><ele>84.0</ele><time>2026-05-02T07:13:38.54Z</time></trkpt><trkpt lat="44.150225" lon="11.9268083"><ele>84.0</ele><time>2026-05-02T07:13:40.54Z</time></trkpt><trkpt lat="44.15014" lon="11.9267767"><ele>84.0</ele><time>2026-05-02T07:13:42.54Z</time></trkpt><trkpt lat="44.15006" lon="11.9267467"><ele>84.0</ele><time>2026-05-02T07:13:44.541Z</time></trkpt><trkpt lat="44.1499833" lon="11.92671"><ele>84.0</ele><time>2026-05-02T07:13:46.54Z</time></trkpt><trkpt lat="44.1499067" lon="11.9266483"><ele>84.0</ele><time>2026-05-02T07:13:48.54Z</time></trkpt><trkpt lat="44.1498317" lon="11.9265867"><ele>84.0</ele><time>2026-05-02T07:13:50.54Z</time></trkpt><trkpt lat="44.1497717" lon="11.9264933"><ele>84.5</ele><time>2026-05-02T07:13:52.54Z</time></trkpt><trkpt lat="44.14972" lon="11.9263717"><ele>85.0</ele><time>2026-05-02T07:13:54.54Z</time></trkpt><trkpt lat="44.14968" lon="11.92625"><ele>85.5</ele><time>2026-05-02T07:13:56.54Z</time></trkpt><trkpt lat="44.14966" lon="11.9261283"><ele>86.0</ele><time>2026-05-02T07:13:58.54Z</time></trkpt><trkpt lat="44.14964" lon="11.926015"><ele>86.5</ele><time>2026-05-02T07:14:00.54Z</time></trkpt><trkpt lat="44.1496167" lon="11.9259133"><ele>87.0</ele><time>2026-05-02T07:14:02.54Z</time></trkpt><trkpt lat="44.1495967" lon="11.9258133"><ele>87.66666666666667</ele><time>2026-05-02T07:14:04.54Z</time></trkpt><trkpt lat="44.14957" lon="11.925715"><ele>88.33333333333333</ele><time>2026-05-02T07:14:06.54Z</time></trkpt><trkpt lat="44.1495533" lon="11.9256033"><ele>89.0</ele><time>2026-05-02T07:14:08.54Z</time></trkpt><trkpt lat="44.1495383" lon="11.9254767"><ele>89.66666666666666</ele><time>2026-05-02T07:14:10.54Z</time></trkpt><trkpt lat="44.14952" lon="11.925345"><ele>90.33333333333333</ele><time>2026-05-02T07:14:12.54Z</time></trkpt><trkpt lat="44.1495017" lon="11.925225"><ele>91.0</ele><time>2026-05-02T07:14:14.54Z</time></trkpt><trkpt lat="44.14949" lon="11.9251083"><ele>92.0</ele><time>2026-05-02T07:14:16.54Z</time></trkpt><trkpt lat="44.14948" lon="11.9249833"><ele>93.0</ele><time>2026-05-02T07:14:18.54Z</time></trkpt><trkpt lat="44.1494667" lon="11.9248583"><ele>94.0</ele><time>2026-05-02T07:14:20.54Z</time></trkpt><trkpt lat="44.1494517" lon="11.924735"><ele>95.0</ele><time>2026-05-02T07:14:22.54Z</time></trkpt><trkpt lat="44.14943" lon="11.9246183"><ele>96.00000000000001</ele><time>2026-05-02T07:14:24.54Z</time></trkpt><trkpt lat="44.1494083" lon="11.9245033"><ele>97.0</ele><time>2026-05-02T07:14:26.54Z</time></trkpt><trkpt lat="44.149375" lon="11.9243983"><ele>97.00000000000001</ele><time>2026-05-02T07:14:28.54Z</time></trkpt><trkpt lat="44.149345" lon="11.9242833"><ele>97.0</ele><time>2026-05-02T07:14:30.54Z</time></trkpt><trkpt lat="44.14933" lon="11.9241567"><ele>97.0</ele><time>2026-05-02T07:14:32.54Z</time></trkpt><trkpt lat="44.1493083" lon="11.924035"><ele>97.0</ele><time>2026-05-02T07:14:34.541Z</time></trkpt><trkpt lat="44.1492767" lon="11.9239283"><ele>97.00000000000001</ele><time>2026-05-02T07:14:36.54Z</time></trkpt><trkpt lat="44.1492583" lon="11.9238083"><ele>97.0</ele><time>2026-05-02T07:14:38.54Z</time></trkpt><trkpt lat="44.1492317" lon="11.92368"><ele>97.39999999999999</ele><time>2026-05-02T07:14:40.54Z</time></trkpt><trkpt lat="44.1492117" lon="11.9235367"><ele>97.8</ele><time>2026-05-02T07:14:42.54Z</time></trkpt><trkpt lat="44.1491983" lon="11.9233817"><ele>98.2</ele><time>2026-05-02T07:14:44.54Z</time></trkpt><trkpt lat="44.1491733" lon="11.9232333"><ele>98.6</ele><time>2026-05-02T07:14:46.54Z</time></trkpt><trkpt lat="44.149155" lon="11.923085"><ele>99.0</ele><time>2026-05-02T07:14:48.54Z</time></trkpt><trkpt lat="44.1491433" lon="11.92291"><ele>99.0</ele><time>2026-05-02T07:14:50.54Z</time></trkpt><trkpt lat="44.1491433" lon="11.922815"><ele>99.0</ele><time>2026-05-02T07:14:51.54Z</time></trkpt><trkpt lat="44.14913" lon="11.9226567"><ele>99.0</ele><time>2026-05-02T07:14:53.54Z</time></trkpt><trkpt lat="44.14911" lon="11.9224917"><ele>99.0</ele><time>2026-05-02T07:14:55.54Z</time></trkpt><trkpt lat="44.149095" lon="11.922365"><ele>99.0</ele><time>2026-05-02T07:14:57.54Z</time></trkpt><trkpt lat="44.149065" lon="11.92223"><ele>98.6</ele><time>2026-05-02T07:14:59.54Z</time></trkpt><trkpt lat="44.14904" lon="11.9220783"><ele>98.2</ele><time>2026-05-02T07:15:01.54Z</time></trkpt><trkpt lat="44.1490033" lon="11.9219467"><ele>97.8</ele><time>2026-05-02T07:15:03.54Z</time></trkpt><trkpt lat="44.148965" lon="11.9218067"><ele>97.39999999999999</ele><time>2026-05-02T07:15:05.54Z</time></trkpt><trkpt lat="44.1489167" lon="11.921665"><ele>97.0</ele><time>2026-05-02T07:15:07.54Z</time></trkpt><trkpt lat="44.148865" lon="11.9215283"><ele>97.0</ele><time>2026-05-02T07:15:09.54Z</time></trkpt><trkpt lat="44.1488183" lon="11.9213717"><ele>97.0</ele><time>2026-05-02T07:15:11.54Z</time></trkpt><trkpt lat="44.1487683" lon="11.9212367"><ele>97.0</ele><time>2026-05-02T07:15:13.54Z</time></trkpt><trkpt lat="44.1487467" lon="11.92113"><ele>97.0</ele><time>2026-05-02T07:15:15.54Z</time></trkpt><trkpt lat="44.1487183" lon="11.9210033"><ele>97.0</ele><time>2026-05-02T07:15:17.54Z</time></trkpt><trkpt lat="44.1486667" lon="11.9209233"><ele>97.39999999999999</ele><time>2026-05-02T07:15:18.54Z</time></trkpt><trkpt lat="44.1486317" lon="11.9207717"><ele>97.8</ele><time>2026-05-02T07:15:20.54Z</time></trkpt><trkpt lat="44.14859" lon="11.9206367"><ele>98.2</ele><time>2026-05-02T07:15:22.54Z</time></trkpt><trkpt lat="44.148555" lon="11.92049"><ele>98.6</ele><time>2026-05-02T07:15:24.54Z</time></trkpt><trkpt lat="44.1485133" lon="11.9203667"><ele>99.0</ele><time>2026-05-02T07:15:26.54Z</time></trkpt><trkpt lat="44.1484683" lon="11.9202283"><ele>99.0</ele><time>2026-05-02T07:15:28.54Z</time></trkpt><trkpt lat="44.1484267" lon="11.9200967"><ele>99.0</ele><time>2026-05-02T07:15:30.54Z</time></trkpt><trkpt lat="44.1483833" lon="11.9199567"><ele>99.0</ele><time>2026-05-02T07:15:32.54Z</time></trkpt><trkpt lat="44.148335" lon="11.919825"><ele>99.0</ele><time>2026-05-02T07:15:34.54Z</time></trkpt><trkpt lat="44.1482983" lon="11.9197"><ele>99.0</ele><time>2026-05-02T07:15:36.54Z</time></trkpt><trkpt lat="44.148255" lon="11.9195783"><ele>99.0</ele><time>2026-05-02T07:15:38.54Z</time></trkpt><trkpt lat="44.1482033" lon="11.919465"><ele>99.0</ele><time>2026-05-02T07:15:40.54Z</time></trkpt><trkpt lat="44.1481567" lon="11.9193617"><ele>99.0</ele><time>2026-05-02T07:15:42.54Z</time></trkpt><trkpt lat="44.1480967" lon="11.9192667"><ele>99.0</ele><time>2026-05-02T07:15:44.54Z</time></trkpt><trkpt lat="44.1480433" lon="11.9191733"><ele>99.0</ele><time>2026-05-02T07:15:46.541Z</time></trkpt><trkpt lat="44.14799" lon="11.9190983"><ele>99.0</ele><time>2026-05-02T07:15:48.54Z</time></trkpt><trkpt lat="44.1479267" lon="11.91902"><ele>99.33333333333333</ele><time>2026-05-02T07:15:50.54Z</time></trkpt><trkpt lat="44.14786" lon="11.91894"><ele>99.66666666666666</ele><time>2026-05-02T07:15:52.54Z</time></trkpt><trkpt lat="44.1478033" lon="11.918855"><ele>100.0</ele><time>2026-05-02T07:15:54.54Z</time></trkpt><trkpt lat="44.1477383" lon="11.9187833"><ele>100.33333333333333</ele><time>2026-05-02T07:15:56.54Z</time></trkpt><trkpt lat="44.1476783" lon="11.91871"><ele>100.66666666666666</ele><time>2026-05-02T07:15:58.54Z</time></trkpt><trkpt lat="44.14762" lon="11.9186417"><ele>101.0</ele><time>2026-05-02T07:16:00.54Z</time></trkpt><trkpt lat="44.1475617" lon="11.9185717"><ele>100.99999999999999</ele><time>2026-05-02T07:16:02.54Z</time></trkpt><trkpt lat="44.1474983" lon="11.9185033"><ele>101.0</ele><time>2026-05-02T07:16:04.54Z</time></trkpt><trkpt lat="44.14743" lon="11.9184367"><ele>101.0</ele><time>2026-05-02T07:16:06.54Z</time></trkpt><trkpt lat="44.1473583" lon="11.91838"><ele>101.0</ele><time>2026-05-02T07:16:08.541Z</time></trkpt><trkpt lat="44.1472783" lon="11.918335"><ele>100.99999999999999</ele><time>2026-05-02T07:16:10.54Z</time></trkpt><trkpt lat="44.147205" lon="11.9182983"><ele>101.0</ele><time>2026-05-02T07:16:12.54Z</time></trkpt><trkpt lat="44.1471267" lon="11.9182733"><ele>101.33333333333333</ele><time>2026-05-02T07:16:14.54Z</time></trkpt><trkpt lat="44.1470533" lon="11.91824"><ele>101.66666666666666</ele><time>2026-05-02T07:16:16.54Z</time></trkpt><trkpt lat="44.14698" lon="11.9181917"><ele>102.0</ele><time>2026-05-02T07:16:18.54Z</time></trkpt><trkpt lat="44.1469033" lon="11.9181417"><ele>102.33333333333334</ele><time>2026-05-02T07:16:20.54Z</time></trkpt><trkpt lat="44.1468267" lon="11.918085"><ele>102.66666666666667</ele><time>2026-05-02T07:16:22.54Z</time></trkpt><trkpt lat="44.14675" lon="11.9180233"><ele>103.0</ele><time>2026-05-02T07:16:24.54Z</time></trkpt><trkpt lat="44.14668" lon="11.917955"><ele>103.00000000000001</ele><time>2026-05-02T07:16:26.54Z</time></trkpt><trkpt lat="44.1466117" lon="11.9178817"><ele>103.0</ele><time>2026-05-02T07:16:28.541Z</time></trkpt><trkpt lat="44.1465367" lon="11.91781"><ele>103.0</ele><time>2026-05-02T07:16:30.54Z</time></trkpt><trkpt lat="44.1464617" lon="11.9177433"><ele>103.0</ele><time>2026-05-02T07:16:32.54Z</time></trkpt><trkpt lat="44.1463867" lon="11.9176767"><ele>103.00000000000001</ele><time>2026-05-02T07:16:34.54Z</time></trkpt><trkpt lat="44.1463183" lon="11.9176117"><ele>103.0</ele><time>2026-05-02T07:16:36.54Z</time></trkpt><trkpt lat="44.146255" lon="11.9175633"><ele>103.50000000000001</ele><time>2026-05-02T07:16:38.54Z</time></trkpt><trkpt lat="44.1461883" lon="11.9175017"><ele>104.0</ele><time>2026-05-02T07:16:40.54Z</time></trkpt><trkpt lat="44.14612" lon="11.917435"><ele>104.5</ele><time>2026-05-02T07:16:42.541Z</time></trkpt><trkpt lat="44.1460517" lon="11.917365"><ele>105.0</ele><time>2026-05-02T07:16:44.541Z</time></trkpt><trkpt lat="44.1459783" lon="11.9173"><ele>105.50000000000001</ele><time>2026-05-02T07:16:46.54Z</time></trkpt><trkpt lat="44.145905" lon="11.9172217"><ele>106.0</ele><time>2026-05-02T07:16:48.54Z</time></trkpt><trkpt lat="44.145835" lon="11.9171383"><ele>106.0</ele><time>2026-05-02T07:16:50.54Z</time></trkpt><trkpt lat="44.1457617" lon="11.91707"><ele>106.0</ele><time>2026-05-02T07:16:52.54Z</time></trkpt><trkpt lat="44.145685" lon="11.9169983"><ele>106.0</ele><time>2026-05-02T07:16:54.54Z</time></trkpt><trkpt lat="44.1456083" lon="11.91692"><ele>106.0</ele><time>2026-05-02T07:16:56.54Z</time></trkpt><trkpt lat="44.1455233" lon="11.916845"><ele>106.0</ele><time>2026-05-02T07:16:58.54Z</time></trkpt><trkpt lat="44.1454433" lon="11.9167733"><ele>106.33333333333334</ele><time>2026-05-02T07:17:00.54Z</time></trkpt><trkpt lat="44.1453733" lon="11.9166983"><ele>106.66666666666667</ele><time>2026-05-02T07:17:02.54Z</time></trkpt><trkpt lat="44.1453" lon="11.91663"><ele>107.0</ele><time>2026-05-02T07:17:04.54Z</time></trkpt><trkpt lat="44.14523" lon="11.916555"><ele>107.33333333333334</ele><time>2026-05-02T07:17:06.54Z</time></trkpt><trkpt lat="44.1451583" lon="11.9164883"><ele>107.66666666666667</ele><time>2026-05-02T07:17:08.54Z</time></trkpt><trkpt lat="44.145085" lon="11.9164183"><ele>108.0</ele><time>2026-05-02T07:17:10.54Z</time></trkpt><trkpt lat="44.14502" lon="11.9163483"><ele>108.0</ele><time>2026-05-02T07:17:12.54Z</time></trkpt><trkpt lat="44.14495" lon="11.9162733"><ele>108.0</ele><time>2026-05-02T07:17:14.541Z</time></trkpt><trkpt lat="44.1448833" lon="11.9161917"><ele>108.0</ele><time>2026-05-02T07:17:16.54Z</time></trkpt><trkpt lat="44.1448167" lon="11.9161217"><ele>108.0</ele><time>2026-05-02T07:17:18.54Z</time></trkpt><trkpt lat="44.144745" lon="11.916055"><ele>108.0</ele><time>2026-05-02T07:17:20.54Z</time></trkpt><trkpt lat="44.14468" lon="11.915985"><ele>108.0</ele><time>2026-05-02T07:17:22.54Z</time></trkpt><trkpt lat="44.14461" lon="11.9159267"><ele>108.0</ele><time>2026-05-02T07:17:24.54Z</time></trkpt><trkpt lat="44.144545" lon="11.915855"><ele>108.0</ele><time>2026-05-02T07:17:26.54Z</time></trkpt><trkpt lat="44.1444783" lon="11.91579"><ele>108.0</ele><time>2026-05-02T07:17:28.54Z</time></trkpt><trkpt lat="44.144405" lon="11.9157167"><ele>108.0</ele><time>2026-05-02T07:17:30.54Z</time></trkpt><trkpt lat="44.1443383" lon="11.9156483"><ele>108.0</ele><time>2026-05-02T07:17:32.54Z</time></trkpt><trkpt lat="44.1442667" lon="11.9155767"><ele>108.0</ele><time>2026-05-02T07:17:34.54Z</time></trkpt><trkpt lat="44.144195" lon="11.9155"><ele>108.0</ele><time>2026-05-02T07:17:36.54Z</time></trkpt><trkpt lat="44.1441233" lon="11.9154367"><ele>108.0</ele><time>2026-05-02T07:17:38.54Z</time></trkpt><trkpt lat="44.1440517" lon="11.9153667"><ele>108.0</ele><time>2026-05-02T07:17:40.54Z</time></trkpt><trkpt lat="44.14398" lon="11.9152833"><ele>108.0</ele><time>2026-05-02T07:17:42.54Z</time></trkpt><trkpt lat="44.1439083" lon="11.9152067"><ele>108.0</ele><time>2026-05-02T07:17:44.54Z</time></trkpt><trkpt lat="44.143845" lon="11.9151183"><ele>108.0</ele><time>2026-05-02T07:17:46.54Z</time></trkpt><trkpt lat="44.143775" lon="11.91504"><ele>108.60000000000001</ele><time>2026-05-02T07:17:48.54Z</time></trkpt><trkpt lat="44.1437017" lon="11.914955"><ele>109.20000000000002</ele><time>2026-05-02T07:17:50.54Z</time></trkpt><trkpt lat="44.1436267" lon="11.91486"><ele>109.8</ele><time>2026-05-02T07:17:52.54Z</time></trkpt><trkpt lat="44.1435517" lon="11.9147717"><ele>110.4</ele><time>2026-05-02T07:17:54.54Z</time></trkpt><trkpt lat="44.143495" lon="11.9146833"><ele>111.0</ele><time>2026-05-02T07:17:56.54Z</time></trkpt><trkpt lat="44.1434317" lon="11.9145933"><ele>111.0</ele><time>2026-05-02T07:17:58.541Z</time></trkpt><trkpt lat="44.1433583" lon="11.9145083"><ele>111.0</ele><time>2026-05-02T07:18:00.54Z</time></trkpt><trkpt lat="44.143295" lon="11.9144117"><ele>111.0</ele><time>2026-05-02T07:18:02.54Z</time></trkpt><trkpt lat="44.1432317" lon="11.9143233"><ele>111.0</ele><time>2026-05-02T07:18:04.54Z</time></trkpt><trkpt lat="44.1431717" lon="11.9142383"><ele>111.0</ele><time>2026-05-02T07:18:06.54Z</time></trkpt><trkpt lat="44.1431167" lon="11.9141367"><ele>110.8</ele><time>2026-05-02T07:18:08.54Z</time></trkpt><trkpt lat="44.1430567" lon="11.9140367"><ele>110.6</ele><time>2026-05-02T07:18:10.54Z</time></trkpt><trkpt lat="44.1429933" lon="11.9139383"><ele>110.4</ele><time>2026-05-02T07:18:12.54Z</time></trkpt><trkpt lat="44.1429383" lon="11.91383"><ele>110.2</ele><time>2026-05-02T07:18:14.54Z</time></trkpt><trkpt lat="44.1428733" lon="11.9137367"><ele>110.0</ele><time>2026-05-02T07:18:16.54Z</time></trkpt><trkpt lat="44.1428183" lon="11.9136317"><ele>110.0</ele><time>2026-05-02T07:18:18.54Z</time></trkpt><trkpt lat="44.1427617" lon="11.9135233"><ele>110.0</ele><time>2026-05-02T07:18:20.54Z</time></trkpt><trkpt lat="44.1426933" lon="11.9134083"><ele>110.0</ele><time>2026-05-02T07:18:22.54Z</time></trkpt><trkpt lat="44.1426283" lon="11.9133"><ele>110.0</ele><time>2026-05-02T07:18:24.54Z</time></trkpt><trkpt lat="44.1425617" lon="11.913195"><ele>110.0</ele><time>2026-05-02T07:18:26.54Z</time></trkpt><trkpt lat="44.1424933" lon="11.9130817"><ele>110.2</ele><time>2026-05-02T07:18:28.54Z</time></trkpt><trkpt lat="44.1424317" lon="11.9129667"><ele>110.4</ele><time>2026-05-02T07:18:30.54Z</time></trkpt><trkpt lat="44.1423617" lon="11.9128417"><ele>110.6</ele><time>2026-05-02T07:18:32.54Z</time></trkpt><trkpt lat="44.142285" lon="11.9127367"><ele>110.8</ele><time>2026-05-02T07:18:34.54Z</time></trkpt><trkpt lat="44.1422183" lon="11.9126217"><ele>111.0</ele><time>2026-05-02T07:18:36.54Z</time></trkpt><trkpt lat="44.14215" lon="11.9124933"><ele>111.0</ele><time>2026-05-02T07:18:38.541Z</time></trkpt><trkpt lat="44.142085" lon="11.91237"><ele>111.0</ele><time>2026-05-02T07:18:40.54Z</time></trkpt><trkpt lat="44.1420133" lon="11.9122533"><ele>111.0</ele><time>2026-05-02T07:18:42.54Z</time></trkpt><trkpt lat="44.1419483" lon="11.9121417"><ele>111.0</ele><time>2026-05-02T07:18:44.54Z</time></trkpt><trkpt lat="44.1418833" lon="11.912025"><ele>111.0</ele><time>2026-05-02T07:18:46.54Z</time></trkpt><trkpt lat="44.1418233" lon="11.9119033"><ele>111.0</ele><time>2026-05-02T07:18:48.54Z</time></trkpt><trkpt lat="44.141755" lon="11.91178"><ele>111.0</ele><time>2026-05-02T07:18:50.54Z</time></trkpt><trkpt lat="44.141685" lon="11.911675"><ele>111.0</ele><time>2026-05-02T07:18:52.54Z</time></trkpt><trkpt lat="44.1416183" lon="11.9115583"><ele>111.0</ele><time>2026-05-02T07:18:54.54Z</time></trkpt><trkpt lat="44.1415483" lon="11.91144"><ele>111.0</ele><time>2026-05-02T07:18:56.54Z</time></trkpt><trkpt lat="44.14148" lon="11.91132"><ele>110.8</ele><time>2026-05-02T07:18:58.54Z</time></trkpt><trkpt lat="44.1414033" lon="11.9112017"><ele>110.6</ele><time>2026-05-02T07:19:00.54Z</time></trkpt><trkpt lat="44.1413333" lon="11.91108"><ele>110.4</ele><time>2026-05-02T07:19:02.54Z</time></trkpt><trkpt lat="44.1412617" lon="11.9109583"><ele>110.2</ele><time>2026-05-02T07:19:04.54Z</time></trkpt><trkpt lat="44.1411883" lon="11.9108533"><ele>110.0</ele><time>2026-05-02T07:19:06.54Z</time></trkpt><trkpt lat="44.1411133" lon="11.910745"><ele>110.0</ele><time>2026-05-02T07:19:08.54Z</time></trkpt><trkpt lat="44.1410317" lon="11.91064"><ele>110.0</ele><time>2026-05-02T07:19:10.54Z</time></trkpt><trkpt lat="44.1409383" lon="11.91055"><ele>110.0</ele><time>2026-05-02T07:19:12.54Z</time></trkpt><trkpt lat="44.140865" lon="11.9104533"><ele>110.0</ele><time>2026-05-02T07:19:14.54Z</time></trkpt><trkpt lat="44.1407883" lon="11.9103533"><ele>110.0</ele><time>2026-05-02T07:19:16.54Z</time></trkpt><trkpt lat="44.1407067" lon="11.91025"><ele>109.6</ele><time>2026-05-02T07:19:18.54Z</time></trkpt><trkpt lat="44.1406283" lon="11.910165"><ele>109.2</ele><time>2026-05-02T07:19:20.54Z</time></trkpt><trkpt lat="44.1405433" lon="11.910075"><ele>108.80000000000001</ele><time>2026-05-02T07:19:22.54Z</time></trkpt><trkpt lat="44.1404633" lon="11.9099783"><ele>108.4</ele><time>2026-05-02T07:19:24.54Z</time></trkpt><trkpt lat="44.1403817" lon="11.9098833"><ele>108.0</ele><time>2026-05-02T07:19:26.54Z</time></trkpt><trkpt lat="44.1402983" lon="11.9097933"><ele>108.0</ele><time>2026-05-02T07:19:28.54Z</time></trkpt><trkpt lat="44.14022" lon="11.9097067"><ele>108.00000000000001</ele><time>2026-05-02T07:19:30.54Z</time></trkpt><trkpt lat="44.1401367" lon="11.9096383"><ele>108.00000000000001</ele><time>2026-05-02T07:19:32.54Z</time></trkpt><trkpt lat="44.1400633" lon="11.909575"><ele>108.0</ele><time>2026-05-02T07:19:34.54Z</time></trkpt><trkpt lat="44.1399783" lon="11.9095233"><ele>108.0</ele><time>2026-05-02T07:19:36.54Z</time></trkpt><trkpt lat="44.1398983" lon="11.9094567"><ele>107.80000000000001</ele><time>2026-05-02T07:19:38.54Z</time></trkpt><trkpt lat="44.139825" lon="11.909405"><ele>107.60000000000001</ele><time>2026-05-02T07:19:40.54Z</time></trkpt><trkpt lat="44.13975" lon="11.9093533"><ele>107.39999999999999</ele><time>2026-05-02T07:19:42.54Z</time></trkpt><trkpt lat="44.1396717" lon="11.9092767"><ele>107.19999999999999</ele><time>2026-05-02T07:19:44.54Z</time></trkpt><trkpt lat="44.1395817" lon="11.9091883"><ele>107.0</ele><time>2026-05-02T07:19:46.54Z</time></trkpt><trkpt lat="44.1394833" lon="11.9091017"><ele>108.8</ele><time>2026-05-02T07:19:48.54Z</time></trkpt><trkpt lat="44.13938" lon="11.9090133"><ele>110.6</ele><time>2026-05-02T07:19:50.54Z</time></trkpt><trkpt lat="44.1393267" lon="11.908965"><ele>112.39999999999999</ele><time>2026-05-02T07:19:51.541Z</time></trkpt><trkpt lat="44.1392717" lon="11.9089183"><ele>114.19999999999999</ele><time>2026-05-02T07:19:52.54Z</time></trkpt><trkpt lat="44.139165" lon="11.9088217"><ele>116.0</ele><time>2026-05-02T07:19:54.54Z</time></trkpt><trkpt lat="44.1390683" lon="11.9087183"><ele>115.66666666666666</ele><time>2026-05-02T07:19:56.54Z</time></trkpt><trkpt lat="44.1389733" lon="11.908605"><ele>115.33333333333333</ele><time>2026-05-02T07:19:58.54Z</time></trkpt><trkpt lat="44.1389283" lon="11.9085367"><ele>115.0</ele><time>2026-05-02T07:19:59.54Z</time></trkpt><trkpt lat="44.138885" lon="11.90847"><ele>114.66666666666666</ele><time>2026-05-02T07:20:00.54Z</time></trkpt><trkpt lat="44.138845" lon="11.9084"><ele>114.33333333333333</ele><time>2026-05-02T07:20:01.54Z</time></trkpt><trkpt lat="44.1388067" lon="11.9083267"><ele>114.0</ele><time>2026-05-02T07:20:02.54Z</time></trkpt><trkpt lat="44.1387683" lon="11.9082517"><ele>114.0</ele><time>2026-05-02T07:20:03.54Z</time></trkpt><trkpt lat="44.1387317" lon="11.908175"><ele>114.0</ele><time>2026-05-02T07:20:04.54Z</time></trkpt><trkpt lat="44.1386667" lon="11.9080233"><ele>114.0</ele><time>2026-05-02T07:20:06.54Z</time></trkpt><trkpt lat="44.138635" lon="11.9079367"><ele>114.0</ele><time>2026-05-02T07:20:07.54Z</time></trkpt><trkpt lat="44.1386067" lon="11.9078483"><ele>114.0</ele><time>2026-05-02T07:20:08.54Z</time></trkpt><trkpt lat="44.1385767" lon="11.9077633"><ele>114.0</ele><time>2026-05-02T07:20:09.54Z</time></trkpt><trkpt lat="44.1385483" lon="11.9076817"><ele>114.0</ele><time>2026-05-02T07:20:10.54Z</time></trkpt><trkpt lat="44.1385217" lon="11.9076017"><ele>114.0</ele><time>2026-05-02T07:20:11.54Z</time></trkpt><trkpt lat="44.13847" lon="11.9074567"><ele>114.0</ele><time>2026-05-02T07:20:13.54Z</time></trkpt><trkpt lat="44.1384033" lon="11.9073217"><ele>114.0</ele><time>2026-05-02T07:20:15.54Z</time></trkpt><trkpt lat="44.138325" lon="11.9072217"><ele>114.0</ele><time>2026-05-02T07:20:17.541Z</time></trkpt><trkpt lat="44.1382433" lon="11.90715"><ele>113.0</ele><time>2026-05-02T07:20:19.54Z</time></trkpt><trkpt lat="44.1381583" lon="11.9070983"><ele>112.0</ele><time>2026-05-02T07:20:21.54Z</time></trkpt><trkpt lat="44.138065" lon="11.90706"><ele>111.0</ele><time>2026-05-02T07:20:23.54Z</time></trkpt><trkpt lat="44.13798" lon="11.9070217"><ele>110.0</ele><time>2026-05-02T07:20:25.54Z</time></trkpt><trkpt lat="44.1379" lon="11.9069983"><ele>109.0</ele><time>2026-05-02T07:20:27.54Z</time></trkpt><trkpt lat="44.1378183" lon="11.9069533"><ele>108.0</ele><time>2026-05-02T07:20:29.54Z</time></trkpt><trkpt lat="44.13772" lon="11.9069133"><ele>108.0</ele><time>2026-05-02T07:20:31.54Z</time></trkpt><trkpt lat="44.137645" lon="11.906865"><ele>108.0</ele><time>2026-05-02T07:20:33.541Z</time></trkpt><trkpt lat="44.1375833" lon="11.9067983"><ele>108.0</ele><time>2026-05-02T07:20:35.54Z</time></trkpt><trkpt lat="44.1375367" lon="11.906725"><ele>108.0</ele><time>2026-05-02T07:20:37.54Z</time></trkpt><trkpt lat="44.1375" lon="11.906645"><ele>108.0</ele><time>2026-05-02T07:20:39.54Z</time></trkpt><trkpt lat="44.137465" lon="11.9065717"><ele>108.0</ele><time>2026-05-02T07:20:41.54Z</time></trkpt><trkpt lat="44.13744" lon="11.9064567"><ele>108.0</ele><time>2026-05-02T07:20:43.54Z</time></trkpt><trkpt lat="44.1374167" lon="11.9063483"><ele>108.5</ele><time>2026-05-02T07:20:45.54Z</time></trkpt><trkpt lat="44.137385" lon="11.9062267"><ele>109.0</ele><time>2026-05-02T07:20:47.54Z</time></trkpt><trkpt lat="44.13733" lon="11.9061367"><ele>109.5</ele><time>2026-05-02T07:20:49.54Z</time></trkpt><trkpt lat="44.1372867" lon="11.9060617"><ele>110.0</ele><time>2026-05-02T07:20:51.54Z</time></trkpt><trkpt lat="44.1372367" lon="11.9059917"><ele>110.5</ele><time>2026-05-02T07:20:53.54Z</time></trkpt><trkpt lat="44.13718" lon="11.9059367"><ele>111.0</ele><time>2026-05-02T07:20:55.54Z</time></trkpt><trkpt lat="44.1371133" lon="11.9058683"><ele>112.0</ele><time>2026-05-02T07:20:57.54Z</time></trkpt><trkpt lat="44.137065" lon="11.9057733"><ele>113.0</ele><time>2026-05-02T07:20:59.54Z</time></trkpt><trkpt lat="44.1370033" lon="11.905695"><ele>114.0</ele><time>2026-05-02T07:21:01.54Z</time></trkpt><trkpt lat="44.1369367" lon="11.9056333"><ele>115.0</ele><time>2026-05-02T07:21:03.54Z</time></trkpt><trkpt lat="44.136865" lon="11.905595"><ele>116.0</ele><time>2026-05-02T07:21:05.54Z</time></trkpt><trkpt lat="44.1367867" lon="11.9055333"><ele>117.0</ele><time>2026-05-02T07:21:07.541Z</time></trkpt><trkpt lat="44.1367167" lon="11.90546"><ele>117.0</ele><time>2026-05-02T07:21:09.54Z</time></trkpt><trkpt lat="44.1365883" lon="11.9054533"><ele>116.99999999999999</ele><time>2026-05-02T07:21:11.579Z</time></trkpt><trkpt lat="44.13663" lon="11.9053783"><ele>116.99999999999999</ele><time>2026-05-02T07:21:13.04Z</time></trkpt><trkpt lat="44.1365117" lon="11.9053567"><ele>117.0</ele><time>2026-05-02T07:21:14.04Z</time></trkpt><trkpt lat="44.1364083" lon="11.9053233"><ele>117.0</ele><time>2026-05-02T07:21:16.54Z</time></trkpt><trkpt lat="44.1363017" lon="11.9052917"><ele>117.8</ele><time>2026-05-02T07:21:18.54Z</time></trkpt><trkpt lat="44.136215" lon="11.905255"><ele>118.6</ele><time>2026-05-02T07:21:20.54Z</time></trkpt><trkpt lat="44.1361033" lon="11.9051733"><ele>119.39999999999999</ele><time>2026-05-02T07:21:24.042Z</time></trkpt><trkpt lat="44.136025" lon="11.9051483"><ele>120.19999999999999</ele><time>2026-05-02T07:21:25.542Z</time></trkpt><trkpt lat="44.1359967" lon="11.9052333"><ele>121.0</ele><time>2026-05-02T07:21:26.542Z</time></trkpt><trkpt lat="44.1359117" lon="11.9051917"><ele>121.0</ele><time>2026-05-02T07:21:28.542Z</time></trkpt><trkpt lat="44.1358067" lon="11.9051417"><ele>121.0</ele><time>2026-05-02T07:21:30.542Z</time></trkpt><trkpt lat="44.1357217" lon="11.9051067"><ele>121.0</ele><time>2026-05-02T07:21:32.542Z</time></trkpt><trkpt lat="44.1356383" lon="11.905065"><ele>121.0</ele><time>2026-05-02T07:21:34.542Z</time></trkpt><trkpt lat="44.1355517" lon="11.905025"><ele>121.0</ele><time>2026-05-02T07:21:36.542Z</time></trkpt><trkpt lat="44.1354667" lon="11.90498"><ele>121.83333333333334</ele><time>2026-05-02T07:21:38.542Z</time></trkpt><trkpt lat="44.1353967" lon="11.9049367"><ele>122.66666666666667</ele><time>2026-05-02T07:21:40.542Z</time></trkpt><trkpt lat="44.135325" lon="11.9048917"><ele>123.5</ele><time>2026-05-02T07:21:42.542Z</time></trkpt><trkpt lat="44.135255" lon="11.904845"><ele>124.33333333333334</ele><time>2026-05-02T07:21:44.542Z</time></trkpt><trkpt lat="44.135185" lon="11.9047967"><ele>125.16666666666667</ele><time>2026-05-02T07:21:46.542Z</time></trkpt><trkpt lat="44.135115" lon="11.90475"><ele>126.0</ele><time>2026-05-02T07:21:48.543Z</time></trkpt><trkpt lat="44.1350417" lon="11.9047133"><ele>126.0</ele><time>2026-05-02T07:21:50.542Z</time></trkpt><trkpt lat="44.13497" lon="11.9046733"><ele>126.0</ele><time>2026-05-02T07:21:52.542Z</time></trkpt><trkpt lat="44.13489" lon="11.904615"><ele>126.0</ele><time>2026-05-02T07:21:54.542Z</time></trkpt><trkpt lat="44.1348117" lon="11.90457"><ele>126.0</ele><time>2026-05-02T07:21:56.542Z</time></trkpt><trkpt lat="44.1347317" lon="11.9045317"><ele>126.0</ele><time>2026-05-02T07:21:58.542Z</time></trkpt><trkpt lat="44.1346483" lon="11.9044917"><ele>126.0</ele><time>2026-05-02T07:22:00.543Z</time></trkpt><trkpt lat="44.1345683" lon="11.90445"><ele>126.0</ele><time>2026-05-02T07:22:02.542Z</time></trkpt><trkpt lat="44.1344883" lon="11.904405"><ele>126.0</ele><time>2026-05-02T07:22:04.543Z</time></trkpt><trkpt lat="44.13441" lon="11.9043567"><ele>126.0</ele><time>2026-05-02T07:22:06.542Z</time></trkpt><trkpt lat="44.1343417" lon="11.9043083"><ele>126.0</ele><time>2026-05-02T07:22:08.542Z</time></trkpt><trkpt lat="44.1342817" lon="11.90425"><ele>126.0</ele><time>2026-05-02T07:22:10.542Z</time></trkpt><trkpt lat="44.1342183" lon="11.9041817"><ele>126.0</ele><time>2026-05-02T07:22:12.542Z</time></trkpt><trkpt lat="44.134165" lon="11.904115"><ele>126.0</ele><time>2026-05-02T07:22:14.542Z</time></trkpt><trkpt lat="44.1341167" lon="11.9040433"><ele>126.0</ele><time>2026-05-02T07:22:16.543Z</time></trkpt><trkpt lat="44.134065" lon="11.9039583"><ele>126.0</ele><time>2026-05-02T07:22:18.542Z</time></trkpt><trkpt lat="44.134025" lon="11.9038517"><ele>126.0</ele><time>2026-05-02T07:22:20.542Z</time></trkpt><trkpt lat="44.1339817" lon="11.90376"><ele>126.0</ele><time>2026-05-02T07:22:22.542Z</time></trkpt><trkpt lat="44.13394" lon="11.9036583"><ele>126.0</ele><time>2026-05-02T07:22:24.541Z</time></trkpt><trkpt lat="44.1338933" lon="11.9035633"><ele>123.8</ele><time>2026-05-02T07:22:26.541Z</time></trkpt><trkpt lat="44.13385" lon="11.9034567"><ele>121.6</ele><time>2026-05-02T07:22:28.541Z</time></trkpt><trkpt lat="44.1337983" lon="11.9033533"><ele>119.4</ele><time>2026-05-02T07:22:30.541Z</time></trkpt><trkpt lat="44.1337483" lon="11.903245"><ele>117.2</ele><time>2026-05-02T07:22:32.542Z</time></trkpt><trkpt lat="44.133695" lon="11.9031367"><ele>115.0</ele><time>2026-05-02T07:22:34.541Z</time></trkpt><trkpt lat="44.1336467" lon="11.903035"><ele>115.00000000000001</ele><time>2026-05-02T07:22:36.541Z</time></trkpt><trkpt lat="44.133595" lon="11.90293"><ele>115.0</ele><time>2026-05-02T07:22:38.541Z</time></trkpt><trkpt lat="44.133545" lon="11.9028233"><ele>115.0</ele><time>2026-05-02T07:22:40.541Z</time></trkpt><trkpt lat="44.1334933" lon="11.9027183"><ele>115.0</ele><time>2026-05-02T07:22:42.541Z</time></trkpt><trkpt lat="44.133445" lon="11.9026233"><ele>115.00000000000001</ele><time>2026-05-02T07:22:44.541Z</time></trkpt><trkpt lat="44.1333983" lon="11.9025267"><ele>115.0</ele><time>2026-05-02T07:22:46.541Z</time></trkpt><trkpt lat="44.1333517" lon="11.9024283"><ele>114.50000000000001</ele><time>2026-05-02T07:22:48.541Z</time></trkpt><trkpt lat="44.133305" lon="11.9023317"><ele>114.0</ele><time>2026-05-02T07:22:50.541Z</time></trkpt><trkpt lat="44.13326" lon="11.9022333"><ele>113.5</ele><time>2026-05-02T07:22:52.541Z</time></trkpt><trkpt lat="44.1332133" lon="11.9021417"><ele>113.0</ele><time>2026-05-02T07:22:54.541Z</time></trkpt><trkpt lat="44.1331683" lon="11.9020517"><ele>112.50000000000001</ele><time>2026-05-02T07:22:56.541Z</time></trkpt><trkpt lat="44.1331233" lon="11.9019533"><ele>112.0</ele><time>2026-05-02T07:22:58.541Z</time></trkpt><trkpt lat="44.1330767" lon="11.9018567"><ele>112.0</ele><time>2026-05-02T07:23:00.541Z</time></trkpt><trkpt lat="44.1330283" lon="11.9017667"><ele>112.0</ele><time>2026-05-02T07:23:02.541Z</time></trkpt><trkpt lat="44.1329833" lon="11.9016817"><ele>112.0</ele><time>2026-05-02T07:23:04.541Z</time></trkpt><trkpt lat="44.1329433" lon="11.9016017"><ele>112.0</ele><time>2026-05-02T07:23:06.541Z</time></trkpt><trkpt lat="44.132905" lon="11.9015183"><ele>112.0</ele><time>2026-05-02T07:23:08.541Z</time></trkpt><trkpt lat="44.1328633" lon="11.901435"><ele>112.0</ele><time>2026-05-02T07:23:10.541Z</time></trkpt><trkpt lat="44.13282" lon="11.9013533"><ele>112.0</ele><time>2026-05-02T07:23:12.541Z</time></trkpt><trkpt lat="44.1327767" lon="11.9012667"><ele>113.83333333333334</ele><time>2026-05-02T07:23:14.541Z</time></trkpt><trkpt lat="44.132735" lon="11.9011783"><ele>115.66666666666667</ele><time>2026-05-02T07:23:16.541Z</time></trkpt><trkpt lat="44.1326933" lon="11.9010917"><ele>117.5</ele><time>2026-05-02T07:23:18.541Z</time></trkpt><trkpt lat="44.1326517" lon="11.9010033"><ele>119.33333333333334</ele><time>2026-05-02T07:23:20.541Z</time></trkpt><trkpt lat="44.1326017" lon="11.9009167"><ele>121.16666666666667</ele><time>2026-05-02T07:23:22.541Z</time></trkpt><trkpt lat="44.1325567" lon="11.9008267"><ele>123.0</ele><time>2026-05-02T07:23:24.541Z</time></trkpt><trkpt lat="44.1325133" lon="11.90074"><ele>123.57142857142858</ele><time>2026-05-02T07:23:26.541Z</time></trkpt><trkpt lat="44.13247" lon="11.9006617"><ele>124.14285714285714</ele><time>2026-05-02T07:23:28.541Z</time></trkpt><trkpt lat="44.1324283" lon="11.90058"><ele>124.71428571428572</ele><time>2026-05-02T07:23:30.541Z</time></trkpt><trkpt lat="44.1323817" lon="11.9004967"><ele>125.28571428571429</ele><time>2026-05-02T07:23:32.541Z</time></trkpt><trkpt lat="44.132335" lon="11.900415"><ele>125.85714285714286</ele><time>2026-05-02T07:23:34.541Z</time></trkpt><trkpt lat="44.1322867" lon="11.9003283"><ele>126.42857142857143</ele><time>2026-05-02T07:23:36.541Z</time></trkpt><trkpt lat="44.1322417" lon="11.9002433"><ele>127.0</ele><time>2026-05-02T07:23:38.541Z</time></trkpt><trkpt lat="44.132195" lon="11.9001583"><ele>128.16666666666669</ele><time>2026-05-02T07:23:40.541Z</time></trkpt><trkpt lat="44.1321483" lon="11.9000717"><ele>129.33333333333334</ele><time>2026-05-02T07:23:42.541Z</time></trkpt><trkpt lat="44.132095" lon="11.89999"><ele>130.5</ele><time>2026-05-02T07:23:44.541Z</time></trkpt><trkpt lat="44.1320383" lon="11.89991"><ele>131.66666666666666</ele><time>2026-05-02T07:23:46.541Z</time></trkpt><trkpt lat="44.13198" lon="11.8998267"><ele>132.83333333333331</ele><time>2026-05-02T07:23:48.541Z</time></trkpt><trkpt lat="44.1319217" lon="11.8997483"><ele>134.0</ele><time>2026-05-02T07:23:50.541Z</time></trkpt><trkpt lat="44.131865" lon="11.8996717"><ele>134.0</ele><time>2026-05-02T07:23:52.541Z</time></trkpt><trkpt lat="44.1318067" lon="11.8996033"><ele>134.0</ele><time>2026-05-02T07:23:54.541Z</time></trkpt><trkpt lat="44.13175" lon="11.8995417"><ele>134.0</ele><time>2026-05-02T07:23:56.541Z</time></trkpt><trkpt lat="44.13169" lon="11.8994783"><ele>134.0</ele><time>2026-05-02T07:23:58.541Z</time></trkpt><trkpt lat="44.131625" lon="11.899415"><ele>134.0</ele><time>2026-05-02T07:24:00.541Z</time></trkpt><trkpt lat="44.1315583" lon="11.89934"><ele>134.0</ele><time>2026-05-02T07:24:02.541Z</time></trkpt><trkpt lat="44.131485" lon="11.899275"><ele>133.66666666666666</ele><time>2026-05-02T07:24:04.541Z</time></trkpt><trkpt lat="44.13142" lon="11.8992033"><ele>133.33333333333331</ele><time>2026-05-02T07:24:06.541Z</time></trkpt><trkpt lat="44.13135" lon="11.899125"><ele>133.0</ele><time>2026-05-02T07:24:08.541Z</time></trkpt><trkpt lat="44.1312767" lon="11.899065"><ele>132.66666666666666</ele><time>2026-05-02T07:24:10.541Z</time></trkpt><trkpt lat="44.13121" lon="11.8989883"><ele>132.33333333333334</ele><time>2026-05-02T07:24:12.541Z</time></trkpt><trkpt lat="44.131135" lon="11.8989117"><ele>132.0</ele><time>2026-05-02T07:24:14.541Z</time></trkpt><trkpt lat="44.13105" lon="11.8988383"><ele>132.0</ele><time>2026-05-02T07:24:16.541Z</time></trkpt><trkpt lat="44.1309733" lon="11.8987567"><ele>132.0</ele><time>2026-05-02T07:24:18.541Z</time></trkpt><trkpt lat="44.1308933" lon="11.89867"><ele>132.0</ele><time>2026-05-02T07:24:20.541Z</time></trkpt><trkpt lat="44.1308083" lon="11.8985917"><ele>132.0</ele><time>2026-05-02T07:24:22.541Z</time></trkpt><trkpt lat="44.1307217" lon="11.8985083"><ele>132.0</ele><time>2026-05-02T07:24:24.541Z</time></trkpt><trkpt lat="44.1306383" lon="11.8984217"><ele>132.79999999999998</ele><time>2026-05-02T07:24:26.541Z</time></trkpt><trkpt lat="44.1305567" lon="11.8983367"><ele>133.6</ele><time>2026-05-02T07:24:28.541Z</time></trkpt><trkpt lat="44.130475" lon="11.89826"><ele>134.39999999999998</ele><time>2026-05-02T07:24:30.541Z</time></trkpt><trkpt lat="44.1303867" lon="11.8981767"><ele>135.2</ele><time>2026-05-02T07:24:32.541Z</time></trkpt><trkpt lat="44.1302983" lon="11.8980867"><ele>136.0</ele><time>2026-05-02T07:24:34.541Z</time></trkpt><trkpt lat="44.130205" lon="11.8979933"><ele>136.0</ele><time>2026-05-02T07:24:36.541Z</time></trkpt><trkpt lat="44.1301117" lon="11.897895"><ele>136.0</ele><time>2026-05-02T07:24:38.541Z</time></trkpt><trkpt lat="44.1300583" lon="11.8978317"><ele>136.0</ele><time>2026-05-02T07:24:39.541Z</time></trkpt><trkpt lat="44.1300083" lon="11.8977767"><ele>136.0</ele><time>2026-05-02T07:24:40.542Z</time></trkpt><trkpt lat="44.129905" lon="11.8976817"><ele>136.0</ele><time>2026-05-02T07:24:42.541Z</time></trkpt><trkpt lat="44.1298083" lon="11.8975883"><ele>137.0</ele><time>2026-05-02T07:24:44.541Z</time></trkpt><trkpt lat="44.12971" lon="11.8974917"><ele>138.0</ele><time>2026-05-02T07:24:46.541Z</time></trkpt><trkpt lat="44.12966" lon="11.8974383"><ele>139.0</ele><time>2026-05-02T07:24:47.541Z</time></trkpt><trkpt lat="44.12961" lon="11.89738"><ele>140.0</ele><time>2026-05-02T07:24:48.541Z</time></trkpt><trkpt lat="44.129515" lon="11.8972783"><ele>141.0</ele><time>2026-05-02T07:24:50.541Z</time></trkpt><trkpt lat="44.1294267" lon="11.8971833"><ele>141.0</ele><time>2026-05-02T07:24:52.542Z</time></trkpt><trkpt lat="44.1293367" lon="11.8970933"><ele>141.0</ele><time>2026-05-02T07:24:54.541Z</time></trkpt><trkpt lat="44.1292417" lon="11.8969983"><ele>141.0</ele><time>2026-05-02T07:24:56.541Z</time></trkpt><trkpt lat="44.129145" lon="11.8968933"><ele>141.0</ele><time>2026-05-02T07:24:58.541Z</time></trkpt><trkpt lat="44.1290667" lon="11.8967683"><ele>139.8</ele><time>2026-05-02T07:25:00.541Z</time></trkpt><trkpt lat="44.129" lon="11.8966317"><ele>138.6</ele><time>2026-05-02T07:25:02.541Z</time></trkpt><trkpt lat="44.1289683" lon="11.89655"><ele>137.4</ele><time>2026-05-02T07:25:03.541Z</time></trkpt><trkpt lat="44.1289117" lon="11.8964"><ele>136.2</ele><time>2026-05-02T07:25:05.541Z</time></trkpt><trkpt lat="44.1288583" lon="11.8962483"><ele>135.0</ele><time>2026-05-02T07:25:07.541Z</time></trkpt><trkpt lat="44.1288283" lon="11.89617"><ele>135.0</ele><time>2026-05-02T07:25:08.541Z</time></trkpt><trkpt lat="44.128775" lon="11.8960133"><ele>135.0</ele><time>2026-05-02T07:25:10.541Z</time></trkpt><trkpt lat="44.1287283" lon="11.8958533"><ele>135.0</ele><time>2026-05-02T07:25:12.541Z</time></trkpt><trkpt lat="44.1286833" lon="11.895695"><ele>135.0</ele><time>2026-05-02T07:25:14.541Z</time></trkpt><trkpt lat="44.1286383" lon="11.89554"><ele>135.6</ele><time>2026-05-02T07:25:16.541Z</time></trkpt><trkpt lat="44.128595" lon="11.8953917"><ele>136.2</ele><time>2026-05-02T07:25:18.541Z</time></trkpt><trkpt lat="44.1285567" lon="11.8952533"><ele>136.8</ele><time>2026-05-02T07:25:20.541Z</time></trkpt><trkpt lat="44.1285217" lon="11.8951067"><ele>137.4</ele><time>2026-05-02T07:25:22.541Z</time></trkpt><trkpt lat="44.1284867" lon="11.894965"><ele>138.0</ele><time>2026-05-02T07:25:24.541Z</time></trkpt><trkpt lat="44.128455" lon="11.8948217"><ele>138.6</ele><time>2026-05-02T07:25:26.541Z</time></trkpt><trkpt lat="44.1284283" lon="11.8946817"><ele>139.20000000000002</ele><time>2026-05-02T07:25:28.541Z</time></trkpt><trkpt lat="44.1284" lon="11.894535"><ele>139.8</ele><time>2026-05-02T07:25:30.541Z</time></trkpt><trkpt lat="44.1283717" lon="11.8943917"><ele>140.4</ele><time>2026-05-02T07:25:32.541Z</time></trkpt><trkpt lat="44.12834" lon="11.8942533"><ele>141.0</ele><time>2026-05-02T07:25:34.541Z</time></trkpt><trkpt lat="44.1283" lon="11.8941183"><ele>141.4</ele><time>2026-05-02T07:25:36.541Z</time></trkpt><trkpt lat="44.1282467" lon="11.8939917"><ele>141.8</ele><time>2026-05-02T07:25:38.541Z</time></trkpt><trkpt lat="44.1281967" lon="11.8938533"><ele>142.20000000000002</ele><time>2026-05-02T07:25:40.542Z</time></trkpt><trkpt lat="44.128145" lon="11.8937"><ele>142.6</ele><time>2026-05-02T07:25:42.541Z</time></trkpt><trkpt lat="44.1280883" lon="11.89357"><ele>143.0</ele><time>2026-05-02T07:25:44.541Z</time></trkpt><trkpt lat="44.1280267" lon="11.8934517"><ele>142.20000000000002</ele><time>2026-05-02T07:25:46.541Z</time></trkpt><trkpt lat="44.1279683" lon="11.893335"><ele>141.4</ele><time>2026-05-02T07:25:48.541Z</time></trkpt><trkpt lat="44.1279167" lon="11.8932217"><ele>140.60000000000002</ele><time>2026-05-02T07:25:50.541Z</time></trkpt><trkpt lat="44.127865" lon="11.893115"><ele>139.8</ele><time>2026-05-02T07:25:52.541Z</time></trkpt><trkpt lat="44.1278117" lon="11.8930117"><ele>139.0</ele><time>2026-05-02T07:25:54.541Z</time></trkpt><trkpt lat="44.1277583" lon="11.8929083"><ele>139.0</ele><time>2026-05-02T07:25:56.541Z</time></trkpt><trkpt lat="44.127705" lon="11.8928083"><ele>139.0</ele><time>2026-05-02T07:25:58.541Z</time></trkpt><trkpt lat="44.1276517" lon="11.8927133"><ele>139.0</ele><time>2026-05-02T07:26:00.541Z</time></trkpt><trkpt lat="44.1276" lon="11.8926183"><ele>139.0</ele><time>2026-05-02T07:26:02.541Z</time></trkpt><trkpt lat="44.12755" lon="11.8925317"><ele>139.0</ele><time>2026-05-02T07:26:04.541Z</time></trkpt><trkpt lat="44.1275017" lon="11.892445"><ele>139.0</ele><time>2026-05-02T07:26:06.541Z</time></trkpt><trkpt lat="44.1274483" lon="11.8923617"><ele>139.28571428571428</ele><time>2026-05-02T07:26:08.541Z</time></trkpt><trkpt lat="44.127405" lon="11.8922833"><ele>139.57142857142858</ele><time>2026-05-02T07:26:10.541Z</time></trkpt><trkpt lat="44.12735" lon="11.8921867"><ele>139.85714285714286</ele><time>2026-05-02T07:26:13.541Z</time></trkpt><trkpt lat="44.1273083" lon="11.892115"><ele>140.14285714285714</ele><time>2026-05-02T07:26:16.541Z</time></trkpt><trkpt lat="44.1272833" lon="11.892025"><ele>140.42857142857142</ele><time>2026-05-02T07:26:20.541Z</time></trkpt><trkpt lat="44.1272517" lon="11.8919417"><ele>140.71428571428572</ele><time>2026-05-02T07:26:48.541Z</time></trkpt><trkpt lat="44.1272033" lon="11.89188"><ele>141.0</ele><time>2026-05-02T07:26:50.541Z</time></trkpt><trkpt lat="44.1271567" lon="11.8917917"><ele>138.4</ele><time>2026-05-02T07:26:52.541Z</time></trkpt><trkpt lat="44.1270983" lon="11.8916867"><ele>135.8</ele><time>2026-05-02T07:26:54.541Z</time></trkpt><trkpt lat="44.127055" lon="11.8915583"><ele>133.20000000000002</ele><time>2026-05-02T07:26:56.541Z</time></trkpt><trkpt lat="44.1270133" lon="11.89141"><ele>130.6</ele><time>2026-05-02T07:26:58.541Z</time></trkpt><trkpt lat="44.1269683" lon="11.8912667"><ele>128.0</ele><time>2026-05-02T07:27:00.541Z</time></trkpt><trkpt lat="44.1269317" lon="11.8911133"><ele>127.99999999999999</ele><time>2026-05-02T07:27:02.541Z</time></trkpt><trkpt lat="44.126885" lon="11.8909533"><ele>128.0</ele><time>2026-05-02T07:27:04.541Z</time></trkpt><trkpt lat="44.126855" lon="11.8908733"><ele>128.0</ele><time>2026-05-02T07:27:05.541Z</time></trkpt><trkpt lat="44.1268183" lon="11.8907983"><ele>128.0</ele><time>2026-05-02T07:27:06.541Z</time></trkpt><trkpt lat="44.126775" lon="11.890725"><ele>127.99999999999999</ele><time>2026-05-02T07:27:07.541Z</time></trkpt><trkpt lat="44.12674" lon="11.89065"><ele>128.0</ele><time>2026-05-02T07:27:08.542Z</time></trkpt><trkpt lat="44.1267" lon="11.89057"><ele>127.49999999999999</ele><time>2026-05-02T07:27:09.541Z</time></trkpt><trkpt lat="44.1266567" lon="11.890495"><ele>127.0</ele><time>2026-05-02T07:27:10.541Z</time></trkpt><trkpt lat="44.1266117" lon="11.8904283"><ele>126.5</ele><time>2026-05-02T07:27:11.541Z</time></trkpt><trkpt lat="44.126565" lon="11.89035"><ele>126.0</ele><time>2026-05-02T07:27:12.541Z</time></trkpt><trkpt lat="44.126515" lon="11.8902767"><ele>125.49999999999999</ele><time>2026-05-02T07:27:13.541Z</time></trkpt><trkpt lat="44.1264667" lon="11.89021"><ele>125.0</ele><time>2026-05-02T07:27:14.541Z</time></trkpt><trkpt lat="44.1263733" lon="11.8901067"><ele>126.8</ele><time>2026-05-02T07:27:16.541Z</time></trkpt><trkpt lat="44.126265" lon="11.89"><ele>128.6</ele><time>2026-05-02T07:27:18.541Z</time></trkpt><trkpt lat="44.1262033" lon="11.8899433"><ele>130.4</ele><time>2026-05-02T07:27:19.541Z</time></trkpt><trkpt lat="44.1261417" lon="11.88988"><ele>132.2</ele><time>2026-05-02T07:27:20.542Z</time></trkpt><trkpt lat="44.1260817" lon="11.8897867"><ele>134.0</ele><time>2026-05-02T07:27:21.541Z</time></trkpt><trkpt lat="44.1260217" lon="11.8897167"><ele>134.0</ele><time>2026-05-02T07:27:22.541Z</time></trkpt><trkpt lat="44.1259567" lon="11.889655"><ele>134.0</ele><time>2026-05-02T07:27:23.541Z</time></trkpt><trkpt lat="44.1258933" lon="11.8895817"><ele>134.0</ele><time>2026-05-02T07:27:24.541Z</time></trkpt><trkpt lat="44.12583" lon="11.8895167"><ele>134.0</ele><time>2026-05-02T07:27:25.541Z</time></trkpt><trkpt lat="44.125765" lon="11.8894533"><ele>134.0</ele><time>2026-05-02T07:27:26.541Z</time></trkpt><trkpt lat="44.1256983" lon="11.889385"><ele>134.0</ele><time>2026-05-02T07:27:27.541Z</time></trkpt><trkpt lat="44.125635" lon="11.8893267"><ele>134.33333333333331</ele><time>2026-05-02T07:27:28.541Z</time></trkpt><trkpt lat="44.1255633" lon="11.88926"><ele>134.66666666666666</ele><time>2026-05-02T07:27:29.541Z</time></trkpt><trkpt lat="44.12549" lon="11.8891967"><ele>135.0</ele><time>2026-05-02T07:27:30.541Z</time></trkpt><trkpt lat="44.1254167" lon="11.88913"><ele>135.33333333333334</ele><time>2026-05-02T07:27:31.541Z</time></trkpt><trkpt lat="44.125345" lon="11.8890617"><ele>135.66666666666669</ele><time>2026-05-02T07:27:32.541Z</time></trkpt><trkpt lat="44.125275" lon="11.8889933"><ele>136.0</ele><time>2026-05-02T07:27:33.541Z</time></trkpt><trkpt lat="44.1252017" lon="11.8889267"><ele>136.0</ele><time>2026-05-02T07:27:34.541Z</time></trkpt><trkpt lat="44.1251333" lon="11.888855"><ele>136.0</ele><time>2026-05-02T07:27:35.541Z</time></trkpt><trkpt lat="44.12507" lon="11.8887867"><ele>136.0</ele><time>2026-05-02T07:27:36.541Z</time></trkpt><trkpt lat="44.1249967" lon="11.8887133"><ele>136.0</ele><time>2026-05-02T07:27:37.541Z</time></trkpt><trkpt lat="44.1249267" lon="11.8886417"><ele>136.0</ele><time>2026-05-02T07:27:38.541Z</time></trkpt><trkpt lat="44.1248567" lon="11.8885733"><ele>136.0</ele><time>2026-05-02T07:27:39.541Z</time></trkpt><trkpt lat="44.124785" lon="11.8885133"><ele>134.33333333333334</ele><time>2026-05-02T07:27:40.542Z</time></trkpt><trkpt lat="44.1247117" lon="11.8884633"><ele>132.66666666666669</ele><time>2026-05-02T07:27:41.541Z</time></trkpt><trkpt lat="44.1246333" lon="11.888435"><ele>131.0</ele><time>2026-05-02T07:27:42.541Z</time></trkpt><trkpt lat="44.1245583" lon="11.8884283"><ele>129.33333333333334</ele><time>2026-05-02T07:27:43.541Z</time></trkpt><trkpt lat="44.1244883" lon="11.888445"><ele>127.66666666666667</ele><time>2026-05-02T07:27:44.541Z</time></trkpt><trkpt lat="44.12442" lon="11.8884817"><ele>126.0</ele><time>2026-05-02T07:27:45.541Z</time></trkpt><trkpt lat="44.12435" lon="11.8885367"><ele>126.0</ele><time>2026-05-02T07:27:46.541Z</time></trkpt><trkpt lat="44.124285" lon="11.8886083"><ele>126.0</ele><time>2026-05-02T07:27:47.541Z</time></trkpt><trkpt lat="44.124215" lon="11.8886867"><ele>126.0</ele><time>2026-05-02T07:27:48.541Z</time></trkpt><trkpt lat="44.1241367" lon="11.8887517"><ele>126.0</ele><time>2026-05-02T07:27:49.541Z</time></trkpt><trkpt lat="44.124055" lon="11.8887967"><ele>126.0</ele><time>2026-05-02T07:27:50.541Z</time></trkpt><trkpt lat="44.1239733" lon="11.8888167"><ele>126.0</ele><time>2026-05-02T07:27:51.541Z</time></trkpt><trkpt lat="44.1238883" lon="11.8888167"><ele>125.5</ele><time>2026-05-02T07:27:52.541Z</time></trkpt><trkpt lat="44.1238117" lon="11.888795"><ele>125.0</ele><time>2026-05-02T07:27:53.541Z</time></trkpt><trkpt lat="44.1237383" lon="11.8887467"><ele>124.5</ele><time>2026-05-02T07:27:54.541Z</time></trkpt><trkpt lat="44.1236633" lon="11.88869"><ele>124.0</ele><time>2026-05-02T07:27:55.541Z</time></trkpt><trkpt lat="44.1236017" lon="11.8886217"><ele>123.5</ele><time>2026-05-02T07:27:56.541Z</time></trkpt><trkpt lat="44.1235433" lon="11.8885517"><ele>123.0</ele><time>2026-05-02T07:27:57.541Z</time></trkpt><trkpt lat="44.123485" lon="11.88849"><ele>123.00000000000001</ele><time>2026-05-02T07:27:58.541Z</time></trkpt><trkpt lat="44.123425" lon="11.8884267"><ele>123.0</ele><time>2026-05-02T07:27:59.541Z</time></trkpt><trkpt lat="44.123365" lon="11.8883667"><ele>123.00000000000001</ele><time>2026-05-02T07:28:00.541Z</time></trkpt><trkpt lat="44.1232983" lon="11.8883283"><ele>123.00000000000001</ele><time>2026-05-02T07:28:01.541Z</time></trkpt><trkpt lat="44.1232267" lon="11.888315"><ele>123.0</ele><time>2026-05-02T07:28:02.542Z</time></trkpt><trkpt lat="44.1231633" lon="11.8883217"><ele>123.00000000000001</ele><time>2026-05-02T07:28:03.541Z</time></trkpt><trkpt lat="44.123095" lon="11.8883417"><ele>123.00000000000001</ele><time>2026-05-02T07:28:04.541Z</time></trkpt><trkpt lat="44.12303" lon="11.88836"><ele>124.33333333333333</ele><time>2026-05-02T07:28:05.541Z</time></trkpt><trkpt lat="44.1229583" lon="11.8883883"><ele>125.66666666666666</ele><time>2026-05-02T07:28:06.541Z</time></trkpt><trkpt lat="44.122885" lon="11.8884133"><ele>127.0</ele><time>2026-05-02T07:28:07.541Z</time></trkpt><trkpt lat="44.1227867" lon="11.88845"><ele>128.33333333333331</ele><time>2026-05-02T07:28:09.541Z</time></trkpt><trkpt lat="44.1227183" lon="11.88846"><ele>129.66666666666666</ele><time>2026-05-02T07:28:12.541Z</time></trkpt><trkpt lat="44.122675" lon="11.8885333"><ele>131.0</ele><time>2026-05-02T07:28:24.541Z</time></trkpt><trkpt lat="44.1226767" lon="11.8886267"><ele>131.0</ele><time>2026-05-02T07:28:27.541Z</time></trkpt><trkpt lat="44.122675" lon="11.888765"><ele>131.0</ele><time>2026-05-02T07:28:30.541Z</time></trkpt><trkpt lat="44.1226767" lon="11.888885"><ele>131.0</ele><time>2026-05-02T07:28:32.541Z</time></trkpt><trkpt lat="44.1226733" lon="11.8890033"><ele>131.0</ele><time>2026-05-02T07:28:34.541Z</time></trkpt><trkpt lat="44.1226767" lon="11.8891167"><ele>131.0</ele><time>2026-05-02T07:28:36.541Z</time></trkpt><trkpt lat="44.1226717" lon="11.8892217"><ele>131.0</ele><time>2026-05-02T07:28:38.541Z</time></trkpt><trkpt lat="44.12266" lon="11.8893167"><ele>133.33333333333331</ele><time>2026-05-02T07:28:40.541Z</time></trkpt><trkpt lat="44.1226517" lon="11.88944"><ele>135.66666666666666</ele><time>2026-05-02T07:28:43.541Z</time></trkpt><trkpt lat="44.1226383" lon="11.8895517"><ele>138.0</ele><time>2026-05-02T07:28:46.541Z</time></trkpt><trkpt lat="44.1226317" lon="11.889665"><ele>140.33333333333334</ele><time>2026-05-02T07:28:50.541Z</time></trkpt><trkpt lat="44.1226417" lon="11.8897583"><ele>142.66666666666669</ele><time>2026-05-02T07:28:53.541Z</time></trkpt><trkpt lat="44.1226533" lon="11.889855"><ele>145.0</ele><time>2026-05-02T07:28:56.541Z</time></trkpt><trkpt lat="44.1226817" lon="11.8899683"><ele>145.0</ele><time>2026-05-02T07:28:59.541Z</time></trkpt><trkpt lat="44.1227083" lon="11.890075"><ele>145.0</ele><time>2026-05-02T07:29:02.541Z</time></trkpt><trkpt lat="44.1227367" lon="11.8901533"><ele>145.0</ele><time>2026-05-02T07:29:05.541Z</time></trkpt><trkpt lat="44.1227717" lon="11.89023"><ele>145.0</ele><time>2026-05-02T07:29:09.541Z</time></trkpt><trkpt lat="44.1228033" lon="11.8903217"><ele>145.0</ele><time>2026-05-02T07:29:14.542Z</time></trkpt><trkpt lat="44.1228317" lon="11.8904"><ele>145.0</ele><time>2026-05-02T07:29:17.541Z</time></trkpt><trkpt lat="44.1228617" lon="11.8905067"><ele>145.0</ele><time>2026-05-02T07:29:21.541Z</time></trkpt><trkpt lat="44.12288" lon="11.8905933"><ele>146.5</ele><time>2026-05-02T07:29:24.541Z</time></trkpt><trkpt lat="44.1228933" lon="11.89068"><ele>148.0</ele><time>2026-05-02T07:29:27.541Z</time></trkpt><trkpt lat="44.1229083" lon="11.8908017"><ele>149.5</ele><time>2026-05-02T07:29:30.541Z</time></trkpt><trkpt lat="44.1229033" lon="11.8908983"><ele>151.0</ele><time>2026-05-02T07:29:33.541Z</time></trkpt><trkpt lat="44.122895" lon="11.89103"><ele>152.5</ele><time>2026-05-02T07:29:37.542Z</time></trkpt><trkpt lat="44.1228933" lon="11.8911183"><ele>154.0</ele><time>2026-05-02T07:29:39.541Z</time></trkpt><trkpt lat="44.1228883" lon="11.8912383"><ele>154.16666666666669</ele><time>2026-05-02T07:29:42.541Z</time></trkpt><trkpt lat="44.1229" lon="11.8913517"><ele>154.33333333333334</ele><time>2026-05-02T07:29:46.541Z</time></trkpt><trkpt lat="44.122905" lon="11.8914417"><ele>154.5</ele><time>2026-05-02T07:29:49.541Z</time></trkpt><trkpt lat="44.12292" lon="11.8915417"><ele>154.66666666666666</ele><time>2026-05-02T07:29:52.541Z</time></trkpt><trkpt lat="44.1229367" lon="11.89165"><ele>154.83333333333331</ele><time>2026-05-02T07:29:56.541Z</time></trkpt><trkpt lat="44.1229567" lon="11.8917633"><ele>155.0</ele><time>2026-05-02T07:30:00.541Z</time></trkpt><trkpt lat="44.122975" lon="11.8918583"><ele>155.71428571428572</ele><time>2026-05-02T07:30:03.541Z</time></trkpt><trkpt lat="44.1229983" lon="11.8919717"><ele>156.42857142857142</ele><time>2026-05-02T07:30:07.541Z</time></trkpt><trkpt lat="44.1230217" lon="11.8920733"><ele>157.14285714285714</ele><time>2026-05-02T07:30:10.541Z</time></trkpt><trkpt lat="44.123035" lon="11.8921733"><ele>157.85714285714286</ele><time>2026-05-02T07:30:13.541Z</time></trkpt><trkpt lat="44.123025" lon="11.89226"><ele>158.57142857142858</ele><time>2026-05-02T07:30:16.541Z</time></trkpt><trkpt lat="44.123005" lon="11.892365"><ele>159.28571428571428</ele><time>2026-05-02T07:30:19.541Z</time></trkpt><trkpt lat="44.1229567" lon="11.8922933"><ele>160.0</ele><time>2026-05-02T07:30:29.541Z</time></trkpt><trkpt lat="44.12291" lon="11.8922067"><ele>160.0</ele><time>2026-05-02T07:30:33.541Z</time></trkpt><trkpt lat="44.12286" lon="11.892105"><ele>160.0</ele><time>2026-05-02T07:30:37.541Z</time></trkpt><trkpt lat="44.12284" lon="11.8920167"><ele>160.0</ele><time>2026-05-02T07:30:40.542Z</time></trkpt><trkpt lat="44.1228033" lon="11.8919067"><ele>160.0</ele><time>2026-05-02T07:30:44.541Z</time></trkpt><trkpt lat="44.122775" lon="11.89181"><ele>160.0</ele><time>2026-05-02T07:30:47.541Z</time></trkpt><trkpt lat="44.1227533" lon="11.8917217"><ele>160.0</ele><time>2026-05-02T07:30:50.541Z</time></trkpt><trkpt lat="44.1227283" lon="11.89163"><ele>159.28571428571428</ele><time>2026-05-02T07:30:53.541Z</time></trkpt><trkpt lat="44.1227183" lon="11.891525"><ele>158.57142857142858</ele><time>2026-05-02T07:30:56.541Z</time></trkpt><trkpt lat="44.122685" lon="11.89142"><ele>157.85714285714286</ele><time>2026-05-02T07:30:59.541Z</time></trkpt><trkpt lat="44.122665" lon="11.89133"><ele>157.14285714285714</ele><time>2026-05-02T07:31:02.541Z</time></trkpt><trkpt lat="44.1226517" lon="11.8912233"><ele>156.42857142857142</ele><time>2026-05-02T07:31:06.541Z</time></trkpt><trkpt lat="44.122625" lon="11.8911217"><ele>155.71428571428572</ele><time>2026-05-02T07:31:10.542Z</time></trkpt><trkpt lat="44.1226083" lon="11.8910317"><ele>155.0</ele><time>2026-05-02T07:31:14.541Z</time></trkpt><trkpt lat="44.1225683" lon="11.8909383"><ele>154.85714285714286</ele><time>2026-05-02T07:31:20.541Z</time></trkpt><trkpt lat="44.1225367" lon="11.890845"><ele>154.71428571428572</ele><time>2026-05-02T07:31:24.542Z</time></trkpt><trkpt lat="44.122495" lon="11.8907617"><ele>154.57142857142856</ele><time>2026-05-02T07:31:27.541Z</time></trkpt><trkpt lat="44.1224617" lon="11.8906617"><ele>154.42857142857144</ele><time>2026-05-02T07:31:31.541Z</time></trkpt><trkpt lat="44.1224517" lon="11.8905683"><ele>154.28571428571428</ele><time>2026-05-02T07:31:34.541Z</time></trkpt><trkpt lat="44.1224317" lon="11.8904733"><ele>154.14285714285714</ele><time>2026-05-02T07:31:37.541Z</time></trkpt><trkpt lat="44.122395" lon="11.890395"><ele>154.0</ele><time>2026-05-02T07:31:40.541Z</time></trkpt><trkpt lat="44.1223533" lon="11.8903067"><ele>153.5</ele><time>2026-05-02T07:31:44.541Z</time></trkpt><trkpt lat="44.1222883" lon="11.8902283"><ele>153.0</ele><time>2026-05-02T07:31:48.541Z</time></trkpt><trkpt lat="44.12223" lon="11.8901683"><ele>152.5</ele><time>2026-05-02T07:31:51.541Z</time></trkpt><trkpt lat="44.1221683" lon="11.8901083"><ele>152.0</ele><time>2026-05-02T07:31:54.542Z</time></trkpt><trkpt lat="44.1220967" lon="11.8900567"><ele>151.5</ele><time>2026-05-02T07:31:57.541Z</time></trkpt><trkpt lat="44.1220383" lon="11.8900067"><ele>151.0</ele><time>2026-05-02T07:32:00.541Z</time></trkpt><trkpt lat="44.1219583" lon="11.889975"><ele>151.0</ele><time>2026-05-02T07:32:04.541Z</time></trkpt><trkpt lat="44.121885" lon="11.8899767"><ele>151.0</ele><time>2026-05-02T07:32:08.541Z</time></trkpt><trkpt lat="44.1218117" lon="11.8900133"><ele>151.0</ele><time>2026-05-02T07:32:13.541Z</time></trkpt><trkpt lat="44.1217567" lon="11.89006"><ele>151.0</ele><time>2026-05-02T07:32:17.541Z</time></trkpt><trkpt lat="44.121705" lon="11.8901183"><ele>151.0</ele><time>2026-05-02T07:32:20.541Z</time></trkpt><trkpt lat="44.121635" lon="11.8901833"><ele>151.0</ele><time>2026-05-02T07:32:23.541Z</time></trkpt><trkpt lat="44.1215817" lon="11.8902767"><ele>152.66666666666669</ele><time>2026-05-02T07:32:26.541Z</time></trkpt><trkpt lat="44.121525" lon="11.890355"><ele>154.33333333333334</ele><time>2026-05-02T07:32:29.541Z</time></trkpt><trkpt lat="44.1214683" lon="11.8904267"><ele>156.0</ele><time>2026-05-02T07:32:32.541Z</time></trkpt><trkpt lat="44.1214167" lon="11.8904983"><ele>157.66666666666666</ele><time>2026-05-02T07:32:35.541Z</time></trkpt><trkpt lat="44.1213667" lon="11.8905883"><ele>159.33333333333331</ele><time>2026-05-02T07:32:38.541Z</time></trkpt><trkpt lat="44.12132" lon="11.8906667"><ele>161.0</ele><time>2026-05-02T07:32:41.541Z</time></trkpt><trkpt lat="44.1212683" lon="11.890735"><ele>161.0</ele><time>2026-05-02T07:32:45.541Z</time></trkpt><trkpt lat="44.12122" lon="11.8908117"><ele>161.0</ele><time>2026-05-02T07:32:49.542Z</time></trkpt><trkpt lat="44.1211717" lon="11.8908967"><ele>161.0</ele><time>2026-05-02T07:32:53.541Z</time></trkpt><trkpt lat="44.1211267" lon="11.8909767"><ele>161.0</ele><time>2026-05-02T07:32:57.541Z</time></trkpt><trkpt lat="44.121065" lon="11.8910333"><ele>161.0</ele><time>2026-05-02T07:33:01.541Z</time></trkpt><trkpt lat="44.121015" lon="11.89109"><ele>161.0</ele><time>2026-05-02T07:33:05.541Z</time></trkpt><trkpt lat="44.12096" lon="11.8911633"><ele>161.0</ele><time>2026-05-02T07:33:09.541Z</time></trkpt><trkpt lat="44.1209217" lon="11.89126"><ele>163.33333333333331</ele><time>2026-05-02T07:33:13.541Z</time></trkpt><trkpt lat="44.1209" lon="11.8913533"><ele>165.66666666666666</ele><time>2026-05-02T07:33:17.541Z</time></trkpt><trkpt lat="44.1209" lon="11.89145"><ele>168.0</ele><time>2026-05-02T07:33:20.541Z</time></trkpt><trkpt lat="44.1209233" lon="11.891555"><ele>170.33333333333334</ele><time>2026-05-02T07:33:24.541Z</time></trkpt><trkpt lat="44.12095" lon="11.8916567"><ele>172.66666666666669</ele><time>2026-05-02T07:33:28.541Z</time></trkpt><trkpt lat="44.12098" lon="11.891755"><ele>175.0</ele><time>2026-05-02T07:33:33.541Z</time></trkpt><trkpt lat="44.1210233" lon="11.8918517"><ele>177.14285714285714</ele><time>2026-05-02T07:33:37.541Z</time></trkpt><trkpt lat="44.12105" lon="11.8919333"><ele>179.28571428571428</ele><time>2026-05-02T07:33:40.541Z</time></trkpt><trkpt lat="44.121085" lon="11.8920067"><ele>181.42857142857144</ele><time>2026-05-02T07:33:43.541Z</time></trkpt><trkpt lat="44.121105" lon="11.8921033"><ele>183.57142857142856</ele><time>2026-05-02T07:33:46.541Z</time></trkpt><trkpt lat="44.121125" lon="11.892205"><ele>185.71428571428572</ele><time>2026-05-02T07:33:49.541Z</time></trkpt><trkpt lat="44.1211533" lon="11.8923017"><ele>187.85714285714286</ele><time>2026-05-02T07:33:52.541Z</time></trkpt><trkpt lat="44.1211783" lon="11.89242"><ele>190.0</ele><time>2026-05-02T07:33:55.541Z</time></trkpt><trkpt lat="44.1212133" lon="11.892545"><ele>192.57142857142858</ele><time>2026-05-02T07:33:58.541Z</time></trkpt><trkpt lat="44.121255" lon="11.89264"><ele>195.14285714285717</ele><time>2026-05-02T07:34:01.541Z</time></trkpt><trkpt lat="44.1212933" lon="11.892725"><ele>197.71428571428572</ele><time>2026-05-02T07:34:04.541Z</time></trkpt><trkpt lat="44.12133" lon="11.8928183"><ele>200.28571428571428</ele><time>2026-05-02T07:34:07.541Z</time></trkpt><trkpt lat="44.1213583" lon="11.8929167"><ele>202.85714285714286</ele><time>2026-05-02T07:34:10.541Z</time></trkpt><trkpt lat="44.1213817" lon="11.89301"><ele>205.42857142857142</ele><time>2026-05-02T07:34:13.541Z</time></trkpt><trkpt lat="44.1214183" lon="11.893085"><ele>208.0</ele><time>2026-05-02T07:34:16.541Z</time></trkpt><trkpt lat="44.12147" lon="11.8931783"><ele>208.0</ele><time>2026-05-02T07:34:20.541Z</time></trkpt><trkpt lat="44.1215067" lon="11.8932783"><ele>208.0</ele><time>2026-05-02T07:34:24.541Z</time></trkpt><trkpt lat="44.1215567" lon="11.893355"><ele>208.0</ele><time>2026-05-02T07:34:28.541Z</time></trkpt><trkpt lat="44.121595" lon="11.8934433"><ele>208.0</ele><time>2026-05-02T07:34:32.541Z</time></trkpt><trkpt lat="44.1216317" lon="11.89352"><ele>208.0</ele><time>2026-05-02T07:34:35.541Z</time></trkpt><trkpt lat="44.1216633" lon="11.89361"><ele>208.0</ele><time>2026-05-02T07:34:39.541Z</time></trkpt><trkpt lat="44.121695" lon="11.8936917"><ele>208.0</ele><time>2026-05-02T07:34:42.541Z</time></trkpt><trkpt lat="44.1217317" lon="11.8937883"><ele>209.0</ele><time>2026-05-02T07:34:45.541Z</time></trkpt><trkpt lat="44.1217733" lon="11.8938683"><ele>210.0</ele><time>2026-05-02T07:34:49.541Z</time></trkpt><trkpt lat="44.1218083" lon="11.8939767"><ele>211.0</ele><time>2026-05-02T07:34:53.541Z</time></trkpt><trkpt lat="44.1218433" lon="11.894065"><ele>212.0</ele><time>2026-05-02T07:34:56.541Z</time></trkpt><trkpt lat="44.121875" lon="11.8941517"><ele>213.0</ele><time>2026-05-02T07:34:59.541Z</time></trkpt><trkpt lat="44.1219117" lon="11.8942317"><ele>214.0</ele><time>2026-05-02T07:35:02.541Z</time></trkpt><trkpt lat="44.1219467" lon="11.8943283"><ele>215.0</ele><time>2026-05-02T07:35:05.541Z</time></trkpt><trkpt lat="44.1219583" lon="11.8944183"><ele>215.00000000000003</ele><time>2026-05-02T07:35:08.541Z</time></trkpt><trkpt lat="44.1219783" lon="11.89452"><ele>215.0</ele><time>2026-05-02T07:35:12.541Z</time></trkpt><trkpt lat="44.1220233" lon="11.8946"><ele>215.0</ele><time>2026-05-02T07:35:17.541Z</time></trkpt><trkpt lat="44.122045" lon="11.8947433"><ele>215.0</ele><time>2026-05-02T07:35:23.541Z</time></trkpt><trkpt lat="44.1220717" lon="11.8948283"><ele>215.00000000000003</ele><time>2026-05-02T07:35:26.541Z</time></trkpt><trkpt lat="44.1221033" lon="11.8949383"><ele>215.0</ele><time>2026-05-02T07:35:30.541Z</time></trkpt><trkpt lat="44.122135" lon="11.8950167"><ele>218.16666666666669</ele><time>2026-05-02T07:35:33.541Z</time></trkpt><trkpt lat="44.1221733" lon="11.8951033"><ele>221.33333333333334</ele><time>2026-05-02T07:35:36.541Z</time></trkpt><trkpt lat="44.1222167" lon="11.8952167"><ele>224.5</ele><time>2026-05-02T07:35:39.541Z</time></trkpt><trkpt lat="44.1222183" lon="11.89533"><ele>227.66666666666669</ele><time>2026-05-02T07:35:42.541Z</time></trkpt><trkpt lat="44.122205" lon="11.8954183"><ele>230.83333333333334</ele><time>2026-05-02T07:35:44.542Z</time></trkpt><trkpt lat="44.1221367" lon="11.895435"><ele>234.0</ele><time>2026-05-02T07:35:48.541Z</time></trkpt><trkpt lat="44.12211" lon="11.895335"><ele>234.0</ele><time>2026-05-02T07:35:53.541Z</time></trkpt><trkpt lat="44.1220717" lon="11.8952433"><ele>234.00000000000003</ele><time>2026-05-02T07:35:57.541Z</time></trkpt><trkpt lat="44.1220417" lon="11.8951633"><ele>234.0</ele><time>2026-05-02T07:36:00.541Z</time></trkpt><trkpt lat="44.1220033" lon="11.89509"><ele>234.0</ele><time>2026-05-02T07:36:03.542Z</time></trkpt><trkpt lat="44.1219667" lon="11.8950183"><ele>234.00000000000003</ele><time>2026-05-02T07:36:06.541Z</time></trkpt><trkpt lat="44.1219367" lon="11.894935"><ele>234.0</ele><time>2026-05-02T07:36:09.541Z</time></trkpt><trkpt lat="44.1219017" lon="11.89484"><ele>234.0</ele><time>2026-05-02T07:36:13.541Z</time></trkpt><trkpt lat="44.12186" lon="11.89475"><ele>232.71428571428572</ele><time>2026-05-02T07:36:17.541Z</time></trkpt><trkpt lat="44.1218367" lon="11.8946567"><ele>231.42857142857144</ele><time>2026-05-02T07:36:21.541Z</time></trkpt><trkpt lat="44.121795" lon="11.8945883"><ele>230.14285714285717</ele><time>2026-05-02T07:36:24.541Z</time></trkpt><trkpt lat="44.1217483" lon="11.894525"><ele>228.8571428571429</ele><time>2026-05-02T07:36:27.541Z</time></trkpt><trkpt lat="44.1217117" lon="11.8944283"><ele>227.57142857142858</ele><time>2026-05-02T07:36:31.541Z</time></trkpt><trkpt lat="44.1216517" lon="11.8943783"><ele>226.28571428571433</ele><time>2026-05-02T07:36:34.541Z</time></trkpt><trkpt lat="44.1216" lon="11.894305"><ele>225.00000000000003</ele><time>2026-05-02T07:36:37.541Z</time></trkpt><trkpt lat="44.1215433" lon="11.894235"><ele>225.00000000000003</ele><time>2026-05-02T07:36:40.541Z</time></trkpt><trkpt lat="44.1215" lon="11.894135"><ele>225.0</ele><time>2026-05-02T07:36:43.541Z</time></trkpt><trkpt lat="44.12147" lon="11.894055"><ele>225.00000000000003</ele><time>2026-05-02T07:36:46.541Z</time></trkpt><trkpt lat="44.121455" lon="11.89395"><ele>225.00000000000003</ele><time>2026-05-02T07:36:50.541Z</time></trkpt><trkpt lat="44.1214317" lon="11.893865"><ele>225.0</ele><time>2026-05-02T07:36:53.541Z</time></trkpt><trkpt lat="44.1214" lon="11.8937817"><ele>225.00000000000003</ele><time>2026-05-02T07:36:56.541Z</time></trkpt><trkpt lat="44.1213417" lon="11.893695"><ele>225.00000000000003</ele><time>2026-05-02T07:36:59.541Z</time></trkpt><trkpt lat="44.1212867" lon="11.8936283"><ele>225.00000000000003</ele><time>2026-05-02T07:37:02.541Z</time></trkpt><trkpt lat="44.1212333" lon="11.8935433"><ele>225.0</ele><time>2026-05-02T07:37:05.541Z</time></trkpt><trkpt lat="44.121165" lon="11.89348"><ele>225.00000000000003</ele><time>2026-05-02T07:37:08.541Z</time></trkpt><trkpt lat="44.12111" lon="11.8934367"><ele>225.00000000000003</ele><time>2026-05-02T07:37:11.541Z</time></trkpt><trkpt lat="44.1210417" lon="11.8934067"><ele>225.0</ele><time>2026-05-02T07:37:14.541Z</time></trkpt><trkpt lat="44.1209667" lon="11.8933933"><ele>225.00000000000003</ele><time>2026-05-02T07:37:17.541Z</time></trkpt><trkpt lat="44.1208917" lon="11.893385"><ele>225.00000000000003</ele><time>2026-05-02T07:37:20.541Z</time></trkpt><trkpt lat="44.1208267" lon="11.89339"><ele>223.14285714285717</ele><time>2026-05-02T07:37:23.541Z</time></trkpt><trkpt lat="44.1207617" lon="11.8933883"><ele>221.28571428571428</ele><time>2026-05-02T07:37:26.541Z</time></trkpt><trkpt lat="44.120695" lon="11.8934017"><ele>219.42857142857144</ele><time>2026-05-02T07:37:29.541Z</time></trkpt><trkpt lat="44.1206317" lon="11.8934133"><ele>217.57142857142858</ele><time>2026-05-02T07:37:32.542Z</time></trkpt><trkpt lat="44.1205483" lon="11.8934317"><ele>215.71428571428572</ele><time>2026-05-02T07:37:36.541Z</time></trkpt><trkpt lat="44.1204867" lon="11.8934517"><ele>213.85714285714286</ele><time>2026-05-02T07:37:40.541Z</time></trkpt><trkpt lat="44.1204233" lon="11.8935"><ele>212.0</ele><time>2026-05-02T07:37:43.541Z</time></trkpt><trkpt lat="44.1204167" lon="11.8935983"><ele>212.00000000000003</ele><time>2026-05-02T07:37:47.541Z</time></trkpt><trkpt lat="44.1204767" lon="11.89365"><ele>212.0</ele><time>2026-05-02T07:37:51.541Z</time></trkpt><trkpt lat="44.120555" lon="11.8936533"><ele>212.0</ele><time>2026-05-02T07:37:55.541Z</time></trkpt><trkpt lat="44.1206383" lon="11.89363"><ele>212.0</ele><time>2026-05-02T07:37:59.541Z</time></trkpt><trkpt lat="44.120725" lon="11.893645"><ele>212.00000000000003</ele><time>2026-05-02T07:38:03.541Z</time></trkpt><trkpt lat="44.12079" lon="11.893645"><ele>212.0</ele><time>2026-05-02T07:38:06.541Z</time></trkpt><trkpt lat="44.1208633" lon="11.8936467"><ele>213.85714285714286</ele><time>2026-05-02T07:38:09.541Z</time></trkpt><trkpt lat="44.1209283" lon="11.8936583"><ele>215.71428571428572</ele><time>2026-05-02T07:38:12.541Z</time></trkpt><trkpt lat="44.1210017" lon="11.8936883"><ele>217.57142857142858</ele><time>2026-05-02T07:38:15.541Z</time></trkpt><trkpt lat="44.1210633" lon="11.8937183"><ele>219.42857142857144</ele><time>2026-05-02T07:38:18.541Z</time></trkpt><trkpt lat="44.1211117" lon="11.89378"><ele>221.28571428571428</ele><time>2026-05-02T07:38:21.541Z</time></trkpt><trkpt lat="44.1211467" lon="11.8938783"><ele>223.14285714285717</ele><time>2026-05-02T07:38:24.541Z</time></trkpt><trkpt lat="44.1211733" lon="11.8939767"><ele>225.00000000000003</ele><time>2026-05-02T07:38:27.541Z</time></trkpt><trkpt lat="44.1211933" lon="11.894085"><ele>225.00000000000003</ele><time>2026-05-02T07:38:30.541Z</time></trkpt><trkpt lat="44.1212183" lon="11.8941833"><ele>225.0</ele><time>2026-05-02T07:38:33.541Z</time></trkpt><trkpt lat="44.1212467" lon="11.8942733"><ele>225.00000000000003</ele><time>2026-05-02T07:38:36.541Z</time></trkpt><trkpt lat="44.1212717" lon="11.8943617"><ele>225.00000000000003</ele><time>2026-05-02T07:38:39.541Z</time></trkpt><trkpt lat="44.1212983" lon="11.8944633"><ele>225.0</ele><time>2026-05-02T07:38:43.541Z</time></trkpt><trkpt lat="44.1213383" lon="11.894565"><ele>225.00000000000003</ele><time>2026-05-02T07:38:47.541Z</time></trkpt><trkpt lat="44.121365" lon="11.894645"><ele>225.00000000000003</ele><time>2026-05-02T07:38:50.541Z</time></trkpt><trkpt lat="44.121385" lon="11.894735"><ele>226.5</ele><time>2026-05-02T07:38:53.541Z</time></trkpt><trkpt lat="44.12142" lon="11.8948333"><ele>228.0</ele><time>2026-05-02T07:38:57.541Z</time></trkpt><trkpt lat="44.121455" lon="11.8949283"><ele>229.5</ele><time>2026-05-02T07:39:01.541Z</time></trkpt><trkpt lat="44.121485" lon="11.895025"><ele>231.0</ele><time>2026-05-02T07:39:05.541Z</time></trkpt><trkpt lat="44.121525" lon="11.8951283"><ele>232.5</ele><time>2026-05-02T07:39:09.541Z</time></trkpt><trkpt lat="44.12155" lon="11.89524"><ele>234.0</ele><time>2026-05-02T07:39:12.541Z</time></trkpt><trkpt lat="44.1215767" lon="11.8953633"><ele>234.0</ele><time>2026-05-02T07:39:15.541Z</time></trkpt><trkpt lat="44.1216" lon="11.8954767"><ele>234.00000000000003</ele><time>2026-05-02T07:39:18.541Z</time></trkpt><trkpt lat="44.1216267" lon="11.895585"><ele>234.0</ele><time>2026-05-02T07:39:21.542Z</time></trkpt><trkpt lat="44.1216567" lon="11.8956933"><ele>234.0</ele><time>2026-05-02T07:39:24.541Z</time></trkpt><trkpt lat="44.1216833" lon="11.89578"><ele>234.00000000000003</ele><time>2026-05-02T07:39:27.541Z</time></trkpt><trkpt lat="44.1217117" lon="11.8958633"><ele>234.0</ele><time>2026-05-02T07:39:30.541Z</time></trkpt><trkpt lat="44.1217317" lon="11.89595"><ele>234.0</ele><time>2026-05-02T07:39:33.541Z</time></trkpt><trkpt lat="44.1217567" lon="11.8960417"><ele>236.14285714285717</ele><time>2026-05-02T07:39:36.541Z</time></trkpt><trkpt lat="44.1217783" lon="11.8961367"><ele>238.2857142857143</ele><time>2026-05-02T07:39:39.541Z</time></trkpt><trkpt lat="44.1217933" lon="11.8962267"><ele>240.42857142857144</ele><time>2026-05-02T07:39:42.541Z</time></trkpt><trkpt lat="44.1218217" lon="11.8963133"><ele>242.57142857142856</ele><time>2026-05-02T07:39:46.541Z</time></trkpt><trkpt lat="44.12186" lon="11.8964033"><ele>244.7142857142857</ele><time>2026-05-02T07:39:50.541Z</time></trkpt><trkpt lat="44.121905" lon="11.8964967"><ele>246.85714285714283</ele><time>2026-05-02T07:39:54.541Z</time></trkpt><trkpt lat="44.1219517" lon="11.8965633"><ele>249.0</ele><time>2026-05-02T07:39:57.541Z</time></trkpt><trkpt lat="44.1220033" lon="11.8966533"><ele>249.0</ele><time>2026-05-02T07:40:01.541Z</time></trkpt><trkpt lat="44.122055" lon="11.8967183"><ele>249.0</ele><time>2026-05-02T07:40:05.541Z</time></trkpt><trkpt lat="44.12211" lon="11.8967817"><ele>249.0</ele><time>2026-05-02T07:40:09.541Z</time></trkpt><trkpt lat="44.12216" lon="11.89687"><ele>249.0</ele><time>2026-05-02T07:40:13.541Z</time></trkpt><trkpt lat="44.1222" lon="11.8969517"><ele>249.0</ele><time>2026-05-02T07:40:16.541Z</time></trkpt><trkpt lat="44.1222467" lon="11.8970467"><ele>249.0</ele><time>2026-05-02T07:40:20.541Z</time></trkpt><trkpt lat="44.12229" lon="11.89715"><ele>252.0</ele><time>2026-05-02T07:40:24.541Z</time></trkpt><trkpt lat="44.12231" lon="11.8972467"><ele>255.0</ele><time>2026-05-02T07:40:27.541Z</time></trkpt><trkpt lat="44.122325" lon="11.8973467"><ele>258.0</ele><time>2026-05-02T07:40:30.541Z</time></trkpt><trkpt lat="44.1223317" lon="11.8974533"><ele>261.0</ele><time>2026-05-02T07:40:33.541Z</time></trkpt><trkpt lat="44.12234" lon="11.897565"><ele>264.0</ele><time>2026-05-02T07:40:36.541Z</time></trkpt><trkpt lat="44.1223683" lon="11.89767"><ele>267.0</ele><time>2026-05-02T07:40:39.541Z</time></trkpt><trkpt lat="44.122395" lon="11.8977783"><ele>264.5714285714286</ele><time>2026-05-02T07:40:42.541Z</time></trkpt><trkpt lat="44.122435" lon="11.8978717"><ele>262.14285714285717</ele><time>2026-05-02T07:40:45.541Z</time></trkpt><trkpt lat="44.1224817" lon="11.8979467"><ele>259.7142857142857</ele><time>2026-05-02T07:40:48.541Z</time></trkpt><trkpt lat="44.1225283" lon="11.8980133"><ele>257.28571428571433</ele><time>2026-05-02T07:40:51.541Z</time></trkpt><trkpt lat="44.1225817" lon="11.8980667"><ele>254.8571428571429</ele><time>2026-05-02T07:40:54.541Z</time></trkpt><trkpt lat="44.12263" lon="11.898125"><ele>252.42857142857142</ele><time>2026-05-02T07:40:57.541Z</time></trkpt><trkpt lat="44.1226833" lon="11.8982083"><ele>250.0</ele><time>2026-05-02T07:41:01.541Z</time></trkpt><trkpt lat="44.1227383" lon="11.89827"><ele>250.0</ele><time>2026-05-02T07:41:05.541Z</time></trkpt><trkpt lat="44.122775" lon="11.8983433"><ele>250.0</ele><time>2026-05-02T07:41:09.542Z</time></trkpt><trkpt lat="44.1228233" lon="11.89843"><ele>250.0</ele><time>2026-05-02T07:41:13.541Z</time></trkpt><trkpt lat="44.1228417" lon="11.898525"><ele>250.0</ele><time>2026-05-02T07:41:16.541Z</time></trkpt><trkpt lat="44.12283" lon="11.8986383"><ele>250.0</ele><time>2026-05-02T07:41:19.541Z</time></trkpt><trkpt lat="44.1227717" lon="11.8986867"><ele>250.0</ele><time>2026-05-02T07:41:23.541Z</time></trkpt><trkpt lat="44.1227433" lon="11.8985867"><ele>250.0</ele><time>2026-05-02T07:41:28.541Z</time></trkpt><trkpt lat="44.1227133" lon="11.8984917"><ele>250.0</ele><time>2026-05-02T07:41:32.541Z</time></trkpt><trkpt lat="44.122675" lon="11.8983917"><ele>250.0</ele><time>2026-05-02T07:41:36.541Z</time></trkpt><trkpt lat="44.1226333" lon="11.89831"><ele>250.0</ele><time>2026-05-02T07:41:40.541Z</time></trkpt><trkpt lat="44.12256" lon="11.8982417"><ele>250.0</ele><time>2026-05-02T07:41:44.541Z</time></trkpt><trkpt lat="44.1224983" lon="11.8982033"><ele>250.0</ele><time>2026-05-02T07:41:47.541Z</time></trkpt><trkpt lat="44.12244" lon="11.8981583"><ele>250.0</ele><time>2026-05-02T07:41:50.541Z</time></trkpt><trkpt lat="44.122385" lon="11.89809"><ele>250.0</ele><time>2026-05-02T07:41:54.541Z</time></trkpt><trkpt lat="44.1223433" lon="11.8980083"><ele>252.42857142857142</ele><time>2026-05-02T07:41:58.541Z</time></trkpt><trkpt lat="44.1222933" lon="11.8979517"><ele>254.8571428571429</ele><time>2026-05-02T07:42:01.541Z</time></trkpt><trkpt lat="44.1222483" lon="11.897855"><ele>257.28571428571433</ele><time>2026-05-02T07:42:05.541Z</time></trkpt><trkpt lat="44.1222167" lon="11.8977717"><ele>259.7142857142857</ele><time>2026-05-02T07:42:08.541Z</time></trkpt><trkpt lat="44.1221733" lon="11.8976867"><ele>262.14285714285717</ele><time>2026-05-02T07:42:11.541Z</time></trkpt><trkpt lat="44.122125" lon="11.8976033"><ele>264.5714285714286</ele><time>2026-05-02T07:42:14.541Z</time></trkpt><trkpt lat="44.1220733" lon="11.8975317"><ele>267.0</ele><time>2026-05-02T07:42:17.541Z</time></trkpt><trkpt lat="44.1220033" lon="11.89748"><ele>267.00000000000006</ele><time>2026-05-02T07:42:21.541Z</time></trkpt><trkpt lat="44.1219367" lon="11.8974583"><ele>267.0</ele><time>2026-05-02T07:42:24.541Z</time></trkpt><trkpt lat="44.12187" lon="11.8974333"><ele>267.0</ele><time>2026-05-02T07:42:27.541Z</time></trkpt><trkpt lat="44.12181" lon="11.8974067"><ele>267.0</ele><time>2026-05-02T07:42:30.541Z</time></trkpt><trkpt lat="44.1217483" lon="11.8973717"><ele>267.0</ele><time>2026-05-02T07:42:33.541Z</time></trkpt><trkpt lat="44.1216917" lon="11.8973167"><ele>267.00000000000006</ele><time>2026-05-02T07:42:37.541Z</time></trkpt><trkpt lat="44.1216283" lon="11.89726"><ele>267.0</ele><time>2026-05-02T07:42:42.541Z</time></trkpt><trkpt lat="44.1215833" lon="11.897185"><ele>268.7142857142857</ele><time>2026-05-02T07:42:47.541Z</time></trkpt><trkpt lat="44.121555" lon="11.8970917"><ele>270.42857142857144</ele><time>2026-05-02T07:42:52.541Z</time></trkpt><trkpt lat="44.1215367" lon="11.8970033"><ele>272.1428571428571</ele><time>2026-05-02T07:42:56.542Z</time></trkpt><trkpt lat="44.1215067" lon="11.8969133"><ele>273.8571428571429</ele><time>2026-05-02T07:43:00.541Z</time></trkpt><trkpt lat="44.1214683" lon="11.8968283"><ele>275.57142857142856</ele><time>2026-05-02T07:43:03.541Z</time></trkpt><trkpt lat="44.12144" lon="11.8967467"><ele>277.2857142857143</ele><time>2026-05-02T07:43:06.541Z</time></trkpt><trkpt lat="44.1214" lon="11.8966783"><ele>279.0</ele><time>2026-05-02T07:43:09.541Z</time></trkpt><trkpt lat="44.121355" lon="11.8966033"><ele>278.99999999999994</ele><time>2026-05-02T07:43:12.541Z</time></trkpt><trkpt lat="44.1213183" lon="11.8965283"><ele>279.0</ele><time>2026-05-02T07:43:15.541Z</time></trkpt><trkpt lat="44.1212767" lon="11.8964483"><ele>279.0</ele><time>2026-05-02T07:43:18.541Z</time></trkpt><trkpt lat="44.1212367" lon="11.8963767"><ele>279.0</ele><time>2026-05-02T07:43:21.541Z</time></trkpt><trkpt lat="44.12119" lon="11.8963083"><ele>279.0</ele><time>2026-05-02T07:43:24.541Z</time></trkpt><trkpt lat="44.12115" lon="11.8962367"><ele>278.99999999999994</ele><time>2026-05-02T07:43:27.541Z</time></trkpt><trkpt lat="44.1211" lon="11.8961833"><ele>279.0</ele><time>2026-05-02T07:43:30.541Z</time></trkpt><trkpt lat="44.121055" lon="11.8961183"><ele>278.99999999999994</ele><time>2026-05-02T07:43:33.541Z</time></trkpt><trkpt lat="44.1210067" lon="11.8960533"><ele>279.0</ele><time>2026-05-02T07:43:36.541Z</time></trkpt><trkpt lat="44.120965" lon="11.895955"><ele>279.0</ele><time>2026-05-02T07:43:40.541Z</time></trkpt><trkpt lat="44.1209217" lon="11.89589"><ele>279.0</ele><time>2026-05-02T07:43:43.541Z</time></trkpt><trkpt lat="44.1208733" lon="11.8958317"><ele>279.0</ele><time>2026-05-02T07:43:46.541Z</time></trkpt><trkpt lat="44.1208183" lon="11.8957717"><ele>278.99999999999994</ele><time>2026-05-02T07:43:49.541Z</time></trkpt><trkpt lat="44.1207617" lon="11.8957233"><ele>279.0</ele><time>2026-05-02T07:43:52.541Z</time></trkpt><trkpt lat="44.120685" lon="11.8957017"><ele>278.99999999999994</ele><time>2026-05-02T07:43:56.541Z</time></trkpt><trkpt lat="44.1206333" lon="11.895775"><ele>279.0</ele><time>2026-05-02T07:44:00.541Z</time></trkpt><trkpt lat="44.1206567" lon="11.8958667"><ele>279.0</ele><time>2026-05-02T07:44:05.541Z</time></trkpt><trkpt lat="44.1207133" lon="11.895915"><ele>279.0</ele><time>2026-05-02T07:44:09.541Z</time></trkpt><trkpt lat="44.1207783" lon="11.895965"><ele>279.0</ele><time>2026-05-02T07:44:13.541Z</time></trkpt><trkpt lat="44.1208283" lon="11.89604"><ele>278.99999999999994</ele><time>2026-05-02T07:44:17.541Z</time></trkpt><trkpt lat="44.12087" lon="11.8961083"><ele>279.0</ele><time>2026-05-02T07:44:20.541Z</time></trkpt><trkpt lat="44.120905" lon="11.896195"><ele>278.99999999999994</ele><time>2026-05-02T07:44:23.541Z</time></trkpt><trkpt lat="44.120945" lon="11.8962817"><ele>279.0</ele><time>2026-05-02T07:44:26.541Z</time></trkpt><trkpt lat="44.1209717" lon="11.8963667"><ele>279.0</ele><time>2026-05-02T07:44:29.541Z</time></trkpt><trkpt lat="44.1209933" lon="11.8964583"><ele>279.0</ele><time>2026-05-02T07:44:32.541Z</time></trkpt><trkpt lat="44.1210117" lon="11.89656"><ele>279.0</ele><time>2026-05-02T07:44:35.542Z</time></trkpt><trkpt lat="44.1210367" lon="11.8966467"><ele>278.99999999999994</ele><time>2026-05-02T07:44:38.542Z</time></trkpt><trkpt lat="44.121065" lon="11.8967617"><ele>279.0</ele><time>2026-05-02T07:44:42.541Z</time></trkpt><trkpt lat="44.121075" lon="11.896855"><ele>281.2857142857143</ele><time>2026-05-02T07:44:45.541Z</time></trkpt><trkpt lat="44.1210783" lon="11.8969667"><ele>283.57142857142856</ele><time>2026-05-02T07:44:49.541Z</time></trkpt><trkpt lat="44.1210817" lon="11.8970633"><ele>285.8571428571429</ele><time>2026-05-02T07:44:53.542Z</time></trkpt><trkpt lat="44.1210883" lon="11.8971567"><ele>288.1428571428571</ele><time>2026-05-02T07:44:57.541Z</time></trkpt><trkpt lat="44.121085" lon="11.897245"><ele>290.42857142857144</ele><time>2026-05-02T07:45:00.541Z</time></trkpt><trkpt lat="44.1210833" lon="11.8973333"><ele>292.7142857142857</ele><time>2026-05-02T07:45:03.541Z</time></trkpt><trkpt lat="44.1210917" lon="11.8974367"><ele>295.0</ele><time>2026-05-02T07:45:07.541Z</time></trkpt><trkpt lat="44.1211233" lon="11.8975267"><ele>297.7142857142857</ele><time>2026-05-02T07:45:11.541Z</time></trkpt><trkpt lat="44.1211633" lon="11.8976267"><ele>300.42857142857144</ele><time>2026-05-02T07:45:15.541Z</time></trkpt><trkpt lat="44.1212067" lon="11.8976917"><ele>303.1428571428571</ele><time>2026-05-02T07:45:19.541Z</time></trkpt><trkpt lat="44.1212533" lon="11.8977567"><ele>305.8571428571429</ele><time>2026-05-02T07:45:23.541Z</time></trkpt><trkpt lat="44.12131" lon="11.89782"><ele>308.57142857142856</ele><time>2026-05-02T07:45:27.541Z</time></trkpt><trkpt lat="44.12137" lon="11.897865"><ele>311.2857142857143</ele><time>2026-05-02T07:45:30.541Z</time></trkpt><trkpt lat="44.121425" lon="11.8979317"><ele>314.0</ele><time>2026-05-02T07:45:33.541Z</time></trkpt><trkpt lat="44.12148" lon="11.8980117"><ele>313.99999999999994</ele><time>2026-05-02T07:45:37.541Z</time></trkpt><trkpt lat="44.1215333" lon="11.8980933"><ele>314.0</ele><time>2026-05-02T07:45:41.541Z</time></trkpt><trkpt lat="44.1215733" lon="11.89817"><ele>314.0</ele><time>2026-05-02T07:45:45.541Z</time></trkpt><trkpt lat="44.1216067" lon="11.89825"><ele>314.0</ele><time>2026-05-02T07:45:49.541Z</time></trkpt><trkpt lat="44.1216317" lon="11.89834"><ele>314.0</ele><time>2026-05-02T07:45:53.541Z</time></trkpt><trkpt lat="44.121655" lon="11.8984217"><ele>313.99999999999994</ele><time>2026-05-02T07:45:57.541Z</time></trkpt><trkpt lat="44.1216883" lon="11.89851"><ele>314.0</ele><time>2026-05-02T07:46:01.541Z</time></trkpt><trkpt lat="44.1217167" lon="11.8985917"><ele>311.4285714285714</ele><time>2026-05-02T07:46:05.541Z</time></trkpt><trkpt lat="44.1217433" lon="11.8986767"><ele>308.85714285714283</ele><time>2026-05-02T07:46:09.541Z</time></trkpt><trkpt lat="44.1217733" lon="11.8987783"><ele>306.2857142857143</ele><time>2026-05-02T07:46:13.541Z</time></trkpt><trkpt lat="44.121785" lon="11.898875"><ele>303.71428571428567</ele><time>2026-05-02T07:46:16.541Z</time></trkpt><trkpt lat="44.121765" lon="11.8989783"><ele>301.1428571428571</ele><time>2026-05-02T07:46:19.541Z</time></trkpt><trkpt lat="44.1217017" lon="11.89897"><ele>298.57142857142856</ele><time>2026-05-02T07:46:26.541Z</time></trkpt><trkpt lat="44.121665" lon="11.8988717"><ele>296.0</ele><time>2026-05-02T07:46:31.541Z</time></trkpt><trkpt lat="44.1216183" lon="11.8988"><ele>296.0</ele><time>2026-05-02T07:46:35.541Z</time></trkpt><trkpt lat="44.121585" lon="11.898705"><ele>296.0</ele><time>2026-05-02T07:46:39.541Z</time></trkpt><trkpt lat="44.121555" lon="11.8985983"><ele>296.0</ele><time>2026-05-02T07:46:43.541Z</time></trkpt><trkpt lat="44.1215317" lon="11.8985167"><ele>296.0</ele><time>2026-05-02T07:46:46.541Z</time></trkpt><trkpt lat="44.1214983" lon="11.89844"><ele>296.0</ele><time>2026-05-02T07:46:49.541Z</time></trkpt><trkpt lat="44.1214583" lon="11.8983467"><ele>296.0</ele><time>2026-05-02T07:46:53.541Z</time></trkpt><trkpt lat="44.1214067" lon="11.898275"><ele>296.0</ele><time>2026-05-02T07:46:57.541Z</time></trkpt><trkpt lat="44.1213383" lon="11.898215"><ele>298.57142857142856</ele><time>2026-05-02T07:47:01.541Z</time></trkpt><trkpt lat="44.1212667" lon="11.898165"><ele>301.1428571428571</ele><time>2026-05-02T07:47:05.541Z</time></trkpt><trkpt lat="44.1212" lon="11.8981333"><ele>303.71428571428567</ele><time>2026-05-02T07:47:08.541Z</time></trkpt><trkpt lat="44.1211317" lon="11.8980983"><ele>306.2857142857143</ele><time>2026-05-02T07:47:11.541Z</time></trkpt><trkpt lat="44.1210667" lon="11.8980667"><ele>308.85714285714283</ele><time>2026-05-02T07:47:14.541Z</time></trkpt><trkpt lat="44.121005" lon="11.89804"><ele>311.4285714285714</ele><time>2026-05-02T07:47:17.541Z</time></trkpt><trkpt lat="44.1209433" lon="11.8979783"><ele>314.0</ele><time>2026-05-02T07:47:21.542Z</time></trkpt><trkpt lat="44.1208917" lon="11.8979233"><ele>313.99999999999994</ele><time>2026-05-02T07:47:24.541Z</time></trkpt><trkpt lat="44.1208433" lon="11.8978633"><ele>314.0</ele><time>2026-05-02T07:47:27.542Z</time></trkpt><trkpt lat="44.1208" lon="11.89779"><ele>314.0</ele><time>2026-05-02T07:47:30.541Z</time></trkpt><trkpt lat="44.120755" lon="11.897715"><ele>314.0</ele><time>2026-05-02T07:47:33.541Z</time></trkpt><trkpt lat="44.1207183" lon="11.8976333"><ele>314.0</ele><time>2026-05-02T07:47:36.541Z</time></trkpt><trkpt lat="44.12068" lon="11.897555"><ele>313.99999999999994</ele><time>2026-05-02T07:47:39.541Z</time></trkpt><trkpt lat="44.1206567" lon="11.8974617"><ele>314.0</ele><time>2026-05-02T07:47:43.541Z</time></trkpt><trkpt lat="44.12062" lon="11.8973733"><ele>313.57142857142856</ele><time>2026-05-02T07:47:47.541Z</time></trkpt><trkpt lat="44.1205483" lon="11.89731"><ele>313.1428571428571</ele><time>2026-05-02T07:47:51.541Z</time></trkpt><trkpt lat="44.1204833" lon="11.8972617"><ele>312.71428571428567</ele><time>2026-05-02T07:47:55.541Z</time></trkpt><trkpt lat="44.1204183" lon="11.8972633"><ele>312.2857142857143</ele><time>2026-05-02T07:47:58.541Z</time></trkpt><trkpt lat="44.120345" lon="11.89729"><ele>311.8571428571429</ele><time>2026-05-02T07:48:02.542Z</time></trkpt><trkpt lat="44.1202833" lon="11.8973433"><ele>311.4285714285714</ele><time>2026-05-02T07:48:06.542Z</time></trkpt><trkpt lat="44.1202167" lon="11.89739"><ele>311.0</ele><time>2026-05-02T07:48:10.541Z</time></trkpt><trkpt lat="44.1201533" lon="11.89743"><ele>311.0</ele><time>2026-05-02T07:48:14.541Z</time></trkpt><trkpt lat="44.12008" lon="11.8974783"><ele>311.0</ele><time>2026-05-02T07:48:18.541Z</time></trkpt><trkpt lat="44.1200067" lon="11.8975067"><ele>311.0</ele><time>2026-05-02T07:48:22.541Z</time></trkpt><trkpt lat="44.1199283" lon="11.8975417"><ele>311.0</ele><time>2026-05-02T07:48:26.542Z</time></trkpt><trkpt lat="44.11987" lon="11.8975783"><ele>311.0</ele><time>2026-05-02T07:48:29.541Z</time></trkpt><trkpt lat="44.1197933" lon="11.8976083"><ele>311.0</ele><time>2026-05-02T07:48:33.541Z</time></trkpt><trkpt lat="44.1197317" lon="11.8976267"><ele>311.0</ele><time>2026-05-02T07:48:36.541Z</time></trkpt><trkpt lat="44.11966" lon="11.8976533"><ele>310.57142857142856</ele><time>2026-05-02T07:48:40.541Z</time></trkpt><trkpt lat="44.1196017" lon="11.8976883"><ele>310.14285714285717</ele><time>2026-05-02T07:48:44.541Z</time></trkpt><trkpt lat="44.11953" lon="11.897725"><ele>309.7142857142857</ele><time>2026-05-02T07:48:48.541Z</time></trkpt><trkpt lat="44.1194517" lon="11.89775"><ele>309.2857142857143</ele><time>2026-05-02T07:48:52.541Z</time></trkpt><trkpt lat="44.1193717" lon="11.897785"><ele>308.8571428571429</ele><time>2026-05-02T07:48:56.541Z</time></trkpt><trkpt lat="44.1193233" lon="11.8978517"><ele>308.42857142857144</ele><time>2026-05-02T07:48:59.541Z</time></trkpt><trkpt lat="44.11931" lon="11.897955"><ele>308.0</ele><time>2026-05-02T07:49:03.541Z</time></trkpt><trkpt lat="44.119325" lon="11.898045"><ele>308.0</ele><time>2026-05-02T07:49:07.541Z</time></trkpt><trkpt lat="44.1193483" lon="11.8981433"><ele>308.0</ele><time>2026-05-02T07:49:11.541Z</time></trkpt><trkpt lat="44.119375" lon="11.8982433"><ele>308.0</ele><time>2026-05-02T07:49:16.541Z</time></trkpt><trkpt lat="44.1194067" lon="11.89833"><ele>308.0</ele><time>2026-05-02T07:49:20.541Z</time></trkpt><trkpt lat="44.1194267" lon="11.8984183"><ele>308.0</ele><time>2026-05-02T07:49:24.541Z</time></trkpt><trkpt lat="44.1194317" lon="11.8985183"><ele>308.0</ele><time>2026-05-02T07:49:29.541Z</time></trkpt><trkpt lat="44.1194383" lon="11.8986133"><ele>308.0</ele><time>2026-05-02T07:49:33.541Z</time></trkpt><trkpt lat="44.119445" lon="11.8987017"><ele>308.0</ele><time>2026-05-02T07:49:37.541Z</time></trkpt><trkpt lat="44.1194483" lon="11.8988067"><ele>308.0</ele><time>2026-05-02T07:49:42.541Z</time></trkpt><trkpt lat="44.1194533" lon="11.8988983"><ele>308.0</ele><time>2026-05-02T07:49:46.541Z</time></trkpt><trkpt lat="44.1194617" lon="11.8990083"><ele>308.0</ele><time>2026-05-02T07:49:50.541Z</time></trkpt><trkpt lat="44.11946" lon="11.8991083"><ele>308.0</ele><time>2026-05-02T07:49:54.541Z</time></trkpt><trkpt lat="44.1194517" lon="11.8992183"><ele>308.0</ele><time>2026-05-02T07:49:58.541Z</time></trkpt><trkpt lat="44.11943" lon="11.899315"><ele>308.0</ele><time>2026-05-02T07:50:02.541Z</time></trkpt><trkpt lat="44.119385" lon="11.8993983"><ele>309.14285714285717</ele><time>2026-05-02T07:50:06.541Z</time></trkpt><trkpt lat="44.119345" lon="11.8994733"><ele>310.2857142857143</ele><time>2026-05-02T07:50:09.541Z</time></trkpt><trkpt lat="44.119315" lon="11.8995767"><ele>311.42857142857144</ele><time>2026-05-02T07:50:13.541Z</time></trkpt><trkpt lat="44.1193067" lon="11.89967"><ele>312.57142857142856</ele><time>2026-05-02T07:50:17.541Z</time></trkpt><trkpt lat="44.1193067" lon="11.89977"><ele>313.7142857142857</ele><time>2026-05-02T07:50:21.541Z</time></trkpt><trkpt lat="44.1193217" lon="11.899875"><ele>314.8571428571429</ele><time>2026-05-02T07:50:25.541Z</time></trkpt><trkpt lat="44.1193383" lon="11.89997"><ele>316.0</ele><time>2026-05-02T07:50:29.541Z</time></trkpt><trkpt lat="44.11935" lon="11.9000733"><ele>317.00000000000006</ele><time>2026-05-02T07:50:33.541Z</time></trkpt><trkpt lat="44.1193667" lon="11.9001717"><ele>318.0</ele><time>2026-05-02T07:50:38.542Z</time></trkpt><trkpt lat="44.1193833" lon="11.9002583"><ele>319.0</ele><time>2026-05-02T07:50:42.541Z</time></trkpt><trkpt lat="44.1194133" lon="11.900345"><ele>320.0</ele><time>2026-05-02T07:50:46.541Z</time></trkpt><trkpt lat="44.1194333" lon="11.9004483"><ele>321.0</ele><time>2026-05-02T07:50:50.541Z</time></trkpt><trkpt lat="44.1194533" lon="11.9005383"><ele>322.00000000000006</ele><time>2026-05-02T07:50:53.542Z</time></trkpt><trkpt lat="44.1194717" lon="11.900655"><ele>323.0</ele><time>2026-05-02T07:50:57.541Z</time></trkpt><trkpt lat="44.1195067" lon="11.9007417"><ele>323.0</ele><time>2026-05-02T07:51:01.541Z</time></trkpt><trkpt lat="44.1195317" lon="11.900845"><ele>323.0</ele><time>2026-05-02T07:51:06.541Z</time></trkpt><trkpt lat="44.119535" lon="11.9009583"><ele>323.0</ele><time>2026-05-02T07:51:10.541Z</time></trkpt><trkpt lat="44.1195217" lon="11.9010733"><ele>323.0</ele><time>2026-05-02T07:51:14.541Z</time></trkpt><trkpt lat="44.1195083" lon="11.9011767"><ele>323.0</ele><time>2026-05-02T07:51:17.541Z</time></trkpt><trkpt lat="44.1194867" lon="11.901275"><ele>323.0</ele><time>2026-05-02T07:51:20.541Z</time></trkpt><trkpt lat="44.11945" lon="11.9013833"><ele>325.28571428571433</ele><time>2026-05-02T07:51:23.541Z</time></trkpt><trkpt lat="44.1194083" lon="11.9014683"><ele>327.57142857142856</ele><time>2026-05-02T07:51:26.541Z</time></trkpt><trkpt lat="44.1193633" lon="11.901545"><ele>329.8571428571429</ele><time>2026-05-02T07:51:29.541Z</time></trkpt><trkpt lat="44.119315" lon="11.9016033"><ele>332.14285714285717</ele><time>2026-05-02T07:51:32.541Z</time></trkpt><trkpt lat="44.1192583" lon="11.90167"><ele>334.42857142857144</ele><time>2026-05-02T07:51:35.541Z</time></trkpt><trkpt lat="44.1191917" lon="11.90172"><ele>336.7142857142857</ele><time>2026-05-02T07:51:38.541Z</time></trkpt><trkpt lat="44.119125" lon="11.901775"><ele>339.0</ele><time>2026-05-02T07:51:42.541Z</time></trkpt><trkpt lat="44.1190683" lon="11.90182"><ele>338.57142857142856</ele><time>2026-05-02T07:51:45.541Z</time></trkpt><trkpt lat="44.1190133" lon="11.9018717"><ele>338.14285714285717</ele><time>2026-05-02T07:51:48.542Z</time></trkpt><trkpt lat="44.1189367" lon="11.901925"><ele>337.7142857142857</ele><time>2026-05-02T07:51:52.541Z</time></trkpt><trkpt lat="44.1188733" lon="11.9019617"><ele>337.2857142857143</ele><time>2026-05-02T07:51:55.541Z</time></trkpt><trkpt lat="44.1188067" lon="11.9020183"><ele>336.8571428571429</ele><time>2026-05-02T07:51:58.541Z</time></trkpt><trkpt lat="44.118745" lon="11.90206"><ele>336.42857142857144</ele><time>2026-05-02T07:52:01.541Z</time></trkpt><trkpt lat="44.11868" lon="11.9021017"><ele>336.0</ele><time>2026-05-02T07:52:04.541Z</time></trkpt><trkpt lat="44.1186083" lon="11.9021467"><ele>336.0</ele><time>2026-05-02T07:52:07.541Z</time></trkpt><trkpt lat="44.11854" lon="11.9022017"><ele>336.0</ele><time>2026-05-02T07:52:10.541Z</time></trkpt><trkpt lat="44.1184817" lon="11.9022817"><ele>336.0</ele><time>2026-05-02T07:52:13.541Z</time></trkpt><trkpt lat="44.1184417" lon="11.9023767"><ele>336.0</ele><time>2026-05-02T07:52:16.541Z</time></trkpt><trkpt lat="44.1184033" lon="11.902485"><ele>336.0</ele><time>2026-05-02T07:52:19.541Z</time></trkpt><trkpt lat="44.1183633" lon="11.90258"><ele>336.0</ele><time>2026-05-02T07:52:22.541Z</time></trkpt><trkpt lat="44.1183033" lon="11.90266"><ele>335.8333333333333</ele><time>2026-05-02T07:52:25.541Z</time></trkpt><trkpt lat="44.1182483" lon="11.9027283"><ele>335.6666666666667</ele><time>2026-05-02T07:52:28.541Z</time></trkpt><trkpt lat="44.11818" lon="11.9027883"><ele>335.5</ele><time>2026-05-02T07:52:31.541Z</time></trkpt><trkpt lat="44.118105" lon="11.9028483"><ele>335.33333333333337</ele><time>2026-05-02T07:52:34.541Z</time></trkpt><trkpt lat="44.11803" lon="11.9029033"><ele>335.1666666666667</ele><time>2026-05-02T07:52:37.541Z</time></trkpt><trkpt lat="44.1179633" lon="11.9029667"><ele>335.0</ele><time>2026-05-02T07:52:40.541Z</time></trkpt><trkpt lat="44.117895" lon="11.903025"><ele>337.1666666666667</ele><time>2026-05-02T07:52:43.541Z</time></trkpt><trkpt lat="44.11783" lon="11.9030767"><ele>339.33333333333337</ele><time>2026-05-02T07:52:46.541Z</time></trkpt><trkpt lat="44.1177583" lon="11.90313"><ele>341.5</ele><time>2026-05-02T07:52:49.541Z</time></trkpt><trkpt lat="44.11769" lon="11.9031783"><ele>343.6666666666667</ele><time>2026-05-02T07:52:52.541Z</time></trkpt><trkpt lat="44.1176117" lon="11.9031833"><ele>345.8333333333333</ele><time>2026-05-02T07:52:55.541Z</time></trkpt><trkpt lat="44.117535" lon="11.9032033"><ele>348.0</ele><time>2026-05-02T07:52:58.541Z</time></trkpt><trkpt lat="44.11746" lon="11.903225"><ele>348.8333333333333</ele><time>2026-05-02T07:53:02.541Z</time></trkpt><trkpt lat="44.1173883" lon="11.9032533"><ele>349.6666666666667</ele><time>2026-05-02T07:53:06.541Z</time></trkpt><trkpt lat="44.1173117" lon="11.9032833"><ele>350.5</ele><time>2026-05-02T07:53:10.541Z</time></trkpt><trkpt lat="44.1172417" lon="11.9033233"><ele>351.33333333333337</ele><time>2026-05-02T07:53:14.541Z</time></trkpt><trkpt lat="44.1171733" lon="11.9033583"><ele>352.1666666666667</ele><time>2026-05-02T07:53:17.541Z</time></trkpt><trkpt lat="44.1171" lon="11.9033967"><ele>353.0</ele><time>2026-05-02T07:53:21.541Z</time></trkpt><trkpt lat="44.1170383" lon="11.9034433"><ele>353.0</ele><time>2026-05-02T07:53:25.542Z</time></trkpt><trkpt lat="44.117" lon="11.9035317"><ele>353.0</ele><time>2026-05-02T07:53:29.541Z</time></trkpt><trkpt lat="44.11697" lon="11.9036267"><ele>353.0</ele><time>2026-05-02T07:53:34.541Z</time></trkpt><trkpt lat="44.1169483" lon="11.9037167"><ele>353.0</ele><time>2026-05-02T07:53:39.541Z</time></trkpt><trkpt lat="44.11693" lon="11.9038083"><ele>353.0</ele><time>2026-05-02T07:53:43.541Z</time></trkpt><trkpt lat="44.116905" lon="11.9038933"><ele>353.0</ele><time>2026-05-02T07:53:47.541Z</time></trkpt><trkpt lat="44.116885" lon="11.9040017"><ele>353.0</ele><time>2026-05-02T07:53:51.541Z</time></trkpt><trkpt lat="44.116845" lon="11.9041067"><ele>353.0</ele><time>2026-05-02T07:53:55.541Z</time></trkpt><trkpt lat="44.1167967" lon="11.90421"><ele>353.0</ele><time>2026-05-02T07:53:59.541Z</time></trkpt><trkpt lat="44.1167667" lon="11.9042933"><ele>353.0</ele><time>2026-05-02T07:54:02.541Z</time></trkpt><trkpt lat="44.1167133" lon="11.9043733"><ele>353.0</ele><time>2026-05-02T07:54:06.541Z</time></trkpt><trkpt lat="44.1166583" lon="11.90444"><ele>353.0</ele><time>2026-05-02T07:54:10.541Z</time></trkpt><trkpt lat="44.1165983" lon="11.9044917"><ele>353.0</ele><time>2026-05-02T07:54:14.541Z</time></trkpt><trkpt lat="44.116545" lon="11.9045617"><ele>355.57142857142856</ele><time>2026-05-02T07:54:19.541Z</time></trkpt><trkpt lat="44.1164933" lon="11.9046267"><ele>358.14285714285717</ele><time>2026-05-02T07:54:24.541Z</time></trkpt><trkpt lat="44.116445" lon="11.9046833"><ele>360.7142857142857</ele><time>2026-05-02T07:54:28.541Z</time></trkpt><trkpt lat="44.116385" lon="11.9047333"><ele>363.2857142857143</ele><time>2026-05-02T07:54:33.541Z</time></trkpt><trkpt lat="44.116325" lon="11.9047783"><ele>365.8571428571429</ele><time>2026-05-02T07:54:37.541Z</time></trkpt><trkpt lat="44.1162633" lon="11.9048167"><ele>368.42857142857144</ele><time>2026-05-02T07:54:41.541Z</time></trkpt><trkpt lat="44.1161967" lon="11.9048433"><ele>371.0</ele><time>2026-05-02T07:54:45.541Z</time></trkpt><trkpt lat="44.1161317" lon="11.9048867"><ele>371.0</ele><time>2026-05-02T07:54:50.541Z</time></trkpt><trkpt lat="44.116065" lon="11.9049217"><ele>371.0</ele><time>2026-05-02T07:54:54.541Z</time></trkpt><trkpt lat="44.1160017" lon="11.9049383"><ele>371.0</ele><time>2026-05-02T07:54:58.541Z</time></trkpt><trkpt lat="44.1159283" lon="11.9049383"><ele>371.0</ele><time>2026-05-02T07:55:03.541Z</time></trkpt><trkpt lat="44.1158533" lon="11.9049383"><ele>371.0</ele><time>2026-05-02T07:55:08.541Z</time></trkpt><trkpt lat="44.11579" lon="11.904935"><ele>371.0</ele><time>2026-05-02T07:55:12.541Z</time></trkpt><trkpt lat="44.1157183" lon="11.904925"><ele>371.0</ele><time>2026-05-02T07:55:16.541Z</time></trkpt><trkpt lat="44.1156517" lon="11.9049133"><ele>372.42857142857144</ele><time>2026-05-02T07:55:20.541Z</time></trkpt><trkpt lat="44.1155867" lon="11.90491"><ele>373.8571428571429</ele><time>2026-05-02T07:55:25.541Z</time></trkpt><trkpt lat="44.1155117" lon="11.9049033"><ele>375.2857142857143</ele><time>2026-05-02T07:55:29.541Z</time></trkpt><trkpt lat="44.1154367" lon="11.9048983"><ele>376.7142857142857</ele><time>2026-05-02T07:55:33.541Z</time></trkpt><trkpt lat="44.1153633" lon="11.9049067"><ele>378.14285714285717</ele><time>2026-05-02T07:55:38.541Z</time></trkpt><trkpt lat="44.1152967" lon="11.904915"><ele>379.57142857142856</ele><time>2026-05-02T07:55:42.541Z</time></trkpt><trkpt lat="44.1152283" lon="11.90493"><ele>381.0</ele><time>2026-05-02T07:55:46.541Z</time></trkpt><trkpt lat="44.1151617" lon="11.90495"><ele>381.0</ele><time>2026-05-02T07:55:51.541Z</time></trkpt><trkpt lat="44.1150883" lon="11.904965"><ele>381.0</ele><time>2026-05-02T07:55:55.541Z</time></trkpt><trkpt lat="44.1150217" lon="11.904965"><ele>381.0</ele><time>2026-05-02T07:55:59.541Z</time></trkpt><trkpt lat="44.1149567" lon="11.9049617"><ele>381.0</ele><time>2026-05-02T07:56:04.541Z</time></trkpt><trkpt lat="44.1148917" lon="11.904965"><ele>381.0</ele><time>2026-05-02T07:56:09.541Z</time></trkpt><trkpt lat="44.1148133" lon="11.9049617"><ele>381.0</ele><time>2026-05-02T07:56:14.541Z</time></trkpt><trkpt lat="44.1147467" lon="11.90495"><ele>381.0</ele><time>2026-05-02T07:56:18.541Z</time></trkpt><trkpt lat="44.114675" lon="11.9049533"><ele>382.1428571428571</ele><time>2026-05-02T07:56:23.541Z</time></trkpt><trkpt lat="44.1146117" lon="11.90494"><ele>383.28571428571433</ele><time>2026-05-02T07:56:27.541Z</time></trkpt><trkpt lat="44.1145483" lon="11.9049333"><ele>384.42857142857144</ele><time>2026-05-02T07:56:31.541Z</time></trkpt><trkpt lat="44.1144717" lon="11.9049333"><ele>385.57142857142856</ele><time>2026-05-02T07:56:36.541Z</time></trkpt><trkpt lat="44.1144083" lon="11.90493"><ele>386.71428571428567</ele><time>2026-05-02T07:56:40.541Z</time></trkpt><trkpt lat="44.1143433" lon="11.9049333"><ele>387.8571428571429</ele><time>2026-05-02T07:56:44.541Z</time></trkpt><trkpt lat="44.114275" lon="11.9049283"><ele>389.0</ele><time>2026-05-02T07:56:48.541Z</time></trkpt><trkpt lat="44.1142017" lon="11.9049233"><ele>388.99999999999994</ele><time>2026-05-02T07:56:54.541Z</time></trkpt><trkpt lat="44.1141367" lon="11.9049283"><ele>389.0</ele><time>2026-05-02T07:56:59.541Z</time></trkpt><trkpt lat="44.1140617" lon="11.9049083"><ele>389.0</ele><time>2026-05-02T07:57:05.541Z</time></trkpt><trkpt lat="44.1139133" lon="11.904875"><ele>389.0</ele><time>2026-05-02T07:57:14.542Z</time></trkpt><trkpt lat="44.1138367" lon="11.904835"><ele>388.99999999999994</ele><time>2026-05-02T07:57:19.541Z</time></trkpt><trkpt lat="44.1137717" lon="11.9047917"><ele>389.0</ele><time>2026-05-02T07:57:22.541Z</time></trkpt><trkpt lat="44.1137033" lon="11.9047317"><ele>389.49999999999994</ele><time>2026-05-02T07:57:26.541Z</time></trkpt><trkpt lat="44.1136483" lon="11.9046817"><ele>390.0</ele><time>2026-05-02T07:57:30.541Z</time></trkpt><trkpt lat="44.1135967" lon="11.9046233"><ele>390.5</ele><time>2026-05-02T07:57:34.541Z</time></trkpt><trkpt lat="44.11354" lon="11.904555"><ele>391.0</ele><time>2026-05-02T07:57:39.541Z</time></trkpt><trkpt lat="44.113465" lon="11.904475"><ele>391.49999999999994</ele><time>2026-05-02T07:57:46.541Z</time></trkpt><trkpt lat="44.113405" lon="11.90441"><ele>392.0</ele><time>2026-05-02T07:57:51.541Z</time></trkpt><trkpt lat="44.113365" lon="11.90432"><ele>392.0</ele><time>2026-05-02T07:57:56.541Z</time></trkpt><trkpt lat="44.1133067" lon="11.90426"><ele>392.0</ele><time>2026-05-02T07:58:01.541Z</time></trkpt><trkpt lat="44.1132683" lon="11.904185"><ele>392.0</ele><time>2026-05-02T07:58:05.541Z</time></trkpt><trkpt lat="44.11323" lon="11.9041083"><ele>392.0</ele><time>2026-05-02T07:58:09.541Z</time></trkpt><trkpt lat="44.1131867" lon="11.9040217"><ele>392.0</ele><time>2026-05-02T07:58:14.541Z</time></trkpt><trkpt lat="44.113145" lon="11.903945"><ele>392.0</ele><time>2026-05-02T07:58:18.541Z</time></trkpt><trkpt lat="44.113115" lon="11.90386"><ele>392.0</ele><time>2026-05-02T07:58:22.541Z</time></trkpt><trkpt lat="44.11308" lon="11.9037667"><ele>394.85714285714283</ele><time>2026-05-02T07:58:27.541Z</time></trkpt><trkpt lat="44.11304" lon="11.9036917"><ele>397.7142857142857</ele><time>2026-05-02T07:58:32.541Z</time></trkpt><trkpt lat="44.1129833" lon="11.903645"><ele>400.57142857142856</ele><time>2026-05-02T07:58:36.541Z</time></trkpt><trkpt lat="44.1129267" lon="11.9035967"><ele>403.42857142857144</ele><time>2026-05-02T07:58:40.541Z</time></trkpt><trkpt lat="44.11286" lon="11.9035767"><ele>406.2857142857143</ele><time>2026-05-02T07:58:44.541Z</time></trkpt><trkpt lat="44.1127867" lon="11.9035867"><ele>409.1428571428571</ele><time>2026-05-02T07:58:49.541Z</time></trkpt><trkpt lat="44.1127183" lon="11.9036017"><ele>412.0</ele><time>2026-05-02T07:58:54.541Z</time></trkpt><trkpt lat="44.1126467" lon="11.9036267"><ele>411.99999999999994</ele><time>2026-05-02T07:58:59.541Z</time></trkpt><trkpt lat="44.112565" lon="11.903645"><ele>412.0</ele><time>2026-05-02T07:59:04.541Z</time></trkpt><trkpt lat="44.1124983" lon="11.9036483"><ele>412.0</ele><time>2026-05-02T07:59:09.541Z</time></trkpt><trkpt lat="44.1124333" lon="11.9036517"><ele>412.0</ele><time>2026-05-02T07:59:14.541Z</time></trkpt><trkpt lat="44.1123667" lon="11.9036683"><ele>412.0</ele><time>2026-05-02T07:59:19.541Z</time></trkpt><trkpt lat="44.1122967" lon="11.9036683"><ele>411.99999999999994</ele><time>2026-05-02T07:59:25.541Z</time></trkpt><trkpt lat="44.1122233" lon="11.90365"><ele>412.0</ele><time>2026-05-02T07:59:31.541Z</time></trkpt><trkpt lat="44.1121467" lon="11.903635"><ele>413.57142857142856</ele><time>2026-05-02T07:59:36.541Z</time></trkpt><trkpt lat="44.1120667" lon="11.90361"><ele>415.1428571428571</ele><time>2026-05-02T07:59:42.541Z</time></trkpt><trkpt lat="44.1120033" lon="11.9035917"><ele>416.71428571428567</ele><time>2026-05-02T07:59:48.541Z</time></trkpt><trkpt lat="44.111925" lon="11.903595"><ele>418.2857142857143</ele><time>2026-05-02T07:59:53.541Z</time></trkpt><trkpt lat="44.1118533" lon="11.9036"><ele>419.8571428571429</ele><time>2026-05-02T07:59:58.541Z</time></trkpt><trkpt lat="44.1117883" lon="11.9036083"><ele>421.4285714285714</ele><time>2026-05-02T08:00:03.541Z</time></trkpt><trkpt lat="44.1117183" lon="11.9036133"><ele>423.0</ele><time>2026-05-02T08:00:08.541Z</time></trkpt><trkpt lat="44.1116433" lon="11.9036117"><ele>424.85714285714283</ele><time>2026-05-02T08:00:13.541Z</time></trkpt><trkpt lat="44.111565" lon="11.9036067"><ele>426.7142857142857</ele><time>2026-05-02T08:00:18.542Z</time></trkpt><trkpt lat="44.1114917" lon="11.9035883"><ele>428.57142857142856</ele><time>2026-05-02T08:00:23.541Z</time></trkpt><trkpt lat="44.1114317" lon="11.9035517"><ele>430.42857142857144</ele><time>2026-05-02T08:00:28.541Z</time></trkpt><trkpt lat="44.11137" lon="11.903515"><ele>432.28571428571433</ele><time>2026-05-02T08:00:33.541Z</time></trkpt><trkpt lat="44.1113117" lon="11.903465"><ele>434.14285714285717</ele><time>2026-05-02T08:00:38.541Z</time></trkpt><trkpt lat="44.1112533" lon="11.9034117"><ele>436.0</ele><time>2026-05-02T08:00:42.541Z</time></trkpt><trkpt lat="44.1111883" lon="11.9033733"><ele>436.0</ele><time>2026-05-02T08:00:48.541Z</time></trkpt><trkpt lat="44.1111267" lon="11.9033533"><ele>436.0</ele><time>2026-05-02T08:00:52.541Z</time></trkpt><trkpt lat="44.1110633" lon="11.9033217"><ele>436.0</ele><time>2026-05-02T08:00:56.541Z</time></trkpt><trkpt lat="44.1109883" lon="11.903315"><ele>436.0</ele><time>2026-05-02T08:01:00.541Z</time></trkpt><trkpt lat="44.1109183" lon="11.9033"><ele>436.0</ele><time>2026-05-02T08:01:05.541Z</time></trkpt><trkpt lat="44.1108517" lon="11.903255"><ele>436.0</ele><time>2026-05-02T08:01:10.541Z</time></trkpt><trkpt lat="44.1107933" lon="11.9032133"><ele>436.0</ele><time>2026-05-02T08:01:14.541Z</time></trkpt><trkpt lat="44.11072" lon="11.90317"><ele>436.0</ele><time>2026-05-02T08:01:19.542Z</time></trkpt><trkpt lat="44.110655" lon="11.90314"><ele>436.0</ele><time>2026-05-02T08:01:23.541Z</time></trkpt><trkpt lat="44.1105867" lon="11.9031"><ele>436.0</ele><time>2026-05-02T08:01:28.541Z</time></trkpt><trkpt lat="44.1105167" lon="11.9030483"><ele>436.0</ele><time>2026-05-02T08:01:33.541Z</time></trkpt><trkpt lat="44.110465" lon="11.9029967"><ele>436.0</ele><time>2026-05-02T08:01:37.541Z</time></trkpt><trkpt lat="44.1103983" lon="11.902935"><ele>436.0</ele><time>2026-05-02T08:01:42.541Z</time></trkpt><trkpt lat="44.11033" lon="11.902895"><ele>436.0</ele><time>2026-05-02T08:01:47.541Z</time></trkpt><trkpt lat="44.110275" lon="11.902835"><ele>436.0</ele><time>2026-05-02T08:01:51.541Z</time></trkpt><trkpt lat="44.110215" lon="11.9027767"><ele>436.0</ele><time>2026-05-02T08:01:55.541Z</time></trkpt><trkpt lat="44.1101533" lon="11.9027217"><ele>436.0</ele><time>2026-05-02T08:01:59.541Z</time></trkpt><trkpt lat="44.1100933" lon="11.9026733"><ele>436.0</ele><time>2026-05-02T08:02:02.541Z</time></trkpt><trkpt lat="44.11003" lon="11.90263"><ele>436.0</ele><time>2026-05-02T08:02:05.541Z</time></trkpt><trkpt lat="44.10996" lon="11.902585"><ele>436.0</ele><time>2026-05-02T08:02:09.541Z</time></trkpt><trkpt lat="44.1099" lon="11.902555"><ele>436.0</ele><time>2026-05-02T08:02:12.541Z</time></trkpt><trkpt lat="44.1098317" lon="11.9025317"><ele>438.0</ele><time>2026-05-02T08:02:15.541Z</time></trkpt><trkpt lat="44.1097617" lon="11.9025167"><ele>440.0</ele><time>2026-05-02T08:02:18.541Z</time></trkpt><trkpt lat="44.1096983" lon="11.9025083"><ele>442.0</ele><time>2026-05-02T08:02:21.541Z</time></trkpt><trkpt lat="44.1096283" lon="11.90251"><ele>444.0</ele><time>2026-05-02T08:02:24.541Z</time></trkpt><trkpt lat="44.109555" lon="11.9025167"><ele>446.0</ele><time>2026-05-02T08:02:27.541Z</time></trkpt><trkpt lat="44.1094817" lon="11.9025267"><ele>448.00000000000006</ele><time>2026-05-02T08:02:30.541Z</time></trkpt><trkpt lat="44.1094117" lon="11.90254"><ele>450.00000000000006</ele><time>2026-05-02T08:02:33.541Z</time></trkpt><trkpt lat="44.1093367" lon="11.9025717"><ele>449.0</ele><time>2026-05-02T08:02:36.541Z</time></trkpt><trkpt lat="44.1092617" lon="11.9026083"><ele>448.0</ele><time>2026-05-02T08:02:39.541Z</time></trkpt><trkpt lat="44.1091833" lon="11.902665"><ele>447.0</ele><time>2026-05-02T08:02:42.541Z</time></trkpt><trkpt lat="44.1091083" lon="11.9027183"><ele>446.0</ele><time>2026-05-02T08:02:45.541Z</time></trkpt><trkpt lat="44.109055" lon="11.90277"><ele>445.0</ele><time>2026-05-02T08:02:47.541Z</time></trkpt><trkpt lat="44.10898" lon="11.902855"><ele>444.0</ele><time>2026-05-02T08:02:50.541Z</time></trkpt><trkpt lat="44.1089317" lon="11.9029283"><ele>444.0</ele><time>2026-05-02T08:02:52.541Z</time></trkpt><trkpt lat="44.108865" lon="11.9030283"><ele>444.0</ele><time>2026-05-02T08:02:55.541Z</time></trkpt><trkpt lat="44.108815" lon="11.9031033"><ele>444.0</ele><time>2026-05-02T08:02:57.541Z</time></trkpt><trkpt lat="44.1087617" lon="11.90317"><ele>444.0</ele><time>2026-05-02T08:02:59.541Z</time></trkpt><trkpt lat="44.108695" lon="11.9032133"><ele>444.0</ele><time>2026-05-02T08:03:01.541Z</time></trkpt><trkpt lat="44.108625" lon="11.9032267"><ele>444.0</ele><time>2026-05-02T08:03:03.542Z</time></trkpt><trkpt lat="44.1085517" lon="11.9031983"><ele>444.0</ele><time>2026-05-02T08:03:05.541Z</time></trkpt><trkpt lat="44.1084817" lon="11.90315"><ele>444.0</ele><time>2026-05-02T08:03:07.541Z</time></trkpt><trkpt lat="44.10842" lon="11.903115"><ele>444.0</ele><time>2026-05-02T08:03:09.541Z</time></trkpt><trkpt lat="44.10835" lon="11.9030883"><ele>444.0</ele><time>2026-05-02T08:03:11.541Z</time></trkpt><trkpt lat="44.1082717" lon="11.9030783"><ele>444.0</ele><time>2026-05-02T08:03:13.541Z</time></trkpt><trkpt lat="44.1081967" lon="11.9030783"><ele>444.0</ele><time>2026-05-02T08:03:15.541Z</time></trkpt><trkpt lat="44.108125" lon="11.90309"><ele>444.0</ele><time>2026-05-02T08:03:17.541Z</time></trkpt><trkpt lat="44.1080533" lon="11.9031117"><ele>444.5</ele><time>2026-05-02T08:03:19.541Z</time></trkpt><trkpt lat="44.1079717" lon="11.9031433"><ele>445.0</ele><time>2026-05-02T08:03:21.541Z</time></trkpt><trkpt lat="44.1079" lon="11.90317"><ele>445.5</ele><time>2026-05-02T08:03:23.541Z</time></trkpt><trkpt lat="44.10783" lon="11.90321"><ele>446.0</ele><time>2026-05-02T08:03:25.541Z</time></trkpt><trkpt lat="44.1077617" lon="11.9032483"><ele>446.5</ele><time>2026-05-02T08:03:27.541Z</time></trkpt><trkpt lat="44.1076867" lon="11.9032983"><ele>447.0</ele><time>2026-05-02T08:03:29.541Z</time></trkpt><trkpt lat="44.1076267" lon="11.9033633"><ele>443.8333333333333</ele><time>2026-05-02T08:03:31.541Z</time></trkpt><trkpt lat="44.1075633" lon="11.9034233"><ele>440.66666666666663</ele><time>2026-05-02T08:03:33.541Z</time></trkpt><trkpt lat="44.107495" lon="11.9034733"><ele>437.5</ele><time>2026-05-02T08:03:35.541Z</time></trkpt><trkpt lat="44.1074183" lon="11.9035083"><ele>434.3333333333333</ele><time>2026-05-02T08:03:37.541Z</time></trkpt><trkpt lat="44.107335" lon="11.9035267"><ele>431.16666666666663</ele><time>2026-05-02T08:03:39.541Z</time></trkpt><trkpt lat="44.1072533" lon="11.9035383"><ele>428.0</ele><time>2026-05-02T08:03:41.541Z</time></trkpt><trkpt lat="44.10717" lon="11.9035417"><ele>427.99999999999994</ele><time>2026-05-02T08:03:43.541Z</time></trkpt><trkpt lat="44.107085" lon="11.9035417"><ele>428.0</ele><time>2026-05-02T08:03:45.541Z</time></trkpt><trkpt lat="44.1069967" lon="11.9035417"><ele>428.0</ele><time>2026-05-02T08:03:47.541Z</time></trkpt><trkpt lat="44.10691" lon="11.9035367"><ele>428.0</ele><time>2026-05-02T08:03:49.541Z</time></trkpt><trkpt lat="44.1068233" lon="11.90353"><ele>427.99999999999994</ele><time>2026-05-02T08:03:51.541Z</time></trkpt><trkpt lat="44.1067383" lon="11.903525"><ele>428.0</ele><time>2026-05-02T08:03:53.541Z</time></trkpt><trkpt lat="44.10665" lon="11.903525"><ele>429.99999999999994</ele><time>2026-05-02T08:03:55.541Z</time></trkpt><trkpt lat="44.1065667" lon="11.903525"><ele>432.0</ele><time>2026-05-02T08:03:57.541Z</time></trkpt><trkpt lat="44.1064883" lon="11.9035317"><ele>434.0</ele><time>2026-05-02T08:03:59.541Z</time></trkpt><trkpt lat="44.1064133" lon="11.90354"><ele>436.0</ele><time>2026-05-02T08:04:01.541Z</time></trkpt><trkpt lat="44.10634" lon="11.903555"><ele>437.99999999999994</ele><time>2026-05-02T08:04:03.541Z</time></trkpt><trkpt lat="44.1062733" lon="11.903565"><ele>440.0</ele><time>2026-05-02T08:04:05.541Z</time></trkpt><trkpt lat="44.1061883" lon="11.903585"><ele>439.99999999999994</ele><time>2026-05-02T08:04:08.541Z</time></trkpt><trkpt lat="44.10613" lon="11.9036317"><ele>440.0</ele><time>2026-05-02T08:04:10.541Z</time></trkpt><trkpt lat="44.1060583" lon="11.9036883"><ele>440.0</ele><time>2026-05-02T08:04:12.541Z</time></trkpt><trkpt lat="44.105985" lon="11.9037567"><ele>440.0</ele><time>2026-05-02T08:04:14.541Z</time></trkpt><trkpt lat="44.10591" lon="11.9038267"><ele>439.99999999999994</ele><time>2026-05-02T08:04:16.541Z</time></trkpt><trkpt lat="44.1058467" lon="11.90389"><ele>440.0</ele><time>2026-05-02T08:04:18.541Z</time></trkpt><trkpt lat="44.1057817" lon="11.90396"><ele>440.16666666666663</ele><time>2026-05-02T08:04:20.541Z</time></trkpt><trkpt lat="44.1057133" lon="11.9040367"><ele>440.3333333333333</ele><time>2026-05-02T08:04:22.541Z</time></trkpt><trkpt lat="44.105645" lon="11.9041067"><ele>440.5</ele><time>2026-05-02T08:04:24.541Z</time></trkpt><trkpt lat="44.1055667" lon="11.90417"><ele>440.66666666666663</ele><time>2026-05-02T08:04:26.541Z</time></trkpt><trkpt lat="44.1054833" lon="11.9042433"><ele>440.8333333333333</ele><time>2026-05-02T08:04:28.541Z</time></trkpt><trkpt lat="44.1054033" lon="11.90429"><ele>441.0</ele><time>2026-05-02T08:04:30.541Z</time></trkpt><trkpt lat="44.1053267" lon="11.90432"><ele>440.42857142857144</ele><time>2026-05-02T08:04:32.541Z</time></trkpt><trkpt lat="44.1052533" lon="11.9043567"><ele>439.8571428571429</ele><time>2026-05-02T08:04:34.541Z</time></trkpt><trkpt lat="44.1051767" lon="11.9043867"><ele>439.2857142857143</ele><time>2026-05-02T08:04:36.541Z</time></trkpt><trkpt lat="44.105105" lon="11.904415"><ele>438.7142857142857</ele><time>2026-05-02T08:04:38.541Z</time></trkpt><trkpt lat="44.1050333" lon="11.904435"><ele>438.14285714285717</ele><time>2026-05-02T08:04:40.541Z</time></trkpt><trkpt lat="44.1049683" lon="11.904455"><ele>437.57142857142856</ele><time>2026-05-02T08:04:42.541Z</time></trkpt><trkpt lat="44.1049067" lon="11.9044867"><ele>437.0</ele><time>2026-05-02T08:04:44.541Z</time></trkpt><trkpt lat="44.1048233" lon="11.9045467"><ele>436.99999999999994</ele><time>2026-05-02T08:04:47.541Z</time></trkpt><trkpt lat="44.1047567" lon="11.90459"><ele>437.0</ele><time>2026-05-02T08:04:49.541Z</time></trkpt><trkpt lat="44.1046917" lon="11.90466"><ele>437.0</ele><time>2026-05-02T08:04:51.541Z</time></trkpt><trkpt lat="44.1046083" lon="11.90474"><ele>437.0</ele><time>2026-05-02T08:04:53.541Z</time></trkpt><trkpt lat="44.1045167" lon="11.9048517"><ele>436.99999999999994</ele><time>2026-05-02T08:04:55.541Z</time></trkpt><trkpt lat="44.1044717" lon="11.9049183"><ele>437.0</ele><time>2026-05-02T08:04:56.541Z</time></trkpt><trkpt lat="44.104425" lon="11.904985"><ele>436.99999999999994</ele><time>2026-05-02T08:04:57.542Z</time></trkpt><trkpt lat="44.1043733" lon="11.90505"><ele>437.0</ele><time>2026-05-02T08:04:58.541Z</time></trkpt><trkpt lat="44.1043233" lon="11.9051267"><ele>437.0</ele><time>2026-05-02T08:04:59.542Z</time></trkpt><trkpt lat="44.10427" lon="11.9052067"><ele>437.0</ele><time>2026-05-02T08:05:00.541Z</time></trkpt><trkpt lat="44.1042167" lon="11.9052917"><ele>436.99999999999994</ele><time>2026-05-02T08:05:01.541Z</time></trkpt><trkpt lat="44.1041517" lon="11.9053733"><ele>437.0</ele><time>2026-05-02T08:05:02.541Z</time></trkpt><trkpt lat="44.1040917" lon="11.9054483"><ele>436.16666666666663</ele><time>2026-05-02T08:05:03.541Z</time></trkpt><trkpt lat="44.1040233" lon="11.905525"><ele>435.3333333333333</ele><time>2026-05-02T08:05:04.541Z</time></trkpt><trkpt lat="44.1039517" lon="11.9055933"><ele>434.5</ele><time>2026-05-02T08:05:05.541Z</time></trkpt><trkpt lat="44.103875" lon="11.9056567"><ele>433.66666666666663</ele><time>2026-05-02T08:05:06.541Z</time></trkpt><trkpt lat="44.1037917" lon="11.9057183"><ele>432.8333333333333</ele><time>2026-05-02T08:05:07.541Z</time></trkpt><trkpt lat="44.1037183" lon="11.9057733"><ele>432.0</ele><time>2026-05-02T08:05:08.541Z</time></trkpt><trkpt lat="44.10364" lon="11.9058217"><ele>432.0</ele><time>2026-05-02T08:05:09.541Z</time></trkpt><trkpt lat="44.1035717" lon="11.9058683"><ele>432.0</ele><time>2026-05-02T08:05:10.541Z</time></trkpt><trkpt lat="44.1035083" lon="11.9059133"><ele>432.0</ele><time>2026-05-02T08:05:11.541Z</time></trkpt><trkpt lat="44.103445" lon="11.90595"><ele>432.0</ele><time>2026-05-02T08:05:12.542Z</time></trkpt><trkpt lat="44.1033333" lon="11.906015"><ele>432.0</ele><time>2026-05-02T08:05:14.541Z</time></trkpt><trkpt lat="44.1032283" lon="11.906055"><ele>432.0</ele><time>2026-05-02T08:05:16.541Z</time></trkpt><trkpt lat="44.1031233" lon="11.9060767"><ele>435.42857142857144</ele><time>2026-05-02T08:05:18.541Z</time></trkpt><trkpt lat="44.1030367" lon="11.9060817"><ele>438.85714285714283</ele><time>2026-05-02T08:05:20.541Z</time></trkpt><trkpt lat="44.1029717" lon="11.9060833"><ele>442.2857142857143</ele><time>2026-05-02T08:05:22.541Z</time></trkpt><trkpt lat="44.1029017" lon="11.90607"><ele>445.71428571428567</ele><time>2026-05-02T08:05:24.541Z</time></trkpt><trkpt lat="44.1028383" lon="11.90605"><ele>449.1428571428571</ele><time>2026-05-02T08:05:26.541Z</time></trkpt><trkpt lat="44.1027567" lon="11.906015"><ele>452.57142857142856</ele><time>2026-05-02T08:05:29.541Z</time></trkpt><trkpt lat="44.1027" lon="11.9059683"><ele>456.0</ele><time>2026-05-02T08:05:32.541Z</time></trkpt><trkpt lat="44.1026333" lon="11.9059167"><ele>454.2857142857143</ele><time>2026-05-02T08:05:36.542Z</time></trkpt><trkpt lat="44.1025717" lon="11.9058767"><ele>452.57142857142856</ele><time>2026-05-02T08:05:39.541Z</time></trkpt><trkpt lat="44.1025067" lon="11.9058517"><ele>450.85714285714283</ele><time>2026-05-02T08:05:41.541Z</time></trkpt><trkpt lat="44.10244" lon="11.9058567"><ele>449.1428571428571</ele><time>2026-05-02T08:05:43.541Z</time></trkpt><trkpt lat="44.1023483" lon="11.9058883"><ele>447.42857142857144</ele><time>2026-05-02T08:05:46.541Z</time></trkpt><trkpt lat="44.10228" lon="11.9059417"><ele>445.71428571428567</ele><time>2026-05-02T08:05:48.541Z</time></trkpt><trkpt lat="44.10223" lon="11.9060067"><ele>444.0</ele><time>2026-05-02T08:05:50.541Z</time></trkpt><trkpt lat="44.1021867" lon="11.9061233"><ele>444.0</ele><time>2026-05-02T08:05:53.541Z</time></trkpt><trkpt lat="44.1021767" lon="11.9062417"><ele>444.0</ele><time>2026-05-02T08:05:56.541Z</time></trkpt><trkpt lat="44.1021733" lon="11.9063317"><ele>444.0</ele><time>2026-05-02T08:05:58.541Z</time></trkpt><trkpt lat="44.102165" lon="11.9064567"><ele>444.0</ele><time>2026-05-02T08:06:01.541Z</time></trkpt><trkpt lat="44.1021433" lon="11.906565"><ele>444.0</ele><time>2026-05-02T08:06:04.541Z</time></trkpt><trkpt lat="44.102105" lon="11.90666"><ele>444.0</ele><time>2026-05-02T08:06:07.541Z</time></trkpt><trkpt lat="44.1020667" lon="11.90674"><ele>445.4</ele><time>2026-05-02T08:06:09.541Z</time></trkpt><trkpt lat="44.1020167" lon="11.90683"><ele>446.79999999999995</ele><time>2026-05-02T08:06:11.541Z</time></trkpt><trkpt lat="44.1019583" lon="11.906925"><ele>448.20000000000005</ele><time>2026-05-02T08:06:13.541Z</time></trkpt><trkpt lat="44.10189" lon="11.9070133"><ele>449.6</ele><time>2026-05-02T08:06:15.542Z</time></trkpt><trkpt lat="44.1018017" lon="11.9071067"><ele>451.0</ele><time>2026-05-02T08:06:17.541Z</time></trkpt><trkpt lat="44.1017" lon="11.907195"><ele>451.0</ele><time>2026-05-02T08:06:19.541Z</time></trkpt><trkpt lat="44.1015883" lon="11.9072717"><ele>451.0</ele><time>2026-05-02T08:06:21.541Z</time></trkpt><trkpt lat="44.1015283" lon="11.9073083"><ele>451.0</ele><time>2026-05-02T08:06:22.541Z</time></trkpt><trkpt lat="44.101465" lon="11.9073333"><ele>451.0</ele><time>2026-05-02T08:06:23.541Z</time></trkpt><trkpt lat="44.1014017" lon="11.90735"><ele>451.0</ele><time>2026-05-02T08:06:24.541Z</time></trkpt><trkpt lat="44.1013383" lon="11.907355"><ele>451.0</ele><time>2026-05-02T08:06:25.541Z</time></trkpt><trkpt lat="44.1012733" lon="11.90735"><ele>451.0</ele><time>2026-05-02T08:06:26.541Z</time></trkpt><trkpt lat="44.1011517" lon="11.90734"><ele>450.4</ele><time>2026-05-02T08:06:28.541Z</time></trkpt><trkpt lat="44.101085" lon="11.9073417"><ele>449.8</ele><time>2026-05-02T08:06:29.541Z</time></trkpt><trkpt lat="44.1009583" lon="11.9073517"><ele>449.19999999999993</ele><time>2026-05-02T08:06:31.541Z</time></trkpt><trkpt lat="44.1008967" lon="11.9073717"><ele>448.59999999999997</ele><time>2026-05-02T08:06:32.541Z</time></trkpt><trkpt lat="44.1007733" lon="11.907415"><ele>448.0</ele><time>2026-05-02T08:06:34.541Z</time></trkpt><trkpt lat="44.100705" lon="11.9074317"><ele>448.0</ele><time>2026-05-02T08:06:35.541Z</time></trkpt><trkpt lat="44.1006383" lon="11.90745"><ele>448.0</ele><time>2026-05-02T08:06:36.541Z</time></trkpt><trkpt lat="44.1005717" lon="11.907475"><ele>448.0</ele><time>2026-05-02T08:06:37.542Z</time></trkpt><trkpt lat="44.100505" lon="11.907505"><ele>448.0</ele><time>2026-05-02T08:06:38.541Z</time></trkpt><trkpt lat="44.1004417" lon="11.90753"><ele>448.0</ele><time>2026-05-02T08:06:39.541Z</time></trkpt><trkpt lat="44.1003783" lon="11.907555"><ele>448.0</ele><time>2026-05-02T08:06:40.541Z</time></trkpt><trkpt lat="44.100315" lon="11.9075733"><ele>448.0</ele><time>2026-05-02T08:06:41.541Z</time></trkpt><trkpt lat="44.1002517" lon="11.907595"><ele>448.33333333333337</ele><time>2026-05-02T08:06:42.542Z</time></trkpt><trkpt lat="44.10019" lon="11.907615"><ele>448.6666666666667</ele><time>2026-05-02T08:06:43.541Z</time></trkpt><trkpt lat="44.1001283" lon="11.907635"><ele>449.0</ele><time>2026-05-02T08:06:44.541Z</time></trkpt><trkpt lat="44.1000667" lon="11.907655"><ele>449.33333333333337</ele><time>2026-05-02T08:06:45.541Z</time></trkpt><trkpt lat="44.099955" lon="11.9077117"><ele>449.6666666666667</ele><time>2026-05-02T08:06:47.541Z</time></trkpt><trkpt lat="44.09985" lon="11.9077517"><ele>450.0</ele><time>2026-05-02T08:06:49.541Z</time></trkpt><trkpt lat="44.0997783" lon="11.907815"><ele>450.0</ele><time>2026-05-02T08:06:51.541Z</time></trkpt><trkpt lat="44.09977" lon="11.90791"><ele>450.0</ele><time>2026-05-02T08:06:53.541Z</time></trkpt><trkpt lat="44.0998167" lon="11.9079983"><ele>450.0</ele><time>2026-05-02T08:06:55.541Z</time></trkpt><trkpt lat="44.0999033" lon="11.9079933"><ele>450.0</ele><time>2026-05-02T08:06:57.541Z</time></trkpt><trkpt lat="44.100015" lon="11.90794"><ele>450.0</ele><time>2026-05-02T08:06:59.541Z</time></trkpt><trkpt lat="44.1001383" lon="11.9079183"><ele>448.3333333333333</ele><time>2026-05-02T08:07:01.541Z</time></trkpt><trkpt lat="44.1002017" lon="11.9079067"><ele>446.66666666666663</ele><time>2026-05-02T08:07:02.541Z</time></trkpt><trkpt lat="44.1002667" lon="11.90791"><ele>445.0</ele><time>2026-05-02T08:07:03.541Z</time></trkpt><trkpt lat="44.1003383" lon="11.9079167"><ele>443.3333333333333</ele><time>2026-05-02T08:07:04.541Z</time></trkpt><trkpt lat="44.1004067" lon="11.907925"><ele>441.66666666666663</ele><time>2026-05-02T08:07:05.541Z</time></trkpt><trkpt lat="44.1005233" lon="11.9079367"><ele>440.0</ele><time>2026-05-02T08:07:07.541Z</time></trkpt><trkpt lat="44.100615" lon="11.90798"><ele>440.0</ele><time>2026-05-02T08:07:09.541Z</time></trkpt><trkpt lat="44.10065" lon="11.90809"><ele>440.0</ele><time>2026-05-02T08:07:11.541Z</time></trkpt><trkpt lat="44.10059" lon="11.9081817"><ele>440.0</ele><time>2026-05-02T08:07:13.541Z</time></trkpt><trkpt lat="44.100475" lon="11.9081817"><ele>440.0</ele><time>2026-05-02T08:07:15.541Z</time></trkpt><trkpt lat="44.1003517" lon="11.9081817"><ele>440.0</ele><time>2026-05-02T08:07:17.541Z</time></trkpt><trkpt lat="44.100285" lon="11.908205"><ele>439.99999999999994</ele><time>2026-05-02T08:07:18.541Z</time></trkpt><trkpt lat="44.1002233" lon="11.9082417"><ele>440.0</ele><time>2026-05-02T08:07:19.541Z</time></trkpt><trkpt lat="44.1001567" lon="11.9082983"><ele>440.0</ele><time>2026-05-02T08:07:20.541Z</time></trkpt><trkpt lat="44.1000967" lon="11.9083667"><ele>440.0</ele><time>2026-05-02T08:07:21.541Z</time></trkpt><trkpt lat="44.1000483" lon="11.90844"><ele>439.99999999999994</ele><time>2026-05-02T08:07:22.541Z</time></trkpt><trkpt lat="44.0999917" lon="11.9085317"><ele>440.0</ele><time>2026-05-02T08:07:23.541Z</time></trkpt><trkpt lat="44.099935" lon="11.90863"><ele>440.4</ele><time>2026-05-02T08:07:24.541Z</time></trkpt><trkpt lat="44.099885" lon="11.90874"><ele>440.8</ele><time>2026-05-02T08:07:25.541Z</time></trkpt><trkpt lat="44.0998233" lon="11.908845"><ele>441.20000000000005</ele><time>2026-05-02T08:07:26.541Z</time></trkpt><trkpt lat="44.0997717" lon="11.9089483"><ele>441.6</ele><time>2026-05-02T08:07:27.541Z</time></trkpt><trkpt lat="44.0997133" lon="11.9090567"><ele>442.0</ele><time>2026-05-02T08:07:28.541Z</time></trkpt><trkpt lat="44.099655" lon="11.909165"><ele>440.33333333333337</ele><time>2026-05-02T08:07:29.541Z</time></trkpt><trkpt lat="44.0995933" lon="11.9092667"><ele>438.6666666666667</ele><time>2026-05-02T08:07:30.541Z</time></trkpt><trkpt lat="44.0995417" lon="11.9093567"><ele>437.0</ele><time>2026-05-02T08:07:31.541Z</time></trkpt><trkpt lat="44.0994933" lon="11.9094467"><ele>435.33333333333337</ele><time>2026-05-02T08:07:32.541Z</time></trkpt><trkpt lat="44.0994483" lon="11.9095317"><ele>433.6666666666667</ele><time>2026-05-02T08:07:33.541Z</time></trkpt><trkpt lat="44.09941" lon="11.9096217"><ele>432.0</ele><time>2026-05-02T08:07:34.541Z</time></trkpt><trkpt lat="44.0993867" lon="11.909715"><ele>432.0</ele><time>2026-05-02T08:07:35.541Z</time></trkpt><trkpt lat="44.0993683" lon="11.9098"><ele>432.00000000000006</ele><time>2026-05-02T08:07:36.541Z</time></trkpt><trkpt lat="44.09937" lon="11.9099717"><ele>432.00000000000006</ele><time>2026-05-02T08:07:38.541Z</time></trkpt><trkpt lat="44.099435" lon="11.91012"><ele>432.0</ele><time>2026-05-02T08:07:40.541Z</time></trkpt><trkpt lat="44.099515" lon="11.9102433"><ele>432.0</ele><time>2026-05-02T08:07:42.541Z</time></trkpt><trkpt lat="44.0995617" lon="11.91031"><ele>430.1666666666667</ele><time>2026-05-02T08:07:43.541Z</time></trkpt><trkpt lat="44.09961" lon="11.9103767"><ele>428.33333333333337</ele><time>2026-05-02T08:07:44.541Z</time></trkpt><trkpt lat="44.099655" lon="11.9104433"><ele>426.5</ele><time>2026-05-02T08:07:45.541Z</time></trkpt><trkpt lat="44.099695" lon="11.9105133"><ele>424.6666666666667</ele><time>2026-05-02T08:07:46.541Z</time></trkpt><trkpt lat="44.099775" lon="11.910645"><ele>422.83333333333337</ele><time>2026-05-02T08:07:48.541Z</time></trkpt><trkpt lat="44.0998167" lon="11.9107133"><ele>421.0</ele><time>2026-05-02T08:07:49.541Z</time></trkpt><trkpt lat="44.0998633" lon="11.9107817"><ele>419.6</ele><time>2026-05-02T08:07:50.541Z</time></trkpt><trkpt lat="44.0999467" lon="11.9108967"><ele>418.20000000000005</ele><time>2026-05-02T08:07:52.542Z</time></trkpt><trkpt lat="44.1000217" lon="11.9110183"><ele>416.79999999999995</ele><time>2026-05-02T08:07:54.541Z</time></trkpt><trkpt lat="44.1000917" lon="11.9111633"><ele>415.4</ele><time>2026-05-02T08:07:56.541Z</time></trkpt><trkpt lat="44.100125" lon="11.91124"><ele>414.0</ele><time>2026-05-02T08:07:57.541Z</time></trkpt><trkpt lat="44.1001883" lon="11.9114"><ele>413.8571428571429</ele><time>2026-05-02T08:07:59.541Z</time></trkpt><trkpt lat="44.1002233" lon="11.9114833"><ele>413.7142857142857</ele><time>2026-05-02T08:08:00.541Z</time></trkpt><trkpt lat="44.1002533" lon="11.9115667"><ele>413.57142857142856</ele><time>2026-05-02T08:08:01.541Z</time></trkpt><trkpt lat="44.1002867" lon="11.911645"><ele>413.42857142857144</ele><time>2026-05-02T08:08:02.541Z</time></trkpt><trkpt lat="44.10032" lon="11.9117267"><ele>413.2857142857143</ele><time>2026-05-02T08:08:03.541Z</time></trkpt><trkpt lat="44.1003517" lon="11.9118067"><ele>413.14285714285717</ele><time>2026-05-02T08:08:04.541Z</time></trkpt><trkpt lat="44.1003783" lon="11.9118883"><ele>413.0</ele><time>2026-05-02T08:08:05.541Z</time></trkpt><trkpt lat="44.1004017" lon="11.91197"><ele>412.49999999999994</ele><time>2026-05-02T08:08:06.541Z</time></trkpt><trkpt lat="44.1004317" lon="11.9120617"><ele>412.0</ele><time>2026-05-02T08:08:07.541Z</time></trkpt><trkpt lat="44.1004617" lon="11.912145"><ele>411.5</ele><time>2026-05-02T08:08:08.541Z</time></trkpt><trkpt lat="44.100495" lon="11.9122233"><ele>411.0</ele><time>2026-05-02T08:08:09.541Z</time></trkpt><trkpt lat="44.1005283" lon="11.9123017"><ele>410.49999999999994</ele><time>2026-05-02T08:08:10.541Z</time></trkpt><trkpt lat="44.1005867" lon="11.9124583"><ele>410.0</ele><time>2026-05-02T08:08:12.541Z</time></trkpt><trkpt lat="44.100615" lon="11.9125383"><ele>410.4</ele><time>2026-05-02T08:08:13.541Z</time></trkpt><trkpt lat="44.1006717" lon="11.9126833"><ele>410.8</ele><time>2026-05-02T08:08:15.541Z</time></trkpt><trkpt lat="44.1007183" lon="11.9128217"><ele>411.20000000000005</ele><time>2026-05-02T08:08:17.541Z</time></trkpt><trkpt lat="44.10077" lon="11.9129533"><ele>411.6</ele><time>2026-05-02T08:08:19.541Z</time></trkpt><trkpt lat="44.10082" lon="11.9130783"><ele>412.0</ele><time>2026-05-02T08:08:21.541Z</time></trkpt><trkpt lat="44.10087" lon="11.9131817"><ele>412.00000000000006</ele><time>2026-05-02T08:08:23.541Z</time></trkpt><trkpt lat="44.1009117" lon="11.9132817"><ele>412.0</ele><time>2026-05-02T08:08:25.541Z</time></trkpt><trkpt lat="44.1009517" lon="11.9133717"><ele>412.0</ele><time>2026-05-02T08:08:27.541Z</time></trkpt><trkpt lat="44.100995" lon="11.913465"><ele>412.0</ele><time>2026-05-02T08:08:29.541Z</time></trkpt><trkpt lat="44.10104" lon="11.91355"><ele>412.00000000000006</ele><time>2026-05-02T08:08:31.542Z</time></trkpt><trkpt lat="44.1010883" lon="11.9136417"><ele>412.0</ele><time>2026-05-02T08:08:33.541Z</time></trkpt><trkpt lat="44.1011267" lon="11.9137283"><ele>412.1666666666667</ele><time>2026-05-02T08:08:35.542Z</time></trkpt><trkpt lat="44.10117" lon="11.9138367"><ele>412.33333333333337</ele><time>2026-05-02T08:08:37.541Z</time></trkpt><trkpt lat="44.101215" lon="11.913945"><ele>412.5</ele><time>2026-05-02T08:08:39.541Z</time></trkpt><trkpt lat="44.1012517" lon="11.9140533"><ele>412.66666666666663</ele><time>2026-05-02T08:08:41.541Z</time></trkpt><trkpt lat="44.1012883" lon="11.914165"><ele>412.8333333333333</ele><time>2026-05-02T08:08:43.541Z</time></trkpt><trkpt lat="44.1013183" lon="11.9142683"><ele>413.0</ele><time>2026-05-02T08:08:45.541Z</time></trkpt><trkpt lat="44.1013517" lon="11.9143767"><ele>412.0</ele><time>2026-05-02T08:08:47.541Z</time></trkpt><trkpt lat="44.10139" lon="11.91449"><ele>411.0</ele><time>2026-05-02T08:08:49.541Z</time></trkpt><trkpt lat="44.101435" lon="11.9146117"><ele>410.0</ele><time>2026-05-02T08:08:51.541Z</time></trkpt><trkpt lat="44.1014783" lon="11.9147317"><ele>409.0</ele><time>2026-05-02T08:08:53.541Z</time></trkpt><trkpt lat="44.101525" lon="11.9148517"><ele>408.0</ele><time>2026-05-02T08:08:55.541Z</time></trkpt><trkpt lat="44.1015667" lon="11.9149767"><ele>408.79999999999995</ele><time>2026-05-02T08:08:57.541Z</time></trkpt><trkpt lat="44.1016033" lon="11.91509"><ele>409.6</ele><time>2026-05-02T08:08:59.541Z</time></trkpt><trkpt lat="44.1016383" lon="11.9152067"><ele>410.4</ele><time>2026-05-02T08:09:01.541Z</time></trkpt><trkpt lat="44.1016833" lon="11.9153283"><ele>411.20000000000005</ele><time>2026-05-02T08:09:03.541Z</time></trkpt><trkpt lat="44.1017217" lon="11.915445"><ele>412.0</ele><time>2026-05-02T08:09:05.541Z</time></trkpt><trkpt lat="44.1017583" lon="11.91555"><ele>412.00000000000006</ele><time>2026-05-02T08:09:07.541Z</time></trkpt><trkpt lat="44.1018" lon="11.915645"><ele>412.0</ele><time>2026-05-02T08:09:09.541Z</time></trkpt><trkpt lat="44.10185" lon="11.9157417"><ele>412.0</ele><time>2026-05-02T08:09:11.541Z</time></trkpt><trkpt lat="44.1019" lon="11.9158317"><ele>412.0</ele><time>2026-05-02T08:09:13.541Z</time></trkpt><trkpt lat="44.101965" lon="11.9159067"><ele>412.00000000000006</ele><time>2026-05-02T08:09:15.541Z</time></trkpt><trkpt lat="44.10203" lon="11.91599"><ele>412.0</ele><time>2026-05-02T08:09:17.541Z</time></trkpt><trkpt lat="44.1020983" lon="11.9160633"><ele>411.1666666666667</ele><time>2026-05-02T08:09:19.541Z</time></trkpt><trkpt lat="44.102175" lon="11.916135"><ele>410.33333333333337</ele><time>2026-05-02T08:09:21.541Z</time></trkpt><trkpt lat="44.1022533" lon="11.91619"><ele>409.5</ele><time>2026-05-02T08:09:23.541Z</time></trkpt><trkpt lat="44.10233" lon="11.9162467"><ele>408.66666666666663</ele><time>2026-05-02T08:09:25.541Z</time></trkpt><trkpt lat="44.1024117" lon="11.9163033"><ele>407.8333333333333</ele><time>2026-05-02T08:09:27.541Z</time></trkpt><trkpt lat="44.1024883" lon="11.91635"><ele>407.0</ele><time>2026-05-02T08:09:29.541Z</time></trkpt><trkpt lat="44.10256" lon="11.916405"><ele>409.8333333333333</ele><time>2026-05-02T08:09:31.541Z</time></trkpt><trkpt lat="44.1026233" lon="11.9164767"><ele>412.66666666666663</ele><time>2026-05-02T08:09:33.541Z</time></trkpt><trkpt lat="44.102675" lon="11.9165567"><ele>415.5</ele><time>2026-05-02T08:09:35.541Z</time></trkpt><trkpt lat="44.102725" lon="11.91665"><ele>418.33333333333337</ele><time>2026-05-02T08:09:37.541Z</time></trkpt><trkpt lat="44.1027883" lon="11.91673"><ele>421.1666666666667</ele><time>2026-05-02T08:09:39.541Z</time></trkpt><trkpt lat="44.10285" lon="11.9168183"><ele>424.0</ele><time>2026-05-02T08:09:41.541Z</time></trkpt><trkpt lat="44.102905" lon="11.9169167"><ele>424.2</ele><time>2026-05-02T08:09:43.541Z</time></trkpt><trkpt lat="44.1029583" lon="11.9170133"><ele>424.4</ele><time>2026-05-02T08:09:45.541Z</time></trkpt><trkpt lat="44.1030133" lon="11.9171233"><ele>424.6</ele><time>2026-05-02T08:09:47.541Z</time></trkpt><trkpt lat="44.1030767" lon="11.9172283"><ele>424.8</ele><time>2026-05-02T08:09:49.541Z</time></trkpt><trkpt lat="44.1031433" lon="11.9173333"><ele>425.0</ele><time>2026-05-02T08:09:51.541Z</time></trkpt><trkpt lat="44.1032033" lon="11.9174417"><ele>424.4</ele><time>2026-05-02T08:09:53.541Z</time></trkpt><trkpt lat="44.10327" lon="11.9175367"><ele>423.8</ele><time>2026-05-02T08:09:55.541Z</time></trkpt><trkpt lat="44.1033367" lon="11.917635"><ele>423.20000000000005</ele><time>2026-05-02T08:09:57.541Z</time></trkpt><trkpt lat="44.1034033" lon="11.9177183"><ele>422.6</ele><time>2026-05-02T08:09:59.542Z</time></trkpt><trkpt lat="44.10348" lon="11.9177917"><ele>422.0</ele><time>2026-05-02T08:10:01.541Z</time></trkpt><trkpt lat="44.103565" lon="11.91788"><ele>423.20000000000005</ele><time>2026-05-02T08:10:03.541Z</time></trkpt><trkpt lat="44.1036483" lon="11.9179617"><ele>424.4</ele><time>2026-05-02T08:10:05.541Z</time></trkpt><trkpt lat="44.1037267" lon="11.9180317"><ele>425.59999999999997</ele><time>2026-05-02T08:10:07.541Z</time></trkpt><trkpt lat="44.103805" lon="11.9180917"><ele>426.79999999999995</ele><time>2026-05-02T08:10:09.541Z</time></trkpt><trkpt lat="44.10388" lon="11.9181533"><ele>428.0</ele><time>2026-05-02T08:10:11.541Z</time></trkpt><trkpt lat="44.1039533" lon="11.918215"><ele>428.0</ele><time>2026-05-02T08:10:13.541Z</time></trkpt><trkpt lat="44.1040317" lon="11.9182867"><ele>427.99999999999994</ele><time>2026-05-02T08:10:15.541Z</time></trkpt><trkpt lat="44.1040983" lon="11.9183483"><ele>427.99999999999994</ele><time>2026-05-02T08:10:17.541Z</time></trkpt><trkpt lat="44.1041783" lon="11.9184017"><ele>428.0</ele><time>2026-05-02T08:10:19.541Z</time></trkpt><trkpt lat="44.1042733" lon="11.9184633"><ele>428.0</ele><time>2026-05-02T08:10:21.542Z</time></trkpt><trkpt lat="44.1043867" lon="11.9185183"><ele>423.16666666666663</ele><time>2026-05-02T08:10:23.541Z</time></trkpt><trkpt lat="44.1045083" lon="11.9185617"><ele>418.3333333333333</ele><time>2026-05-02T08:10:25.541Z</time></trkpt><trkpt lat="44.10457" lon="11.9185833"><ele>413.5</ele><time>2026-05-02T08:10:26.541Z</time></trkpt><trkpt lat="44.104635" lon="11.9186067"><ele>408.66666666666663</ele><time>2026-05-02T08:10:27.541Z</time></trkpt><trkpt lat="44.104705" lon="11.9186333"><ele>403.8333333333333</ele><time>2026-05-02T08:10:28.541Z</time></trkpt><trkpt lat="44.1047683" lon="11.9186483"><ele>399.0</ele><time>2026-05-02T08:10:29.541Z</time></trkpt><trkpt lat="44.1048367" lon="11.9186767"><ele>399.0</ele><time>2026-05-02T08:10:30.541Z</time></trkpt><trkpt lat="44.1049083" lon="11.918695"><ele>399.0</ele><time>2026-05-02T08:10:31.541Z</time></trkpt><trkpt lat="44.1049833" lon="11.9187183"><ele>399.0</ele><time>2026-05-02T08:10:32.541Z</time></trkpt><trkpt lat="44.10506" lon="11.9187433"><ele>399.0</ele><time>2026-05-02T08:10:33.542Z</time></trkpt><trkpt lat="44.105135" lon="11.9187683"><ele>399.0</ele><time>2026-05-02T08:10:34.541Z</time></trkpt><trkpt lat="44.105205" lon="11.9187817"><ele>399.0</ele><time>2026-05-02T08:10:35.541Z</time></trkpt><trkpt lat="44.1052783" lon="11.9188033"><ele>399.0</ele><time>2026-05-02T08:10:36.541Z</time></trkpt><trkpt lat="44.10534" lon="11.9188383"><ele>399.0</ele><time>2026-05-02T08:10:37.541Z</time></trkpt><trkpt lat="44.105455" lon="11.91891"><ele>399.0</ele><time>2026-05-02T08:10:39.541Z</time></trkpt><trkpt lat="44.1055117" lon="11.9189567"><ele>399.0</ele><time>2026-05-02T08:10:40.541Z</time></trkpt><trkpt lat="44.1055633" lon="11.9190117"><ele>399.0</ele><time>2026-05-02T08:10:41.541Z</time></trkpt><trkpt lat="44.1056567" lon="11.919145"><ele>399.0</ele><time>2026-05-02T08:10:43.541Z</time></trkpt><trkpt lat="44.1057017" lon="11.9192233"><ele>399.0</ele><time>2026-05-02T08:10:44.541Z</time></trkpt><trkpt lat="44.10574" lon="11.91931"><ele>399.0</ele><time>2026-05-02T08:10:45.541Z</time></trkpt><trkpt lat="44.1057717" lon="11.9193983"><ele>399.0</ele><time>2026-05-02T08:10:46.541Z</time></trkpt><trkpt lat="44.1057967" lon="11.9194933"><ele>399.0</ele><time>2026-05-02T08:10:47.541Z</time></trkpt><trkpt lat="44.1058133" lon="11.919585"><ele>399.0</ele><time>2026-05-02T08:10:48.541Z</time></trkpt><trkpt lat="44.1058333" lon="11.91968"><ele>399.0</ele><time>2026-05-02T08:10:49.541Z</time></trkpt><trkpt lat="44.105855" lon="11.9197733"><ele>398.0</ele><time>2026-05-02T08:10:50.541Z</time></trkpt><trkpt lat="44.105885" lon="11.9198667"><ele>397.0</ele><time>2026-05-02T08:10:51.542Z</time></trkpt><trkpt lat="44.1059217" lon="11.91995"><ele>396.0</ele><time>2026-05-02T08:10:52.541Z</time></trkpt><trkpt lat="44.1059683" lon="11.92003"><ele>395.0</ele><time>2026-05-02T08:10:53.541Z</time></trkpt><trkpt lat="44.106025" lon="11.9200967"><ele>394.0</ele><time>2026-05-02T08:10:54.541Z</time></trkpt><trkpt lat="44.1060883" lon="11.92017"><ele>393.0</ele><time>2026-05-02T08:10:55.541Z</time></trkpt><trkpt lat="44.106155" lon="11.9202417"><ele>390.7142857142857</ele><time>2026-05-02T08:10:56.542Z</time></trkpt><trkpt lat="44.1062167" lon="11.9203017"><ele>388.42857142857144</ele><time>2026-05-02T08:10:57.541Z</time></trkpt><trkpt lat="44.1062767" lon="11.920355"><ele>386.1428571428571</ele><time>2026-05-02T08:10:58.541Z</time></trkpt><trkpt lat="44.1063333" lon="11.9204067"><ele>383.8571428571429</ele><time>2026-05-02T08:10:59.541Z</time></trkpt><trkpt lat="44.1063883" lon="11.9204617"><ele>381.57142857142856</ele><time>2026-05-02T08:11:00.541Z</time></trkpt><trkpt lat="44.1064433" lon="11.92052"><ele>379.2857142857143</ele><time>2026-05-02T08:11:01.541Z</time></trkpt><trkpt lat="44.1064983" lon="11.9205817"><ele>377.0</ele><time>2026-05-02T08:11:02.541Z</time></trkpt><trkpt lat="44.1065517" lon="11.9206483"><ele>379.6666666666667</ele><time>2026-05-02T08:11:03.541Z</time></trkpt><trkpt lat="44.1066067" lon="11.9207183"><ele>382.33333333333337</ele><time>2026-05-02T08:11:04.541Z</time></trkpt><trkpt lat="44.1066517" lon="11.9208083"><ele>385.0</ele><time>2026-05-02T08:11:05.541Z</time></trkpt><trkpt lat="44.1066917" lon="11.9209083"><ele>387.6666666666667</ele><time>2026-05-02T08:11:06.542Z</time></trkpt><trkpt lat="44.1067267" lon="11.9210133"><ele>390.3333333333333</ele><time>2026-05-02T08:11:07.541Z</time></trkpt><trkpt lat="44.1067467" lon="11.9211067"><ele>393.0</ele><time>2026-05-02T08:11:08.541Z</time></trkpt><trkpt lat="44.106765" lon="11.9211983"><ele>393.0</ele><time>2026-05-02T08:11:09.541Z</time></trkpt><trkpt lat="44.1067767" lon="11.9212917"><ele>393.0</ele><time>2026-05-02T08:11:10.541Z</time></trkpt><trkpt lat="44.1067867" lon="11.9213867"><ele>393.0</ele><time>2026-05-02T08:11:11.542Z</time></trkpt><trkpt lat="44.1067883" lon="11.9214783"><ele>393.0</ele><time>2026-05-02T08:11:12.541Z</time></trkpt><trkpt lat="44.1067617" lon="11.9216183"><ele>393.0</ele><time>2026-05-02T08:11:16.539Z</time></trkpt><trkpt lat="44.1067383" lon="11.9217833"><ele>393.0</ele><time>2026-05-02T08:11:17.539Z</time></trkpt><trkpt lat="44.106705" lon="11.9219517"><ele>393.8333333333333</ele><time>2026-05-02T08:11:19.039Z</time></trkpt><trkpt lat="44.1066667" lon="11.922095"><ele>394.66666666666663</ele><time>2026-05-02T08:11:20.539Z</time></trkpt><trkpt lat="44.1066383" lon="11.92219"><ele>395.5</ele><time>2026-05-02T08:11:21.539Z</time></trkpt><trkpt lat="44.1066067" lon="11.922285"><ele>396.3333333333333</ele><time>2026-05-02T08:11:22.539Z</time></trkpt><trkpt lat="44.1065833" lon="11.922375"><ele>397.16666666666663</ele><time>2026-05-02T08:11:23.539Z</time></trkpt><trkpt lat="44.1065633" lon="11.92247"><ele>398.0</ele><time>2026-05-02T08:11:24.539Z</time></trkpt><trkpt lat="44.1065217" lon="11.9226283"><ele>396.2</ele><time>2026-05-02T08:11:26.539Z</time></trkpt><trkpt lat="44.106505" lon="11.9227983"><ele>394.4</ele><time>2026-05-02T08:11:28.539Z</time></trkpt><trkpt lat="44.10652" lon="11.9229583"><ele>392.59999999999997</ele><time>2026-05-02T08:11:30.539Z</time></trkpt><trkpt lat="44.1065683" lon="11.9231167"><ele>390.79999999999995</ele><time>2026-05-02T08:11:32.539Z</time></trkpt><trkpt lat="44.1066017" lon="11.9231983"><ele>389.0</ele><time>2026-05-02T08:11:33.539Z</time></trkpt><trkpt lat="44.10665" lon="11.92327"><ele>388.99999999999994</ele><time>2026-05-02T08:11:34.539Z</time></trkpt><trkpt lat="44.106705" lon="11.9233417"><ele>389.0</ele><time>2026-05-02T08:11:35.539Z</time></trkpt><trkpt lat="44.10676" lon="11.9234133"><ele>389.0</ele><time>2026-05-02T08:11:36.539Z</time></trkpt><trkpt lat="44.1068267" lon="11.9234817"><ele>389.0</ele><time>2026-05-02T08:11:37.539Z</time></trkpt><trkpt lat="44.1068933" lon="11.9235533"><ele>388.99999999999994</ele><time>2026-05-02T08:11:38.539Z</time></trkpt><trkpt lat="44.1069617" lon="11.92364"><ele>389.0</ele><time>2026-05-02T08:11:39.539Z</time></trkpt><trkpt lat="44.107025" lon="11.9237267"><ele>386.3333333333333</ele><time>2026-05-02T08:11:40.539Z</time></trkpt><trkpt lat="44.1070917" lon="11.9238183"><ele>383.66666666666663</ele><time>2026-05-02T08:11:41.539Z</time></trkpt><trkpt lat="44.10716" lon="11.9239033"><ele>381.0</ele><time>2026-05-02T08:11:42.539Z</time></trkpt><trkpt lat="44.1072267" lon="11.9239867"><ele>378.3333333333333</ele><time>2026-05-02T08:11:43.539Z</time></trkpt><trkpt lat="44.1072883" lon="11.92407"><ele>375.66666666666663</ele><time>2026-05-02T08:11:44.539Z</time></trkpt><trkpt lat="44.1073517" lon="11.9241517"><ele>373.0</ele><time>2026-05-02T08:11:45.539Z</time></trkpt><trkpt lat="44.1074133" lon="11.924235"><ele>373.0</ele><time>2026-05-02T08:11:46.539Z</time></trkpt><trkpt lat="44.1074733" lon="11.924315"><ele>373.0</ele><time>2026-05-02T08:11:47.539Z</time></trkpt><trkpt lat="44.1075367" lon="11.9243833"><ele>373.0</ele><time>2026-05-02T08:11:48.539Z</time></trkpt><trkpt lat="44.1075867" lon="11.9244517"><ele>373.0</ele><time>2026-05-02T08:11:49.54Z</time></trkpt><trkpt lat="44.1076367" lon="11.9245133"><ele>373.0</ele><time>2026-05-02T08:11:50.539Z</time></trkpt><trkpt lat="44.107685" lon="11.9245717"><ele>373.0</ele><time>2026-05-02T08:11:51.539Z</time></trkpt><trkpt lat="44.10777" lon="11.9246833"><ele>373.0</ele><time>2026-05-02T08:11:53.539Z</time></trkpt><trkpt lat="44.10786" lon="11.9247767"><ele>373.0</ele><time>2026-05-02T08:11:55.539Z</time></trkpt><trkpt lat="44.10797" lon="11.9248667"><ele>373.0</ele><time>2026-05-02T08:11:57.539Z</time></trkpt><trkpt lat="44.1080317" lon="11.9249117"><ele>373.0</ele><time>2026-05-02T08:11:58.539Z</time></trkpt><trkpt lat="44.10809" lon="11.924955"><ele>373.0</ele><time>2026-05-02T08:11:59.539Z</time></trkpt><trkpt lat="44.1081467" lon="11.9250017"><ele>373.0</ele><time>2026-05-02T08:12:00.539Z</time></trkpt><trkpt lat="44.1082067" lon="11.9250433"><ele>372.2857142857143</ele><time>2026-05-02T08:12:01.539Z</time></trkpt><trkpt lat="44.10827" lon="11.9250867"><ele>371.57142857142856</ele><time>2026-05-02T08:12:02.54Z</time></trkpt><trkpt lat="44.1083417" lon="11.9251217"><ele>370.8571428571429</ele><time>2026-05-02T08:12:03.539Z</time></trkpt><trkpt lat="44.1084083" lon="11.9251583"><ele>370.1428571428571</ele><time>2026-05-02T08:12:04.539Z</time></trkpt><trkpt lat="44.108475" lon="11.9251933"><ele>369.4285714285714</ele><time>2026-05-02T08:12:05.54Z</time></trkpt><trkpt lat="44.10854" lon="11.9252217"><ele>368.7142857142857</ele><time>2026-05-02T08:12:06.539Z</time></trkpt><trkpt lat="44.1086067" lon="11.9252533"><ele>368.0</ele><time>2026-05-02T08:12:07.539Z</time></trkpt><trkpt lat="44.1087" lon="11.9253217"><ele>368.0</ele><time>2026-05-02T08:12:09.539Z</time></trkpt><trkpt lat="44.1087467" lon="11.9254233"><ele>368.0</ele><time>2026-05-02T08:12:11.539Z</time></trkpt><trkpt lat="44.1087133" lon="11.925535"><ele>368.0</ele><time>2026-05-02T08:12:13.539Z</time></trkpt><trkpt lat="44.10863" lon="11.9255683"><ele>368.0</ele><time>2026-05-02T08:12:15.539Z</time></trkpt><trkpt lat="44.1085067" lon="11.92552"><ele>368.0</ele><time>2026-05-02T08:12:17.539Z</time></trkpt><trkpt lat="44.1084367" lon="11.9254917"><ele>368.0</ele><time>2026-05-02T08:12:18.539Z</time></trkpt><trkpt lat="44.1083667" lon="11.9254567"><ele>368.0</ele><time>2026-05-02T08:12:19.539Z</time></trkpt><trkpt lat="44.1082967" lon="11.9254283"><ele>368.0</ele><time>2026-05-02T08:12:20.539Z</time></trkpt><trkpt lat="44.10823" lon="11.9254017"><ele>368.0</ele><time>2026-05-02T08:12:21.539Z</time></trkpt><trkpt lat="44.1081717" lon="11.9253633"><ele>368.0</ele><time>2026-05-02T08:12:22.539Z</time></trkpt><trkpt lat="44.1080667" lon="11.9252917"><ele>368.0</ele><time>2026-05-02T08:12:24.539Z</time></trkpt><trkpt lat="44.10798" lon="11.9252267"><ele>367.1666666666667</ele><time>2026-05-02T08:12:26.539Z</time></trkpt><trkpt lat="44.1078967" lon="11.9252283"><ele>366.33333333333337</ele><time>2026-05-02T08:12:28.539Z</time></trkpt><trkpt lat="44.1078467" lon="11.9253233"><ele>365.5</ele><time>2026-05-02T08:12:30.539Z</time></trkpt><trkpt lat="44.10789" lon="11.9254517"><ele>364.6666666666667</ele><time>2026-05-02T08:12:32.539Z</time></trkpt><trkpt lat="44.10794" lon="11.9255133"><ele>363.8333333333333</ele><time>2026-05-02T08:12:33.539Z</time></trkpt><trkpt lat="44.1079933" lon="11.9255783"><ele>363.0</ele><time>2026-05-02T08:12:34.539Z</time></trkpt><trkpt lat="44.1080533" lon="11.92564"><ele>363.0</ele><time>2026-05-02T08:12:35.539Z</time></trkpt><trkpt lat="44.1081117" lon="11.9257167"><ele>363.0</ele><time>2026-05-02T08:12:36.539Z</time></trkpt><trkpt lat="44.1081733" lon="11.9258033"><ele>363.0</ele><time>2026-05-02T08:12:37.539Z</time></trkpt><trkpt lat="44.10823" lon="11.9258967"><ele>363.0</ele><time>2026-05-02T08:12:38.539Z</time></trkpt><trkpt lat="44.1082833" lon="11.9259967"><ele>363.0</ele><time>2026-05-02T08:12:39.539Z</time></trkpt><trkpt lat="44.108335" lon="11.9260983"><ele>363.0</ele><time>2026-05-02T08:12:40.539Z</time></trkpt><trkpt lat="44.1083817" lon="11.926205"><ele>362.2</ele><time>2026-05-02T08:12:41.539Z</time></trkpt><trkpt lat="44.108435" lon="11.9263083"><ele>361.4</ele><time>2026-05-02T08:12:42.539Z</time></trkpt><trkpt lat="44.1085017" lon="11.92641"><ele>360.59999999999997</ele><time>2026-05-02T08:12:43.539Z</time></trkpt><trkpt lat="44.10857" lon="11.92652"><ele>359.79999999999995</ele><time>2026-05-02T08:12:44.539Z</time></trkpt><trkpt lat="44.10863" lon="11.9266317"><ele>359.0</ele><time>2026-05-02T08:12:45.539Z</time></trkpt><trkpt lat="44.10869" lon="11.92675"><ele>358.0</ele><time>2026-05-02T08:12:46.539Z</time></trkpt><trkpt lat="44.1087467" lon="11.9268617"><ele>357.0</ele><time>2026-05-02T08:12:47.539Z</time></trkpt><trkpt lat="44.1088" lon="11.926965"><ele>356.0</ele><time>2026-05-02T08:12:48.539Z</time></trkpt><trkpt lat="44.1088467" lon="11.92706"><ele>355.0</ele><time>2026-05-02T08:12:49.539Z</time></trkpt><trkpt lat="44.1088933" lon="11.9271383"><ele>354.0</ele><time>2026-05-02T08:12:50.539Z</time></trkpt><trkpt lat="44.10894" lon="11.927215"><ele>353.0</ele><time>2026-05-02T08:12:51.539Z</time></trkpt><trkpt lat="44.1089883" lon="11.9272867"><ele>353.0</ele><time>2026-05-02T08:12:52.539Z</time></trkpt><trkpt lat="44.1090467" lon="11.9273517"><ele>353.0</ele><time>2026-05-02T08:12:53.539Z</time></trkpt><trkpt lat="44.1091017" lon="11.9274067"><ele>353.0</ele><time>2026-05-02T08:12:54.539Z</time></trkpt><trkpt lat="44.1091533" lon="11.9274583"><ele>353.0</ele><time>2026-05-02T08:12:55.539Z</time></trkpt><trkpt lat="44.1092033" lon="11.9275133"><ele>353.0</ele><time>2026-05-02T08:12:56.539Z</time></trkpt><trkpt lat="44.1092567" lon="11.927575"><ele>353.0</ele><time>2026-05-02T08:12:57.539Z</time></trkpt><trkpt lat="44.109315" lon="11.92764"><ele>353.0</ele><time>2026-05-02T08:12:58.539Z</time></trkpt><trkpt lat="44.1093767" lon="11.9277"><ele>351.7142857142857</ele><time>2026-05-02T08:12:59.539Z</time></trkpt><trkpt lat="44.1094383" lon="11.927755"><ele>350.42857142857144</ele><time>2026-05-02T08:13:00.539Z</time></trkpt><trkpt lat="44.1094967" lon="11.9278183"><ele>349.14285714285717</ele><time>2026-05-02T08:13:01.539Z</time></trkpt><trkpt lat="44.1095533" lon="11.92788"><ele>347.8571428571429</ele><time>2026-05-02T08:13:02.539Z</time></trkpt><trkpt lat="44.1096117" lon="11.9279467"><ele>346.57142857142856</ele><time>2026-05-02T08:13:03.539Z</time></trkpt><trkpt lat="44.1096683" lon="11.928015"><ele>345.28571428571433</ele><time>2026-05-02T08:13:04.539Z</time></trkpt><trkpt lat="44.1097217" lon="11.9280867"><ele>344.0</ele><time>2026-05-02T08:13:05.539Z</time></trkpt><trkpt lat="44.1097683" lon="11.9281583"><ele>344.0</ele><time>2026-05-02T08:13:06.539Z</time></trkpt><trkpt lat="44.109815" lon="11.928245"><ele>344.0</ele><time>2026-05-02T08:13:07.539Z</time></trkpt><trkpt lat="44.1098633" lon="11.9283217"><ele>344.0</ele><time>2026-05-02T08:13:08.539Z</time></trkpt><trkpt lat="44.1099067" lon="11.9283867"><ele>344.0</ele><time>2026-05-02T08:13:09.54Z</time></trkpt><trkpt lat="44.10998" lon="11.9285233"><ele>344.0</ele><time>2026-05-02T08:13:11.539Z</time></trkpt><trkpt lat="44.11005" lon="11.9286517"><ele>343.0</ele><time>2026-05-02T08:13:13.539Z</time></trkpt><trkpt lat="44.1101183" lon="11.9287783"><ele>342.0</ele><time>2026-05-02T08:13:15.539Z</time></trkpt><trkpt lat="44.1101783" lon="11.9288917"><ele>341.0</ele><time>2026-05-02T08:13:17.539Z</time></trkpt><trkpt lat="44.1102583" lon="11.9290017"><ele>340.0</ele><time>2026-05-02T08:13:19.539Z</time></trkpt><trkpt lat="44.1103033" lon="11.9290667"><ele>339.0</ele><time>2026-05-02T08:13:20.539Z</time></trkpt><trkpt lat="44.1103783" lon="11.9291883"><ele>337.0</ele><time>2026-05-02T08:13:22.539Z</time></trkpt><trkpt lat="44.1104233" lon="11.92925"><ele>335.0</ele><time>2026-05-02T08:13:23.539Z</time></trkpt><trkpt lat="44.1105133" lon="11.9293767"><ele>333.0</ele><time>2026-05-02T08:13:25.539Z</time></trkpt><trkpt lat="44.1105617" lon="11.92945"><ele>331.0</ele><time>2026-05-02T08:13:26.539Z</time></trkpt><trkpt lat="44.1106067" lon="11.9295233"><ele>329.0</ele><time>2026-05-02T08:13:27.539Z</time></trkpt><trkpt lat="44.1106567" lon="11.929605"><ele>327.0</ele><time>2026-05-02T08:13:28.539Z</time></trkpt><trkpt lat="44.1107033" lon="11.92969"><ele>326.5</ele><time>2026-05-02T08:13:29.539Z</time></trkpt><trkpt lat="44.1107467" lon="11.9297717"><ele>326.0</ele><time>2026-05-02T08:13:30.539Z</time></trkpt><trkpt lat="44.1107867" lon="11.9298467"><ele>325.5</ele><time>2026-05-02T08:13:31.539Z</time></trkpt><trkpt lat="44.110825" lon="11.9299217"><ele>325.0</ele><time>2026-05-02T08:13:32.539Z</time></trkpt><trkpt lat="44.1108717" lon="11.9299867"><ele>324.5</ele><time>2026-05-02T08:13:33.539Z</time></trkpt><trkpt lat="44.1109817" lon="11.9300767"><ele>324.0</ele><time>2026-05-02T08:13:35.539Z</time></trkpt><trkpt lat="44.1110967" lon="11.9301317"><ele>324.0</ele><time>2026-05-02T08:13:37.539Z</time></trkpt><trkpt lat="44.1112117" lon="11.9301583"><ele>324.0</ele><time>2026-05-02T08:13:39.539Z</time></trkpt><trkpt lat="44.111275" lon="11.930165"><ele>324.0</ele><time>2026-05-02T08:13:40.539Z</time></trkpt><trkpt lat="44.1113417" lon="11.9301667"><ele>324.0</ele><time>2026-05-02T08:13:41.539Z</time></trkpt><trkpt lat="44.1114083" lon="11.9301683"><ele>324.0</ele><time>2026-05-02T08:13:42.539Z</time></trkpt><trkpt lat="44.1114767" lon="11.9301767"><ele>324.0</ele><time>2026-05-02T08:13:43.539Z</time></trkpt><trkpt lat="44.11155" lon="11.930185"><ele>323.8333333333333</ele><time>2026-05-02T08:13:44.539Z</time></trkpt><trkpt lat="44.1116233" lon="11.9302"><ele>323.6666666666667</ele><time>2026-05-02T08:13:45.539Z</time></trkpt><trkpt lat="44.1117033" lon="11.93021"><ele>323.5</ele><time>2026-05-02T08:13:46.539Z</time></trkpt><trkpt lat="44.1117867" lon="11.9302233"><ele>323.33333333333337</ele><time>2026-05-02T08:13:47.539Z</time></trkpt><trkpt lat="44.1118667" lon="11.9302483"><ele>323.1666666666667</ele><time>2026-05-02T08:13:48.539Z</time></trkpt><trkpt lat="44.1119483" lon="11.930275"><ele>323.0</ele><time>2026-05-02T08:13:49.539Z</time></trkpt><trkpt lat="44.1120333" lon="11.93031"><ele>323.0</ele><time>2026-05-02T08:13:50.539Z</time></trkpt><trkpt lat="44.1121183" lon="11.9303533"><ele>323.0</ele><time>2026-05-02T08:13:51.539Z</time></trkpt><trkpt lat="44.11221" lon="11.93041"><ele>323.0</ele><time>2026-05-02T08:13:52.539Z</time></trkpt><trkpt lat="44.1122917" lon="11.93047"><ele>323.0</ele><time>2026-05-02T08:13:53.539Z</time></trkpt><trkpt lat="44.112375" lon="11.93053"><ele>323.0</ele><time>2026-05-02T08:13:54.539Z</time></trkpt><trkpt lat="44.1124533" lon="11.9305867"><ele>322.33333333333337</ele><time>2026-05-02T08:13:55.54Z</time></trkpt><trkpt lat="44.11253" lon="11.93064"><ele>321.6666666666667</ele><time>2026-05-02T08:13:56.539Z</time></trkpt><trkpt lat="44.11261" lon="11.93069"><ele>321.0</ele><time>2026-05-02T08:13:57.539Z</time></trkpt><trkpt lat="44.1126783" lon="11.9307367"><ele>320.3333333333333</ele><time>2026-05-02T08:13:58.539Z</time></trkpt><trkpt lat="44.1127483" lon="11.9307783"><ele>319.66666666666663</ele><time>2026-05-02T08:13:59.539Z</time></trkpt><trkpt lat="44.1128117" lon="11.9308167"><ele>319.0</ele><time>2026-05-02T08:14:00.54Z</time></trkpt><trkpt lat="44.11287" lon="11.930855"><ele>317.7142857142857</ele><time>2026-05-02T08:14:01.539Z</time></trkpt><trkpt lat="44.11293" lon="11.9309017"><ele>316.4285714285714</ele><time>2026-05-02T08:14:02.539Z</time></trkpt><trkpt lat="44.1129867" lon="11.93095"><ele>315.1428571428571</ele><time>2026-05-02T08:14:03.539Z</time></trkpt><trkpt lat="44.113045" lon="11.9310033"><ele>313.8571428571429</ele><time>2026-05-02T08:14:04.539Z</time></trkpt><trkpt lat="44.1131133" lon="11.93105"><ele>312.57142857142856</ele><time>2026-05-02T08:14:05.539Z</time></trkpt><trkpt lat="44.11318" lon="11.9310983"><ele>311.2857142857143</ele><time>2026-05-02T08:14:06.539Z</time></trkpt><trkpt lat="44.1132467" lon="11.9311483"><ele>310.0</ele><time>2026-05-02T08:14:07.539Z</time></trkpt><trkpt lat="44.1133167" lon="11.9311983"><ele>310.0</ele><time>2026-05-02T08:14:08.539Z</time></trkpt><trkpt lat="44.113385" lon="11.9312467"><ele>310.0</ele><time>2026-05-02T08:14:09.539Z</time></trkpt><trkpt lat="44.1134467" lon="11.9312933"><ele>310.0</ele><time>2026-05-02T08:14:10.539Z</time></trkpt><trkpt lat="44.1135083" lon="11.9313383"><ele>310.0</ele><time>2026-05-02T08:14:11.539Z</time></trkpt><trkpt lat="44.1135717" lon="11.9313833"><ele>310.0</ele><time>2026-05-02T08:14:12.539Z</time></trkpt><trkpt lat="44.1136383" lon="11.9314317"><ele>310.0</ele><time>2026-05-02T08:14:13.54Z</time></trkpt><trkpt lat="44.11371" lon="11.9314667"><ele>310.0</ele><time>2026-05-02T08:14:14.539Z</time></trkpt><trkpt lat="44.11378" lon="11.931495"><ele>310.0</ele><time>2026-05-02T08:14:15.539Z</time></trkpt><trkpt lat="44.1138567" lon="11.9315"><ele>310.0</ele><time>2026-05-02T08:14:16.539Z</time></trkpt><trkpt lat="44.1139333" lon="11.9314867"><ele>310.0</ele><time>2026-05-02T08:14:17.539Z</time></trkpt><trkpt lat="44.1140067" lon="11.93147"><ele>310.0</ele><time>2026-05-02T08:14:18.539Z</time></trkpt><trkpt lat="44.1140783" lon="11.9314567"><ele>310.0</ele><time>2026-05-02T08:14:19.539Z</time></trkpt><trkpt lat="44.11415" lon="11.93145"><ele>310.0</ele><time>2026-05-02T08:14:20.539Z</time></trkpt><trkpt lat="44.1142267" lon="11.9314433"><ele>310.0</ele><time>2026-05-02T08:14:21.539Z</time></trkpt><trkpt lat="44.114305" lon="11.9314467"><ele>309.8333333333333</ele><time>2026-05-02T08:14:22.539Z</time></trkpt><trkpt lat="44.1143767" lon="11.9314633"><ele>309.66666666666663</ele><time>2026-05-02T08:14:23.539Z</time></trkpt><trkpt lat="44.114455" lon="11.9314817"><ele>309.5</ele><time>2026-05-02T08:14:24.539Z</time></trkpt><trkpt lat="44.1145317" lon="11.9315067"><ele>309.3333333333333</ele><time>2026-05-02T08:14:25.539Z</time></trkpt><trkpt lat="44.1146033" lon="11.9315383"><ele>309.1666666666667</ele><time>2026-05-02T08:14:26.539Z</time></trkpt><trkpt lat="44.114675" lon="11.9315867"><ele>309.0</ele><time>2026-05-02T08:14:27.539Z</time></trkpt><trkpt lat="44.1147417" lon="11.9316333"><ele>309.0</ele><time>2026-05-02T08:14:28.539Z</time></trkpt><trkpt lat="44.1148017" lon="11.93168"><ele>309.0</ele><time>2026-05-02T08:14:29.539Z</time></trkpt><trkpt lat="44.1148617" lon="11.9317233"><ele>309.0</ele><time>2026-05-02T08:14:30.539Z</time></trkpt><trkpt lat="44.1149183" lon="11.931765"><ele>309.0</ele><time>2026-05-02T08:14:31.539Z</time></trkpt><trkpt lat="44.114995" lon="11.9318783"><ele>309.0</ele><time>2026-05-02T08:14:33.539Z</time></trkpt><trkpt lat="44.1150167" lon="11.9320017"><ele>309.0</ele><time>2026-05-02T08:14:35.539Z</time></trkpt><trkpt lat="44.1149783" lon="11.9321083"><ele>307.6666666666667</ele><time>2026-05-02T08:14:37.539Z</time></trkpt><trkpt lat="44.1149083" lon="11.9321767"><ele>306.3333333333333</ele><time>2026-05-02T08:14:39.539Z</time></trkpt><trkpt lat="44.1148133" lon="11.93219"><ele>305.0</ele><time>2026-05-02T08:14:41.539Z</time></trkpt><trkpt lat="44.1146833" lon="11.9321817"><ele>303.66666666666663</ele><time>2026-05-02T08:14:43.539Z</time></trkpt><trkpt lat="44.11462" lon="11.9321833"><ele>302.3333333333333</ele><time>2026-05-02T08:14:44.539Z</time></trkpt><trkpt lat="44.114555" lon="11.9321867"><ele>301.0</ele><time>2026-05-02T08:14:45.539Z</time></trkpt><trkpt lat="44.1144833" lon="11.932195"><ele>301.0</ele><time>2026-05-02T08:14:46.539Z</time></trkpt><trkpt lat="44.1144167" lon="11.9322083"><ele>301.0</ele><time>2026-05-02T08:14:47.539Z</time></trkpt><trkpt lat="44.1143533" lon="11.9322283"><ele>301.0</ele><time>2026-05-02T08:14:48.539Z</time></trkpt><trkpt lat="44.1142917" lon="11.9322533"><ele>301.0</ele><time>2026-05-02T08:14:49.539Z</time></trkpt><trkpt lat="44.1141783" lon="11.93233"><ele>301.0</ele><time>2026-05-02T08:14:51.539Z</time></trkpt><trkpt lat="44.1141183" lon="11.9323667"><ele>301.0</ele><time>2026-05-02T08:14:52.539Z</time></trkpt><trkpt lat="44.1140583" lon="11.9324067"><ele>300.42857142857144</ele><time>2026-05-02T08:14:53.54Z</time></trkpt><trkpt lat="44.1139983" lon="11.9324467"><ele>299.8571428571429</ele><time>2026-05-02T08:14:54.539Z</time></trkpt><trkpt lat="44.1139367" lon="11.93248"><ele>299.2857142857143</ele><time>2026-05-02T08:14:55.539Z</time></trkpt><trkpt lat="44.113875" lon="11.932505"><ele>298.7142857142857</ele><time>2026-05-02T08:14:56.54Z</time></trkpt><trkpt lat="44.1138133" lon="11.932525"><ele>298.14285714285717</ele><time>2026-05-02T08:14:57.539Z</time></trkpt><trkpt lat="44.113745" lon="11.93254"><ele>297.57142857142856</ele><time>2026-05-02T08:14:58.539Z</time></trkpt><trkpt lat="44.113675" lon="11.9325467"><ele>297.0</ele><time>2026-05-02T08:14:59.539Z</time></trkpt><trkpt lat="44.1136033" lon="11.93254"><ele>297.0</ele><time>2026-05-02T08:15:00.539Z</time></trkpt><trkpt lat="44.113535" lon="11.932535"><ele>297.0</ele><time>2026-05-02T08:15:01.539Z</time></trkpt><trkpt lat="44.1134583" lon="11.9325233"><ele>297.0</ele><time>2026-05-02T08:15:02.539Z</time></trkpt><trkpt lat="44.11338" lon="11.9325133"><ele>297.0</ele><time>2026-05-02T08:15:03.539Z</time></trkpt><trkpt lat="44.1133033" lon="11.932495"><ele>297.0</ele><time>2026-05-02T08:15:04.539Z</time></trkpt><trkpt lat="44.11323" lon="11.9324833"><ele>297.0</ele><time>2026-05-02T08:15:05.539Z</time></trkpt><trkpt lat="44.113155" lon="11.9324717"><ele>296.57142857142856</ele><time>2026-05-02T08:15:06.539Z</time></trkpt><trkpt lat="44.113085" lon="11.93246"><ele>296.14285714285717</ele><time>2026-05-02T08:15:07.539Z</time></trkpt><trkpt lat="44.1130183" lon="11.9324583"><ele>295.7142857142857</ele><time>2026-05-02T08:15:08.539Z</time></trkpt><trkpt lat="44.112905" lon="11.9324917"><ele>295.2857142857143</ele><time>2026-05-02T08:15:10.539Z</time></trkpt><trkpt lat="44.112845" lon="11.9325217"><ele>294.8571428571429</ele><time>2026-05-02T08:15:11.54Z</time></trkpt><trkpt lat="44.112785" lon="11.9325567"><ele>294.42857142857144</ele><time>2026-05-02T08:15:12.539Z</time></trkpt><trkpt lat="44.1127267" lon="11.9326"><ele>294.0</ele><time>2026-05-02T08:15:13.539Z</time></trkpt><trkpt lat="44.1126717" lon="11.9326517"><ele>294.3333333333333</ele><time>2026-05-02T08:15:14.539Z</time></trkpt><trkpt lat="44.1126183" lon="11.932705"><ele>294.6666666666667</ele><time>2026-05-02T08:15:15.54Z</time></trkpt><trkpt lat="44.1125633" lon="11.9327633"><ele>295.0</ele><time>2026-05-02T08:15:16.539Z</time></trkpt><trkpt lat="44.1125033" lon="11.9328117"><ele>295.33333333333337</ele><time>2026-05-02T08:15:17.539Z</time></trkpt><trkpt lat="44.1124433" lon="11.932855"><ele>295.6666666666667</ele><time>2026-05-02T08:15:18.539Z</time></trkpt><trkpt lat="44.1123283" lon="11.9329383"><ele>296.0</ele><time>2026-05-02T08:15:20.539Z</time></trkpt><trkpt lat="44.112265" lon="11.9329917"><ele>296.0</ele><time>2026-05-02T08:15:21.539Z</time></trkpt><trkpt lat="44.112205" lon="11.933035"><ele>296.0</ele><time>2026-05-02T08:15:22.539Z</time></trkpt><trkpt lat="44.1121467" lon="11.9330783"><ele>296.0</ele><time>2026-05-02T08:15:23.539Z</time></trkpt><trkpt lat="44.112085" lon="11.9331167"><ele>296.0</ele><time>2026-05-02T08:15:24.539Z</time></trkpt><trkpt lat="44.1120267" lon="11.93316"><ele>296.0</ele><time>2026-05-02T08:15:25.539Z</time></trkpt><trkpt lat="44.1119133" lon="11.9332383"><ele>296.0</ele><time>2026-05-02T08:15:27.539Z</time></trkpt><trkpt lat="44.111855" lon="11.9332733"><ele>296.0</ele><time>2026-05-02T08:15:28.539Z</time></trkpt><trkpt lat="44.1117483" lon="11.9333417"><ele>296.0</ele><time>2026-05-02T08:15:30.539Z</time></trkpt><trkpt lat="44.11164" lon="11.9334083"><ele>296.0</ele><time>2026-05-02T08:15:32.539Z</time></trkpt><trkpt lat="44.1115433" lon="11.9334817"><ele>296.0</ele><time>2026-05-02T08:15:34.539Z</time></trkpt><trkpt lat="44.111445" lon="11.93353"><ele>294.0</ele><time>2026-05-02T08:15:36.539Z</time></trkpt><trkpt lat="44.1113583" lon="11.9335783"><ele>292.0</ele><time>2026-05-02T08:15:38.539Z</time></trkpt><trkpt lat="44.11127" lon="11.933625"><ele>290.0</ele><time>2026-05-02T08:15:40.539Z</time></trkpt><trkpt lat="44.1111833" lon="11.9336617"><ele>288.0</ele><time>2026-05-02T08:15:42.539Z</time></trkpt><trkpt lat="44.111105" lon="11.9336917"><ele>286.0</ele><time>2026-05-02T08:15:44.539Z</time></trkpt><trkpt lat="44.111015" lon="11.9337033"><ele>286.0</ele><time>2026-05-02T08:15:46.539Z</time></trkpt><trkpt lat="44.1109183" lon="11.9337"><ele>286.0</ele><time>2026-05-02T08:15:48.539Z</time></trkpt><trkpt lat="44.11082" lon="11.9336967"><ele>286.0</ele><time>2026-05-02T08:15:50.539Z</time></trkpt><trkpt lat="44.1107133" lon="11.9336883"><ele>286.0</ele><time>2026-05-02T08:15:52.539Z</time></trkpt><trkpt lat="44.1106433" lon="11.9336767"><ele>286.0</ele><time>2026-05-02T08:15:54.556Z</time></trkpt><trkpt lat="44.1105483" lon="11.9336917"><ele>285.5</ele><time>2026-05-02T08:15:56.041Z</time></trkpt><trkpt lat="44.1104833" lon="11.9336733"><ele>285.0</ele><time>2026-05-02T08:15:57.042Z</time></trkpt><trkpt lat="44.1103883" lon="11.9336533"><ele>284.5</ele><time>2026-05-02T08:15:58.541Z</time></trkpt><trkpt lat="44.110325" lon="11.9336367"><ele>284.0</ele><time>2026-05-02T08:15:59.541Z</time></trkpt><trkpt lat="44.1102517" lon="11.9336217"><ele>283.5</ele><time>2026-05-02T08:16:00.542Z</time></trkpt><trkpt lat="44.110175" lon="11.9336"><ele>283.0</ele><time>2026-05-02T08:16:01.541Z</time></trkpt><trkpt lat="44.1100933" lon="11.93358"><ele>283.0</ele><time>2026-05-02T08:16:02.541Z</time></trkpt><trkpt lat="44.1100217" lon="11.9335567"><ele>283.0</ele><time>2026-05-02T08:16:03.541Z</time></trkpt><trkpt lat="44.11009" lon="11.9335567"><ele>283.0</ele><time>2026-05-02T08:16:04.543Z</time></trkpt><trkpt lat="44.1099417" lon="11.9335233"><ele>283.0</ele><time>2026-05-02T08:16:05.542Z</time></trkpt><trkpt lat="44.1098217" lon="11.9334867"><ele>283.0</ele><time>2026-05-02T08:16:06.542Z</time></trkpt><trkpt lat="44.1096867" lon="11.93347"><ele>283.16666666666663</ele><time>2026-05-02T08:16:08.042Z</time></trkpt><trkpt lat="44.1095683" lon="11.933445"><ele>283.3333333333333</ele><time>2026-05-02T08:16:09.541Z</time></trkpt><trkpt lat="44.10949" lon="11.9334283"><ele>283.5</ele><time>2026-05-02T08:16:10.542Z</time></trkpt><trkpt lat="44.1094167" lon="11.9334117"><ele>283.6666666666667</ele><time>2026-05-02T08:16:11.541Z</time></trkpt><trkpt lat="44.1093517" lon="11.9333817"><ele>283.83333333333337</ele><time>2026-05-02T08:16:12.541Z</time></trkpt><trkpt lat="44.1092917" lon="11.933355"><ele>284.0</ele><time>2026-05-02T08:16:13.541Z</time></trkpt><trkpt lat="44.1091867" lon="11.9333267"><ele>284.0</ele><time>2026-05-02T08:16:15.541Z</time></trkpt><trkpt lat="44.1091017" lon="11.9333567"><ele>284.0</ele><time>2026-05-02T08:16:17.541Z</time></trkpt><trkpt lat="44.1092117" lon="11.933245"><ele>284.0</ele><time>2026-05-02T08:16:20.864Z</time></trkpt><trkpt lat="44.1091733" lon="11.9335717"><ele>283.0</ele><time>2026-05-02T08:16:21.872Z</time></trkpt><trkpt lat="44.1091683" lon="11.9336667"><ele>282.0</ele><time>2026-05-02T08:16:24.065Z</time></trkpt><trkpt lat="44.109195" lon="11.933755"><ele>281.0</ele><time>2026-05-02T08:16:25.565Z</time></trkpt><trkpt lat="44.10926" lon="11.9338783"><ele>280.0</ele><time>2026-05-02T08:16:27.565Z</time></trkpt><trkpt lat="44.1093683" lon="11.933995"><ele>279.0</ele><time>2026-05-02T08:16:29.565Z</time></trkpt><trkpt lat="44.1093717" lon="11.9341817"><ele>276.4</ele><time>2026-05-02T08:16:30.565Z</time></trkpt><trkpt lat="44.109515" lon="11.9342733"><ele>273.79999999999995</ele><time>2026-05-02T08:16:32.541Z</time></trkpt><trkpt lat="44.1095933" lon="11.934335"><ele>271.20000000000005</ele><time>2026-05-02T08:16:33.541Z</time></trkpt><trkpt lat="44.1096683" lon="11.9343933"><ele>268.6</ele><time>2026-05-02T08:16:34.541Z</time></trkpt><trkpt lat="44.1097433" lon="11.9344417"><ele>266.0</ele><time>2026-05-02T08:16:35.541Z</time></trkpt><trkpt lat="44.1098117" lon="11.9345"><ele>266.0</ele><time>2026-05-02T08:16:36.541Z</time></trkpt><trkpt lat="44.10988" lon="11.934555"><ele>266.0</ele><time>2026-05-02T08:16:37.541Z</time></trkpt><trkpt lat="44.1099383" lon="11.9346"><ele>266.0</ele><time>2026-05-02T08:16:38.541Z</time></trkpt><trkpt lat="44.1100017" lon="11.9346383"><ele>266.0</ele><time>2026-05-02T08:16:39.541Z</time></trkpt><trkpt lat="44.1100633" lon="11.9346683"><ele>266.0</ele><time>2026-05-02T08:16:40.541Z</time></trkpt><trkpt lat="44.110125" lon="11.934705"><ele>266.0</ele><time>2026-05-02T08:16:41.541Z</time></trkpt><trkpt lat="44.1101817" lon="11.9347467"><ele>266.0</ele><time>2026-05-02T08:16:42.541Z</time></trkpt><trkpt lat="44.110245" lon="11.93478"><ele>267.0</ele><time>2026-05-02T08:16:43.541Z</time></trkpt><trkpt lat="44.11031" lon="11.9348117"><ele>268.0</ele><time>2026-05-02T08:16:44.541Z</time></trkpt><trkpt lat="44.1103717" lon="11.9348417"><ele>269.0</ele><time>2026-05-02T08:16:45.541Z</time></trkpt><trkpt lat="44.1104317" lon="11.9348783"><ele>270.0</ele><time>2026-05-02T08:16:46.541Z</time></trkpt><trkpt lat="44.1104983" lon="11.934915"><ele>271.0</ele><time>2026-05-02T08:16:47.541Z</time></trkpt><trkpt lat="44.1105667" lon="11.9349583"><ele>272.0</ele><time>2026-05-02T08:16:48.541Z</time></trkpt><trkpt lat="44.1106283" lon="11.9349967"><ele>273.0</ele><time>2026-05-02T08:16:49.541Z</time></trkpt><trkpt lat="44.1106933" lon="11.9350267"><ele>271.85714285714283</ele><time>2026-05-02T08:16:50.541Z</time></trkpt><trkpt lat="44.1107533" lon="11.9350567"><ele>270.7142857142857</ele><time>2026-05-02T08:16:51.541Z</time></trkpt><trkpt lat="44.1108167" lon="11.9351017"><ele>269.57142857142856</ele><time>2026-05-02T08:16:52.541Z</time></trkpt><trkpt lat="44.11088" lon="11.935145"><ele>268.42857142857144</ele><time>2026-05-02T08:16:53.541Z</time></trkpt><trkpt lat="44.1109417" lon="11.935185"><ele>267.2857142857143</ele><time>2026-05-02T08:16:54.541Z</time></trkpt><trkpt lat="44.1110083" lon="11.9352233"><ele>266.1428571428571</ele><time>2026-05-02T08:16:55.541Z</time></trkpt><trkpt lat="44.1110733" lon="11.935255"><ele>265.0</ele><time>2026-05-02T08:16:56.542Z</time></trkpt><trkpt lat="44.1111417" lon="11.9352867"><ele>265.0</ele><time>2026-05-02T08:16:57.541Z</time></trkpt><trkpt lat="44.1112067" lon="11.9353217"><ele>265.0</ele><time>2026-05-02T08:16:58.541Z</time></trkpt><trkpt lat="44.111265" lon="11.9353583"><ele>265.0</ele><time>2026-05-02T08:16:59.541Z</time></trkpt><trkpt lat="44.1113317" lon="11.9353967"><ele>265.0</ele><time>2026-05-02T08:17:00.541Z</time></trkpt><trkpt lat="44.1114" lon="11.9354417"><ele>265.0</ele><time>2026-05-02T08:17:01.541Z</time></trkpt><trkpt lat="44.111455" lon="11.9354867"><ele>265.0</ele><time>2026-05-02T08:17:02.541Z</time></trkpt><trkpt lat="44.1115483" lon="11.9355817"><ele>265.0</ele><time>2026-05-02T08:17:04.541Z</time></trkpt><trkpt lat="44.11162" lon="11.9357067"><ele>265.0</ele><time>2026-05-02T08:17:06.541Z</time></trkpt><trkpt lat="44.1116417" lon="11.93579"><ele>265.0</ele><time>2026-05-02T08:17:07.541Z</time></trkpt><trkpt lat="44.1116183" lon="11.935955"><ele>265.0</ele><time>2026-05-02T08:17:09.541Z</time></trkpt><trkpt lat="44.1115367" lon="11.9360717"><ele>265.0</ele><time>2026-05-02T08:17:11.541Z</time></trkpt><trkpt lat="44.1114767" lon="11.9361017"><ele>262.6</ele><time>2026-05-02T08:17:12.541Z</time></trkpt><trkpt lat="44.1114083" lon="11.93611"><ele>260.2</ele><time>2026-05-02T08:17:13.541Z</time></trkpt><trkpt lat="44.1112883" lon="11.9361183"><ele>257.8</ele><time>2026-05-02T08:17:15.541Z</time></trkpt><trkpt lat="44.1111683" lon="11.936105"><ele>255.4</ele><time>2026-05-02T08:17:17.541Z</time></trkpt><trkpt lat="44.1110483" lon="11.936085"><ele>253.0</ele><time>2026-05-02T08:17:19.541Z</time></trkpt><trkpt lat="44.1109833" lon="11.9360717"><ele>253.00000000000003</ele><time>2026-05-02T08:17:20.541Z</time></trkpt><trkpt lat="44.1109133" lon="11.936055"><ele>253.0</ele><time>2026-05-02T08:17:21.541Z</time></trkpt><trkpt lat="44.1108433" lon="11.9360433"><ele>253.00000000000003</ele><time>2026-05-02T08:17:22.541Z</time></trkpt><trkpt lat="44.1107683" lon="11.9360333"><ele>253.00000000000003</ele><time>2026-05-02T08:17:23.541Z</time></trkpt><trkpt lat="44.110695" lon="11.9360233"><ele>253.0</ele><time>2026-05-02T08:17:24.541Z</time></trkpt><trkpt lat="44.1106217" lon="11.9360083"><ele>253.00000000000003</ele><time>2026-05-02T08:17:25.542Z</time></trkpt><trkpt lat="44.1105483" lon="11.9359983"><ele>253.00000000000003</ele><time>2026-05-02T08:17:26.541Z</time></trkpt><trkpt lat="44.11048" lon="11.9359867"><ele>252.00000000000003</ele><time>2026-05-02T08:17:27.541Z</time></trkpt><trkpt lat="44.11041" lon="11.9359733"><ele>251.0</ele><time>2026-05-02T08:17:28.541Z</time></trkpt><trkpt lat="44.1103383" lon="11.93597"><ele>250.00000000000003</ele><time>2026-05-02T08:17:29.541Z</time></trkpt><trkpt lat="44.1102617" lon="11.935955"><ele>249.00000000000003</ele><time>2026-05-02T08:17:30.541Z</time></trkpt><trkpt lat="44.110185" lon="11.93595"><ele>248.0</ele><time>2026-05-02T08:17:31.541Z</time></trkpt><trkpt lat="44.11011" lon="11.935945"><ele>247.00000000000003</ele><time>2026-05-02T08:17:32.541Z</time></trkpt><trkpt lat="44.110035" lon="11.9359517"><ele>246.00000000000003</ele><time>2026-05-02T08:17:33.541Z</time></trkpt><trkpt lat="44.1099633" lon="11.9359633"><ele>245.8571428571429</ele><time>2026-05-02T08:17:34.541Z</time></trkpt><trkpt lat="44.1098933" lon="11.9359767"><ele>245.71428571428572</ele><time>2026-05-02T08:17:35.541Z</time></trkpt><trkpt lat="44.1098233" lon="11.9359967"><ele>245.57142857142858</ele><time>2026-05-02T08:17:36.541Z</time></trkpt><trkpt lat="44.1097533" lon="11.936025"><ele>245.42857142857144</ele><time>2026-05-02T08:17:37.541Z</time></trkpt><trkpt lat="44.109685" lon="11.936055"><ele>245.28571428571428</ele><time>2026-05-02T08:17:38.541Z</time></trkpt><trkpt lat="44.1096117" lon="11.9360833"><ele>245.14285714285714</ele><time>2026-05-02T08:17:39.541Z</time></trkpt><trkpt lat="44.1095417" lon="11.936115"><ele>245.0</ele><time>2026-05-02T08:17:40.542Z</time></trkpt><trkpt lat="44.1094667" lon="11.93613"><ele>245.0</ele><time>2026-05-02T08:17:41.541Z</time></trkpt><trkpt lat="44.109395" lon="11.9361317"><ele>245.0</ele><time>2026-05-02T08:17:42.541Z</time></trkpt><trkpt lat="44.1093267" lon="11.9361133"><ele>245.0</ele><time>2026-05-02T08:17:43.541Z</time></trkpt><trkpt lat="44.109265" lon="11.9360717"><ele>245.0</ele><time>2026-05-02T08:17:44.541Z</time></trkpt><trkpt lat="44.1092133" lon="11.9360133"><ele>245.0</ele><time>2026-05-02T08:17:45.541Z</time></trkpt><trkpt lat="44.1091683" lon="11.9359483"><ele>245.0</ele><time>2026-05-02T08:17:46.541Z</time></trkpt><trkpt lat="44.109125" lon="11.93588"><ele>245.0</ele><time>2026-05-02T08:17:47.541Z</time></trkpt><trkpt lat="44.1090417" lon="11.9357367"><ele>244.28571428571428</ele><time>2026-05-02T08:17:49.541Z</time></trkpt><trkpt lat="44.1090067" lon="11.9356617"><ele>243.57142857142856</ele><time>2026-05-02T08:17:50.541Z</time></trkpt><trkpt lat="44.10896" lon="11.93559"><ele>242.85714285714286</ele><time>2026-05-02T08:17:51.541Z</time></trkpt><trkpt lat="44.1089117" lon="11.9355233"><ele>242.14285714285714</ele><time>2026-05-02T08:17:52.541Z</time></trkpt><trkpt lat="44.1088617" lon="11.93546"><ele>241.42857142857142</ele><time>2026-05-02T08:17:53.541Z</time></trkpt><trkpt lat="44.1088083" lon="11.9353983"><ele>240.71428571428572</ele><time>2026-05-02T08:17:54.541Z</time></trkpt><trkpt lat="44.10875" lon="11.9353433"><ele>240.0</ele><time>2026-05-02T08:17:55.541Z</time></trkpt><trkpt lat="44.108695" lon="11.9353"><ele>240.0</ele><time>2026-05-02T08:17:56.541Z</time></trkpt><trkpt lat="44.108585" lon="11.935275"><ele>240.0</ele><time>2026-05-02T08:17:58.541Z</time></trkpt><trkpt lat="44.108495" lon="11.9353667"><ele>240.0</ele><time>2026-05-02T08:18:00.541Z</time></trkpt><trkpt lat="44.108485" lon="11.93555"><ele>240.0</ele><time>2026-05-02T08:18:02.541Z</time></trkpt><trkpt lat="44.1085017" lon="11.9356533"><ele>240.0</ele><time>2026-05-02T08:18:03.541Z</time></trkpt><trkpt lat="44.1085267" lon="11.9357583"><ele>240.0</ele><time>2026-05-02T08:18:04.541Z</time></trkpt><trkpt lat="44.1085483" lon="11.9358683"><ele>240.0</ele><time>2026-05-02T08:18:05.541Z</time></trkpt><trkpt lat="44.10857" lon="11.9359817"><ele>240.0</ele><time>2026-05-02T08:18:06.541Z</time></trkpt><trkpt lat="44.1085833" lon="11.936095"><ele>240.0</ele><time>2026-05-02T08:18:07.541Z</time></trkpt><trkpt lat="44.1086" lon="11.9362083"><ele>240.0</ele><time>2026-05-02T08:18:08.541Z</time></trkpt><trkpt lat="44.1086167" lon="11.9363167"><ele>240.0</ele><time>2026-05-02T08:18:09.541Z</time></trkpt><trkpt lat="44.10864" lon="11.93643"><ele>238.5</ele><time>2026-05-02T08:18:10.541Z</time></trkpt><trkpt lat="44.1086733" lon="11.9365333"><ele>237.0</ele><time>2026-05-02T08:18:11.541Z</time></trkpt><trkpt lat="44.108715" lon="11.9366333"><ele>235.5</ele><time>2026-05-02T08:18:12.541Z</time></trkpt><trkpt lat="44.1087733" lon="11.93672"><ele>234.0</ele><time>2026-05-02T08:18:13.541Z</time></trkpt><trkpt lat="44.10884" lon="11.9368"><ele>232.5</ele><time>2026-05-02T08:18:14.541Z</time></trkpt><trkpt lat="44.1089083" lon="11.9368683"><ele>231.0</ele><time>2026-05-02T08:18:15.541Z</time></trkpt><trkpt lat="44.10898" lon="11.9369283"><ele>230.8</ele><time>2026-05-02T08:18:16.541Z</time></trkpt><trkpt lat="44.10906" lon="11.936975"><ele>230.60000000000002</ele><time>2026-05-02T08:18:17.541Z</time></trkpt><trkpt lat="44.10915" lon="11.9370017"><ele>230.4</ele><time>2026-05-02T08:18:18.541Z</time></trkpt><trkpt lat="44.109245" lon="11.93702"><ele>230.2</ele><time>2026-05-02T08:18:19.541Z</time></trkpt><trkpt lat="44.1093417" lon="11.937035"><ele>230.0</ele><time>2026-05-02T08:18:20.541Z</time></trkpt><trkpt lat="44.1094383" lon="11.937065"><ele>230.0</ele><time>2026-05-02T08:18:21.541Z</time></trkpt><trkpt lat="44.1095433" lon="11.93709"><ele>230.0</ele><time>2026-05-02T08:18:22.541Z</time></trkpt><trkpt lat="44.10964" lon="11.93712"><ele>230.0</ele><time>2026-05-02T08:18:23.541Z</time></trkpt><trkpt lat="44.109745" lon="11.9371433"><ele>230.0</ele><time>2026-05-02T08:18:24.541Z</time></trkpt><trkpt lat="44.109845" lon="11.937175"><ele>230.0</ele><time>2026-05-02T08:18:25.541Z</time></trkpt><trkpt lat="44.1099417" lon="11.9372117"><ele>230.00000000000003</ele><time>2026-05-02T08:18:26.541Z</time></trkpt><trkpt lat="44.110025" lon="11.93726"><ele>230.0</ele><time>2026-05-02T08:18:27.541Z</time></trkpt><trkpt lat="44.110105" lon="11.93732"><ele>230.0</ele><time>2026-05-02T08:18:28.541Z</time></trkpt><trkpt lat="44.1101867" lon="11.937385"><ele>230.0</ele><time>2026-05-02T08:18:29.541Z</time></trkpt><trkpt lat="44.11026" lon="11.937455"><ele>230.00000000000003</ele><time>2026-05-02T08:18:30.541Z</time></trkpt><trkpt lat="44.110315" lon="11.9375417"><ele>230.0</ele><time>2026-05-02T08:18:31.541Z</time></trkpt><trkpt lat="44.11036" lon="11.9376433"><ele>227.83333333333334</ele><time>2026-05-02T08:18:32.542Z</time></trkpt><trkpt lat="44.1104067" lon="11.9377433"><ele>225.66666666666669</ele><time>2026-05-02T08:18:33.541Z</time></trkpt><trkpt lat="44.1104517" lon="11.93784"><ele>223.5</ele><time>2026-05-02T08:18:34.541Z</time></trkpt><trkpt lat="44.110495" lon="11.93793"><ele>221.33333333333331</ele><time>2026-05-02T08:18:35.541Z</time></trkpt><trkpt lat="44.1105383" lon="11.93801"><ele>219.16666666666666</ele><time>2026-05-02T08:18:36.541Z</time></trkpt><trkpt lat="44.1105833" lon="11.9380933"><ele>217.0</ele><time>2026-05-02T08:18:37.541Z</time></trkpt><trkpt lat="44.1106283" lon="11.93816"><ele>216.99999999999997</ele><time>2026-05-02T08:18:38.541Z</time></trkpt><trkpt lat="44.11068" lon="11.9382133"><ele>217.0</ele><time>2026-05-02T08:18:39.541Z</time></trkpt><trkpt lat="44.1107933" lon="11.9382867"><ele>217.0</ele><time>2026-05-02T08:18:41.541Z</time></trkpt><trkpt lat="44.1108567" lon="11.9383117"><ele>217.0</ele><time>2026-05-02T08:18:42.541Z</time></trkpt><trkpt lat="44.1109183" lon="11.93833"><ele>216.99999999999997</ele><time>2026-05-02T08:18:43.541Z</time></trkpt><trkpt lat="44.110985" lon="11.938335"><ele>217.0</ele><time>2026-05-02T08:18:44.541Z</time></trkpt><trkpt lat="44.1110583" lon="11.9383317"><ele>217.57142857142858</ele><time>2026-05-02T08:18:45.541Z</time></trkpt><trkpt lat="44.1111317" lon="11.93832"><ele>218.14285714285714</ele><time>2026-05-02T08:18:46.541Z</time></trkpt><trkpt lat="44.111205" lon="11.9383183"><ele>218.71428571428572</ele><time>2026-05-02T08:18:47.542Z</time></trkpt><trkpt lat="44.111275" lon="11.938315"><ele>219.28571428571428</ele><time>2026-05-02T08:18:48.541Z</time></trkpt><trkpt lat="44.11135" lon="11.9383033"><ele>219.85714285714286</ele><time>2026-05-02T08:18:49.541Z</time></trkpt><trkpt lat="44.1114233" lon="11.9382917"><ele>220.42857142857144</ele><time>2026-05-02T08:18:50.541Z</time></trkpt><trkpt lat="44.111495" lon="11.9382833"><ele>221.0</ele><time>2026-05-02T08:18:51.541Z</time></trkpt><trkpt lat="44.111575" lon="11.9382733"><ele>221.16666666666669</ele><time>2026-05-02T08:18:52.542Z</time></trkpt><trkpt lat="44.1116567" lon="11.9382583"><ele>221.33333333333334</ele><time>2026-05-02T08:18:53.541Z</time></trkpt><trkpt lat="44.111735" lon="11.9382383"><ele>221.5</ele><time>2026-05-02T08:18:54.541Z</time></trkpt><trkpt lat="44.1118117" lon="11.9382217"><ele>221.66666666666669</ele><time>2026-05-02T08:18:55.541Z</time></trkpt><trkpt lat="44.1118917" lon="11.938195"><ele>221.83333333333334</ele><time>2026-05-02T08:18:56.541Z</time></trkpt><trkpt lat="44.1119683" lon="11.9381767"><ele>222.0</ele><time>2026-05-02T08:18:57.541Z</time></trkpt><trkpt lat="44.1120433" lon="11.9381667"><ele>222.0</ele><time>2026-05-02T08:18:58.541Z</time></trkpt><trkpt lat="44.11211" lon="11.9381567"><ele>222.0</ele><time>2026-05-02T08:18:59.541Z</time></trkpt><trkpt lat="44.11223" lon="11.9381267"><ele>222.0</ele><time>2026-05-02T08:19:01.541Z</time></trkpt><trkpt lat="44.1123317" lon="11.9381133"><ele>222.0</ele><time>2026-05-02T08:19:03.541Z</time></trkpt><trkpt lat="44.1124267" lon="11.93812"><ele>222.0</ele><time>2026-05-02T08:19:05.541Z</time></trkpt><trkpt lat="44.11252" lon="11.9381483"><ele>220.16666666666666</ele><time>2026-05-02T08:19:07.541Z</time></trkpt><trkpt lat="44.11262" lon="11.9381667"><ele>218.33333333333331</ele><time>2026-05-02T08:19:09.541Z</time></trkpt><trkpt lat="44.112715" lon="11.9381567"><ele>216.5</ele><time>2026-05-02T08:19:11.541Z</time></trkpt><trkpt lat="44.1127867" lon="11.9381217"><ele>214.66666666666666</ele><time>2026-05-02T08:19:13.541Z</time></trkpt><trkpt lat="44.1128683" lon="11.9380817"><ele>212.83333333333331</ele><time>2026-05-02T08:19:16.541Z</time></trkpt><trkpt lat="44.1129333" lon="11.9380483"><ele>211.0</ele><time>2026-05-02T08:19:19.541Z</time></trkpt><trkpt lat="44.112985" lon="11.9379933"><ele>211.0</ele><time>2026-05-02T08:19:22.541Z</time></trkpt><trkpt lat="44.1130467" lon="11.9379567"><ele>211.0</ele><time>2026-05-02T08:19:26.542Z</time></trkpt><trkpt lat="44.1131533" lon="11.9377833"><ele>211.0</ele><time>2026-05-02T08:19:28.828Z</time></trkpt><trkpt lat="44.1131" lon="11.937875"><ele>211.0</ele><time>2026-05-02T08:19:31.54Z</time></trkpt><trkpt lat="44.113165" lon="11.9378667"><ele>211.0</ele><time>2026-05-02T08:19:34.54Z</time></trkpt><trkpt lat="44.1132267" lon="11.93782"><ele>210.33333333333331</ele><time>2026-05-02T08:19:37.54Z</time></trkpt><trkpt lat="44.1132983" lon="11.93777"><ele>209.66666666666666</ele><time>2026-05-02T08:19:41.54Z</time></trkpt><trkpt lat="44.1133633" lon="11.9377067"><ele>209.0</ele><time>2026-05-02T08:19:45.54Z</time></trkpt><trkpt lat="44.1134317" lon="11.937655"><ele>208.33333333333331</ele><time>2026-05-02T08:19:49.54Z</time></trkpt><trkpt lat="44.113495" lon="11.9375967"><ele>207.66666666666666</ele><time>2026-05-02T08:19:53.54Z</time></trkpt><trkpt lat="44.1135483" lon="11.9375317"><ele>207.0</ele><time>2026-05-02T08:19:57.54Z</time></trkpt><trkpt lat="44.1136067" lon="11.9374683"><ele>209.42857142857144</ele><time>2026-05-02T08:20:01.54Z</time></trkpt><trkpt lat="44.1136667" lon="11.9374033"><ele>211.85714285714286</ele><time>2026-05-02T08:20:05.54Z</time></trkpt><trkpt lat="44.1137317" lon="11.9373367"><ele>214.28571428571428</ele><time>2026-05-02T08:20:09.54Z</time></trkpt><trkpt lat="44.1137767" lon="11.9372633"><ele>216.71428571428572</ele><time>2026-05-02T08:20:13.54Z</time></trkpt><trkpt lat="44.1138217" lon="11.9371983"><ele>219.14285714285714</ele><time>2026-05-02T08:20:16.54Z</time></trkpt><trkpt lat="44.1138733" lon="11.93713"><ele>221.57142857142858</ele><time>2026-05-02T08:20:19.54Z</time></trkpt><trkpt lat="44.1139217" lon="11.9370633"><ele>224.0</ele><time>2026-05-02T08:20:22.54Z</time></trkpt><trkpt lat="44.113965" lon="11.936985"><ele>224.0</ele><time>2026-05-02T08:20:25.54Z</time></trkpt><trkpt lat="44.114015" lon="11.9368917"><ele>224.0</ele><time>2026-05-02T08:20:29.54Z</time></trkpt><trkpt lat="44.1140617" lon="11.9368167"><ele>224.0</ele><time>2026-05-02T08:20:32.54Z</time></trkpt><trkpt lat="44.1141067" lon="11.9367533"><ele>224.0</ele><time>2026-05-02T08:20:35.54Z</time></trkpt><trkpt lat="44.1141567" lon="11.9366517"><ele>224.0</ele><time>2026-05-02T08:20:39.54Z</time></trkpt><trkpt lat="44.1141983" lon="11.936575"><ele>224.0</ele><time>2026-05-02T08:20:42.54Z</time></trkpt><trkpt lat="44.1142267" lon="11.9364867"><ele>224.0</ele><time>2026-05-02T08:20:45.54Z</time></trkpt><trkpt lat="44.1142483" lon="11.93639"><ele>225.0</ele><time>2026-05-02T08:20:49.54Z</time></trkpt><trkpt lat="44.1142667" lon="11.9362967"><ele>226.0</ele><time>2026-05-02T08:20:53.54Z</time></trkpt><trkpt lat="44.1142917" lon="11.9361867"><ele>227.0</ele><time>2026-05-02T08:20:57.54Z</time></trkpt><trkpt lat="44.114305" lon="11.936095"><ele>228.0</ele><time>2026-05-02T08:21:00.54Z</time></trkpt><trkpt lat="44.114315" lon="11.936005"><ele>229.0</ele><time>2026-05-02T08:21:03.54Z</time></trkpt><trkpt lat="44.1143333" lon="11.9359117"><ele>230.0</ele><time>2026-05-02T08:21:06.54Z</time></trkpt><trkpt lat="44.1143583" lon="11.935815"><ele>231.0</ele><time>2026-05-02T08:21:09.54Z</time></trkpt><trkpt lat="44.1144" lon="11.9357283"><ele>233.83333333333334</ele><time>2026-05-02T08:21:12.54Z</time></trkpt><trkpt lat="44.114465" lon="11.9356933"><ele>236.66666666666669</ele><time>2026-05-02T08:21:15.54Z</time></trkpt><trkpt lat="44.1145483" lon="11.9356717"><ele>239.5</ele><time>2026-05-02T08:21:18.54Z</time></trkpt><trkpt lat="44.11462" lon="11.9356617"><ele>242.33333333333334</ele><time>2026-05-02T08:21:21.54Z</time></trkpt><trkpt lat="44.11471" lon="11.93569"><ele>245.16666666666669</ele><time>2026-05-02T08:21:24.54Z</time></trkpt><trkpt lat="44.1147783" lon="11.9357067"><ele>248.0</ele><time>2026-05-02T08:21:26.54Z</time></trkpt><trkpt lat="44.1148433" lon="11.9357317"><ele>245.66666666666669</ele><time>2026-05-02T08:21:28.54Z</time></trkpt><trkpt lat="44.1149167" lon="11.93577"><ele>243.33333333333334</ele><time>2026-05-02T08:21:30.54Z</time></trkpt><trkpt lat="44.1149833" lon="11.9358"><ele>241.0</ele><time>2026-05-02T08:21:32.54Z</time></trkpt><trkpt lat="44.11505" lon="11.9358317"><ele>238.66666666666669</ele><time>2026-05-02T08:21:34.54Z</time></trkpt><trkpt lat="44.1151283" lon="11.9358817"><ele>236.33333333333334</ele><time>2026-05-02T08:21:36.541Z</time></trkpt><trkpt lat="44.1152033" lon="11.9359267"><ele>234.0</ele><time>2026-05-02T08:21:38.54Z</time></trkpt><trkpt lat="44.11528" lon="11.9359767"><ele>232.83333333333334</ele><time>2026-05-02T08:21:40.54Z</time></trkpt><trkpt lat="44.11536" lon="11.9360217"><ele>231.66666666666669</ele><time>2026-05-02T08:21:42.54Z</time></trkpt><trkpt lat="44.1154383" lon="11.9360733"><ele>230.5</ele><time>2026-05-02T08:21:44.54Z</time></trkpt><trkpt lat="44.115515" lon="11.93612"><ele>229.33333333333334</ele><time>2026-05-02T08:21:46.54Z</time></trkpt><trkpt lat="44.115595" lon="11.9361667"><ele>228.16666666666669</ele><time>2026-05-02T08:21:48.54Z</time></trkpt><trkpt lat="44.1156783" lon="11.9362167"><ele>227.0</ele><time>2026-05-02T08:21:50.54Z</time></trkpt><trkpt lat="44.1157617" lon="11.9362567"><ele>227.00000000000003</ele><time>2026-05-02T08:21:52.54Z</time></trkpt><trkpt lat="44.1158433" lon="11.9363033"><ele>227.0</ele><time>2026-05-02T08:21:54.54Z</time></trkpt><trkpt lat="44.11592" lon="11.9363483"><ele>227.0</ele><time>2026-05-02T08:21:56.54Z</time></trkpt><trkpt lat="44.1159983" lon="11.9363917"><ele>227.0</ele><time>2026-05-02T08:21:58.54Z</time></trkpt><trkpt lat="44.116075" lon="11.936435"><ele>227.00000000000003</ele><time>2026-05-02T08:22:00.54Z</time></trkpt><trkpt lat="44.1161583" lon="11.9364767"><ele>227.0</ele><time>2026-05-02T08:22:02.54Z</time></trkpt><trkpt lat="44.1162433" lon="11.9365017"><ele>227.0</ele><time>2026-05-02T08:22:04.54Z</time></trkpt><trkpt lat="44.1163467" lon="11.9365183"><ele>227.0</ele><time>2026-05-02T08:22:06.54Z</time></trkpt><trkpt lat="44.1164517" lon="11.9365067"><ele>227.0</ele><time>2026-05-02T08:22:08.54Z</time></trkpt><trkpt lat="44.116555" lon="11.9364733"><ele>227.0</ele><time>2026-05-02T08:22:10.54Z</time></trkpt><trkpt lat="44.1166517" lon="11.93641"><ele>227.0</ele><time>2026-05-02T08:22:12.54Z</time></trkpt><trkpt lat="44.1167567" lon="11.936325"><ele>226.50000000000003</ele><time>2026-05-02T08:22:14.54Z</time></trkpt><trkpt lat="44.11681" lon="11.9362767"><ele>226.0</ele><time>2026-05-02T08:22:15.54Z</time></trkpt><trkpt lat="44.1169233" lon="11.9361883"><ele>225.5</ele><time>2026-05-02T08:22:17.54Z</time></trkpt><trkpt lat="44.1169867" lon="11.9361483"><ele>225.0</ele><time>2026-05-02T08:22:18.54Z</time></trkpt><trkpt lat="44.11705" lon="11.9361117"><ele>224.50000000000003</ele><time>2026-05-02T08:22:19.54Z</time></trkpt><trkpt lat="44.11711" lon="11.9360767"><ele>224.0</ele><time>2026-05-02T08:22:20.54Z</time></trkpt><trkpt lat="44.1171683" lon="11.936035"><ele>224.0</ele><time>2026-05-02T08:22:21.54Z</time></trkpt><trkpt lat="44.1172283" lon="11.9359767"><ele>224.0</ele><time>2026-05-02T08:22:22.54Z</time></trkpt><trkpt lat="44.1172833" lon="11.9359117"><ele>224.0</ele><time>2026-05-02T08:22:23.54Z</time></trkpt><trkpt lat="44.11732" lon="11.935835"><ele>224.0</ele><time>2026-05-02T08:22:24.54Z</time></trkpt><trkpt lat="44.117355" lon="11.935745"><ele>224.0</ele><time>2026-05-02T08:22:25.54Z</time></trkpt><trkpt lat="44.1173917" lon="11.93564"><ele>224.0</ele><time>2026-05-02T08:22:26.54Z</time></trkpt><trkpt lat="44.11742" lon="11.9355483"><ele>224.0</ele><time>2026-05-02T08:22:27.54Z</time></trkpt><trkpt lat="44.117455" lon="11.93545"><ele>223.83333333333334</ele><time>2026-05-02T08:22:28.54Z</time></trkpt><trkpt lat="44.11749" lon="11.9353583"><ele>223.66666666666669</ele><time>2026-05-02T08:22:29.54Z</time></trkpt><trkpt lat="44.1175267" lon="11.93527"><ele>223.5</ele><time>2026-05-02T08:22:30.54Z</time></trkpt><trkpt lat="44.1175733" lon="11.9352017"><ele>223.33333333333331</ele><time>2026-05-02T08:22:31.54Z</time></trkpt><trkpt lat="44.1176783" lon="11.93514"><ele>223.16666666666666</ele><time>2026-05-02T08:22:33.54Z</time></trkpt><trkpt lat="44.1177483" lon="11.9351467"><ele>223.0</ele><time>2026-05-02T08:22:34.54Z</time></trkpt><trkpt lat="44.1178183" lon="11.9351733"><ele>223.0</ele><time>2026-05-02T08:22:35.54Z</time></trkpt><trkpt lat="44.1178833" lon="11.9352083"><ele>223.0</ele><time>2026-05-02T08:22:36.54Z</time></trkpt><trkpt lat="44.117995" lon="11.9352667"><ele>223.0</ele><time>2026-05-02T08:22:38.54Z</time></trkpt><trkpt lat="44.1180967" lon="11.935295"><ele>223.0</ele><time>2026-05-02T08:22:40.54Z</time></trkpt><trkpt lat="44.1181967" lon="11.9353"><ele>223.0</ele><time>2026-05-02T08:22:42.54Z</time></trkpt><trkpt lat="44.1183033" lon="11.9352483"><ele>222.16666666666666</ele><time>2026-05-02T08:22:44.54Z</time></trkpt><trkpt lat="44.1183583" lon="11.9351983"><ele>221.33333333333331</ele><time>2026-05-02T08:22:45.54Z</time></trkpt><trkpt lat="44.1184133" lon="11.9351433"><ele>220.5</ele><time>2026-05-02T08:22:46.54Z</time></trkpt><trkpt lat="44.1185183" lon="11.9350467"><ele>219.66666666666669</ele><time>2026-05-02T08:22:48.54Z</time></trkpt><trkpt lat="44.1185717" lon="11.9349983"><ele>218.83333333333334</ele><time>2026-05-02T08:22:49.54Z</time></trkpt><trkpt lat="44.11867" lon="11.934905"><ele>218.0</ele><time>2026-05-02T08:22:51.54Z</time></trkpt><trkpt lat="44.1187683" lon="11.93481"><ele>218.0</ele><time>2026-05-02T08:22:53.54Z</time></trkpt><trkpt lat="44.11886" lon="11.9347333"><ele>218.0</ele><time>2026-05-02T08:22:55.54Z</time></trkpt><trkpt lat="44.1189383" lon="11.9346483"><ele>218.0</ele><time>2026-05-02T08:22:57.54Z</time></trkpt><trkpt lat="44.1190067" lon="11.9345433"><ele>218.0</ele><time>2026-05-02T08:22:59.54Z</time></trkpt><trkpt lat="44.11906" lon="11.9344117"><ele>218.0</ele><time>2026-05-02T08:23:01.54Z</time></trkpt><trkpt lat="44.119055" lon="11.9342733"><ele>219.0</ele><time>2026-05-02T08:23:03.54Z</time></trkpt><trkpt lat="44.11903" lon="11.9341167"><ele>220.0</ele><time>2026-05-02T08:23:05.54Z</time></trkpt><trkpt lat="44.1190217" lon="11.9340283"><ele>221.0</ele><time>2026-05-02T08:23:06.54Z</time></trkpt><trkpt lat="44.119015" lon="11.9339383"><ele>222.0</ele><time>2026-05-02T08:23:07.54Z</time></trkpt><trkpt lat="44.11901" lon="11.93385"><ele>223.0</ele><time>2026-05-02T08:23:08.541Z</time></trkpt><trkpt lat="44.1190133" lon="11.9337567"><ele>224.00000000000003</ele><time>2026-05-02T08:23:09.54Z</time></trkpt><trkpt lat="44.119015" lon="11.9336583"><ele>225.00000000000003</ele><time>2026-05-02T08:23:10.54Z</time></trkpt><trkpt lat="44.11901" lon="11.9335583"><ele>225.0</ele><time>2026-05-02T08:23:11.54Z</time></trkpt><trkpt lat="44.1189983" lon="11.9334533"><ele>225.0</ele><time>2026-05-02T08:23:12.54Z</time></trkpt><trkpt lat="44.1189783" lon="11.93335"><ele>225.0</ele><time>2026-05-02T08:23:13.54Z</time></trkpt><trkpt lat="44.11896" lon="11.9332517"><ele>225.0</ele><time>2026-05-02T08:23:14.54Z</time></trkpt><trkpt lat="44.1189417" lon="11.9331517"><ele>225.0</ele><time>2026-05-02T08:23:15.54Z</time></trkpt><trkpt lat="44.1189167" lon="11.9330567"><ele>225.0</ele><time>2026-05-02T08:23:16.541Z</time></trkpt><trkpt lat="44.1188717" lon="11.9329083"><ele>225.66666666666666</ele><time>2026-05-02T08:23:18.54Z</time></trkpt><trkpt lat="44.11887" lon="11.93278"><ele>226.33333333333331</ele><time>2026-05-02T08:23:20.54Z</time></trkpt><trkpt lat="44.1189233" lon="11.9326933"><ele>227.0</ele><time>2026-05-02T08:23:22.54Z</time></trkpt><trkpt lat="44.1189917" lon="11.932615"><ele>227.66666666666666</ele><time>2026-05-02T08:23:24.54Z</time></trkpt><trkpt lat="44.1190667" lon="11.93255"><ele>228.33333333333331</ele><time>2026-05-02T08:23:26.54Z</time></trkpt><trkpt lat="44.1191467" lon="11.9325267"><ele>229.0</ele><time>2026-05-02T08:23:28.54Z</time></trkpt><trkpt lat="44.1192317" lon="11.93255"><ele>225.16666666666666</ele><time>2026-05-02T08:23:30.54Z</time></trkpt><trkpt lat="44.1193183" lon="11.9325967"><ele>221.33333333333331</ele><time>2026-05-02T08:23:32.54Z</time></trkpt><trkpt lat="44.1194" lon="11.932645"><ele>217.5</ele><time>2026-05-02T08:23:34.54Z</time></trkpt><trkpt lat="44.119485" lon="11.9326583"><ele>213.66666666666669</ele><time>2026-05-02T08:23:36.54Z</time></trkpt><trkpt lat="44.1195667" lon="11.932635"><ele>209.83333333333334</ele><time>2026-05-02T08:23:38.54Z</time></trkpt><trkpt lat="44.1196467" lon="11.93258"><ele>206.0</ele><time>2026-05-02T08:23:40.54Z</time></trkpt><trkpt lat="44.11972" lon="11.9325317"><ele>206.00000000000003</ele><time>2026-05-02T08:23:42.54Z</time></trkpt><trkpt lat="44.11979" lon="11.9324633"><ele>206.0</ele><time>2026-05-02T08:23:44.54Z</time></trkpt><trkpt lat="44.1198517" lon="11.932405"><ele>206.0</ele><time>2026-05-02T08:23:46.54Z</time></trkpt><trkpt lat="44.11991" lon="11.9323467"><ele>206.0</ele><time>2026-05-02T08:23:48.54Z</time></trkpt><trkpt lat="44.1199683" lon="11.9323033"><ele>206.00000000000003</ele><time>2026-05-02T08:23:50.54Z</time></trkpt><trkpt lat="44.1200467" lon="11.9322283"><ele>206.0</ele><time>2026-05-02T08:23:53.54Z</time></trkpt><trkpt lat="44.1201233" lon="11.932175"><ele>205.83333333333334</ele><time>2026-05-02T08:23:56.54Z</time></trkpt><trkpt lat="44.1201733" lon="11.9321183"><ele>205.66666666666669</ele><time>2026-05-02T08:23:58.54Z</time></trkpt><trkpt lat="44.120245" lon="11.9320433"><ele>205.5</ele><time>2026-05-02T08:24:01.541Z</time></trkpt><trkpt lat="44.12032" lon="11.9319717"><ele>205.33333333333331</ele><time>2026-05-02T08:24:04.54Z</time></trkpt><trkpt lat="44.1203967" lon="11.931905"><ele>205.16666666666666</ele><time>2026-05-02T08:24:07.541Z</time></trkpt><trkpt lat="44.12047" lon="11.9318333"><ele>205.0</ele><time>2026-05-02T08:24:10.54Z</time></trkpt><trkpt lat="44.1205483" lon="11.93177"><ele>205.83333333333331</ele><time>2026-05-02T08:24:13.54Z</time></trkpt><trkpt lat="44.120605" lon="11.9317183"><ele>206.66666666666666</ele><time>2026-05-02T08:24:15.54Z</time></trkpt><trkpt lat="44.1206517" lon="11.9316567"><ele>207.5</ele><time>2026-05-02T08:24:17.54Z</time></trkpt><trkpt lat="44.1206917" lon="11.9315867"><ele>208.33333333333331</ele><time>2026-05-02T08:24:19.54Z</time></trkpt><trkpt lat="44.120735" lon="11.9314683"><ele>209.16666666666666</ele><time>2026-05-02T08:24:22.54Z</time></trkpt><trkpt lat="44.12075" lon="11.9313617"><ele>210.0</ele><time>2026-05-02T08:24:25.54Z</time></trkpt><trkpt lat="44.1207617" lon="11.9312367"><ele>210.0</ele><time>2026-05-02T08:24:28.54Z</time></trkpt><trkpt lat="44.12077" lon="11.9311117"><ele>210.0</ele><time>2026-05-02T08:24:31.54Z</time></trkpt><trkpt lat="44.1207967" lon="11.9310283"><ele>210.0</ele><time>2026-05-02T08:24:33.54Z</time></trkpt><trkpt lat="44.1208533" lon="11.9309233"><ele>210.0</ele><time>2026-05-02T08:24:36.54Z</time></trkpt><trkpt lat="44.12091" lon="11.9308767"><ele>210.0</ele><time>2026-05-02T08:24:38.54Z</time></trkpt><trkpt lat="44.121" lon="11.93084"><ele>210.0</ele><time>2026-05-02T08:24:41.54Z</time></trkpt><trkpt lat="44.1210633" lon="11.9308267"><ele>211.33333333333334</ele><time>2026-05-02T08:24:43.54Z</time></trkpt><trkpt lat="44.1211317" lon="11.9308083"><ele>212.66666666666669</ele><time>2026-05-02T08:24:45.54Z</time></trkpt><trkpt lat="44.1211933" lon="11.9307767"><ele>214.0</ele><time>2026-05-02T08:24:47.54Z</time></trkpt><trkpt lat="44.1212467" lon="11.930715"><ele>215.33333333333334</ele><time>2026-05-02T08:24:49.54Z</time></trkpt><trkpt lat="44.1212867" lon="11.930595"><ele>216.66666666666669</ele><time>2026-05-02T08:24:52.54Z</time></trkpt><trkpt lat="44.1213067" lon="11.93047"><ele>218.0</ele><time>2026-05-02T08:24:55.54Z</time></trkpt><trkpt lat="44.12133" lon="11.930385"><ele>218.00000000000003</ele><time>2026-05-02T08:24:57.54Z</time></trkpt><trkpt lat="44.12136" lon="11.9303067"><ele>218.0</ele><time>2026-05-02T08:24:59.54Z</time></trkpt><trkpt lat="44.1213967" lon="11.9302317"><ele>218.0</ele><time>2026-05-02T08:25:01.54Z</time></trkpt><trkpt lat="44.121445" lon="11.9301183"><ele>218.0</ele><time>2026-05-02T08:25:04.54Z</time></trkpt><trkpt lat="44.1214717" lon="11.9300333"><ele>218.00000000000003</ele><time>2026-05-02T08:25:06.54Z</time></trkpt><trkpt lat="44.1215133" lon="11.929915"><ele>218.0</ele><time>2026-05-02T08:25:09.54Z</time></trkpt><trkpt lat="44.1215417" lon="11.9297917"><ele>218.83333333333334</ele><time>2026-05-02T08:25:12.54Z</time></trkpt><trkpt lat="44.1215633" lon="11.9297"><ele>219.66666666666669</ele><time>2026-05-02T08:25:14.54Z</time></trkpt><trkpt lat="44.1215867" lon="11.92958"><ele>220.5</ele><time>2026-05-02T08:25:17.54Z</time></trkpt><trkpt lat="44.1216" lon="11.9294533"><ele>221.33333333333331</ele><time>2026-05-02T08:25:20.54Z</time></trkpt><trkpt lat="44.1215967" lon="11.9293617"><ele>222.16666666666666</ele><time>2026-05-02T08:25:22.54Z</time></trkpt><trkpt lat="44.1215833" lon="11.929265"><ele>223.0</ele><time>2026-05-02T08:25:24.54Z</time></trkpt><trkpt lat="44.12157" lon="11.9291617"><ele>223.83333333333331</ele><time>2026-05-02T08:25:26.54Z</time></trkpt><trkpt lat="44.1215883" lon="11.9290333"><ele>224.66666666666666</ele><time>2026-05-02T08:25:29.54Z</time></trkpt><trkpt lat="44.1216433" lon="11.928945"><ele>225.5</ele><time>2026-05-02T08:25:32.54Z</time></trkpt><trkpt lat="44.121715" lon="11.92896"><ele>226.33333333333331</ele><time>2026-05-02T08:25:35.54Z</time></trkpt><trkpt lat="44.1217717" lon="11.9290067"><ele>227.16666666666666</ele><time>2026-05-02T08:25:37.54Z</time></trkpt><trkpt lat="44.1218433" lon="11.9290567"><ele>228.0</ele><time>2026-05-02T08:25:39.54Z</time></trkpt><trkpt lat="44.12192" lon="11.929115"><ele>228.0</ele><time>2026-05-02T08:25:41.54Z</time></trkpt><trkpt lat="44.122" lon="11.9291717"><ele>228.0</ele><time>2026-05-02T08:25:43.54Z</time></trkpt><trkpt lat="44.12209" lon="11.9292067"><ele>228.0</ele><time>2026-05-02T08:25:45.54Z</time></trkpt><trkpt lat="44.122185" lon="11.9292033"><ele>228.0</ele><time>2026-05-02T08:25:47.54Z</time></trkpt><trkpt lat="44.1222833" lon="11.92916"><ele>228.0</ele><time>2026-05-02T08:25:49.54Z</time></trkpt><trkpt lat="44.1223817" lon="11.9290883"><ele>226.60000000000002</ele><time>2026-05-02T08:25:51.541Z</time></trkpt><trkpt lat="44.1224783" lon="11.9289967"><ele>225.20000000000002</ele><time>2026-05-02T08:25:53.54Z</time></trkpt><trkpt lat="44.1225867" lon="11.928905"><ele>223.8</ele><time>2026-05-02T08:25:55.54Z</time></trkpt><trkpt lat="44.1226383" lon="11.9288533"><ele>222.4</ele><time>2026-05-02T08:25:56.54Z</time></trkpt><trkpt lat="44.122735" lon="11.9287517"><ele>221.0</ele><time>2026-05-02T08:25:58.54Z</time></trkpt><trkpt lat="44.1228567" lon="11.928685"><ele>221.00000000000003</ele><time>2026-05-02T08:26:00.54Z</time></trkpt><trkpt lat="44.1229683" lon="11.9287133"><ele>221.0</ele><time>2026-05-02T08:26:02.54Z</time></trkpt><trkpt lat="44.12307" lon="11.9287983"><ele>221.0</ele><time>2026-05-02T08:26:04.54Z</time></trkpt><trkpt lat="44.1231267" lon="11.928845"><ele>221.0</ele><time>2026-05-02T08:26:05.54Z</time></trkpt><trkpt lat="44.12319" lon="11.9288883"><ele>221.00000000000003</ele><time>2026-05-02T08:26:06.54Z</time></trkpt><trkpt lat="44.123255" lon="11.9289333"><ele>221.0</ele><time>2026-05-02T08:26:07.54Z</time></trkpt><trkpt lat="44.1233233" lon="11.9289633"><ele>220.16666666666669</ele><time>2026-05-02T08:26:08.54Z</time></trkpt><trkpt lat="44.1233883" lon="11.9289817"><ele>219.33333333333334</ele><time>2026-05-02T08:26:09.54Z</time></trkpt><trkpt lat="44.1234517" lon="11.9289917"><ele>218.5</ele><time>2026-05-02T08:26:10.54Z</time></trkpt><trkpt lat="44.123515" lon="11.92899"><ele>217.66666666666669</ele><time>2026-05-02T08:26:11.54Z</time></trkpt><trkpt lat="44.1236367" lon="11.928975"><ele>216.83333333333334</ele><time>2026-05-02T08:26:13.54Z</time></trkpt><trkpt lat="44.123755" lon="11.92894"><ele>216.0</ele><time>2026-05-02T08:26:15.54Z</time></trkpt><trkpt lat="44.1238517" lon="11.9288917"><ele>216.0</ele><time>2026-05-02T08:26:17.54Z</time></trkpt><trkpt lat="44.1239367" lon="11.9288383"><ele>216.0</ele><time>2026-05-02T08:26:19.54Z</time></trkpt><trkpt lat="44.1240233" lon="11.92879"><ele>216.0</ele><time>2026-05-02T08:26:21.54Z</time></trkpt><trkpt lat="44.1240967" lon="11.928735"><ele>216.0</ele><time>2026-05-02T08:26:23.54Z</time></trkpt><trkpt lat="44.1241683" lon="11.9286833"><ele>216.0</ele><time>2026-05-02T08:26:25.54Z</time></trkpt><trkpt lat="44.1242383" lon="11.9286267"><ele>216.0</ele><time>2026-05-02T08:26:27.54Z</time></trkpt><trkpt lat="44.124305" lon="11.9285717"><ele>216.0</ele><time>2026-05-02T08:26:29.54Z</time></trkpt><trkpt lat="44.1243733" lon="11.9285167"><ele>216.0</ele><time>2026-05-02T08:26:31.54Z</time></trkpt><trkpt lat="44.1244383" lon="11.928435"><ele>216.0</ele><time>2026-05-02T08:26:33.54Z</time></trkpt><trkpt lat="44.1244917" lon="11.9283533"><ele>216.0</ele><time>2026-05-02T08:26:35.54Z</time></trkpt><trkpt lat="44.1245417" lon="11.9282717"><ele>216.0</ele><time>2026-05-02T08:26:37.54Z</time></trkpt><trkpt lat="44.1245917" lon="11.9281783"><ele>216.0</ele><time>2026-05-02T08:26:39.541Z</time></trkpt><trkpt lat="44.1246533" lon="11.928115"><ele>216.5</ele><time>2026-05-02T08:26:41.54Z</time></trkpt><trkpt lat="44.1247133" lon="11.9280483"><ele>217.0</ele><time>2026-05-02T08:26:43.54Z</time></trkpt><trkpt lat="44.1247883" lon="11.92801"><ele>217.5</ele><time>2026-05-02T08:26:45.54Z</time></trkpt><trkpt lat="44.1248617" lon="11.92798"><ele>218.0</ele><time>2026-05-02T08:26:47.54Z</time></trkpt><trkpt lat="44.12494" lon="11.927955"><ele>218.5</ele><time>2026-05-02T08:26:49.54Z</time></trkpt><trkpt lat="44.1250267" lon="11.927915"><ele>219.0</ele><time>2026-05-02T08:26:51.54Z</time></trkpt><trkpt lat="44.1251" lon="11.92791"><ele>219.0</ele><time>2026-05-02T08:26:53.54Z</time></trkpt><trkpt lat="44.1251833" lon="11.92792"><ele>219.0</ele><time>2026-05-02T08:26:55.541Z</time></trkpt><trkpt lat="44.125265" lon="11.9279317"><ele>219.0</ele><time>2026-05-02T08:26:57.54Z</time></trkpt><trkpt lat="44.1253417" lon="11.9279483"><ele>219.0</ele><time>2026-05-02T08:26:59.54Z</time></trkpt><trkpt lat="44.1254083" lon="11.9279733"><ele>219.0</ele><time>2026-05-02T08:27:01.54Z</time></trkpt><trkpt lat="44.1254817" lon="11.92802"><ele>219.0</ele><time>2026-05-02T08:27:04.54Z</time></trkpt><trkpt lat="44.1255633" lon="11.9280617"><ele>219.0</ele><time>2026-05-02T08:27:07.54Z</time></trkpt><trkpt lat="44.125625" lon="11.92808"><ele>219.0</ele><time>2026-05-02T08:27:09.54Z</time></trkpt><trkpt lat="44.1257017" lon="11.9280817"><ele>219.0</ele><time>2026-05-02T08:27:11.54Z</time></trkpt><trkpt lat="44.12578" lon="11.928065"><ele>219.0</ele><time>2026-05-02T08:27:13.54Z</time></trkpt><trkpt lat="44.125865" lon="11.9280483"><ele>219.0</ele><time>2026-05-02T08:27:15.54Z</time></trkpt><trkpt lat="44.1259383" lon="11.9280267"><ele>219.0</ele><time>2026-05-02T08:27:17.54Z</time></trkpt><trkpt lat="44.1260033" lon="11.92799"><ele>219.66666666666666</ele><time>2026-05-02T08:27:19.54Z</time></trkpt><trkpt lat="44.126085" lon="11.9279483"><ele>220.33333333333331</ele><time>2026-05-02T08:27:21.54Z</time></trkpt><trkpt lat="44.1261483" lon="11.9278633"><ele>221.0</ele><time>2026-05-02T08:27:23.54Z</time></trkpt><trkpt lat="44.1262133" lon="11.92778"><ele>221.66666666666666</ele><time>2026-05-02T08:27:25.54Z</time></trkpt><trkpt lat="44.12627" lon="11.92769"><ele>222.33333333333331</ele><time>2026-05-02T08:27:27.54Z</time></trkpt><trkpt lat="44.1263217" lon="11.9275817"><ele>223.0</ele><time>2026-05-02T08:27:29.54Z</time></trkpt><trkpt lat="44.1263767" lon="11.9274733"><ele>223.60000000000002</ele><time>2026-05-02T08:27:31.54Z</time></trkpt><trkpt lat="44.1264317" lon="11.9273683"><ele>224.20000000000002</ele><time>2026-05-02T08:27:33.54Z</time></trkpt><trkpt lat="44.1265" lon="11.92727"><ele>224.8</ele><time>2026-05-02T08:27:35.54Z</time></trkpt><trkpt lat="44.12658" lon="11.92717"><ele>225.4</ele><time>2026-05-02T08:27:37.54Z</time></trkpt><trkpt lat="44.126675" lon="11.927105"><ele>226.0</ele><time>2026-05-02T08:27:39.54Z</time></trkpt><trkpt lat="44.1267883" lon="11.927035"><ele>226.0</ele><time>2026-05-02T08:27:41.54Z</time></trkpt><trkpt lat="44.1269" lon="11.9269933"><ele>226.0</ele><time>2026-05-02T08:27:43.54Z</time></trkpt><trkpt lat="44.1270183" lon="11.926945"><ele>226.0</ele><time>2026-05-02T08:27:45.54Z</time></trkpt><trkpt lat="44.1271383" lon="11.9268967"><ele>226.0</ele><time>2026-05-02T08:27:47.54Z</time></trkpt><trkpt lat="44.1272633" lon="11.9268483"><ele>225.99999999999997</ele><time>2026-05-02T08:27:49.54Z</time></trkpt><trkpt lat="44.1273267" lon="11.92682"><ele>226.0</ele><time>2026-05-02T08:27:50.54Z</time></trkpt><trkpt lat="44.1273917" lon="11.9267917"><ele>226.0</ele><time>2026-05-02T08:27:51.54Z</time></trkpt><trkpt lat="44.1274517" lon="11.926765"><ele>226.0</ele><time>2026-05-02T08:27:52.54Z</time></trkpt><trkpt lat="44.1275733" lon="11.926715"><ele>225.99999999999997</ele><time>2026-05-02T08:27:54.54Z</time></trkpt><trkpt lat="44.127635" lon="11.9266883"><ele>226.0</ele><time>2026-05-02T08:27:55.54Z</time></trkpt><trkpt lat="44.1277533" lon="11.926635"><ele>225.8</ele><time>2026-05-02T08:27:57.54Z</time></trkpt><trkpt lat="44.1278683" lon="11.9265883"><ele>225.60000000000002</ele><time>2026-05-02T08:27:59.54Z</time></trkpt><trkpt lat="44.1279883" lon="11.926535"><ele>225.4</ele><time>2026-05-02T08:28:01.54Z</time></trkpt><trkpt lat="44.1280483" lon="11.926505"><ele>225.2</ele><time>2026-05-02T08:28:02.54Z</time></trkpt><trkpt lat="44.1281083" lon="11.926475"><ele>225.0</ele><time>2026-05-02T08:28:03.54Z</time></trkpt><trkpt lat="44.1282283" lon="11.92644"><ele>224.8</ele><time>2026-05-02T08:28:05.54Z</time></trkpt><trkpt lat="44.1282917" lon="11.9264317"><ele>224.6</ele><time>2026-05-02T08:28:06.54Z</time></trkpt><trkpt lat="44.12842" lon="11.9264317"><ele>224.39999999999998</ele><time>2026-05-02T08:28:08.54Z</time></trkpt><trkpt lat="44.1284883" lon="11.92645"><ele>224.2</ele><time>2026-05-02T08:28:09.54Z</time></trkpt><trkpt lat="44.128595" lon="11.9264683"><ele>224.0</ele><time>2026-05-02T08:28:11.54Z</time></trkpt><trkpt lat="44.1287083" lon="11.9264417"><ele>224.0</ele><time>2026-05-02T08:28:13.54Z</time></trkpt><trkpt lat="44.1288117" lon="11.9263533"><ele>223.99999999999997</ele><time>2026-05-02T08:28:15.54Z</time></trkpt><trkpt lat="44.12889" lon="11.9262167"><ele>223.99999999999997</ele><time>2026-05-02T08:28:17.54Z</time></trkpt><trkpt lat="44.1289217" lon="11.9261333"><ele>224.0</ele><time>2026-05-02T08:28:18.541Z</time></trkpt><trkpt lat="44.1289517" lon="11.9260483"><ele>224.0</ele><time>2026-05-02T08:28:19.54Z</time></trkpt><trkpt lat="44.1289733" lon="11.9259517"><ele>224.16666666666669</ele><time>2026-05-02T08:28:20.541Z</time></trkpt><trkpt lat="44.1289883" lon="11.925855"><ele>224.33333333333334</ele><time>2026-05-02T08:28:21.54Z</time></trkpt><trkpt lat="44.1290067" lon="11.9257683"><ele>224.5</ele><time>2026-05-02T08:28:22.54Z</time></trkpt><trkpt lat="44.12903" lon="11.9256717"><ele>224.66666666666669</ele><time>2026-05-02T08:28:23.54Z</time></trkpt><trkpt lat="44.1290583" lon="11.9255117"><ele>224.83333333333334</ele><time>2026-05-02T08:28:25.54Z</time></trkpt><trkpt lat="44.12909" lon="11.9253867"><ele>225.0</ele><time>2026-05-02T08:28:27.54Z</time></trkpt><trkpt lat="44.1291333" lon="11.9252817"><ele>225.0</ele><time>2026-05-02T08:28:29.54Z</time></trkpt><trkpt lat="44.1291617" lon="11.9251483"><ele>225.0</ele><time>2026-05-02T08:28:31.54Z</time></trkpt><trkpt lat="44.1292" lon="11.9250217"><ele>225.0</ele><time>2026-05-02T08:28:33.54Z</time></trkpt><trkpt lat="44.129245" lon="11.9248733"><ele>225.0</ele><time>2026-05-02T08:28:35.54Z</time></trkpt><trkpt lat="44.129305" lon="11.9247367"><ele>225.0</ele><time>2026-05-02T08:28:37.54Z</time></trkpt><trkpt lat="44.1293717" lon="11.924625"><ele>226.0</ele><time>2026-05-02T08:28:39.54Z</time></trkpt><trkpt lat="44.1296733" lon="11.92448"><ele>227.0</ele><time>2026-05-02T08:28:41.205Z</time></trkpt><trkpt lat="44.1297067" lon="11.9248483"><ele>227.0</ele><time>2026-05-02T08:28:43.086Z</time></trkpt><trkpt lat="44.1296967" lon="11.9246583"><ele>227.0</ele><time>2026-05-02T08:28:44.041Z</time></trkpt><trkpt lat="44.12959" lon="11.9244133"><ele>227.0</ele><time>2026-05-02T08:28:45.041Z</time></trkpt><trkpt lat="44.1295817" lon="11.9242767"><ele>227.0</ele><time>2026-05-02T08:28:47.541Z</time></trkpt><trkpt lat="44.1296083" lon="11.92418"><ele>227.6</ele><time>2026-05-02T08:28:48.541Z</time></trkpt><trkpt lat="44.129685" lon="11.9240467"><ele>228.2</ele><time>2026-05-02T08:28:50.541Z</time></trkpt><trkpt lat="44.1297767" lon="11.92398"><ele>228.8</ele><time>2026-05-02T08:28:52.541Z</time></trkpt><trkpt lat="44.1298767" lon="11.9239283"><ele>229.4</ele><time>2026-05-02T08:28:54.541Z</time></trkpt><trkpt lat="44.129965" lon="11.9239"><ele>230.0</ele><time>2026-05-02T08:28:56.541Z</time></trkpt><trkpt lat="44.1300583" lon="11.9238817"><ele>226.8</ele><time>2026-05-02T08:28:58.541Z</time></trkpt><trkpt lat="44.1301583" lon="11.923865"><ele>223.6</ele><time>2026-05-02T08:29:00.541Z</time></trkpt><trkpt lat="44.1302467" lon="11.9238417"><ele>220.39999999999998</ele><time>2026-05-02T08:29:02.541Z</time></trkpt><trkpt lat="44.13033" lon="11.9238167"><ele>217.2</ele><time>2026-05-02T08:29:04.541Z</time></trkpt><trkpt lat="44.1304167" lon="11.9237867"><ele>214.0</ele><time>2026-05-02T08:29:06.541Z</time></trkpt><trkpt lat="44.1305283" lon="11.92375"><ele>214.0</ele><time>2026-05-02T08:29:08.541Z</time></trkpt><trkpt lat="44.13064" lon="11.9237033"><ele>213.99999999999997</ele><time>2026-05-02T08:29:10.541Z</time></trkpt><trkpt lat="44.1307367" lon="11.92363"><ele>213.99999999999997</ele><time>2026-05-02T08:29:12.541Z</time></trkpt><trkpt lat="44.1308083" lon="11.92351"><ele>214.0</ele><time>2026-05-02T08:29:14.541Z</time></trkpt><trkpt lat="44.13084" lon="11.9233717"><ele>214.0</ele><time>2026-05-02T08:29:16.541Z</time></trkpt><trkpt lat="44.1308283" lon="11.9232183"><ele>213.79999999999998</ele><time>2026-05-02T08:29:18.541Z</time></trkpt><trkpt lat="44.1308217" lon="11.9230617"><ele>213.59999999999997</ele><time>2026-05-02T08:29:20.541Z</time></trkpt><trkpt lat="44.13082" lon="11.9229117"><ele>213.4</ele><time>2026-05-02T08:29:22.541Z</time></trkpt><trkpt lat="44.1308333" lon="11.9227667"><ele>213.2</ele><time>2026-05-02T08:29:24.541Z</time></trkpt><trkpt lat="44.13086" lon="11.9226317"><ele>213.0</ele><time>2026-05-02T08:29:26.541Z</time></trkpt><trkpt lat="44.1308867" lon="11.9225083"><ele>214.2</ele><time>2026-05-02T08:29:28.541Z</time></trkpt><trkpt lat="44.1309567" lon="11.9224217"><ele>215.4</ele><time>2026-05-02T08:29:30.541Z</time></trkpt><trkpt lat="44.1310333" lon="11.92232"><ele>216.59999999999997</ele><time>2026-05-02T08:29:32.541Z</time></trkpt><trkpt lat="44.1311367" lon="11.9222367"><ele>217.79999999999998</ele><time>2026-05-02T08:29:34.541Z</time></trkpt><trkpt lat="44.131235" lon="11.9221583"><ele>219.0</ele><time>2026-05-02T08:29:36.542Z</time></trkpt><trkpt lat="44.131325" lon="11.9220833"><ele>219.0</ele><time>2026-05-02T08:29:38.541Z</time></trkpt><trkpt lat="44.131425" lon="11.9220217"><ele>218.99999999999997</ele><time>2026-05-02T08:29:40.541Z</time></trkpt><trkpt lat="44.1315333" lon="11.92198"><ele>218.99999999999997</ele><time>2026-05-02T08:29:42.541Z</time></trkpt><trkpt lat="44.1316283" lon="11.9219667"><ele>219.0</ele><time>2026-05-02T08:29:44.541Z</time></trkpt><trkpt lat="44.1317367" lon="11.9219667"><ele>219.0</ele><time>2026-05-02T08:29:46.541Z</time></trkpt><trkpt lat="44.1318567" lon="11.921985"><ele>214.79999999999998</ele><time>2026-05-02T08:29:48.541Z</time></trkpt><trkpt lat="44.1319683" lon="11.9220283"><ele>210.59999999999997</ele><time>2026-05-02T08:29:50.541Z</time></trkpt><trkpt lat="44.1320833" lon="11.9220733"><ele>206.4</ele><time>2026-05-02T08:29:52.541Z</time></trkpt><trkpt lat="44.1321467" lon="11.9220917"><ele>202.2</ele><time>2026-05-02T08:29:53.542Z</time></trkpt><trkpt lat="44.1322117" lon="11.9221017"><ele>198.0</ele><time>2026-05-02T08:29:54.541Z</time></trkpt><trkpt lat="44.1323283" lon="11.9221383"><ele>196.85714285714286</ele><time>2026-05-02T08:29:56.541Z</time></trkpt><trkpt lat="44.1323983" lon="11.92215"><ele>195.7142857142857</ele><time>2026-05-02T08:29:57.541Z</time></trkpt><trkpt lat="44.1324667" lon="11.922165"><ele>194.57142857142856</ele><time>2026-05-02T08:29:58.541Z</time></trkpt><trkpt lat="44.1325317" lon="11.9221817"><ele>193.42857142857144</ele><time>2026-05-02T08:29:59.541Z</time></trkpt><trkpt lat="44.1326067" lon="11.9221983"><ele>192.28571428571428</ele><time>2026-05-02T08:30:00.541Z</time></trkpt><trkpt lat="44.1326717" lon="11.9222167"><ele>191.14285714285714</ele><time>2026-05-02T08:30:01.541Z</time></trkpt><trkpt lat="44.13274" lon="11.92223"><ele>190.0</ele><time>2026-05-02T08:30:02.541Z</time></trkpt><trkpt lat="44.1328067" lon="11.9222417"><ele>190.0</ele><time>2026-05-02T08:30:03.541Z</time></trkpt><trkpt lat="44.13287" lon="11.92225"><ele>190.0</ele><time>2026-05-02T08:30:04.541Z</time></trkpt><trkpt lat="44.1329367" lon="11.9222683"><ele>190.0</ele><time>2026-05-02T08:30:05.541Z</time></trkpt><trkpt lat="44.133005" lon="11.9222883"><ele>190.0</ele><time>2026-05-02T08:30:06.541Z</time></trkpt><trkpt lat="44.133075" lon="11.92231"><ele>190.0</ele><time>2026-05-02T08:30:07.541Z</time></trkpt><trkpt lat="44.1331467" lon="11.9223283"><ele>190.0</ele><time>2026-05-02T08:30:08.541Z</time></trkpt><trkpt lat="44.13322" lon="11.9223467"><ele>190.0</ele><time>2026-05-02T08:30:09.541Z</time></trkpt><trkpt lat="44.133295" lon="11.9223667"><ele>189.0</ele><time>2026-05-02T08:30:10.541Z</time></trkpt><trkpt lat="44.13337" lon="11.922385"><ele>188.0</ele><time>2026-05-02T08:30:11.541Z</time></trkpt><trkpt lat="44.1334483" lon="11.9224"><ele>187.0</ele><time>2026-05-02T08:30:12.542Z</time></trkpt><trkpt lat="44.1335217" lon="11.92241"><ele>186.0</ele><time>2026-05-02T08:30:13.542Z</time></trkpt><trkpt lat="44.1335967" lon="11.9224183"><ele>185.0</ele><time>2026-05-02T08:30:14.541Z</time></trkpt><trkpt lat="44.1336683" lon="11.9224333"><ele>184.0</ele><time>2026-05-02T08:30:15.541Z</time></trkpt><trkpt lat="44.1337433" lon="11.9224467"><ele>184.0</ele><time>2026-05-02T08:30:16.542Z</time></trkpt><trkpt lat="44.1338217" lon="11.92246"><ele>184.0</ele><time>2026-05-02T08:30:17.541Z</time></trkpt><trkpt lat="44.1339" lon="11.9224683"><ele>184.0</ele><time>2026-05-02T08:30:18.542Z</time></trkpt><trkpt lat="44.1339783" lon="11.922475"><ele>184.0</ele><time>2026-05-02T08:30:19.541Z</time></trkpt><trkpt lat="44.13406" lon="11.9224783"><ele>184.0</ele><time>2026-05-02T08:30:20.542Z</time></trkpt><trkpt lat="44.1341333" lon="11.92247"><ele>184.0</ele><time>2026-05-02T08:30:21.541Z</time></trkpt><trkpt lat="44.1342083" lon="11.92246"><ele>183.66666666666669</ele><time>2026-05-02T08:30:22.541Z</time></trkpt><trkpt lat="44.1342783" lon="11.92245"><ele>183.33333333333334</ele><time>2026-05-02T08:30:23.541Z</time></trkpt><trkpt lat="44.134345" lon="11.922435"><ele>183.0</ele><time>2026-05-02T08:30:24.541Z</time></trkpt><trkpt lat="44.1344117" lon="11.9224117"><ele>182.66666666666666</ele><time>2026-05-02T08:30:25.541Z</time></trkpt><trkpt lat="44.1344733" lon="11.9223867"><ele>182.33333333333331</ele><time>2026-05-02T08:30:26.541Z</time></trkpt><trkpt lat="44.134585" lon="11.92233"><ele>182.0</ele><time>2026-05-02T08:30:28.541Z</time></trkpt><trkpt lat="44.1346883" lon="11.9222967"><ele>182.0</ele><time>2026-05-02T08:30:30.541Z</time></trkpt><trkpt lat="44.13479" lon="11.9222733"><ele>182.0</ele><time>2026-05-02T08:30:32.541Z</time></trkpt><trkpt lat="44.1348917" lon="11.92225"><ele>182.0</ele><time>2026-05-02T08:30:34.541Z</time></trkpt><trkpt lat="44.1350067" lon="11.9222267"><ele>182.0</ele><time>2026-05-02T08:30:36.541Z</time></trkpt><trkpt lat="44.13507" lon="11.9222183"><ele>182.0</ele><time>2026-05-02T08:30:37.542Z</time></trkpt><trkpt lat="44.135135" lon="11.9222067"><ele>181.6</ele><time>2026-05-02T08:30:38.541Z</time></trkpt><trkpt lat="44.1351983" lon="11.9221917"><ele>181.2</ele><time>2026-05-02T08:30:39.541Z</time></trkpt><trkpt lat="44.1353167" lon="11.9221717"><ele>180.8</ele><time>2026-05-02T08:30:41.541Z</time></trkpt><trkpt lat="44.135425" lon="11.9221367"><ele>180.4</ele><time>2026-05-02T08:30:43.541Z</time></trkpt><trkpt lat="44.1355133" lon="11.9221067"><ele>180.0</ele><time>2026-05-02T08:30:45.541Z</time></trkpt><trkpt lat="44.1355983" lon="11.9221"><ele>180.0</ele><time>2026-05-02T08:30:47.541Z</time></trkpt><trkpt lat="44.135685" lon="11.9221333"><ele>180.0</ele><time>2026-05-02T08:30:49.541Z</time></trkpt><trkpt lat="44.135755" lon="11.9221717"><ele>180.0</ele><time>2026-05-02T08:30:51.541Z</time></trkpt><trkpt lat="44.1358233" lon="11.9222383"><ele>180.0</ele><time>2026-05-02T08:30:53.541Z</time></trkpt><trkpt lat="44.13591" lon="11.922325"><ele>180.0</ele><time>2026-05-02T08:30:55.542Z</time></trkpt><trkpt lat="44.13601" lon="11.9224233"><ele>179.2</ele><time>2026-05-02T08:30:57.541Z</time></trkpt><trkpt lat="44.1361167" lon="11.922485"><ele>178.4</ele><time>2026-05-02T08:30:59.541Z</time></trkpt><trkpt lat="44.1362283" lon="11.92252"><ele>177.60000000000002</ele><time>2026-05-02T08:31:01.541Z</time></trkpt><trkpt lat="44.13634" lon="11.9225433"><ele>176.8</ele><time>2026-05-02T08:31:03.541Z</time></trkpt><trkpt lat="44.1364417" lon="11.92255"><ele>176.0</ele><time>2026-05-02T08:31:05.541Z</time></trkpt><trkpt lat="44.1365383" lon="11.9225483"><ele>175.4</ele><time>2026-05-02T08:31:07.541Z</time></trkpt><trkpt lat="44.1366433" lon="11.9225817"><ele>174.8</ele><time>2026-05-02T08:31:09.541Z</time></trkpt><trkpt lat="44.1367483" lon="11.9226417"><ele>174.20000000000002</ele><time>2026-05-02T08:31:11.541Z</time></trkpt><trkpt lat="44.136835" lon="11.922715"><ele>173.60000000000002</ele><time>2026-05-02T08:31:13.541Z</time></trkpt><trkpt lat="44.1369033" lon="11.92279"><ele>173.0</ele><time>2026-05-02T08:31:15.541Z</time></trkpt><trkpt lat="44.1369567" lon="11.9228767"><ele>173.0</ele><time>2026-05-02T08:31:17.541Z</time></trkpt><trkpt lat="44.1369983" lon="11.922955"><ele>173.0</ele><time>2026-05-02T08:31:19.541Z</time></trkpt><trkpt lat="44.137035" lon="11.9230467"><ele>173.0</ele><time>2026-05-02T08:31:21.541Z</time></trkpt><trkpt lat="44.1370667" lon="11.9231367"><ele>173.0</ele><time>2026-05-02T08:31:23.541Z</time></trkpt><trkpt lat="44.137095" lon="11.923225"><ele>173.0</ele><time>2026-05-02T08:31:25.541Z</time></trkpt><trkpt lat="44.1371117" lon="11.9233183"><ele>173.0</ele><time>2026-05-02T08:31:27.541Z</time></trkpt><trkpt lat="44.1371483" lon="11.9234367"><ele>173.0</ele><time>2026-05-02T08:31:30.541Z</time></trkpt><trkpt lat="44.1371833" lon="11.92357"><ele>172.33333333333331</ele><time>2026-05-02T08:31:33.541Z</time></trkpt><trkpt lat="44.1372217" lon="11.9236633"><ele>171.66666666666666</ele><time>2026-05-02T08:31:35.541Z</time></trkpt><trkpt lat="44.1372667" lon="11.9237683"><ele>171.0</ele><time>2026-05-02T08:31:37.541Z</time></trkpt><trkpt lat="44.1373033" lon="11.9238583"><ele>170.33333333333334</ele><time>2026-05-02T08:31:39.541Z</time></trkpt><trkpt lat="44.1373433" lon="11.9239433"><ele>169.66666666666669</ele><time>2026-05-02T08:31:41.542Z</time></trkpt><trkpt lat="44.1373817" lon="11.9240383"><ele>169.0</ele><time>2026-05-02T08:31:43.541Z</time></trkpt><trkpt lat="44.1374283" lon="11.9241317"><ele>169.0</ele><time>2026-05-02T08:31:45.541Z</time></trkpt><trkpt lat="44.1374683" lon="11.9242167"><ele>169.0</ele><time>2026-05-02T08:31:47.541Z</time></trkpt><trkpt lat="44.137505" lon="11.92431"><ele>169.0</ele><time>2026-05-02T08:31:49.541Z</time></trkpt><trkpt lat="44.1375467" lon="11.9244083"><ele>169.0</ele><time>2026-05-02T08:31:51.541Z</time></trkpt><trkpt lat="44.1375933" lon="11.92449"><ele>169.0</ele><time>2026-05-02T08:31:53.542Z</time></trkpt><trkpt lat="44.1376517" lon="11.9245767"><ele>169.0</ele><time>2026-05-02T08:31:55.541Z</time></trkpt><trkpt lat="44.1377083" lon="11.9246633"><ele>169.66666666666669</ele><time>2026-05-02T08:31:57.542Z</time></trkpt><trkpt lat="44.1377617" lon="11.9247533"><ele>170.33333333333334</ele><time>2026-05-02T08:31:59.541Z</time></trkpt><trkpt lat="44.1378167" lon="11.9248483"><ele>171.0</ele><time>2026-05-02T08:32:01.541Z</time></trkpt><trkpt lat="44.1378633" lon="11.9249533"><ele>171.66666666666666</ele><time>2026-05-02T08:32:03.541Z</time></trkpt><trkpt lat="44.1379117" lon="11.9250467"><ele>172.33333333333331</ele><time>2026-05-02T08:32:05.541Z</time></trkpt><trkpt lat="44.1379583" lon="11.9251333"><ele>173.0</ele><time>2026-05-02T08:32:07.541Z</time></trkpt><trkpt lat="44.137995" lon="11.9252083"><ele>173.0</ele><time>2026-05-02T08:32:09.541Z</time></trkpt><trkpt lat="44.1380567" lon="11.9252667"><ele>173.0</ele><time>2026-05-02T08:32:11.541Z</time></trkpt><trkpt lat="44.1381183" lon="11.9253317"><ele>173.0</ele><time>2026-05-02T08:32:13.541Z</time></trkpt><trkpt lat="44.138185" lon="11.9254183"><ele>173.0</ele><time>2026-05-02T08:32:15.541Z</time></trkpt><trkpt lat="44.1382633" lon="11.925515"><ele>173.0</ele><time>2026-05-02T08:32:17.541Z</time></trkpt><trkpt lat="44.1383583" lon="11.9256117"><ele>172.8</ele><time>2026-05-02T08:32:19.541Z</time></trkpt><trkpt lat="44.1384533" lon="11.925695"><ele>172.60000000000002</ele><time>2026-05-02T08:32:21.541Z</time></trkpt><trkpt lat="44.138545" lon="11.92578"><ele>172.39999999999998</ele><time>2026-05-02T08:32:23.541Z</time></trkpt><trkpt lat="44.1386417" lon="11.925855"><ele>172.2</ele><time>2026-05-02T08:32:25.541Z</time></trkpt><trkpt lat="44.138735" lon="11.9259317"><ele>172.0</ele><time>2026-05-02T08:32:27.541Z</time></trkpt><trkpt lat="44.138835" lon="11.9259883"><ele>170.8</ele><time>2026-05-02T08:32:29.541Z</time></trkpt><trkpt lat="44.1389383" lon="11.9260433"><ele>169.6</ele><time>2026-05-02T08:32:31.542Z</time></trkpt><trkpt lat="44.1390417" lon="11.92611"><ele>168.4</ele><time>2026-05-02T08:32:33.541Z</time></trkpt><trkpt lat="44.1391383" lon="11.9261783"><ele>167.20000000000002</ele><time>2026-05-02T08:32:35.541Z</time></trkpt><trkpt lat="44.139235" lon="11.926245"><ele>166.0</ele><time>2026-05-02T08:32:37.541Z</time></trkpt><trkpt lat="44.1393283" lon="11.9263433"><ele>165.4</ele><time>2026-05-02T08:32:39.541Z</time></trkpt><trkpt lat="44.1393983" lon="11.9264583"><ele>164.8</ele><time>2026-05-02T08:32:41.541Z</time></trkpt><trkpt lat="44.1394533" lon="11.9265917"><ele>164.20000000000002</ele><time>2026-05-02T08:32:43.541Z</time></trkpt><trkpt lat="44.139505" lon="11.92672"><ele>163.60000000000002</ele><time>2026-05-02T08:32:45.541Z</time></trkpt><trkpt lat="44.1395717" lon="11.9268283"><ele>163.0</ele><time>2026-05-02T08:32:47.541Z</time></trkpt><trkpt lat="44.139655" lon="11.9269183"><ele>160.6</ele><time>2026-05-02T08:32:49.541Z</time></trkpt><trkpt lat="44.1397583" lon="11.9269817"><ele>158.20000000000002</ele><time>2026-05-02T08:32:51.542Z</time></trkpt><trkpt lat="44.139855" lon="11.9270367"><ele>155.8</ele><time>2026-05-02T08:32:53.541Z</time></trkpt><trkpt lat="44.1399567" lon="11.9270867"><ele>153.4</ele><time>2026-05-02T08:32:55.541Z</time></trkpt><trkpt lat="44.1400633" lon="11.9271467"><ele>151.0</ele><time>2026-05-02T08:32:57.541Z</time></trkpt><trkpt lat="44.1401533" lon="11.9272333"><ele>150.6</ele><time>2026-05-02T08:32:59.541Z</time></trkpt><trkpt lat="44.1402417" lon="11.927335"><ele>150.2</ele><time>2026-05-02T08:33:01.541Z</time></trkpt><trkpt lat="44.1403117" lon="11.9274483"><ele>149.8</ele><time>2026-05-02T08:33:03.541Z</time></trkpt><trkpt lat="44.1403867" lon="11.9275583"><ele>149.4</ele><time>2026-05-02T08:33:05.541Z</time></trkpt><trkpt lat="44.1404583" lon="11.92767"><ele>149.0</ele><time>2026-05-02T08:33:07.541Z</time></trkpt><trkpt lat="44.1405217" lon="11.927795"><ele>147.33333333333331</ele><time>2026-05-02T08:33:09.541Z</time></trkpt><trkpt lat="44.1406017" lon="11.9279017"><ele>145.66666666666666</ele><time>2026-05-02T08:33:11.541Z</time></trkpt><trkpt lat="44.14071" lon="11.927955"><ele>144.0</ele><time>2026-05-02T08:33:13.541Z</time></trkpt><trkpt lat="44.1407733" lon="11.927965"><ele>142.33333333333334</ele><time>2026-05-02T08:33:14.541Z</time></trkpt><trkpt lat="44.1408367" lon="11.927965"><ele>140.66666666666669</ele><time>2026-05-02T08:33:15.541Z</time></trkpt><trkpt lat="44.1409083" lon="11.9279567"><ele>139.0</ele><time>2026-05-02T08:33:16.541Z</time></trkpt><trkpt lat="44.1409767" lon="11.927955"><ele>139.0</ele><time>2026-05-02T08:33:17.541Z</time></trkpt><trkpt lat="44.1410467" lon="11.9279567"><ele>139.0</ele><time>2026-05-02T08:33:18.541Z</time></trkpt><trkpt lat="44.1411217" lon="11.9279633"><ele>139.0</ele><time>2026-05-02T08:33:19.542Z</time></trkpt><trkpt lat="44.1411983" lon="11.9279767"><ele>139.0</ele><time>2026-05-02T08:33:20.541Z</time></trkpt><trkpt lat="44.14128" lon="11.9279983"><ele>139.0</ele><time>2026-05-02T08:33:21.541Z</time></trkpt><trkpt lat="44.1413583" lon="11.9280217"><ele>139.0</ele><time>2026-05-02T08:33:22.541Z</time></trkpt><trkpt lat="44.1414433" lon="11.92805"><ele>139.0</ele><time>2026-05-02T08:33:23.541Z</time></trkpt><trkpt lat="44.14153" lon="11.92808"><ele>139.0</ele><time>2026-05-02T08:33:24.541Z</time></trkpt><trkpt lat="44.14161" lon="11.9281133"><ele>139.0</ele><time>2026-05-02T08:33:25.541Z</time></trkpt><trkpt lat="44.1416883" lon="11.9281517"><ele>139.0</ele><time>2026-05-02T08:33:26.541Z</time></trkpt><trkpt lat="44.1417733" lon="11.92819"><ele>139.0</ele><time>2026-05-02T08:33:27.542Z</time></trkpt><trkpt lat="44.141855" lon="11.9282267"><ele>139.0</ele><time>2026-05-02T08:33:28.541Z</time></trkpt><trkpt lat="44.1419317" lon="11.9282667"><ele>138.66666666666669</ele><time>2026-05-02T08:33:29.541Z</time></trkpt><trkpt lat="44.1420067" lon="11.9282983"><ele>138.33333333333334</ele><time>2026-05-02T08:33:30.541Z</time></trkpt><trkpt lat="44.1420817" lon="11.928335"><ele>138.0</ele><time>2026-05-02T08:33:31.541Z</time></trkpt><trkpt lat="44.142155" lon="11.9283683"><ele>137.66666666666666</ele><time>2026-05-02T08:33:32.541Z</time></trkpt><trkpt lat="44.1422267" lon="11.9283983"><ele>137.33333333333331</ele><time>2026-05-02T08:33:33.541Z</time></trkpt><trkpt lat="44.1422933" lon="11.9284283"><ele>137.0</ele><time>2026-05-02T08:33:34.541Z</time></trkpt><trkpt lat="44.1423633" lon="11.9284583"><ele>134.33333333333331</ele><time>2026-05-02T08:33:35.541Z</time></trkpt><trkpt lat="44.142435" lon="11.9284967"><ele>131.66666666666666</ele><time>2026-05-02T08:33:36.541Z</time></trkpt><trkpt lat="44.1425017" lon="11.92854"><ele>129.0</ele><time>2026-05-02T08:33:37.541Z</time></trkpt><trkpt lat="44.14257" lon="11.9285867"><ele>126.33333333333334</ele><time>2026-05-02T08:33:38.542Z</time></trkpt><trkpt lat="44.14264" lon="11.9286333"><ele>123.66666666666667</ele><time>2026-05-02T08:33:39.541Z</time></trkpt><trkpt lat="44.1427083" lon="11.9286867"><ele>121.0</ele><time>2026-05-02T08:33:40.541Z</time></trkpt><trkpt lat="44.1427733" lon="11.9287367"><ele>121.00000000000001</ele><time>2026-05-02T08:33:41.541Z</time></trkpt><trkpt lat="44.142835" lon="11.9287933"><ele>121.0</ele><time>2026-05-02T08:33:42.541Z</time></trkpt><trkpt lat="44.1429" lon="11.928845"><ele>121.0</ele><time>2026-05-02T08:33:43.541Z</time></trkpt><trkpt lat="44.1429617" lon="11.9288883"><ele>121.0</ele><time>2026-05-02T08:33:44.541Z</time></trkpt><trkpt lat="44.1430183" lon="11.92894"><ele>121.00000000000001</ele><time>2026-05-02T08:33:45.541Z</time></trkpt><trkpt lat="44.1430733" lon="11.928985"><ele>121.0</ele><time>2026-05-02T08:33:46.541Z</time></trkpt><trkpt lat="44.1431783" lon="11.929065"><ele>121.4</ele><time>2026-05-02T08:33:48.541Z</time></trkpt><trkpt lat="44.1432817" lon="11.9291217"><ele>121.8</ele><time>2026-05-02T08:33:50.541Z</time></trkpt><trkpt lat="44.1433717" lon="11.9291733"><ele>122.20000000000002</ele><time>2026-05-02T08:33:52.541Z</time></trkpt><trkpt lat="44.1434683" lon="11.92921"><ele>122.60000000000001</ele><time>2026-05-02T08:33:54.542Z</time></trkpt><trkpt lat="44.1435583" lon="11.92924"><ele>123.0</ele><time>2026-05-02T08:33:56.541Z</time></trkpt><trkpt lat="44.1436383" lon="11.9292367"><ele>123.0</ele><time>2026-05-02T08:33:58.541Z</time></trkpt><trkpt lat="44.1437133" lon="11.9292133"><ele>123.00000000000001</ele><time>2026-05-02T08:34:00.541Z</time></trkpt><trkpt lat="44.1437933" lon="11.9291433"><ele>123.00000000000001</ele><time>2026-05-02T08:34:02.541Z</time></trkpt><trkpt lat="44.14383" lon="11.92903"><ele>123.0</ele><time>2026-05-02T08:34:04.541Z</time></trkpt><trkpt lat="44.143845" lon="11.928885"><ele>123.0</ele><time>2026-05-02T08:34:06.541Z</time></trkpt><trkpt lat="44.1438383" lon="11.928755"><ele>123.0</ele><time>2026-05-02T08:34:08.541Z</time></trkpt><trkpt lat="44.14385" lon="11.9286433"><ele>123.00000000000001</ele><time>2026-05-02T08:34:10.541Z</time></trkpt><trkpt lat="44.1439117" lon="11.92856"><ele>123.00000000000001</ele><time>2026-05-02T08:34:12.541Z</time></trkpt><trkpt lat="44.1439983" lon="11.9285733"><ele>123.0</ele><time>2026-05-02T08:34:14.541Z</time></trkpt><trkpt lat="44.1440567" lon="11.928705"><ele>123.0</ele><time>2026-05-02T08:34:16.541Z</time></trkpt><trkpt lat="44.14409" lon="11.9288567"><ele>121.0</ele><time>2026-05-02T08:34:18.541Z</time></trkpt><trkpt lat="44.1441083" lon="11.9290167"><ele>119.0</ele><time>2026-05-02T08:34:20.541Z</time></trkpt><trkpt lat="44.1441133" lon="11.9291083"><ele>117.0</ele><time>2026-05-02T08:34:21.541Z</time></trkpt><trkpt lat="44.14412" lon="11.929205"><ele>115.0</ele><time>2026-05-02T08:34:22.541Z</time></trkpt><trkpt lat="44.144125" lon="11.9292933"><ele>113.0</ele><time>2026-05-02T08:34:23.542Z</time></trkpt><trkpt lat="44.1441417" lon="11.9294283"><ele>111.0</ele><time>2026-05-02T08:34:25.541Z</time></trkpt><trkpt lat="44.1442083" lon="11.9295"><ele>111.0</ele><time>2026-05-02T08:34:27.541Z</time></trkpt><trkpt lat="44.14429" lon="11.9294683"><ele>111.0</ele><time>2026-05-02T08:34:29.541Z</time></trkpt><trkpt lat="44.1443333" lon="11.929335"><ele>111.0</ele><time>2026-05-02T08:34:31.541Z</time></trkpt><trkpt lat="44.1443583" lon="11.9291717"><ele>111.0</ele><time>2026-05-02T08:34:33.541Z</time></trkpt><trkpt lat="44.1443617" lon="11.9290017"><ele>111.0</ele><time>2026-05-02T08:34:35.541Z</time></trkpt><trkpt lat="44.1443617" lon="11.92883"><ele>111.0</ele><time>2026-05-02T08:34:37.541Z</time></trkpt><trkpt lat="44.1443717" lon="11.9286783"><ele>111.0</ele><time>2026-05-02T08:34:39.541Z</time></trkpt><trkpt lat="44.144375" lon="11.928545"><ele>111.0</ele><time>2026-05-02T08:34:41.541Z</time></trkpt><trkpt lat="44.144365" lon="11.9284117"><ele>111.0</ele><time>2026-05-02T08:34:43.541Z</time></trkpt><trkpt lat="44.1444017" lon="11.928295"><ele>111.0</ele><time>2026-05-02T08:34:45.541Z</time></trkpt><trkpt lat="44.1444933" lon="11.928285"><ele>111.0</ele><time>2026-05-02T08:34:47.541Z</time></trkpt><trkpt lat="44.144565" lon="11.9284117"><ele>111.0</ele><time>2026-05-02T08:34:49.541Z</time></trkpt><trkpt lat="44.1446083" lon="11.9285633"><ele>111.0</ele><time>2026-05-02T08:34:51.541Z</time></trkpt><trkpt lat="44.1446383" lon="11.9287233"><ele>111.0</ele><time>2026-05-02T08:34:53.541Z</time></trkpt><trkpt lat="44.1446583" lon="11.9288067"><ele>111.0</ele><time>2026-05-02T08:34:54.541Z</time></trkpt><trkpt lat="44.1446917" lon="11.9289617"><ele>111.0</ele><time>2026-05-02T08:34:56.541Z</time></trkpt><trkpt lat="44.1447217" lon="11.929095"><ele>111.0</ele><time>2026-05-02T08:34:58.541Z</time></trkpt><trkpt lat="44.1447667" lon="11.9292083"><ele>111.0</ele><time>2026-05-02T08:35:00.541Z</time></trkpt><trkpt lat="44.1448383" lon="11.9292767"><ele>111.0</ele><time>2026-05-02T08:35:02.541Z</time></trkpt><trkpt lat="44.144915" lon="11.929245"><ele>111.0</ele><time>2026-05-02T08:35:04.541Z</time></trkpt><trkpt lat="44.1449517" lon="11.9291217"><ele>111.0</ele><time>2026-05-02T08:35:06.541Z</time></trkpt><trkpt lat="44.1449383" lon="11.9289867"><ele>111.0</ele><time>2026-05-02T08:35:08.541Z</time></trkpt><trkpt lat="44.1449067" lon="11.92886"><ele>111.0</ele><time>2026-05-02T08:35:10.541Z</time></trkpt><trkpt lat="44.144875" lon="11.9287467"><ele>111.0</ele><time>2026-05-02T08:35:12.541Z</time></trkpt><trkpt lat="44.1448583" lon="11.9286233"><ele>111.0</ele><time>2026-05-02T08:35:14.541Z</time></trkpt><trkpt lat="44.144865" lon="11.9284733"><ele>107.4</ele><time>2026-05-02T08:35:16.541Z</time></trkpt><trkpt lat="44.1448917" lon="11.928335"><ele>103.8</ele><time>2026-05-02T08:35:18.541Z</time></trkpt><trkpt lat="44.1449383" lon="11.9282133"><ele>100.2</ele><time>2026-05-02T08:35:20.541Z</time></trkpt><trkpt lat="44.14503" lon="11.9281267"><ele>96.60000000000001</ele><time>2026-05-02T08:35:22.541Z</time></trkpt><trkpt lat="44.14509" lon="11.9280867"><ele>93.0</ele><time>2026-05-02T08:35:23.541Z</time></trkpt><trkpt lat="44.1452017" lon="11.9280733"><ele>93.0</ele><time>2026-05-02T08:35:25.541Z</time></trkpt><trkpt lat="44.14531" lon="11.92811"><ele>93.0</ele><time>2026-05-02T08:35:27.541Z</time></trkpt><trkpt lat="44.14537" lon="11.9281383"><ele>93.0</ele><time>2026-05-02T08:35:28.541Z</time></trkpt><trkpt lat="44.14548" lon="11.9282183"><ele>93.0</ele><time>2026-05-02T08:35:30.541Z</time></trkpt><trkpt lat="44.1455933" lon="11.9282967"><ele>93.0</ele><time>2026-05-02T08:35:32.541Z</time></trkpt><trkpt lat="44.1457" lon="11.9283567"><ele>91.4</ele><time>2026-05-02T08:35:34.541Z</time></trkpt><trkpt lat="44.1458" lon="11.9284167"><ele>89.80000000000001</ele><time>2026-05-02T08:35:36.541Z</time></trkpt><trkpt lat="44.1459033" lon="11.9284767"><ele>88.2</ele><time>2026-05-02T08:35:38.541Z</time></trkpt><trkpt lat="44.1460117" lon="11.9285317"><ele>86.6</ele><time>2026-05-02T08:35:40.541Z</time></trkpt><trkpt lat="44.1461167" lon="11.928555"><ele>85.0</ele><time>2026-05-02T08:35:42.541Z</time></trkpt><trkpt lat="44.1462283" lon="11.9285633"><ele>85.0</ele><time>2026-05-02T08:35:44.541Z</time></trkpt><trkpt lat="44.1463517" lon="11.9285817"><ele>85.0</ele><time>2026-05-02T08:35:46.541Z</time></trkpt><trkpt lat="44.146465" lon="11.9286217"><ele>85.0</ele><time>2026-05-02T08:35:48.541Z</time></trkpt><trkpt lat="44.1465833" lon="11.92865"><ele>85.0</ele><time>2026-05-02T08:35:50.541Z</time></trkpt><trkpt lat="44.1466917" lon="11.92869"><ele>84.6</ele><time>2026-05-02T08:35:52.541Z</time></trkpt><trkpt lat="44.1467933" lon="11.928755"><ele>84.2</ele><time>2026-05-02T08:35:54.541Z</time></trkpt><trkpt lat="44.1468933" lon="11.9288117"><ele>83.80000000000001</ele><time>2026-05-02T08:35:56.541Z</time></trkpt><trkpt lat="44.1469933" lon="11.92887"><ele>83.4</ele><time>2026-05-02T08:35:58.541Z</time></trkpt><trkpt lat="44.1470867" lon="11.9289267"><ele>83.0</ele><time>2026-05-02T08:36:00.541Z</time></trkpt><trkpt lat="44.1471733" lon="11.92901"><ele>83.0</ele><time>2026-05-02T08:36:02.541Z</time></trkpt><trkpt lat="44.1472667" lon="11.9290733"><ele>83.0</ele><time>2026-05-02T08:36:04.541Z</time></trkpt><trkpt lat="44.1473633" lon="11.9291217"><ele>83.0</ele><time>2026-05-02T08:36:06.541Z</time></trkpt><trkpt lat="44.14745" lon="11.92917"><ele>83.0</ele><time>2026-05-02T08:36:08.541Z</time></trkpt><trkpt lat="44.14752" lon="11.9292183"><ele>83.0</ele><time>2026-05-02T08:36:10.541Z</time></trkpt><trkpt lat="44.1475883" lon="11.9292617"><ele>82.57142857142857</ele><time>2026-05-02T08:36:12.541Z</time></trkpt><trkpt lat="44.1476583" lon="11.929305"><ele>82.14285714285715</ele><time>2026-05-02T08:36:14.541Z</time></trkpt><trkpt lat="44.147725" lon="11.9293517"><ele>81.71428571428572</ele><time>2026-05-02T08:36:16.541Z</time></trkpt><trkpt lat="44.1477867" lon="11.9293983"><ele>81.28571428571428</ele><time>2026-05-02T08:36:18.541Z</time></trkpt><trkpt lat="44.1478467" lon="11.929445"><ele>80.85714285714286</ele><time>2026-05-02T08:36:20.541Z</time></trkpt><trkpt lat="44.1479067" lon="11.9294883"><ele>80.42857142857143</ele><time>2026-05-02T08:36:22.541Z</time></trkpt><trkpt lat="44.1479633" lon="11.9295317"><ele>80.0</ele><time>2026-05-02T08:36:24.541Z</time></trkpt><trkpt lat="44.148" lon="11.9296383"><ele>80.0</ele><time>2026-05-02T08:36:27.541Z</time></trkpt><trkpt lat="44.148" lon="11.92975"><ele>80.0</ele><time>2026-05-02T08:36:29.542Z</time></trkpt><trkpt lat="44.1479867" lon="11.9298567"><ele>80.0</ele><time>2026-05-02T08:36:31.541Z</time></trkpt><trkpt lat="44.1479833" lon="11.9299717"><ele>80.0</ele><time>2026-05-02T08:36:33.541Z</time></trkpt><trkpt lat="44.1479783" lon="11.9301"><ele>80.0</ele><time>2026-05-02T08:36:35.541Z</time></trkpt><trkpt lat="44.1479683" lon="11.9302233"><ele>80.0</ele><time>2026-05-02T08:36:37.541Z</time></trkpt><trkpt lat="44.1479583" lon="11.930355"><ele>79.66666666666667</ele><time>2026-05-02T08:36:39.541Z</time></trkpt><trkpt lat="44.1479567" lon="11.93047"><ele>79.33333333333334</ele><time>2026-05-02T08:36:41.541Z</time></trkpt><trkpt lat="44.1479517" lon="11.930585"><ele>79.0</ele><time>2026-05-02T08:36:43.541Z</time></trkpt><trkpt lat="44.1479567" lon="11.9307033"><ele>78.66666666666667</ele><time>2026-05-02T08:36:45.541Z</time></trkpt><trkpt lat="44.1479833" lon="11.9308033"><ele>78.33333333333333</ele><time>2026-05-02T08:36:47.541Z</time></trkpt><trkpt lat="44.1480317" lon="11.9308767"><ele>78.0</ele><time>2026-05-02T08:36:49.541Z</time></trkpt><trkpt lat="44.14813" lon="11.930855"><ele>78.0</ele><time>2026-05-02T08:36:52.541Z</time></trkpt><trkpt lat="44.1481983" lon="11.9308117"><ele>78.0</ele><time>2026-05-02T08:36:54.541Z</time></trkpt><trkpt lat="44.1482633" lon="11.930775"><ele>78.0</ele><time>2026-05-02T08:36:56.541Z</time></trkpt><trkpt lat="44.148325" lon="11.9307217"><ele>78.0</ele><time>2026-05-02T08:36:58.541Z</time></trkpt><trkpt lat="44.14839" lon="11.9306767"><ele>78.0</ele><time>2026-05-02T08:37:00.541Z</time></trkpt><trkpt lat="44.1484583" lon="11.93063"><ele>78.0</ele><time>2026-05-02T08:37:02.541Z</time></trkpt><trkpt lat="44.1485333" lon="11.930595"><ele>78.0</ele><time>2026-05-02T08:37:04.541Z</time></trkpt><trkpt lat="44.1486033" lon="11.9305467"><ele>78.5</ele><time>2026-05-02T08:37:06.541Z</time></trkpt><trkpt lat="44.1486783" lon="11.9305033"><ele>79.0</ele><time>2026-05-02T08:37:08.541Z</time></trkpt><trkpt lat="44.14875" lon="11.9304567"><ele>79.5</ele><time>2026-05-02T08:37:10.541Z</time></trkpt><trkpt lat="44.14883" lon="11.9303917"><ele>80.0</ele><time>2026-05-02T08:37:12.541Z</time></trkpt><trkpt lat="44.14891" lon="11.9303083"><ele>80.5</ele><time>2026-05-02T08:37:14.541Z</time></trkpt><trkpt lat="44.1489917" lon="11.9302367"><ele>81.0</ele><time>2026-05-02T08:37:16.541Z</time></trkpt><trkpt lat="44.1490733" lon="11.930175"><ele>81.19999999999999</ele><time>2026-05-02T08:37:18.541Z</time></trkpt><trkpt lat="44.1491633" lon="11.9301117"><ele>81.39999999999999</ele><time>2026-05-02T08:37:20.541Z</time></trkpt><trkpt lat="44.1492517" lon="11.9300467"><ele>81.6</ele><time>2026-05-02T08:37:22.541Z</time></trkpt><trkpt lat="44.1493467" lon="11.92997"><ele>81.8</ele><time>2026-05-02T08:37:24.542Z</time></trkpt><trkpt lat="44.14943" lon="11.9298933"><ele>82.0</ele><time>2026-05-02T08:37:26.541Z</time></trkpt><trkpt lat="44.14952" lon="11.9298333"><ele>82.19999999999999</ele><time>2026-05-02T08:37:28.541Z</time></trkpt><trkpt lat="44.14961" lon="11.92976"><ele>82.4</ele><time>2026-05-02T08:37:30.541Z</time></trkpt><trkpt lat="44.1496783" lon="11.9296683"><ele>82.6</ele><time>2026-05-02T08:37:32.541Z</time></trkpt><trkpt lat="44.1497517" lon="11.9295817"><ele>82.80000000000001</ele><time>2026-05-02T08:37:34.541Z</time></trkpt><trkpt lat="44.149825" lon="11.9295067"><ele>83.0</ele><time>2026-05-02T08:37:36.541Z</time></trkpt><trkpt lat="44.1499017" lon="11.9294067"><ele>83.0</ele><time>2026-05-02T08:37:38.541Z</time></trkpt><trkpt lat="44.1499767" lon="11.929315"><ele>83.0</ele><time>2026-05-02T08:37:40.541Z</time></trkpt><trkpt lat="44.1500533" lon="11.9292217"><ele>83.0</ele><time>2026-05-02T08:37:42.541Z</time></trkpt><trkpt lat="44.1501283" lon="11.92913"><ele>83.0</ele><time>2026-05-02T08:37:44.541Z</time></trkpt><trkpt lat="44.1502017" lon="11.9290417"><ele>83.0</ele><time>2026-05-02T08:37:46.541Z</time></trkpt><trkpt lat="44.1502733" lon="11.9289567"><ele>83.0</ele><time>2026-05-02T08:37:48.541Z</time></trkpt><trkpt lat="44.1503467" lon="11.928855"><ele>83.0</ele><time>2026-05-02T08:37:50.541Z</time></trkpt><trkpt lat="44.15042" lon="11.9287567"><ele>83.0</ele><time>2026-05-02T08:37:52.541Z</time></trkpt><trkpt lat="44.150495" lon="11.9286533"><ele>83.0</ele><time>2026-05-02T08:37:54.542Z</time></trkpt><trkpt lat="44.1505683" lon="11.9285517"><ele>83.0</ele><time>2026-05-02T08:37:56.542Z</time></trkpt><trkpt lat="44.150645" lon="11.9284467"><ele>82.80000000000001</ele><time>2026-05-02T08:37:58.541Z</time></trkpt><trkpt lat="44.1507183" lon="11.928345"><ele>82.6</ele><time>2026-05-02T08:38:00.541Z</time></trkpt><trkpt lat="44.1507683" lon="11.928225"><ele>82.4</ele><time>2026-05-02T08:38:02.541Z</time></trkpt><trkpt lat="44.150805" lon="11.9280967"><ele>82.19999999999999</ele><time>2026-05-02T08:38:04.541Z</time></trkpt><trkpt lat="44.1508533" lon="11.9279783"><ele>82.0</ele><time>2026-05-02T08:38:06.541Z</time></trkpt><trkpt lat="44.1509067" lon="11.9278767"><ele>81.99999999999999</ele><time>2026-05-02T08:38:08.541Z</time></trkpt><trkpt lat="44.15095" lon="11.9277733"><ele>82.0</ele><time>2026-05-02T08:38:10.541Z</time></trkpt><trkpt lat="44.150985" lon="11.9276667"><ele>82.0</ele><time>2026-05-02T08:38:12.542Z</time></trkpt><trkpt lat="44.1510167" lon="11.927585"><ele>82.0</ele><time>2026-05-02T08:38:14.541Z</time></trkpt><trkpt lat="44.1510533" lon="11.9275133"><ele>82.0</ele><time>2026-05-02T08:38:16.541Z</time></trkpt><trkpt lat="44.1511" lon="11.9274217"><ele>81.99999999999999</ele><time>2026-05-02T08:38:19.541Z</time></trkpt><trkpt lat="44.15114" lon="11.92735"><ele>82.0</ele><time>2026-05-02T08:38:22.541Z</time></trkpt><trkpt lat="44.1512017" lon="11.9272683"><ele>82.66666666666666</ele><time>2026-05-02T08:38:26.541Z</time></trkpt><trkpt lat="44.15128" lon="11.9272383"><ele>83.33333333333333</ele><time>2026-05-02T08:38:29.541Z</time></trkpt><trkpt lat="44.1513483" lon="11.9272417"><ele>84.0</ele><time>2026-05-02T08:38:31.541Z</time></trkpt><trkpt lat="44.15142" lon="11.9272583"><ele>84.66666666666667</ele><time>2026-05-02T08:38:33.541Z</time></trkpt><trkpt lat="44.1515133" lon="11.9272783"><ele>85.33333333333334</ele><time>2026-05-02T08:38:36.541Z</time></trkpt><trkpt lat="44.1515817" lon="11.9272967"><ele>86.0</ele><time>2026-05-02T08:38:38.541Z</time></trkpt><trkpt lat="44.1516467" lon="11.92732"><ele>85.83333333333334</ele><time>2026-05-02T08:38:40.541Z</time></trkpt><trkpt lat="44.151715" lon="11.92735"><ele>85.66666666666667</ele><time>2026-05-02T08:38:42.541Z</time></trkpt><trkpt lat="44.151795" lon="11.92736"><ele>85.5</ele><time>2026-05-02T08:38:44.541Z</time></trkpt><trkpt lat="44.15187" lon="11.9273683"><ele>85.33333333333333</ele><time>2026-05-02T08:38:46.541Z</time></trkpt><trkpt lat="44.1519467" lon="11.92743"><ele>85.16666666666666</ele><time>2026-05-02T08:38:48.541Z</time></trkpt><trkpt lat="44.1520017" lon="11.9275183"><ele>85.0</ele><time>2026-05-02T08:38:50.541Z</time></trkpt><trkpt lat="44.1520583" lon="11.9276"><ele>85.0</ele><time>2026-05-02T08:38:52.541Z</time></trkpt><trkpt lat="44.1521133" lon="11.92768"><ele>85.0</ele><time>2026-05-02T08:38:54.541Z</time></trkpt><trkpt lat="44.1521717" lon="11.9277833"><ele>85.0</ele><time>2026-05-02T08:38:56.541Z</time></trkpt><trkpt lat="44.152245" lon="11.9278883"><ele>85.0</ele><time>2026-05-02T08:38:58.541Z</time></trkpt><trkpt lat="44.15232" lon="11.928005"><ele>85.0</ele><time>2026-05-02T08:39:00.541Z</time></trkpt><trkpt lat="44.1523983" lon="11.92812"><ele>85.5</ele><time>2026-05-02T08:39:02.541Z</time></trkpt><trkpt lat="44.1524667" lon="11.9282383"><ele>86.0</ele><time>2026-05-02T08:39:04.541Z</time></trkpt><trkpt lat="44.1525383" lon="11.9283533"><ele>86.5</ele><time>2026-05-02T08:39:06.541Z</time></trkpt><trkpt lat="44.1526167" lon="11.9284817"><ele>87.0</ele><time>2026-05-02T08:39:08.541Z</time></trkpt><trkpt lat="44.1526817" lon="11.92863"><ele>87.0</ele><time>2026-05-02T08:39:10.541Z</time></trkpt><trkpt lat="44.15274" lon="11.9287767"><ele>87.0</ele><time>2026-05-02T08:39:12.541Z</time></trkpt><trkpt lat="44.152775" lon="11.928915"><ele>87.0</ele><time>2026-05-02T08:39:14.541Z</time></trkpt><trkpt lat="44.1527983" lon="11.9290617"><ele>87.0</ele><time>2026-05-02T08:39:16.542Z</time></trkpt><trkpt lat="44.152815" lon="11.92921"><ele>87.0</ele><time>2026-05-02T08:39:18.541Z</time></trkpt><trkpt lat="44.1528133" lon="11.9293717"><ele>87.19999999999999</ele><time>2026-05-02T08:39:20.541Z</time></trkpt><trkpt lat="44.1528" lon="11.9295267"><ele>87.4</ele><time>2026-05-02T08:39:22.541Z</time></trkpt><trkpt lat="44.1527817" lon="11.929675"><ele>87.6</ele><time>2026-05-02T08:39:24.541Z</time></trkpt><trkpt lat="44.15276" lon="11.9298217"><ele>87.80000000000001</ele><time>2026-05-02T08:39:26.541Z</time></trkpt><trkpt lat="44.1527333" lon="11.9299617"><ele>88.0</ele><time>2026-05-02T08:39:28.541Z</time></trkpt><trkpt lat="44.1527117" lon="11.930095"><ele>88.33333333333333</ele><time>2026-05-02T08:39:30.541Z</time></trkpt><trkpt lat="44.1526817" lon="11.93023"><ele>88.66666666666666</ele><time>2026-05-02T08:39:32.541Z</time></trkpt><trkpt lat="44.15267" lon="11.9303183"><ele>89.0</ele><time>2026-05-02T08:39:33.541Z</time></trkpt><trkpt lat="44.1526817" lon="11.9304567"><ele>89.33333333333333</ele><time>2026-05-02T08:39:35.541Z</time></trkpt><trkpt lat="44.1527133" lon="11.93057"><ele>89.66666666666667</ele><time>2026-05-02T08:39:37.541Z</time></trkpt><trkpt lat="44.1527567" lon="11.9306817"><ele>90.0</ele><time>2026-05-02T08:39:39.541Z</time></trkpt><trkpt lat="44.152815" lon="11.930805"><ele>90.5</ele><time>2026-05-02T08:39:41.541Z</time></trkpt><trkpt lat="44.1528867" lon="11.9309367"><ele>91.0</ele><time>2026-05-02T08:39:43.541Z</time></trkpt><trkpt lat="44.1529717" lon="11.9310617"><ele>91.5</ele><time>2026-05-02T08:39:45.541Z</time></trkpt><trkpt lat="44.15307" lon="11.9311683"><ele>92.0</ele><time>2026-05-02T08:39:47.541Z</time></trkpt><trkpt lat="44.1531617" lon="11.9312767"><ele>92.0</ele><time>2026-05-02T08:39:49.541Z</time></trkpt><trkpt lat="44.1532483" lon="11.931395"><ele>92.0</ele><time>2026-05-02T08:39:51.541Z</time></trkpt><trkpt lat="44.1533317" lon="11.93152"><ele>92.0</ele><time>2026-05-02T08:39:53.541Z</time></trkpt><trkpt lat="44.1533767" lon="11.9315817"><ele>92.0</ele><time>2026-05-02T08:39:54.541Z</time></trkpt><trkpt lat="44.15346" lon="11.9317017"><ele>92.0</ele><time>2026-05-02T08:39:56.541Z</time></trkpt><trkpt lat="44.1535533" lon="11.9318017"><ele>92.0</ele><time>2026-05-02T08:39:58.541Z</time></trkpt><trkpt lat="44.1536433" lon="11.93191"><ele>92.0</ele><time>2026-05-02T08:40:00.541Z</time></trkpt><trkpt lat="44.1537333" lon="11.9320183"><ele>92.0</ele><time>2026-05-02T08:40:02.541Z</time></trkpt><trkpt lat="44.1538233" lon="11.93214"><ele>92.0</ele><time>2026-05-02T08:40:04.541Z</time></trkpt><trkpt lat="44.1538733" lon="11.932195"><ele>92.0</ele><time>2026-05-02T08:40:05.541Z</time></trkpt><trkpt lat="44.153925" lon="11.93225"><ele>92.0</ele><time>2026-05-02T08:40:06.541Z</time></trkpt><trkpt lat="44.153975" lon="11.932305"><ele>92.0</ele><time>2026-05-02T08:40:07.542Z</time></trkpt><trkpt lat="44.1540267" lon="11.9323567"><ele>92.0</ele><time>2026-05-02T08:40:08.542Z</time></trkpt><trkpt lat="44.1541233" lon="11.932455"><ele>92.0</ele><time>2026-05-02T08:40:10.541Z</time></trkpt><trkpt lat="44.154175" lon="11.9325083"><ele>92.0</ele><time>2026-05-02T08:40:11.542Z</time></trkpt><trkpt lat="44.1542717" lon="11.93262"><ele>92.0</ele><time>2026-05-02T08:40:13.541Z</time></trkpt><trkpt lat="44.1543733" lon="11.9327283"><ele>91.71428571428572</ele><time>2026-05-02T08:40:15.541Z</time></trkpt><trkpt lat="44.1544283" lon="11.9327783"><ele>91.42857142857142</ele><time>2026-05-02T08:40:16.541Z</time></trkpt><trkpt lat="44.15448" lon="11.93283"><ele>91.14285714285714</ele><time>2026-05-02T08:40:17.541Z</time></trkpt><trkpt lat="44.154535" lon="11.9328883"><ele>90.85714285714286</ele><time>2026-05-02T08:40:18.541Z</time></trkpt><trkpt lat="44.15459" lon="11.9329433"><ele>90.57142857142858</ele><time>2026-05-02T08:40:19.541Z</time></trkpt><trkpt lat="44.1546467" lon="11.9329967"><ele>90.28571428571428</ele><time>2026-05-02T08:40:20.541Z</time></trkpt><trkpt lat="44.1547083" lon="11.9330483"><ele>90.0</ele><time>2026-05-02T08:40:21.541Z</time></trkpt><trkpt lat="44.1547667" lon="11.933105"><ele>90.0</ele><time>2026-05-02T08:40:22.541Z</time></trkpt><trkpt lat="44.1548233" lon="11.9331583"><ele>90.0</ele><time>2026-05-02T08:40:23.541Z</time></trkpt><trkpt lat="44.1548783" lon="11.9332133"><ele>90.0</ele><time>2026-05-02T08:40:24.541Z</time></trkpt><trkpt lat="44.154935" lon="11.9332733"><ele>90.0</ele><time>2026-05-02T08:40:25.541Z</time></trkpt><trkpt lat="44.154995" lon="11.93333"><ele>90.0</ele><time>2026-05-02T08:40:26.541Z</time></trkpt><trkpt lat="44.1550533" lon="11.933385"><ele>90.0</ele><time>2026-05-02T08:40:27.541Z</time></trkpt><trkpt lat="44.1551117" lon="11.93344"><ele>90.0</ele><time>2026-05-02T08:40:28.542Z</time></trkpt><trkpt lat="44.1551717" lon="11.9335017"><ele>89.28571428571428</ele><time>2026-05-02T08:40:29.541Z</time></trkpt><trkpt lat="44.1552333" lon="11.93356"><ele>88.57142857142858</ele><time>2026-05-02T08:40:30.541Z</time></trkpt><trkpt lat="44.1552933" lon="11.933625"><ele>87.85714285714286</ele><time>2026-05-02T08:40:31.541Z</time></trkpt><trkpt lat="44.1553517" lon="11.93369"><ele>87.14285714285714</ele><time>2026-05-02T08:40:32.541Z</time></trkpt><trkpt lat="44.1554117" lon="11.93375"><ele>86.42857142857142</ele><time>2026-05-02T08:40:33.541Z</time></trkpt><trkpt lat="44.1554683" lon="11.9338067"><ele>85.71428571428572</ele><time>2026-05-02T08:40:34.541Z</time></trkpt><trkpt lat="44.1555267" lon="11.9338633"><ele>85.0</ele><time>2026-05-02T08:40:35.541Z</time></trkpt><trkpt lat="44.155585" lon="11.9339183"><ele>85.0</ele><time>2026-05-02T08:40:36.541Z</time></trkpt><trkpt lat="44.15564" lon="11.93398"><ele>85.0</ele><time>2026-05-02T08:40:37.541Z</time></trkpt><trkpt lat="44.1556983" lon="11.9340433"><ele>85.0</ele><time>2026-05-02T08:40:38.542Z</time></trkpt><trkpt lat="44.1557583" lon="11.9341067"><ele>85.0</ele><time>2026-05-02T08:40:39.541Z</time></trkpt><trkpt lat="44.1558183" lon="11.934165"><ele>85.0</ele><time>2026-05-02T08:40:40.541Z</time></trkpt><trkpt lat="44.1558817" lon="11.9342167"><ele>85.0</ele><time>2026-05-02T08:40:41.541Z</time></trkpt><trkpt lat="44.15594" lon="11.9342833"><ele>85.0</ele><time>2026-05-02T08:40:42.541Z</time></trkpt><trkpt lat="44.156" lon="11.9343467"><ele>84.57142857142857</ele><time>2026-05-02T08:40:43.541Z</time></trkpt><trkpt lat="44.1560617" lon="11.9344083"><ele>84.14285714285714</ele><time>2026-05-02T08:40:44.541Z</time></trkpt><trkpt lat="44.156125" lon="11.9344667"><ele>83.71428571428571</ele><time>2026-05-02T08:40:45.541Z</time></trkpt><trkpt lat="44.1561833" lon="11.9345283"><ele>83.28571428571428</ele><time>2026-05-02T08:40:46.541Z</time></trkpt><trkpt lat="44.1562433" lon="11.934585"><ele>82.85714285714286</ele><time>2026-05-02T08:40:47.542Z</time></trkpt><trkpt lat="44.1563" lon="11.9346433"><ele>82.42857142857142</ele><time>2026-05-02T08:40:48.541Z</time></trkpt><trkpt lat="44.156355" lon="11.9347"><ele>82.0</ele><time>2026-05-02T08:40:49.541Z</time></trkpt><trkpt lat="44.1564083" lon="11.93476"><ele>81.99999999999999</ele><time>2026-05-02T08:40:50.541Z</time></trkpt><trkpt lat="44.1564617" lon="11.9348333"><ele>82.0</ele><time>2026-05-02T08:40:51.541Z</time></trkpt><trkpt lat="44.1565117" lon="11.9349017"><ele>82.0</ele><time>2026-05-02T08:40:52.541Z</time></trkpt><trkpt lat="44.1565617" lon="11.9349717"><ele>82.0</ele><time>2026-05-02T08:40:53.541Z</time></trkpt><trkpt lat="44.1566133" lon="11.9350417"><ele>82.0</ele><time>2026-05-02T08:40:54.541Z</time></trkpt><trkpt lat="44.1566633" lon="11.9351183"><ele>81.99999999999999</ele><time>2026-05-02T08:40:55.541Z</time></trkpt><trkpt lat="44.15671" lon="11.935195"><ele>82.0</ele><time>2026-05-02T08:40:56.541Z</time></trkpt><trkpt lat="44.1567567" lon="11.9352683"><ele>81.99999999999999</ele><time>2026-05-02T08:40:57.541Z</time></trkpt><trkpt lat="44.1568083" lon="11.9353433"><ele>82.0</ele><time>2026-05-02T08:40:58.541Z</time></trkpt><trkpt lat="44.1568583" lon="11.9354167"><ele>82.0</ele><time>2026-05-02T08:40:59.541Z</time></trkpt><trkpt lat="44.1569067" lon="11.9355"><ele>82.0</ele><time>2026-05-02T08:41:00.541Z</time></trkpt><trkpt lat="44.1569467" lon="11.9355733"><ele>82.0</ele><time>2026-05-02T08:41:01.541Z</time></trkpt><trkpt lat="44.1569933" lon="11.935645"><ele>81.99999999999999</ele><time>2026-05-02T08:41:02.541Z</time></trkpt><trkpt lat="44.1570367" lon="11.9357233"><ele>82.0</ele><time>2026-05-02T08:41:03.541Z</time></trkpt><trkpt lat="44.1570867" lon="11.9357983"><ele>81.99999999999999</ele><time>2026-05-02T08:41:04.541Z</time></trkpt><trkpt lat="44.15713" lon="11.9358833"><ele>82.0</ele><time>2026-05-02T08:41:05.541Z</time></trkpt><trkpt lat="44.1571767" lon="11.9359683"><ele>82.0</ele><time>2026-05-02T08:41:06.541Z</time></trkpt><trkpt lat="44.1572167" lon="11.936045"><ele>82.0</ele><time>2026-05-02T08:41:07.541Z</time></trkpt><trkpt lat="44.1572617" lon="11.9361183"><ele>82.0</ele><time>2026-05-02T08:41:08.541Z</time></trkpt><trkpt lat="44.1573033" lon="11.9361983"><ele>81.99999999999999</ele><time>2026-05-02T08:41:09.541Z</time></trkpt><trkpt lat="44.15734" lon="11.9362767"><ele>82.0</ele><time>2026-05-02T08:41:10.541Z</time></trkpt><trkpt lat="44.15738" lon="11.93635"><ele>81.57142857142857</ele><time>2026-05-02T08:41:11.541Z</time></trkpt><trkpt lat="44.1574233" lon="11.936425"><ele>81.14285714285714</ele><time>2026-05-02T08:41:12.541Z</time></trkpt><trkpt lat="44.1574733" lon="11.9364983"><ele>80.71428571428572</ele><time>2026-05-02T08:41:13.541Z</time></trkpt><trkpt lat="44.1575183" lon="11.9365733"><ele>80.28571428571428</ele><time>2026-05-02T08:41:14.541Z</time></trkpt><trkpt lat="44.1575617" lon="11.9366433"><ele>79.85714285714286</ele><time>2026-05-02T08:41:15.541Z</time></trkpt><trkpt lat="44.1576017" lon="11.9367133"><ele>79.42857142857143</ele><time>2026-05-02T08:41:16.541Z</time></trkpt><trkpt lat="44.1576433" lon="11.93678"><ele>79.0</ele><time>2026-05-02T08:41:17.541Z</time></trkpt><trkpt lat="44.1576867" lon="11.9368567"><ele>78.85714285714286</ele><time>2026-05-02T08:41:18.541Z</time></trkpt><trkpt lat="44.1577317" lon="11.9369317"><ele>78.71428571428572</ele><time>2026-05-02T08:41:19.541Z</time></trkpt><trkpt lat="44.1577767" lon="11.9370083"><ele>78.57142857142858</ele><time>2026-05-02T08:41:20.541Z</time></trkpt><trkpt lat="44.1578167" lon="11.93708"><ele>78.42857142857143</ele><time>2026-05-02T08:41:21.541Z</time></trkpt><trkpt lat="44.1578617" lon="11.93715"><ele>78.28571428571428</ele><time>2026-05-02T08:41:22.541Z</time></trkpt><trkpt lat="44.157905" lon="11.9372283"><ele>78.14285714285715</ele><time>2026-05-02T08:41:23.541Z</time></trkpt><trkpt lat="44.1579483" lon="11.937305"><ele>78.0</ele><time>2026-05-02T08:41:24.541Z</time></trkpt><trkpt lat="44.1579883" lon="11.93738"><ele>78.0</ele><time>2026-05-02T08:41:25.541Z</time></trkpt><trkpt lat="44.15803" lon="11.9374567"><ele>78.0</ele><time>2026-05-02T08:41:26.541Z</time></trkpt><trkpt lat="44.1580717" lon="11.9375317"><ele>78.0</ele><time>2026-05-02T08:41:27.541Z</time></trkpt><trkpt lat="44.1581117" lon="11.937605"><ele>78.0</ele><time>2026-05-02T08:41:28.541Z</time></trkpt><trkpt lat="44.158155" lon="11.9376867"><ele>78.0</ele><time>2026-05-02T08:41:29.541Z</time></trkpt><trkpt lat="44.1581983" lon="11.9377533"><ele>78.0</ele><time>2026-05-02T08:41:30.541Z</time></trkpt><trkpt lat="44.1582417" lon="11.9378183"><ele>78.0</ele><time>2026-05-02T08:41:31.541Z</time></trkpt><trkpt lat="44.15833" lon="11.9379367"><ele>77.71428571428572</ele><time>2026-05-02T08:41:33.541Z</time></trkpt><trkpt lat="44.158375" lon="11.9380017"><ele>77.42857142857142</ele><time>2026-05-02T08:41:34.541Z</time></trkpt><trkpt lat="44.158425" lon="11.93807"><ele>77.14285714285714</ele><time>2026-05-02T08:41:35.541Z</time></trkpt><trkpt lat="44.158475" lon="11.938145"><ele>76.85714285714286</ele><time>2026-05-02T08:41:36.541Z</time></trkpt><trkpt lat="44.158525" lon="11.938215"><ele>76.57142857142858</ele><time>2026-05-02T08:41:37.541Z</time></trkpt><trkpt lat="44.1585783" lon="11.9382833"><ele>76.28571428571428</ele><time>2026-05-02T08:41:38.541Z</time></trkpt><trkpt lat="44.15863" lon="11.938355"><ele>76.0</ele><time>2026-05-02T08:41:39.542Z</time></trkpt><trkpt lat="44.1586867" lon="11.9384267"><ele>75.5</ele><time>2026-05-02T08:41:40.541Z</time></trkpt><trkpt lat="44.158745" lon="11.938505"><ele>75.0</ele><time>2026-05-02T08:41:41.541Z</time></trkpt><trkpt lat="44.1588083" lon="11.93858"><ele>74.5</ele><time>2026-05-02T08:41:42.541Z</time></trkpt><trkpt lat="44.1588767" lon="11.9386633"><ele>74.0</ele><time>2026-05-02T08:41:43.541Z</time></trkpt><trkpt lat="44.158945" lon="11.9387483"><ele>73.5</ele><time>2026-05-02T08:41:44.541Z</time></trkpt><trkpt lat="44.1590183" lon="11.9388283"><ele>73.0</ele><time>2026-05-02T08:41:45.541Z</time></trkpt><trkpt lat="44.1591" lon="11.9389033"><ele>72.25</ele><time>2026-05-02T08:41:46.541Z</time></trkpt><trkpt lat="44.1591883" lon="11.9389817"><ele>71.5</ele><time>2026-05-02T08:41:47.541Z</time></trkpt><trkpt lat="44.1592867" lon="11.93906"><ele>70.75</ele><time>2026-05-02T08:41:48.541Z</time></trkpt><trkpt lat="44.1593933" lon="11.939135"><ele>70.0</ele><time>2026-05-02T08:41:49.541Z</time></trkpt><trkpt lat="44.1594967" lon="11.939205"><ele>69.8</ele><time>2026-05-02T08:41:50.541Z</time></trkpt><trkpt lat="44.1596033" lon="11.9392683"><ele>69.6</ele><time>2026-05-02T08:41:51.541Z</time></trkpt><trkpt lat="44.1597" lon="11.9393433"><ele>69.4</ele><time>2026-05-02T08:41:52.541Z</time></trkpt><trkpt lat="44.1597933" lon="11.9394133"><ele>69.2</ele><time>2026-05-02T08:41:53.541Z</time></trkpt><trkpt lat="44.1598783" lon="11.9394833"><ele>69.0</ele><time>2026-05-02T08:41:54.541Z</time></trkpt><trkpt lat="44.1599567" lon="11.939545"><ele>68.83333333333333</ele><time>2026-05-02T08:41:55.541Z</time></trkpt><trkpt lat="44.1600417" lon="11.9395967"><ele>68.66666666666667</ele><time>2026-05-02T08:41:56.541Z</time></trkpt><trkpt lat="44.160125" lon="11.939655"><ele>68.5</ele><time>2026-05-02T08:41:57.541Z</time></trkpt><trkpt lat="44.1602067" lon="11.939705"><ele>68.33333333333334</ele><time>2026-05-02T08:41:58.541Z</time></trkpt><trkpt lat="44.1602783" lon="11.9397517"><ele>68.16666666666667</ele><time>2026-05-02T08:41:59.541Z</time></trkpt><trkpt lat="44.160345" lon="11.9398"><ele>68.0</ele><time>2026-05-02T08:42:00.541Z</time></trkpt><trkpt lat="44.1604117" lon="11.939845"><ele>68.0</ele><time>2026-05-02T08:42:01.541Z</time></trkpt><trkpt lat="44.160475" lon="11.9398933"><ele>68.0</ele><time>2026-05-02T08:42:02.541Z</time></trkpt><trkpt lat="44.1605383" lon="11.9399383"><ele>68.0</ele><time>2026-05-02T08:42:03.541Z</time></trkpt><trkpt lat="44.1606533" lon="11.9400083"><ele>68.0</ele><time>2026-05-02T08:42:05.541Z</time></trkpt><trkpt lat="44.1607633" lon="11.9400733"><ele>68.0</ele><time>2026-05-02T08:42:07.541Z</time></trkpt><trkpt lat="44.16086" lon="11.9401417"><ele>68.0</ele><time>2026-05-02T08:42:09.541Z</time></trkpt><trkpt lat="44.16096" lon="11.9402083"><ele>68.0</ele><time>2026-05-02T08:42:11.541Z</time></trkpt><trkpt lat="44.16106" lon="11.9402833"><ele>68.0</ele><time>2026-05-02T08:42:13.541Z</time></trkpt><trkpt lat="44.1611633" lon="11.9403667"><ele>68.0</ele><time>2026-05-02T08:42:15.541Z</time></trkpt><trkpt lat="44.16122" lon="11.9404067"><ele>68.0</ele><time>2026-05-02T08:42:16.541Z</time></trkpt><trkpt lat="44.161315" lon="11.940465"><ele>68.0</ele><time>2026-05-02T08:42:18.541Z</time></trkpt><trkpt lat="44.1614117" lon="11.9405317"><ele>68.0</ele><time>2026-05-02T08:42:20.541Z</time></trkpt><trkpt lat="44.1615117" lon="11.940595"><ele>68.0</ele><time>2026-05-02T08:42:22.541Z</time></trkpt><trkpt lat="44.1616117" lon="11.940665"><ele>68.0</ele><time>2026-05-02T08:42:24.541Z</time></trkpt><trkpt lat="44.1617117" lon="11.9407317"><ele>68.0</ele><time>2026-05-02T08:42:26.541Z</time></trkpt><trkpt lat="44.1618117" lon="11.940795"><ele>68.6</ele><time>2026-05-02T08:42:28.541Z</time></trkpt><trkpt lat="44.1619183" lon="11.9408583"><ele>69.19999999999999</ele><time>2026-05-02T08:42:30.541Z</time></trkpt><trkpt lat="44.16202" lon="11.9409167"><ele>69.8</ele><time>2026-05-02T08:42:32.541Z</time></trkpt><trkpt lat="44.1621217" lon="11.9409767"><ele>70.39999999999999</ele><time>2026-05-02T08:42:34.541Z</time></trkpt><trkpt lat="44.16222" lon="11.9410333"><ele>71.0</ele><time>2026-05-02T08:42:36.541Z</time></trkpt><trkpt lat="44.162325" lon="11.941095"><ele>71.39999999999999</ele><time>2026-05-02T08:42:38.541Z</time></trkpt><trkpt lat="44.1624183" lon="11.941165"><ele>71.8</ele><time>2026-05-02T08:42:40.541Z</time></trkpt><trkpt lat="44.16252" lon="11.9412483"><ele>72.19999999999999</ele><time>2026-05-02T08:42:42.541Z</time></trkpt><trkpt lat="44.1626167" lon="11.94132"><ele>72.6</ele><time>2026-05-02T08:42:44.541Z</time></trkpt><trkpt lat="44.1627067" lon="11.94139"><ele>73.0</ele><time>2026-05-02T08:42:46.541Z</time></trkpt><trkpt lat="44.1628117" lon="11.9414633"><ele>73.0</ele><time>2026-05-02T08:42:48.541Z</time></trkpt><trkpt lat="44.1629017" lon="11.9415183"><ele>73.0</ele><time>2026-05-02T08:42:50.541Z</time></trkpt><trkpt lat="44.1629967" lon="11.941585"><ele>73.0</ele><time>2026-05-02T08:42:52.541Z</time></trkpt><trkpt lat="44.163095" lon="11.9416833"><ele>73.0</ele><time>2026-05-02T08:42:54.541Z</time></trkpt><trkpt lat="44.1632017" lon="11.9417717"><ele>73.0</ele><time>2026-05-02T08:42:56.541Z</time></trkpt><trkpt lat="44.163305" lon="11.9418517"><ele>73.0</ele><time>2026-05-02T08:42:58.541Z</time></trkpt><trkpt lat="44.1634033" lon="11.9419267"><ele>73.0</ele><time>2026-05-02T08:43:00.541Z</time></trkpt><trkpt lat="44.1635017" lon="11.9420067"><ele>73.0</ele><time>2026-05-02T08:43:02.541Z</time></trkpt><trkpt lat="44.1635983" lon="11.942085"><ele>73.0</ele><time>2026-05-02T08:43:04.541Z</time></trkpt><trkpt lat="44.1636967" lon="11.9421717"><ele>73.0</ele><time>2026-05-02T08:43:06.541Z</time></trkpt><trkpt lat="44.1637833" lon="11.9422517"><ele>73.0</ele><time>2026-05-02T08:43:08.541Z</time></trkpt><trkpt lat="44.16387" lon="11.942345"><ele>73.0</ele><time>2026-05-02T08:43:10.541Z</time></trkpt><trkpt lat="44.16396" lon="11.942455"><ele>73.0</ele><time>2026-05-02T08:43:12.541Z</time></trkpt><trkpt lat="44.1640433" lon="11.942565"><ele>73.6</ele><time>2026-05-02T08:43:14.541Z</time></trkpt><trkpt lat="44.1641217" lon="11.942675"><ele>74.19999999999999</ele><time>2026-05-02T08:43:16.541Z</time></trkpt><trkpt lat="44.1641983" lon="11.9427817"><ele>74.8</ele><time>2026-05-02T08:43:18.542Z</time></trkpt><trkpt lat="44.164265" lon="11.9428733"><ele>75.39999999999999</ele><time>2026-05-02T08:43:20.542Z</time></trkpt><trkpt lat="44.164345" lon="11.9429617"><ele>76.0</ele><time>2026-05-02T08:43:22.541Z</time></trkpt><trkpt lat="44.1644133" lon="11.9430467"><ele>76.0</ele><time>2026-05-02T08:43:24.541Z</time></trkpt><trkpt lat="44.1644817" lon="11.9431717"><ele>76.0</ele><time>2026-05-02T08:43:26.541Z</time></trkpt><trkpt lat="44.164555" lon="11.9433"><ele>76.0</ele><time>2026-05-02T08:43:28.541Z</time></trkpt><trkpt lat="44.1646333" lon="11.943435"><ele>76.0</ele><time>2026-05-02T08:43:30.542Z</time></trkpt><trkpt lat="44.164665" lon="11.9435167"><ele>76.0</ele><time>2026-05-02T08:43:31.542Z</time></trkpt><trkpt lat="44.164695" lon="11.9435967"><ele>75.5</ele><time>2026-05-02T08:43:32.541Z</time></trkpt><trkpt lat="44.1647533" lon="11.9437517"><ele>75.0</ele><time>2026-05-02T08:43:34.541Z</time></trkpt><trkpt lat="44.1648167" lon="11.943895"><ele>74.5</ele><time>2026-05-02T08:43:36.541Z</time></trkpt><trkpt lat="44.1648667" lon="11.9440367"><ele>74.0</ele><time>2026-05-02T08:43:38.541Z</time></trkpt><trkpt lat="44.164915" lon="11.944175"><ele>73.0</ele><time>2026-05-02T08:43:40.541Z</time></trkpt><trkpt lat="44.1649633" lon="11.9443267"><ele>72.0</ele><time>2026-05-02T08:43:42.542Z</time></trkpt><trkpt lat="44.1649883" lon="11.9444117"><ele>71.0</ele><time>2026-05-02T08:43:43.541Z</time></trkpt><trkpt lat="44.1650117" lon="11.9444933"><ele>70.0</ele><time>2026-05-02T08:43:44.541Z</time></trkpt><trkpt lat="44.1650333" lon="11.9445767"><ele>69.0</ele><time>2026-05-02T08:43:45.541Z</time></trkpt><trkpt lat="44.165065" lon="11.9447517"><ele>68.0</ele><time>2026-05-02T08:43:47.541Z</time></trkpt><trkpt lat="44.1650867" lon="11.94484"><ele>68.0</ele><time>2026-05-02T08:43:48.542Z</time></trkpt><trkpt lat="44.165105" lon="11.94493"><ele>68.0</ele><time>2026-05-02T08:43:49.541Z</time></trkpt><trkpt lat="44.1651267" lon="11.9450167"><ele>68.0</ele><time>2026-05-02T08:43:50.541Z</time></trkpt><trkpt lat="44.1651483" lon="11.9451033"><ele>68.0</ele><time>2026-05-02T08:43:51.541Z</time></trkpt><trkpt lat="44.1651733" lon="11.9452733"><ele>68.0</ele><time>2026-05-02T08:43:53.541Z</time></trkpt><trkpt lat="44.1652067" lon="11.945435"><ele>68.0</ele><time>2026-05-02T08:43:55.541Z</time></trkpt><trkpt lat="44.1652183" lon="11.9455233"><ele>68.0</ele><time>2026-05-02T08:43:56.541Z</time></trkpt><trkpt lat="44.1652317" lon="11.9456883"><ele>68.0</ele><time>2026-05-02T08:43:58.541Z</time></trkpt><trkpt lat="44.165255" lon="11.945855"><ele>68.0</ele><time>2026-05-02T08:44:00.541Z</time></trkpt><trkpt lat="44.1652767" lon="11.94603"><ele>68.0</ele><time>2026-05-02T08:44:02.541Z</time></trkpt><trkpt lat="44.1652883" lon="11.9461167"><ele>68.0</ele><time>2026-05-02T08:44:03.541Z</time></trkpt><trkpt lat="44.1653067" lon="11.946205"><ele>67.6</ele><time>2026-05-02T08:44:04.541Z</time></trkpt><trkpt lat="44.1653183" lon="11.9462967"><ele>67.19999999999999</ele><time>2026-05-02T08:44:05.541Z</time></trkpt><trkpt lat="44.1653383" lon="11.9463833"><ele>66.8</ele><time>2026-05-02T08:44:06.541Z</time></trkpt><trkpt lat="44.1653517" lon="11.946475"><ele>66.39999999999999</ele><time>2026-05-02T08:44:07.541Z</time></trkpt><trkpt lat="44.16538" lon="11.9466467"><ele>66.0</ele><time>2026-05-02T08:44:09.541Z</time></trkpt><trkpt lat="44.1654067" lon="11.94682"><ele>65.66666666666667</ele><time>2026-05-02T08:44:11.541Z</time></trkpt><trkpt lat="44.1654167" lon="11.9469067"><ele>65.33333333333333</ele><time>2026-05-02T08:44:12.541Z</time></trkpt><trkpt lat="44.1654367" lon="11.9470733"><ele>65.0</ele><time>2026-05-02T08:44:14.541Z</time></trkpt><trkpt lat="44.16545" lon="11.94716"><ele>64.66666666666666</ele><time>2026-05-02T08:44:15.541Z</time></trkpt><trkpt lat="44.1654667" lon="11.947335"><ele>64.33333333333333</ele><time>2026-05-02T08:44:17.541Z</time></trkpt><trkpt lat="44.16548" lon="11.947425"><ele>64.0</ele><time>2026-05-02T08:44:18.541Z</time></trkpt><trkpt lat="44.1654933" lon="11.9475133"><ele>63.800000000000004</ele><time>2026-05-02T08:44:19.541Z</time></trkpt><trkpt lat="44.1655083" lon="11.9476"><ele>63.60000000000001</ele><time>2026-05-02T08:44:20.541Z</time></trkpt><trkpt lat="44.1655433" lon="11.94776"><ele>63.4</ele><time>2026-05-02T08:44:22.541Z</time></trkpt><trkpt lat="44.165565" lon="11.947915"><ele>63.2</ele><time>2026-05-02T08:44:24.541Z</time></trkpt><trkpt lat="44.16559" lon="11.9480683"><ele>63.0</ele><time>2026-05-02T08:44:26.541Z</time></trkpt><trkpt lat="44.1656133" lon="11.9482183"><ele>63.0</ele><time>2026-05-02T08:44:28.541Z</time></trkpt><trkpt lat="44.1656317" lon="11.9483717"><ele>63.0</ele><time>2026-05-02T08:44:30.541Z</time></trkpt><trkpt lat="44.165655" lon="11.9485133"><ele>63.0</ele><time>2026-05-02T08:44:32.541Z</time></trkpt><trkpt lat="44.1656833" lon="11.9486533"><ele>63.0</ele><time>2026-05-02T08:44:34.541Z</time></trkpt><trkpt lat="44.165715" lon="11.9487833"><ele>63.0</ele><time>2026-05-02T08:44:36.541Z</time></trkpt><trkpt lat="44.1657317" lon="11.9489217"><ele>63.599999999999994</ele><time>2026-05-02T08:44:38.541Z</time></trkpt><trkpt lat="44.165755" lon="11.9490583"><ele>64.19999999999999</ele><time>2026-05-02T08:44:40.541Z</time></trkpt><trkpt lat="44.165785" lon="11.94918"><ele>64.8</ele><time>2026-05-02T08:44:42.541Z</time></trkpt><trkpt lat="44.1658183" lon="11.9493"><ele>65.39999999999999</ele><time>2026-05-02T08:44:44.541Z</time></trkpt><trkpt lat="44.1658533" lon="11.9494267"><ele>66.0</ele><time>2026-05-02T08:44:46.541Z</time></trkpt><trkpt lat="44.1658867" lon="11.9495483"><ele>66.83333333333333</ele><time>2026-05-02T08:44:48.541Z</time></trkpt><trkpt lat="44.1659133" lon="11.9496583"><ele>67.66666666666667</ele><time>2026-05-02T08:44:50.541Z</time></trkpt><trkpt lat="44.16595" lon="11.9497617"><ele>68.5</ele><time>2026-05-02T08:44:52.541Z</time></trkpt><trkpt lat="44.1659817" lon="11.9498683"><ele>69.33333333333334</ele><time>2026-05-02T08:44:54.541Z</time></trkpt><trkpt lat="44.1660217" lon="11.9499817"><ele>70.16666666666667</ele><time>2026-05-02T08:44:56.541Z</time></trkpt><trkpt lat="44.1660567" lon="11.9500817"><ele>71.0</ele><time>2026-05-02T08:44:58.541Z</time></trkpt><trkpt lat="44.1660867" lon="11.9502183"><ele>73.16666666666667</ele><time>2026-05-02T08:45:03.54Z</time></trkpt><trkpt lat="44.1661167" lon="11.9503"><ele>75.33333333333334</ele><time>2026-05-02T08:45:05.04Z</time></trkpt><trkpt lat="44.16615" lon="11.9503767"><ele>77.5</ele><time>2026-05-02T08:45:06.54Z</time></trkpt><trkpt lat="44.1661933" lon="11.95047"><ele>79.66666666666667</ele><time>2026-05-02T08:45:08.54Z</time></trkpt><trkpt lat="44.1662417" lon="11.9505683"><ele>81.83333333333333</ele><time>2026-05-02T08:45:10.54Z</time></trkpt><trkpt lat="44.16629" lon="11.950665"><ele>84.0</ele><time>2026-05-02T08:45:12.54Z</time></trkpt><trkpt lat="44.1663383" lon="11.95075"><ele>84.0</ele><time>2026-05-02T08:45:14.54Z</time></trkpt><trkpt lat="44.1663817" lon="11.9508183"><ele>84.0</ele><time>2026-05-02T08:45:16.54Z</time></trkpt><trkpt lat="44.1664183" lon="11.9508933"><ele>84.0</ele><time>2026-05-02T08:45:18.54Z</time></trkpt><trkpt lat="44.1664717" lon="11.9509883"><ele>84.0</ele><time>2026-05-02T08:45:21.54Z</time></trkpt><trkpt lat="44.1665067" lon="11.95108"><ele>84.0</ele><time>2026-05-02T08:45:23.54Z</time></trkpt><trkpt lat="44.16655" lon="11.95117"><ele>84.0</ele><time>2026-05-02T08:45:25.54Z</time></trkpt><trkpt lat="44.1665933" lon="11.9512517"><ele>84.0</ele><time>2026-05-02T08:45:27.541Z</time></trkpt><trkpt lat="44.1666317" lon="11.9513467"><ele>84.83333333333333</ele><time>2026-05-02T08:45:29.54Z</time></trkpt><trkpt lat="44.166675" lon="11.9514517"><ele>85.66666666666667</ele><time>2026-05-02T08:45:31.54Z</time></trkpt><trkpt lat="44.1667117" lon="11.951555"><ele>86.5</ele><time>2026-05-02T08:45:33.54Z</time></trkpt><trkpt lat="44.16675" lon="11.9516417"><ele>87.33333333333334</ele><time>2026-05-02T08:45:35.54Z</time></trkpt><trkpt lat="44.16679" lon="11.9517283"><ele>88.16666666666667</ele><time>2026-05-02T08:45:37.54Z</time></trkpt><trkpt lat="44.1668267" lon="11.9518117"><ele>89.0</ele><time>2026-05-02T08:45:39.54Z</time></trkpt><trkpt lat="44.166865" lon="11.9518983"><ele>90.33333333333334</ele><time>2026-05-02T08:45:41.54Z</time></trkpt><trkpt lat="44.1669" lon="11.9519783"><ele>91.66666666666667</ele><time>2026-05-02T08:45:43.54Z</time></trkpt><trkpt lat="44.1669433" lon="11.9520817"><ele>93.0</ele><time>2026-05-02T08:45:46.54Z</time></trkpt><trkpt lat="44.1669833" lon="11.952155"><ele>94.33333333333334</ele><time>2026-05-02T08:45:48.54Z</time></trkpt><trkpt lat="44.1670183" lon="11.9522283"><ele>95.66666666666667</ele><time>2026-05-02T08:45:50.54Z</time></trkpt><trkpt lat="44.1670783" lon="11.9523317"><ele>97.0</ele><time>2026-05-02T08:45:53.54Z</time></trkpt><trkpt lat="44.1671283" lon="11.9524367"><ele>97.00000000000001</ele><time>2026-05-02T08:45:56.54Z</time></trkpt><trkpt lat="44.16717" lon="11.9525217"><ele>97.0</ele><time>2026-05-02T08:45:58.54Z</time></trkpt><trkpt lat="44.16721" lon="11.9526117"><ele>97.0</ele><time>2026-05-02T08:46:00.54Z</time></trkpt><trkpt lat="44.16725" lon="11.9527067"><ele>97.0</ele><time>2026-05-02T08:46:02.54Z</time></trkpt><trkpt lat="44.16729" lon="11.9528083"><ele>97.00000000000001</ele><time>2026-05-02T08:46:04.54Z</time></trkpt><trkpt lat="44.1673317" lon="11.9529083"><ele>97.0</ele><time>2026-05-02T08:46:06.54Z</time></trkpt><trkpt lat="44.1673733" lon="11.953015"><ele>97.6</ele><time>2026-05-02T08:46:08.54Z</time></trkpt><trkpt lat="44.1674167" lon="11.9531233"><ele>98.19999999999999</ele><time>2026-05-02T08:46:10.54Z</time></trkpt><trkpt lat="44.1674583" lon="11.9532383"><ele>98.8</ele><time>2026-05-02T08:46:12.541Z</time></trkpt><trkpt lat="44.1674967" lon="11.9533433"><ele>99.4</ele><time>2026-05-02T08:46:14.54Z</time></trkpt><trkpt lat="44.1675433" lon="11.9534633"><ele>100.0</ele><time>2026-05-02T08:46:16.541Z</time></trkpt><trkpt lat="44.167595" lon="11.9535967"><ele>100.0</ele><time>2026-05-02T08:46:18.54Z</time></trkpt><trkpt lat="44.1676517" lon="11.9537183"><ele>100.0</ele><time>2026-05-02T08:46:20.54Z</time></trkpt><trkpt lat="44.167705" lon="11.9538383"><ele>100.0</ele><time>2026-05-02T08:46:22.54Z</time></trkpt><trkpt lat="44.1677533" lon="11.9539667"><ele>100.0</ele><time>2026-05-02T08:46:24.54Z</time></trkpt><trkpt lat="44.1678083" lon="11.9540733"><ele>100.0</ele><time>2026-05-02T08:46:26.54Z</time></trkpt><trkpt lat="44.1678567" lon="11.9541683"><ele>101.4</ele><time>2026-05-02T08:46:28.54Z</time></trkpt><trkpt lat="44.1679033" lon="11.9542667"><ele>102.8</ele><time>2026-05-02T08:46:30.54Z</time></trkpt><trkpt lat="44.1679483" lon="11.9543717"><ele>104.19999999999999</ele><time>2026-05-02T08:46:32.54Z</time></trkpt><trkpt lat="44.1679983" lon="11.954485"><ele>105.6</ele><time>2026-05-02T08:46:34.54Z</time></trkpt><trkpt lat="44.1680467" lon="11.954595"><ele>107.0</ele><time>2026-05-02T08:46:36.54Z</time></trkpt><trkpt lat="44.1680967" lon="11.9547"><ele>107.0</ele><time>2026-05-02T08:46:38.54Z</time></trkpt><trkpt lat="44.1681433" lon="11.95481"><ele>106.99999999999999</ele><time>2026-05-02T08:46:40.54Z</time></trkpt><trkpt lat="44.1681917" lon="11.95492"><ele>106.99999999999999</ele><time>2026-05-02T08:46:42.54Z</time></trkpt><trkpt lat="44.1682383" lon="11.9550233"><ele>107.0</ele><time>2026-05-02T08:46:44.54Z</time></trkpt><trkpt lat="44.16828" lon="11.955135"><ele>107.0</ele><time>2026-05-02T08:46:46.54Z</time></trkpt><trkpt lat="44.168335" lon="11.9552483"><ele>105.39999999999999</ele><time>2026-05-02T08:46:48.541Z</time></trkpt><trkpt lat="44.1683883" lon="11.9553567"><ele>103.79999999999998</ele><time>2026-05-02T08:46:50.54Z</time></trkpt><trkpt lat="44.1684417" lon="11.9554767"><ele>102.2</ele><time>2026-05-02T08:46:52.54Z</time></trkpt><trkpt lat="44.1685" lon="11.95561"><ele>100.6</ele><time>2026-05-02T08:46:54.54Z</time></trkpt><trkpt lat="44.16856" lon="11.95574"><ele>99.0</ele><time>2026-05-02T08:46:56.54Z</time></trkpt><trkpt lat="44.168615" lon="11.95586"><ele>99.6</ele><time>2026-05-02T08:46:58.54Z</time></trkpt><trkpt lat="44.1686717" lon="11.9559717"><ele>100.2</ele><time>2026-05-02T08:47:00.54Z</time></trkpt><trkpt lat="44.1687283" lon="11.9561"><ele>100.8</ele><time>2026-05-02T08:47:02.54Z</time></trkpt><trkpt lat="44.1687833" lon="11.9562317"><ele>101.39999999999999</ele><time>2026-05-02T08:47:04.54Z</time></trkpt><trkpt lat="44.1688433" lon="11.9563617"><ele>102.0</ele><time>2026-05-02T08:47:06.54Z</time></trkpt><trkpt lat="44.168905" lon="11.95649"><ele>102.0</ele><time>2026-05-02T08:47:08.54Z</time></trkpt><trkpt lat="44.168965" lon="11.956625"><ele>102.0</ele><time>2026-05-02T08:47:10.54Z</time></trkpt><trkpt lat="44.1690233" lon="11.9567567"><ele>102.0</ele><time>2026-05-02T08:47:12.54Z</time></trkpt><trkpt lat="44.1690833" lon="11.95689"><ele>102.0</ele><time>2026-05-02T08:47:14.54Z</time></trkpt><trkpt lat="44.1691433" lon="11.9570417"><ele>101.25</ele><time>2026-05-02T08:47:16.54Z</time></trkpt><trkpt lat="44.1692117" lon="11.9571767"><ele>100.5</ele><time>2026-05-02T08:47:18.54Z</time></trkpt><trkpt lat="44.169285" lon="11.9573133"><ele>99.75</ele><time>2026-05-02T08:47:20.54Z</time></trkpt><trkpt lat="44.1693533" lon="11.95744"><ele>99.0</ele><time>2026-05-02T08:47:22.54Z</time></trkpt><trkpt lat="44.1694267" lon="11.9575683"><ele>99.0</ele><time>2026-05-02T08:47:24.54Z</time></trkpt><trkpt lat="44.1695" lon="11.9576967"><ele>99.0</ele><time>2026-05-02T08:47:26.54Z</time></trkpt><trkpt lat="44.1695717" lon="11.95782"><ele>99.0</ele><time>2026-05-02T08:47:28.541Z</time></trkpt><trkpt lat="44.1696117" lon="11.9578917"><ele>99.0</ele><time>2026-05-02T08:47:29.54Z</time></trkpt><trkpt lat="44.1696517" lon="11.9579633"><ele>99.0</ele><time>2026-05-02T08:47:30.54Z</time></trkpt><trkpt lat="44.1696933" lon="11.9580317"><ele>99.0</ele><time>2026-05-02T08:47:31.54Z</time></trkpt><trkpt lat="44.1697767" lon="11.9581617"><ele>99.0</ele><time>2026-05-02T08:47:33.54Z</time></trkpt><trkpt lat="44.1698583" lon="11.9582917"><ele>99.0</ele><time>2026-05-02T08:47:35.54Z</time></trkpt><trkpt lat="44.1699333" lon="11.9584167"><ele>99.0</ele><time>2026-05-02T08:47:37.54Z</time></trkpt><trkpt lat="44.1700117" lon="11.9585317"><ele>99.0</ele><time>2026-05-02T08:47:39.54Z</time></trkpt><trkpt lat="44.170105" lon="11.9586417"><ele>98.2</ele><time>2026-05-02T08:47:41.54Z</time></trkpt><trkpt lat="44.1701517" lon="11.958705"><ele>97.4</ele><time>2026-05-02T08:47:42.54Z</time></trkpt><trkpt lat="44.1702383" lon="11.9588317"><ele>96.6</ele><time>2026-05-02T08:47:44.54Z</time></trkpt><trkpt lat="44.1703167" lon="11.95895"><ele>95.8</ele><time>2026-05-02T08:47:46.54Z</time></trkpt><trkpt lat="44.170405" lon="11.9590617"><ele>95.0</ele><time>2026-05-02T08:47:48.54Z</time></trkpt><trkpt lat="44.17049" lon="11.9591867"><ele>94.42857142857143</ele><time>2026-05-02T08:47:50.54Z</time></trkpt><trkpt lat="44.1705367" lon="11.95925"><ele>93.85714285714286</ele><time>2026-05-02T08:47:51.54Z</time></trkpt><trkpt lat="44.1705817" lon="11.9593117"><ele>93.28571428571428</ele><time>2026-05-02T08:47:52.54Z</time></trkpt><trkpt lat="44.17063" lon="11.95938"><ele>92.71428571428572</ele><time>2026-05-02T08:47:53.54Z</time></trkpt><trkpt lat="44.170675" lon="11.9594433"><ele>92.14285714285714</ele><time>2026-05-02T08:47:54.54Z</time></trkpt><trkpt lat="44.1707233" lon="11.95951"><ele>91.57142857142857</ele><time>2026-05-02T08:47:55.54Z</time></trkpt><trkpt lat="44.1707683" lon="11.9595767"><ele>91.0</ele><time>2026-05-02T08:47:56.54Z</time></trkpt><trkpt lat="44.1708533" lon="11.959695"><ele>91.0</ele><time>2026-05-02T08:47:58.54Z</time></trkpt><trkpt lat="44.1709333" lon="11.9598117"><ele>91.0</ele><time>2026-05-02T08:48:00.54Z</time></trkpt><trkpt lat="44.17102" lon="11.95993"><ele>91.0</ele><time>2026-05-02T08:48:02.54Z</time></trkpt><trkpt lat="44.1711083" lon="11.96005"><ele>91.0</ele><time>2026-05-02T08:48:04.54Z</time></trkpt><trkpt lat="44.1711567" lon="11.96011"><ele>91.0</ele><time>2026-05-02T08:48:05.54Z</time></trkpt><trkpt lat="44.1712433" lon="11.9602217"><ele>90.19999999999999</ele><time>2026-05-02T08:48:07.54Z</time></trkpt><trkpt lat="44.17132" lon="11.96033"><ele>89.39999999999999</ele><time>2026-05-02T08:48:09.54Z</time></trkpt><trkpt lat="44.171405" lon="11.96044"><ele>88.6</ele><time>2026-05-02T08:48:11.54Z</time></trkpt><trkpt lat="44.1714883" lon="11.9605467"><ele>87.8</ele><time>2026-05-02T08:48:13.54Z</time></trkpt><trkpt lat="44.1715317" lon="11.9606117"><ele>87.0</ele><time>2026-05-02T08:48:14.54Z</time></trkpt><trkpt lat="44.1716133" lon="11.9607217"><ele>87.0</ele><time>2026-05-02T08:48:16.54Z</time></trkpt><trkpt lat="44.1717017" lon="11.96084"><ele>87.0</ele><time>2026-05-02T08:48:18.541Z</time></trkpt><trkpt lat="44.1717467" lon="11.960905"><ele>87.0</ele><time>2026-05-02T08:48:19.54Z</time></trkpt><trkpt lat="44.1717933" lon="11.9609783"><ele>87.0</ele><time>2026-05-02T08:48:20.54Z</time></trkpt><trkpt lat="44.171845" lon="11.9610433"><ele>87.0</ele><time>2026-05-02T08:48:21.54Z</time></trkpt><trkpt lat="44.1718883" lon="11.9611117"><ele>87.0</ele><time>2026-05-02T08:48:22.54Z</time></trkpt><trkpt lat="44.1719417" lon="11.9611833"><ele>87.28571428571428</ele><time>2026-05-02T08:48:23.54Z</time></trkpt><trkpt lat="44.1719883" lon="11.9612483"><ele>87.57142857142857</ele><time>2026-05-02T08:48:24.54Z</time></trkpt><trkpt lat="44.172045" lon="11.9613217"><ele>87.85714285714286</ele><time>2026-05-02T08:48:25.54Z</time></trkpt><trkpt lat="44.1721017" lon="11.9613933"><ele>88.14285714285714</ele><time>2026-05-02T08:48:26.54Z</time></trkpt><trkpt lat="44.1721517" lon="11.9614683"><ele>88.42857142857143</ele><time>2026-05-02T08:48:27.54Z</time></trkpt><trkpt lat="44.1722" lon="11.9615383"><ele>88.71428571428571</ele><time>2026-05-02T08:48:28.541Z</time></trkpt><trkpt lat="44.1722483" lon="11.9616017"><ele>89.0</ele><time>2026-05-02T08:48:29.54Z</time></trkpt><trkpt lat="44.1722983" lon="11.9616583"><ele>89.0</ele><time>2026-05-02T08:48:30.54Z</time></trkpt><trkpt lat="44.1723433" lon="11.96172"><ele>89.0</ele><time>2026-05-02T08:48:31.54Z</time></trkpt><trkpt lat="44.1724317" lon="11.961845"><ele>89.0</ele><time>2026-05-02T08:48:33.54Z</time></trkpt><trkpt lat="44.1724783" lon="11.9619083"><ele>89.0</ele><time>2026-05-02T08:48:34.54Z</time></trkpt><trkpt lat="44.172525" lon="11.9619717"><ele>89.0</ele><time>2026-05-02T08:48:35.54Z</time></trkpt><trkpt lat="44.172615" lon="11.9621083"><ele>88.99999999999999</ele><time>2026-05-02T08:48:37.54Z</time></trkpt><trkpt lat="44.1726667" lon="11.96218"><ele>89.0</ele><time>2026-05-02T08:48:38.54Z</time></trkpt><trkpt lat="44.1727183" lon="11.9622483"><ele>89.0</ele><time>2026-05-02T08:48:39.54Z</time></trkpt><trkpt lat="44.1727717" lon="11.962315"><ele>89.0</ele><time>2026-05-02T08:48:40.54Z</time></trkpt><trkpt lat="44.172825" lon="11.962385"><ele>89.0</ele><time>2026-05-02T08:48:41.54Z</time></trkpt><trkpt lat="44.172875" lon="11.9624533"><ele>88.99999999999999</ele><time>2026-05-02T08:48:42.54Z</time></trkpt><trkpt lat="44.172925" lon="11.962515"><ele>89.0</ele><time>2026-05-02T08:48:43.54Z</time></trkpt><trkpt lat="44.17297" lon="11.9625817"><ele>88.99999999999999</ele><time>2026-05-02T08:48:44.54Z</time></trkpt><trkpt lat="44.17302" lon="11.9626467"><ele>89.0</ele><time>2026-05-02T08:48:45.54Z</time></trkpt><trkpt lat="44.17307" lon="11.962715"><ele>89.0</ele><time>2026-05-02T08:48:46.54Z</time></trkpt><trkpt lat="44.173115" lon="11.9627767"><ele>89.0</ele><time>2026-05-02T08:48:47.54Z</time></trkpt><trkpt lat="44.17316" lon="11.9628433"><ele>89.0</ele><time>2026-05-02T08:48:48.54Z</time></trkpt><trkpt lat="44.1732017" lon="11.9629133"><ele>88.99999999999999</ele><time>2026-05-02T08:48:49.54Z</time></trkpt><trkpt lat="44.1732517" lon="11.96298"><ele>89.0</ele><time>2026-05-02T08:48:50.54Z</time></trkpt><trkpt lat="44.1733067" lon="11.9630467"><ele>88.99999999999999</ele><time>2026-05-02T08:48:51.54Z</time></trkpt><trkpt lat="44.1733567" lon="11.9631133"><ele>89.0</ele><time>2026-05-02T08:48:52.54Z</time></trkpt><trkpt lat="44.1734117" lon="11.9631767"><ele>89.0</ele><time>2026-05-02T08:48:53.54Z</time></trkpt><trkpt lat="44.1734633" lon="11.96324"><ele>89.0</ele><time>2026-05-02T08:48:54.54Z</time></trkpt><trkpt lat="44.173515" lon="11.9633067"><ele>89.0</ele><time>2026-05-02T08:48:55.54Z</time></trkpt><trkpt lat="44.173565" lon="11.9633733"><ele>88.99999999999999</ele><time>2026-05-02T08:48:56.54Z</time></trkpt><trkpt lat="44.173615" lon="11.9634367"><ele>89.0</ele><time>2026-05-02T08:48:57.54Z</time></trkpt><trkpt lat="44.1736683" lon="11.9634983"><ele>90.16666666666667</ele><time>2026-05-02T08:48:58.54Z</time></trkpt><trkpt lat="44.1737167" lon="11.9635633"><ele>91.33333333333334</ele><time>2026-05-02T08:48:59.54Z</time></trkpt><trkpt lat="44.1738067" lon="11.9636867"><ele>92.5</ele><time>2026-05-02T08:49:01.54Z</time></trkpt><trkpt lat="44.173855" lon="11.9637433"><ele>93.66666666666667</ele><time>2026-05-02T08:49:02.54Z</time></trkpt><trkpt lat="44.1739033" lon="11.963805"><ele>94.83333333333333</ele><time>2026-05-02T08:49:03.54Z</time></trkpt><trkpt lat="44.1739533" lon="11.9638667"><ele>96.0</ele><time>2026-05-02T08:49:04.54Z</time></trkpt><trkpt lat="44.1740067" lon="11.963925"><ele>95.71428571428571</ele><time>2026-05-02T08:49:05.54Z</time></trkpt><trkpt lat="44.17406" lon="11.9639833"><ele>95.42857142857143</ele><time>2026-05-02T08:49:06.54Z</time></trkpt><trkpt lat="44.174115" lon="11.964045"><ele>95.14285714285714</ele><time>2026-05-02T08:49:07.54Z</time></trkpt><trkpt lat="44.1741683" lon="11.9641"><ele>94.85714285714286</ele><time>2026-05-02T08:49:08.54Z</time></trkpt><trkpt lat="44.17422" lon="11.96416"><ele>94.57142857142857</ele><time>2026-05-02T08:49:09.54Z</time></trkpt><trkpt lat="44.1742717" lon="11.9642183"><ele>94.28571428571428</ele><time>2026-05-02T08:49:10.54Z</time></trkpt><trkpt lat="44.1743233" lon="11.9642767"><ele>94.0</ele><time>2026-05-02T08:49:11.54Z</time></trkpt><trkpt lat="44.174375" lon="11.9643367"><ele>94.0</ele><time>2026-05-02T08:49:12.54Z</time></trkpt><trkpt lat="44.17443" lon="11.9643917"><ele>94.0</ele><time>2026-05-02T08:49:13.54Z</time></trkpt><trkpt lat="44.1745317" lon="11.9645033"><ele>94.0</ele><time>2026-05-02T08:49:15.54Z</time></trkpt><trkpt lat="44.1745883" lon="11.9645617"><ele>94.0</ele><time>2026-05-02T08:49:16.54Z</time></trkpt><trkpt lat="44.1746483" lon="11.964615"><ele>94.0</ele><time>2026-05-02T08:49:17.54Z</time></trkpt><trkpt lat="44.174705" lon="11.96467"><ele>94.0</ele><time>2026-05-02T08:49:18.54Z</time></trkpt><trkpt lat="44.1747617" lon="11.9647283"><ele>94.0</ele><time>2026-05-02T08:49:19.54Z</time></trkpt><trkpt lat="44.17482" lon="11.9647783"><ele>94.0</ele><time>2026-05-02T08:49:20.54Z</time></trkpt><trkpt lat="44.1748767" lon="11.9648317"><ele>94.0</ele><time>2026-05-02T08:49:21.54Z</time></trkpt><trkpt lat="44.17493" lon="11.9648883"><ele>94.0</ele><time>2026-05-02T08:49:22.54Z</time></trkpt><trkpt lat="44.174985" lon="11.964945"><ele>94.0</ele><time>2026-05-02T08:49:23.54Z</time></trkpt><trkpt lat="44.175045" lon="11.964995"><ele>94.0</ele><time>2026-05-02T08:49:24.54Z</time></trkpt><trkpt lat="44.1751017" lon="11.965045"><ele>94.0</ele><time>2026-05-02T08:49:25.54Z</time></trkpt><trkpt lat="44.1751567" lon="11.9650983"><ele>94.14285714285714</ele><time>2026-05-02T08:49:26.54Z</time></trkpt><trkpt lat="44.175215" lon="11.96515"><ele>94.28571428571428</ele><time>2026-05-02T08:49:27.54Z</time></trkpt><trkpt lat="44.1752733" lon="11.9652017"><ele>94.42857142857143</ele><time>2026-05-02T08:49:28.54Z</time></trkpt><trkpt lat="44.17533" lon="11.965255"><ele>94.57142857142857</ele><time>2026-05-02T08:49:29.54Z</time></trkpt><trkpt lat="44.17539" lon="11.9653"><ele>94.71428571428572</ele><time>2026-05-02T08:49:30.54Z</time></trkpt><trkpt lat="44.175445" lon="11.96535"><ele>94.85714285714286</ele><time>2026-05-02T08:49:31.54Z</time></trkpt><trkpt lat="44.1755" lon="11.9653983"><ele>95.0</ele><time>2026-05-02T08:49:32.54Z</time></trkpt><trkpt lat="44.1756067" lon="11.96549"><ele>95.0</ele><time>2026-05-02T08:49:34.54Z</time></trkpt><trkpt lat="44.17566" lon="11.9655433"><ele>95.0</ele><time>2026-05-02T08:49:35.54Z</time></trkpt><trkpt lat="44.1757167" lon="11.9655933"><ele>95.0</ele><time>2026-05-02T08:49:36.54Z</time></trkpt><trkpt lat="44.1757717" lon="11.9656383"><ele>95.0</ele><time>2026-05-02T08:49:37.54Z</time></trkpt><trkpt lat="44.175825" lon="11.9656867"><ele>95.0</ele><time>2026-05-02T08:49:38.54Z</time></trkpt><trkpt lat="44.1758783" lon="11.9657467"><ele>95.0</ele><time>2026-05-02T08:49:39.54Z</time></trkpt><trkpt lat="44.1759317" lon="11.965805"><ele>95.0</ele><time>2026-05-02T08:49:40.54Z</time></trkpt><trkpt lat="44.1759867" lon="11.96586"><ele>94.71428571428572</ele><time>2026-05-02T08:49:41.541Z</time></trkpt><trkpt lat="44.17604" lon="11.9659267"><ele>94.42857142857143</ele><time>2026-05-02T08:49:42.541Z</time></trkpt><trkpt lat="44.1760833" lon="11.9659967"><ele>94.14285714285714</ele><time>2026-05-02T08:49:43.54Z</time></trkpt><trkpt lat="44.1761233" lon="11.9660683"><ele>93.85714285714286</ele><time>2026-05-02T08:49:44.54Z</time></trkpt><trkpt lat="44.1761617" lon="11.9661467"><ele>93.57142857142857</ele><time>2026-05-02T08:49:45.54Z</time></trkpt><trkpt lat="44.1761967" lon="11.9662267"><ele>93.28571428571429</ele><time>2026-05-02T08:49:46.54Z</time></trkpt><trkpt lat="44.1762317" lon="11.9663067"><ele>93.0</ele><time>2026-05-02T08:49:47.54Z</time></trkpt><trkpt lat="44.1762883" lon="11.966465"><ele>93.0</ele><time>2026-05-02T08:49:49.541Z</time></trkpt><trkpt lat="44.176335" lon="11.9666217"><ele>93.0</ele><time>2026-05-02T08:49:51.54Z</time></trkpt><trkpt lat="44.176355" lon="11.9667933"><ele>93.0</ele><time>2026-05-02T08:49:53.54Z</time></trkpt><trkpt lat="44.1763667" lon="11.96688"><ele>93.0</ele><time>2026-05-02T08:49:54.54Z</time></trkpt><trkpt lat="44.1763917" lon="11.967035"><ele>93.0</ele><time>2026-05-02T08:49:56.54Z</time></trkpt><trkpt lat="44.1764167" lon="11.967195"><ele>93.2</ele><time>2026-05-02T08:49:58.54Z</time></trkpt><trkpt lat="44.1764583" lon="11.96734"><ele>93.4</ele><time>2026-05-02T08:50:00.541Z</time></trkpt><trkpt lat="44.176515" lon="11.96748"><ele>93.60000000000001</ele><time>2026-05-02T08:50:02.54Z</time></trkpt><trkpt lat="44.17655" lon="11.967555"><ele>93.80000000000001</ele><time>2026-05-02T08:50:03.54Z</time></trkpt><trkpt lat="44.176615" lon="11.967695"><ele>94.0</ele><time>2026-05-02T08:50:05.54Z</time></trkpt><trkpt lat="44.1766833" lon="11.9677867"><ele>93.6</ele><time>2026-05-02T08:50:07.54Z</time></trkpt><trkpt lat="44.1767567" lon="11.9678617"><ele>93.2</ele><time>2026-05-02T08:50:09.54Z</time></trkpt><trkpt lat="44.1768467" lon="11.96793"><ele>92.8</ele><time>2026-05-02T08:50:11.54Z</time></trkpt><trkpt lat="44.1769467" lon="11.9679983"><ele>92.39999999999999</ele><time>2026-05-02T08:50:13.541Z</time></trkpt><trkpt lat="44.1770617" lon="11.9680633"><ele>92.0</ele><time>2026-05-02T08:50:15.54Z</time></trkpt><trkpt lat="44.177185" lon="11.9681167"><ele>92.0</ele><time>2026-05-02T08:50:17.54Z</time></trkpt><trkpt lat="44.1772467" lon="11.9681367"><ele>92.0</ele><time>2026-05-02T08:50:18.54Z</time></trkpt><trkpt lat="44.177375" lon="11.9681717"><ele>92.0</ele><time>2026-05-02T08:50:20.54Z</time></trkpt><trkpt lat="44.1774383" lon="11.968185"><ele>92.0</ele><time>2026-05-02T08:50:21.54Z</time></trkpt><trkpt lat="44.1775067" lon="11.9681917"><ele>92.0</ele><time>2026-05-02T08:50:22.54Z</time></trkpt><trkpt lat="44.17757" lon="11.9682"><ele>92.0</ele><time>2026-05-02T08:50:23.54Z</time></trkpt><trkpt lat="44.17764" lon="11.9682283"><ele>92.28571428571429</ele><time>2026-05-02T08:50:24.54Z</time></trkpt><trkpt lat="44.1777067" lon="11.9682567"><ele>92.57142857142857</ele><time>2026-05-02T08:50:25.54Z</time></trkpt><trkpt lat="44.1777733" lon="11.968285"><ele>92.85714285714286</ele><time>2026-05-02T08:50:26.54Z</time></trkpt><trkpt lat="44.1778433" lon="11.9683117"><ele>93.14285714285714</ele><time>2026-05-02T08:50:27.54Z</time></trkpt><trkpt lat="44.177915" lon="11.9683367"><ele>93.42857142857142</ele><time>2026-05-02T08:50:28.54Z</time></trkpt><trkpt lat="44.1779817" lon="11.9683683"><ele>93.71428571428571</ele><time>2026-05-02T08:50:29.54Z</time></trkpt><trkpt lat="44.1780467" lon="11.9684067"><ele>94.0</ele><time>2026-05-02T08:50:30.54Z</time></trkpt><trkpt lat="44.1781067" lon="11.9684517"><ele>94.0</ele><time>2026-05-02T08:50:31.54Z</time></trkpt><trkpt lat="44.17817" lon="11.9684967"><ele>94.0</ele><time>2026-05-02T08:50:32.54Z</time></trkpt><trkpt lat="44.1782317" lon="11.96854"><ele>94.0</ele><time>2026-05-02T08:50:33.54Z</time></trkpt><trkpt lat="44.1782883" lon="11.968585"><ele>94.0</ele><time>2026-05-02T08:50:34.54Z</time></trkpt><trkpt lat="44.1783467" lon="11.9686533"><ele>94.0</ele><time>2026-05-02T08:50:35.54Z</time></trkpt><trkpt lat="44.1783983" lon="11.9687067"><ele>94.0</ele><time>2026-05-02T08:50:36.54Z</time></trkpt><trkpt lat="44.1784517" lon="11.9687683"><ele>94.0</ele><time>2026-05-02T08:50:37.54Z</time></trkpt><trkpt lat="44.178505" lon="11.9688233"><ele>93.6</ele><time>2026-05-02T08:50:38.54Z</time></trkpt><trkpt lat="44.1785583" lon="11.968885"><ele>93.2</ele><time>2026-05-02T08:50:39.54Z</time></trkpt><trkpt lat="44.178645" lon="11.9690033"><ele>92.8</ele><time>2026-05-02T08:50:41.54Z</time></trkpt><trkpt lat="44.178725" lon="11.9691283"><ele>92.39999999999999</ele><time>2026-05-02T08:50:43.54Z</time></trkpt><trkpt lat="44.1787717" lon="11.9692133"><ele>92.0</ele><time>2026-05-02T08:50:44.54Z</time></trkpt><trkpt lat="44.178815" lon="11.9692967"><ele>92.0</ele><time>2026-05-02T08:50:45.54Z</time></trkpt><trkpt lat="44.1788567" lon="11.9693767"><ele>92.0</ele><time>2026-05-02T08:50:46.54Z</time></trkpt><trkpt lat="44.1788983" lon="11.9694533"><ele>92.0</ele><time>2026-05-02T08:50:47.54Z</time></trkpt><trkpt lat="44.1789417" lon="11.9695283"><ele>92.0</ele><time>2026-05-02T08:50:48.54Z</time></trkpt><trkpt lat="44.1789833" lon="11.9696"><ele>92.0</ele><time>2026-05-02T08:50:49.54Z</time></trkpt><trkpt lat="44.1790217" lon="11.96967"><ele>92.0</ele><time>2026-05-02T08:50:50.54Z</time></trkpt><trkpt lat="44.179065" lon="11.96974"><ele>92.0</ele><time>2026-05-02T08:50:51.54Z</time></trkpt><trkpt lat="44.1791067" lon="11.96981"><ele>91.14285714285715</ele><time>2026-05-02T08:50:52.54Z</time></trkpt><trkpt lat="44.1791517" lon="11.9698817"><ele>90.28571428571428</ele><time>2026-05-02T08:50:53.54Z</time></trkpt><trkpt lat="44.1791917" lon="11.9699533"><ele>89.42857142857143</ele><time>2026-05-02T08:50:54.54Z</time></trkpt><trkpt lat="44.179235" lon="11.970025"><ele>88.57142857142858</ele><time>2026-05-02T08:50:55.54Z</time></trkpt><trkpt lat="44.1792783" lon="11.9700917"><ele>87.71428571428572</ele><time>2026-05-02T08:50:56.54Z</time></trkpt><trkpt lat="44.1793183" lon="11.9701617"><ele>86.85714285714286</ele><time>2026-05-02T08:50:57.54Z</time></trkpt><trkpt lat="44.1793583" lon="11.9702317"><ele>86.0</ele><time>2026-05-02T08:50:58.54Z</time></trkpt><trkpt lat="44.17944" lon="11.9703617"><ele>86.0</ele><time>2026-05-02T08:51:00.54Z</time></trkpt><trkpt lat="44.1794833" lon="11.9704283"><ele>86.0</ele><time>2026-05-02T08:51:01.541Z</time></trkpt><trkpt lat="44.1795717" lon="11.970555"><ele>86.0</ele><time>2026-05-02T08:51:03.54Z</time></trkpt><trkpt lat="44.17966" lon="11.9706917"><ele>86.0</ele><time>2026-05-02T08:51:05.54Z</time></trkpt><trkpt lat="44.1797017" lon="11.970765"><ele>86.0</ele><time>2026-05-02T08:51:06.54Z</time></trkpt><trkpt lat="44.1797867" lon="11.9708933"><ele>85.19999999999999</ele><time>2026-05-02T08:51:08.54Z</time></trkpt><trkpt lat="44.1798717" lon="11.9710267"><ele>84.39999999999999</ele><time>2026-05-02T08:51:10.54Z</time></trkpt><trkpt lat="44.1799133" lon="11.9710933"><ele>83.6</ele><time>2026-05-02T08:51:11.54Z</time></trkpt><trkpt lat="44.1799967" lon="11.9712183"><ele>82.8</ele><time>2026-05-02T08:51:13.54Z</time></trkpt><trkpt lat="44.1800833" lon="11.971345"><ele>82.0</ele><time>2026-05-02T08:51:15.54Z</time></trkpt><trkpt lat="44.1801283" lon="11.9714167"><ele>82.0</ele><time>2026-05-02T08:51:16.54Z</time></trkpt><trkpt lat="44.180175" lon="11.9714833"><ele>82.0</ele><time>2026-05-02T08:51:17.54Z</time></trkpt><trkpt lat="44.1802183" lon="11.97155"><ele>82.0</ele><time>2026-05-02T08:51:18.54Z</time></trkpt><trkpt lat="44.1803" lon="11.9716833"><ele>82.0</ele><time>2026-05-02T08:51:20.541Z</time></trkpt><trkpt lat="44.1803433" lon="11.9717483"><ele>82.0</ele><time>2026-05-02T08:51:21.54Z</time></trkpt><trkpt lat="44.1803917" lon="11.971805"><ele>82.0</ele><time>2026-05-02T08:51:22.54Z</time></trkpt><trkpt lat="44.1804833" lon="11.9719217"><ele>81.16666666666666</ele><time>2026-05-02T08:51:24.54Z</time></trkpt><trkpt lat="44.1805283" lon="11.9719917"><ele>80.33333333333333</ele><time>2026-05-02T08:51:25.54Z</time></trkpt><trkpt lat="44.1806117" lon="11.97212"><ele>79.5</ele><time>2026-05-02T08:51:27.54Z</time></trkpt><trkpt lat="44.180655" lon="11.9721883"><ele>78.66666666666667</ele><time>2026-05-02T08:51:28.54Z</time></trkpt><trkpt lat="44.1807367" lon="11.97231"><ele>77.83333333333334</ele><time>2026-05-02T08:51:30.54Z</time></trkpt><trkpt lat="44.1807817" lon="11.9723767"><ele>77.0</ele><time>2026-05-02T08:51:31.54Z</time></trkpt><trkpt lat="44.18083" lon="11.97244"><ele>78.66666666666667</ele><time>2026-05-02T08:51:32.54Z</time></trkpt><trkpt lat="44.1809217" lon="11.9725583"><ele>80.33333333333334</ele><time>2026-05-02T08:51:34.54Z</time></trkpt><trkpt lat="44.1809667" lon="11.9726233"><ele>82.0</ele><time>2026-05-02T08:51:35.54Z</time></trkpt><trkpt lat="44.1810117" lon="11.9726917"><ele>83.66666666666667</ele><time>2026-05-02T08:51:36.54Z</time></trkpt><trkpt lat="44.1810567" lon="11.972765"><ele>85.33333333333333</ele><time>2026-05-02T08:51:37.54Z</time></trkpt><trkpt lat="44.1811067" lon="11.97283"><ele>87.0</ele><time>2026-05-02T08:51:38.54Z</time></trkpt><trkpt lat="44.1811517" lon="11.9728933"><ele>87.0</ele><time>2026-05-02T08:51:39.54Z</time></trkpt><trkpt lat="44.1811933" lon="11.972965"><ele>87.0</ele><time>2026-05-02T08:51:40.54Z</time></trkpt><trkpt lat="44.1812333" lon="11.973035"><ele>87.0</ele><time>2026-05-02T08:51:41.54Z</time></trkpt><trkpt lat="44.1812783" lon="11.973105"><ele>87.0</ele><time>2026-05-02T08:51:42.54Z</time></trkpt><trkpt lat="44.1813267" lon="11.97317"><ele>87.0</ele><time>2026-05-02T08:51:43.54Z</time></trkpt><trkpt lat="44.1813733" lon="11.97323"><ele>87.0</ele><time>2026-05-02T08:51:44.54Z</time></trkpt><trkpt lat="44.1814217" lon="11.9732933"><ele>87.0</ele><time>2026-05-02T08:51:45.54Z</time></trkpt><trkpt lat="44.1814667" lon="11.97336"><ele>85.83333333333333</ele><time>2026-05-02T08:51:46.54Z</time></trkpt><trkpt lat="44.1815083" lon="11.9734283"><ele>84.66666666666667</ele><time>2026-05-02T08:51:47.54Z</time></trkpt><trkpt lat="44.1815483" lon="11.9734983"><ele>83.5</ele><time>2026-05-02T08:51:48.54Z</time></trkpt><trkpt lat="44.1815967" lon="11.9735633"><ele>82.33333333333334</ele><time>2026-05-02T08:51:49.54Z</time></trkpt><trkpt lat="44.1816433" lon="11.9736317"><ele>81.16666666666667</ele><time>2026-05-02T08:51:50.54Z</time></trkpt><trkpt lat="44.1816883" lon="11.9736983"><ele>80.0</ele><time>2026-05-02T08:51:51.541Z</time></trkpt><trkpt lat="44.1817783" lon="11.9738217"><ele>80.0</ele><time>2026-05-02T08:51:53.54Z</time></trkpt><trkpt lat="44.1818233" lon="11.9738883"><ele>80.0</ele><time>2026-05-02T08:51:54.54Z</time></trkpt><trkpt lat="44.1818683" lon="11.9739583"><ele>80.0</ele><time>2026-05-02T08:51:55.54Z</time></trkpt><trkpt lat="44.181915" lon="11.974025"><ele>80.0</ele><time>2026-05-02T08:51:56.54Z</time></trkpt><trkpt lat="44.1819617" lon="11.9740917"><ele>80.0</ele><time>2026-05-02T08:51:57.54Z</time></trkpt><trkpt lat="44.1820083" lon="11.97416"><ele>80.0</ele><time>2026-05-02T08:51:58.54Z</time></trkpt><trkpt lat="44.18206" lon="11.97423"><ele>80.0</ele><time>2026-05-02T08:51:59.54Z</time></trkpt><trkpt lat="44.1821083" lon="11.9742933"><ele>79.83333333333334</ele><time>2026-05-02T08:52:00.54Z</time></trkpt><trkpt lat="44.1821933" lon="11.9744217"><ele>79.66666666666667</ele><time>2026-05-02T08:52:02.54Z</time></trkpt><trkpt lat="44.1822383" lon="11.9744833"><ele>79.5</ele><time>2026-05-02T08:52:03.541Z</time></trkpt><trkpt lat="44.1822833" lon="11.974545"><ele>79.33333333333333</ele><time>2026-05-02T08:52:04.54Z</time></trkpt><trkpt lat="44.18233" lon="11.9746067"><ele>79.16666666666666</ele><time>2026-05-02T08:52:05.54Z</time></trkpt><trkpt lat="44.1823783" lon="11.9746683"><ele>79.0</ele><time>2026-05-02T08:52:06.54Z</time></trkpt><trkpt lat="44.1824683" lon="11.9747817"><ele>79.0</ele><time>2026-05-02T08:52:08.54Z</time></trkpt><trkpt lat="44.1825167" lon="11.974845"><ele>79.0</ele><time>2026-05-02T08:52:09.541Z</time></trkpt><trkpt lat="44.1826" lon="11.974965"><ele>79.0</ele><time>2026-05-02T08:52:11.54Z</time></trkpt><trkpt lat="44.1826783" lon="11.975085"><ele>79.0</ele><time>2026-05-02T08:52:13.54Z</time></trkpt><trkpt lat="44.1827233" lon="11.9751483"><ele>79.0</ele><time>2026-05-02T08:52:14.54Z</time></trkpt><trkpt lat="44.1828067" lon="11.975275"><ele>80.16666666666666</ele><time>2026-05-02T08:52:16.54Z</time></trkpt><trkpt lat="44.1828917" lon="11.9754033"><ele>81.33333333333333</ele><time>2026-05-02T08:52:18.54Z</time></trkpt><trkpt lat="44.182945" lon="11.9754633"><ele>82.5</ele><time>2026-05-02T08:52:19.54Z</time></trkpt><trkpt lat="44.1829983" lon="11.9755317"><ele>83.66666666666667</ele><time>2026-05-02T08:52:20.54Z</time></trkpt><trkpt lat="44.1830483" lon="11.9756017"><ele>84.83333333333334</ele><time>2026-05-02T08:52:21.54Z</time></trkpt><trkpt lat="44.1830983" lon="11.9756617"><ele>86.0</ele><time>2026-05-02T08:52:22.54Z</time></trkpt><trkpt lat="44.183145" lon="11.9757267"><ele>85.57142857142858</ele><time>2026-05-02T08:52:23.54Z</time></trkpt><trkpt lat="44.1831917" lon="11.9757917"><ele>85.14285714285714</ele><time>2026-05-02T08:52:24.54Z</time></trkpt><trkpt lat="44.1832417" lon="11.9758533"><ele>84.71428571428572</ele><time>2026-05-02T08:52:25.54Z</time></trkpt><trkpt lat="44.18329" lon="11.9759167"><ele>84.28571428571429</ele><time>2026-05-02T08:52:26.54Z</time></trkpt><trkpt lat="44.18334" lon="11.9759833"><ele>83.85714285714286</ele><time>2026-05-02T08:52:27.54Z</time></trkpt><trkpt lat="44.1833883" lon="11.9760483"><ele>83.42857142857143</ele><time>2026-05-02T08:52:28.54Z</time></trkpt><trkpt lat="44.1834367" lon="11.9761117"><ele>83.0</ele><time>2026-05-02T08:52:29.54Z</time></trkpt><trkpt lat="44.183485" lon="11.9761817"><ele>83.0</ele><time>2026-05-02T08:52:30.54Z</time></trkpt><trkpt lat="44.1835317" lon="11.9762533"><ele>83.0</ele><time>2026-05-02T08:52:31.54Z</time></trkpt><trkpt lat="44.1835833" lon="11.9763167"><ele>83.0</ele><time>2026-05-02T08:52:32.54Z</time></trkpt><trkpt lat="44.18367" lon="11.97644"><ele>83.0</ele><time>2026-05-02T08:52:34.54Z</time></trkpt><trkpt lat="44.1837167" lon="11.9765033"><ele>83.0</ele><time>2026-05-02T08:52:35.54Z</time></trkpt><trkpt lat="44.1837667" lon="11.9765667"><ele>83.0</ele><time>2026-05-02T08:52:36.54Z</time></trkpt><trkpt lat="44.1838133" lon="11.9766317"><ele>82.0</ele><time>2026-05-02T08:52:37.54Z</time></trkpt><trkpt lat="44.183905" lon="11.97674"><ele>81.0</ele><time>2026-05-02T08:52:39.54Z</time></trkpt><trkpt lat="44.1839983" lon="11.9768433"><ele>80.0</ele><time>2026-05-02T08:52:41.54Z</time></trkpt><trkpt lat="44.1840483" lon="11.9768983"><ele>79.0</ele><time>2026-05-02T08:52:42.54Z</time></trkpt><trkpt lat="44.1841017" lon="11.976965"><ele>78.0</ele><time>2026-05-02T08:52:43.54Z</time></trkpt><trkpt lat="44.1841533" lon="11.9770317"><ele>77.0</ele><time>2026-05-02T08:52:44.54Z</time></trkpt><trkpt lat="44.1842067" lon="11.9770967"><ele>77.0</ele><time>2026-05-02T08:52:45.541Z</time></trkpt><trkpt lat="44.1842567" lon="11.9771583"><ele>77.0</ele><time>2026-05-02T08:52:46.54Z</time></trkpt><trkpt lat="44.184305" lon="11.97722"><ele>77.0</ele><time>2026-05-02T08:52:47.54Z</time></trkpt><trkpt lat="44.1843517" lon="11.9772817"><ele>77.0</ele><time>2026-05-02T08:52:48.54Z</time></trkpt><trkpt lat="44.1844017" lon="11.9773433"><ele>77.0</ele><time>2026-05-02T08:52:49.54Z</time></trkpt><trkpt lat="44.1844533" lon="11.9774017"><ele>77.0</ele><time>2026-05-02T08:52:50.54Z</time></trkpt><trkpt lat="44.1845067" lon="11.977465"><ele>77.0</ele><time>2026-05-02T08:52:51.541Z</time></trkpt><trkpt lat="44.1845583" lon="11.9775233"><ele>76.85714285714286</ele><time>2026-05-02T08:52:52.54Z</time></trkpt><trkpt lat="44.1846133" lon="11.97759"><ele>76.71428571428572</ele><time>2026-05-02T08:52:53.541Z</time></trkpt><trkpt lat="44.184665" lon="11.9776533"><ele>76.57142857142857</ele><time>2026-05-02T08:52:54.54Z</time></trkpt><trkpt lat="44.18472" lon="11.9777217"><ele>76.42857142857143</ele><time>2026-05-02T08:52:55.54Z</time></trkpt><trkpt lat="44.1847733" lon="11.9777883"><ele>76.28571428571429</ele><time>2026-05-02T08:52:56.54Z</time></trkpt><trkpt lat="44.1848283" lon="11.97786"><ele>76.14285714285714</ele><time>2026-05-02T08:52:57.54Z</time></trkpt><trkpt lat="44.1848817" lon="11.9779267"><ele>76.0</ele><time>2026-05-02T08:52:58.54Z</time></trkpt><trkpt lat="44.184935" lon="11.9779883"><ele>76.28571428571428</ele><time>2026-05-02T08:52:59.54Z</time></trkpt><trkpt lat="44.1849933" lon="11.9780533"><ele>76.57142857142858</ele><time>2026-05-02T08:53:00.54Z</time></trkpt><trkpt lat="44.18505" lon="11.9781183"><ele>76.85714285714286</ele><time>2026-05-02T08:53:01.54Z</time></trkpt><trkpt lat="44.1851083" lon="11.9781783"><ele>77.14285714285714</ele><time>2026-05-02T08:53:02.54Z</time></trkpt><trkpt lat="44.185155" lon="11.9782433"><ele>77.42857142857142</ele><time>2026-05-02T08:53:03.541Z</time></trkpt><trkpt lat="44.18521" lon="11.9783217"><ele>77.71428571428572</ele><time>2026-05-02T08:53:04.54Z</time></trkpt><trkpt lat="44.185265" lon="11.978395"><ele>78.0</ele><time>2026-05-02T08:53:05.54Z</time></trkpt><trkpt lat="44.1853233" lon="11.978465"><ele>78.0</ele><time>2026-05-02T08:53:06.54Z</time></trkpt><trkpt lat="44.1853833" lon="11.978535"><ele>78.0</ele><time>2026-05-02T08:53:07.54Z</time></trkpt><trkpt lat="44.1854433" lon="11.978605"><ele>78.0</ele><time>2026-05-02T08:53:08.54Z</time></trkpt><trkpt lat="44.1855033" lon="11.9786683"><ele>78.0</ele><time>2026-05-02T08:53:09.54Z</time></trkpt><trkpt lat="44.1855633" lon="11.97874"><ele>78.0</ele><time>2026-05-02T08:53:10.54Z</time></trkpt><trkpt lat="44.1856283" lon="11.97882"><ele>78.0</ele><time>2026-05-02T08:53:11.54Z</time></trkpt><trkpt lat="44.1856867" lon="11.9788917"><ele>77.66666666666667</ele><time>2026-05-02T08:53:12.54Z</time></trkpt><trkpt lat="44.1857467" lon="11.9789667"><ele>77.33333333333333</ele><time>2026-05-02T08:53:13.54Z</time></trkpt><trkpt lat="44.18581" lon="11.97904"><ele>77.0</ele><time>2026-05-02T08:53:14.54Z</time></trkpt><trkpt lat="44.1858683" lon="11.9791133"><ele>76.66666666666666</ele><time>2026-05-02T08:53:15.54Z</time></trkpt><trkpt lat="44.1859283" lon="11.9791833"><ele>76.33333333333333</ele><time>2026-05-02T08:53:16.54Z</time></trkpt><trkpt lat="44.18599" lon="11.9792533"><ele>76.0</ele><time>2026-05-02T08:53:17.54Z</time></trkpt><trkpt lat="44.18605" lon="11.9793133"><ele>76.0</ele><time>2026-05-02T08:53:18.54Z</time></trkpt><trkpt lat="44.1861117" lon="11.979385"><ele>76.0</ele><time>2026-05-02T08:53:19.54Z</time></trkpt><trkpt lat="44.1861733" lon="11.979465"><ele>76.0</ele><time>2026-05-02T08:53:20.54Z</time></trkpt><trkpt lat="44.186235" lon="11.97954"><ele>76.0</ele><time>2026-05-02T08:53:21.54Z</time></trkpt><trkpt lat="44.1862917" lon="11.9796133"><ele>76.0</ele><time>2026-05-02T08:53:22.54Z</time></trkpt><trkpt lat="44.186355" lon="11.9796817"><ele>76.0</ele><time>2026-05-02T08:53:23.54Z</time></trkpt><trkpt lat="44.1864267" lon="11.979755"><ele>76.0</ele><time>2026-05-02T08:53:24.54Z</time></trkpt><trkpt lat="44.186495" lon="11.97983"><ele>76.0</ele><time>2026-05-02T08:53:25.54Z</time></trkpt><trkpt lat="44.1865633" lon="11.9798967"><ele>76.0</ele><time>2026-05-02T08:53:26.54Z</time></trkpt><trkpt lat="44.1866267" lon="11.9799617"><ele>76.0</ele><time>2026-05-02T08:53:27.54Z</time></trkpt><trkpt lat="44.1866933" lon="11.9800267"><ele>76.0</ele><time>2026-05-02T08:53:28.54Z</time></trkpt><trkpt lat="44.186755" lon="11.9801"><ele>76.0</ele><time>2026-05-02T08:53:29.54Z</time></trkpt><trkpt lat="44.1868133" lon="11.98017"><ele>75.83333333333333</ele><time>2026-05-02T08:53:30.54Z</time></trkpt><trkpt lat="44.1868733" lon="11.980245"><ele>75.66666666666666</ele><time>2026-05-02T08:53:31.54Z</time></trkpt><trkpt lat="44.1869383" lon="11.9803183"><ele>75.5</ele><time>2026-05-02T08:53:32.54Z</time></trkpt><trkpt lat="44.1869983" lon="11.98039"><ele>75.33333333333333</ele><time>2026-05-02T08:53:33.54Z</time></trkpt><trkpt lat="44.1870583" lon="11.9804617"><ele>75.16666666666667</ele><time>2026-05-02T08:53:34.54Z</time></trkpt><trkpt lat="44.1871217" lon="11.9805283"><ele>75.0</ele><time>2026-05-02T08:53:35.54Z</time></trkpt><trkpt lat="44.18718" lon="11.9805917"><ele>75.0</ele><time>2026-05-02T08:53:36.54Z</time></trkpt><trkpt lat="44.18724" lon="11.9806533"><ele>75.0</ele><time>2026-05-02T08:53:37.54Z</time></trkpt><trkpt lat="44.187305" lon="11.9807233"><ele>75.0</ele><time>2026-05-02T08:53:38.54Z</time></trkpt><trkpt lat="44.187365" lon="11.9807933"><ele>75.0</ele><time>2026-05-02T08:53:39.54Z</time></trkpt><trkpt lat="44.1874217" lon="11.9808567"><ele>75.0</ele><time>2026-05-02T08:53:40.54Z</time></trkpt><trkpt lat="44.1874783" lon="11.98092"><ele>75.0</ele><time>2026-05-02T08:53:41.54Z</time></trkpt><trkpt lat="44.1875383" lon="11.9809867"><ele>75.42857142857142</ele><time>2026-05-02T08:53:42.54Z</time></trkpt><trkpt lat="44.1875933" lon="11.98105"><ele>75.85714285714286</ele><time>2026-05-02T08:53:43.54Z</time></trkpt><trkpt lat="44.1876517" lon="11.9811117"><ele>76.28571428571428</ele><time>2026-05-02T08:53:44.54Z</time></trkpt><trkpt lat="44.187705" lon="11.9811767"><ele>76.71428571428571</ele><time>2026-05-02T08:53:45.54Z</time></trkpt><trkpt lat="44.18776" lon="11.9812383"><ele>77.14285714285714</ele><time>2026-05-02T08:53:46.54Z</time></trkpt><trkpt lat="44.1878167" lon="11.981305"><ele>77.57142857142857</ele><time>2026-05-02T08:53:47.54Z</time></trkpt><trkpt lat="44.187875" lon="11.981375"><ele>78.0</ele><time>2026-05-02T08:53:48.54Z</time></trkpt><trkpt lat="44.1879317" lon="11.981445"><ele>78.0</ele><time>2026-05-02T08:53:49.54Z</time></trkpt><trkpt lat="44.1880383" lon="11.981565"><ele>78.0</ele><time>2026-05-02T08:53:51.54Z</time></trkpt><trkpt lat="44.188095" lon="11.981615"><ele>78.0</ele><time>2026-05-02T08:53:52.54Z</time></trkpt><trkpt lat="44.1881483" lon="11.98167"><ele>78.0</ele><time>2026-05-02T08:53:53.54Z</time></trkpt><trkpt lat="44.1882533" lon="11.9817767"><ele>78.0</ele><time>2026-05-02T08:53:55.54Z</time></trkpt><trkpt lat="44.188305" lon="11.9818317"><ele>77.0</ele><time>2026-05-02T08:53:56.54Z</time></trkpt><trkpt lat="44.18836" lon="11.9818967"><ele>76.0</ele><time>2026-05-02T08:53:57.54Z</time></trkpt><trkpt lat="44.1884133" lon="11.981955"><ele>75.0</ele><time>2026-05-02T08:53:58.54Z</time></trkpt><trkpt lat="44.1884633" lon="11.98201"><ele>74.0</ele><time>2026-05-02T08:53:59.54Z</time></trkpt><trkpt lat="44.188515" lon="11.9820733"><ele>73.0</ele><time>2026-05-02T08:54:00.54Z</time></trkpt><trkpt lat="44.1885717" lon="11.9821317"><ele>72.0</ele><time>2026-05-02T08:54:01.54Z</time></trkpt><trkpt lat="44.1886267" lon="11.9821867"><ele>71.0</ele><time>2026-05-02T08:54:02.54Z</time></trkpt><trkpt lat="44.1886833" lon="11.9822417"><ele>71.0</ele><time>2026-05-02T08:54:03.54Z</time></trkpt><trkpt lat="44.1887417" lon="11.9823"><ele>71.0</ele><time>2026-05-02T08:54:04.54Z</time></trkpt><trkpt lat="44.1887983" lon="11.9823517"><ele>71.0</ele><time>2026-05-02T08:54:05.54Z</time></trkpt><trkpt lat="44.188855" lon="11.9824117"><ele>71.0</ele><time>2026-05-02T08:54:06.54Z</time></trkpt><trkpt lat="44.1889117" lon="11.982475"><ele>71.0</ele><time>2026-05-02T08:54:07.54Z</time></trkpt><trkpt lat="44.1889633" lon="11.9825367"><ele>71.0</ele><time>2026-05-02T08:54:08.54Z</time></trkpt><trkpt lat="44.1890183" lon="11.9826"><ele>71.0</ele><time>2026-05-02T08:54:09.54Z</time></trkpt><trkpt lat="44.18907" lon="11.9826617"><ele>70.42857142857143</ele><time>2026-05-02T08:54:10.541Z</time></trkpt><trkpt lat="44.189125" lon="11.9827167"><ele>69.85714285714285</ele><time>2026-05-02T08:54:11.54Z</time></trkpt><trkpt lat="44.18918" lon="11.98277"><ele>69.28571428571428</ele><time>2026-05-02T08:54:12.54Z</time></trkpt><trkpt lat="44.1892333" lon="11.9828233"><ele>68.71428571428571</ele><time>2026-05-02T08:54:13.54Z</time></trkpt><trkpt lat="44.1892833" lon="11.9828883"><ele>68.14285714285714</ele><time>2026-05-02T08:54:14.54Z</time></trkpt><trkpt lat="44.1893333" lon="11.9829517"><ele>67.57142857142857</ele><time>2026-05-02T08:54:15.54Z</time></trkpt><trkpt lat="44.1893833" lon="11.983015"><ele>67.0</ele><time>2026-05-02T08:54:16.54Z</time></trkpt><trkpt lat="44.1894333" lon="11.98308"><ele>67.0</ele><time>2026-05-02T08:54:17.541Z</time></trkpt><trkpt lat="44.18949" lon="11.983145"><ele>67.0</ele><time>2026-05-02T08:54:18.54Z</time></trkpt><trkpt lat="44.1895467" lon="11.9832133"><ele>67.0</ele><time>2026-05-02T08:54:19.54Z</time></trkpt><trkpt lat="44.1896" lon="11.98328"><ele>67.0</ele><time>2026-05-02T08:54:20.54Z</time></trkpt><trkpt lat="44.18966" lon="11.9833383"><ele>67.0</ele><time>2026-05-02T08:54:21.54Z</time></trkpt><trkpt lat="44.1897133" lon="11.9833967"><ele>67.0</ele><time>2026-05-02T08:54:22.54Z</time></trkpt><trkpt lat="44.1897717" lon="11.9834483"><ele>67.0</ele><time>2026-05-02T08:54:23.54Z</time></trkpt><trkpt lat="44.189825" lon="11.9835033"><ele>66.71428571428572</ele><time>2026-05-02T08:54:24.54Z</time></trkpt><trkpt lat="44.1898817" lon="11.9835617"><ele>66.42857142857143</ele><time>2026-05-02T08:54:25.54Z</time></trkpt><trkpt lat="44.189935" lon="11.9836233"><ele>66.14285714285714</ele><time>2026-05-02T08:54:26.54Z</time></trkpt><trkpt lat="44.1899933" lon="11.98368"><ele>65.85714285714286</ele><time>2026-05-02T08:54:27.54Z</time></trkpt><trkpt lat="44.1900483" lon="11.98374"><ele>65.57142857142857</ele><time>2026-05-02T08:54:28.54Z</time></trkpt><trkpt lat="44.190105" lon="11.983805"><ele>65.28571428571429</ele><time>2026-05-02T08:54:29.54Z</time></trkpt><trkpt lat="44.19016" lon="11.9838733"><ele>65.0</ele><time>2026-05-02T08:54:30.54Z</time></trkpt><trkpt lat="44.1902133" lon="11.9839383"><ele>65.0</ele><time>2026-05-02T08:54:31.54Z</time></trkpt><trkpt lat="44.1902667" lon="11.9840017"><ele>65.0</ele><time>2026-05-02T08:54:32.54Z</time></trkpt><trkpt lat="44.1903217" lon="11.9840617"><ele>65.0</ele><time>2026-05-02T08:54:33.54Z</time></trkpt><trkpt lat="44.1904183" lon="11.98417"><ele>65.0</ele><time>2026-05-02T08:54:35.54Z</time></trkpt><trkpt lat="44.1904683" lon="11.9842383"><ele>65.0</ele><time>2026-05-02T08:54:36.54Z</time></trkpt><trkpt lat="44.19052" lon="11.9843033"><ele>65.0</ele><time>2026-05-02T08:54:37.54Z</time></trkpt><trkpt lat="44.19057" lon="11.9843583"><ele>64.57142857142858</ele><time>2026-05-02T08:54:38.54Z</time></trkpt><trkpt lat="44.1906233" lon="11.9844167"><ele>64.14285714285714</ele><time>2026-05-02T08:54:39.54Z</time></trkpt><trkpt lat="44.190675" lon="11.9844783"><ele>63.71428571428572</ele><time>2026-05-02T08:54:40.54Z</time></trkpt><trkpt lat="44.19073" lon="11.984545"><ele>63.28571428571429</ele><time>2026-05-02T08:54:41.54Z</time></trkpt><trkpt lat="44.19079" lon="11.9846183"><ele>62.85714285714286</ele><time>2026-05-02T08:54:42.54Z</time></trkpt><trkpt lat="44.1908433" lon="11.9846867"><ele>62.42857142857143</ele><time>2026-05-02T08:54:43.54Z</time></trkpt><trkpt lat="44.1908967" lon="11.9847483"><ele>62.0</ele><time>2026-05-02T08:54:44.54Z</time></trkpt><trkpt lat="44.1909467" lon="11.9848067"><ele>62.0</ele><time>2026-05-02T08:54:45.54Z</time></trkpt><trkpt lat="44.1910383" lon="11.984935"><ele>62.0</ele><time>2026-05-02T08:54:47.54Z</time></trkpt><trkpt lat="44.19109" lon="11.98499"><ele>62.0</ele><time>2026-05-02T08:54:48.54Z</time></trkpt><trkpt lat="44.1911767" lon="11.9850867"><ele>62.0</ele><time>2026-05-02T08:54:50.54Z</time></trkpt><trkpt lat="44.191265" lon="11.985185"><ele>62.0</ele><time>2026-05-02T08:54:52.54Z</time></trkpt><trkpt lat="44.191315" lon="11.985255"><ele>61.66666666666667</ele><time>2026-05-02T08:54:53.54Z</time></trkpt><trkpt lat="44.1914117" lon="11.98537"><ele>61.333333333333336</ele><time>2026-05-02T08:54:55.541Z</time></trkpt><trkpt lat="44.19146" lon="11.98543"><ele>61.0</ele><time>2026-05-02T08:54:56.54Z</time></trkpt><trkpt lat="44.1915133" lon="11.9854883"><ele>60.66666666666667</ele><time>2026-05-02T08:54:57.54Z</time></trkpt><trkpt lat="44.191565" lon="11.9855567"><ele>60.333333333333336</ele><time>2026-05-02T08:54:58.54Z</time></trkpt><trkpt lat="44.1916167" lon="11.9856317"><ele>60.0</ele><time>2026-05-02T08:54:59.541Z</time></trkpt><trkpt lat="44.19167" lon="11.985705"><ele>60.0</ele><time>2026-05-02T08:55:00.54Z</time></trkpt><trkpt lat="44.191725" lon="11.9857733"><ele>60.0</ele><time>2026-05-02T08:55:01.54Z</time></trkpt><trkpt lat="44.1917767" lon="11.9858367"><ele>60.0</ele><time>2026-05-02T08:55:02.54Z</time></trkpt><trkpt lat="44.1918267" lon="11.9858967"><ele>60.0</ele><time>2026-05-02T08:55:03.54Z</time></trkpt><trkpt lat="44.1918733" lon="11.9859567"><ele>60.0</ele><time>2026-05-02T08:55:04.54Z</time></trkpt><trkpt lat="44.1919183" lon="11.9860183"><ele>60.0</ele><time>2026-05-02T08:55:05.54Z</time></trkpt><trkpt lat="44.1920067" lon="11.986135"><ele>61.0</ele><time>2026-05-02T08:55:07.54Z</time></trkpt><trkpt lat="44.1920933" lon="11.9862333"><ele>62.0</ele><time>2026-05-02T08:55:09.54Z</time></trkpt><trkpt lat="44.19217" lon="11.9863183"><ele>63.0</ele><time>2026-05-02T08:55:11.54Z</time></trkpt><trkpt lat="44.1922483" lon="11.9864017"><ele>64.0</ele><time>2026-05-02T08:55:13.54Z</time></trkpt><trkpt lat="44.1923317" lon="11.9864983"><ele>65.0</ele><time>2026-05-02T08:55:15.541Z</time></trkpt><trkpt lat="44.192405" lon="11.9865833"><ele>65.0</ele><time>2026-05-02T08:55:17.54Z</time></trkpt><trkpt lat="44.1924767" lon="11.9866667"><ele>65.0</ele><time>2026-05-02T08:55:19.54Z</time></trkpt><trkpt lat="44.192545" lon="11.9867483"><ele>65.0</ele><time>2026-05-02T08:55:21.54Z</time></trkpt><trkpt lat="44.1926067" lon="11.9868317"><ele>65.0</ele><time>2026-05-02T08:55:23.54Z</time></trkpt><trkpt lat="44.192665" lon="11.986895"><ele>65.0</ele><time>2026-05-02T08:55:25.54Z</time></trkpt><trkpt lat="44.19273" lon="11.9869683"><ele>65.0</ele><time>2026-05-02T08:55:27.54Z</time></trkpt><trkpt lat="44.1927967" lon="11.9870383"><ele>64.83333333333334</ele><time>2026-05-02T08:55:29.54Z</time></trkpt><trkpt lat="44.19286" lon="11.9871117"><ele>64.66666666666667</ele><time>2026-05-02T08:55:31.54Z</time></trkpt><trkpt lat="44.1929233" lon="11.9871983"><ele>64.5</ele><time>2026-05-02T08:55:33.54Z</time></trkpt><trkpt lat="44.1929883" lon="11.9872767"><ele>64.33333333333333</ele><time>2026-05-02T08:55:35.54Z</time></trkpt><trkpt lat="44.1930533" lon="11.9873567"><ele>64.16666666666666</ele><time>2026-05-02T08:55:37.54Z</time></trkpt><trkpt lat="44.1931233" lon="11.9874333"><ele>64.0</ele><time>2026-05-02T08:55:39.54Z</time></trkpt><trkpt lat="44.19319" lon="11.98751"><ele>64.8</ele><time>2026-05-02T08:55:41.54Z</time></trkpt><trkpt lat="44.19326" lon="11.98761"><ele>65.60000000000001</ele><time>2026-05-02T08:55:43.54Z</time></trkpt><trkpt lat="44.1933267" lon="11.9877133"><ele>66.4</ele><time>2026-05-02T08:55:45.54Z</time></trkpt><trkpt lat="44.1933833" lon="11.987805"><ele>67.2</ele><time>2026-05-02T08:55:47.54Z</time></trkpt><trkpt lat="44.19344" lon="11.9879017"><ele>68.0</ele><time>2026-05-02T08:55:49.54Z</time></trkpt><trkpt lat="44.1934967" lon="11.9879917"><ele>68.0</ele><time>2026-05-02T08:55:51.54Z</time></trkpt><trkpt lat="44.1935467" lon="11.98808"><ele>68.0</ele><time>2026-05-02T08:55:53.54Z</time></trkpt><trkpt lat="44.1936033" lon="11.988185"><ele>68.0</ele><time>2026-05-02T08:55:55.54Z</time></trkpt><trkpt lat="44.1936583" lon="11.988285"><ele>68.0</ele><time>2026-05-02T08:55:57.54Z</time></trkpt><trkpt lat="44.1937083" lon="11.98838"><ele>68.0</ele><time>2026-05-02T08:55:59.541Z</time></trkpt><trkpt lat="44.1937567" lon="11.9884817"><ele>68.0</ele><time>2026-05-02T08:56:01.54Z</time></trkpt><trkpt lat="44.1937933" lon="11.9885733"><ele>67.2</ele><time>2026-05-02T08:56:03.54Z</time></trkpt><trkpt lat="44.1938317" lon="11.988705"><ele>66.4</ele><time>2026-05-02T08:56:05.54Z</time></trkpt><trkpt lat="44.1938733" lon="11.9888383"><ele>65.60000000000001</ele><time>2026-05-02T08:56:07.54Z</time></trkpt><trkpt lat="44.193915" lon="11.9889667"><ele>64.8</ele><time>2026-05-02T08:56:09.54Z</time></trkpt><trkpt lat="44.1939467" lon="11.9891"><ele>64.0</ele><time>2026-05-02T08:56:11.54Z</time></trkpt><trkpt lat="44.193985" lon="11.9892367"><ele>63.800000000000004</ele><time>2026-05-02T08:56:13.54Z</time></trkpt><trkpt lat="44.1940267" lon="11.9893683"><ele>63.60000000000001</ele><time>2026-05-02T08:56:15.54Z</time></trkpt><trkpt lat="44.1940633" lon="11.9895067"><ele>63.4</ele><time>2026-05-02T08:56:17.54Z</time></trkpt><trkpt lat="44.1941083" lon="11.9896483"><ele>63.2</ele><time>2026-05-02T08:56:19.54Z</time></trkpt><trkpt lat="44.1941483" lon="11.989795"><ele>63.0</ele><time>2026-05-02T08:56:21.541Z</time></trkpt><trkpt lat="44.194185" lon="11.989945"><ele>62.8</ele><time>2026-05-02T08:56:23.54Z</time></trkpt><trkpt lat="44.1942233" lon="11.9900917"><ele>62.599999999999994</ele><time>2026-05-02T08:56:25.54Z</time></trkpt><trkpt lat="44.1942667" lon="11.990245"><ele>62.400000000000006</ele><time>2026-05-02T08:56:27.54Z</time></trkpt><trkpt lat="44.1942933" lon="11.9903283"><ele>62.2</ele><time>2026-05-02T08:56:28.54Z</time></trkpt><trkpt lat="44.194335" lon="11.990475"><ele>62.0</ele><time>2026-05-02T08:56:30.54Z</time></trkpt><trkpt lat="44.19439" lon="11.990625"><ele>62.00000000000001</ele><time>2026-05-02T08:56:32.54Z</time></trkpt><trkpt lat="44.19444" lon="11.99078"><ele>62.0</ele><time>2026-05-02T08:56:34.54Z</time></trkpt><trkpt lat="44.19447" lon="11.990865"><ele>62.0</ele><time>2026-05-02T08:56:35.54Z</time></trkpt><trkpt lat="44.1944983" lon="11.9909583"><ele>62.0</ele><time>2026-05-02T08:56:36.54Z</time></trkpt><trkpt lat="44.1945233" lon="11.9910417"><ele>62.00000000000001</ele><time>2026-05-02T08:56:37.54Z</time></trkpt><trkpt lat="44.1945467" lon="11.9911283"><ele>62.0</ele><time>2026-05-02T08:56:38.54Z</time></trkpt><trkpt lat="44.19457" lon="11.9912117"><ele>61.400000000000006</ele><time>2026-05-02T08:56:39.54Z</time></trkpt><trkpt lat="44.1946217" lon="11.9913783"><ele>60.800000000000004</ele><time>2026-05-02T08:56:41.54Z</time></trkpt><trkpt lat="44.1946433" lon="11.9914633"><ele>60.2</ele><time>2026-05-02T08:56:42.54Z</time></trkpt><trkpt lat="44.194695" lon="11.9916283"><ele>59.6</ele><time>2026-05-02T08:56:44.541Z</time></trkpt><trkpt lat="44.1947283" lon="11.99172"><ele>59.0</ele><time>2026-05-02T08:56:45.54Z</time></trkpt><trkpt lat="44.1947633" lon="11.9918117"><ele>58.71428571428571</ele><time>2026-05-02T08:56:46.54Z</time></trkpt><trkpt lat="44.1947917" lon="11.9919"><ele>58.42857142857143</ele><time>2026-05-02T08:56:47.54Z</time></trkpt><trkpt lat="44.1948183" lon="11.991985"><ele>58.14285714285714</ele><time>2026-05-02T08:56:48.541Z</time></trkpt><trkpt lat="44.194845" lon="11.9920717"><ele>57.857142857142854</ele><time>2026-05-02T08:56:49.54Z</time></trkpt><trkpt lat="44.1948733" lon="11.992165"><ele>57.57142857142857</ele><time>2026-05-02T08:56:50.54Z</time></trkpt><trkpt lat="44.194905" lon="11.9922533"><ele>57.285714285714285</ele><time>2026-05-02T08:56:51.54Z</time></trkpt><trkpt lat="44.1949317" lon="11.992345"><ele>57.0</ele><time>2026-05-02T08:56:52.54Z</time></trkpt><trkpt lat="44.1949567" lon="11.9924333"><ele>56.71428571428571</ele><time>2026-05-02T08:56:53.54Z</time></trkpt><trkpt lat="44.19498" lon="11.9925233"><ele>56.42857142857142</ele><time>2026-05-02T08:56:54.54Z</time></trkpt><trkpt lat="44.19501" lon="11.9926117"><ele>56.14285714285714</ele><time>2026-05-02T08:56:55.54Z</time></trkpt><trkpt lat="44.19504" lon="11.9927017"><ele>55.857142857142854</ele><time>2026-05-02T08:56:56.54Z</time></trkpt><trkpt lat="44.1950667" lon="11.9927933"><ele>55.57142857142857</ele><time>2026-05-02T08:56:57.54Z</time></trkpt><trkpt lat="44.1950917" lon="11.9928817"><ele>55.28571428571428</ele><time>2026-05-02T08:56:58.54Z</time></trkpt><trkpt lat="44.1951183" lon="11.9929667"><ele>55.0</ele><time>2026-05-02T08:56:59.54Z</time></trkpt><trkpt lat="44.195145" lon="11.9930533"><ele>54.99999999999999</ele><time>2026-05-02T08:57:00.54Z</time></trkpt><trkpt lat="44.1951767" lon="11.9931383"><ele>55.0</ele><time>2026-05-02T08:57:01.54Z</time></trkpt><trkpt lat="44.1952017" lon="11.993225"><ele>55.0</ele><time>2026-05-02T08:57:02.54Z</time></trkpt><trkpt lat="44.19523" lon="11.9933217"><ele>55.0</ele><time>2026-05-02T08:57:03.54Z</time></trkpt><trkpt lat="44.1952567" lon="11.99342"><ele>55.0</ele><time>2026-05-02T08:57:04.54Z</time></trkpt><trkpt lat="44.1952833" lon="11.9935183"><ele>54.99999999999999</ele><time>2026-05-02T08:57:05.54Z</time></trkpt><trkpt lat="44.1953117" lon="11.9936117"><ele>55.0</ele><time>2026-05-02T08:57:06.54Z</time></trkpt><trkpt lat="44.1953433" lon="11.993705"><ele>54.71428571428571</ele><time>2026-05-02T08:57:07.54Z</time></trkpt><trkpt lat="44.195375" lon="11.9938"><ele>54.42857142857143</ele><time>2026-05-02T08:57:08.54Z</time></trkpt><trkpt lat="44.1954033" lon="11.993895"><ele>54.14285714285714</ele><time>2026-05-02T08:57:09.54Z</time></trkpt><trkpt lat="44.195435" lon="11.9939917"><ele>53.857142857142854</ele><time>2026-05-02T08:57:10.54Z</time></trkpt><trkpt lat="44.195465" lon="11.994085"><ele>53.57142857142857</ele><time>2026-05-02T08:57:11.54Z</time></trkpt><trkpt lat="44.195495" lon="11.9941783"><ele>53.285714285714285</ele><time>2026-05-02T08:57:12.54Z</time></trkpt><trkpt lat="44.1955233" lon="11.994275"><ele>53.0</ele><time>2026-05-02T08:57:13.54Z</time></trkpt><trkpt lat="44.1955517" lon="11.99437"><ele>52.85714285714286</ele><time>2026-05-02T08:57:14.54Z</time></trkpt><trkpt lat="44.195585" lon="11.9944633"><ele>52.71428571428571</ele><time>2026-05-02T08:57:15.54Z</time></trkpt><trkpt lat="44.1956133" lon="11.994555"><ele>52.57142857142857</ele><time>2026-05-02T08:57:16.54Z</time></trkpt><trkpt lat="44.1956417" lon="11.9946483"><ele>52.42857142857143</ele><time>2026-05-02T08:57:17.54Z</time></trkpt><trkpt lat="44.1956633" lon="11.9947367"><ele>52.28571428571429</ele><time>2026-05-02T08:57:18.541Z</time></trkpt><trkpt lat="44.1956867" lon="11.994825"><ele>52.14285714285714</ele><time>2026-05-02T08:57:19.54Z</time></trkpt><trkpt lat="44.1957167" lon="11.9949167"><ele>52.0</ele><time>2026-05-02T08:57:20.54Z</time></trkpt><trkpt lat="44.1957433" lon="11.9950017"><ele>52.0</ele><time>2026-05-02T08:57:21.54Z</time></trkpt><trkpt lat="44.19577" lon="11.99509"><ele>52.0</ele><time>2026-05-02T08:57:22.54Z</time></trkpt><trkpt lat="44.195795" lon="11.9951783"><ele>52.0</ele><time>2026-05-02T08:57:23.54Z</time></trkpt><trkpt lat="44.1958267" lon="11.9952667"><ele>52.0</ele><time>2026-05-02T08:57:24.54Z</time></trkpt><trkpt lat="44.1958583" lon="11.99536"><ele>52.0</ele><time>2026-05-02T08:57:25.54Z</time></trkpt><trkpt lat="44.1958917" lon="11.9954567"><ele>52.0</ele><time>2026-05-02T08:57:26.54Z</time></trkpt><trkpt lat="44.1959233" lon="11.9955483"><ele>52.0</ele><time>2026-05-02T08:57:27.54Z</time></trkpt><trkpt lat="44.1959517" lon="11.9956383"><ele>52.0</ele><time>2026-05-02T08:57:28.54Z</time></trkpt><trkpt lat="44.1959867" lon="11.9957317"><ele>52.0</ele><time>2026-05-02T08:57:29.54Z</time></trkpt><trkpt lat="44.19601" lon="11.9958233"><ele>52.0</ele><time>2026-05-02T08:57:30.54Z</time></trkpt><trkpt lat="44.196035" lon="11.9959133"><ele>52.0</ele><time>2026-05-02T08:57:31.54Z</time></trkpt><trkpt lat="44.1960633" lon="11.9960033"><ele>52.0</ele><time>2026-05-02T08:57:32.54Z</time></trkpt><trkpt lat="44.1960867" lon="11.996095"><ele>52.0</ele><time>2026-05-02T08:57:33.54Z</time></trkpt><trkpt lat="44.196115" lon="11.9961883"><ele>52.0</ele><time>2026-05-02T08:57:34.54Z</time></trkpt><trkpt lat="44.1961433" lon="11.9962883"><ele>51.57142857142857</ele><time>2026-05-02T08:57:35.54Z</time></trkpt><trkpt lat="44.19617" lon="11.9963867"><ele>51.142857142857146</ele><time>2026-05-02T08:57:36.54Z</time></trkpt><trkpt lat="44.1962" lon="11.9964817"><ele>50.714285714285715</ele><time>2026-05-02T08:57:37.54Z</time></trkpt><trkpt lat="44.196235" lon="11.99657"><ele>50.285714285714285</ele><time>2026-05-02T08:57:38.54Z</time></trkpt><trkpt lat="44.196265" lon="11.996665"><ele>49.85714285714286</ele><time>2026-05-02T08:57:39.54Z</time></trkpt><trkpt lat="44.1962933" lon="11.9967583"><ele>49.42857142857143</ele><time>2026-05-02T08:57:40.54Z</time></trkpt><trkpt lat="44.19632" lon="11.996855"><ele>49.0</ele><time>2026-05-02T08:57:41.54Z</time></trkpt><trkpt lat="44.19635" lon="11.9969467"><ele>49.0</ele><time>2026-05-02T08:57:42.54Z</time></trkpt><trkpt lat="44.19638" lon="11.997045"><ele>49.0</ele><time>2026-05-02T08:57:43.54Z</time></trkpt><trkpt lat="44.1964083" lon="11.9971333"><ele>49.0</ele><time>2026-05-02T08:57:44.54Z</time></trkpt><trkpt lat="44.196435" lon="11.997225"><ele>49.0</ele><time>2026-05-02T08:57:45.54Z</time></trkpt><trkpt lat="44.1964633" lon="11.9973183"><ele>49.0</ele><time>2026-05-02T08:57:46.54Z</time></trkpt><trkpt lat="44.1964933" lon="11.997405"><ele>49.0</ele><time>2026-05-02T08:57:47.54Z</time></trkpt><trkpt lat="44.1965233" lon="11.9975017"><ele>49.0</ele><time>2026-05-02T08:57:48.54Z</time></trkpt><trkpt lat="44.19655" lon="11.9975967"><ele>49.142857142857146</ele><time>2026-05-02T08:57:49.54Z</time></trkpt><trkpt lat="44.19658" lon="11.9976883"><ele>49.285714285714285</ele><time>2026-05-02T08:57:50.54Z</time></trkpt><trkpt lat="44.1966083" lon="11.9977817"><ele>49.42857142857143</ele><time>2026-05-02T08:57:51.541Z</time></trkpt><trkpt lat="44.196635" lon="11.9978733"><ele>49.57142857142857</ele><time>2026-05-02T08:57:52.54Z</time></trkpt><trkpt lat="44.196665" lon="11.997955"><ele>49.714285714285715</ele><time>2026-05-02T08:57:53.541Z</time></trkpt><trkpt lat="44.1966917" lon="11.9980417"><ele>49.85714285714286</ele><time>2026-05-02T08:57:54.54Z</time></trkpt><trkpt lat="44.1967183" lon="11.9981317"><ele>50.0</ele><time>2026-05-02T08:57:55.54Z</time></trkpt><trkpt lat="44.1967467" lon="11.9982217"><ele>50.00000000000001</ele><time>2026-05-02T08:57:56.54Z</time></trkpt><trkpt lat="44.1967733" lon="11.9983117"><ele>50.0</ele><time>2026-05-02T08:57:57.54Z</time></trkpt><trkpt lat="44.1968" lon="11.9984033"><ele>50.0</ele><time>2026-05-02T08:57:58.54Z</time></trkpt><trkpt lat="44.196825" lon="11.998495"><ele>50.0</ele><time>2026-05-02T08:57:59.54Z</time></trkpt><trkpt lat="44.19685" lon="11.998585"><ele>50.00000000000001</ele><time>2026-05-02T08:58:00.54Z</time></trkpt><trkpt lat="44.1968733" lon="11.99867"><ele>50.0</ele><time>2026-05-02T08:58:01.54Z</time></trkpt><trkpt lat="44.1969217" lon="11.9988367"><ele>49.85714285714286</ele><time>2026-05-02T08:58:03.54Z</time></trkpt><trkpt lat="44.1969417" lon="11.998925"><ele>49.714285714285715</ele><time>2026-05-02T08:58:04.54Z</time></trkpt><trkpt lat="44.196965" lon="11.9990183"><ele>49.57142857142857</ele><time>2026-05-02T08:58:05.54Z</time></trkpt><trkpt lat="44.19699" lon="11.99911"><ele>49.42857142857143</ele><time>2026-05-02T08:58:06.54Z</time></trkpt><trkpt lat="44.1970117" lon="11.9992033"><ele>49.285714285714285</ele><time>2026-05-02T08:58:07.54Z</time></trkpt><trkpt lat="44.1970317" lon="11.999295"><ele>49.142857142857146</ele><time>2026-05-02T08:58:08.54Z</time></trkpt><trkpt lat="44.1970483" lon="11.9993817"><ele>49.0</ele><time>2026-05-02T08:58:09.54Z</time></trkpt><trkpt lat="44.1970667" lon="11.9994733"><ele>49.0</ele><time>2026-05-02T08:58:10.54Z</time></trkpt><trkpt lat="44.1970867" lon="11.9995667"><ele>49.0</ele><time>2026-05-02T08:58:11.541Z</time></trkpt><trkpt lat="44.1971083" lon="11.9996583"><ele>49.0</ele><time>2026-05-02T08:58:12.54Z</time></trkpt><trkpt lat="44.1971233" lon="11.9997583"><ele>49.0</ele><time>2026-05-02T08:58:13.54Z</time></trkpt><trkpt lat="44.1971383" lon="11.9998517"><ele>49.0</ele><time>2026-05-02T08:58:14.54Z</time></trkpt><trkpt lat="44.1971567" lon="11.9999467"><ele>49.0</ele><time>2026-05-02T08:58:15.54Z</time></trkpt><trkpt lat="44.19718" lon="12.0000367"><ele>49.0</ele><time>2026-05-02T08:58:16.54Z</time></trkpt><trkpt lat="44.1971983" lon="12.0001317"><ele>48.99999999999999</ele><time>2026-05-02T08:58:17.54Z</time></trkpt><trkpt lat="44.197215" lon="12.00023"><ele>49.0</ele><time>2026-05-02T08:58:18.54Z</time></trkpt><trkpt lat="44.1972433" lon="12.0003433"><ele>49.0</ele><time>2026-05-02T08:58:19.54Z</time></trkpt><trkpt lat="44.1972567" lon="12.00044"><ele>49.0</ele><time>2026-05-02T08:58:20.54Z</time></trkpt><trkpt lat="44.1972683" lon="12.0005267"><ele>48.99999999999999</ele><time>2026-05-02T08:58:21.54Z</time></trkpt><trkpt lat="44.1972917" lon="12.0007"><ele>49.0</ele><time>2026-05-02T08:58:23.54Z</time></trkpt><trkpt lat="44.1973017" lon="12.0007933"><ele>48.857142857142854</ele><time>2026-05-02T08:58:24.54Z</time></trkpt><trkpt lat="44.197315" lon="12.0008883"><ele>48.714285714285715</ele><time>2026-05-02T08:58:25.54Z</time></trkpt><trkpt lat="44.1973267" lon="12.0009817"><ele>48.57142857142857</ele><time>2026-05-02T08:58:26.54Z</time></trkpt><trkpt lat="44.1973383" lon="12.00107"><ele>48.42857142857143</ele><time>2026-05-02T08:58:27.54Z</time></trkpt><trkpt lat="44.1973517" lon="12.001165"><ele>48.285714285714285</ele><time>2026-05-02T08:58:28.54Z</time></trkpt><trkpt lat="44.1973633" lon="12.0012583"><ele>48.14285714285714</ele><time>2026-05-02T08:58:29.54Z</time></trkpt><trkpt lat="44.197375" lon="12.001355"><ele>48.0</ele><time>2026-05-02T08:58:30.54Z</time></trkpt><trkpt lat="44.19739" lon="12.001455"><ele>47.99999999999999</ele><time>2026-05-02T08:58:31.54Z</time></trkpt><trkpt lat="44.1974017" lon="12.001545"><ele>48.0</ele><time>2026-05-02T08:58:32.541Z</time></trkpt><trkpt lat="44.1974117" lon="12.001635"><ele>48.0</ele><time>2026-05-02T08:58:33.54Z</time></trkpt><trkpt lat="44.1974267" lon="12.0017267"><ele>48.0</ele><time>2026-05-02T08:58:34.54Z</time></trkpt><trkpt lat="44.1974383" lon="12.001815"><ele>48.0</ele><time>2026-05-02T08:58:35.54Z</time></trkpt><trkpt lat="44.1974533" lon="12.0019083"><ele>47.99999999999999</ele><time>2026-05-02T08:58:36.54Z</time></trkpt><trkpt lat="44.1974667" lon="12.001995"><ele>48.0</ele><time>2026-05-02T08:58:37.54Z</time></trkpt><trkpt lat="44.1974783" lon="12.0020883"><ele>47.857142857142854</ele><time>2026-05-02T08:58:38.54Z</time></trkpt><trkpt lat="44.1974933" lon="12.0021783"><ele>47.714285714285715</ele><time>2026-05-02T08:58:39.54Z</time></trkpt><trkpt lat="44.1975083" lon="12.0022717"><ele>47.57142857142857</ele><time>2026-05-02T08:58:40.54Z</time></trkpt><trkpt lat="44.1975217" lon="12.0023617"><ele>47.42857142857143</ele><time>2026-05-02T08:58:41.54Z</time></trkpt><trkpt lat="44.1975383" lon="12.0024533"><ele>47.285714285714285</ele><time>2026-05-02T08:58:42.54Z</time></trkpt><trkpt lat="44.1975483" lon="12.0025517"><ele>47.14285714285714</ele><time>2026-05-02T08:58:43.54Z</time></trkpt><trkpt lat="44.1975633" lon="12.0026467"><ele>47.0</ele><time>2026-05-02T08:58:44.54Z</time></trkpt><trkpt lat="44.1975783" lon="12.002745"><ele>46.857142857142854</ele><time>2026-05-02T08:58:45.54Z</time></trkpt><trkpt lat="44.19759" lon="12.0028367"><ele>46.71428571428571</ele><time>2026-05-02T08:58:46.54Z</time></trkpt><trkpt lat="44.1976" lon="12.0029317"><ele>46.57142857142857</ele><time>2026-05-02T08:58:47.54Z</time></trkpt><trkpt lat="44.19761" lon="12.0030233"><ele>46.42857142857143</ele><time>2026-05-02T08:58:48.54Z</time></trkpt><trkpt lat="44.1976233" lon="12.0031133"><ele>46.285714285714285</ele><time>2026-05-02T08:58:49.54Z</time></trkpt><trkpt lat="44.197635" lon="12.003205"><ele>46.142857142857146</ele><time>2026-05-02T08:58:50.54Z</time></trkpt><trkpt lat="44.197645" lon="12.0033017"><ele>46.0</ele><time>2026-05-02T08:58:51.54Z</time></trkpt><trkpt lat="44.19766" lon="12.0033967"><ele>45.599999999999994</ele><time>2026-05-02T08:58:52.54Z</time></trkpt><trkpt lat="44.197675" lon="12.0034933"><ele>45.2</ele><time>2026-05-02T08:58:53.54Z</time></trkpt><trkpt lat="44.1977033" lon="12.0036533"><ele>44.8</ele><time>2026-05-02T08:58:55.54Z</time></trkpt><trkpt lat="44.19772" lon="12.0037383"><ele>44.400000000000006</ele><time>2026-05-02T08:58:56.54Z</time></trkpt><trkpt lat="44.1977467" lon="12.0039117"><ele>44.0</ele><time>2026-05-02T08:58:58.54Z</time></trkpt><trkpt lat="44.1977767" lon="12.0040767"><ele>43.83333333333333</ele><time>2026-05-02T08:59:00.54Z</time></trkpt><trkpt lat="44.1977917" lon="12.0041733"><ele>43.666666666666664</ele><time>2026-05-02T08:59:01.54Z</time></trkpt><trkpt lat="44.1978067" lon="12.0042767"><ele>43.5</ele><time>2026-05-02T08:59:02.54Z</time></trkpt><trkpt lat="44.19782" lon="12.004375"><ele>43.333333333333336</ele><time>2026-05-02T08:59:03.54Z</time></trkpt><trkpt lat="44.1978333" lon="12.00447"><ele>43.16666666666667</ele><time>2026-05-02T08:59:04.54Z</time></trkpt><trkpt lat="44.1978467" lon="12.004565"><ele>43.0</ele><time>2026-05-02T08:59:05.54Z</time></trkpt><trkpt lat="44.1978767" lon="12.0047317"><ele>43.0</ele><time>2026-05-02T08:59:07.54Z</time></trkpt><trkpt lat="44.1979033" lon="12.0049033"><ele>43.0</ele><time>2026-05-02T08:59:09.54Z</time></trkpt><trkpt lat="44.19792" lon="12.004995"><ele>43.0</ele><time>2026-05-02T08:59:10.54Z</time></trkpt><trkpt lat="44.1979317" lon="12.005085"><ele>43.0</ele><time>2026-05-02T08:59:11.54Z</time></trkpt><trkpt lat="44.1979467" lon="12.005175"><ele>43.0</ele><time>2026-05-02T08:59:12.54Z</time></trkpt><trkpt lat="44.197965" lon="12.005265"><ele>43.0</ele><time>2026-05-02T08:59:13.54Z</time></trkpt><trkpt lat="44.197985" lon="12.0053633"><ele>43.00000000000001</ele><time>2026-05-02T08:59:14.54Z</time></trkpt><trkpt lat="44.197995" lon="12.005455"><ele>43.0</ele><time>2026-05-02T08:59:15.54Z</time></trkpt><trkpt lat="44.198005" lon="12.0055517"><ele>43.0</ele><time>2026-05-02T08:59:16.54Z</time></trkpt><trkpt lat="44.1980183" lon="12.0056467"><ele>43.0</ele><time>2026-05-02T08:59:17.54Z</time></trkpt><trkpt lat="44.19803" lon="12.0057367"><ele>43.0</ele><time>2026-05-02T08:59:18.54Z</time></trkpt><trkpt lat="44.1980433" lon="12.0058317"><ele>43.00000000000001</ele><time>2026-05-02T08:59:19.54Z</time></trkpt><trkpt lat="44.1980567" lon="12.0059283"><ele>43.0</ele><time>2026-05-02T08:59:20.54Z</time></trkpt><trkpt lat="44.1980683" lon="12.006025"><ele>43.00000000000001</ele><time>2026-05-02T08:59:21.54Z</time></trkpt><trkpt lat="44.1980817" lon="12.00612"><ele>43.0</ele><time>2026-05-02T08:59:22.54Z</time></trkpt><trkpt lat="44.19809" lon="12.0062133"><ele>43.0</ele><time>2026-05-02T08:59:23.54Z</time></trkpt><trkpt lat="44.198105" lon="12.0063067"><ele>43.0</ele><time>2026-05-02T08:59:24.54Z</time></trkpt><trkpt lat="44.1981217" lon="12.0064"><ele>43.0</ele><time>2026-05-02T08:59:25.54Z</time></trkpt><trkpt lat="44.19814" lon="12.0064983"><ele>43.00000000000001</ele><time>2026-05-02T08:59:26.541Z</time></trkpt><trkpt lat="44.1981567" lon="12.006595"><ele>43.0</ele><time>2026-05-02T08:59:27.54Z</time></trkpt><trkpt lat="44.1981717" lon="12.0066917"><ele>42.85714285714286</ele><time>2026-05-02T08:59:28.54Z</time></trkpt><trkpt lat="44.1981833" lon="12.0067867"><ele>42.714285714285715</ele><time>2026-05-02T08:59:29.54Z</time></trkpt><trkpt lat="44.1981983" lon="12.0068817"><ele>42.57142857142857</ele><time>2026-05-02T08:59:30.54Z</time></trkpt><trkpt lat="44.1982133" lon="12.0069767"><ele>42.42857142857143</ele><time>2026-05-02T08:59:31.54Z</time></trkpt><trkpt lat="44.19823" lon="12.0070667"><ele>42.285714285714285</ele><time>2026-05-02T08:59:32.54Z</time></trkpt><trkpt lat="44.19824" lon="12.007155"><ele>42.142857142857146</ele><time>2026-05-02T08:59:33.54Z</time></trkpt><trkpt lat="44.1982517" lon="12.0072467"><ele>42.0</ele><time>2026-05-02T08:59:34.54Z</time></trkpt><trkpt lat="44.1982617" lon="12.0073417"><ele>42.0</ele><time>2026-05-02T08:59:35.54Z</time></trkpt><trkpt lat="44.198275" lon="12.0074333"><ele>42.0</ele><time>2026-05-02T08:59:36.54Z</time></trkpt><trkpt lat="44.1982967" lon="12.00761"><ele>42.0</ele><time>2026-05-02T08:59:38.54Z</time></trkpt><trkpt lat="44.198305" lon="12.0077"><ele>42.0</ele><time>2026-05-02T08:59:39.54Z</time></trkpt><trkpt lat="44.198315" lon="12.0078"><ele>42.0</ele><time>2026-05-02T08:59:40.54Z</time></trkpt><trkpt lat="44.1983233" lon="12.0078933"><ele>42.0</ele><time>2026-05-02T08:59:41.541Z</time></trkpt><trkpt lat="44.19834" lon="12.00799"><ele>41.57142857142857</ele><time>2026-05-02T08:59:42.54Z</time></trkpt><trkpt lat="44.1983567" lon="12.008085"><ele>41.14285714285714</ele><time>2026-05-02T08:59:43.54Z</time></trkpt><trkpt lat="44.19837" lon="12.00818"><ele>40.714285714285715</ele><time>2026-05-02T08:59:44.54Z</time></trkpt><trkpt lat="44.19839" lon="12.0082783"><ele>40.285714285714285</ele><time>2026-05-02T08:59:45.54Z</time></trkpt><trkpt lat="44.1984067" lon="12.0083817"><ele>39.857142857142854</ele><time>2026-05-02T08:59:46.54Z</time></trkpt><trkpt lat="44.1984233" lon="12.0084817"><ele>39.42857142857143</ele><time>2026-05-02T08:59:47.54Z</time></trkpt><trkpt lat="44.198445" lon="12.0085817"><ele>39.0</ele><time>2026-05-02T08:59:48.54Z</time></trkpt><trkpt lat="44.1984633" lon="12.0086733"><ele>39.0</ele><time>2026-05-02T08:59:49.54Z</time></trkpt><trkpt lat="44.1984767" lon="12.008765"><ele>39.0</ele><time>2026-05-02T08:59:50.54Z</time></trkpt><trkpt lat="44.198495" lon="12.00885"><ele>39.0</ele><time>2026-05-02T08:59:51.54Z</time></trkpt><trkpt lat="44.198515" lon="12.0089383"><ele>39.0</ele><time>2026-05-02T08:59:52.54Z</time></trkpt><trkpt lat="44.19853" lon="12.00903"><ele>39.0</ele><time>2026-05-02T08:59:53.54Z</time></trkpt><trkpt lat="44.1985517" lon="12.00912"><ele>39.0</ele><time>2026-05-02T08:59:54.54Z</time></trkpt><trkpt lat="44.198575" lon="12.0092133"><ele>39.0</ele><time>2026-05-02T08:59:55.54Z</time></trkpt><trkpt lat="44.1986017" lon="12.0093"><ele>39.333333333333336</ele><time>2026-05-02T08:59:56.54Z</time></trkpt><trkpt lat="44.198625" lon="12.009385"><ele>39.666666666666664</ele><time>2026-05-02T08:59:57.54Z</time></trkpt><trkpt lat="44.19866" lon="12.0095433"><ele>40.0</ele><time>2026-05-02T08:59:59.54Z</time></trkpt><trkpt lat="44.1986817" lon="12.0096267"><ele>40.33333333333333</ele><time>2026-05-02T09:00:00.54Z</time></trkpt><trkpt lat="44.198705" lon="12.0097183"><ele>40.666666666666664</ele><time>2026-05-02T09:00:01.54Z</time></trkpt><trkpt lat="44.1987283" lon="12.0098083"><ele>41.0</ele><time>2026-05-02T09:00:02.541Z</time></trkpt><trkpt lat="44.198755" lon="12.0099"><ele>40.8</ele><time>2026-05-02T09:00:03.54Z</time></trkpt><trkpt lat="44.1987867" lon="12.0099917"><ele>40.599999999999994</ele><time>2026-05-02T09:00:04.54Z</time></trkpt><trkpt lat="44.1988167" lon="12.0100733"><ele>40.4</ele><time>2026-05-02T09:00:05.54Z</time></trkpt><trkpt lat="44.1988733" lon="12.0102283"><ele>40.2</ele><time>2026-05-02T09:00:07.54Z</time></trkpt><trkpt lat="44.19893" lon="12.0103883"><ele>40.0</ele><time>2026-05-02T09:00:09.54Z</time></trkpt><trkpt lat="44.1989617" lon="12.010475"><ele>40.0</ele><time>2026-05-02T09:00:10.54Z</time></trkpt><trkpt lat="44.198995" lon="12.0105567"><ele>40.0</ele><time>2026-05-02T09:00:11.54Z</time></trkpt><trkpt lat="44.1990233" lon="12.0106383"><ele>40.0</ele><time>2026-05-02T09:00:12.54Z</time></trkpt><trkpt lat="44.1990517" lon="12.0107283"><ele>40.0</ele><time>2026-05-02T09:00:13.54Z</time></trkpt><trkpt lat="44.1990783" lon="12.010815"><ele>40.0</ele><time>2026-05-02T09:00:14.54Z</time></trkpt><trkpt lat="44.1991117" lon="12.0108967"><ele>40.0</ele><time>2026-05-02T09:00:15.54Z</time></trkpt><trkpt lat="44.1991417" lon="12.010985"><ele>40.0</ele><time>2026-05-02T09:00:16.54Z</time></trkpt><trkpt lat="44.19917" lon="12.0110683"><ele>39.857142857142854</ele><time>2026-05-02T09:00:17.54Z</time></trkpt><trkpt lat="44.1992" lon="12.0111483"><ele>39.714285714285715</ele><time>2026-05-02T09:00:18.54Z</time></trkpt><trkpt lat="44.1992267" lon="12.01123"><ele>39.57142857142857</ele><time>2026-05-02T09:00:19.54Z</time></trkpt><trkpt lat="44.1992567" lon="12.0113117"><ele>39.42857142857143</ele><time>2026-05-02T09:00:20.54Z</time></trkpt><trkpt lat="44.1992867" lon="12.0113983"><ele>39.285714285714285</ele><time>2026-05-02T09:00:21.54Z</time></trkpt><trkpt lat="44.1993133" lon="12.0114817"><ele>39.142857142857146</ele><time>2026-05-02T09:00:22.54Z</time></trkpt><trkpt lat="44.1993417" lon="12.0115633"><ele>39.0</ele><time>2026-05-02T09:00:23.54Z</time></trkpt><trkpt lat="44.199375" lon="12.011645"><ele>38.666666666666664</ele><time>2026-05-02T09:00:24.54Z</time></trkpt><trkpt lat="44.1994333" lon="12.0118067"><ele>38.333333333333336</ele><time>2026-05-02T09:00:26.54Z</time></trkpt><trkpt lat="44.199465" lon="12.01189"><ele>38.0</ele><time>2026-05-02T09:00:27.54Z</time></trkpt><trkpt lat="44.1994933" lon="12.01197"><ele>37.66666666666667</ele><time>2026-05-02T09:00:28.54Z</time></trkpt><trkpt lat="44.1995167" lon="12.0120517"><ele>37.333333333333336</ele><time>2026-05-02T09:00:29.54Z</time></trkpt><trkpt lat="44.1995433" lon="12.0121333"><ele>37.0</ele><time>2026-05-02T09:00:30.54Z</time></trkpt><trkpt lat="44.1995733" lon="12.0122183"><ele>37.0</ele><time>2026-05-02T09:00:31.54Z</time></trkpt><trkpt lat="44.1996017" lon="12.0123017"><ele>37.0</ele><time>2026-05-02T09:00:32.54Z</time></trkpt><trkpt lat="44.1996567" lon="12.0124583"><ele>37.0</ele><time>2026-05-02T09:00:34.54Z</time></trkpt><trkpt lat="44.199705" lon="12.0126217"><ele>37.0</ele><time>2026-05-02T09:00:36.54Z</time></trkpt><trkpt lat="44.1997583" lon="12.0127717"><ele>37.0</ele><time>2026-05-02T09:00:38.54Z</time></trkpt><trkpt lat="44.1998117" lon="12.012915"><ele>37.4</ele><time>2026-05-02T09:00:40.54Z</time></trkpt><trkpt lat="44.1998683" lon="12.0130683"><ele>37.800000000000004</ele><time>2026-05-02T09:00:42.54Z</time></trkpt><trkpt lat="44.1998967" lon="12.0131533"><ele>38.2</ele><time>2026-05-02T09:00:43.54Z</time></trkpt><trkpt lat="44.19993" lon="12.0132317"><ele>38.6</ele><time>2026-05-02T09:00:44.54Z</time></trkpt><trkpt lat="44.1999783" lon="12.0133867"><ele>39.0</ele><time>2026-05-02T09:00:46.54Z</time></trkpt><trkpt lat="44.2000433" lon="12.0135267"><ele>39.0</ele><time>2026-05-02T09:00:48.54Z</time></trkpt><trkpt lat="44.2001" lon="12.0136817"><ele>39.0</ele><time>2026-05-02T09:00:50.54Z</time></trkpt><trkpt lat="44.2001467" lon="12.013835"><ele>39.0</ele><time>2026-05-02T09:00:52.54Z</time></trkpt><trkpt lat="44.2001983" lon="12.0139733"><ele>39.0</ele><time>2026-05-02T09:00:54.54Z</time></trkpt><trkpt lat="44.2002883" lon="12.01405"><ele>39.0</ele><time>2026-05-02T09:00:56.54Z</time></trkpt><trkpt lat="44.200405" lon="12.0140917"><ele>39.0</ele><time>2026-05-02T09:00:58.54Z</time></trkpt><trkpt lat="44.200465" lon="12.0141267"><ele>39.0</ele><time>2026-05-02T09:00:59.54Z</time></trkpt><trkpt lat="44.20054" lon="12.0142367"><ele>39.0</ele><time>2026-05-02T09:01:01.54Z</time></trkpt><trkpt lat="44.20056" lon="12.0143867"><ele>39.0</ele><time>2026-05-02T09:01:03.54Z</time></trkpt><trkpt lat="44.200525" lon="12.014535"><ele>38.5</ele><time>2026-05-02T09:01:05.54Z</time></trkpt><trkpt lat="44.2004917" lon="12.0147"><ele>38.0</ele><time>2026-05-02T09:01:07.54Z</time></trkpt><trkpt lat="44.200495" lon="12.0147883"><ele>37.5</ele><time>2026-05-02T09:01:08.54Z</time></trkpt><trkpt lat="44.2005133" lon="12.014875"><ele>37.0</ele><time>2026-05-02T09:01:09.54Z</time></trkpt><trkpt lat="44.2005383" lon="12.0149617"><ele>36.5</ele><time>2026-05-02T09:01:10.54Z</time></trkpt><trkpt lat="44.2005667" lon="12.0150483"><ele>36.0</ele><time>2026-05-02T09:01:11.54Z</time></trkpt><trkpt lat="44.2005933" lon="12.0151333"><ele>35.75</ele><time>2026-05-02T09:01:12.541Z</time></trkpt><trkpt lat="44.200645" lon="12.0152917"><ele>35.5</ele><time>2026-05-02T09:01:14.54Z</time></trkpt><trkpt lat="44.2006983" lon="12.0154467"><ele>35.25</ele><time>2026-05-02T09:01:16.54Z</time></trkpt><trkpt lat="44.20075" lon="12.0155933"><ele>35.0</ele><time>2026-05-02T09:01:18.54Z</time></trkpt><trkpt lat="44.2007983" lon="12.0157467"><ele>35.5</ele><time>2026-05-02T09:01:20.541Z</time></trkpt><trkpt lat="44.2008517" lon="12.0158917"><ele>36.0</ele><time>2026-05-02T09:01:22.54Z</time></trkpt><trkpt lat="44.2009083" lon="12.0160417"><ele>36.5</ele><time>2026-05-02T09:01:24.54Z</time></trkpt><trkpt lat="44.200955" lon="12.0161917"><ele>37.0</ele><time>2026-05-02T09:01:26.54Z</time></trkpt><trkpt lat="44.2009967" lon="12.0163467"><ele>37.0</ele><time>2026-05-02T09:01:28.54Z</time></trkpt><trkpt lat="44.2010283" lon="12.0165"><ele>37.0</ele><time>2026-05-02T09:01:30.54Z</time></trkpt><trkpt lat="44.2010567" lon="12.0166533"><ele>37.0</ele><time>2026-05-02T09:01:32.54Z</time></trkpt><trkpt lat="44.2010717" lon="12.01674"><ele>37.0</ele><time>2026-05-02T09:01:33.54Z</time></trkpt><trkpt lat="44.2010883" lon="12.01691"><ele>37.0</ele><time>2026-05-02T09:01:35.54Z</time></trkpt><trkpt lat="44.2010983" lon="12.0170017"><ele>36.800000000000004</ele><time>2026-05-02T09:01:36.54Z</time></trkpt><trkpt lat="44.2011117" lon="12.0170917"><ele>36.6</ele><time>2026-05-02T09:01:37.54Z</time></trkpt><trkpt lat="44.201125" lon="12.0171817"><ele>36.400000000000006</ele><time>2026-05-02T09:01:38.54Z</time></trkpt><trkpt lat="44.2011433" lon="12.0173467"><ele>36.2</ele><time>2026-05-02T09:01:40.54Z</time></trkpt><trkpt lat="44.201155" lon="12.01751"><ele>36.0</ele><time>2026-05-02T09:01:42.54Z</time></trkpt><trkpt lat="44.2011467" lon="12.0176817"><ele>36.00000000000001</ele><time>2026-05-02T09:01:44.54Z</time></trkpt><trkpt lat="44.2011283" lon="12.0177683"><ele>36.0</ele><time>2026-05-02T09:01:45.54Z</time></trkpt><trkpt lat="44.2010983" lon="12.0178483"><ele>36.0</ele><time>2026-05-02T09:01:46.54Z</time></trkpt><trkpt lat="44.2010583" lon="12.0179167"><ele>36.0</ele><time>2026-05-02T09:01:47.54Z</time></trkpt><trkpt lat="44.2010133" lon="12.0179867"><ele>36.0</ele><time>2026-05-02T09:01:48.54Z</time></trkpt><trkpt lat="44.2009767" lon="12.0180667"><ele>36.00000000000001</ele><time>2026-05-02T09:01:49.54Z</time></trkpt><trkpt lat="44.2009517" lon="12.01815"><ele>36.0</ele><time>2026-05-02T09:01:50.54Z</time></trkpt><trkpt lat="44.2009533" lon="12.0183267"><ele>36.00000000000001</ele><time>2026-05-02T09:01:52.54Z</time></trkpt><trkpt lat="44.2009817" lon="12.0184167"><ele>36.0</ele><time>2026-05-02T09:01:53.54Z</time></trkpt><trkpt lat="44.20102" lon="12.0184983"><ele>36.0</ele><time>2026-05-02T09:01:54.54Z</time></trkpt><trkpt lat="44.201055" lon="12.0185883"><ele>36.0</ele><time>2026-05-02T09:01:55.54Z</time></trkpt><trkpt lat="44.201075" lon="12.01868"><ele>36.0</ele><time>2026-05-02T09:01:56.54Z</time></trkpt><trkpt lat="44.2010733" lon="12.0187883"><ele>36.00000000000001</ele><time>2026-05-02T09:01:57.54Z</time></trkpt><trkpt lat="44.2010633" lon="12.0188883"><ele>36.0</ele><time>2026-05-02T09:01:58.54Z</time></trkpt><trkpt lat="44.2010517" lon="12.018985"><ele>36.00000000000001</ele><time>2026-05-02T09:01:59.54Z</time></trkpt><trkpt lat="44.2010417" lon="12.0190733"><ele>36.0</ele><time>2026-05-02T09:02:00.54Z</time></trkpt><trkpt lat="44.20103" lon="12.0191667"><ele>36.0</ele><time>2026-05-02T09:02:01.54Z</time></trkpt><trkpt lat="44.20102" lon="12.019255"><ele>36.0</ele><time>2026-05-02T09:02:02.54Z</time></trkpt><trkpt lat="44.2010133" lon="12.0193467"><ele>36.0</ele><time>2026-05-02T09:02:03.54Z</time></trkpt><trkpt lat="44.201005" lon="12.01944"><ele>36.00000000000001</ele><time>2026-05-02T09:02:04.54Z</time></trkpt><trkpt lat="44.2009983" lon="12.0195317"><ele>36.0</ele><time>2026-05-02T09:02:05.54Z</time></trkpt><trkpt lat="44.2009917" lon="12.019625"><ele>36.166666666666664</ele><time>2026-05-02T09:02:06.54Z</time></trkpt><trkpt lat="44.2009733" lon="12.019795"><ele>36.333333333333336</ele><time>2026-05-02T09:02:08.54Z</time></trkpt><trkpt lat="44.2009533" lon="12.0199633"><ele>36.5</ele><time>2026-05-02T09:02:10.54Z</time></trkpt><trkpt lat="44.200945" lon="12.020055"><ele>36.66666666666667</ele><time>2026-05-02T09:02:11.54Z</time></trkpt><trkpt lat="44.2009333" lon="12.0201467"><ele>36.833333333333336</ele><time>2026-05-02T09:02:12.54Z</time></trkpt><trkpt lat="44.2009267" lon="12.020235"><ele>37.0</ele><time>2026-05-02T09:02:13.54Z</time></trkpt><trkpt lat="44.2009183" lon="12.0203283"><ele>37.0</ele><time>2026-05-02T09:02:14.54Z</time></trkpt><trkpt lat="44.2009067" lon="12.0204217"><ele>37.0</ele><time>2026-05-02T09:02:15.54Z</time></trkpt><trkpt lat="44.2008933" lon="12.020515"><ele>37.0</ele><time>2026-05-02T09:02:16.54Z</time></trkpt><trkpt lat="44.2008817" lon="12.020605"><ele>37.0</ele><time>2026-05-02T09:02:17.54Z</time></trkpt><trkpt lat="44.2008733" lon="12.0206983"><ele>37.0</ele><time>2026-05-02T09:02:18.541Z</time></trkpt><trkpt lat="44.2008633" lon="12.0207933"><ele>37.0</ele><time>2026-05-02T09:02:19.54Z</time></trkpt><trkpt lat="44.2008383" lon="12.0209733"><ele>37.0</ele><time>2026-05-02T09:02:21.54Z</time></trkpt><trkpt lat="44.2008367" lon="12.021065"><ele>37.0</ele><time>2026-05-02T09:02:22.54Z</time></trkpt><trkpt lat="44.20083" lon="12.0211583"><ele>37.0</ele><time>2026-05-02T09:02:23.54Z</time></trkpt><trkpt lat="44.2008217" lon="12.02125"><ele>37.0</ele><time>2026-05-02T09:02:24.54Z</time></trkpt><trkpt lat="44.20082" lon="12.02135"><ele>37.0</ele><time>2026-05-02T09:02:25.54Z</time></trkpt><trkpt lat="44.2008067" lon="12.021445"><ele>37.0</ele><time>2026-05-02T09:02:26.54Z</time></trkpt><trkpt lat="44.2007967" lon="12.0215317"><ele>37.0</ele><time>2026-05-02T09:02:27.54Z</time></trkpt><trkpt lat="44.20079" lon="12.02162"><ele>37.2</ele><time>2026-05-02T09:02:28.54Z</time></trkpt><trkpt lat="44.20077" lon="12.021785"><ele>37.400000000000006</ele><time>2026-05-02T09:02:30.54Z</time></trkpt><trkpt lat="44.2007317" lon="12.02192"><ele>37.599999999999994</ele><time>2026-05-02T09:02:32.54Z</time></trkpt><trkpt lat="44.2006833" lon="12.0220367"><ele>37.8</ele><time>2026-05-02T09:02:34.54Z</time></trkpt><trkpt lat="44.200635" lon="12.0221517"><ele>38.0</ele><time>2026-05-02T09:02:36.54Z</time></trkpt><trkpt lat="44.2006167" lon="12.0222883"><ele>38.0</ele><time>2026-05-02T09:02:38.54Z</time></trkpt><trkpt lat="44.200655" lon="12.022405"><ele>38.0</ele><time>2026-05-02T09:02:40.541Z</time></trkpt><trkpt lat="44.200735" lon="12.0224817"><ele>38.0</ele><time>2026-05-02T09:02:42.54Z</time></trkpt><trkpt lat="44.20085" lon="12.0224633"><ele>38.0</ele><time>2026-05-02T09:02:44.54Z</time></trkpt><trkpt lat="44.2009067" lon="12.0224233"><ele>38.0</ele><time>2026-05-02T09:02:45.54Z</time></trkpt><trkpt lat="44.2010083" lon="12.0223333"><ele>38.0</ele><time>2026-05-02T09:02:47.54Z</time></trkpt><trkpt lat="44.2011217" lon="12.02229"><ele>38.0</ele><time>2026-05-02T09:02:49.54Z</time></trkpt><trkpt lat="44.2012433" lon="12.0222983"><ele>38.0</ele><time>2026-05-02T09:02:51.54Z</time></trkpt><trkpt lat="44.2013083" lon="12.022315"><ele>38.0</ele><time>2026-05-02T09:02:52.54Z</time></trkpt><trkpt lat="44.2013733" lon="12.0223233"><ele>38.0</ele><time>2026-05-02T09:02:53.54Z</time></trkpt><trkpt lat="44.2014367" lon="12.022335"><ele>38.0</ele><time>2026-05-02T09:02:54.54Z</time></trkpt><trkpt lat="44.2015567" lon="12.022355"><ele>37.8</ele><time>2026-05-02T09:02:56.54Z</time></trkpt><trkpt lat="44.2016733" lon="12.0223733"><ele>37.599999999999994</ele><time>2026-05-02T09:02:58.54Z</time></trkpt><trkpt lat="44.20177" lon="12.02247"><ele>37.400000000000006</ele><time>2026-05-02T09:03:00.54Z</time></trkpt><trkpt lat="44.201835" lon="12.02261"><ele>37.2</ele><time>2026-05-02T09:03:02.54Z</time></trkpt><trkpt lat="44.2018617" lon="12.0226917"><ele>37.0</ele><time>2026-05-02T09:03:03.54Z</time></trkpt><trkpt lat="44.2019217" lon="12.0228467"><ele>36.6</ele><time>2026-05-02T09:03:05.54Z</time></trkpt><trkpt lat="44.2019633" lon="12.022995"><ele>36.2</ele><time>2026-05-02T09:03:07.54Z</time></trkpt><trkpt lat="44.20199" lon="12.0230783"><ele>35.8</ele><time>2026-05-02T09:03:08.54Z</time></trkpt><trkpt lat="44.2020367" lon="12.0232367"><ele>35.4</ele><time>2026-05-02T09:03:10.541Z</time></trkpt><trkpt lat="44.20208" lon="12.02338"><ele>35.0</ele><time>2026-05-02T09:03:12.54Z</time></trkpt><trkpt lat="44.202125" lon="12.0235167"><ele>34.0</ele><time>2026-05-02T09:03:14.54Z</time></trkpt><trkpt lat="44.2021767" lon="12.0236667"><ele>33.0</ele><time>2026-05-02T09:03:16.54Z</time></trkpt><trkpt lat="44.2022267" lon="12.0238133"><ele>32.0</ele><time>2026-05-02T09:03:18.54Z</time></trkpt><trkpt lat="44.2022717" lon="12.023965"><ele>31.0</ele><time>2026-05-02T09:03:20.54Z</time></trkpt><trkpt lat="44.20232" lon="12.02412"><ele>30.8</ele><time>2026-05-02T09:03:22.54Z</time></trkpt><trkpt lat="44.2023683" lon="12.0242633"><ele>30.6</ele><time>2026-05-02T09:03:24.54Z</time></trkpt><trkpt lat="44.2024217" lon="12.0244017"><ele>30.4</ele><time>2026-05-02T09:03:26.54Z</time></trkpt><trkpt lat="44.20248" lon="12.0245233"><ele>30.2</ele><time>2026-05-02T09:03:28.54Z</time></trkpt><trkpt lat="44.202545" lon="12.02465"><ele>30.0</ele><time>2026-05-02T09:03:30.54Z</time></trkpt><trkpt lat="44.2026067" lon="12.0247533"><ele>30.0</ele><time>2026-05-02T09:03:32.54Z</time></trkpt><trkpt lat="44.20268" lon="12.0248483"><ele>30.0</ele><time>2026-05-02T09:03:34.54Z</time></trkpt><trkpt lat="44.2027617" lon="12.0249183"><ele>30.0</ele><time>2026-05-02T09:03:36.541Z</time></trkpt><trkpt lat="44.20283" lon="12.02499"><ele>30.0</ele><time>2026-05-02T09:03:38.54Z</time></trkpt><trkpt lat="44.202915" lon="12.0250817"><ele>30.0</ele><time>2026-05-02T09:03:40.54Z</time></trkpt><trkpt lat="44.203" lon="12.0251817"><ele>29.8</ele><time>2026-05-02T09:03:42.54Z</time></trkpt><trkpt lat="44.2030867" lon="12.0252767"><ele>29.6</ele><time>2026-05-02T09:03:44.54Z</time></trkpt><trkpt lat="44.2031683" lon="12.0253583"><ele>29.4</ele><time>2026-05-02T09:03:46.54Z</time></trkpt><trkpt lat="44.2032483" lon="12.02544"><ele>29.2</ele><time>2026-05-02T09:03:48.54Z</time></trkpt><trkpt lat="44.2033233" lon="12.0255233"><ele>29.0</ele><time>2026-05-02T09:03:50.54Z</time></trkpt><trkpt lat="44.2034033" lon="12.0255917"><ele>29.4</ele><time>2026-05-02T09:03:52.54Z</time></trkpt><trkpt lat="44.203485" lon="12.0256617"><ele>29.799999999999997</ele><time>2026-05-02T09:03:54.54Z</time></trkpt><trkpt lat="44.2035517" lon="12.02573"><ele>30.200000000000003</ele><time>2026-05-02T09:03:56.54Z</time></trkpt><trkpt lat="44.2036217" lon="12.0257933"><ele>30.6</ele><time>2026-05-02T09:03:58.54Z</time></trkpt><trkpt lat="44.2036983" lon="12.0258617"><ele>31.0</ele><time>2026-05-02T09:04:00.54Z</time></trkpt><trkpt lat="44.203785" lon="12.0259283"><ele>31.000000000000004</ele><time>2026-05-02T09:04:02.54Z</time></trkpt><trkpt lat="44.203875" lon="12.0259867"><ele>31.0</ele><time>2026-05-02T09:04:04.54Z</time></trkpt><trkpt lat="44.20396" lon="12.0260267"><ele>31.0</ele><time>2026-05-02T09:04:06.54Z</time></trkpt><trkpt lat="44.2040383" lon="12.0260667"><ele>31.0</ele><time>2026-05-02T09:04:08.54Z</time></trkpt><trkpt lat="44.2041117" lon="12.0261167"><ele>31.000000000000004</ele><time>2026-05-02T09:04:10.54Z</time></trkpt><trkpt lat="44.2041883" lon="12.0261633"><ele>31.0</ele><time>2026-05-02T09:04:12.541Z</time></trkpt><trkpt lat="44.2042717" lon="12.0262133"><ele>31.4</ele><time>2026-05-02T09:04:14.54Z</time></trkpt><trkpt lat="44.204355" lon="12.0262683"><ele>31.8</ele><time>2026-05-02T09:04:16.54Z</time></trkpt><trkpt lat="44.2044433" lon="12.026325"><ele>32.199999999999996</ele><time>2026-05-02T09:04:18.54Z</time></trkpt><trkpt lat="44.20453" lon="12.0263817"><ele>32.6</ele><time>2026-05-02T09:04:20.54Z</time></trkpt><trkpt lat="44.2046117" lon="12.02644"><ele>33.0</ele><time>2026-05-02T09:04:22.541Z</time></trkpt><trkpt lat="44.204695" lon="12.026495"><ele>33.0</ele><time>2026-05-02T09:04:24.54Z</time></trkpt><trkpt lat="44.2047783" lon="12.0265683"><ele>33.0</ele><time>2026-05-02T09:04:26.54Z</time></trkpt><trkpt lat="44.20486" lon="12.0266417"><ele>33.0</ele><time>2026-05-02T09:04:28.54Z</time></trkpt><trkpt lat="44.2049267" lon="12.02674"><ele>33.0</ele><time>2026-05-02T09:04:30.54Z</time></trkpt><trkpt lat="44.2049533" lon="12.026875"><ele>33.0</ele><time>2026-05-02T09:04:32.54Z</time></trkpt><trkpt lat="44.2049483" lon="12.0270183"><ele>33.4</ele><time>2026-05-02T09:04:34.541Z</time></trkpt><trkpt lat="44.2049283" lon="12.027175"><ele>33.8</ele><time>2026-05-02T09:04:36.54Z</time></trkpt><trkpt lat="44.2048933" lon="12.027315"><ele>34.2</ele><time>2026-05-02T09:04:38.54Z</time></trkpt><trkpt lat="44.2048667" lon="12.02743"><ele>34.6</ele><time>2026-05-02T09:04:40.54Z</time></trkpt><trkpt lat="44.2048433" lon="12.0275533"><ele>35.0</ele><time>2026-05-02T09:04:42.54Z</time></trkpt><trkpt lat="44.2048283" lon="12.0276967"><ele>35.33333333333333</ele><time>2026-05-02T09:04:44.54Z</time></trkpt><trkpt lat="44.2048067" lon="12.0278183"><ele>35.666666666666664</ele><time>2026-05-02T09:04:46.54Z</time></trkpt><trkpt lat="44.2047767" lon="12.02793"><ele>36.0</ele><time>2026-05-02T09:04:48.54Z</time></trkpt><trkpt lat="44.20475" lon="12.0280367"><ele>36.333333333333336</ele><time>2026-05-02T09:04:50.54Z</time></trkpt><trkpt lat="44.2047267" lon="12.0281333"><ele>36.66666666666667</ele><time>2026-05-02T09:04:52.54Z</time></trkpt><trkpt lat="44.2047067" lon="12.0282483"><ele>37.0</ele><time>2026-05-02T09:04:55.54Z</time></trkpt><trkpt lat="44.2046783" lon="12.0283483"><ele>37.16666666666667</ele><time>2026-05-02T09:04:59.54Z</time></trkpt><trkpt lat="44.2046483" lon="12.0284583"><ele>37.333333333333336</ele><time>2026-05-02T09:05:07.54Z</time></trkpt><trkpt lat="44.2046367" lon="12.0285517"><ele>37.5</ele><time>2026-05-02T09:05:10.54Z</time></trkpt><trkpt lat="44.2046033" lon="12.0286433"><ele>37.666666666666664</ele><time>2026-05-02T09:05:13.54Z</time></trkpt><trkpt lat="44.2045617" lon="12.02876"><ele>37.83333333333333</ele><time>2026-05-02T09:05:16.54Z</time></trkpt><trkpt lat="44.2045383" lon="12.028845"><ele>38.0</ele><time>2026-05-02T09:05:18.54Z</time></trkpt><trkpt lat="44.2045183" lon="12.0289517"><ele>38.0</ele><time>2026-05-02T09:05:20.54Z</time></trkpt><trkpt lat="44.2045067" lon="12.0291067"><ele>38.0</ele><time>2026-05-02T09:05:22.54Z</time></trkpt><trkpt lat="44.2044833" lon="12.0292483"><ele>38.0</ele><time>2026-05-02T09:05:24.54Z</time></trkpt><trkpt lat="44.2044467" lon="12.0293867"><ele>38.0</ele><time>2026-05-02T09:05:26.54Z</time></trkpt><trkpt lat="44.2044067" lon="12.0295467"><ele>38.0</ele><time>2026-05-02T09:05:28.54Z</time></trkpt><trkpt lat="44.2043817" lon="12.0296317"><ele>37.8</ele><time>2026-05-02T09:05:29.54Z</time></trkpt><trkpt lat="44.20436" lon="12.029715"><ele>37.599999999999994</ele><time>2026-05-02T09:05:30.54Z</time></trkpt><trkpt lat="44.20432" lon="12.0298717"><ele>37.400000000000006</ele><time>2026-05-02T09:05:32.54Z</time></trkpt><trkpt lat="44.2042767" lon="12.03001"><ele>37.2</ele><time>2026-05-02T09:05:34.54Z</time></trkpt><trkpt lat="44.2042317" lon="12.0301567"><ele>37.0</ele><time>2026-05-02T09:05:36.54Z</time></trkpt><trkpt lat="44.20418" lon="12.0302967"><ele>37.0</ele><time>2026-05-02T09:05:38.54Z</time></trkpt><trkpt lat="44.20414" lon="12.030435"><ele>37.0</ele><time>2026-05-02T09:05:40.54Z</time></trkpt><trkpt lat="44.2040967" lon="12.0305683"><ele>37.0</ele><time>2026-05-02T09:05:42.54Z</time></trkpt><trkpt lat="44.204045" lon="12.0307117"><ele>37.0</ele><time>2026-05-02T09:05:44.54Z</time></trkpt><trkpt lat="44.203995" lon="12.0308483"><ele>37.0</ele><time>2026-05-02T09:05:46.54Z</time></trkpt><trkpt lat="44.203955" lon="12.030995"><ele>37.0</ele><time>2026-05-02T09:05:48.54Z</time></trkpt><trkpt lat="44.2039017" lon="12.0311383"><ele>37.0</ele><time>2026-05-02T09:05:50.54Z</time></trkpt><trkpt lat="44.2038567" lon="12.0312933"><ele>37.0</ele><time>2026-05-02T09:05:52.54Z</time></trkpt><trkpt lat="44.2038117" lon="12.031445"><ele>37.0</ele><time>2026-05-02T09:05:54.54Z</time></trkpt><trkpt lat="44.2037483" lon="12.03158"><ele>36.75</ele><time>2026-05-02T09:05:56.54Z</time></trkpt><trkpt lat="44.20369" lon="12.0317333"><ele>36.5</ele><time>2026-05-02T09:05:58.54Z</time></trkpt><trkpt lat="44.203645" lon="12.0318933"><ele>36.25</ele><time>2026-05-02T09:06:00.54Z</time></trkpt><trkpt lat="44.2035883" lon="12.0320483"><ele>36.0</ele><time>2026-05-02T09:06:02.54Z</time></trkpt><trkpt lat="44.20353" lon="12.0321933"><ele>36.0</ele><time>2026-05-02T09:06:04.541Z</time></trkpt><trkpt lat="44.2034817" lon="12.0323367"><ele>36.0</ele><time>2026-05-02T09:06:06.54Z</time></trkpt><trkpt lat="44.20343" lon="12.0324933"><ele>36.0</ele><time>2026-05-02T09:06:08.54Z</time></trkpt><trkpt lat="44.2033767" lon="12.0326483"><ele>36.0</ele><time>2026-05-02T09:06:10.54Z</time></trkpt><trkpt lat="44.2033267" lon="12.0327933"><ele>35.75</ele><time>2026-05-02T09:06:12.54Z</time></trkpt><trkpt lat="44.2032733" lon="12.0329417"><ele>35.5</ele><time>2026-05-02T09:06:14.541Z</time></trkpt><trkpt lat="44.20322" lon="12.03309"><ele>35.25</ele><time>2026-05-02T09:06:16.54Z</time></trkpt><trkpt lat="44.2031817" lon="12.03324"><ele>35.0</ele><time>2026-05-02T09:06:18.54Z</time></trkpt><trkpt lat="44.2031433" lon="12.0333817"><ele>34.4</ele><time>2026-05-02T09:06:20.54Z</time></trkpt><trkpt lat="44.2030983" lon="12.0335183"><ele>33.8</ele><time>2026-05-02T09:06:22.54Z</time></trkpt><trkpt lat="44.2030683" lon="12.0336383"><ele>33.2</ele><time>2026-05-02T09:06:24.54Z</time></trkpt><trkpt lat="44.203045" lon="12.0337467"><ele>32.6</ele><time>2026-05-02T09:06:26.54Z</time></trkpt><trkpt lat="44.2030033" lon="12.0338567"><ele>32.0</ele><time>2026-05-02T09:06:28.54Z</time></trkpt><trkpt lat="44.2029417" lon="12.03398"><ele>32.0</ele><time>2026-05-02T09:06:30.54Z</time></trkpt><trkpt lat="44.2029017" lon="12.0341067"><ele>32.0</ele><time>2026-05-02T09:06:32.54Z</time></trkpt><trkpt lat="44.2028583" lon="12.0342383"><ele>32.0</ele><time>2026-05-02T09:06:34.54Z</time></trkpt><trkpt lat="44.2028033" lon="12.0343483"><ele>32.0</ele><time>2026-05-02T09:06:36.54Z</time></trkpt><trkpt lat="44.202775" lon="12.0344667"><ele>32.0</ele><time>2026-05-02T09:06:38.54Z</time></trkpt><trkpt lat="44.2027383" lon="12.034595"><ele>32.6</ele><time>2026-05-02T09:06:40.54Z</time></trkpt><trkpt lat="44.2026783" lon="12.03473"><ele>33.2</ele><time>2026-05-02T09:06:42.54Z</time></trkpt><trkpt lat="44.2026333" lon="12.0348783"><ele>33.8</ele><time>2026-05-02T09:06:44.54Z</time></trkpt><trkpt lat="44.2025967" lon="12.0350117"><ele>34.4</ele><time>2026-05-02T09:06:46.54Z</time></trkpt><trkpt lat="44.2025467" lon="12.0351483"><ele>35.0</ele><time>2026-05-02T09:06:48.54Z</time></trkpt><trkpt lat="44.2025" lon="12.0352683"><ele>35.166666666666664</ele><time>2026-05-02T09:06:50.54Z</time></trkpt><trkpt lat="44.2024517" lon="12.0353867"><ele>35.33333333333333</ele><time>2026-05-02T09:06:52.54Z</time></trkpt><trkpt lat="44.2024133" lon="12.035505"><ele>35.5</ele><time>2026-05-02T09:06:54.54Z</time></trkpt><trkpt lat="44.202375" lon="12.035615"><ele>35.666666666666664</ele><time>2026-05-02T09:06:56.54Z</time></trkpt><trkpt lat="44.20234" lon="12.03571"><ele>35.833333333333336</ele><time>2026-05-02T09:06:58.54Z</time></trkpt><trkpt lat="44.2022933" lon="12.0357933"><ele>36.0</ele><time>2026-05-02T09:07:01.54Z</time></trkpt><trkpt lat="44.20229" lon="12.0359083"><ele>36.0</ele><time>2026-05-02T09:07:06.54Z</time></trkpt><trkpt lat="44.2022983" lon="12.0360017"><ele>36.0</ele><time>2026-05-02T09:07:08.54Z</time></trkpt><trkpt lat="44.2022617" lon="12.0361117"><ele>36.0</ele><time>2026-05-02T09:07:10.54Z</time></trkpt><trkpt lat="44.2022133" lon="12.0362233"><ele>36.0</ele><time>2026-05-02T09:07:12.54Z</time></trkpt><trkpt lat="44.2021767" lon="12.036345"><ele>36.0</ele><time>2026-05-02T09:07:14.54Z</time></trkpt><trkpt lat="44.2021183" lon="12.0364733"><ele>36.0</ele><time>2026-05-02T09:07:16.54Z</time></trkpt><trkpt lat="44.202075" lon="12.0366017"><ele>36.0</ele><time>2026-05-02T09:07:18.54Z</time></trkpt><trkpt lat="44.2020183" lon="12.03672"><ele>36.0</ele><time>2026-05-02T09:07:20.54Z</time></trkpt><trkpt lat="44.2019683" lon="12.0368533"><ele>36.0</ele><time>2026-05-02T09:07:22.54Z</time></trkpt><trkpt lat="44.20192" lon="12.03697"><ele>36.0</ele><time>2026-05-02T09:07:24.54Z</time></trkpt><trkpt lat="44.2018733" lon="12.0370967"><ele>36.0</ele><time>2026-05-02T09:07:26.54Z</time></trkpt><trkpt lat="44.20183" lon="12.03723"><ele>36.0</ele><time>2026-05-02T09:07:28.541Z</time></trkpt><trkpt lat="44.201785" lon="12.0373683"><ele>36.0</ele><time>2026-05-02T09:07:30.54Z</time></trkpt><trkpt lat="44.20174" lon="12.0375067"><ele>36.0</ele><time>2026-05-02T09:07:32.54Z</time></trkpt><trkpt lat="44.2016867" lon="12.037625"><ele>36.0</ele><time>2026-05-02T09:07:34.54Z</time></trkpt><trkpt lat="44.201615" lon="12.0377533"><ele>35.8</ele><time>2026-05-02T09:07:36.54Z</time></trkpt><trkpt lat="44.2015583" lon="12.037895"><ele>35.6</ele><time>2026-05-02T09:07:38.54Z</time></trkpt><trkpt lat="44.2015017" lon="12.0380383"><ele>35.4</ele><time>2026-05-02T09:07:40.54Z</time></trkpt><trkpt lat="44.2014617" lon="12.03817"><ele>35.2</ele><time>2026-05-02T09:07:42.54Z</time></trkpt><trkpt lat="44.20141" lon="12.0382967"><ele>35.0</ele><time>2026-05-02T09:07:44.54Z</time></trkpt><trkpt lat="44.201365" lon="12.0384217"><ele>34.83333333333333</ele><time>2026-05-02T09:07:46.54Z</time></trkpt><trkpt lat="44.20131" lon="12.0385517"><ele>34.666666666666664</ele><time>2026-05-02T09:07:48.54Z</time></trkpt><trkpt lat="44.2012767" lon="12.0386617"><ele>34.5</ele><time>2026-05-02T09:07:50.54Z</time></trkpt><trkpt lat="44.201245" lon="12.0387733"><ele>34.333333333333336</ele><time>2026-05-02T09:07:52.54Z</time></trkpt><trkpt lat="44.2012617" lon="12.0388767"><ele>34.16666666666667</ele><time>2026-05-02T09:07:54.54Z</time></trkpt><trkpt lat="44.2013233" lon="12.03895"><ele>34.0</ele><time>2026-05-02T09:07:56.54Z</time></trkpt><trkpt lat="44.2014017" lon="12.03901"><ele>34.0</ele><time>2026-05-02T09:07:58.54Z</time></trkpt><trkpt lat="44.2014733" lon="12.0390633"><ele>34.0</ele><time>2026-05-02T09:08:00.54Z</time></trkpt><trkpt lat="44.2015533" lon="12.0391117"><ele>34.0</ele><time>2026-05-02T09:08:02.54Z</time></trkpt><trkpt lat="44.2015883" lon="12.0392217"><ele>34.0</ele><time>2026-05-02T09:08:05.54Z</time></trkpt><trkpt lat="44.2015583" lon="12.039315"><ele>34.0</ele><time>2026-05-02T09:08:07.54Z</time></trkpt><trkpt lat="44.20153" lon="12.03943"><ele>34.0</ele><time>2026-05-02T09:08:09.54Z</time></trkpt><trkpt lat="44.2014917" lon="12.0395583"><ele>34.2</ele><time>2026-05-02T09:08:11.54Z</time></trkpt><trkpt lat="44.2014567" lon="12.0396867"><ele>34.4</ele><time>2026-05-02T09:08:13.54Z</time></trkpt><trkpt lat="44.2014133" lon="12.0398167"><ele>34.6</ele><time>2026-05-02T09:08:15.54Z</time></trkpt><trkpt lat="44.2013533" lon="12.039955"><ele>34.8</ele><time>2026-05-02T09:08:17.54Z</time></trkpt><trkpt lat="44.2013067" lon="12.0400867"><ele>35.0</ele><time>2026-05-02T09:08:19.54Z</time></trkpt><trkpt lat="44.2012533" lon="12.0402183"><ele>35.0</ele><time>2026-05-02T09:08:21.54Z</time></trkpt><trkpt lat="44.2011967" lon="12.0403633"><ele>35.0</ele><time>2026-05-02T09:08:23.54Z</time></trkpt><trkpt lat="44.201145" lon="12.0405167"><ele>35.0</ele><time>2026-05-02T09:08:25.54Z</time></trkpt><trkpt lat="44.201095" lon="12.040675"><ele>35.0</ele><time>2026-05-02T09:08:27.54Z</time></trkpt><trkpt lat="44.20106" lon="12.040835"><ele>35.0</ele><time>2026-05-02T09:08:29.54Z</time></trkpt><trkpt lat="44.2010167" lon="12.0409867"><ele>35.0</ele><time>2026-05-02T09:08:31.54Z</time></trkpt><trkpt lat="44.2009633" lon="12.04114"><ele>35.0</ele><time>2026-05-02T09:08:33.54Z</time></trkpt><trkpt lat="44.200915" lon="12.04129"><ele>35.0</ele><time>2026-05-02T09:08:35.54Z</time></trkpt><trkpt lat="44.2008767" lon="12.0414333"><ele>35.0</ele><time>2026-05-02T09:08:37.54Z</time></trkpt><trkpt lat="44.2008317" lon="12.0415867"><ele>35.0</ele><time>2026-05-02T09:08:39.54Z</time></trkpt><trkpt lat="44.2007767" lon="12.041725"><ele>35.0</ele><time>2026-05-02T09:08:41.54Z</time></trkpt><trkpt lat="44.20071" lon="12.0418717"><ele>35.0</ele><time>2026-05-02T09:08:43.54Z</time></trkpt><trkpt lat="44.2006483" lon="12.042015"><ele>34.8</ele><time>2026-05-02T09:08:45.54Z</time></trkpt><trkpt lat="44.2006133" lon="12.0420967"><ele>34.6</ele><time>2026-05-02T09:08:46.54Z</time></trkpt><trkpt lat="44.200585" lon="12.04218"><ele>34.4</ele><time>2026-05-02T09:08:47.54Z</time></trkpt><trkpt lat="44.2005333" lon="12.0423283"><ele>34.2</ele><time>2026-05-02T09:08:49.54Z</time></trkpt><trkpt lat="44.2004817" lon="12.0424717"><ele>34.0</ele><time>2026-05-02T09:08:51.54Z</time></trkpt><trkpt lat="44.2004317" lon="12.0426183"><ele>33.75</ele><time>2026-05-02T09:08:53.54Z</time></trkpt><trkpt lat="44.2003867" lon="12.0427817"><ele>33.5</ele><time>2026-05-02T09:08:55.54Z</time></trkpt><trkpt lat="44.20035" lon="12.0429333"><ele>33.25</ele><time>2026-05-02T09:08:57.54Z</time></trkpt><trkpt lat="44.2002983" lon="12.043085"><ele>33.0</ele><time>2026-05-02T09:08:59.54Z</time></trkpt><trkpt lat="44.200255" lon="12.0432367"><ele>33.199999999999996</ele><time>2026-05-02T09:09:01.54Z</time></trkpt><trkpt lat="44.2002117" lon="12.043385"><ele>33.4</ele><time>2026-05-02T09:09:03.54Z</time></trkpt><trkpt lat="44.2001633" lon="12.0435317"><ele>33.599999999999994</ele><time>2026-05-02T09:09:05.541Z</time></trkpt><trkpt lat="44.200125" lon="12.0436683"><ele>33.8</ele><time>2026-05-02T09:09:07.54Z</time></trkpt><trkpt lat="44.2000817" lon="12.043805"><ele>34.0</ele><time>2026-05-02T09:09:09.54Z</time></trkpt><trkpt lat="44.200035" lon="12.0439483"><ele>34.0</ele><time>2026-05-02T09:09:11.54Z</time></trkpt><trkpt lat="44.19999" lon="12.0440833"><ele>34.0</ele><time>2026-05-02T09:09:13.54Z</time></trkpt><trkpt lat="44.1999483" lon="12.044195"><ele>34.0</ele><time>2026-05-02T09:09:15.54Z</time></trkpt><trkpt lat="44.1999083" lon="12.0442667"><ele>34.0</ele><time>2026-05-02T09:09:18.541Z</time></trkpt><trkpt lat="44.199885" lon="12.044355"><ele>34.0</ele><time>2026-05-02T09:09:48.54Z</time></trkpt><trkpt lat="44.1999083" lon="12.0444367"><ele>34.0</ele><time>2026-05-02T09:09:52.54Z</time></trkpt><trkpt lat="44.1999783" lon="12.04448"><ele>34.16666666666667</ele><time>2026-05-02T09:09:55.54Z</time></trkpt><trkpt lat="44.20004" lon="12.0445267"><ele>34.333333333333336</ele><time>2026-05-02T09:09:57.541Z</time></trkpt><trkpt lat="44.2001117" lon="12.0445683"><ele>34.5</ele><time>2026-05-02T09:09:59.54Z</time></trkpt><trkpt lat="44.2001867" lon="12.0446283"><ele>34.666666666666664</ele><time>2026-05-02T09:10:01.54Z</time></trkpt><trkpt lat="44.20026" lon="12.0446867"><ele>34.83333333333333</ele><time>2026-05-02T09:10:03.54Z</time></trkpt><trkpt lat="44.2003533" lon="12.04475"><ele>35.0</ele><time>2026-05-02T09:10:05.54Z</time></trkpt><trkpt lat="44.2004467" lon="12.044815"><ele>35.0</ele><time>2026-05-02T09:10:07.54Z</time></trkpt><trkpt lat="44.2005317" lon="12.0448917"><ele>35.0</ele><time>2026-05-02T09:10:09.54Z</time></trkpt><trkpt lat="44.2006167" lon="12.0449717"><ele>35.0</ele><time>2026-05-02T09:10:11.54Z</time></trkpt><trkpt lat="44.200705" lon="12.0450433"><ele>35.0</ele><time>2026-05-02T09:10:13.54Z</time></trkpt><trkpt lat="44.2008083" lon="12.0451133"><ele>35.0</ele><time>2026-05-02T09:10:15.54Z</time></trkpt><trkpt lat="44.2009017" lon="12.0451983"><ele>34.6</ele><time>2026-05-02T09:10:17.54Z</time></trkpt><trkpt lat="44.2009883" lon="12.0452633"><ele>34.2</ele><time>2026-05-02T09:10:19.54Z</time></trkpt><trkpt lat="44.2010717" lon="12.0453217"><ele>33.8</ele><time>2026-05-02T09:10:21.54Z</time></trkpt><trkpt lat="44.201155" lon="12.0453783"><ele>33.4</ele><time>2026-05-02T09:10:23.54Z</time></trkpt><trkpt lat="44.2012467" lon="12.04544"><ele>33.0</ele><time>2026-05-02T09:10:25.54Z</time></trkpt><trkpt lat="44.201345" lon="12.04551"><ele>33.0</ele><time>2026-05-02T09:10:27.54Z</time></trkpt><trkpt lat="44.2014417" lon="12.0455933"><ele>33.0</ele><time>2026-05-02T09:10:29.54Z</time></trkpt><trkpt lat="44.2015317" lon="12.0456733"><ele>33.0</ele><time>2026-05-02T09:10:31.54Z</time></trkpt><trkpt lat="44.2016283" lon="12.0457467"><ele>33.0</ele><time>2026-05-02T09:10:33.54Z</time></trkpt><trkpt lat="44.2017283" lon="12.0458233"><ele>33.0</ele><time>2026-05-02T09:10:35.54Z</time></trkpt><trkpt lat="44.20182" lon="12.045915"><ele>33.25</ele><time>2026-05-02T09:10:37.54Z</time></trkpt><trkpt lat="44.201925" lon="12.0459983"><ele>33.5</ele><time>2026-05-02T09:10:39.54Z</time></trkpt><trkpt lat="44.2020233" lon="12.0460717"><ele>33.75</ele><time>2026-05-02T09:10:41.54Z</time></trkpt><trkpt lat="44.2021217" lon="12.04614"><ele>34.0</ele><time>2026-05-02T09:10:43.54Z</time></trkpt><trkpt lat="44.20223" lon="12.04622"><ele>33.6</ele><time>2026-05-02T09:10:45.54Z</time></trkpt><trkpt lat="44.2023333" lon="12.0463"><ele>33.2</ele><time>2026-05-02T09:10:47.54Z</time></trkpt><trkpt lat="44.2024317" lon="12.0463717"><ele>32.800000000000004</ele><time>2026-05-02T09:10:49.54Z</time></trkpt><trkpt lat="44.2025233" lon="12.0464467"><ele>32.4</ele><time>2026-05-02T09:10:51.54Z</time></trkpt><trkpt lat="44.2026183" lon="12.0465133"><ele>32.0</ele><time>2026-05-02T09:10:53.54Z</time></trkpt><trkpt lat="44.20272" lon="12.0465917"><ele>31.8</ele><time>2026-05-02T09:10:55.54Z</time></trkpt><trkpt lat="44.202815" lon="12.0466683"><ele>31.6</ele><time>2026-05-02T09:10:57.54Z</time></trkpt><trkpt lat="44.2029033" lon="12.0467383"><ele>31.400000000000002</ele><time>2026-05-02T09:10:59.54Z</time></trkpt><trkpt lat="44.202995" lon="12.0468"><ele>31.200000000000003</ele><time>2026-05-02T09:11:01.54Z</time></trkpt><trkpt lat="44.2030883" lon="12.0468817"><ele>31.0</ele><time>2026-05-02T09:11:03.54Z</time></trkpt><trkpt lat="44.2031767" lon="12.0469483"><ele>31.4</ele><time>2026-05-02T09:11:05.54Z</time></trkpt><trkpt lat="44.2032633" lon="12.0470233"><ele>31.8</ele><time>2026-05-02T09:11:07.54Z</time></trkpt><trkpt lat="44.2033483" lon="12.0471"><ele>32.199999999999996</ele><time>2026-05-02T09:11:09.54Z</time></trkpt><trkpt lat="44.2034367" lon="12.0471883"><ele>32.6</ele><time>2026-05-02T09:11:11.54Z</time></trkpt><trkpt lat="44.2035283" lon="12.047255"><ele>33.0</ele><time>2026-05-02T09:11:13.54Z</time></trkpt><trkpt lat="44.2036083" lon="12.0473417"><ele>33.0</ele><time>2026-05-02T09:11:15.54Z</time></trkpt><trkpt lat="44.2036433" lon="12.0474467"><ele>33.0</ele><time>2026-05-02T09:11:17.54Z</time></trkpt><trkpt lat="44.2036083" lon="12.0475367"><ele>33.0</ele><time>2026-05-02T09:11:19.54Z</time></trkpt><trkpt lat="44.203545" lon="12.0476067"><ele>33.0</ele><time>2026-05-02T09:11:21.54Z</time></trkpt><trkpt lat="44.20348" lon="12.047685"><ele>33.0</ele><time>2026-05-02T09:11:23.54Z</time></trkpt><trkpt lat="44.20342" lon="12.0477433"><ele>33.0</ele><time>2026-05-02T09:11:25.54Z</time></trkpt><trkpt lat="44.20334" lon="12.047815"><ele>32.8</ele><time>2026-05-02T09:11:27.54Z</time></trkpt><trkpt lat="44.2032483" lon="12.04787"><ele>32.599999999999994</ele><time>2026-05-02T09:11:29.54Z</time></trkpt><trkpt lat="44.2031683" lon="12.0479483"><ele>32.400000000000006</ele><time>2026-05-02T09:11:31.54Z</time></trkpt><trkpt lat="44.2030683" lon="12.0480267"><ele>32.2</ele><time>2026-05-02T09:11:33.54Z</time></trkpt><trkpt lat="44.2029717" lon="12.048115"><ele>32.0</ele><time>2026-05-02T09:11:35.54Z</time></trkpt><trkpt lat="44.2028683" lon="12.0481983"><ele>32.0</ele><time>2026-05-02T09:11:37.54Z</time></trkpt><trkpt lat="44.20277" lon="12.048285"><ele>32.0</ele><time>2026-05-02T09:11:39.54Z</time></trkpt><trkpt lat="44.202675" lon="12.0483633"><ele>32.0</ele><time>2026-05-02T09:11:41.54Z</time></trkpt><trkpt lat="44.2025767" lon="12.04844"><ele>32.0</ele><time>2026-05-02T09:11:43.54Z</time></trkpt><trkpt lat="44.2024867" lon="12.0485267"><ele>32.0</ele><time>2026-05-02T09:11:45.541Z</time></trkpt><trkpt lat="44.2023883" lon="12.0486033"><ele>32.0</ele><time>2026-05-02T09:11:47.54Z</time></trkpt><trkpt lat="44.2022933" lon="12.0486817"><ele>32.0</ele><time>2026-05-02T09:11:49.541Z</time></trkpt><trkpt lat="44.2022017" lon="12.0487583"><ele>32.0</ele><time>2026-05-02T09:11:51.541Z</time></trkpt><trkpt lat="44.2021017" lon="12.0488267"><ele>32.0</ele><time>2026-05-02T09:11:53.54Z</time></trkpt><trkpt lat="44.202" lon="12.0488783"><ele>32.0</ele><time>2026-05-02T09:11:55.54Z</time></trkpt><trkpt lat="44.2019067" lon="12.04895"><ele>32.0</ele><time>2026-05-02T09:11:57.54Z</time></trkpt><trkpt lat="44.2018267" lon="12.0490333"><ele>32.0</ele><time>2026-05-02T09:11:59.54Z</time></trkpt><trkpt lat="44.2017583" lon="12.04913"><ele>32.0</ele><time>2026-05-02T09:12:01.54Z</time></trkpt><trkpt lat="44.2016733" lon="12.0492183"><ele>32.0</ele><time>2026-05-02T09:12:03.54Z</time></trkpt><trkpt lat="44.201585" lon="12.0493033"><ele>32.0</ele><time>2026-05-02T09:12:05.54Z</time></trkpt><trkpt lat="44.2014867" lon="12.0493833"><ele>31.8</ele><time>2026-05-02T09:12:07.54Z</time></trkpt><trkpt lat="44.2013833" lon="12.049465"><ele>31.6</ele><time>2026-05-02T09:12:09.54Z</time></trkpt><trkpt lat="44.2012767" lon="12.04955"><ele>31.400000000000002</ele><time>2026-05-02T09:12:11.54Z</time></trkpt><trkpt lat="44.201215" lon="12.049595"><ele>31.200000000000003</ele><time>2026-05-02T09:12:12.54Z</time></trkpt><trkpt lat="44.2011083" lon="12.0496767"><ele>31.0</ele><time>2026-05-02T09:12:14.54Z</time></trkpt><trkpt lat="44.2010133" lon="12.04977"><ele>31.0</ele><time>2026-05-02T09:12:16.54Z</time></trkpt><trkpt lat="44.2009083" lon="12.049855"><ele>31.0</ele><time>2026-05-02T09:12:18.54Z</time></trkpt><trkpt lat="44.2008167" lon="12.0499467"><ele>31.0</ele><time>2026-05-02T09:12:20.54Z</time></trkpt><trkpt lat="44.2007233" lon="12.0500467"><ele>31.0</ele><time>2026-05-02T09:12:22.54Z</time></trkpt><trkpt lat="44.2006267" lon="12.0501267"><ele>31.0</ele><time>2026-05-02T09:12:24.54Z</time></trkpt><trkpt lat="44.2005433" lon="12.050205"><ele>31.0</ele><time>2026-05-02T09:12:26.54Z</time></trkpt><trkpt lat="44.2004567" lon="12.0502817"><ele>31.0</ele><time>2026-05-02T09:12:28.54Z</time></trkpt><trkpt lat="44.200375" lon="12.0503583"><ele>31.0</ele><time>2026-05-02T09:12:30.54Z</time></trkpt><trkpt lat="44.2002717" lon="12.0504483"><ele>31.0</ele><time>2026-05-02T09:12:32.54Z</time></trkpt><trkpt lat="44.200215" lon="12.0504933"><ele>31.0</ele><time>2026-05-02T09:12:33.54Z</time></trkpt><trkpt lat="44.2001117" lon="12.0505733"><ele>31.0</ele><time>2026-05-02T09:12:35.54Z</time></trkpt><trkpt lat="44.20001" lon="12.0506533"><ele>31.0</ele><time>2026-05-02T09:12:37.54Z</time></trkpt><trkpt lat="44.1999167" lon="12.0507317"><ele>31.0</ele><time>2026-05-02T09:12:39.54Z</time></trkpt><trkpt lat="44.199815" lon="12.0508117"><ele>31.4</ele><time>2026-05-02T09:12:41.54Z</time></trkpt><trkpt lat="44.199715" lon="12.050895"><ele>31.8</ele><time>2026-05-02T09:12:43.54Z</time></trkpt><trkpt lat="44.1996217" lon="12.0509767"><ele>32.199999999999996</ele><time>2026-05-02T09:12:45.54Z</time></trkpt><trkpt lat="44.1995367" lon="12.0510533"><ele>32.6</ele><time>2026-05-02T09:12:47.54Z</time></trkpt><trkpt lat="44.1994417" lon="12.0511267"><ele>33.0</ele><time>2026-05-02T09:12:49.54Z</time></trkpt><trkpt lat="44.19935" lon="12.0512083"><ele>33.0</ele><time>2026-05-02T09:12:51.54Z</time></trkpt><trkpt lat="44.199265" lon="12.051295"><ele>33.0</ele><time>2026-05-02T09:12:53.54Z</time></trkpt><trkpt lat="44.1991717" lon="12.0513683"><ele>33.0</ele><time>2026-05-02T09:12:55.54Z</time></trkpt><trkpt lat="44.199085" lon="12.0514533"><ele>33.0</ele><time>2026-05-02T09:12:57.54Z</time></trkpt><trkpt lat="44.198995" lon="12.05153"><ele>33.0</ele><time>2026-05-02T09:12:59.54Z</time></trkpt><trkpt lat="44.198895" lon="12.0515917"><ele>32.8</ele><time>2026-05-02T09:13:01.54Z</time></trkpt><trkpt lat="44.198795" lon="12.0516567"><ele>32.599999999999994</ele><time>2026-05-02T09:13:03.54Z</time></trkpt><trkpt lat="44.1987017" lon="12.0517217"><ele>32.400000000000006</ele><time>2026-05-02T09:13:05.541Z</time></trkpt><trkpt lat="44.198605" lon="12.0517933"><ele>32.2</ele><time>2026-05-02T09:13:07.54Z</time></trkpt><trkpt lat="44.1985017" lon="12.0518817"><ele>32.0</ele><time>2026-05-02T09:13:09.54Z</time></trkpt><trkpt lat="44.198415" lon="12.0519617"><ele>32.0</ele><time>2026-05-02T09:13:11.54Z</time></trkpt><trkpt lat="44.1983283" lon="12.0520367"><ele>32.0</ele><time>2026-05-02T09:13:13.54Z</time></trkpt><trkpt lat="44.19824" lon="12.0521083"><ele>32.0</ele><time>2026-05-02T09:13:15.54Z</time></trkpt><trkpt lat="44.1981567" lon="12.05218"><ele>32.0</ele><time>2026-05-02T09:13:17.54Z</time></trkpt><trkpt lat="44.1980883" lon="12.0522533"><ele>32.0</ele><time>2026-05-02T09:13:19.54Z</time></trkpt><trkpt lat="44.19802" lon="12.0523217"><ele>31.666666666666664</ele><time>2026-05-02T09:13:21.54Z</time></trkpt><trkpt lat="44.1979467" lon="12.0523683"><ele>31.333333333333332</ele><time>2026-05-02T09:13:23.54Z</time></trkpt><trkpt lat="44.1978733" lon="12.052405"><ele>31.0</ele><time>2026-05-02T09:13:25.54Z</time></trkpt><trkpt lat="44.197795" lon="12.0524683"><ele>30.666666666666664</ele><time>2026-05-02T09:13:28.54Z</time></trkpt><trkpt lat="44.1977417" lon="12.0525183"><ele>30.333333333333332</ele><time>2026-05-02T09:13:30.54Z</time></trkpt><trkpt lat="44.1976683" lon="12.0526117"><ele>30.0</ele><time>2026-05-02T09:13:55.54Z</time></trkpt><trkpt lat="44.1977367" lon="12.052675"><ele>30.0</ele><time>2026-05-02T09:13:59.54Z</time></trkpt><trkpt lat="44.1978" lon="12.052725"><ele>30.0</ele><time>2026-05-02T09:14:01.54Z</time></trkpt><trkpt lat="44.19786" lon="12.052785"><ele>30.0</ele><time>2026-05-02T09:14:03.54Z</time></trkpt><trkpt lat="44.1979317" lon="12.05284"><ele>30.0</ele><time>2026-05-02T09:14:05.54Z</time></trkpt><trkpt lat="44.197995" lon="12.05292"><ele>30.0</ele><time>2026-05-02T09:14:07.54Z</time></trkpt><trkpt lat="44.1980717" lon="12.0530033"><ele>30.0</ele><time>2026-05-02T09:14:09.54Z</time></trkpt><trkpt lat="44.1981567" lon="12.0530883"><ele>30.0</ele><time>2026-05-02T09:14:11.54Z</time></trkpt><trkpt lat="44.198245" lon="12.0531633"><ele>30.0</ele><time>2026-05-02T09:14:13.54Z</time></trkpt><trkpt lat="44.19833" lon="12.0532483"><ele>30.0</ele><time>2026-05-02T09:14:15.54Z</time></trkpt><trkpt lat="44.1984233" lon="12.0533267"><ele>30.0</ele><time>2026-05-02T09:14:17.54Z</time></trkpt><trkpt lat="44.1985083" lon="12.05341"><ele>30.0</ele><time>2026-05-02T09:14:19.54Z</time></trkpt><trkpt lat="44.1985917" lon="12.053495"><ele>30.2</ele><time>2026-05-02T09:14:21.54Z</time></trkpt><trkpt lat="44.1986817" lon="12.0535717"><ele>30.4</ele><time>2026-05-02T09:14:23.54Z</time></trkpt><trkpt lat="44.198765" lon="12.0536433"><ele>30.6</ele><time>2026-05-02T09:14:25.54Z</time></trkpt><trkpt lat="44.198845" lon="12.053715"><ele>30.8</ele><time>2026-05-02T09:14:27.54Z</time></trkpt><trkpt lat="44.1989317" lon="12.0537767"><ele>31.0</ele><time>2026-05-02T09:14:29.54Z</time></trkpt><trkpt lat="44.199015" lon="12.0538333"><ele>30.8</ele><time>2026-05-02T09:14:31.54Z</time></trkpt><trkpt lat="44.1991" lon="12.0538867"><ele>30.6</ele><time>2026-05-02T09:14:33.54Z</time></trkpt><trkpt lat="44.1991883" lon="12.0539483"><ele>30.4</ele><time>2026-05-02T09:14:35.54Z</time></trkpt><trkpt lat="44.199285" lon="12.054015"><ele>30.2</ele><time>2026-05-02T09:14:37.54Z</time></trkpt><trkpt lat="44.1993767" lon="12.0540817"><ele>30.0</ele><time>2026-05-02T09:14:39.54Z</time></trkpt><trkpt lat="44.199465" lon="12.0541517"><ele>30.0</ele><time>2026-05-02T09:14:41.54Z</time></trkpt><trkpt lat="44.1995517" lon="12.0541933"><ele>30.0</ele><time>2026-05-02T09:14:43.54Z</time></trkpt><trkpt lat="44.1996183" lon="12.0541433"><ele>30.0</ele><time>2026-05-02T09:14:45.54Z</time></trkpt><trkpt lat="44.1996633" lon="12.0540467"><ele>30.0</ele><time>2026-05-02T09:14:47.54Z</time></trkpt><trkpt lat="44.1997" lon="12.05393"><ele>30.0</ele><time>2026-05-02T09:14:49.54Z</time></trkpt><trkpt lat="44.1997433" lon="12.05382"><ele>30.0</ele><time>2026-05-02T09:14:51.54Z</time></trkpt><trkpt lat="44.1997817" lon="12.0537233"><ele>29.833333333333332</ele><time>2026-05-02T09:14:53.54Z</time></trkpt><trkpt lat="44.1998183" lon="12.0536267"><ele>29.666666666666664</ele><time>2026-05-02T09:14:55.54Z</time></trkpt><trkpt lat="44.1998583" lon="12.0535233"><ele>29.5</ele><time>2026-05-02T09:14:57.541Z</time></trkpt><trkpt lat="44.1999" lon="12.0534117"><ele>29.333333333333332</ele><time>2026-05-02T09:14:59.54Z</time></trkpt><trkpt lat="44.1999433" lon="12.0533017"><ele>29.166666666666664</ele><time>2026-05-02T09:15:01.54Z</time></trkpt><trkpt lat="44.1999783" lon="12.0531983"><ele>29.0</ele><time>2026-05-02T09:15:03.541Z</time></trkpt><trkpt lat="44.200015" lon="12.0530833"><ele>29.0</ele><time>2026-05-02T09:15:05.54Z</time></trkpt><trkpt lat="44.200055" lon="12.05295"><ele>29.0</ele><time>2026-05-02T09:15:07.54Z</time></trkpt><trkpt lat="44.2001017" lon="12.0528183"><ele>29.0</ele><time>2026-05-02T09:15:09.54Z</time></trkpt><trkpt lat="44.2001467" lon="12.0526917"><ele>29.0</ele><time>2026-05-02T09:15:11.54Z</time></trkpt><trkpt lat="44.2001983" lon="12.05257"><ele>29.0</ele><time>2026-05-02T09:15:13.54Z</time></trkpt><trkpt lat="44.2002733" lon="12.052465"><ele>29.0</ele><time>2026-05-02T09:15:15.54Z</time></trkpt><trkpt lat="44.200375" lon="12.0524367"><ele>29.0</ele><time>2026-05-02T09:15:17.54Z</time></trkpt><trkpt lat="44.2004883" lon="12.0524883"><ele>29.0</ele><time>2026-05-02T09:15:19.54Z</time></trkpt><trkpt lat="44.200595" lon="12.0525617"><ele>29.0</ele><time>2026-05-02T09:15:21.54Z</time></trkpt><trkpt lat="44.2006517" lon="12.0526033"><ele>29.0</ele><time>2026-05-02T09:15:22.54Z</time></trkpt><trkpt lat="44.20071" lon="12.0526467"><ele>28.71428571428572</ele><time>2026-05-02T09:15:23.54Z</time></trkpt><trkpt lat="44.2007683" lon="12.0526867"><ele>28.42857142857143</ele><time>2026-05-02T09:15:24.54Z</time></trkpt><trkpt lat="44.200825" lon="12.0527283"><ele>28.142857142857146</ele><time>2026-05-02T09:15:25.54Z</time></trkpt><trkpt lat="44.2008867" lon="12.0527667"><ele>27.85714285714286</ele><time>2026-05-02T09:15:26.54Z</time></trkpt><trkpt lat="44.200945" lon="12.0528083"><ele>27.57142857142857</ele><time>2026-05-02T09:15:27.54Z</time></trkpt><trkpt lat="44.2009983" lon="12.0528567"><ele>27.285714285714285</ele><time>2026-05-02T09:15:28.54Z</time></trkpt><trkpt lat="44.201055" lon="12.0529067"><ele>27.0</ele><time>2026-05-02T09:15:29.54Z</time></trkpt><trkpt lat="44.2011117" lon="12.0529467"><ele>27.0</ele><time>2026-05-02T09:15:30.54Z</time></trkpt><trkpt lat="44.2011667" lon="12.0529933"><ele>27.0</ele><time>2026-05-02T09:15:31.54Z</time></trkpt><trkpt lat="44.2012233" lon="12.0530333"><ele>27.0</ele><time>2026-05-02T09:15:32.54Z</time></trkpt><trkpt lat="44.2012817" lon="12.053075"><ele>27.0</ele><time>2026-05-02T09:15:33.54Z</time></trkpt><trkpt lat="44.2013383" lon="12.053115"><ele>27.0</ele><time>2026-05-02T09:15:34.54Z</time></trkpt><trkpt lat="44.2014433" lon="12.0531967"><ele>27.0</ele><time>2026-05-02T09:15:36.54Z</time></trkpt><trkpt lat="44.2015517" lon="12.05328"><ele>27.200000000000003</ele><time>2026-05-02T09:15:38.54Z</time></trkpt><trkpt lat="44.20161" lon="12.0533217"><ele>27.400000000000002</ele><time>2026-05-02T09:15:39.54Z</time></trkpt><trkpt lat="44.2017183" lon="12.053405"><ele>27.599999999999998</ele><time>2026-05-02T09:15:41.54Z</time></trkpt><trkpt lat="44.2018217" lon="12.0534883"><ele>27.799999999999997</ele><time>2026-05-02T09:15:43.54Z</time></trkpt><trkpt lat="44.20193" lon="12.0535683"><ele>28.0</ele><time>2026-05-02T09:15:45.54Z</time></trkpt><trkpt lat="44.2020167" lon="12.0536617"><ele>28.0</ele><time>2026-05-02T09:15:47.54Z</time></trkpt><trkpt lat="44.202025" lon="12.0538067"><ele>28.0</ele><time>2026-05-02T09:15:49.54Z</time></trkpt><trkpt lat="44.20198" lon="12.053965"><ele>28.0</ele><time>2026-05-02T09:15:51.54Z</time></trkpt><trkpt lat="44.2019283" lon="12.0541133"><ele>28.0</ele><time>2026-05-02T09:15:53.54Z</time></trkpt><trkpt lat="44.2018767" lon="12.0542467"><ele>28.0</ele><time>2026-05-02T09:15:55.54Z</time></trkpt><trkpt lat="44.2018233" lon="12.054385"><ele>28.0</ele><time>2026-05-02T09:15:57.54Z</time></trkpt><trkpt lat="44.2017717" lon="12.0545217"><ele>28.0</ele><time>2026-05-02T09:15:59.54Z</time></trkpt><trkpt lat="44.201725" lon="12.0546717"><ele>28.0</ele><time>2026-05-02T09:16:01.54Z</time></trkpt><trkpt lat="44.2016717" lon="12.0548117"><ele>28.0</ele><time>2026-05-02T09:16:03.54Z</time></trkpt><trkpt lat="44.2016183" lon="12.05495"><ele>27.999999999999996</ele><time>2026-05-02T09:16:05.54Z</time></trkpt><trkpt lat="44.201565" lon="12.0550867"><ele>27.999999999999996</ele><time>2026-05-02T09:16:07.54Z</time></trkpt><trkpt lat="44.2015183" lon="12.0552183"><ele>28.0</ele><time>2026-05-02T09:16:09.54Z</time></trkpt><trkpt lat="44.2014767" lon="12.0553483"><ele>28.0</ele><time>2026-05-02T09:16:11.54Z</time></trkpt><trkpt lat="44.2014417" lon="12.0554617"><ele>27.799999999999997</ele><time>2026-05-02T09:16:13.54Z</time></trkpt><trkpt lat="44.2014617" lon="12.0555667"><ele>27.599999999999998</ele><time>2026-05-02T09:16:15.54Z</time></trkpt><trkpt lat="44.2015417" lon="12.05566"><ele>27.400000000000002</ele><time>2026-05-02T09:16:17.54Z</time></trkpt><trkpt lat="44.2016483" lon="12.055745"><ele>27.200000000000003</ele><time>2026-05-02T09:16:19.54Z</time></trkpt><trkpt lat="44.2017467" lon="12.0558217"><ele>27.0</ele><time>2026-05-02T09:16:21.54Z</time></trkpt><trkpt lat="44.2018417" lon="12.0558883"><ele>27.0</ele><time>2026-05-02T09:16:23.54Z</time></trkpt><trkpt lat="44.2019317" lon="12.0559517"><ele>27.000000000000004</ele><time>2026-05-02T09:16:25.54Z</time></trkpt><trkpt lat="44.202015" lon="12.0560283"><ele>27.000000000000004</ele><time>2026-05-02T09:16:27.54Z</time></trkpt><trkpt lat="44.2021033" lon="12.0561117"><ele>27.0</ele><time>2026-05-02T09:16:29.54Z</time></trkpt><trkpt lat="44.2021983" lon="12.0561933"><ele>27.0</ele><time>2026-05-02T09:16:31.541Z</time></trkpt><trkpt lat="44.20229" lon="12.0562667"><ele>27.0</ele><time>2026-05-02T09:16:33.54Z</time></trkpt><trkpt lat="44.2023867" lon="12.0563333"><ele>27.000000000000004</ele><time>2026-05-02T09:16:35.54Z</time></trkpt><trkpt lat="44.2024883" lon="12.0563917"><ele>27.000000000000004</ele><time>2026-05-02T09:16:37.54Z</time></trkpt><trkpt lat="44.202575" lon="12.056455"><ele>27.0</ele><time>2026-05-02T09:16:39.54Z</time></trkpt><trkpt lat="44.2026617" lon="12.056505"><ele>27.0</ele><time>2026-05-02T09:16:41.54Z</time></trkpt><trkpt lat="44.2027483" lon="12.0565767"><ele>27.0</ele><time>2026-05-02T09:16:43.54Z</time></trkpt><trkpt lat="44.2028283" lon="12.056665"><ele>27.0</ele><time>2026-05-02T09:16:45.54Z</time></trkpt><trkpt lat="44.2028983" lon="12.05674"><ele>27.0</ele><time>2026-05-02T09:16:47.54Z</time></trkpt><trkpt lat="44.2029383" lon="12.0568167"><ele>27.0</ele><time>2026-05-02T09:16:49.54Z</time></trkpt><trkpt lat="44.202925" lon="12.0569333"><ele>27.0</ele><time>2026-05-02T09:16:51.54Z</time></trkpt><trkpt lat="44.2028783" lon="12.05706"><ele>27.0</ele><time>2026-05-02T09:16:53.54Z</time></trkpt><trkpt lat="44.2028267" lon="12.057195"><ele>27.0</ele><time>2026-05-02T09:16:55.54Z</time></trkpt><trkpt lat="44.202775" lon="12.0573367"><ele>27.000000000000004</ele><time>2026-05-02T09:16:57.54Z</time></trkpt><trkpt lat="44.20273" lon="12.0574933"><ele>27.000000000000004</ele><time>2026-05-02T09:16:59.54Z</time></trkpt><trkpt lat="44.20269" lon="12.0575633"><ele>27.0</ele><time>2026-05-02T09:17:00.541Z</time></trkpt><trkpt lat="44.2026283" lon="12.0577083"><ele>27.0</ele><time>2026-05-02T09:17:02.54Z</time></trkpt><trkpt lat="44.2025633" lon="12.057855"><ele>27.0</ele><time>2026-05-02T09:17:04.54Z</time></trkpt><trkpt lat="44.2025" lon="12.058"><ele>27.000000000000004</ele><time>2026-05-02T09:17:06.541Z</time></trkpt><trkpt lat="44.2024483" lon="12.0581517"><ele>27.000000000000004</ele><time>2026-05-02T09:17:08.54Z</time></trkpt><trkpt lat="44.202395" lon="12.0583033"><ele>27.0</ele><time>2026-05-02T09:17:10.54Z</time></trkpt><trkpt lat="44.2023633" lon="12.05838"><ele>27.0</ele><time>2026-05-02T09:17:11.54Z</time></trkpt><trkpt lat="44.2023283" lon="12.0584567"><ele>27.400000000000002</ele><time>2026-05-02T09:17:12.54Z</time></trkpt><trkpt lat="44.2022917" lon="12.0585317"><ele>27.800000000000004</ele><time>2026-05-02T09:17:13.54Z</time></trkpt><trkpt lat="44.2022367" lon="12.0586783"><ele>28.2</ele><time>2026-05-02T09:17:15.54Z</time></trkpt><trkpt lat="44.202165" lon="12.058815"><ele>28.6</ele><time>2026-05-02T09:17:17.54Z</time></trkpt><trkpt lat="44.2020983" lon="12.05896"><ele>29.0</ele><time>2026-05-02T09:17:19.54Z</time></trkpt><trkpt lat="44.2020433" lon="12.0590933"><ele>28.499999999999996</ele><time>2026-05-02T09:17:21.541Z</time></trkpt><trkpt lat="44.2019917" lon="12.059245"><ele>28.0</ele><time>2026-05-02T09:17:23.541Z</time></trkpt><trkpt lat="44.201965" lon="12.0593283"><ele>27.5</ele><time>2026-05-02T09:17:24.541Z</time></trkpt><trkpt lat="44.2019417" lon="12.059415"><ele>27.0</ele><time>2026-05-02T09:17:25.541Z</time></trkpt><trkpt lat="44.201905" lon="12.0594883"><ele>26.499999999999996</ele><time>2026-05-02T09:17:26.541Z</time></trkpt><trkpt lat="44.2018333" lon="12.0596383"><ele>26.0</ele><time>2026-05-02T09:17:28.541Z</time></trkpt><trkpt lat="44.2017983" lon="12.0597133"><ele>25.999999999999996</ele><time>2026-05-02T09:17:29.541Z</time></trkpt><trkpt lat="44.201765" lon="12.0597917"><ele>26.0</ele><time>2026-05-02T09:17:30.541Z</time></trkpt><trkpt lat="44.2017283" lon="12.0598683"><ele>26.0</ele><time>2026-05-02T09:17:31.541Z</time></trkpt><trkpt lat="44.20169" lon="12.0599517"><ele>26.0</ele><time>2026-05-02T09:17:32.541Z</time></trkpt><trkpt lat="44.2016567" lon="12.0600317"><ele>25.999999999999996</ele><time>2026-05-02T09:17:33.541Z</time></trkpt><trkpt lat="44.2016233" lon="12.0601117"><ele>26.0</ele><time>2026-05-02T09:17:34.541Z</time></trkpt><trkpt lat="44.2015717" lon="12.0602667"><ele>26.0</ele><time>2026-05-02T09:17:36.541Z</time></trkpt><trkpt lat="44.20151" lon="12.0604167"><ele>26.0</ele><time>2026-05-02T09:17:38.541Z</time></trkpt><trkpt lat="44.2014767" lon="12.0604933"><ele>26.0</ele><time>2026-05-02T09:17:39.541Z</time></trkpt><trkpt lat="44.2014117" lon="12.0606467"><ele>26.0</ele><time>2026-05-02T09:17:41.541Z</time></trkpt><trkpt lat="44.2013783" lon="12.0607283"><ele>26.0</ele><time>2026-05-02T09:17:42.541Z</time></trkpt><trkpt lat="44.201345" lon="12.0608083"><ele>25.8</ele><time>2026-05-02T09:17:43.541Z</time></trkpt><trkpt lat="44.2013133" lon="12.060885"><ele>25.6</ele><time>2026-05-02T09:17:44.541Z</time></trkpt><trkpt lat="44.2012817" lon="12.0609667"><ele>25.4</ele><time>2026-05-02T09:17:45.541Z</time></trkpt><trkpt lat="44.201215" lon="12.0611067"><ele>25.2</ele><time>2026-05-02T09:17:47.541Z</time></trkpt><trkpt lat="44.2011567" lon="12.0612617"><ele>25.0</ele><time>2026-05-02T09:17:49.541Z</time></trkpt><trkpt lat="44.2011017" lon="12.0614183"><ele>25.0</ele><time>2026-05-02T09:17:51.541Z</time></trkpt><trkpt lat="44.201055" lon="12.061565"><ele>25.0</ele><time>2026-05-02T09:17:53.541Z</time></trkpt><trkpt lat="44.2009917" lon="12.061705"><ele>25.0</ele><time>2026-05-02T09:17:55.541Z</time></trkpt><trkpt lat="44.200935" lon="12.06186"><ele>25.0</ele><time>2026-05-02T09:17:57.541Z</time></trkpt><trkpt lat="44.2008833" lon="12.0620117"><ele>25.000000000000004</ele><time>2026-05-02T09:17:59.541Z</time></trkpt><trkpt lat="44.20083" lon="12.0621717"><ele>25.0</ele><time>2026-05-02T09:18:01.541Z</time></trkpt><trkpt lat="44.2007983" lon="12.06225"><ele>25.0</ele><time>2026-05-02T09:18:02.541Z</time></trkpt><trkpt lat="44.200765" lon="12.06233"><ele>25.0</ele><time>2026-05-02T09:18:03.541Z</time></trkpt><trkpt lat="44.200735" lon="12.0624083"><ele>25.000000000000004</ele><time>2026-05-02T09:18:04.542Z</time></trkpt><trkpt lat="44.2006767" lon="12.0625617"><ele>25.0</ele><time>2026-05-02T09:18:06.541Z</time></trkpt><trkpt lat="44.20062" lon="12.0627083"><ele>25.0</ele><time>2026-05-02T09:18:08.541Z</time></trkpt><trkpt lat="44.2005683" lon="12.0628483"><ele>25.0</ele><time>2026-05-02T09:18:10.541Z</time></trkpt><trkpt lat="44.2005083" lon="12.0629883"><ele>25.0</ele><time>2026-05-02T09:18:12.541Z</time></trkpt><trkpt lat="44.2004533" lon="12.063115"><ele>25.0</ele><time>2026-05-02T09:18:14.541Z</time></trkpt><trkpt lat="44.2004383" lon="12.063245"><ele>25.0</ele><time>2026-05-02T09:18:16.541Z</time></trkpt><trkpt lat="44.2004683" lon="12.0633683"><ele>25.000000000000004</ele><time>2026-05-02T09:18:18.541Z</time></trkpt><trkpt lat="44.2005567" lon="12.0634733"><ele>25.0</ele><time>2026-05-02T09:18:20.541Z</time></trkpt><trkpt lat="44.2006117" lon="12.0635233"><ele>25.0</ele><time>2026-05-02T09:18:21.541Z</time></trkpt><trkpt lat="44.20067" lon="12.0635667"><ele>25.0</ele><time>2026-05-02T09:18:22.541Z</time></trkpt><trkpt lat="44.2007317" lon="12.0636067"><ele>25.000000000000004</ele><time>2026-05-02T09:18:23.541Z</time></trkpt><trkpt lat="44.2007967" lon="12.06364"><ele>25.0</ele><time>2026-05-02T09:18:24.542Z</time></trkpt><trkpt lat="44.2008617" lon="12.0636783"><ele>25.000000000000004</ele><time>2026-05-02T09:18:25.541Z</time></trkpt><trkpt lat="44.2009233" lon="12.0637133"><ele>25.0</ele><time>2026-05-02T09:18:26.541Z</time></trkpt><trkpt lat="44.2009817" lon="12.0637517"><ele>25.0</ele><time>2026-05-02T09:18:27.541Z</time></trkpt><trkpt lat="44.20104" lon="12.06379"><ele>25.0</ele><time>2026-05-02T09:18:28.541Z</time></trkpt><trkpt lat="44.2011483" lon="12.0638717"><ele>25.000000000000004</ele><time>2026-05-02T09:18:30.541Z</time></trkpt><trkpt lat="44.2012067" lon="12.0639133"><ele>25.0</ele><time>2026-05-02T09:18:31.541Z</time></trkpt><trkpt lat="44.2013117" lon="12.063985"><ele>25.0</ele><time>2026-05-02T09:18:33.541Z</time></trkpt><trkpt lat="44.2014167" lon="12.0640717"><ele>25.0</ele><time>2026-05-02T09:18:35.541Z</time></trkpt><trkpt lat="44.201525" lon="12.0641583"><ele>25.0</ele><time>2026-05-02T09:18:37.541Z</time></trkpt><trkpt lat="44.2015833" lon="12.0641983"><ele>25.0</ele><time>2026-05-02T09:18:38.541Z</time></trkpt><trkpt lat="44.2016417" lon="12.0642333"><ele>25.0</ele><time>2026-05-02T09:18:39.541Z</time></trkpt><trkpt lat="44.2017483" lon="12.06432"><ele>24.6</ele><time>2026-05-02T09:18:41.541Z</time></trkpt><trkpt lat="44.2018083" lon="12.064365"><ele>24.2</ele><time>2026-05-02T09:18:42.541Z</time></trkpt><trkpt lat="44.201865" lon="12.0644083"><ele>23.799999999999997</ele><time>2026-05-02T09:18:43.541Z</time></trkpt><trkpt lat="44.2019717" lon="12.0644933"><ele>23.4</ele><time>2026-05-02T09:18:45.541Z</time></trkpt><trkpt lat="44.2020783" lon="12.064585"><ele>23.0</ele><time>2026-05-02T09:18:47.541Z</time></trkpt><trkpt lat="44.2021783" lon="12.0646767"><ele>23.0</ele><time>2026-05-02T09:18:49.541Z</time></trkpt><trkpt lat="44.2022317" lon="12.064725"><ele>23.0</ele><time>2026-05-02T09:18:50.541Z</time></trkpt><trkpt lat="44.2023367" lon="12.0648217"><ele>23.0</ele><time>2026-05-02T09:18:52.541Z</time></trkpt><trkpt lat="44.2023917" lon="12.0648733"><ele>23.0</ele><time>2026-05-02T09:18:53.541Z</time></trkpt><trkpt lat="44.2024433" lon="12.0649267"><ele>23.0</ele><time>2026-05-02T09:18:54.542Z</time></trkpt><trkpt lat="44.2024967" lon="12.0649767"><ele>23.0</ele><time>2026-05-02T09:18:55.541Z</time></trkpt><trkpt lat="44.2026017" lon="12.0650717"><ele>23.25</ele><time>2026-05-02T09:18:57.541Z</time></trkpt><trkpt lat="44.2027017" lon="12.0651733"><ele>23.5</ele><time>2026-05-02T09:18:59.541Z</time></trkpt><trkpt lat="44.2027983" lon="12.0652867"><ele>23.75</ele><time>2026-05-02T09:19:01.541Z</time></trkpt><trkpt lat="44.202895" lon="12.0653783"><ele>24.0</ele><time>2026-05-02T09:19:03.541Z</time></trkpt><trkpt lat="44.2029967" lon="12.06548"><ele>24.0</ele><time>2026-05-02T09:19:05.541Z</time></trkpt><trkpt lat="44.2030517" lon="12.065525"><ele>24.0</ele><time>2026-05-02T09:19:06.542Z</time></trkpt><trkpt lat="44.2031517" lon="12.06563"><ele>24.0</ele><time>2026-05-02T09:19:08.541Z</time></trkpt><trkpt lat="44.2032017" lon="12.065685"><ele>24.0</ele><time>2026-05-02T09:19:09.541Z</time></trkpt><trkpt lat="44.2032517" lon="12.06574"><ele>24.0</ele><time>2026-05-02T09:19:10.541Z</time></trkpt><trkpt lat="44.203355" lon="12.0658367"><ele>24.0</ele><time>2026-05-02T09:19:12.541Z</time></trkpt><trkpt lat="44.203405" lon="12.0658917"><ele>23.833333333333332</ele><time>2026-05-02T09:19:13.541Z</time></trkpt><trkpt lat="44.203505" lon="12.065995"><ele>23.666666666666668</ele><time>2026-05-02T09:19:15.541Z</time></trkpt><trkpt lat="44.2035583" lon="12.0660433"><ele>23.5</ele><time>2026-05-02T09:19:16.541Z</time></trkpt><trkpt lat="44.2036117" lon="12.0661"><ele>23.333333333333336</ele><time>2026-05-02T09:19:17.541Z</time></trkpt><trkpt lat="44.2036667" lon="12.0661533"><ele>23.166666666666668</ele><time>2026-05-02T09:19:18.541Z</time></trkpt><trkpt lat="44.20372" lon="12.0662083"><ele>23.0</ele><time>2026-05-02T09:19:19.541Z</time></trkpt><trkpt lat="44.2037717" lon="12.0662667"><ele>23.0</ele><time>2026-05-02T09:19:20.541Z</time></trkpt><trkpt lat="44.2038233" lon="12.0663183"><ele>23.0</ele><time>2026-05-02T09:19:21.541Z</time></trkpt><trkpt lat="44.2039283" lon="12.06642"><ele>23.0</ele><time>2026-05-02T09:19:23.541Z</time></trkpt><trkpt lat="44.2039833" lon="12.066475"><ele>23.0</ele><time>2026-05-02T09:19:24.541Z</time></trkpt><trkpt lat="44.20404" lon="12.06653"><ele>23.0</ele><time>2026-05-02T09:19:25.541Z</time></trkpt><trkpt lat="44.2040933" lon="12.0665883"><ele>23.0</ele><time>2026-05-02T09:19:26.541Z</time></trkpt><trkpt lat="44.204145" lon="12.0666433"><ele>22.666666666666668</ele><time>2026-05-02T09:19:27.541Z</time></trkpt><trkpt lat="44.2042" lon="12.0666983"><ele>22.333333333333336</ele><time>2026-05-02T09:19:28.541Z</time></trkpt><trkpt lat="44.2042483" lon="12.0667567"><ele>22.0</ele><time>2026-05-02T09:19:29.541Z</time></trkpt><trkpt lat="44.2043017" lon="12.0668083"><ele>21.666666666666668</ele><time>2026-05-02T09:19:30.541Z</time></trkpt><trkpt lat="44.2044017" lon="12.0668983"><ele>21.333333333333332</ele><time>2026-05-02T09:19:32.541Z</time></trkpt><trkpt lat="44.2045033" lon="12.0669833"><ele>21.0</ele><time>2026-05-02T09:19:34.541Z</time></trkpt><trkpt lat="44.2046017" lon="12.0670633"><ele>21.0</ele><time>2026-05-02T09:19:36.541Z</time></trkpt><trkpt lat="44.2046967" lon="12.0671567"><ele>21.0</ele><time>2026-05-02T09:19:38.541Z</time></trkpt><trkpt lat="44.2047983" lon="12.0672467"><ele>21.0</ele><time>2026-05-02T09:19:40.541Z</time></trkpt><trkpt lat="44.2049017" lon="12.0673317"><ele>21.0</ele><time>2026-05-02T09:19:42.541Z</time></trkpt><trkpt lat="44.2050033" lon="12.0674083"><ele>21.4</ele><time>2026-05-02T09:19:44.541Z</time></trkpt><trkpt lat="44.2050917" lon="12.0674917"><ele>21.8</ele><time>2026-05-02T09:19:46.541Z</time></trkpt><trkpt lat="44.2051717" lon="12.06757"><ele>22.2</ele><time>2026-05-02T09:19:48.541Z</time></trkpt><trkpt lat="44.205265" lon="12.0676383"><ele>22.599999999999998</ele><time>2026-05-02T09:19:50.541Z</time></trkpt><trkpt lat="44.20535" lon="12.0676933"><ele>23.0</ele><time>2026-05-02T09:19:52.541Z</time></trkpt><trkpt lat="44.2054283" lon="12.0677583"><ele>23.0</ele><time>2026-05-02T09:19:54.541Z</time></trkpt><trkpt lat="44.2054917" lon="12.0678183"><ele>23.0</ele><time>2026-05-02T09:19:56.541Z</time></trkpt><trkpt lat="44.2055483" lon="12.067915"><ele>23.0</ele><time>2026-05-02T09:19:59.541Z</time></trkpt><trkpt lat="44.20553" lon="12.068015"><ele>23.0</ele><time>2026-05-02T09:20:02.541Z</time></trkpt><trkpt lat="44.2054933" lon="12.0681183"><ele>23.0</ele><time>2026-05-02T09:20:05.541Z</time></trkpt><trkpt lat="44.2054317" lon="12.0682233"><ele>23.0</ele><time>2026-05-02T09:20:08.541Z</time></trkpt><trkpt lat="44.2053883" lon="12.0683067"><ele>23.0</ele><time>2026-05-02T09:20:10.541Z</time></trkpt><trkpt lat="44.205345" lon="12.068395"><ele>23.0</ele><time>2026-05-02T09:20:12.541Z</time></trkpt><trkpt lat="44.2053017" lon="12.0684717"><ele>23.0</ele><time>2026-05-02T09:20:14.541Z</time></trkpt><trkpt lat="44.2052483" lon="12.0685883"><ele>23.0</ele><time>2026-05-02T09:20:17.541Z</time></trkpt><trkpt lat="44.2052083" lon="12.0686567"><ele>23.0</ele><time>2026-05-02T09:20:19.541Z</time></trkpt><trkpt lat="44.20518" lon="12.0687483"><ele>23.0</ele><time>2026-05-02T09:20:22.541Z</time></trkpt><trkpt lat="44.2052417" lon="12.0687783"><ele>23.0</ele><time>2026-05-02T09:20:25.541Z</time></trkpt><trkpt lat="44.2052867" lon="12.0686667"><ele>23.0</ele><time>2026-05-02T09:20:28.541Z</time></trkpt><trkpt lat="44.2053067" lon="12.06858"><ele>23.0</ele><time>2026-05-02T09:20:30.541Z</time></trkpt><trkpt lat="44.205325" lon="12.0684917"><ele>23.0</ele><time>2026-05-02T09:20:32.541Z</time></trkpt><trkpt lat="44.20535" lon="12.0684033"><ele>23.0</ele><time>2026-05-02T09:21:49.541Z</time></trkpt><trkpt lat="44.2054033" lon="12.068315"><ele>23.0</ele><time>2026-05-02T09:21:52.541Z</time></trkpt><trkpt lat="44.205435" lon="12.0682183"><ele>23.0</ele><time>2026-05-02T09:21:55.541Z</time></trkpt><trkpt lat="44.2054817" lon="12.0681183"><ele>23.0</ele><time>2026-05-02T09:21:58.542Z</time></trkpt><trkpt lat="44.2055383" lon="12.0680417"><ele>23.0</ele><time>2026-05-02T09:22:01.541Z</time></trkpt><trkpt lat="44.2056367" lon="12.0680417"><ele>23.0</ele><time>2026-05-02T09:22:04.541Z</time></trkpt><trkpt lat="44.2057217" lon="12.0680767"><ele>23.0</ele><time>2026-05-02T09:22:06.541Z</time></trkpt><trkpt lat="44.2058167" lon="12.068105"><ele>23.0</ele><time>2026-05-02T09:22:08.541Z</time></trkpt><trkpt lat="44.2059033" lon="12.068175"><ele>23.0</ele><time>2026-05-02T09:22:10.541Z</time></trkpt><trkpt lat="44.2059867" lon="12.0682567"><ele>23.0</ele><time>2026-05-02T09:22:12.541Z</time></trkpt><trkpt lat="44.2060667" lon="12.06833"><ele>23.0</ele><time>2026-05-02T09:22:14.541Z</time></trkpt><trkpt lat="44.2061483" lon="12.0684033"><ele>23.0</ele><time>2026-05-02T09:22:16.541Z</time></trkpt><trkpt lat="44.2062283" lon="12.06846"><ele>23.0</ele><time>2026-05-02T09:22:18.541Z</time></trkpt><trkpt lat="44.20631" lon="12.0685283"><ele>23.0</ele><time>2026-05-02T09:22:20.541Z</time></trkpt><trkpt lat="44.2063967" lon="12.0685983"><ele>23.0</ele><time>2026-05-02T09:22:22.542Z</time></trkpt><trkpt lat="44.2064683" lon="12.0686633"><ele>23.0</ele><time>2026-05-02T09:22:24.541Z</time></trkpt><trkpt lat="44.20651" lon="12.0687733"><ele>23.0</ele><time>2026-05-02T09:22:26.541Z</time></trkpt><trkpt lat="44.2064783" lon="12.0688867"><ele>23.0</ele><time>2026-05-02T09:22:28.541Z</time></trkpt><trkpt lat="44.2064317" lon="12.0690067"><ele>23.0</ele><time>2026-05-02T09:22:30.541Z</time></trkpt><trkpt lat="44.206385" lon="12.0691417"><ele>22.799999999999997</ele><time>2026-05-02T09:22:32.541Z</time></trkpt><trkpt lat="44.206325" lon="12.0692767"><ele>22.6</ele><time>2026-05-02T09:22:34.541Z</time></trkpt><trkpt lat="44.20626" lon="12.069415"><ele>22.4</ele><time>2026-05-02T09:22:36.541Z</time></trkpt><trkpt lat="44.20623" lon="12.0695"><ele>22.200000000000003</ele><time>2026-05-02T09:22:39.29Z</time></trkpt><trkpt lat="44.2061883" lon="12.069585"><ele>22.0</ele><time>2026-05-02T09:22:40.54Z</time></trkpt><trkpt lat="44.2061383" lon="12.0696917"><ele>22.0</ele><time>2026-05-02T09:22:41.54Z</time></trkpt><trkpt lat="44.2060183" lon="12.0699283"><ele>22.0</ele><time>2026-05-02T09:22:44.54Z</time></trkpt><trkpt lat="44.20595" lon="12.0700633"><ele>22.0</ele><time>2026-05-02T09:22:46.54Z</time></trkpt><trkpt lat="44.2058867" lon="12.070215"><ele>22.0</ele><time>2026-05-02T09:22:48.54Z</time></trkpt><trkpt lat="44.2058367" lon="12.0703517"><ele>22.0</ele><time>2026-05-02T09:22:50.54Z</time></trkpt><trkpt lat="44.2057867" lon="12.07048"><ele>22.0</ele><time>2026-05-02T09:22:52.54Z</time></trkpt><trkpt lat="44.2057383" lon="12.0706167"><ele>22.0</ele><time>2026-05-02T09:22:54.54Z</time></trkpt><trkpt lat="44.2056833" lon="12.0707367"><ele>22.0</ele><time>2026-05-02T09:22:56.54Z</time></trkpt><trkpt lat="44.2056333" lon="12.07086"><ele>22.200000000000003</ele><time>2026-05-02T09:22:58.54Z</time></trkpt><trkpt lat="44.2055817" lon="12.07099"><ele>22.4</ele><time>2026-05-02T09:23:00.54Z</time></trkpt><trkpt lat="44.205535" lon="12.071125"><ele>22.6</ele><time>2026-05-02T09:23:02.54Z</time></trkpt><trkpt lat="44.20549" lon="12.0712567"><ele>22.799999999999997</ele><time>2026-05-02T09:23:04.54Z</time></trkpt><trkpt lat="44.205445" lon="12.0713883"><ele>23.0</ele><time>2026-05-02T09:23:06.54Z</time></trkpt><trkpt lat="44.2054017" lon="12.07152"><ele>23.0</ele><time>2026-05-02T09:23:08.54Z</time></trkpt><trkpt lat="44.2053467" lon="12.07165"><ele>23.0</ele><time>2026-05-02T09:23:10.54Z</time></trkpt><trkpt lat="44.2052533" lon="12.0717967"><ele>23.0</ele><time>2026-05-02T09:23:12.54Z</time></trkpt><trkpt lat="44.205195" lon="12.0719367"><ele>23.0</ele><time>2026-05-02T09:23:14.54Z</time></trkpt><trkpt lat="44.2051383" lon="12.0720783"><ele>23.0</ele><time>2026-05-02T09:23:16.54Z</time></trkpt><trkpt lat="44.2050833" lon="12.0722233"><ele>23.0</ele><time>2026-05-02T09:23:18.54Z</time></trkpt><trkpt lat="44.20502" lon="12.0723667"><ele>23.0</ele><time>2026-05-02T09:23:20.54Z</time></trkpt><trkpt lat="44.2049767" lon="12.0725033"><ele>23.0</ele><time>2026-05-02T09:23:22.54Z</time></trkpt><trkpt lat="44.2049367" lon="12.072645"><ele>23.2</ele><time>2026-05-02T09:23:24.54Z</time></trkpt><trkpt lat="44.2048867" lon="12.0727833"><ele>23.4</ele><time>2026-05-02T09:23:26.54Z</time></trkpt><trkpt lat="44.20484" lon="12.0729183"><ele>23.599999999999998</ele><time>2026-05-02T09:23:28.54Z</time></trkpt><trkpt lat="44.2047883" lon="12.0730433"><ele>23.799999999999997</ele><time>2026-05-02T09:23:30.54Z</time></trkpt><trkpt lat="44.2047367" lon="12.07316"><ele>24.0</ele><time>2026-05-02T09:23:32.541Z</time></trkpt><trkpt lat="44.204685" lon="12.073295"><ele>23.6</ele><time>2026-05-02T09:23:34.541Z</time></trkpt><trkpt lat="44.2046283" lon="12.0734183"><ele>23.2</ele><time>2026-05-02T09:23:36.54Z</time></trkpt><trkpt lat="44.2045633" lon="12.073535"><ele>22.8</ele><time>2026-05-02T09:23:38.54Z</time></trkpt><trkpt lat="44.20452" lon="12.0736517"><ele>22.400000000000002</ele><time>2026-05-02T09:23:40.54Z</time></trkpt><trkpt lat="44.2044667" lon="12.0737667"><ele>22.0</ele><time>2026-05-02T09:23:42.54Z</time></trkpt><trkpt lat="44.2044167" lon="12.0738867"><ele>22.0</ele><time>2026-05-02T09:23:44.54Z</time></trkpt><trkpt lat="44.2043717" lon="12.07402"><ele>22.0</ele><time>2026-05-02T09:23:46.54Z</time></trkpt><trkpt lat="44.204325" lon="12.07415"><ele>22.0</ele><time>2026-05-02T09:23:48.54Z</time></trkpt><trkpt lat="44.2042633" lon="12.074275"><ele>22.0</ele><time>2026-05-02T09:23:50.54Z</time></trkpt><trkpt lat="44.2042217" lon="12.074355"><ele>22.0</ele><time>2026-05-02T09:23:51.54Z</time></trkpt><trkpt lat="44.2041583" lon="12.0744917"><ele>22.166666666666664</ele><time>2026-05-02T09:23:53.54Z</time></trkpt><trkpt lat="44.2041067" lon="12.0746"><ele>22.333333333333332</ele><time>2026-05-02T09:23:55.54Z</time></trkpt><trkpt lat="44.2040667" lon="12.0746717"><ele>22.5</ele><time>2026-05-02T09:23:57.54Z</time></trkpt><trkpt lat="44.204015" lon="12.0747267"><ele>22.666666666666668</ele><time>2026-05-02T09:24:00.54Z</time></trkpt><trkpt lat="44.20399" lon="12.0748117"><ele>22.833333333333336</ele><time>2026-05-02T09:24:03.54Z</time></trkpt><trkpt lat="44.203955" lon="12.0749317"><ele>23.0</ele><time>2026-05-02T09:24:06.54Z</time></trkpt><trkpt lat="44.2039183" lon="12.075035"><ele>23.2</ele><time>2026-05-02T09:24:08.54Z</time></trkpt><trkpt lat="44.2038917" lon="12.0751533"><ele>23.4</ele><time>2026-05-02T09:24:10.54Z</time></trkpt><trkpt lat="44.2038517" lon="12.0752733"><ele>23.599999999999998</ele><time>2026-05-02T09:24:12.54Z</time></trkpt><trkpt lat="44.203815" lon="12.075385"><ele>23.799999999999997</ele><time>2026-05-02T09:24:14.54Z</time></trkpt><trkpt lat="44.203785" lon="12.075515"><ele>24.0</ele><time>2026-05-02T09:24:16.54Z</time></trkpt><trkpt lat="44.2037367" lon="12.0756517"><ele>24.2</ele><time>2026-05-02T09:24:18.54Z</time></trkpt><trkpt lat="44.2036883" lon="12.07578"><ele>24.4</ele><time>2026-05-02T09:24:20.54Z</time></trkpt><trkpt lat="44.2036417" lon="12.0759"><ele>24.6</ele><time>2026-05-02T09:24:22.54Z</time></trkpt><trkpt lat="44.203595" lon="12.0760217"><ele>24.8</ele><time>2026-05-02T09:24:24.54Z</time></trkpt><trkpt lat="44.20355" lon="12.0761383"><ele>25.0</ele><time>2026-05-02T09:24:26.54Z</time></trkpt><trkpt lat="44.2034867" lon="12.0762517"><ele>25.0</ele><time>2026-05-02T09:24:28.54Z</time></trkpt><trkpt lat="44.203425" lon="12.0763767"><ele>25.0</ele><time>2026-05-02T09:24:30.54Z</time></trkpt><trkpt lat="44.20335" lon="12.0765633"><ele>25.0</ele><time>2026-05-02T09:24:33.54Z</time></trkpt><trkpt lat="44.2033067" lon="12.0766967"><ele>25.0</ele><time>2026-05-02T09:24:35.54Z</time></trkpt><trkpt lat="44.2032667" lon="12.076835"><ele>25.0</ele><time>2026-05-02T09:24:37.54Z</time></trkpt><trkpt lat="44.2032267" lon="12.0769767"><ele>25.0</ele><time>2026-05-02T09:24:39.54Z</time></trkpt><trkpt lat="44.2031683" lon="12.0771267"><ele>25.0</ele><time>2026-05-02T09:24:41.54Z</time></trkpt><trkpt lat="44.20311" lon="12.0772667"><ele>25.0</ele><time>2026-05-02T09:24:43.54Z</time></trkpt><trkpt lat="44.203055" lon="12.0774083"><ele>25.0</ele><time>2026-05-02T09:24:45.54Z</time></trkpt><trkpt lat="44.2029983" lon="12.0775433"><ele>25.0</ele><time>2026-05-02T09:24:47.54Z</time></trkpt><trkpt lat="44.2029467" lon="12.07768"><ele>25.0</ele><time>2026-05-02T09:24:49.54Z</time></trkpt><trkpt lat="44.2029067" lon="12.0778183"><ele>25.0</ele><time>2026-05-02T09:24:51.54Z</time></trkpt><trkpt lat="44.2028633" lon="12.0779567"><ele>25.0</ele><time>2026-05-02T09:24:53.54Z</time></trkpt><trkpt lat="44.20281" lon="12.0780817"><ele>25.0</ele><time>2026-05-02T09:24:55.54Z</time></trkpt><trkpt lat="44.2027717" lon="12.0782217"><ele>25.0</ele><time>2026-05-02T09:24:57.54Z</time></trkpt><trkpt lat="44.2027333" lon="12.0783517"><ele>25.0</ele><time>2026-05-02T09:24:59.54Z</time></trkpt><trkpt lat="44.20269" lon="12.07849"><ele>25.0</ele><time>2026-05-02T09:25:01.54Z</time></trkpt><trkpt lat="44.2026217" lon="12.0786267"><ele>25.0</ele><time>2026-05-02T09:25:03.54Z</time></trkpt><trkpt lat="44.202565" lon="12.0787717"><ele>25.0</ele><time>2026-05-02T09:25:05.54Z</time></trkpt><trkpt lat="44.202515" lon="12.07891"><ele>25.0</ele><time>2026-05-02T09:25:07.54Z</time></trkpt><trkpt lat="44.202455" lon="12.0790467"><ele>25.0</ele><time>2026-05-02T09:25:09.541Z</time></trkpt><trkpt lat="44.2024083" lon="12.0791933"><ele>25.0</ele><time>2026-05-02T09:25:11.54Z</time></trkpt><trkpt lat="44.20236" lon="12.0793367"><ele>25.0</ele><time>2026-05-02T09:25:13.54Z</time></trkpt><trkpt lat="44.2023033" lon="12.07947"><ele>25.0</ele><time>2026-05-02T09:25:15.541Z</time></trkpt><trkpt lat="44.20225" lon="12.07961"><ele>25.0</ele><time>2026-05-02T09:25:17.54Z</time></trkpt><trkpt lat="44.2022033" lon="12.079755"><ele>25.0</ele><time>2026-05-02T09:25:19.54Z</time></trkpt><trkpt lat="44.2021583" lon="12.0798833"><ele>25.0</ele><time>2026-05-02T09:25:21.54Z</time></trkpt><trkpt lat="44.2021017" lon="12.0800117"><ele>25.0</ele><time>2026-05-02T09:25:23.54Z</time></trkpt><trkpt lat="44.2020567" lon="12.08014"><ele>25.0</ele><time>2026-05-02T09:25:25.54Z</time></trkpt><trkpt lat="44.202015" lon="12.080265"><ele>25.0</ele><time>2026-05-02T09:25:27.54Z</time></trkpt><trkpt lat="44.20197" lon="12.0803917"><ele>25.0</ele><time>2026-05-02T09:25:29.54Z</time></trkpt><trkpt lat="44.2019283" lon="12.0805183"><ele>25.0</ele><time>2026-05-02T09:25:31.54Z</time></trkpt><trkpt lat="44.2018883" lon="12.0806717"><ele>25.000000000000004</ele><time>2026-05-02T09:25:33.54Z</time></trkpt><trkpt lat="44.20186" lon="12.0807633"><ele>25.0</ele><time>2026-05-02T09:25:34.54Z</time></trkpt><trkpt lat="44.20183" lon="12.0808533"><ele>25.0</ele><time>2026-05-02T09:25:35.54Z</time></trkpt><trkpt lat="44.2018033" lon="12.0809333"><ele>25.0</ele><time>2026-05-02T09:25:36.54Z</time></trkpt><trkpt lat="44.2017467" lon="12.0810617"><ele>25.000000000000004</ele><time>2026-05-02T09:25:38.54Z</time></trkpt><trkpt lat="44.2016933" lon="12.0811867"><ele>25.0</ele><time>2026-05-02T09:25:40.54Z</time></trkpt><trkpt lat="44.2016433" lon="12.0813083"><ele>25.166666666666668</ele><time>2026-05-02T09:25:42.54Z</time></trkpt><trkpt lat="44.2015967" lon="12.08142"><ele>25.333333333333336</ele><time>2026-05-02T09:25:44.54Z</time></trkpt><trkpt lat="44.20155" lon="12.0815367"><ele>25.5</ele><time>2026-05-02T09:25:46.54Z</time></trkpt><trkpt lat="44.201505" lon="12.0816433"><ele>25.666666666666664</ele><time>2026-05-02T09:25:48.54Z</time></trkpt><trkpt lat="44.20146" lon="12.081715"><ele>25.833333333333332</ele><time>2026-05-02T09:25:50.54Z</time></trkpt><trkpt lat="44.2013933" lon="12.08177"><ele>26.0</ele><time>2026-05-02T09:25:52.54Z</time></trkpt><trkpt lat="44.2013233" lon="12.0818583"><ele>25.999999999999996</ele><time>2026-05-02T09:25:54.54Z</time></trkpt><trkpt lat="44.2012733" lon="12.0819183"><ele>26.0</ele><time>2026-05-02T09:25:55.54Z</time></trkpt><trkpt lat="44.2012267" lon="12.082045"><ele>26.0</ele><time>2026-05-02T09:25:57.54Z</time></trkpt><trkpt lat="44.201185" lon="12.0821767"><ele>26.0</ele><time>2026-05-02T09:25:59.54Z</time></trkpt><trkpt lat="44.2011433" lon="12.0822817"><ele>25.999999999999996</ele><time>2026-05-02T09:26:01.54Z</time></trkpt><trkpt lat="44.2011167" lon="12.0823833"><ele>26.0</ele><time>2026-05-02T09:26:03.541Z</time></trkpt><trkpt lat="44.2010967" lon="12.0825017"><ele>25.8</ele><time>2026-05-02T09:26:06.54Z</time></trkpt><trkpt lat="44.20112" lon="12.0825967"><ele>25.6</ele><time>2026-05-02T09:26:11.54Z</time></trkpt><trkpt lat="44.2012183" lon="12.08265"><ele>25.4</ele><time>2026-05-02T09:26:14.54Z</time></trkpt><trkpt lat="44.201305" lon="12.082675"><ele>25.2</ele><time>2026-05-02T09:26:16.54Z</time></trkpt><trkpt lat="44.2014" lon="12.082705"><ele>25.0</ele><time>2026-05-02T09:26:18.54Z</time></trkpt><trkpt lat="44.2015033" lon="12.0827367"><ele>25.0</ele><time>2026-05-02T09:26:20.54Z</time></trkpt><trkpt lat="44.201605" lon="12.0827817"><ele>25.0</ele><time>2026-05-02T09:26:22.54Z</time></trkpt><trkpt lat="44.20171" lon="12.0828117"><ele>25.0</ele><time>2026-05-02T09:26:24.54Z</time></trkpt><trkpt lat="44.2018183" lon="12.0828367"><ele>25.0</ele><time>2026-05-02T09:26:26.54Z</time></trkpt><trkpt lat="44.2019283" lon="12.082855"><ele>25.0</ele><time>2026-05-02T09:26:28.54Z</time></trkpt><trkpt lat="44.20204" lon="12.082875"><ele>25.0</ele><time>2026-05-02T09:26:30.54Z</time></trkpt><trkpt lat="44.2021367" lon="12.0829017"><ele>25.0</ele><time>2026-05-02T09:26:32.54Z</time></trkpt><trkpt lat="44.2022317" lon="12.0829233"><ele>25.0</ele><time>2026-05-02T09:26:34.54Z</time></trkpt><trkpt lat="44.2023333" lon="12.08297"><ele>25.0</ele><time>2026-05-02T09:26:36.54Z</time></trkpt><trkpt lat="44.202435" lon="12.0830333"><ele>25.0</ele><time>2026-05-02T09:26:38.54Z</time></trkpt><trkpt lat="44.2025433" lon="12.0830833"><ele>25.0</ele><time>2026-05-02T09:26:40.54Z</time></trkpt><trkpt lat="44.2026433" lon="12.0831333"><ele>25.0</ele><time>2026-05-02T09:26:42.54Z</time></trkpt><trkpt lat="44.2027417" lon="12.0831533"><ele>25.0</ele><time>2026-05-02T09:26:44.54Z</time></trkpt><trkpt lat="44.2028467" lon="12.0831867"><ele>25.0</ele><time>2026-05-02T09:26:46.54Z</time></trkpt><trkpt lat="44.2029533" lon="12.08322"><ele>25.0</ele><time>2026-05-02T09:26:48.54Z</time></trkpt><trkpt lat="44.2030583" lon="12.0832333"><ele>25.4</ele><time>2026-05-02T09:26:50.54Z</time></trkpt><trkpt lat="44.2031667" lon="12.0832667"><ele>25.8</ele><time>2026-05-02T09:26:52.54Z</time></trkpt><trkpt lat="44.2032717" lon="12.0833033"><ele>26.200000000000003</ele><time>2026-05-02T09:26:54.54Z</time></trkpt><trkpt lat="44.2033783" lon="12.0833317"><ele>26.6</ele><time>2026-05-02T09:26:56.54Z</time></trkpt><trkpt lat="44.2034917" lon="12.083365"><ele>27.0</ele><time>2026-05-02T09:26:58.54Z</time></trkpt><trkpt lat="44.2036067" lon="12.083415"><ele>27.0</ele><time>2026-05-02T09:27:00.54Z</time></trkpt><trkpt lat="44.203715" lon="12.0834383"><ele>27.000000000000004</ele><time>2026-05-02T09:27:02.54Z</time></trkpt><trkpt lat="44.2038117" lon="12.0834633"><ele>27.000000000000004</ele><time>2026-05-02T09:27:04.54Z</time></trkpt><trkpt lat="44.2039033" lon="12.083485"><ele>27.0</ele><time>2026-05-02T09:27:06.54Z</time></trkpt><trkpt lat="44.2039867" lon="12.0835217"><ele>27.0</ele><time>2026-05-02T09:27:08.54Z</time></trkpt><trkpt lat="44.2040683" lon="12.0835983"><ele>26.833333333333332</ele><time>2026-05-02T09:27:10.54Z</time></trkpt><trkpt lat="44.204135" lon="12.0836583"><ele>26.666666666666664</ele><time>2026-05-02T09:27:12.54Z</time></trkpt><trkpt lat="44.2041833" lon="12.083725"><ele>26.5</ele><time>2026-05-02T09:27:15.54Z</time></trkpt><trkpt lat="44.20424" lon="12.0837917"><ele>26.333333333333332</ele><time>2026-05-02T09:27:20.54Z</time></trkpt><trkpt lat="44.2042783" lon="12.0838717"><ele>26.166666666666664</ele><time>2026-05-02T09:27:23.54Z</time></trkpt><trkpt lat="44.20423" lon="12.0839617"><ele>26.0</ele><time>2026-05-02T09:27:27.54Z</time></trkpt><trkpt lat="44.204185" lon="12.0840733"><ele>25.999999999999996</ele><time>2026-05-02T09:27:30.541Z</time></trkpt><trkpt lat="44.2041483" lon="12.0841717"><ele>26.0</ele><time>2026-05-02T09:27:32.54Z</time></trkpt><trkpt lat="44.2041067" lon="12.0842683"><ele>26.0</ele><time>2026-05-02T09:27:34.54Z</time></trkpt><trkpt lat="44.2040633" lon="12.0843717"><ele>26.0</ele><time>2026-05-02T09:27:36.54Z</time></trkpt><trkpt lat="44.2040233" lon="12.08449"><ele>25.999999999999996</ele><time>2026-05-02T09:27:38.54Z</time></trkpt><trkpt lat="44.2039733" lon="12.084595"><ele>26.0</ele><time>2026-05-02T09:27:40.54Z</time></trkpt><trkpt lat="44.2039183" lon="12.0846917"><ele>25.8</ele><time>2026-05-02T09:27:42.54Z</time></trkpt><trkpt lat="44.20387" lon="12.0848017"><ele>25.6</ele><time>2026-05-02T09:27:44.541Z</time></trkpt><trkpt lat="44.2038133" lon="12.08492"><ele>25.4</ele><time>2026-05-02T09:27:46.54Z</time></trkpt><trkpt lat="44.203755" lon="12.0850383"><ele>25.2</ele><time>2026-05-02T09:27:48.54Z</time></trkpt><trkpt lat="44.2037067" lon="12.085155"><ele>25.0</ele><time>2026-05-02T09:27:50.54Z</time></trkpt><trkpt lat="44.2036667" lon="12.0852667"><ele>24.666666666666668</ele><time>2026-05-02T09:27:52.54Z</time></trkpt><trkpt lat="44.203625" lon="12.085375"><ele>24.333333333333336</ele><time>2026-05-02T09:27:54.54Z</time></trkpt><trkpt lat="44.203585" lon="12.0854783"><ele>24.0</ele><time>2026-05-02T09:27:56.54Z</time></trkpt><trkpt lat="44.2035417" lon="12.0855867"><ele>23.666666666666668</ele><time>2026-05-02T09:27:58.54Z</time></trkpt><trkpt lat="44.2035" lon="12.08568"><ele>23.333333333333336</ele><time>2026-05-02T09:28:00.54Z</time></trkpt><trkpt lat="44.2034533" lon="12.085815"><ele>23.0</ele><time>2026-05-02T09:28:02.54Z</time></trkpt><trkpt lat="44.203405" lon="12.08595"><ele>22.4</ele><time>2026-05-02T09:28:04.54Z</time></trkpt><trkpt lat="44.2033517" lon="12.0860733"><ele>21.799999999999997</ele><time>2026-05-02T09:28:06.54Z</time></trkpt><trkpt lat="44.2032983" lon="12.0862033"><ele>21.2</ele><time>2026-05-02T09:28:08.54Z</time></trkpt><trkpt lat="44.2032467" lon="12.0863383"><ele>20.6</ele><time>2026-05-02T09:28:10.54Z</time></trkpt><trkpt lat="44.2031883" lon="12.0864783"><ele>20.0</ele><time>2026-05-02T09:28:12.54Z</time></trkpt><trkpt lat="44.20313" lon="12.086615"><ele>19.6</ele><time>2026-05-02T09:28:14.54Z</time></trkpt><trkpt lat="44.20307" lon="12.0867483"><ele>19.2</ele><time>2026-05-02T09:28:16.54Z</time></trkpt><trkpt lat="44.2030083" lon="12.0868883"><ele>18.8</ele><time>2026-05-02T09:28:18.54Z</time></trkpt><trkpt lat="44.2029483" lon="12.0870217"><ele>18.4</ele><time>2026-05-02T09:28:20.54Z</time></trkpt><trkpt lat="44.2028917" lon="12.087145"><ele>18.0</ele><time>2026-05-02T09:28:22.54Z</time></trkpt><trkpt lat="44.20284" lon="12.0872683"><ele>18.0</ele><time>2026-05-02T09:28:24.54Z</time></trkpt><trkpt lat="44.2027917" lon="12.087395"><ele>18.0</ele><time>2026-05-02T09:28:26.54Z</time></trkpt><trkpt lat="44.2027417" lon="12.087515"><ele>18.0</ele><time>2026-05-02T09:28:28.541Z</time></trkpt><trkpt lat="44.2026933" lon="12.087645"><ele>18.0</ele><time>2026-05-02T09:28:30.541Z</time></trkpt><trkpt lat="44.2026483" lon="12.0877567"><ele>18.0</ele><time>2026-05-02T09:28:32.54Z</time></trkpt><trkpt lat="44.2026083" lon="12.0878567"><ele>18.833333333333332</ele><time>2026-05-02T09:28:34.54Z</time></trkpt><trkpt lat="44.2025833" lon="12.0879567"><ele>19.666666666666668</ele><time>2026-05-02T09:28:36.54Z</time></trkpt><trkpt lat="44.2025567" lon="12.08806"><ele>20.5</ele><time>2026-05-02T09:28:38.54Z</time></trkpt><trkpt lat="44.20252" lon="12.0881733"><ele>21.333333333333336</ele><time>2026-05-02T09:28:40.54Z</time></trkpt><trkpt lat="44.202485" lon="12.08829"><ele>22.166666666666668</ele><time>2026-05-02T09:28:42.54Z</time></trkpt><trkpt lat="44.2024517" lon="12.0884133"><ele>23.0</ele><time>2026-05-02T09:28:44.54Z</time></trkpt><trkpt lat="44.2024217" lon="12.088545"><ele>23.2</ele><time>2026-05-02T09:28:46.54Z</time></trkpt><trkpt lat="44.202395" lon="12.0886833"><ele>23.4</ele><time>2026-05-02T09:28:48.54Z</time></trkpt><trkpt lat="44.20237" lon="12.0888283"><ele>23.599999999999998</ele><time>2026-05-02T09:28:50.54Z</time></trkpt><trkpt lat="44.20234" lon="12.08897"><ele>23.799999999999997</ele><time>2026-05-02T09:28:52.54Z</time></trkpt><trkpt lat="44.2023117" lon="12.0891083"><ele>24.0</ele><time>2026-05-02T09:28:54.54Z</time></trkpt><trkpt lat="44.20228" lon="12.08924"><ele>22.599999999999998</ele><time>2026-05-02T09:28:56.54Z</time></trkpt><trkpt lat="44.2022467" lon="12.0893883"><ele>21.2</ele><time>2026-05-02T09:28:58.54Z</time></trkpt><trkpt lat="44.2022117" lon="12.0895533"><ele>19.799999999999997</ele><time>2026-05-02T09:29:00.54Z</time></trkpt><trkpt lat="44.20219" lon="12.0896367"><ele>18.4</ele><time>2026-05-02T09:29:01.54Z</time></trkpt><trkpt lat="44.2021433" lon="12.0897883"><ele>17.0</ele><time>2026-05-02T09:29:03.54Z</time></trkpt><trkpt lat="44.2020917" lon="12.0899367"><ele>17.0</ele><time>2026-05-02T09:29:05.54Z</time></trkpt><trkpt lat="44.2020383" lon="12.0900917"><ele>17.0</ele><time>2026-05-02T09:29:07.54Z</time></trkpt><trkpt lat="44.2019817" lon="12.09024"><ele>17.0</ele><time>2026-05-02T09:29:09.54Z</time></trkpt><trkpt lat="44.201925" lon="12.09039"><ele>17.0</ele><time>2026-05-02T09:29:11.54Z</time></trkpt><trkpt lat="44.2018683" lon="12.090535"><ele>17.0</ele><time>2026-05-02T09:29:13.54Z</time></trkpt><trkpt lat="44.2018017" lon="12.0906683"><ele>17.0</ele><time>2026-05-02T09:29:15.54Z</time></trkpt><trkpt lat="44.2017333" lon="12.0907983"><ele>17.0</ele><time>2026-05-02T09:29:17.54Z</time></trkpt><trkpt lat="44.2016633" lon="12.0909217"><ele>17.0</ele><time>2026-05-02T09:29:19.54Z</time></trkpt><trkpt lat="44.201595" lon="12.0910433"><ele>17.4</ele><time>2026-05-02T09:29:21.54Z</time></trkpt><trkpt lat="44.2015317" lon="12.0911583"><ele>17.799999999999997</ele><time>2026-05-02T09:29:23.54Z</time></trkpt><trkpt lat="44.201465" lon="12.0912733"><ele>18.2</ele><time>2026-05-02T09:29:25.54Z</time></trkpt><trkpt lat="44.2014233" lon="12.09141"><ele>18.599999999999998</ele><time>2026-05-02T09:29:27.54Z</time></trkpt><trkpt lat="44.20142" lon="12.0915533"><ele>19.0</ele><time>2026-05-02T09:29:29.54Z</time></trkpt><trkpt lat="44.2014133" lon="12.091685"><ele>19.0</ele><time>2026-05-02T09:29:31.54Z</time></trkpt><trkpt lat="44.2013817" lon="12.091805"><ele>19.0</ele><time>2026-05-02T09:29:33.54Z</time></trkpt><trkpt lat="44.2013167" lon="12.0919067"><ele>19.0</ele><time>2026-05-02T09:29:35.54Z</time></trkpt><trkpt lat="44.20124" lon="12.0920133"><ele>19.0</ele><time>2026-05-02T09:29:37.54Z</time></trkpt><trkpt lat="44.201165" lon="12.0921267"><ele>19.0</ele><time>2026-05-02T09:29:39.54Z</time></trkpt><trkpt lat="44.2011067" lon="12.0922567"><ele>19.0</ele><time>2026-05-02T09:29:41.541Z</time></trkpt><trkpt lat="44.20105" lon="12.0923833"><ele>19.0</ele><time>2026-05-02T09:29:43.54Z</time></trkpt><trkpt lat="44.2009633" lon="12.0924783"><ele>19.0</ele><time>2026-05-02T09:29:45.54Z</time></trkpt><trkpt lat="44.2008633" lon="12.0925717"><ele>19.0</ele><time>2026-05-02T09:29:47.54Z</time></trkpt><trkpt lat="44.2008133" lon="12.09264"><ele>19.0</ele><time>2026-05-02T09:29:48.54Z</time></trkpt><trkpt lat="44.2007517" lon="12.0927717"><ele>19.6</ele><time>2026-05-02T09:29:50.54Z</time></trkpt><trkpt lat="44.200695" lon="12.0929017"><ele>20.2</ele><time>2026-05-02T09:29:52.541Z</time></trkpt><trkpt lat="44.2006183" lon="12.0930133"><ele>20.8</ele><time>2026-05-02T09:29:54.54Z</time></trkpt><trkpt lat="44.20053" lon="12.0931183"><ele>21.400000000000002</ele><time>2026-05-02T09:29:56.54Z</time></trkpt><trkpt lat="44.200475" lon="12.0931783"><ele>22.0</ele><time>2026-05-02T09:29:57.54Z</time></trkpt><trkpt lat="44.200425" lon="12.093325"><ele>22.6</ele><time>2026-05-02T09:29:59.54Z</time></trkpt><trkpt lat="44.2004033" lon="12.0934083"><ele>23.200000000000003</ele><time>2026-05-02T09:30:00.54Z</time></trkpt><trkpt lat="44.2003633" lon="12.0935617"><ele>23.8</ele><time>2026-05-02T09:30:02.54Z</time></trkpt><trkpt lat="44.2003133" lon="12.093705"><ele>24.4</ele><time>2026-05-02T09:30:04.54Z</time></trkpt><trkpt lat="44.200265" lon="12.0938367"><ele>25.0</ele><time>2026-05-02T09:30:06.54Z</time></trkpt><trkpt lat="44.200225" lon="12.09397"><ele>25.0</ele><time>2026-05-02T09:30:08.54Z</time></trkpt><trkpt lat="44.2001833" lon="12.09411"><ele>25.0</ele><time>2026-05-02T09:30:10.54Z</time></trkpt><trkpt lat="44.20015" lon="12.0942617"><ele>25.0</ele><time>2026-05-02T09:30:12.54Z</time></trkpt><trkpt lat="44.20014" lon="12.09441"><ele>25.0</ele><time>2026-05-02T09:30:14.54Z</time></trkpt><trkpt lat="44.200155" lon="12.0945567"><ele>25.0</ele><time>2026-05-02T09:30:16.54Z</time></trkpt><trkpt lat="44.2001883" lon="12.0946933"><ele>25.000000000000004</ele><time>2026-05-02T09:30:18.541Z</time></trkpt><trkpt lat="44.2002333" lon="12.0948333"><ele>25.0</ele><time>2026-05-02T09:30:20.54Z</time></trkpt><trkpt lat="44.2002867" lon="12.0949517"><ele>25.0</ele><time>2026-05-02T09:30:22.54Z</time></trkpt><trkpt lat="44.2003317" lon="12.0950333"><ele>25.0</ele><time>2026-05-02T09:30:24.54Z</time></trkpt><trkpt lat="44.2003217" lon="12.0951283"><ele>25.000000000000004</ele><time>2026-05-02T09:30:27.54Z</time></trkpt><trkpt lat="44.200315" lon="12.0952233"><ele>25.0</ele><time>2026-05-02T09:30:31.54Z</time></trkpt><trkpt lat="44.2003483" lon="12.0952983"><ele>25.000000000000004</ele><time>2026-05-02T09:30:35.54Z</time></trkpt><trkpt lat="44.2002683" lon="12.0953217"><ele>25.0</ele><time>2026-05-02T09:30:38.54Z</time></trkpt><trkpt lat="44.200195" lon="12.0953217"><ele>25.0</ele><time>2026-05-02T09:30:40.54Z</time></trkpt><trkpt lat="44.2001017" lon="12.0953083"><ele>25.0</ele><time>2026-05-02T09:30:42.54Z</time></trkpt><trkpt lat="44.20001" lon="12.0953267"><ele>25.000000000000004</ele><time>2026-05-02T09:30:44.54Z</time></trkpt><trkpt lat="44.1999183" lon="12.0953733"><ele>25.0</ele><time>2026-05-02T09:30:46.54Z</time></trkpt><trkpt lat="44.1998183" lon="12.0954033"><ele>25.25</ele><time>2026-05-02T09:30:48.54Z</time></trkpt><trkpt lat="44.199705" lon="12.0954167"><ele>25.5</ele><time>2026-05-02T09:30:50.541Z</time></trkpt><trkpt lat="44.199595" lon="12.0954467"><ele>25.75</ele><time>2026-05-02T09:30:52.54Z</time></trkpt><trkpt lat="44.1994917" lon="12.0955033"><ele>26.0</ele><time>2026-05-02T09:30:54.54Z</time></trkpt><trkpt lat="44.1993983" lon="12.0955933"><ele>26.0</ele><time>2026-05-02T09:30:56.54Z</time></trkpt><trkpt lat="44.1993183" lon="12.0957033"><ele>26.0</ele><time>2026-05-02T09:30:58.54Z</time></trkpt><trkpt lat="44.1992383" lon="12.0958267"><ele>26.0</ele><time>2026-05-02T09:31:00.54Z</time></trkpt><trkpt lat="44.199175" lon="12.09597"><ele>26.0</ele><time>2026-05-02T09:31:02.54Z</time></trkpt><trkpt lat="44.1991433" lon="12.0960467"><ele>26.0</ele><time>2026-05-02T09:31:03.54Z</time></trkpt><trkpt lat="44.199085" lon="12.0961933"><ele>25.8</ele><time>2026-05-02T09:31:05.54Z</time></trkpt><trkpt lat="44.1990283" lon="12.0963333"><ele>25.6</ele><time>2026-05-02T09:31:07.54Z</time></trkpt><trkpt lat="44.1989767" lon="12.0964683"><ele>25.4</ele><time>2026-05-02T09:31:09.54Z</time></trkpt><trkpt lat="44.1989367" lon="12.096585"><ele>25.2</ele><time>2026-05-02T09:31:11.54Z</time></trkpt><trkpt lat="44.198905" lon="12.09671"><ele>25.0</ele><time>2026-05-02T09:31:13.54Z</time></trkpt><trkpt lat="44.1988617" lon="12.0968267"><ele>25.0</ele><time>2026-05-02T09:31:15.54Z</time></trkpt><trkpt lat="44.1988067" lon="12.0969433"><ele>25.0</ele><time>2026-05-02T09:31:17.54Z</time></trkpt><trkpt lat="44.1987433" lon="12.097085"><ele>25.0</ele><time>2026-05-02T09:31:19.541Z</time></trkpt><trkpt lat="44.1986833" lon="12.09722"><ele>25.0</ele><time>2026-05-02T09:31:21.54Z</time></trkpt><trkpt lat="44.198625" lon="12.0973533"><ele>25.0</ele><time>2026-05-02T09:31:23.54Z</time></trkpt><trkpt lat="44.19857" lon="12.0974967"><ele>25.25</ele><time>2026-05-02T09:31:25.54Z</time></trkpt><trkpt lat="44.1985117" lon="12.09764"><ele>25.5</ele><time>2026-05-02T09:31:27.54Z</time></trkpt><trkpt lat="44.1984517" lon="12.0977867"><ele>25.75</ele><time>2026-05-02T09:31:29.54Z</time></trkpt><trkpt lat="44.1983933" lon="12.09792"><ele>26.0</ele><time>2026-05-02T09:31:31.54Z</time></trkpt><trkpt lat="44.1983367" lon="12.0980517"><ele>26.0</ele><time>2026-05-02T09:31:33.54Z</time></trkpt><trkpt lat="44.1982633" lon="12.09817"><ele>26.0</ele><time>2026-05-02T09:31:35.54Z</time></trkpt><trkpt lat="44.1982067" lon="12.0983033"><ele>26.0</ele><time>2026-05-02T09:31:37.54Z</time></trkpt><trkpt lat="44.1981483" lon="12.0984333"><ele>26.0</ele><time>2026-05-02T09:31:39.541Z</time></trkpt><trkpt lat="44.1981033" lon="12.0985483"><ele>26.0</ele><time>2026-05-02T09:31:41.541Z</time></trkpt><trkpt lat="44.198055" lon="12.098665"><ele>26.0</ele><time>2026-05-02T09:31:43.54Z</time></trkpt><trkpt lat="44.1980033" lon="12.0987833"><ele>26.0</ele><time>2026-05-02T09:31:45.54Z</time></trkpt><trkpt lat="44.1979617" lon="12.09889"><ele>26.0</ele><time>2026-05-02T09:31:47.541Z</time></trkpt><trkpt lat="44.1979167" lon="12.0989983"><ele>26.0</ele><time>2026-05-02T09:31:49.54Z</time></trkpt><trkpt lat="44.1978783" lon="12.0991233"><ele>26.0</ele><time>2026-05-02T09:31:51.54Z</time></trkpt><trkpt lat="44.1978367" lon="12.0992683"><ele>26.0</ele><time>2026-05-02T09:31:53.541Z</time></trkpt><trkpt lat="44.1977967" lon="12.09941"><ele>26.0</ele><time>2026-05-02T09:31:55.54Z</time></trkpt><trkpt lat="44.1977333" lon="12.099535"><ele>26.0</ele><time>2026-05-02T09:31:57.54Z</time></trkpt><trkpt lat="44.1976667" lon="12.09966"><ele>26.0</ele><time>2026-05-02T09:31:59.54Z</time></trkpt><trkpt lat="44.197605" lon="12.0998"><ele>26.0</ele><time>2026-05-02T09:32:01.54Z</time></trkpt><trkpt lat="44.197545" lon="12.099935"><ele>26.0</ele><time>2026-05-02T09:32:03.54Z</time></trkpt><trkpt lat="44.1974917" lon="12.100065"><ele>26.0</ele><time>2026-05-02T09:32:05.54Z</time></trkpt><trkpt lat="44.1974383" lon="12.1002"><ele>26.0</ele><time>2026-05-02T09:32:07.541Z</time></trkpt><trkpt lat="44.1973733" lon="12.1003267"><ele>26.0</ele><time>2026-05-02T09:32:09.54Z</time></trkpt><trkpt lat="44.1972933" lon="12.100445"><ele>26.0</ele><time>2026-05-02T09:32:11.54Z</time></trkpt><trkpt lat="44.1972283" lon="12.100575"><ele>26.0</ele><time>2026-05-02T09:32:13.54Z</time></trkpt><trkpt lat="44.1971767" lon="12.1007133"><ele>26.0</ele><time>2026-05-02T09:32:15.54Z</time></trkpt><trkpt lat="44.1971217" lon="12.1008717"><ele>26.0</ele><time>2026-05-02T09:32:17.54Z</time></trkpt><trkpt lat="44.1970683" lon="12.1010117"><ele>26.0</ele><time>2026-05-02T09:32:19.541Z</time></trkpt><trkpt lat="44.1970117" lon="12.1011483"><ele>26.200000000000003</ele><time>2026-05-02T09:32:21.541Z</time></trkpt><trkpt lat="44.19696" lon="12.10128"><ele>26.400000000000002</ele><time>2026-05-02T09:32:23.541Z</time></trkpt><trkpt lat="44.1969033" lon="12.1014083"><ele>26.6</ele><time>2026-05-02T09:32:25.54Z</time></trkpt><trkpt lat="44.1968517" lon="12.10154"><ele>26.8</ele><time>2026-05-02T09:32:27.54Z</time></trkpt><trkpt lat="44.1968017" lon="12.1016733"><ele>27.0</ele><time>2026-05-02T09:32:29.54Z</time></trkpt><trkpt lat="44.19675" lon="12.1018117"><ele>27.0</ele><time>2026-05-02T09:32:31.54Z</time></trkpt><trkpt lat="44.1966967" lon="12.1019517"><ele>27.0</ele><time>2026-05-02T09:32:33.54Z</time></trkpt><trkpt lat="44.1966467" lon="12.102085"><ele>27.0</ele><time>2026-05-02T09:32:35.54Z</time></trkpt><trkpt lat="44.196595" lon="12.102225"><ele>27.0</ele><time>2026-05-02T09:32:37.54Z</time></trkpt><trkpt lat="44.196545" lon="12.10237"><ele>27.0</ele><time>2026-05-02T09:32:39.541Z</time></trkpt><trkpt lat="44.1964917" lon="12.102505"><ele>27.000000000000004</ele><time>2026-05-02T09:32:41.54Z</time></trkpt><trkpt lat="44.1964733" lon="12.10259"><ele>27.000000000000004</ele><time>2026-05-02T09:32:42.54Z</time></trkpt><trkpt lat="44.19644" lon="12.10267"><ele>27.0</ele><time>2026-05-02T09:32:43.54Z</time></trkpt><trkpt lat="44.1963833" lon="12.10282"><ele>27.0</ele><time>2026-05-02T09:32:45.54Z</time></trkpt><trkpt lat="44.1963283" lon="12.102975"><ele>27.0</ele><time>2026-05-02T09:32:47.54Z</time></trkpt><trkpt lat="44.1962983" lon="12.1030533"><ele>27.0</ele><time>2026-05-02T09:32:48.54Z</time></trkpt><trkpt lat="44.196265" lon="12.1031333"><ele>27.0</ele><time>2026-05-02T09:32:49.541Z</time></trkpt><trkpt lat="44.196225" lon="12.103225"><ele>27.0</ele><time>2026-05-02T09:32:50.54Z</time></trkpt><trkpt lat="44.1961917" lon="12.1033067"><ele>27.0</ele><time>2026-05-02T09:32:51.54Z</time></trkpt><trkpt lat="44.196155" lon="12.1033817"><ele>27.0</ele><time>2026-05-02T09:32:52.541Z</time></trkpt><trkpt lat="44.1960967" lon="12.103535"><ele>27.0</ele><time>2026-05-02T09:32:54.54Z</time></trkpt><trkpt lat="44.196035" lon="12.10367"><ele>27.0</ele><time>2026-05-02T09:32:56.541Z</time></trkpt><trkpt lat="44.1959817" lon="12.1038033"><ele>27.0</ele><time>2026-05-02T09:32:58.54Z</time></trkpt><trkpt lat="44.19593" lon="12.1039433"><ele>27.0</ele><time>2026-05-02T09:33:00.54Z</time></trkpt><trkpt lat="44.1958717" lon="12.1040783"><ele>27.25</ele><time>2026-05-02T09:33:02.54Z</time></trkpt><trkpt lat="44.1958083" lon="12.1042083"><ele>27.5</ele><time>2026-05-02T09:33:04.54Z</time></trkpt><trkpt lat="44.1957467" lon="12.10436"><ele>27.75</ele><time>2026-05-02T09:33:06.54Z</time></trkpt><trkpt lat="44.19569" lon="12.10451"><ele>28.0</ele><time>2026-05-02T09:33:08.54Z</time></trkpt><trkpt lat="44.1956333" lon="12.1046533"><ele>27.75</ele><time>2026-05-02T09:33:10.54Z</time></trkpt><trkpt lat="44.1955767" lon="12.1047733"><ele>27.5</ele><time>2026-05-02T09:33:12.54Z</time></trkpt><trkpt lat="44.1955183" lon="12.104915"><ele>27.25</ele><time>2026-05-02T09:33:14.54Z</time></trkpt><trkpt lat="44.1954633" lon="12.1050633"><ele>27.0</ele><time>2026-05-02T09:33:16.54Z</time></trkpt><trkpt lat="44.19541" lon="12.1052117"><ele>27.0</ele><time>2026-05-02T09:33:18.54Z</time></trkpt><trkpt lat="44.1953467" lon="12.1053617"><ele>27.0</ele><time>2026-05-02T09:33:20.54Z</time></trkpt><trkpt lat="44.1953167" lon="12.10544"><ele>27.0</ele><time>2026-05-02T09:33:21.54Z</time></trkpt><trkpt lat="44.195285" lon="12.1055167"><ele>27.0</ele><time>2026-05-02T09:33:22.54Z</time></trkpt><trkpt lat="44.1952533" lon="12.105595"><ele>27.0</ele><time>2026-05-02T09:33:23.54Z</time></trkpt><trkpt lat="44.19519" lon="12.1057433"><ele>27.0</ele><time>2026-05-02T09:33:25.54Z</time></trkpt><trkpt lat="44.1951267" lon="12.1058833"><ele>26.8</ele><time>2026-05-02T09:33:27.54Z</time></trkpt><trkpt lat="44.1950683" lon="12.106015"><ele>26.6</ele><time>2026-05-02T09:33:29.54Z</time></trkpt><trkpt lat="44.1950183" lon="12.1061483"><ele>26.400000000000002</ele><time>2026-05-02T09:33:31.54Z</time></trkpt><trkpt lat="44.1949533" lon="12.106285"><ele>26.200000000000003</ele><time>2026-05-02T09:33:33.54Z</time></trkpt><trkpt lat="44.1949117" lon="12.1063817"><ele>26.0</ele><time>2026-05-02T09:33:35.54Z</time></trkpt><trkpt lat="44.1948867" lon="12.1064733"><ele>25.999999999999996</ele><time>2026-05-02T09:33:39.54Z</time></trkpt><trkpt lat="44.1948483" lon="12.10656"><ele>26.0</ele><time>2026-05-02T09:33:42.54Z</time></trkpt><trkpt lat="44.194815" lon="12.106635"><ele>26.0</ele><time>2026-05-02T09:33:44.54Z</time></trkpt><trkpt lat="44.1947733" lon="12.1067267"><ele>26.0</ele><time>2026-05-02T09:33:46.54Z</time></trkpt><trkpt lat="44.19473" lon="12.1068417"><ele>25.999999999999996</ele><time>2026-05-02T09:33:48.54Z</time></trkpt><trkpt lat="44.1946833" lon="12.106955"><ele>26.0</ele><time>2026-05-02T09:33:50.54Z</time></trkpt><trkpt lat="44.19463" lon="12.107075"><ele>26.200000000000003</ele><time>2026-05-02T09:33:52.54Z</time></trkpt><trkpt lat="44.1945883" lon="12.1071867"><ele>26.400000000000002</ele><time>2026-05-02T09:33:54.54Z</time></trkpt><trkpt lat="44.1945433" lon="12.1073033"><ele>26.6</ele><time>2026-05-02T09:33:56.54Z</time></trkpt><trkpt lat="44.194505" lon="12.1074283"><ele>26.8</ele><time>2026-05-02T09:33:58.54Z</time></trkpt><trkpt lat="44.19446" lon="12.1075617"><ele>27.0</ele><time>2026-05-02T09:34:00.54Z</time></trkpt><trkpt lat="44.1944033" lon="12.1076883"><ele>27.0</ele><time>2026-05-02T09:34:02.54Z</time></trkpt><trkpt lat="44.1943483" lon="12.10782"><ele>27.0</ele><time>2026-05-02T09:34:04.54Z</time></trkpt><trkpt lat="44.1943" lon="12.1079583"><ele>27.0</ele><time>2026-05-02T09:34:06.54Z</time></trkpt><trkpt lat="44.194245" lon="12.1081"><ele>27.0</ele><time>2026-05-02T09:34:08.54Z</time></trkpt><trkpt lat="44.194185" lon="12.10825"><ele>27.25</ele><time>2026-05-02T09:34:10.54Z</time></trkpt><trkpt lat="44.1941267" lon="12.1083983"><ele>27.5</ele><time>2026-05-02T09:34:12.54Z</time></trkpt><trkpt lat="44.19406" lon="12.10852"><ele>27.75</ele><time>2026-05-02T09:34:14.54Z</time></trkpt><trkpt lat="44.1939933" lon="12.10866"><ele>28.0</ele><time>2026-05-02T09:34:16.54Z</time></trkpt><trkpt lat="44.1939383" lon="12.1088017"><ele>27.599999999999998</ele><time>2026-05-02T09:34:18.54Z</time></trkpt><trkpt lat="44.1938883" lon="12.1089467"><ele>27.199999999999996</ele><time>2026-05-02T09:34:20.54Z</time></trkpt><trkpt lat="44.193845" lon="12.1090933"><ele>26.8</ele><time>2026-05-02T09:34:22.54Z</time></trkpt><trkpt lat="44.1938033" lon="12.109235"><ele>26.4</ele><time>2026-05-02T09:34:24.54Z</time></trkpt><trkpt lat="44.1937667" lon="12.1093683"><ele>26.0</ele><time>2026-05-02T09:34:26.54Z</time></trkpt><trkpt lat="44.19374" lon="12.109505"><ele>26.0</ele><time>2026-05-02T09:34:28.54Z</time></trkpt><trkpt lat="44.1937" lon="12.10963"><ele>26.0</ele><time>2026-05-02T09:34:30.54Z</time></trkpt><trkpt lat="44.1936367" lon="12.1097367"><ele>26.0</ele><time>2026-05-02T09:34:32.54Z</time></trkpt><trkpt lat="44.19358" lon="12.1098383"><ele>26.0</ele><time>2026-05-02T09:34:34.54Z</time></trkpt><trkpt lat="44.1935333" lon="12.1099917"><ele>26.0</ele><time>2026-05-02T09:34:37.54Z</time></trkpt><trkpt lat="44.1934717" lon="12.1100167"><ele>25.999999999999996</ele><time>2026-05-02T09:34:44.541Z</time></trkpt><trkpt lat="44.1934183" lon="12.1099667"><ele>26.0</ele><time>2026-05-02T09:34:46.54Z</time></trkpt><trkpt lat="44.193345" lon="12.109935"><ele>26.0</ele><time>2026-05-02T09:34:48.54Z</time></trkpt><trkpt lat="44.1932767" lon="12.109885"><ele>26.0</ele><time>2026-05-02T09:34:50.54Z</time></trkpt><trkpt lat="44.1932" lon="12.1098333"><ele>25.999999999999996</ele><time>2026-05-02T09:34:52.54Z</time></trkpt><trkpt lat="44.1931217" lon="12.1097767"><ele>26.0</ele><time>2026-05-02T09:34:54.54Z</time></trkpt><trkpt lat="44.1930383" lon="12.1097267"><ele>26.0</ele><time>2026-05-02T09:34:56.54Z</time></trkpt><trkpt lat="44.1929433" lon="12.1096567"><ele>26.0</ele><time>2026-05-02T09:34:58.54Z</time></trkpt><trkpt lat="44.1928467" lon="12.1095917"><ele>26.0</ele><time>2026-05-02T09:35:00.54Z</time></trkpt><trkpt lat="44.1927567" lon="12.1095167"><ele>26.0</ele><time>2026-05-02T09:35:02.54Z</time></trkpt><trkpt lat="44.1926617" lon="12.1094433"><ele>26.0</ele><time>2026-05-02T09:35:04.54Z</time></trkpt><trkpt lat="44.19257" lon="12.10938"><ele>26.0</ele><time>2026-05-02T09:35:06.54Z</time></trkpt><trkpt lat="44.1924733" lon="12.1093033"><ele>26.0</ele><time>2026-05-02T09:35:08.54Z</time></trkpt><trkpt lat="44.1923767" lon="12.1092383"><ele>26.0</ele><time>2026-05-02T09:35:10.54Z</time></trkpt><trkpt lat="44.192285" lon="12.10916"><ele>26.0</ele><time>2026-05-02T09:35:12.54Z</time></trkpt><trkpt lat="44.1921883" lon="12.109085"><ele>26.0</ele><time>2026-05-02T09:35:14.54Z</time></trkpt><trkpt lat="44.1920817" lon="12.1090217"><ele>26.0</ele><time>2026-05-02T09:35:16.541Z</time></trkpt><trkpt lat="44.1919883" lon="12.108945"><ele>26.0</ele><time>2026-05-02T09:35:18.54Z</time></trkpt><trkpt lat="44.1918883" lon="12.1088567"><ele>26.0</ele><time>2026-05-02T09:35:20.54Z</time></trkpt><trkpt lat="44.19179" lon="12.108785"><ele>26.0</ele><time>2026-05-02T09:35:22.54Z</time></trkpt><trkpt lat="44.1916983" lon="12.108725"><ele>26.0</ele><time>2026-05-02T09:35:24.54Z</time></trkpt><trkpt lat="44.1916083" lon="12.108665"><ele>26.0</ele><time>2026-05-02T09:35:26.54Z</time></trkpt><trkpt lat="44.1915117" lon="12.1086"><ele>26.0</ele><time>2026-05-02T09:35:28.54Z</time></trkpt><trkpt lat="44.1914167" lon="12.1085233"><ele>26.0</ele><time>2026-05-02T09:35:30.54Z</time></trkpt><trkpt lat="44.191315" lon="12.1084483"><ele>26.0</ele><time>2026-05-02T09:35:32.54Z</time></trkpt><trkpt lat="44.1912117" lon="12.1083833"><ele>26.0</ele><time>2026-05-02T09:35:34.54Z</time></trkpt><trkpt lat="44.1911067" lon="12.10831"><ele>26.4</ele><time>2026-05-02T09:35:36.54Z</time></trkpt><trkpt lat="44.1910217" lon="12.1082383"><ele>26.8</ele><time>2026-05-02T09:35:38.541Z</time></trkpt><trkpt lat="44.1909367" lon="12.1081633"><ele>27.199999999999996</ele><time>2026-05-02T09:35:40.54Z</time></trkpt><trkpt lat="44.190825" lon="12.1081"><ele>27.599999999999998</ele><time>2026-05-02T09:35:42.54Z</time></trkpt><trkpt lat="44.1907183" lon="12.1080367"><ele>28.0</ele><time>2026-05-02T09:35:44.54Z</time></trkpt><trkpt lat="44.19062" lon="12.1079783"><ele>28.0</ele><time>2026-05-02T09:35:46.54Z</time></trkpt><trkpt lat="44.19052" lon="12.1079017"><ele>28.0</ele><time>2026-05-02T09:35:48.54Z</time></trkpt><trkpt lat="44.19042" lon="12.1078233"><ele>28.0</ele><time>2026-05-02T09:35:50.54Z</time></trkpt><trkpt lat="44.1903233" lon="12.1077383"><ele>28.0</ele><time>2026-05-02T09:35:52.54Z</time></trkpt><trkpt lat="44.1902233" lon="12.1076533"><ele>28.0</ele><time>2026-05-02T09:35:54.54Z</time></trkpt><trkpt lat="44.1901267" lon="12.1075833"><ele>27.999999999999996</ele><time>2026-05-02T09:35:56.54Z</time></trkpt><trkpt lat="44.1900317" lon="12.1075183"><ele>27.999999999999996</ele><time>2026-05-02T09:35:58.54Z</time></trkpt><trkpt lat="44.1899367" lon="12.107445"><ele>28.0</ele><time>2026-05-02T09:36:00.54Z</time></trkpt><trkpt lat="44.1898333" lon="12.107375"><ele>28.0</ele><time>2026-05-02T09:36:02.54Z</time></trkpt><trkpt lat="44.18973" lon="12.1073067"><ele>28.0</ele><time>2026-05-02T09:36:04.54Z</time></trkpt><trkpt lat="44.1896283" lon="12.107265"><ele>27.999999999999996</ele><time>2026-05-02T09:36:06.54Z</time></trkpt><trkpt lat="44.189535" lon="12.107245"><ele>27.999999999999996</ele><time>2026-05-02T09:36:08.54Z</time></trkpt><trkpt lat="44.1894483" lon="12.1073067"><ele>28.0</ele><time>2026-05-02T09:36:10.54Z</time></trkpt><trkpt lat="44.1893783" lon="12.1074217"><ele>28.0</ele><time>2026-05-02T09:36:12.54Z</time></trkpt><trkpt lat="44.1892833" lon="12.1075117"><ele>28.0</ele><time>2026-05-02T09:36:14.54Z</time></trkpt><trkpt lat="44.1891583" lon="12.1074933"><ele>28.0</ele><time>2026-05-02T09:36:16.54Z</time></trkpt><trkpt lat="44.189045" lon="12.1074217"><ele>28.0</ele><time>2026-05-02T09:36:18.54Z</time></trkpt><trkpt lat="44.188945" lon="12.1073517"><ele>28.0</ele><time>2026-05-02T09:36:20.54Z</time></trkpt><trkpt lat="44.18884" lon="12.1072817"><ele>27.799999999999997</ele><time>2026-05-02T09:36:22.54Z</time></trkpt><trkpt lat="44.1887417" lon="12.107215"><ele>27.599999999999998</ele><time>2026-05-02T09:36:24.54Z</time></trkpt><trkpt lat="44.188645" lon="12.1071467"><ele>27.400000000000002</ele><time>2026-05-02T09:36:26.541Z</time></trkpt><trkpt lat="44.1885417" lon="12.1070583"><ele>27.200000000000003</ele><time>2026-05-02T09:36:28.54Z</time></trkpt><trkpt lat="44.1884883" lon="12.10701"><ele>27.0</ele><time>2026-05-02T09:36:29.54Z</time></trkpt><trkpt lat="44.188385" lon="12.1069183"><ele>27.0</ele><time>2026-05-02T09:36:31.54Z</time></trkpt><trkpt lat="44.1882767" lon="12.106835"><ele>27.0</ele><time>2026-05-02T09:36:33.54Z</time></trkpt><trkpt lat="44.18817" lon="12.10675"><ele>27.0</ele><time>2026-05-02T09:36:35.54Z</time></trkpt><trkpt lat="44.18807" lon="12.106655"><ele>27.0</ele><time>2026-05-02T09:36:37.54Z</time></trkpt><trkpt lat="44.1879667" lon="12.106575"><ele>27.200000000000003</ele><time>2026-05-02T09:36:39.54Z</time></trkpt><trkpt lat="44.187865" lon="12.1065117"><ele>27.400000000000002</ele><time>2026-05-02T09:36:41.54Z</time></trkpt><trkpt lat="44.18778" lon="12.1064367"><ele>27.599999999999998</ele><time>2026-05-02T09:36:43.54Z</time></trkpt><trkpt lat="44.1877" lon="12.106375"><ele>27.799999999999997</ele><time>2026-05-02T09:36:45.54Z</time></trkpt><trkpt lat="44.187615" lon="12.1063133"><ele>28.0</ele><time>2026-05-02T09:36:47.54Z</time></trkpt><trkpt lat="44.1875133" lon="12.1062783"><ele>28.0</ele><time>2026-05-02T09:36:49.54Z</time></trkpt><trkpt lat="44.187415" lon="12.1063"><ele>27.999999999999996</ele><time>2026-05-02T09:36:51.54Z</time></trkpt><trkpt lat="44.1873333" lon="12.1063833"><ele>27.999999999999996</ele><time>2026-05-02T09:36:53.54Z</time></trkpt><trkpt lat="44.187275" lon="12.10651"><ele>28.0</ele><time>2026-05-02T09:36:55.54Z</time></trkpt><trkpt lat="44.18721" lon="12.1066533"><ele>28.0</ele><time>2026-05-02T09:36:57.54Z</time></trkpt><trkpt lat="44.1871433" lon="12.10679"><ele>27.799999999999997</ele><time>2026-05-02T09:36:59.54Z</time></trkpt><trkpt lat="44.18707" lon="12.1069317"><ele>27.599999999999998</ele><time>2026-05-02T09:37:01.54Z</time></trkpt><trkpt lat="44.187035" lon="12.107005"><ele>27.400000000000002</ele><time>2026-05-02T09:37:02.54Z</time></trkpt><trkpt lat="44.1869717" lon="12.1071467"><ele>27.200000000000003</ele><time>2026-05-02T09:37:04.54Z</time></trkpt><trkpt lat="44.18691" lon="12.1072817"><ele>27.0</ele><time>2026-05-02T09:37:06.54Z</time></trkpt><trkpt lat="44.1868533" lon="12.1074117"><ele>27.0</ele><time>2026-05-02T09:37:08.54Z</time></trkpt><trkpt lat="44.1868017" lon="12.107545"><ele>27.0</ele><time>2026-05-02T09:37:10.541Z</time></trkpt><trkpt lat="44.18674" lon="12.1076867"><ele>27.0</ele><time>2026-05-02T09:37:12.54Z</time></trkpt><trkpt lat="44.1866733" lon="12.1078283"><ele>27.0</ele><time>2026-05-02T09:37:14.54Z</time></trkpt><trkpt lat="44.1866117" lon="12.1079617"><ele>27.0</ele><time>2026-05-02T09:37:16.54Z</time></trkpt><trkpt lat="44.1865517" lon="12.1080933"><ele>27.0</ele><time>2026-05-02T09:37:18.54Z</time></trkpt><trkpt lat="44.186495" lon="12.10824"><ele>27.0</ele><time>2026-05-02T09:37:20.54Z</time></trkpt><trkpt lat="44.186465" lon="12.1083183"><ele>27.0</ele><time>2026-05-02T09:37:21.54Z</time></trkpt><trkpt lat="44.18643" lon="12.1083917"><ele>27.0</ele><time>2026-05-02T09:37:22.54Z</time></trkpt><trkpt lat="44.186395" lon="12.1084667"><ele>27.0</ele><time>2026-05-02T09:37:23.541Z</time></trkpt><trkpt lat="44.18636" lon="12.10854"><ele>27.25</ele><time>2026-05-02T09:37:24.54Z</time></trkpt><trkpt lat="44.1862967" lon="12.10868"><ele>27.5</ele><time>2026-05-02T09:37:26.54Z</time></trkpt><trkpt lat="44.1862283" lon="12.1088183"><ele>27.75</ele><time>2026-05-02T09:37:28.54Z</time></trkpt><trkpt lat="44.186165" lon="12.108955"><ele>28.0</ele><time>2026-05-02T09:37:30.54Z</time></trkpt><trkpt lat="44.1861017" lon="12.1090933"><ele>28.0</ele><time>2026-05-02T09:37:32.54Z</time></trkpt><trkpt lat="44.1860417" lon="12.109235"><ele>27.999999999999996</ele><time>2026-05-02T09:37:34.54Z</time></trkpt><trkpt lat="44.185975" lon="12.1093617"><ele>27.999999999999996</ele><time>2026-05-02T09:37:36.54Z</time></trkpt><trkpt lat="44.1859267" lon="12.1094383"><ele>28.0</ele><time>2026-05-02T09:37:37.54Z</time></trkpt><trkpt lat="44.18588" lon="12.1095017"><ele>28.0</ele><time>2026-05-02T09:37:38.54Z</time></trkpt><trkpt lat="44.1857933" lon="12.1096183"><ele>28.0</ele><time>2026-05-02T09:37:40.54Z</time></trkpt><trkpt lat="44.185705" lon="12.1097367"><ele>28.0</ele><time>2026-05-02T09:37:42.54Z</time></trkpt><trkpt lat="44.1856167" lon="12.1098583"><ele>28.0</ele><time>2026-05-02T09:37:44.54Z</time></trkpt><trkpt lat="44.18553" lon="12.109985"><ele>28.0</ele><time>2026-05-02T09:37:46.54Z</time></trkpt><trkpt lat="44.18545" lon="12.1101067"><ele>27.799999999999997</ele><time>2026-05-02T09:37:48.54Z</time></trkpt><trkpt lat="44.18539" lon="12.1102367"><ele>27.599999999999998</ele><time>2026-05-02T09:37:50.54Z</time></trkpt><trkpt lat="44.1853317" lon="12.11037"><ele>27.400000000000002</ele><time>2026-05-02T09:37:52.54Z</time></trkpt><trkpt lat="44.1852733" lon="12.1105083"><ele>27.200000000000003</ele><time>2026-05-02T09:37:54.54Z</time></trkpt><trkpt lat="44.185215" lon="12.11064"><ele>27.0</ele><time>2026-05-02T09:37:56.54Z</time></trkpt><trkpt lat="44.1851583" lon="12.11077"><ele>27.0</ele><time>2026-05-02T09:37:58.54Z</time></trkpt><trkpt lat="44.1851167" lon="12.1109083"><ele>27.0</ele><time>2026-05-02T09:38:00.54Z</time></trkpt><trkpt lat="44.18509" lon="12.1110767"><ele>27.0</ele><time>2026-05-02T09:38:02.54Z</time></trkpt><trkpt lat="44.18507" lon="12.1112467"><ele>27.0</ele><time>2026-05-02T09:38:04.54Z</time></trkpt><trkpt lat="44.18506" lon="12.111405"><ele>27.0</ele><time>2026-05-02T09:38:06.54Z</time></trkpt><trkpt lat="44.1850333" lon="12.1115417"><ele>27.000000000000004</ele><time>2026-05-02T09:38:08.54Z</time></trkpt><trkpt lat="44.18499" lon="12.11168"><ele>27.000000000000004</ele><time>2026-05-02T09:38:10.54Z</time></trkpt><trkpt lat="44.1849317" lon="12.11176"><ele>27.0</ele><time>2026-05-02T09:38:13.54Z</time></trkpt><trkpt lat="44.18485" lon="12.1118217"><ele>27.0</ele><time>2026-05-02T09:38:16.54Z</time></trkpt><trkpt lat="44.1847833" lon="12.1118817"><ele>27.0</ele><time>2026-05-02T09:38:18.54Z</time></trkpt><trkpt lat="44.1847333" lon="12.1119567"><ele>27.0</ele><time>2026-05-02T09:38:20.54Z</time></trkpt><trkpt lat="44.1846967" lon="12.1120567"><ele>27.0</ele><time>2026-05-02T09:38:22.54Z</time></trkpt><trkpt lat="44.1846767" lon="12.112175"><ele>27.0</ele><time>2026-05-02T09:38:24.54Z</time></trkpt><trkpt lat="44.184655" lon="12.1123067"><ele>27.0</ele><time>2026-05-02T09:38:26.54Z</time></trkpt><trkpt lat="44.184625" lon="12.1124367"><ele>27.0</ele><time>2026-05-02T09:38:28.54Z</time></trkpt><trkpt lat="44.1845517" lon="12.1125567"><ele>27.0</ele><time>2026-05-02T09:38:30.54Z</time></trkpt><trkpt lat="44.1844717" lon="12.11266"><ele>27.000000000000004</ele><time>2026-05-02T09:38:32.54Z</time></trkpt><trkpt lat="44.1843917" lon="12.1127717"><ele>27.000000000000004</ele><time>2026-05-02T09:38:34.54Z</time></trkpt><trkpt lat="44.1843233" lon="12.11289"><ele>27.0</ele><time>2026-05-02T09:38:36.54Z</time></trkpt><trkpt lat="44.18429" lon="12.113035"><ele>27.0</ele><time>2026-05-02T09:38:38.54Z</time></trkpt><trkpt lat="44.1843283" lon="12.1131833"><ele>27.400000000000002</ele><time>2026-05-02T09:38:40.54Z</time></trkpt><trkpt lat="44.1844133" lon="12.11329"><ele>27.800000000000004</ele><time>2026-05-02T09:38:42.54Z</time></trkpt><trkpt lat="44.184465" lon="12.113345"><ele>28.2</ele><time>2026-05-02T09:38:43.54Z</time></trkpt><trkpt lat="44.184565" lon="12.1134233"><ele>28.6</ele><time>2026-05-02T09:38:45.54Z</time></trkpt><trkpt lat="44.184655" lon="12.1134917"><ele>29.0</ele><time>2026-05-02T09:38:47.54Z</time></trkpt><trkpt lat="44.184755" lon="12.113565"><ele>28.6</ele><time>2026-05-02T09:38:49.54Z</time></trkpt><trkpt lat="44.18485" lon="12.1136433"><ele>28.2</ele><time>2026-05-02T09:38:51.54Z</time></trkpt><trkpt lat="44.18493" lon="12.11371"><ele>27.800000000000004</ele><time>2026-05-02T09:38:53.54Z</time></trkpt><trkpt lat="44.184995" lon="12.1138017"><ele>27.400000000000002</ele><time>2026-05-02T09:38:55.54Z</time></trkpt><trkpt lat="44.185" lon="12.11392"><ele>27.0</ele><time>2026-05-02T09:38:57.54Z</time></trkpt><trkpt lat="44.18496" lon="12.1140333"><ele>27.166666666666668</ele><time>2026-05-02T09:38:59.54Z</time></trkpt><trkpt lat="44.1849317" lon="12.114145"><ele>27.333333333333336</ele><time>2026-05-02T09:39:01.54Z</time></trkpt><trkpt lat="44.1849" lon="12.1142517"><ele>27.5</ele><time>2026-05-02T09:39:03.541Z</time></trkpt><trkpt lat="44.1848767" lon="12.1143467"><ele>27.666666666666668</ele><time>2026-05-02T09:39:05.54Z</time></trkpt><trkpt lat="44.184925" lon="12.1144133"><ele>27.833333333333336</ele><time>2026-05-02T09:39:07.54Z</time></trkpt><trkpt lat="44.1850017" lon="12.1144733"><ele>28.0</ele><time>2026-05-02T09:39:10.541Z</time></trkpt><trkpt lat="44.1850517" lon="12.11456"><ele>28.0</ele><time>2026-05-02T09:39:13.54Z</time></trkpt><trkpt lat="44.185035" lon="12.1146533"><ele>28.0</ele><time>2026-05-02T09:39:16.54Z</time></trkpt><trkpt lat="44.18501" lon="12.1147617"><ele>28.0</ele><time>2026-05-02T09:39:19.54Z</time></trkpt><trkpt lat="44.1850222" lon="12.1149358"><ele>29.0</ele><time>2026-05-02T09:40:30.063Z</time></trkpt><trkpt lat="44.1850933" lon="12.1149433"><ele>29.0</ele><time>2026-05-02T09:40:33.964Z</time></trkpt></trkseg></trk></gpx>